<?xml version='1.0' encoding='UTF-8'?><gpx version="1.1" creator="JPX - https://github.com/jenetics/jpx" xmlns="http://www.topografix.com/GPX/1/1"><trk><trkseg><trkpt lat="43.3140436" lon="-8.3827208"><ele>54.0</ele><time>2026-04-05T08:15:38.602Z</time></trkpt><trkpt lat="43.3139519" lon="-8.3828098"><ele>54.0</ele><time>2026-04-05T08:15:40.603Z</time></trkpt><trkpt lat="43.3138883" lon="-8.3828775"><ele>54.0</ele><time>2026-04-05T08:15:43.603Z</time></trkpt><trkpt lat="43.3138331" lon="-8.3829244"><ele>54.0</ele><time>2026-04-05T08:15:52.603Z</time></trkpt><trkpt lat="43.3137931" lon="-8.3830662"><ele>54.0</ele><time>2026-04-05T08:15:54.603Z</time></trkpt><trkpt lat="43.3137847" lon="-8.3831556"><ele>54.0</ele><time>2026-04-05T08:15:55.602Z</time></trkpt><trkpt lat="43.3137679" lon="-8.3832441"><ele>52.833333333333336</ele><time>2026-04-05T08:15:56.603Z</time></trkpt><trkpt lat="43.3137028" lon="-8.3832864"><ele>51.666666666666664</ele><time>2026-04-05T08:15:57.603Z</time></trkpt><trkpt lat="43.3136352" lon="-8.3832763"><ele>50.5</ele><time>2026-04-05T08:15:58.603Z</time></trkpt><trkpt lat="43.313588" lon="-8.3832063"><ele>49.33333333333333</ele><time>2026-04-05T08:15:59.602Z</time></trkpt><trkpt lat="43.3135673" lon="-8.3831055"><ele>48.166666666666664</ele><time>2026-04-05T08:16:00.603Z</time></trkpt><trkpt lat="43.3135577" lon="-8.3829988"><ele>47.0</ele><time>2026-04-05T08:16:01.602Z</time></trkpt><trkpt lat="43.3135556" lon="-8.382871"><ele>46.6</ele><time>2026-04-05T08:16:02.602Z</time></trkpt><trkpt lat="43.3135467" lon="-8.3827429"><ele>46.2</ele><time>2026-04-05T08:16:03.603Z</time></trkpt><trkpt lat="43.3135298" lon="-8.3826007"><ele>45.8</ele><time>2026-04-05T08:16:04.603Z</time></trkpt><trkpt lat="43.3135107" lon="-8.3824539"><ele>45.4</ele><time>2026-04-05T08:16:05.602Z</time></trkpt><trkpt lat="43.3134926" lon="-8.3823167"><ele>45.0</ele><time>2026-04-05T08:16:06.603Z</time></trkpt><trkpt lat="43.3134713" lon="-8.382138"><ele>44.0</ele><time>2026-04-05T08:16:07.602Z</time></trkpt><trkpt lat="43.3134626" lon="-8.3819647"><ele>43.0</ele><time>2026-04-05T08:16:08.602Z</time></trkpt><trkpt lat="43.3134645" lon="-8.3817952"><ele>42.0</ele><time>2026-04-05T08:16:09.603Z</time></trkpt><trkpt lat="43.3134588" lon="-8.3816106"><ele>41.0</ele><time>2026-04-05T08:16:10.603Z</time></trkpt><trkpt lat="43.313449" lon="-8.3814178"><ele>39.33333333333333</ele><time>2026-04-05T08:16:11.603Z</time></trkpt><trkpt lat="43.3134318" lon="-8.3812107"><ele>37.666666666666664</ele><time>2026-04-05T08:16:12.602Z</time></trkpt><trkpt lat="43.3134214" lon="-8.3809933"><ele>36.0</ele><time>2026-04-05T08:16:13.602Z</time></trkpt><trkpt lat="43.3134162" lon="-8.3808014"><ele>36.0</ele><time>2026-04-05T08:16:14.602Z</time></trkpt><trkpt lat="43.3133881" lon="-8.380561"><ele>36.0</ele><time>2026-04-05T08:16:15.603Z</time></trkpt><trkpt lat="43.313365" lon="-8.3803236"><ele>36.0</ele><time>2026-04-05T08:16:16.603Z</time></trkpt><trkpt lat="43.3133465" lon="-8.3800836"><ele>35.0</ele><time>2026-04-05T08:16:17.603Z</time></trkpt><trkpt lat="43.3133306" lon="-8.3798467"><ele>34.0</ele><time>2026-04-05T08:16:18.603Z</time></trkpt><trkpt lat="43.3133201" lon="-8.3796077"><ele>33.0</ele><time>2026-04-05T08:16:19.602Z</time></trkpt><trkpt lat="43.3133141" lon="-8.3793687"><ele>31.333333333333336</ele><time>2026-04-05T08:16:20.602Z</time></trkpt><trkpt lat="43.3133181" lon="-8.379129"><ele>29.666666666666668</ele><time>2026-04-05T08:16:21.603Z</time></trkpt><trkpt lat="43.3133202" lon="-8.3788803"><ele>28.0</ele><time>2026-04-05T08:16:22.603Z</time></trkpt><trkpt lat="43.313327" lon="-8.3786439"><ele>27.0</ele><time>2026-04-05T08:16:23.602Z</time></trkpt><trkpt lat="43.3133381" lon="-8.3784094"><ele>26.0</ele><time>2026-04-05T08:16:24.603Z</time></trkpt><trkpt lat="43.3133517" lon="-8.3781784"><ele>25.0</ele><time>2026-04-05T08:16:25.602Z</time></trkpt><trkpt lat="43.3133685" lon="-8.3779463"><ele>24.666666666666668</ele><time>2026-04-05T08:16:26.602Z</time></trkpt><trkpt lat="43.313386" lon="-8.377715"><ele>24.333333333333336</ele><time>2026-04-05T08:16:27.603Z</time></trkpt><trkpt lat="43.3134027" lon="-8.3774913"><ele>24.0</ele><time>2026-04-05T08:16:28.602Z</time></trkpt><trkpt lat="43.3134166" lon="-8.3772748"><ele>22.75</ele><time>2026-04-05T08:16:29.603Z</time></trkpt><trkpt lat="43.3134329" lon="-8.3770671"><ele>21.5</ele><time>2026-04-05T08:16:30.603Z</time></trkpt><trkpt lat="43.313446" lon="-8.3768675"><ele>20.25</ele><time>2026-04-05T08:16:31.603Z</time></trkpt><trkpt lat="43.313461" lon="-8.376671"><ele>19.0</ele><time>2026-04-05T08:16:32.603Z</time></trkpt><trkpt lat="43.3134773" lon="-8.3764844"><ele>17.75</ele><time>2026-04-05T08:16:33.602Z</time></trkpt><trkpt lat="43.3134905" lon="-8.3763062"><ele>16.5</ele><time>2026-04-05T08:16:34.602Z</time></trkpt><trkpt lat="43.3135037" lon="-8.3761456"><ele>15.25</ele><time>2026-04-05T08:16:35.602Z</time></trkpt><trkpt lat="43.3135169" lon="-8.3760019"><ele>14.0</ele><time>2026-04-05T08:16:36.602Z</time></trkpt><trkpt lat="43.3135307" lon="-8.3758685"><ele>14.000000000000002</ele><time>2026-04-05T08:16:37.603Z</time></trkpt><trkpt lat="43.3135472" lon="-8.3757469"><ele>14.0</ele><time>2026-04-05T08:16:38.602Z</time></trkpt><trkpt lat="43.3135723" lon="-8.3756347"><ele>14.0</ele><time>2026-04-05T08:16:39.602Z</time></trkpt><trkpt lat="43.3136255" lon="-8.3755445"><ele>14.0</ele><time>2026-04-05T08:16:40.602Z</time></trkpt><trkpt lat="43.3137041" lon="-8.3754994"><ele>14.000000000000002</ele><time>2026-04-05T08:16:41.603Z</time></trkpt><trkpt lat="43.3137964" lon="-8.3754718"><ele>14.0</ele><time>2026-04-05T08:16:42.603Z</time></trkpt><trkpt lat="43.3138932" lon="-8.3754412"><ele>13.5</ele><time>2026-04-05T08:16:43.602Z</time></trkpt><trkpt lat="43.3139818" lon="-8.3753927"><ele>13.0</ele><time>2026-04-05T08:16:44.602Z</time></trkpt><trkpt lat="43.3141048" lon="-8.3753385"><ele>12.5</ele><time>2026-04-05T08:16:45.602Z</time></trkpt><trkpt lat="43.3142176" lon="-8.3752719"><ele>12.0</ele><time>2026-04-05T08:16:46.602Z</time></trkpt><trkpt lat="43.3143511" lon="-8.3751912"><ele>12.0</ele><time>2026-04-05T08:16:47.602Z</time></trkpt><trkpt lat="43.3144922" lon="-8.3750987"><ele>12.0</ele><time>2026-04-05T08:16:48.603Z</time></trkpt><trkpt lat="43.3146205" lon="-8.375011"><ele>12.0</ele><time>2026-04-05T08:16:49.602Z</time></trkpt><trkpt lat="43.3147668" lon="-8.3749047"><ele>12.5</ele><time>2026-04-05T08:16:50.603Z</time></trkpt><trkpt lat="43.3149011" lon="-8.3748091"><ele>13.0</ele><time>2026-04-05T08:16:51.603Z</time></trkpt><trkpt lat="43.3150341" lon="-8.3747148"><ele>13.5</ele><time>2026-04-05T08:16:52.603Z</time></trkpt><trkpt lat="43.3151456" lon="-8.3746328"><ele>14.0</ele><time>2026-04-05T08:16:53.603Z</time></trkpt><trkpt lat="43.3152372" lon="-8.3745586"><ele>14.0</ele><time>2026-04-05T08:16:54.603Z</time></trkpt><trkpt lat="43.315317" lon="-8.3744952"><ele>13.999999999999998</ele><time>2026-04-05T08:16:55.602Z</time></trkpt><trkpt lat="43.3153919" lon="-8.3744359"><ele>13.999999999999998</ele><time>2026-04-05T08:16:56.602Z</time></trkpt><trkpt lat="43.3154746" lon="-8.3743773"><ele>14.0</ele><time>2026-04-05T08:16:57.603Z</time></trkpt><trkpt lat="43.3155674" lon="-8.3743068"><ele>14.0</ele><time>2026-04-05T08:16:58.603Z</time></trkpt><trkpt lat="43.3156708" lon="-8.3742267"><ele>14.5</ele><time>2026-04-05T08:16:59.603Z</time></trkpt><trkpt lat="43.3157759" lon="-8.3741443"><ele>15.0</ele><time>2026-04-05T08:17:00.603Z</time></trkpt><trkpt lat="43.3158906" lon="-8.3740532"><ele>15.5</ele><time>2026-04-05T08:17:01.603Z</time></trkpt><trkpt lat="43.3160135" lon="-8.3739566"><ele>16.0</ele><time>2026-04-05T08:17:02.602Z</time></trkpt><trkpt lat="43.3161403" lon="-8.3738612"><ele>16.25</ele><time>2026-04-05T08:17:03.602Z</time></trkpt><trkpt lat="43.3162589" lon="-8.3737737"><ele>16.5</ele><time>2026-04-05T08:17:04.603Z</time></trkpt><trkpt lat="43.3163676" lon="-8.3736958"><ele>16.75</ele><time>2026-04-05T08:17:05.603Z</time></trkpt><trkpt lat="43.3164644" lon="-8.3736242"><ele>17.0</ele><time>2026-04-05T08:17:06.602Z</time></trkpt><trkpt lat="43.3165513" lon="-8.3735624"><ele>17.0</ele><time>2026-04-05T08:17:07.602Z</time></trkpt><trkpt lat="43.3166395" lon="-8.3735001"><ele>17.0</ele><time>2026-04-05T08:17:08.602Z</time></trkpt><trkpt lat="43.3167339" lon="-8.3734376"><ele>17.0</ele><time>2026-04-05T08:17:09.603Z</time></trkpt><trkpt lat="43.3168376" lon="-8.3733687"><ele>17.0</ele><time>2026-04-05T08:17:10.602Z</time></trkpt><trkpt lat="43.3169393" lon="-8.3733078"><ele>17.0</ele><time>2026-04-05T08:17:11.602Z</time></trkpt><trkpt lat="43.3170718" lon="-8.3732341"><ele>17.0</ele><time>2026-04-05T08:17:12.603Z</time></trkpt><trkpt lat="43.3171945" lon="-8.3731753"><ele>17.0</ele><time>2026-04-05T08:17:13.603Z</time></trkpt><trkpt lat="43.3173312" lon="-8.3731165"><ele>17.0</ele><time>2026-04-05T08:17:14.602Z</time></trkpt><trkpt lat="43.3174607" lon="-8.3730587"><ele>17.0</ele><time>2026-04-05T08:17:15.603Z</time></trkpt><trkpt lat="43.3175841" lon="-8.3730065"><ele>16.75</ele><time>2026-04-05T08:17:16.602Z</time></trkpt><trkpt lat="43.3177113" lon="-8.372952"><ele>16.5</ele><time>2026-04-05T08:17:17.602Z</time></trkpt><trkpt lat="43.317825" lon="-8.3728993"><ele>16.25</ele><time>2026-04-05T08:17:18.603Z</time></trkpt><trkpt lat="43.3179352" lon="-8.372855"><ele>16.0</ele><time>2026-04-05T08:17:19.603Z</time></trkpt><trkpt lat="43.3180456" lon="-8.3728102"><ele>14.499999999999998</ele><time>2026-04-05T08:17:20.603Z</time></trkpt><trkpt lat="43.3181456" lon="-8.3727665"><ele>13.0</ele><time>2026-04-05T08:17:21.603Z</time></trkpt><trkpt lat="43.3182209" lon="-8.3727319"><ele>11.5</ele><time>2026-04-05T08:17:22.603Z</time></trkpt><trkpt lat="43.3183313" lon="-8.3726894"><ele>10.0</ele><time>2026-04-05T08:17:24.603Z</time></trkpt><trkpt lat="43.3184031" lon="-8.3726576"><ele>8.5</ele><time>2026-04-05T08:17:28.603Z</time></trkpt><trkpt lat="43.3184631" lon="-8.3726251"><ele>7.0</ele><time>2026-04-05T08:17:31.603Z</time></trkpt><trkpt lat="43.318544" lon="-8.3725637"><ele>7.000000000000001</ele><time>2026-04-05T08:17:35.602Z</time></trkpt><trkpt lat="43.3185926" lon="-8.3724773"><ele>7.0</ele><time>2026-04-05T08:17:36.603Z</time></trkpt><trkpt lat="43.3185749" lon="-8.3723772"><ele>7.0</ele><time>2026-04-05T08:17:37.603Z</time></trkpt><trkpt lat="43.3185584" lon="-8.37228"><ele>7.0</ele><time>2026-04-05T08:17:38.603Z</time></trkpt><trkpt lat="43.3185371" lon="-8.3721866"><ele>7.000000000000001</ele><time>2026-04-05T08:17:39.603Z</time></trkpt><trkpt lat="43.3185159" lon="-8.3720847"><ele>7.0</ele><time>2026-04-05T08:17:40.603Z</time></trkpt><trkpt lat="43.3184882" lon="-8.3719873"><ele>7.166666666666667</ele><time>2026-04-05T08:17:41.603Z</time></trkpt><trkpt lat="43.3184633" lon="-8.3718929"><ele>7.333333333333334</ele><time>2026-04-05T08:17:42.602Z</time></trkpt><trkpt lat="43.3184349" lon="-8.371796"><ele>7.5</ele><time>2026-04-05T08:17:43.603Z</time></trkpt><trkpt lat="43.31841" lon="-8.3717009"><ele>7.666666666666666</ele><time>2026-04-05T08:17:44.603Z</time></trkpt><trkpt lat="43.3183836" lon="-8.3716062"><ele>7.833333333333333</ele><time>2026-04-05T08:17:45.603Z</time></trkpt><trkpt lat="43.3183555" lon="-8.3715094"><ele>8.0</ele><time>2026-04-05T08:17:46.603Z</time></trkpt><trkpt lat="43.318325" lon="-8.3714033"><ele>8.5</ele><time>2026-04-05T08:17:47.603Z</time></trkpt><trkpt lat="43.3182824" lon="-8.3712741"><ele>9.0</ele><time>2026-04-05T08:17:48.602Z</time></trkpt><trkpt lat="43.3182241" lon="-8.3711207"><ele>9.5</ele><time>2026-04-05T08:17:49.602Z</time></trkpt><trkpt lat="43.3181593" lon="-8.3709623"><ele>10.0</ele><time>2026-04-05T08:17:50.603Z</time></trkpt><trkpt lat="43.318097" lon="-8.3708056"><ele>12.0</ele><time>2026-04-05T08:17:51.603Z</time></trkpt><trkpt lat="43.3180352" lon="-8.3706511"><ele>14.0</ele><time>2026-04-05T08:17:52.602Z</time></trkpt><trkpt lat="43.3179796" lon="-8.3705089"><ele>16.0</ele><time>2026-04-05T08:17:53.602Z</time></trkpt><trkpt lat="43.3179241" lon="-8.3703696"><ele>18.0</ele><time>2026-04-05T08:17:54.603Z</time></trkpt><trkpt lat="43.3178647" lon="-8.3702214"><ele>18.0</ele><time>2026-04-05T08:17:55.602Z</time></trkpt><trkpt lat="43.3178135" lon="-8.3700897"><ele>18.0</ele><time>2026-04-05T08:17:56.603Z</time></trkpt><trkpt lat="43.3177644" lon="-8.3699589"><ele>18.0</ele><time>2026-04-05T08:17:57.602Z</time></trkpt><trkpt lat="43.317718" lon="-8.3698312"><ele>18.0</ele><time>2026-04-05T08:17:58.602Z</time></trkpt><trkpt lat="43.3176746" lon="-8.3697166"><ele>18.0</ele><time>2026-04-05T08:17:59.603Z</time></trkpt><trkpt lat="43.3176334" lon="-8.3696047"><ele>17.0</ele><time>2026-04-05T08:18:00.603Z</time></trkpt><trkpt lat="43.3175855" lon="-8.3694713"><ele>16.0</ele><time>2026-04-05T08:18:01.603Z</time></trkpt><trkpt lat="43.3175329" lon="-8.3693274"><ele>15.0</ele><time>2026-04-05T08:18:02.603Z</time></trkpt><trkpt lat="43.3174738" lon="-8.3691756"><ele>14.0</ele><time>2026-04-05T08:18:03.603Z</time></trkpt><trkpt lat="43.3174204" lon="-8.3690346"><ele>14.0</ele><time>2026-04-05T08:18:04.603Z</time></trkpt><trkpt lat="43.3173654" lon="-8.3688883"><ele>14.0</ele><time>2026-04-05T08:18:05.603Z</time></trkpt><trkpt lat="43.3173152" lon="-8.3687512"><ele>14.0</ele><time>2026-04-05T08:18:06.603Z</time></trkpt><trkpt lat="43.3172556" lon="-8.3686169"><ele>14.0</ele><time>2026-04-05T08:18:07.603Z</time></trkpt><trkpt lat="43.3171963" lon="-8.3684941"><ele>14.799999999999999</ele><time>2026-04-05T08:18:08.602Z</time></trkpt><trkpt lat="43.3171303" lon="-8.3683779"><ele>15.599999999999998</ele><time>2026-04-05T08:18:09.603Z</time></trkpt><trkpt lat="43.3170696" lon="-8.3682822"><ele>16.4</ele><time>2026-04-05T08:18:10.602Z</time></trkpt><trkpt lat="43.3170227" lon="-8.3681746"><ele>17.2</ele><time>2026-04-05T08:18:11.603Z</time></trkpt><trkpt lat="43.3169896" lon="-8.3680543"><ele>18.0</ele><time>2026-04-05T08:18:12.602Z</time></trkpt><trkpt lat="43.3169572" lon="-8.3679331"><ele>18.0</ele><time>2026-04-05T08:18:13.603Z</time></trkpt><trkpt lat="43.3169115" lon="-8.3678143"><ele>18.0</ele><time>2026-04-05T08:18:14.602Z</time></trkpt><trkpt lat="43.3168603" lon="-8.3677166"><ele>18.0</ele><time>2026-04-05T08:18:15.603Z</time></trkpt><trkpt lat="43.3168168" lon="-8.3676374"><ele>18.0</ele><time>2026-04-05T08:18:16.603Z</time></trkpt><trkpt lat="43.3167686" lon="-8.3675452"><ele>18.0</ele><time>2026-04-05T08:18:17.603Z</time></trkpt><trkpt lat="43.3167208" lon="-8.3674462"><ele>18.0</ele><time>2026-04-05T08:18:18.603Z</time></trkpt><trkpt lat="43.3166673" lon="-8.3673543"><ele>18.0</ele><time>2026-04-05T08:18:19.603Z</time></trkpt><trkpt lat="43.3166151" lon="-8.3672746"><ele>18.0</ele><time>2026-04-05T08:18:20.602Z</time></trkpt><trkpt lat="43.3165616" lon="-8.3671857"><ele>18.0</ele><time>2026-04-05T08:18:21.603Z</time></trkpt><trkpt lat="43.3165124" lon="-8.3671024"><ele>18.0</ele><time>2026-04-05T08:18:22.603Z</time></trkpt><trkpt lat="43.3164632" lon="-8.3670113"><ele>18.0</ele><time>2026-04-05T08:18:23.603Z</time></trkpt><trkpt lat="43.3164124" lon="-8.3669111"><ele>18.0</ele><time>2026-04-05T08:18:24.603Z</time></trkpt><trkpt lat="43.3163525" lon="-8.3668048"><ele>19.75</ele><time>2026-04-05T08:18:25.603Z</time></trkpt><trkpt lat="43.3162854" lon="-8.3666862"><ele>21.5</ele><time>2026-04-05T08:18:26.603Z</time></trkpt><trkpt lat="43.3162138" lon="-8.3665599"><ele>23.25</ele><time>2026-04-05T08:18:27.602Z</time></trkpt><trkpt lat="43.3161349" lon="-8.366432"><ele>25.0</ele><time>2026-04-05T08:18:28.603Z</time></trkpt><trkpt lat="43.3160482" lon="-8.3663099"><ele>25.0</ele><time>2026-04-05T08:18:29.603Z</time></trkpt><trkpt lat="43.3159601" lon="-8.3661996"><ele>25.0</ele><time>2026-04-05T08:18:30.603Z</time></trkpt><trkpt lat="43.3158534" lon="-8.3660782"><ele>25.0</ele><time>2026-04-05T08:18:31.603Z</time></trkpt><trkpt lat="43.3157691" lon="-8.3659731"><ele>25.0</ele><time>2026-04-05T08:18:32.602Z</time></trkpt><trkpt lat="43.3156866" lon="-8.3658735"><ele>25.0</ele><time>2026-04-05T08:18:33.602Z</time></trkpt><trkpt lat="43.3156" lon="-8.3657772"><ele>25.0</ele><time>2026-04-05T08:18:34.602Z</time></trkpt><trkpt lat="43.3155163" lon="-8.3656853"><ele>25.0</ele><time>2026-04-05T08:18:35.603Z</time></trkpt><trkpt lat="43.3154419" lon="-8.3656073"><ele>25.0</ele><time>2026-04-05T08:18:36.602Z</time></trkpt><trkpt lat="43.3153669" lon="-8.3655302"><ele>25.0</ele><time>2026-04-05T08:18:37.603Z</time></trkpt><trkpt lat="43.315306" lon="-8.3654645"><ele>25.000000000000004</ele><time>2026-04-05T08:18:38.603Z</time></trkpt><trkpt lat="43.3152495" lon="-8.3654006"><ele>25.0</ele><time>2026-04-05T08:18:39.603Z</time></trkpt><trkpt lat="43.3151931" lon="-8.3653311"><ele>25.0</ele><time>2026-04-05T08:18:40.602Z</time></trkpt><trkpt lat="43.3151964" lon="-8.3652009"><ele>25.0</ele><time>2026-04-05T08:18:42.603Z</time></trkpt><trkpt lat="43.3152744" lon="-8.3650795"><ele>25.000000000000004</ele><time>2026-04-05T08:18:44.603Z</time></trkpt><trkpt lat="43.3153278" lon="-8.3649968"><ele>25.0</ele><time>2026-04-05T08:18:45.603Z</time></trkpt><trkpt lat="43.3153731" lon="-8.3649124"><ele>25.0</ele><time>2026-04-05T08:18:46.602Z</time></trkpt><trkpt lat="43.3154413" lon="-8.3647993"><ele>25.0</ele><time>2026-04-05T08:18:47.602Z</time></trkpt><trkpt lat="43.3154998" lon="-8.3647023"><ele>25.0</ele><time>2026-04-05T08:18:48.602Z</time></trkpt><trkpt lat="43.3155614" lon="-8.3645812"><ele>25.0</ele><time>2026-04-05T08:18:49.602Z</time></trkpt><trkpt lat="43.3156456" lon="-8.3644482"><ele>25.0</ele><time>2026-04-05T08:18:50.603Z</time></trkpt><trkpt lat="43.3157134" lon="-8.3643358"><ele>23.4</ele><time>2026-04-05T08:18:51.603Z</time></trkpt><trkpt lat="43.3157658" lon="-8.3642309"><ele>21.8</ele><time>2026-04-05T08:18:52.603Z</time></trkpt><trkpt lat="43.3158069" lon="-8.3641328"><ele>20.2</ele><time>2026-04-05T08:18:53.602Z</time></trkpt><trkpt lat="43.3158324" lon="-8.364012"><ele>18.6</ele><time>2026-04-05T08:18:54.602Z</time></trkpt><trkpt lat="43.3158434" lon="-8.3638804"><ele>17.0</ele><time>2026-04-05T08:18:55.602Z</time></trkpt><trkpt lat="43.3158534" lon="-8.3637396"><ele>16.5</ele><time>2026-04-05T08:18:56.602Z</time></trkpt><trkpt lat="43.3158659" lon="-8.3635952"><ele>16.0</ele><time>2026-04-05T08:18:57.603Z</time></trkpt><trkpt lat="43.3158772" lon="-8.3634393"><ele>15.5</ele><time>2026-04-05T08:18:58.602Z</time></trkpt><trkpt lat="43.3158833" lon="-8.3632824"><ele>15.0</ele><time>2026-04-05T08:18:59.603Z</time></trkpt><trkpt lat="43.3158862" lon="-8.3631219"><ele>14.6</ele><time>2026-04-05T08:19:00.602Z</time></trkpt><trkpt lat="43.3158914" lon="-8.3629646"><ele>14.2</ele><time>2026-04-05T08:19:01.603Z</time></trkpt><trkpt lat="43.3158878" lon="-8.3628196"><ele>13.8</ele><time>2026-04-05T08:19:02.603Z</time></trkpt><trkpt lat="43.3158784" lon="-8.3626862"><ele>13.4</ele><time>2026-04-05T08:19:03.603Z</time></trkpt><trkpt lat="43.3158739" lon="-8.3625438"><ele>13.0</ele><time>2026-04-05T08:19:04.603Z</time></trkpt><trkpt lat="43.3158582" lon="-8.3624167"><ele>13.0</ele><time>2026-04-05T08:19:05.603Z</time></trkpt><trkpt lat="43.3158372" lon="-8.3622791"><ele>13.0</ele><time>2026-04-05T08:19:06.603Z</time></trkpt><trkpt lat="43.315814" lon="-8.3621401"><ele>13.0</ele><time>2026-04-05T08:19:07.603Z</time></trkpt><trkpt lat="43.3157932" lon="-8.3620061"><ele>13.0</ele><time>2026-04-05T08:19:08.603Z</time></trkpt><trkpt lat="43.3157736" lon="-8.3618783"><ele>13.0</ele><time>2026-04-05T08:19:09.603Z</time></trkpt><trkpt lat="43.3157584" lon="-8.3617801"><ele>12.200000000000001</ele><time>2026-04-05T08:19:10.603Z</time></trkpt><trkpt lat="43.3157273" lon="-8.3616311"><ele>11.4</ele><time>2026-04-05T08:19:12.602Z</time></trkpt><trkpt lat="43.3157173" lon="-8.3615119"><ele>10.600000000000001</ele><time>2026-04-05T08:19:14.603Z</time></trkpt><trkpt lat="43.3157168" lon="-8.3613759"><ele>9.8</ele><time>2026-04-05T08:19:16.602Z</time></trkpt><trkpt lat="43.315705" lon="-8.3612343"><ele>9.0</ele><time>2026-04-05T08:19:18.603Z</time></trkpt><trkpt lat="43.3156861" lon="-8.3610934"><ele>8.166666666666666</ele><time>2026-04-05T08:19:20.603Z</time></trkpt><trkpt lat="43.3156623" lon="-8.3609458"><ele>7.333333333333333</ele><time>2026-04-05T08:19:22.602Z</time></trkpt><trkpt lat="43.3156479" lon="-8.3607788"><ele>6.5</ele><time>2026-04-05T08:19:24.602Z</time></trkpt><trkpt lat="43.3156452" lon="-8.3606837"><ele>5.666666666666666</ele><time>2026-04-05T08:19:25.603Z</time></trkpt><trkpt lat="43.3156492" lon="-8.3605833"><ele>4.833333333333333</ele><time>2026-04-05T08:19:26.603Z</time></trkpt><trkpt lat="43.3156546" lon="-8.3604892"><ele>4.0</ele><time>2026-04-05T08:19:27.602Z</time></trkpt><trkpt lat="43.3156621" lon="-8.3603575"><ele>3.4999999999999996</ele><time>2026-04-05T08:19:28.603Z</time></trkpt><trkpt lat="43.3156686" lon="-8.3602278"><ele>3.0</ele><time>2026-04-05T08:19:29.603Z</time></trkpt><trkpt lat="43.3156762" lon="-8.3601113"><ele>2.5</ele><time>2026-04-05T08:19:30.602Z</time></trkpt><trkpt lat="43.3156833" lon="-8.3599946"><ele>2.0</ele><time>2026-04-05T08:19:31.603Z</time></trkpt><trkpt lat="43.3156925" lon="-8.3598779"><ele>1.5</ele><time>2026-04-05T08:19:32.603Z</time></trkpt><trkpt lat="43.3156993" lon="-8.3597669"><ele>1.0</ele><time>2026-04-05T08:19:33.603Z</time></trkpt><trkpt lat="43.3157088" lon="-8.359644"><ele>1.0</ele><time>2026-04-05T08:19:34.603Z</time></trkpt><trkpt lat="43.3157158" lon="-8.3595225"><ele>1.0</ele><time>2026-04-05T08:19:35.602Z</time></trkpt><trkpt lat="43.3157214" lon="-8.3594135"><ele>1.0</ele><time>2026-04-05T08:19:36.602Z</time></trkpt><trkpt lat="43.315725" lon="-8.3593097"><ele>1.0</ele><time>2026-04-05T08:19:37.603Z</time></trkpt><trkpt lat="43.3157187" lon="-8.3592036"><ele>1.0</ele><time>2026-04-05T08:19:38.602Z</time></trkpt><trkpt lat="43.3156786" lon="-8.3590062"><ele>0.9999999999999999</ele><time>2026-04-05T08:19:40.603Z</time></trkpt><trkpt lat="43.3156362" lon="-8.3589038"><ele>1.0</ele><time>2026-04-05T08:19:41.603Z</time></trkpt><trkpt lat="43.3155965" lon="-8.3588008"><ele>1.0</ele><time>2026-04-05T08:19:42.603Z</time></trkpt><trkpt lat="43.3155436" lon="-8.3587029"><ele>1.0</ele><time>2026-04-05T08:19:43.603Z</time></trkpt><trkpt lat="43.3154766" lon="-8.3586162"><ele>0.9999999999999999</ele><time>2026-04-05T08:19:44.603Z</time></trkpt><trkpt lat="43.3154004" lon="-8.3585458"><ele>1.0</ele><time>2026-04-05T08:19:45.603Z</time></trkpt><trkpt lat="43.3153202" lon="-8.3584824"><ele>2.4000000000000004</ele><time>2026-04-05T08:19:46.602Z</time></trkpt><trkpt lat="43.3152387" lon="-8.3584238"><ele>3.8000000000000003</ele><time>2026-04-05T08:19:47.602Z</time></trkpt><trkpt lat="43.3151523" lon="-8.3583588"><ele>5.200000000000001</ele><time>2026-04-05T08:19:48.603Z</time></trkpt><trkpt lat="43.3150667" lon="-8.3583048"><ele>6.6000000000000005</ele><time>2026-04-05T08:19:49.602Z</time></trkpt><trkpt lat="43.3149806" lon="-8.3582569"><ele>8.0</ele><time>2026-04-05T08:19:50.602Z</time></trkpt><trkpt lat="43.3148892" lon="-8.3582044"><ele>8.0</ele><time>2026-04-05T08:19:51.602Z</time></trkpt><trkpt lat="43.3147952" lon="-8.3581461"><ele>8.0</ele><time>2026-04-05T08:19:52.603Z</time></trkpt><trkpt lat="43.3147052" lon="-8.3580866"><ele>8.0</ele><time>2026-04-05T08:19:53.603Z</time></trkpt><trkpt lat="43.3146137" lon="-8.3580262"><ele>8.0</ele><time>2026-04-05T08:19:54.602Z</time></trkpt><trkpt lat="43.31453" lon="-8.3579726"><ele>8.0</ele><time>2026-04-05T08:19:55.603Z</time></trkpt><trkpt lat="43.3144508" lon="-8.3579149"><ele>8.5</ele><time>2026-04-05T08:19:56.603Z</time></trkpt><trkpt lat="43.3143727" lon="-8.3578616"><ele>9.0</ele><time>2026-04-05T08:19:57.602Z</time></trkpt><trkpt lat="43.3142986" lon="-8.357804"><ele>9.5</ele><time>2026-04-05T08:19:58.603Z</time></trkpt><trkpt lat="43.3142277" lon="-8.3577406"><ele>10.0</ele><time>2026-04-05T08:19:59.603Z</time></trkpt><trkpt lat="43.3141577" lon="-8.3576731"><ele>10.5</ele><time>2026-04-05T08:20:00.603Z</time></trkpt><trkpt lat="43.3140877" lon="-8.3576067"><ele>11.0</ele><time>2026-04-05T08:20:01.602Z</time></trkpt><trkpt lat="43.3140147" lon="-8.3575293"><ele>11.0</ele><time>2026-04-05T08:20:02.603Z</time></trkpt><trkpt lat="43.3139341" lon="-8.3574482"><ele>11.0</ele><time>2026-04-05T08:20:03.602Z</time></trkpt><trkpt lat="43.313866" lon="-8.3573664"><ele>11.0</ele><time>2026-04-05T08:20:04.602Z</time></trkpt><trkpt lat="43.3137914" lon="-8.3572812"><ele>11.0</ele><time>2026-04-05T08:20:05.603Z</time></trkpt><trkpt lat="43.313717" lon="-8.3571942"><ele>11.0</ele><time>2026-04-05T08:20:06.603Z</time></trkpt><trkpt lat="43.3136433" lon="-8.357112"><ele>11.200000000000001</ele><time>2026-04-05T08:20:07.602Z</time></trkpt><trkpt lat="43.3135601" lon="-8.3570219"><ele>11.4</ele><time>2026-04-05T08:20:08.602Z</time></trkpt><trkpt lat="43.3134842" lon="-8.3569391"><ele>11.6</ele><time>2026-04-05T08:20:09.602Z</time></trkpt><trkpt lat="43.3134093" lon="-8.3568559"><ele>11.8</ele><time>2026-04-05T08:20:10.603Z</time></trkpt><trkpt lat="43.3133382" lon="-8.3567696"><ele>12.0</ele><time>2026-04-05T08:20:11.602Z</time></trkpt><trkpt lat="43.3132736" lon="-8.3566851"><ele>12.0</ele><time>2026-04-05T08:20:12.602Z</time></trkpt><trkpt lat="43.3132117" lon="-8.3566009"><ele>12.0</ele><time>2026-04-05T08:20:13.602Z</time></trkpt><trkpt lat="43.3131576" lon="-8.3565145"><ele>12.0</ele><time>2026-04-05T08:20:14.603Z</time></trkpt><trkpt lat="43.3130985" lon="-8.3564066"><ele>12.0</ele><time>2026-04-05T08:20:15.603Z</time></trkpt><trkpt lat="43.3130374" lon="-8.3562759"><ele>12.0</ele><time>2026-04-05T08:20:16.603Z</time></trkpt><trkpt lat="43.3129643" lon="-8.3561127"><ele>11.25</ele><time>2026-04-05T08:20:17.603Z</time></trkpt><trkpt lat="43.3128907" lon="-8.3559475"><ele>10.5</ele><time>2026-04-05T08:20:18.603Z</time></trkpt><trkpt lat="43.3128135" lon="-8.3557756"><ele>9.75</ele><time>2026-04-05T08:20:19.603Z</time></trkpt><trkpt lat="43.312737" lon="-8.3556101"><ele>9.0</ele><time>2026-04-05T08:20:20.602Z</time></trkpt><trkpt lat="43.3126568" lon="-8.3554454"><ele>9.0</ele><time>2026-04-05T08:20:21.603Z</time></trkpt><trkpt lat="43.3125682" lon="-8.3553055"><ele>9.0</ele><time>2026-04-05T08:20:22.603Z</time></trkpt><trkpt lat="43.3124718" lon="-8.3551828"><ele>9.0</ele><time>2026-04-05T08:20:23.602Z</time></trkpt><trkpt lat="43.3123604" lon="-8.3550888"><ele>9.0</ele><time>2026-04-05T08:20:24.602Z</time></trkpt><trkpt lat="43.3122376" lon="-8.3550179"><ele>9.0</ele><time>2026-04-05T08:20:25.602Z</time></trkpt><trkpt lat="43.3121127" lon="-8.3549636"><ele>9.0</ele><time>2026-04-05T08:20:26.603Z</time></trkpt><trkpt lat="43.3119856" lon="-8.3549248"><ele>9.0</ele><time>2026-04-05T08:20:27.603Z</time></trkpt><trkpt lat="43.3118576" lon="-8.3548915"><ele>9.0</ele><time>2026-04-05T08:20:28.603Z</time></trkpt><trkpt lat="43.3117377" lon="-8.3548643"><ele>9.0</ele><time>2026-04-05T08:20:29.603Z</time></trkpt><trkpt lat="43.3116157" lon="-8.354821"><ele>9.0</ele><time>2026-04-05T08:20:30.603Z</time></trkpt><trkpt lat="43.3114958" lon="-8.3547644"><ele>9.0</ele><time>2026-04-05T08:20:31.602Z</time></trkpt><trkpt lat="43.3113781" lon="-8.3546963"><ele>9.0</ele><time>2026-04-05T08:20:32.602Z</time></trkpt><trkpt lat="43.3112632" lon="-8.3546208"><ele>9.0</ele><time>2026-04-05T08:20:33.603Z</time></trkpt><trkpt lat="43.3111464" lon="-8.3545367"><ele>9.0</ele><time>2026-04-05T08:20:34.603Z</time></trkpt><trkpt lat="43.3110345" lon="-8.354456"><ele>9.0</ele><time>2026-04-05T08:20:35.602Z</time></trkpt><trkpt lat="43.3109265" lon="-8.354374"><ele>9.0</ele><time>2026-04-05T08:20:36.603Z</time></trkpt><trkpt lat="43.3108173" lon="-8.3542848"><ele>9.0</ele><time>2026-04-05T08:20:37.603Z</time></trkpt><trkpt lat="43.3107074" lon="-8.3541906"><ele>9.0</ele><time>2026-04-05T08:20:38.602Z</time></trkpt><trkpt lat="43.3105989" lon="-8.3540904"><ele>9.0</ele><time>2026-04-05T08:20:39.602Z</time></trkpt><trkpt lat="43.3104877" lon="-8.3539845"><ele>9.0</ele><time>2026-04-05T08:20:40.603Z</time></trkpt><trkpt lat="43.3103749" lon="-8.353877"><ele>9.25</ele><time>2026-04-05T08:20:41.603Z</time></trkpt><trkpt lat="43.310259" lon="-8.3537681"><ele>9.5</ele><time>2026-04-05T08:20:42.603Z</time></trkpt><trkpt lat="43.3101448" lon="-8.3536587"><ele>9.75</ele><time>2026-04-05T08:20:43.603Z</time></trkpt><trkpt lat="43.3100312" lon="-8.3535622"><ele>10.0</ele><time>2026-04-05T08:20:44.602Z</time></trkpt><trkpt lat="43.3099073" lon="-8.3534707"><ele>10.0</ele><time>2026-04-05T08:20:45.603Z</time></trkpt><trkpt lat="43.3097804" lon="-8.3533888"><ele>10.0</ele><time>2026-04-05T08:20:46.603Z</time></trkpt><trkpt lat="43.3096506" lon="-8.3533196"><ele>10.0</ele><time>2026-04-05T08:20:47.602Z</time></trkpt><trkpt lat="43.3095151" lon="-8.3532585"><ele>10.0</ele><time>2026-04-05T08:20:48.603Z</time></trkpt><trkpt lat="43.3093825" lon="-8.3532043"><ele>9.5</ele><time>2026-04-05T08:20:49.603Z</time></trkpt><trkpt lat="43.3092504" lon="-8.3531507"><ele>9.0</ele><time>2026-04-05T08:20:50.603Z</time></trkpt><trkpt lat="43.3091191" lon="-8.353101"><ele>8.5</ele><time>2026-04-05T08:20:51.603Z</time></trkpt><trkpt lat="43.3089942" lon="-8.3530524"><ele>8.0</ele><time>2026-04-05T08:20:52.603Z</time></trkpt><trkpt lat="43.3088673" lon="-8.3530039"><ele>8.0</ele><time>2026-04-05T08:20:53.603Z</time></trkpt><trkpt lat="43.3087381" lon="-8.3529641"><ele>8.0</ele><time>2026-04-05T08:20:54.603Z</time></trkpt><trkpt lat="43.3086071" lon="-8.3529308"><ele>8.0</ele><time>2026-04-05T08:20:55.602Z</time></trkpt><trkpt lat="43.3084748" lon="-8.3529191"><ele>8.0</ele><time>2026-04-05T08:20:56.602Z</time></trkpt><trkpt lat="43.3083449" lon="-8.3529334"><ele>8.0</ele><time>2026-04-05T08:20:57.603Z</time></trkpt><trkpt lat="43.3082219" lon="-8.3529876"><ele>8.0</ele><time>2026-04-05T08:20:58.603Z</time></trkpt><trkpt lat="43.3080979" lon="-8.3530606"><ele>8.0</ele><time>2026-04-05T08:20:59.603Z</time></trkpt><trkpt lat="43.3079733" lon="-8.3531547"><ele>8.0</ele><time>2026-04-05T08:21:00.603Z</time></trkpt><trkpt lat="43.3078523" lon="-8.3532581"><ele>8.5</ele><time>2026-04-05T08:21:01.603Z</time></trkpt><trkpt lat="43.3077275" lon="-8.3533671"><ele>9.0</ele><time>2026-04-05T08:21:02.602Z</time></trkpt><trkpt lat="43.3076035" lon="-8.3534637"><ele>9.5</ele><time>2026-04-05T08:21:03.602Z</time></trkpt><trkpt lat="43.3074701" lon="-8.3535443"><ele>10.0</ele><time>2026-04-05T08:21:04.603Z</time></trkpt><trkpt lat="43.3073279" lon="-8.3535976"><ele>12.75</ele><time>2026-04-05T08:21:05.603Z</time></trkpt><trkpt lat="43.3071874" lon="-8.3536203"><ele>15.5</ele><time>2026-04-05T08:21:06.602Z</time></trkpt><trkpt lat="43.3070456" lon="-8.3536105"><ele>18.25</ele><time>2026-04-05T08:21:07.603Z</time></trkpt><trkpt lat="43.30691" lon="-8.3535768"><ele>21.0</ele><time>2026-04-05T08:21:08.603Z</time></trkpt><trkpt lat="43.3067813" lon="-8.3535279"><ele>21.0</ele><time>2026-04-05T08:21:09.603Z</time></trkpt><trkpt lat="43.3066546" lon="-8.3534685"><ele>21.0</ele><time>2026-04-05T08:21:10.603Z</time></trkpt><trkpt lat="43.3065317" lon="-8.3534211"><ele>21.0</ele><time>2026-04-05T08:21:11.603Z</time></trkpt><trkpt lat="43.3064007" lon="-8.3533825"><ele>21.0</ele><time>2026-04-05T08:21:12.603Z</time></trkpt><trkpt lat="43.3062686" lon="-8.3533573"><ele>21.5</ele><time>2026-04-05T08:21:13.602Z</time></trkpt><trkpt lat="43.3061319" lon="-8.3533469"><ele>22.0</ele><time>2026-04-05T08:21:14.603Z</time></trkpt><trkpt lat="43.3059875" lon="-8.3533379"><ele>22.5</ele><time>2026-04-05T08:21:15.603Z</time></trkpt><trkpt lat="43.3058417" lon="-8.3533298"><ele>23.0</ele><time>2026-04-05T08:21:16.603Z</time></trkpt><trkpt lat="43.3056948" lon="-8.3533201"><ele>24.0</ele><time>2026-04-05T08:21:17.603Z</time></trkpt><trkpt lat="43.3055421" lon="-8.3533154"><ele>25.0</ele><time>2026-04-05T08:21:18.602Z</time></trkpt><trkpt lat="43.3053876" lon="-8.3533095"><ele>26.0</ele><time>2026-04-05T08:21:19.602Z</time></trkpt><trkpt lat="43.3052336" lon="-8.3532991"><ele>26.0</ele><time>2026-04-05T08:21:20.603Z</time></trkpt><trkpt lat="43.3050784" lon="-8.3532939"><ele>26.0</ele><time>2026-04-05T08:21:21.602Z</time></trkpt><trkpt lat="43.3049251" lon="-8.3532867"><ele>26.0</ele><time>2026-04-05T08:21:22.603Z</time></trkpt><trkpt lat="43.3047751" lon="-8.3532788"><ele>26.0</ele><time>2026-04-05T08:21:23.603Z</time></trkpt><trkpt lat="43.304627" lon="-8.3532645"><ele>26.0</ele><time>2026-04-05T08:21:24.602Z</time></trkpt><trkpt lat="43.3044819" lon="-8.353241"><ele>26.0</ele><time>2026-04-05T08:21:25.603Z</time></trkpt><trkpt lat="43.3043391" lon="-8.3532059"><ele>26.0</ele><time>2026-04-05T08:21:26.603Z</time></trkpt><trkpt lat="43.3042001" lon="-8.3531615"><ele>26.0</ele><time>2026-04-05T08:21:27.603Z</time></trkpt><trkpt lat="43.3040656" lon="-8.3531069"><ele>26.0</ele><time>2026-04-05T08:21:28.603Z</time></trkpt><trkpt lat="43.3039334" lon="-8.3530394"><ele>26.0</ele><time>2026-04-05T08:21:29.602Z</time></trkpt><trkpt lat="43.3037998" lon="-8.3529603"><ele>26.0</ele><time>2026-04-05T08:21:30.602Z</time></trkpt><trkpt lat="43.3036729" lon="-8.3528756"><ele>26.25</ele><time>2026-04-05T08:21:31.603Z</time></trkpt><trkpt lat="43.3035474" lon="-8.3527711"><ele>26.5</ele><time>2026-04-05T08:21:32.603Z</time></trkpt><trkpt lat="43.303432" lon="-8.3526503"><ele>26.75</ele><time>2026-04-05T08:21:33.602Z</time></trkpt><trkpt lat="43.3033284" lon="-8.3525117"><ele>27.0</ele><time>2026-04-05T08:21:34.603Z</time></trkpt><trkpt lat="43.3032444" lon="-8.352358"><ele>27.0</ele><time>2026-04-05T08:21:35.603Z</time></trkpt><trkpt lat="43.3031598" lon="-8.3521978"><ele>27.0</ele><time>2026-04-05T08:21:36.603Z</time></trkpt><trkpt lat="43.30307" lon="-8.3520372"><ele>27.0</ele><time>2026-04-05T08:21:37.603Z</time></trkpt><trkpt lat="43.3029696" lon="-8.3518931"><ele>27.0</ele><time>2026-04-05T08:21:38.602Z</time></trkpt><trkpt lat="43.3028561" lon="-8.3517757"><ele>29.0</ele><time>2026-04-05T08:21:39.603Z</time></trkpt><trkpt lat="43.3027328" lon="-8.3516985"><ele>31.0</ele><time>2026-04-05T08:21:40.603Z</time></trkpt><trkpt lat="43.3026008" lon="-8.3516569"><ele>33.0</ele><time>2026-04-05T08:21:41.603Z</time></trkpt><trkpt lat="43.3024674" lon="-8.3516526"><ele>35.0</ele><time>2026-04-05T08:21:42.602Z</time></trkpt><trkpt lat="43.3023349" lon="-8.3516858"><ele>37.5</ele><time>2026-04-05T08:21:43.603Z</time></trkpt><trkpt lat="43.3022034" lon="-8.3517422"><ele>40.0</ele><time>2026-04-05T08:21:44.602Z</time></trkpt><trkpt lat="43.3020731" lon="-8.351806"><ele>42.5</ele><time>2026-04-05T08:21:45.602Z</time></trkpt><trkpt lat="43.3019429" lon="-8.3518822"><ele>45.0</ele><time>2026-04-05T08:21:46.602Z</time></trkpt><trkpt lat="43.3018131" lon="-8.3519588"><ele>45.0</ele><time>2026-04-05T08:21:47.603Z</time></trkpt><trkpt lat="43.3016864" lon="-8.3520362"><ele>45.0</ele><time>2026-04-05T08:21:48.602Z</time></trkpt><trkpt lat="43.3015515" lon="-8.3520948"><ele>45.0</ele><time>2026-04-05T08:21:49.603Z</time></trkpt><trkpt lat="43.301415" lon="-8.3521233"><ele>45.0</ele><time>2026-04-05T08:21:50.603Z</time></trkpt><trkpt lat="43.3012685" lon="-8.3521173"><ele>47.25</ele><time>2026-04-05T08:21:51.602Z</time></trkpt><trkpt lat="43.3011222" lon="-8.3520849"><ele>49.5</ele><time>2026-04-05T08:21:52.603Z</time></trkpt><trkpt lat="43.3009823" lon="-8.3520175"><ele>51.75</ele><time>2026-04-05T08:21:53.603Z</time></trkpt><trkpt lat="43.3008537" lon="-8.3519217"><ele>54.0</ele><time>2026-04-05T08:21:54.603Z</time></trkpt><trkpt lat="43.300733" lon="-8.3518051"><ele>54.0</ele><time>2026-04-05T08:21:55.603Z</time></trkpt><trkpt lat="43.3006234" lon="-8.3516712"><ele>54.0</ele><time>2026-04-05T08:21:56.602Z</time></trkpt><trkpt lat="43.3005145" lon="-8.3515342"><ele>54.0</ele><time>2026-04-05T08:21:57.602Z</time></trkpt><trkpt lat="43.3004065" lon="-8.3513961"><ele>54.0</ele><time>2026-04-05T08:21:58.603Z</time></trkpt><trkpt lat="43.3003024" lon="-8.3512623"><ele>56.25</ele><time>2026-04-05T08:21:59.603Z</time></trkpt><trkpt lat="43.3001931" lon="-8.3511375"><ele>58.5</ele><time>2026-04-05T08:22:00.603Z</time></trkpt><trkpt lat="43.3000835" lon="-8.3510204"><ele>60.75</ele><time>2026-04-05T08:22:01.602Z</time></trkpt><trkpt lat="43.2999714" lon="-8.3509147"><ele>63.0</ele><time>2026-04-05T08:22:02.603Z</time></trkpt><trkpt lat="43.2998594" lon="-8.3508111"><ele>63.0</ele><time>2026-04-05T08:22:03.602Z</time></trkpt><trkpt lat="43.299743" lon="-8.3507148"><ele>63.0</ele><time>2026-04-05T08:22:04.603Z</time></trkpt><trkpt lat="43.2996222" lon="-8.3506214"><ele>63.0</ele><time>2026-04-05T08:22:05.602Z</time></trkpt><trkpt lat="43.2994974" lon="-8.3505289"><ele>63.0</ele><time>2026-04-05T08:22:06.603Z</time></trkpt><trkpt lat="43.2993721" lon="-8.3504349"><ele>63.25</ele><time>2026-04-05T08:22:07.603Z</time></trkpt><trkpt lat="43.2992468" lon="-8.3503382"><ele>63.5</ele><time>2026-04-05T08:22:08.603Z</time></trkpt><trkpt lat="43.2991176" lon="-8.3502325"><ele>63.75</ele><time>2026-04-05T08:22:09.602Z</time></trkpt><trkpt lat="43.2989902" lon="-8.3501119"><ele>64.0</ele><time>2026-04-05T08:22:10.602Z</time></trkpt><trkpt lat="43.2988652" lon="-8.3499786"><ele>64.0</ele><time>2026-04-05T08:22:11.603Z</time></trkpt><trkpt lat="43.298747" lon="-8.3498354"><ele>64.0</ele><time>2026-04-05T08:22:12.602Z</time></trkpt><trkpt lat="43.2986357" lon="-8.3496807"><ele>64.0</ele><time>2026-04-05T08:22:13.603Z</time></trkpt><trkpt lat="43.2985258" lon="-8.3495188"><ele>65.5</ele><time>2026-04-05T08:22:14.602Z</time></trkpt><trkpt lat="43.2984285" lon="-8.3493654"><ele>67.0</ele><time>2026-04-05T08:22:15.602Z</time></trkpt><trkpt lat="43.2983357" lon="-8.3492104"><ele>68.5</ele><time>2026-04-05T08:22:16.602Z</time></trkpt><trkpt lat="43.2982434" lon="-8.3490498"><ele>70.0</ele><time>2026-04-05T08:22:17.603Z</time></trkpt><trkpt lat="43.2981517" lon="-8.3488854"><ele>68.66666666666666</ele><time>2026-04-05T08:22:18.602Z</time></trkpt><trkpt lat="43.298061" lon="-8.3487126"><ele>67.33333333333333</ele><time>2026-04-05T08:22:19.603Z</time></trkpt><trkpt lat="43.297965" lon="-8.3485458"><ele>66.0</ele><time>2026-04-05T08:22:20.602Z</time></trkpt><trkpt lat="43.2978684" lon="-8.3483778"><ele>66.0</ele><time>2026-04-05T08:22:21.602Z</time></trkpt><trkpt lat="43.297764" lon="-8.3482189"><ele>66.0</ele><time>2026-04-05T08:22:22.602Z</time></trkpt><trkpt lat="43.2976497" lon="-8.3480686"><ele>66.0</ele><time>2026-04-05T08:22:23.603Z</time></trkpt><trkpt lat="43.2975219" lon="-8.3479292"><ele>68.66666666666667</ele><time>2026-04-05T08:22:24.603Z</time></trkpt><trkpt lat="43.2973924" lon="-8.3478129"><ele>71.33333333333334</ele><time>2026-04-05T08:22:25.602Z</time></trkpt><trkpt lat="43.2972441" lon="-8.3477246"><ele>74.0</ele><time>2026-04-05T08:22:26.603Z</time></trkpt><trkpt lat="43.2971009" lon="-8.3476548"><ele>74.0</ele><time>2026-04-05T08:22:27.602Z</time></trkpt><trkpt lat="43.2969488" lon="-8.3475985"><ele>74.0</ele><time>2026-04-05T08:22:28.603Z</time></trkpt><trkpt lat="43.2967973" lon="-8.3475437"><ele>74.0</ele><time>2026-04-05T08:22:29.603Z</time></trkpt><trkpt lat="43.2966478" lon="-8.3474891"><ele>74.0</ele><time>2026-04-05T08:22:30.603Z</time></trkpt><trkpt lat="43.296501" lon="-8.3474356"><ele>74.0</ele><time>2026-04-05T08:22:31.603Z</time></trkpt><trkpt lat="43.2963581" lon="-8.3473771"><ele>74.0</ele><time>2026-04-05T08:22:32.603Z</time></trkpt><trkpt lat="43.2962185" lon="-8.3473165"><ele>74.0</ele><time>2026-04-05T08:22:33.603Z</time></trkpt><trkpt lat="43.296082" lon="-8.3472523"><ele>74.75</ele><time>2026-04-05T08:22:34.603Z</time></trkpt><trkpt lat="43.2959494" lon="-8.3471862"><ele>75.5</ele><time>2026-04-05T08:22:35.603Z</time></trkpt><trkpt lat="43.295822" lon="-8.3471169"><ele>76.25</ele><time>2026-04-05T08:22:36.602Z</time></trkpt><trkpt lat="43.2956969" lon="-8.3470446"><ele>77.0</ele><time>2026-04-05T08:22:37.603Z</time></trkpt><trkpt lat="43.2955726" lon="-8.3469676"><ele>73.5</ele><time>2026-04-05T08:22:38.603Z</time></trkpt><trkpt lat="43.2954495" lon="-8.3468872"><ele>70.0</ele><time>2026-04-05T08:22:39.603Z</time></trkpt><trkpt lat="43.2953268" lon="-8.3467956"><ele>66.5</ele><time>2026-04-05T08:22:40.603Z</time></trkpt><trkpt lat="43.295207" lon="-8.346699"><ele>63.0</ele><time>2026-04-05T08:22:41.602Z</time></trkpt><trkpt lat="43.2950909" lon="-8.3465958"><ele>63.0</ele><time>2026-04-05T08:22:42.602Z</time></trkpt><trkpt lat="43.2949735" lon="-8.3464935"><ele>63.0</ele><time>2026-04-05T08:22:43.603Z</time></trkpt><trkpt lat="43.29486" lon="-8.3463881"><ele>63.0</ele><time>2026-04-05T08:22:44.602Z</time></trkpt><trkpt lat="43.2947496" lon="-8.346276"><ele>63.0</ele><time>2026-04-05T08:22:45.603Z</time></trkpt><trkpt lat="43.2946496" lon="-8.3461585"><ele>61.0</ele><time>2026-04-05T08:22:46.602Z</time></trkpt><trkpt lat="43.2945473" lon="-8.3460451"><ele>59.0</ele><time>2026-04-05T08:22:47.602Z</time></trkpt><trkpt lat="43.2944518" lon="-8.3459317"><ele>57.0</ele><time>2026-04-05T08:22:48.603Z</time></trkpt><trkpt lat="43.2943621" lon="-8.3458271"><ele>55.0</ele><time>2026-04-05T08:22:49.603Z</time></trkpt><trkpt lat="43.2942787" lon="-8.3457228"><ele>55.0</ele><time>2026-04-05T08:22:50.602Z</time></trkpt><trkpt lat="43.2942062" lon="-8.3456111"><ele>55.0</ele><time>2026-04-05T08:22:51.603Z</time></trkpt><trkpt lat="43.2941563" lon="-8.3454877"><ele>55.0</ele><time>2026-04-05T08:22:52.603Z</time></trkpt><trkpt lat="43.2941302" lon="-8.3453591"><ele>55.0</ele><time>2026-04-05T08:22:53.602Z</time></trkpt><trkpt lat="43.2941148" lon="-8.3452225"><ele>55.0</ele><time>2026-04-05T08:22:54.603Z</time></trkpt><trkpt lat="43.2941035" lon="-8.3450866"><ele>55.2</ele><time>2026-04-05T08:22:55.602Z</time></trkpt><trkpt lat="43.2940937" lon="-8.3449585"><ele>55.4</ele><time>2026-04-05T08:22:56.603Z</time></trkpt><trkpt lat="43.2940798" lon="-8.3448321"><ele>55.599999999999994</ele><time>2026-04-05T08:22:57.603Z</time></trkpt><trkpt lat="43.2940561" lon="-8.3447067"><ele>55.8</ele><time>2026-04-05T08:22:58.602Z</time></trkpt><trkpt lat="43.294023" lon="-8.3445816"><ele>56.0</ele><time>2026-04-05T08:22:59.603Z</time></trkpt><trkpt lat="43.2939846" lon="-8.3444696"><ele>56.16666666666667</ele><time>2026-04-05T08:23:00.602Z</time></trkpt><trkpt lat="43.2939316" lon="-8.3443748"><ele>56.333333333333336</ele><time>2026-04-05T08:23:01.603Z</time></trkpt><trkpt lat="43.2938791" lon="-8.3443119"><ele>56.5</ele><time>2026-04-05T08:23:02.603Z</time></trkpt><trkpt lat="43.2938133" lon="-8.3442591"><ele>56.66666666666667</ele><time>2026-04-05T08:23:03.602Z</time></trkpt><trkpt lat="43.2937459" lon="-8.3442127"><ele>56.833333333333336</ele><time>2026-04-05T08:23:04.602Z</time></trkpt><trkpt lat="43.2936782" lon="-8.3441592"><ele>57.0</ele><time>2026-04-05T08:23:05.602Z</time></trkpt><trkpt lat="43.2936111" lon="-8.3441026"><ele>57.0</ele><time>2026-04-05T08:23:06.602Z</time></trkpt><trkpt lat="43.2935348" lon="-8.3440474"><ele>57.0</ele><time>2026-04-05T08:23:07.602Z</time></trkpt><trkpt lat="43.2934589" lon="-8.3440002"><ele>57.0</ele><time>2026-04-05T08:23:08.602Z</time></trkpt><trkpt lat="43.2933811" lon="-8.34395"><ele>57.0</ele><time>2026-04-05T08:23:09.602Z</time></trkpt><trkpt lat="43.2933026" lon="-8.3439038"><ele>57.0</ele><time>2026-04-05T08:23:10.603Z</time></trkpt><trkpt lat="43.2932209" lon="-8.3438545"><ele>57.0</ele><time>2026-04-05T08:23:11.602Z</time></trkpt><trkpt lat="43.2931405" lon="-8.3438025"><ele>58.166666666666664</ele><time>2026-04-05T08:23:12.603Z</time></trkpt><trkpt lat="43.2930624" lon="-8.343741"><ele>59.33333333333333</ele><time>2026-04-05T08:23:13.603Z</time></trkpt><trkpt lat="43.2929938" lon="-8.3436649"><ele>60.5</ele><time>2026-04-05T08:23:14.603Z</time></trkpt><trkpt lat="43.292931" lon="-8.343582"><ele>61.666666666666664</ele><time>2026-04-05T08:23:15.603Z</time></trkpt><trkpt lat="43.2928687" lon="-8.3434966"><ele>62.83333333333333</ele><time>2026-04-05T08:23:16.603Z</time></trkpt><trkpt lat="43.292813" lon="-8.3434014"><ele>64.0</ele><time>2026-04-05T08:23:17.603Z</time></trkpt><trkpt lat="43.2927669" lon="-8.3433204"><ele>63.99999999999999</ele><time>2026-04-05T08:23:18.603Z</time></trkpt><trkpt lat="43.2927283" lon="-8.343248"><ele>64.0</ele><time>2026-04-05T08:23:19.602Z</time></trkpt><trkpt lat="43.2926893" lon="-8.34318"><ele>64.0</ele><time>2026-04-05T08:23:20.602Z</time></trkpt><trkpt lat="43.2926116" lon="-8.3430807"><ele>64.0</ele><time>2026-04-05T08:23:22.603Z</time></trkpt><trkpt lat="43.2925197" lon="-8.3430337"><ele>63.99999999999999</ele><time>2026-04-05T08:23:24.603Z</time></trkpt><trkpt lat="43.2924567" lon="-8.3429607"><ele>64.0</ele><time>2026-04-05T08:23:26.602Z</time></trkpt><trkpt lat="43.2924518" lon="-8.3428503"><ele>64.0</ele><time>2026-04-05T08:23:28.602Z</time></trkpt><trkpt lat="43.2924535" lon="-8.3427112"><ele>64.0</ele><time>2026-04-05T08:23:30.603Z</time></trkpt><trkpt lat="43.2924542" lon="-8.3425859"><ele>64.0</ele><time>2026-04-05T08:23:32.603Z</time></trkpt><trkpt lat="43.2924623" lon="-8.3424573"><ele>64.0</ele><time>2026-04-05T08:23:34.602Z</time></trkpt><trkpt lat="43.2924701" lon="-8.3423118"><ele>64.0</ele><time>2026-04-05T08:23:36.603Z</time></trkpt><trkpt lat="43.2924753" lon="-8.3421772"><ele>65.0</ele><time>2026-04-05T08:23:38.602Z</time></trkpt><trkpt lat="43.2924827" lon="-8.3420538"><ele>66.0</ele><time>2026-04-05T08:23:40.603Z</time></trkpt><trkpt lat="43.2924915" lon="-8.3419217"><ele>67.0</ele><time>2026-04-05T08:23:42.603Z</time></trkpt><trkpt lat="43.2924809" lon="-8.3417607"><ele>68.0</ele><time>2026-04-05T08:23:44.603Z</time></trkpt><trkpt lat="43.2924529" lon="-8.3416661"><ele>69.0</ele><time>2026-04-05T08:23:45.603Z</time></trkpt><trkpt lat="43.2924147" lon="-8.3415684"><ele>69.0</ele><time>2026-04-05T08:23:46.603Z</time></trkpt><trkpt lat="43.2923713" lon="-8.3414665"><ele>69.0</ele><time>2026-04-05T08:23:47.602Z</time></trkpt><trkpt lat="43.2923277" lon="-8.3413654"><ele>69.0</ele><time>2026-04-05T08:23:48.603Z</time></trkpt><trkpt lat="43.2922819" lon="-8.3412586"><ele>69.0</ele><time>2026-04-05T08:23:49.603Z</time></trkpt><trkpt lat="43.2922357" lon="-8.3411559"><ele>69.0</ele><time>2026-04-05T08:23:50.602Z</time></trkpt><trkpt lat="43.2921914" lon="-8.341058"><ele>69.0</ele><time>2026-04-05T08:23:51.603Z</time></trkpt><trkpt lat="43.2921469" lon="-8.3409624"><ele>69.16666666666667</ele><time>2026-04-05T08:23:52.603Z</time></trkpt><trkpt lat="43.2921032" lon="-8.3408698"><ele>69.33333333333333</ele><time>2026-04-05T08:23:53.602Z</time></trkpt><trkpt lat="43.2920572" lon="-8.3407745"><ele>69.5</ele><time>2026-04-05T08:23:54.603Z</time></trkpt><trkpt lat="43.2920076" lon="-8.3406742"><ele>69.66666666666666</ele><time>2026-04-05T08:23:55.602Z</time></trkpt><trkpt lat="43.2919579" lon="-8.3405806"><ele>69.83333333333333</ele><time>2026-04-05T08:23:56.602Z</time></trkpt><trkpt lat="43.291905" lon="-8.340484"><ele>70.0</ele><time>2026-04-05T08:23:57.602Z</time></trkpt><trkpt lat="43.2918479" lon="-8.3403785"><ele>70.0</ele><time>2026-04-05T08:23:58.602Z</time></trkpt><trkpt lat="43.291792" lon="-8.3402667"><ele>70.0</ele><time>2026-04-05T08:23:59.603Z</time></trkpt><trkpt lat="43.2917398" lon="-8.3401441"><ele>70.0</ele><time>2026-04-05T08:24:00.603Z</time></trkpt><trkpt lat="43.2916864" lon="-8.3400176"><ele>70.0</ele><time>2026-04-05T08:24:01.603Z</time></trkpt><trkpt lat="43.2916398" lon="-8.3398764"><ele>70.0</ele><time>2026-04-05T08:24:02.602Z</time></trkpt><trkpt lat="43.2915927" lon="-8.3397303"><ele>70.0</ele><time>2026-04-05T08:24:03.602Z</time></trkpt><trkpt lat="43.2915503" lon="-8.3395793"><ele>70.0</ele><time>2026-04-05T08:24:04.603Z</time></trkpt><trkpt lat="43.291504" lon="-8.3394305"><ele>70.0</ele><time>2026-04-05T08:24:05.603Z</time></trkpt><trkpt lat="43.2914492" lon="-8.3392863"><ele>70.0</ele><time>2026-04-05T08:24:06.603Z</time></trkpt><trkpt lat="43.2913866" lon="-8.3391557"><ele>68.0</ele><time>2026-04-05T08:24:07.603Z</time></trkpt><trkpt lat="43.2913141" lon="-8.3390304"><ele>66.0</ele><time>2026-04-05T08:24:08.602Z</time></trkpt><trkpt lat="43.2912407" lon="-8.338904"><ele>64.0</ele><time>2026-04-05T08:24:09.603Z</time></trkpt><trkpt lat="43.2911746" lon="-8.3387735"><ele>62.0</ele><time>2026-04-05T08:24:10.603Z</time></trkpt><trkpt lat="43.2911168" lon="-8.3386263"><ele>62.0</ele><time>2026-04-05T08:24:11.602Z</time></trkpt><trkpt lat="43.2910659" lon="-8.3384713"><ele>62.0</ele><time>2026-04-05T08:24:12.602Z</time></trkpt><trkpt lat="43.291013" lon="-8.3383128"><ele>62.0</ele><time>2026-04-05T08:24:13.603Z</time></trkpt><trkpt lat="43.2909598" lon="-8.3381571"><ele>62.0</ele><time>2026-04-05T08:24:14.603Z</time></trkpt><trkpt lat="43.2909068" lon="-8.3379996"><ele>61.25</ele><time>2026-04-05T08:24:15.602Z</time></trkpt><trkpt lat="43.2908521" lon="-8.3378426"><ele>60.5</ele><time>2026-04-05T08:24:16.602Z</time></trkpt><trkpt lat="43.2907981" lon="-8.3376854"><ele>59.75</ele><time>2026-04-05T08:24:17.603Z</time></trkpt><trkpt lat="43.2907339" lon="-8.3375311"><ele>59.0</ele><time>2026-04-05T08:24:18.602Z</time></trkpt><trkpt lat="43.2906461" lon="-8.3373849"><ele>57.5</ele><time>2026-04-05T08:24:19.603Z</time></trkpt><trkpt lat="43.290558" lon="-8.3372532"><ele>56.0</ele><time>2026-04-05T08:24:20.603Z</time></trkpt><trkpt lat="43.2904635" lon="-8.3371221"><ele>54.5</ele><time>2026-04-05T08:24:21.603Z</time></trkpt><trkpt lat="43.2903694" lon="-8.3369957"><ele>53.0</ele><time>2026-04-05T08:24:22.602Z</time></trkpt><trkpt lat="43.2902747" lon="-8.3368773"><ele>53.0</ele><time>2026-04-05T08:24:23.603Z</time></trkpt><trkpt lat="43.2901789" lon="-8.3367683"><ele>53.0</ele><time>2026-04-05T08:24:24.603Z</time></trkpt><trkpt lat="43.2900796" lon="-8.3366682"><ele>53.0</ele><time>2026-04-05T08:24:25.603Z</time></trkpt><trkpt lat="43.2899792" lon="-8.3365746"><ele>53.0</ele><time>2026-04-05T08:24:26.603Z</time></trkpt><trkpt lat="43.2898826" lon="-8.3365034"><ele>53.0</ele><time>2026-04-05T08:24:27.603Z</time></trkpt><trkpt lat="43.2897793" lon="-8.3364345"><ele>53.0</ele><time>2026-04-05T08:24:28.602Z</time></trkpt><trkpt lat="43.2896741" lon="-8.336364"><ele>53.0</ele><time>2026-04-05T08:24:29.602Z</time></trkpt><trkpt lat="43.2895685" lon="-8.3362994"><ele>53.0</ele><time>2026-04-05T08:24:30.603Z</time></trkpt><trkpt lat="43.2894593" lon="-8.33624"><ele>51.5</ele><time>2026-04-05T08:24:31.602Z</time></trkpt><trkpt lat="43.289343" lon="-8.3361774"><ele>50.0</ele><time>2026-04-05T08:24:32.603Z</time></trkpt><trkpt lat="43.2892294" lon="-8.3361252"><ele>48.5</ele><time>2026-04-05T08:24:33.603Z</time></trkpt><trkpt lat="43.2891181" lon="-8.336078"><ele>47.0</ele><time>2026-04-05T08:24:34.603Z</time></trkpt><trkpt lat="43.2890229" lon="-8.3360005"><ele>47.0</ele><time>2026-04-05T08:24:35.603Z</time></trkpt><trkpt lat="43.2889396" lon="-8.3358973"><ele>47.0</ele><time>2026-04-05T08:24:36.602Z</time></trkpt><trkpt lat="43.2888708" lon="-8.3357776"><ele>47.0</ele><time>2026-04-05T08:24:37.603Z</time></trkpt><trkpt lat="43.2888097" lon="-8.3356459"><ele>47.0</ele><time>2026-04-05T08:24:38.602Z</time></trkpt><trkpt lat="43.2887606" lon="-8.3355159"><ele>47.0</ele><time>2026-04-05T08:24:39.602Z</time></trkpt><trkpt lat="43.288706" lon="-8.3353908"><ele>45.25</ele><time>2026-04-05T08:24:40.602Z</time></trkpt><trkpt lat="43.2886316" lon="-8.3352704"><ele>43.5</ele><time>2026-04-05T08:24:41.603Z</time></trkpt><trkpt lat="43.2885399" lon="-8.3351522"><ele>41.75</ele><time>2026-04-05T08:24:42.603Z</time></trkpt><trkpt lat="43.2884338" lon="-8.335043"><ele>40.0</ele><time>2026-04-05T08:24:43.602Z</time></trkpt><trkpt lat="43.2883133" lon="-8.3349398"><ele>40.0</ele><time>2026-04-05T08:24:44.602Z</time></trkpt><trkpt lat="43.2881943" lon="-8.3348473"><ele>40.0</ele><time>2026-04-05T08:24:45.603Z</time></trkpt><trkpt lat="43.2880758" lon="-8.3347619"><ele>40.0</ele><time>2026-04-05T08:24:46.603Z</time></trkpt><trkpt lat="43.2879603" lon="-8.3346824"><ele>40.0</ele><time>2026-04-05T08:24:47.602Z</time></trkpt><trkpt lat="43.2878473" lon="-8.3345955"><ele>38.0</ele><time>2026-04-05T08:24:48.603Z</time></trkpt><trkpt lat="43.2877322" lon="-8.3345141"><ele>36.0</ele><time>2026-04-05T08:24:49.602Z</time></trkpt><trkpt lat="43.2876128" lon="-8.3344331"><ele>34.0</ele><time>2026-04-05T08:24:50.603Z</time></trkpt><trkpt lat="43.2874949" lon="-8.3343463"><ele>32.0</ele><time>2026-04-05T08:24:51.603Z</time></trkpt><trkpt lat="43.2873735" lon="-8.3342631"><ele>29.0</ele><time>2026-04-05T08:24:52.603Z</time></trkpt><trkpt lat="43.2872563" lon="-8.3341811"><ele>26.0</ele><time>2026-04-05T08:24:53.602Z</time></trkpt><trkpt lat="43.2871503" lon="-8.334091"><ele>23.0</ele><time>2026-04-05T08:24:54.603Z</time></trkpt><trkpt lat="43.2870615" lon="-8.3339833"><ele>20.0</ele><time>2026-04-05T08:24:55.602Z</time></trkpt><trkpt lat="43.2869913" lon="-8.3338591"><ele>19.5</ele><time>2026-04-05T08:24:56.603Z</time></trkpt><trkpt lat="43.2869331" lon="-8.3337218"><ele>19.0</ele><time>2026-04-05T08:24:57.603Z</time></trkpt><trkpt lat="43.2868921" lon="-8.3335746"><ele>18.5</ele><time>2026-04-05T08:24:58.602Z</time></trkpt><trkpt lat="43.28687" lon="-8.3334173"><ele>18.0</ele><time>2026-04-05T08:24:59.603Z</time></trkpt><trkpt lat="43.2868735" lon="-8.3332689"><ele>18.0</ele><time>2026-04-05T08:25:00.603Z</time></trkpt><trkpt lat="43.286888" lon="-8.3331213"><ele>18.0</ele><time>2026-04-05T08:25:01.603Z</time></trkpt><trkpt lat="43.2869058" lon="-8.3329836"><ele>18.0</ele><time>2026-04-05T08:25:02.603Z</time></trkpt><trkpt lat="43.2869225" lon="-8.3328544"><ele>18.0</ele><time>2026-04-05T08:25:03.603Z</time></trkpt><trkpt lat="43.2869407" lon="-8.3327403"><ele>18.0</ele><time>2026-04-05T08:25:04.602Z</time></trkpt><trkpt lat="43.2869582" lon="-8.3326342"><ele>17.2</ele><time>2026-04-05T08:25:05.603Z</time></trkpt><trkpt lat="43.2869712" lon="-8.3325088"><ele>16.4</ele><time>2026-04-05T08:25:06.603Z</time></trkpt><trkpt lat="43.2869758" lon="-8.3323693"><ele>15.599999999999998</ele><time>2026-04-05T08:25:07.603Z</time></trkpt><trkpt lat="43.2869682" lon="-8.3322193"><ele>14.799999999999999</ele><time>2026-04-05T08:25:08.603Z</time></trkpt><trkpt lat="43.286948" lon="-8.3320696"><ele>14.0</ele><time>2026-04-05T08:25:09.603Z</time></trkpt><trkpt lat="43.286915" lon="-8.3319258"><ele>13.25</ele><time>2026-04-05T08:25:10.602Z</time></trkpt><trkpt lat="43.2868659" lon="-8.3317829"><ele>12.5</ele><time>2026-04-05T08:25:11.602Z</time></trkpt><trkpt lat="43.2868032" lon="-8.3316416"><ele>11.75</ele><time>2026-04-05T08:25:12.603Z</time></trkpt><trkpt lat="43.2867369" lon="-8.331513"><ele>11.0</ele><time>2026-04-05T08:25:13.602Z</time></trkpt><trkpt lat="43.2866692" lon="-8.3313973"><ele>11.0</ele><time>2026-04-05T08:25:14.603Z</time></trkpt><trkpt lat="43.2866032" lon="-8.3312873"><ele>11.0</ele><time>2026-04-05T08:25:15.602Z</time></trkpt><trkpt lat="43.2865304" lon="-8.331178"><ele>11.0</ele><time>2026-04-05T08:25:16.602Z</time></trkpt><trkpt lat="43.2864591" lon="-8.3310756"><ele>11.0</ele><time>2026-04-05T08:25:17.602Z</time></trkpt><trkpt lat="43.2863838" lon="-8.3309709"><ele>11.0</ele><time>2026-04-05T08:25:18.602Z</time></trkpt><trkpt lat="43.286303" lon="-8.3308724"><ele>11.0</ele><time>2026-04-05T08:25:19.602Z</time></trkpt><trkpt lat="43.2862069" lon="-8.330769"><ele>11.0</ele><time>2026-04-05T08:25:20.603Z</time></trkpt><trkpt lat="43.2860884" lon="-8.3306334"><ele>11.0</ele><time>2026-04-05T08:25:21.603Z</time></trkpt><trkpt lat="43.2859287" lon="-8.3304891"><ele>13.666666666666666</ele><time>2026-04-05T08:25:22.603Z</time></trkpt><trkpt lat="43.2857367" lon="-8.3303697"><ele>16.333333333333332</ele><time>2026-04-05T08:25:23.602Z</time></trkpt><trkpt lat="43.2855425" lon="-8.3302622"><ele>19.0</ele><time>2026-04-05T08:25:24.603Z</time></trkpt><trkpt lat="43.2853637" lon="-8.3301315"><ele>20.333333333333332</ele><time>2026-04-05T08:25:25.603Z</time></trkpt><trkpt lat="43.285193" lon="-8.3299742"><ele>21.666666666666668</ele><time>2026-04-05T08:25:26.602Z</time></trkpt><trkpt lat="43.2850229" lon="-8.3298073"><ele>23.0</ele><time>2026-04-05T08:25:27.602Z</time></trkpt><trkpt lat="43.2848479" lon="-8.3296423"><ele>28.0</ele><time>2026-04-05T08:25:28.602Z</time></trkpt><trkpt lat="43.2846549" lon="-8.3295115"><ele>33.0</ele><time>2026-04-05T08:25:29.602Z</time></trkpt><trkpt lat="43.2844407" lon="-8.329425"><ele>38.0</ele><time>2026-04-05T08:25:30.603Z</time></trkpt><trkpt lat="43.2842219" lon="-8.3293745"><ele>38.0</ele><time>2026-04-05T08:25:31.603Z</time></trkpt><trkpt lat="43.2840146" lon="-8.3293258"><ele>38.0</ele><time>2026-04-05T08:25:32.602Z</time></trkpt><trkpt lat="43.283813" lon="-8.3292243"><ele>38.0</ele><time>2026-04-05T08:25:33.603Z</time></trkpt><trkpt lat="43.2836101" lon="-8.3291004"><ele>41.5</ele><time>2026-04-05T08:25:34.603Z</time></trkpt><trkpt lat="43.2834189" lon="-8.3289152"><ele>45.0</ele><time>2026-04-05T08:25:35.603Z</time></trkpt><trkpt lat="43.2832231" lon="-8.3287063"><ele>48.0</ele><time>2026-04-05T08:25:36.603Z</time></trkpt><trkpt lat="43.2830407" lon="-8.3284889"><ele>51.0</ele><time>2026-04-05T08:25:37.602Z</time></trkpt><trkpt lat="43.2828744" lon="-8.3282847"><ele>51.0</ele><time>2026-04-05T08:25:38.603Z</time></trkpt><trkpt lat="43.2827197" lon="-8.3281011"><ele>51.0</ele><time>2026-04-05T08:25:39.603Z</time></trkpt><trkpt lat="43.2825518" lon="-8.3279106"><ele>51.0</ele><time>2026-04-05T08:25:40.602Z</time></trkpt><trkpt lat="43.2823909" lon="-8.3277586"><ele>51.66666666666667</ele><time>2026-04-05T08:25:41.602Z</time></trkpt><trkpt lat="43.2822495" lon="-8.3276783"><ele>52.333333333333336</ele><time>2026-04-05T08:25:42.602Z</time></trkpt><trkpt lat="43.2820615" lon="-8.3277275"><ele>53.0</ele><time>2026-04-05T08:25:43.603Z</time></trkpt><trkpt lat="43.2818824" lon="-8.3276988"><ele>53.0</ele><time>2026-04-05T08:25:44.603Z</time></trkpt><trkpt lat="43.2817179" lon="-8.327605"><ele>53.0</ele><time>2026-04-05T08:25:45.603Z</time></trkpt><trkpt lat="43.2815734" lon="-8.3274561"><ele>53.0</ele><time>2026-04-05T08:25:46.603Z</time></trkpt><trkpt lat="43.2814453" lon="-8.3272644"><ele>53.0</ele><time>2026-04-05T08:25:47.602Z</time></trkpt><trkpt lat="43.2813167" lon="-8.3270565"><ele>53.0</ele><time>2026-04-05T08:25:48.603Z</time></trkpt><trkpt lat="43.2812007" lon="-8.3268345"><ele>53.0</ele><time>2026-04-05T08:25:49.603Z</time></trkpt><trkpt lat="43.281092" lon="-8.3266065"><ele>53.0</ele><time>2026-04-05T08:25:50.603Z</time></trkpt><trkpt lat="43.2809799" lon="-8.3263973"><ele>53.0</ele><time>2026-04-05T08:25:51.603Z</time></trkpt><trkpt lat="43.2808464" lon="-8.3261982"><ele>53.0</ele><time>2026-04-05T08:25:52.603Z</time></trkpt><trkpt lat="43.2807017" lon="-8.3259964"><ele>54.66666666666667</ele><time>2026-04-05T08:25:53.603Z</time></trkpt><trkpt lat="43.2805788" lon="-8.3257717"><ele>56.33333333333333</ele><time>2026-04-05T08:25:54.602Z</time></trkpt><trkpt lat="43.2804622" lon="-8.3255343"><ele>58.0</ele><time>2026-04-05T08:25:55.603Z</time></trkpt><trkpt lat="43.280333" lon="-8.3253261"><ele>58.0</ele><time>2026-04-05T08:25:56.602Z</time></trkpt><trkpt lat="43.2801872" lon="-8.3251612"><ele>58.0</ele><time>2026-04-05T08:25:57.603Z</time></trkpt><trkpt lat="43.2800244" lon="-8.3250174"><ele>58.0</ele><time>2026-04-05T08:25:58.603Z</time></trkpt><trkpt lat="43.2798582" lon="-8.3248761"><ele>59.0</ele><time>2026-04-05T08:25:59.602Z</time></trkpt><trkpt lat="43.2796953" lon="-8.324725"><ele>60.0</ele><time>2026-04-05T08:26:00.603Z</time></trkpt><trkpt lat="43.2795343" lon="-8.324576"><ele>61.0</ele><time>2026-04-05T08:26:01.603Z</time></trkpt><trkpt lat="43.2793706" lon="-8.3244265"><ele>61.0</ele><time>2026-04-05T08:26:02.603Z</time></trkpt><trkpt lat="43.279204" lon="-8.3242769"><ele>61.0</ele><time>2026-04-05T08:26:03.602Z</time></trkpt><trkpt lat="43.2790279" lon="-8.3241433"><ele>61.0</ele><time>2026-04-05T08:26:04.603Z</time></trkpt><trkpt lat="43.2788459" lon="-8.3240326"><ele>62.0</ele><time>2026-04-05T08:26:05.603Z</time></trkpt><trkpt lat="43.278658" lon="-8.32394"><ele>63.0</ele><time>2026-04-05T08:26:06.603Z</time></trkpt><trkpt lat="43.2784574" lon="-8.3238614"><ele>64.0</ele><time>2026-04-05T08:26:07.603Z</time></trkpt><trkpt lat="43.2782594" lon="-8.3238028"><ele>66.66666666666666</ele><time>2026-04-05T08:26:08.602Z</time></trkpt><trkpt lat="43.278059" lon="-8.3237433"><ele>69.33333333333333</ele><time>2026-04-05T08:26:09.603Z</time></trkpt><trkpt lat="43.2778585" lon="-8.3236838"><ele>72.0</ele><time>2026-04-05T08:26:10.603Z</time></trkpt><trkpt lat="43.2776608" lon="-8.3236277"><ele>72.0</ele><time>2026-04-05T08:26:11.602Z</time></trkpt><trkpt lat="43.2774659" lon="-8.3235514"><ele>72.0</ele><time>2026-04-05T08:26:12.603Z</time></trkpt><trkpt lat="43.2772819" lon="-8.3234425"><ele>72.0</ele><time>2026-04-05T08:26:13.602Z</time></trkpt><trkpt lat="43.2771128" lon="-8.3233006"><ele>72.33333333333333</ele><time>2026-04-05T08:26:14.603Z</time></trkpt><trkpt lat="43.2769537" lon="-8.3231482"><ele>72.66666666666666</ele><time>2026-04-05T08:26:15.603Z</time></trkpt><trkpt lat="43.2768015" lon="-8.322963"><ele>73.0</ele><time>2026-04-05T08:26:16.602Z</time></trkpt><trkpt lat="43.2766586" lon="-8.3227666"><ele>73.0</ele><time>2026-04-05T08:26:17.602Z</time></trkpt><trkpt lat="43.2765138" lon="-8.3225592"><ele>73.0</ele><time>2026-04-05T08:26:18.602Z</time></trkpt><trkpt lat="43.276363" lon="-8.3223516"><ele>73.0</ele><time>2026-04-05T08:26:19.603Z</time></trkpt><trkpt lat="43.2762223" lon="-8.3221504"><ele>74.66666666666666</ele><time>2026-04-05T08:26:20.602Z</time></trkpt><trkpt lat="43.2760626" lon="-8.3219766"><ele>76.33333333333333</ele><time>2026-04-05T08:26:21.602Z</time></trkpt><trkpt lat="43.2759137" lon="-8.321799"><ele>78.0</ele><time>2026-04-05T08:26:22.603Z</time></trkpt><trkpt lat="43.275766" lon="-8.3216028"><ele>77.33333333333333</ele><time>2026-04-05T08:26:23.602Z</time></trkpt><trkpt lat="43.2756298" lon="-8.3213865"><ele>76.66666666666666</ele><time>2026-04-05T08:26:24.603Z</time></trkpt><trkpt lat="43.2755029" lon="-8.3211546"><ele>76.0</ele><time>2026-04-05T08:26:25.603Z</time></trkpt><trkpt lat="43.275378" lon="-8.3209207"><ele>78.66666666666666</ele><time>2026-04-05T08:26:26.603Z</time></trkpt><trkpt lat="43.2752497" lon="-8.3206853"><ele>81.33333333333333</ele><time>2026-04-05T08:26:27.602Z</time></trkpt><trkpt lat="43.2751308" lon="-8.3204501"><ele>84.0</ele><time>2026-04-05T08:26:28.602Z</time></trkpt><trkpt lat="43.2750251" lon="-8.3202451"><ele>84.0</ele><time>2026-04-05T08:26:29.603Z</time></trkpt><trkpt lat="43.2749388" lon="-8.3200812"><ele>84.0</ele><time>2026-04-05T08:26:30.603Z</time></trkpt><trkpt lat="43.2748698" lon="-8.3199483"><ele>84.0</ele><time>2026-04-05T08:26:31.602Z</time></trkpt><trkpt lat="43.2748015" lon="-8.319833"><ele>84.0</ele><time>2026-04-05T08:26:32.603Z</time></trkpt><trkpt lat="43.2747175" lon="-8.3197244"><ele>83.33333333333333</ele><time>2026-04-05T08:26:33.603Z</time></trkpt><trkpt lat="43.2746094" lon="-8.3196134"><ele>82.66666666666666</ele><time>2026-04-05T08:26:34.602Z</time></trkpt><trkpt lat="43.2744869" lon="-8.3194946"><ele>82.0</ele><time>2026-04-05T08:26:35.602Z</time></trkpt><trkpt lat="43.2743545" lon="-8.3193592"><ele>82.0</ele><time>2026-04-05T08:26:36.602Z</time></trkpt><trkpt lat="43.2742119" lon="-8.3192119"><ele>82.0</ele><time>2026-04-05T08:26:37.603Z</time></trkpt><trkpt lat="43.2740698" lon="-8.319077"><ele>82.0</ele><time>2026-04-05T08:26:38.603Z</time></trkpt><trkpt lat="43.2739239" lon="-8.3189625"><ele>78.66666666666666</ele><time>2026-04-05T08:26:39.603Z</time></trkpt><trkpt lat="43.2737742" lon="-8.3188681"><ele>75.33333333333333</ele><time>2026-04-05T08:26:40.603Z</time></trkpt><trkpt lat="43.2736337" lon="-8.3188059"><ele>72.0</ele><time>2026-04-05T08:26:41.602Z</time></trkpt><trkpt lat="43.2735006" lon="-8.3187572"><ele>72.0</ele><time>2026-04-05T08:26:42.603Z</time></trkpt><trkpt lat="43.2733723" lon="-8.3187184"><ele>72.0</ele><time>2026-04-05T08:26:43.603Z</time></trkpt><trkpt lat="43.2732386" lon="-8.3186767"><ele>72.0</ele><time>2026-04-05T08:26:44.602Z</time></trkpt><trkpt lat="43.273093" lon="-8.3186364"><ele>72.0</ele><time>2026-04-05T08:26:45.603Z</time></trkpt><trkpt lat="43.2729371" lon="-8.3185979"><ele>72.0</ele><time>2026-04-05T08:26:46.602Z</time></trkpt><trkpt lat="43.2727762" lon="-8.3185572"><ele>72.0</ele><time>2026-04-05T08:26:47.603Z</time></trkpt><trkpt lat="43.2726097" lon="-8.3185063"><ele>72.0</ele><time>2026-04-05T08:26:48.603Z</time></trkpt><trkpt lat="43.2724426" lon="-8.3184498"><ele>72.66666666666667</ele><time>2026-04-05T08:26:49.603Z</time></trkpt><trkpt lat="43.2722705" lon="-8.3183577"><ele>73.33333333333334</ele><time>2026-04-05T08:26:50.603Z</time></trkpt><trkpt lat="43.2721056" lon="-8.3182366"><ele>74.0</ele><time>2026-04-05T08:26:51.603Z</time></trkpt><trkpt lat="43.2719538" lon="-8.3180868"><ele>72.33333333333334</ele><time>2026-04-05T08:26:52.603Z</time></trkpt><trkpt lat="43.2718048" lon="-8.3179221"><ele>70.66666666666667</ele><time>2026-04-05T08:26:53.603Z</time></trkpt><trkpt lat="43.271649" lon="-8.317758"><ele>69.0</ele><time>2026-04-05T08:26:54.602Z</time></trkpt><trkpt lat="43.2714942" lon="-8.317593"><ele>69.66666666666667</ele><time>2026-04-05T08:26:55.602Z</time></trkpt><trkpt lat="43.2713401" lon="-8.3174314"><ele>70.33333333333334</ele><time>2026-04-05T08:26:56.603Z</time></trkpt><trkpt lat="43.2711905" lon="-8.317272"><ele>71.0</ele><time>2026-04-05T08:26:57.602Z</time></trkpt><trkpt lat="43.2710478" lon="-8.3171203"><ele>68.0</ele><time>2026-04-05T08:26:58.602Z</time></trkpt><trkpt lat="43.2709125" lon="-8.3169684"><ele>65.0</ele><time>2026-04-05T08:26:59.602Z</time></trkpt><trkpt lat="43.2707756" lon="-8.3168193"><ele>62.0</ele><time>2026-04-05T08:27:00.602Z</time></trkpt><trkpt lat="43.2706344" lon="-8.3166695"><ele>60.0</ele><time>2026-04-05T08:27:01.603Z</time></trkpt><trkpt lat="43.2704919" lon="-8.3165258"><ele>58.0</ele><time>2026-04-05T08:27:02.603Z</time></trkpt><trkpt lat="43.2703496" lon="-8.3163944"><ele>56.0</ele><time>2026-04-05T08:27:03.603Z</time></trkpt><trkpt lat="43.2701974" lon="-8.316305"><ele>53.0</ele><time>2026-04-05T08:27:04.603Z</time></trkpt><trkpt lat="43.2700348" lon="-8.3162792"><ele>50.0</ele><time>2026-04-05T08:27:05.603Z</time></trkpt><trkpt lat="43.2698659" lon="-8.3163181"><ele>47.0</ele><time>2026-04-05T08:27:06.603Z</time></trkpt><trkpt lat="43.2696995" lon="-8.3164079"><ele>46.666666666666664</ele><time>2026-04-05T08:27:07.602Z</time></trkpt><trkpt lat="43.2695361" lon="-8.3165308"><ele>46.333333333333336</ele><time>2026-04-05T08:27:08.603Z</time></trkpt><trkpt lat="43.2693724" lon="-8.316663"><ele>46.0</ele><time>2026-04-05T08:27:09.602Z</time></trkpt><trkpt lat="43.2692012" lon="-8.3167912"><ele>46.0</ele><time>2026-04-05T08:27:10.603Z</time></trkpt><trkpt lat="43.2690297" lon="-8.3169136"><ele>46.0</ele><time>2026-04-05T08:27:11.603Z</time></trkpt><trkpt lat="43.2688533" lon="-8.3170118"><ele>46.0</ele><time>2026-04-05T08:27:12.603Z</time></trkpt><trkpt lat="43.2686787" lon="-8.317077"><ele>44.333333333333336</ele><time>2026-04-05T08:27:13.603Z</time></trkpt><trkpt lat="43.2685002" lon="-8.3170887"><ele>42.666666666666664</ele><time>2026-04-05T08:27:14.602Z</time></trkpt><trkpt lat="43.2683181" lon="-8.3170532"><ele>41.0</ele><time>2026-04-05T08:27:15.602Z</time></trkpt><trkpt lat="43.268143" lon="-8.3169878"><ele>41.33333333333333</ele><time>2026-04-05T08:27:16.603Z</time></trkpt><trkpt lat="43.2679597" lon="-8.3169173"><ele>41.666666666666664</ele><time>2026-04-05T08:27:17.603Z</time></trkpt><trkpt lat="43.2677715" lon="-8.3168538"><ele>42.0</ele><time>2026-04-05T08:27:18.602Z</time></trkpt><trkpt lat="43.2675769" lon="-8.3168105"><ele>42.0</ele><time>2026-04-05T08:27:19.603Z</time></trkpt><trkpt lat="43.2673794" lon="-8.3168014"><ele>42.0</ele><time>2026-04-05T08:27:20.603Z</time></trkpt><trkpt lat="43.26718" lon="-8.3168239"><ele>42.0</ele><time>2026-04-05T08:27:21.603Z</time></trkpt><trkpt lat="43.2669809" lon="-8.3168818"><ele>42.0</ele><time>2026-04-05T08:27:22.603Z</time></trkpt><trkpt lat="43.2667823" lon="-8.3169638"><ele>42.0</ele><time>2026-04-05T08:27:23.602Z</time></trkpt><trkpt lat="43.2665953" lon="-8.3170809"><ele>42.0</ele><time>2026-04-05T08:27:24.602Z</time></trkpt><trkpt lat="43.2664197" lon="-8.3171915"><ele>42.0</ele><time>2026-04-05T08:27:25.602Z</time></trkpt><trkpt lat="43.2662609" lon="-8.3173032"><ele>42.0</ele><time>2026-04-05T08:27:26.603Z</time></trkpt><trkpt lat="43.2661044" lon="-8.3173882"><ele>42.0</ele><time>2026-04-05T08:27:27.602Z</time></trkpt><trkpt lat="43.2659478" lon="-8.3174242"><ele>42.0</ele><time>2026-04-05T08:27:28.603Z</time></trkpt><trkpt lat="43.2657923" lon="-8.3174046"><ele>42.0</ele><time>2026-04-05T08:27:29.602Z</time></trkpt><trkpt lat="43.2656429" lon="-8.3173343"><ele>42.0</ele><time>2026-04-05T08:27:30.603Z</time></trkpt><trkpt lat="43.2655046" lon="-8.3172121"><ele>41.0</ele><time>2026-04-05T08:27:31.603Z</time></trkpt><trkpt lat="43.265376" lon="-8.3170602"><ele>40.0</ele><time>2026-04-05T08:27:32.603Z</time></trkpt><trkpt lat="43.2652479" lon="-8.3168819"><ele>39.0</ele><time>2026-04-05T08:27:33.602Z</time></trkpt><trkpt lat="43.2651113" lon="-8.3167027"><ele>39.0</ele><time>2026-04-05T08:27:34.603Z</time></trkpt><trkpt lat="43.2649679" lon="-8.3165513"><ele>39.0</ele><time>2026-04-05T08:27:35.603Z</time></trkpt><trkpt lat="43.2648021" lon="-8.3164333"><ele>39.0</ele><time>2026-04-05T08:27:36.603Z</time></trkpt><trkpt lat="43.2646293" lon="-8.3163399"><ele>42.33333333333333</ele><time>2026-04-05T08:27:37.603Z</time></trkpt><trkpt lat="43.2644629" lon="-8.3162429"><ele>45.666666666666664</ele><time>2026-04-05T08:27:38.602Z</time></trkpt><trkpt lat="43.2643139" lon="-8.3161163"><ele>49.0</ele><time>2026-04-05T08:27:39.603Z</time></trkpt><trkpt lat="43.2641971" lon="-8.3159593"><ele>49.0</ele><time>2026-04-05T08:27:40.603Z</time></trkpt><trkpt lat="43.2641368" lon="-8.3157682"><ele>49.0</ele><time>2026-04-05T08:27:41.603Z</time></trkpt><trkpt lat="43.2641069" lon="-8.3155564"><ele>49.0</ele><time>2026-04-05T08:27:42.603Z</time></trkpt><trkpt lat="43.2641119" lon="-8.3153382"><ele>51.33333333333333</ele><time>2026-04-05T08:27:43.603Z</time></trkpt><trkpt lat="43.2641534" lon="-8.315132"><ele>53.66666666666667</ele><time>2026-04-05T08:27:44.602Z</time></trkpt><trkpt lat="43.264238" lon="-8.314947"><ele>56.0</ele><time>2026-04-05T08:27:45.603Z</time></trkpt><trkpt lat="43.2643504" lon="-8.314766"><ele>59.66666666666667</ele><time>2026-04-05T08:27:46.603Z</time></trkpt><trkpt lat="43.2644817" lon="-8.3145809"><ele>63.33333333333333</ele><time>2026-04-05T08:27:47.602Z</time></trkpt><trkpt lat="43.2646174" lon="-8.3143953"><ele>67.0</ele><time>2026-04-05T08:27:48.602Z</time></trkpt><trkpt lat="43.2647543" lon="-8.3142027"><ele>68.33333333333333</ele><time>2026-04-05T08:27:49.603Z</time></trkpt><trkpt lat="43.2648927" lon="-8.3140039"><ele>69.66666666666667</ele><time>2026-04-05T08:27:50.602Z</time></trkpt><trkpt lat="43.2650291" lon="-8.3138098"><ele>71.0</ele><time>2026-04-05T08:27:51.602Z</time></trkpt><trkpt lat="43.265157" lon="-8.3136234"><ele>71.0</ele><time>2026-04-05T08:27:52.603Z</time></trkpt><trkpt lat="43.2652719" lon="-8.3134244"><ele>71.0</ele><time>2026-04-05T08:27:53.603Z</time></trkpt><trkpt lat="43.2653472" lon="-8.3132168"><ele>71.0</ele><time>2026-04-05T08:27:54.603Z</time></trkpt><trkpt lat="43.2653676" lon="-8.3130096"><ele>72.66666666666667</ele><time>2026-04-05T08:27:55.603Z</time></trkpt><trkpt lat="43.2653384" lon="-8.3128065"><ele>74.33333333333333</ele><time>2026-04-05T08:27:56.602Z</time></trkpt><trkpt lat="43.2652694" lon="-8.3126195"><ele>76.0</ele><time>2026-04-05T08:27:57.603Z</time></trkpt><trkpt lat="43.2651637" lon="-8.3124317"><ele>76.0</ele><time>2026-04-05T08:27:58.603Z</time></trkpt><trkpt lat="43.2650471" lon="-8.3122411"><ele>76.0</ele><time>2026-04-05T08:27:59.602Z</time></trkpt><trkpt lat="43.2649245" lon="-8.3120415"><ele>76.0</ele><time>2026-04-05T08:28:00.603Z</time></trkpt><trkpt lat="43.2647889" lon="-8.3118764"><ele>78.66666666666666</ele><time>2026-04-05T08:28:01.602Z</time></trkpt><trkpt lat="43.2646503" lon="-8.3117434"><ele>81.33333333333333</ele><time>2026-04-05T08:28:02.603Z</time></trkpt><trkpt lat="43.2645011" lon="-8.3116495"><ele>84.0</ele><time>2026-04-05T08:28:03.603Z</time></trkpt><trkpt lat="43.2643508" lon="-8.3116576"><ele>84.0</ele><time>2026-04-05T08:28:04.602Z</time></trkpt><trkpt lat="43.2642078" lon="-8.3116831"><ele>84.0</ele><time>2026-04-05T08:28:05.603Z</time></trkpt><trkpt lat="43.2640617" lon="-8.3118373"><ele>84.0</ele><time>2026-04-05T08:28:06.603Z</time></trkpt><trkpt lat="43.2639251" lon="-8.3119869"><ele>87.33333333333333</ele><time>2026-04-05T08:28:07.602Z</time></trkpt><trkpt lat="43.2637809" lon="-8.3121587"><ele>90.66666666666666</ele><time>2026-04-05T08:28:08.603Z</time></trkpt><trkpt lat="43.2636239" lon="-8.3123447"><ele>94.0</ele><time>2026-04-05T08:28:09.603Z</time></trkpt><trkpt lat="43.263451" lon="-8.312544"><ele>94.0</ele><time>2026-04-05T08:28:10.603Z</time></trkpt><trkpt lat="43.2632842" lon="-8.3127476"><ele>94.0</ele><time>2026-04-05T08:28:11.603Z</time></trkpt><trkpt lat="43.2631226" lon="-8.3129571"><ele>94.0</ele><time>2026-04-05T08:28:12.603Z</time></trkpt><trkpt lat="43.2629588" lon="-8.3131621"><ele>94.33333333333333</ele><time>2026-04-05T08:28:13.602Z</time></trkpt><trkpt lat="43.2627954" lon="-8.3133408"><ele>94.66666666666667</ele><time>2026-04-05T08:28:14.602Z</time></trkpt><trkpt lat="43.2626242" lon="-8.3135265"><ele>95.0</ele><time>2026-04-05T08:28:15.603Z</time></trkpt><trkpt lat="43.2624339" lon="-8.3135896"><ele>97.33333333333334</ele><time>2026-04-05T08:28:16.603Z</time></trkpt><trkpt lat="43.2622373" lon="-8.3136144"><ele>99.66666666666667</ele><time>2026-04-05T08:28:17.603Z</time></trkpt><trkpt lat="43.2620363" lon="-8.3135854"><ele>102.0</ele><time>2026-04-05T08:28:18.603Z</time></trkpt><trkpt lat="43.2618446" lon="-8.3135072"><ele>102.0</ele><time>2026-04-05T08:28:19.603Z</time></trkpt><trkpt lat="43.2616613" lon="-8.3133862"><ele>102.0</ele><time>2026-04-05T08:28:20.603Z</time></trkpt><trkpt lat="43.2614776" lon="-8.3132385"><ele>102.0</ele><time>2026-04-05T08:28:21.603Z</time></trkpt><trkpt lat="43.2613029" lon="-8.313069"><ele>104.66666666666666</ele><time>2026-04-05T08:28:22.603Z</time></trkpt><trkpt lat="43.2611338" lon="-8.3128859"><ele>107.33333333333333</ele><time>2026-04-05T08:28:23.602Z</time></trkpt><trkpt lat="43.2609695" lon="-8.3126927"><ele>110.0</ele><time>2026-04-05T08:28:24.603Z</time></trkpt><trkpt lat="43.260813" lon="-8.3124947"><ele>110.0</ele><time>2026-04-05T08:28:25.603Z</time></trkpt><trkpt lat="43.2606625" lon="-8.3122868"><ele>110.0</ele><time>2026-04-05T08:28:26.603Z</time></trkpt><trkpt lat="43.2605165" lon="-8.312086"><ele>110.0</ele><time>2026-04-05T08:28:27.603Z</time></trkpt><trkpt lat="43.2603607" lon="-8.3118887"><ele>113.33333333333333</ele><time>2026-04-05T08:28:28.602Z</time></trkpt><trkpt lat="43.2601796" lon="-8.3117294"><ele>116.66666666666666</ele><time>2026-04-05T08:28:29.603Z</time></trkpt><trkpt lat="43.2599877" lon="-8.3116227"><ele>120.0</ele><time>2026-04-05T08:28:30.603Z</time></trkpt><trkpt lat="43.2597813" lon="-8.3115676"><ele>120.66666666666666</ele><time>2026-04-05T08:28:31.603Z</time></trkpt><trkpt lat="43.2595707" lon="-8.3115397"><ele>121.33333333333333</ele><time>2026-04-05T08:28:32.603Z</time></trkpt><trkpt lat="43.2593588" lon="-8.3115001"><ele>122.0</ele><time>2026-04-05T08:28:33.603Z</time></trkpt><trkpt lat="43.2591481" lon="-8.3114291"><ele>126.66666666666666</ele><time>2026-04-05T08:28:34.603Z</time></trkpt><trkpt lat="43.2589443" lon="-8.3113367"><ele>131.33333333333334</ele><time>2026-04-05T08:28:35.603Z</time></trkpt><trkpt lat="43.2587576" lon="-8.311228"><ele>136.0</ele><time>2026-04-05T08:28:36.602Z</time></trkpt><trkpt lat="43.2586012" lon="-8.3110914"><ele>136.0</ele><time>2026-04-05T08:28:37.603Z</time></trkpt><trkpt lat="43.2584527" lon="-8.3109435"><ele>136.0</ele><time>2026-04-05T08:28:38.603Z</time></trkpt><trkpt lat="43.2582927" lon="-8.3108109"><ele>136.0</ele><time>2026-04-05T08:28:39.602Z</time></trkpt><trkpt lat="43.2581132" lon="-8.3107091"><ele>136.0</ele><time>2026-04-05T08:28:40.602Z</time></trkpt><trkpt lat="43.257934" lon="-8.3106317"><ele>136.0</ele><time>2026-04-05T08:28:41.603Z</time></trkpt><trkpt lat="43.2577679" lon="-8.3105723"><ele>136.0</ele><time>2026-04-05T08:28:42.603Z</time></trkpt><trkpt lat="43.2576159" lon="-8.3104884"><ele>137.66666666666669</ele><time>2026-04-05T08:28:43.603Z</time></trkpt><trkpt lat="43.2574909" lon="-8.3103576"><ele>139.33333333333334</ele><time>2026-04-05T08:28:44.603Z</time></trkpt><trkpt lat="43.2573903" lon="-8.3101786"><ele>141.0</ele><time>2026-04-05T08:28:45.603Z</time></trkpt><trkpt lat="43.2572993" lon="-8.3099821"><ele>142.0</ele><time>2026-04-05T08:28:46.602Z</time></trkpt><trkpt lat="43.2572144" lon="-8.3097812"><ele>143.0</ele><time>2026-04-05T08:28:47.602Z</time></trkpt><trkpt lat="43.2571177" lon="-8.3096025"><ele>144.0</ele><time>2026-04-05T08:28:48.603Z</time></trkpt><trkpt lat="43.257" lon="-8.3094516"><ele>144.0</ele><time>2026-04-05T08:28:49.602Z</time></trkpt><trkpt lat="43.256868" lon="-8.3093356"><ele>144.0</ele><time>2026-04-05T08:28:50.602Z</time></trkpt><trkpt lat="43.2567191" lon="-8.3092534"><ele>144.0</ele><time>2026-04-05T08:28:51.602Z</time></trkpt><trkpt lat="43.2565575" lon="-8.3092094"><ele>144.0</ele><time>2026-04-05T08:28:52.602Z</time></trkpt><trkpt lat="43.2563842" lon="-8.309194"><ele>144.0</ele><time>2026-04-05T08:28:53.603Z</time></trkpt><trkpt lat="43.2562008" lon="-8.3091807"><ele>144.0</ele><time>2026-04-05T08:28:54.603Z</time></trkpt><trkpt lat="43.2560088" lon="-8.3091386"><ele>144.0</ele><time>2026-04-05T08:28:55.602Z</time></trkpt><trkpt lat="43.2558193" lon="-8.3090895"><ele>144.0</ele><time>2026-04-05T08:28:56.603Z</time></trkpt><trkpt lat="43.2556328" lon="-8.3090526"><ele>144.0</ele><time>2026-04-05T08:28:57.602Z</time></trkpt><trkpt lat="43.2554422" lon="-8.3090403"><ele>144.0</ele><time>2026-04-05T08:28:58.602Z</time></trkpt><trkpt lat="43.255248" lon="-8.3090449"><ele>144.0</ele><time>2026-04-05T08:28:59.603Z</time></trkpt><trkpt lat="43.2550518" lon="-8.3090686"><ele>144.0</ele><time>2026-04-05T08:29:00.603Z</time></trkpt><trkpt lat="43.2548527" lon="-8.3091017"><ele>144.33333333333334</ele><time>2026-04-05T08:29:01.602Z</time></trkpt><trkpt lat="43.2546559" lon="-8.3091455"><ele>144.66666666666669</ele><time>2026-04-05T08:29:02.603Z</time></trkpt><trkpt lat="43.2544564" lon="-8.3091965"><ele>145.0</ele><time>2026-04-05T08:29:03.603Z</time></trkpt><trkpt lat="43.2542579" lon="-8.3092578"><ele>145.0</ele><time>2026-04-05T08:29:04.603Z</time></trkpt><trkpt lat="43.2540583" lon="-8.3093169"><ele>145.0</ele><time>2026-04-05T08:29:05.603Z</time></trkpt><trkpt lat="43.2538587" lon="-8.3093779"><ele>145.0</ele><time>2026-04-05T08:29:06.603Z</time></trkpt><trkpt lat="43.2536567" lon="-8.3094444"><ele>145.33333333333334</ele><time>2026-04-05T08:29:07.603Z</time></trkpt><trkpt lat="43.2534649" lon="-8.3095089"><ele>145.66666666666666</ele><time>2026-04-05T08:29:08.603Z</time></trkpt><trkpt lat="43.2532574" lon="-8.309576"><ele>146.0</ele><time>2026-04-05T08:29:09.602Z</time></trkpt><trkpt lat="43.2530507" lon="-8.3096375"><ele>146.0</ele><time>2026-04-05T08:29:10.603Z</time></trkpt><trkpt lat="43.252844" lon="-8.3096903"><ele>146.0</ele><time>2026-04-05T08:29:11.603Z</time></trkpt><trkpt lat="43.2526375" lon="-8.3097342"><ele>146.0</ele><time>2026-04-05T08:29:12.602Z</time></trkpt><trkpt lat="43.2524325" lon="-8.3097677"><ele>148.0</ele><time>2026-04-05T08:29:13.602Z</time></trkpt><trkpt lat="43.2522287" lon="-8.309802"><ele>150.0</ele><time>2026-04-05T08:29:14.603Z</time></trkpt><trkpt lat="43.2520303" lon="-8.3098475"><ele>152.0</ele><time>2026-04-05T08:29:15.603Z</time></trkpt><trkpt lat="43.2518343" lon="-8.3099235"><ele>152.0</ele><time>2026-04-05T08:29:16.602Z</time></trkpt><trkpt lat="43.2516466" lon="-8.3100286"><ele>152.0</ele><time>2026-04-05T08:29:17.602Z</time></trkpt><trkpt lat="43.2514608" lon="-8.3101419"><ele>152.0</ele><time>2026-04-05T08:29:18.603Z</time></trkpt><trkpt lat="43.2512739" lon="-8.3102556"><ele>152.33333333333331</ele><time>2026-04-05T08:29:19.602Z</time></trkpt><trkpt lat="43.2510784" lon="-8.310355"><ele>152.66666666666666</ele><time>2026-04-05T08:29:20.603Z</time></trkpt><trkpt lat="43.2508802" lon="-8.3104436"><ele>153.0</ele><time>2026-04-05T08:29:21.603Z</time></trkpt><trkpt lat="43.2506815" lon="-8.310527"><ele>154.33333333333334</ele><time>2026-04-05T08:29:22.602Z</time></trkpt><trkpt lat="43.2504826" lon="-8.3106096"><ele>155.66666666666669</ele><time>2026-04-05T08:29:23.603Z</time></trkpt><trkpt lat="43.250286" lon="-8.3106903"><ele>157.0</ele><time>2026-04-05T08:29:24.603Z</time></trkpt><trkpt lat="43.2501012" lon="-8.3107631"><ele>157.0</ele><time>2026-04-05T08:29:25.602Z</time></trkpt><trkpt lat="43.2499265" lon="-8.3108321"><ele>157.0</ele><time>2026-04-05T08:29:26.603Z</time></trkpt><trkpt lat="43.2497686" lon="-8.3108948"><ele>157.0</ele><time>2026-04-05T08:29:27.602Z</time></trkpt><trkpt lat="43.2496247" lon="-8.3109535"><ele>157.5</ele><time>2026-04-05T08:29:28.603Z</time></trkpt><trkpt lat="43.2494908" lon="-8.3110095"><ele>158.0</ele><time>2026-04-05T08:29:29.603Z</time></trkpt><trkpt lat="43.2493703" lon="-8.3110557"><ele>158.5</ele><time>2026-04-05T08:29:30.603Z</time></trkpt><trkpt lat="43.2492608" lon="-8.3110946"><ele>159.0</ele><time>2026-04-05T08:29:31.603Z</time></trkpt><trkpt lat="43.2491626" lon="-8.3111301"><ele>159.0</ele><time>2026-04-05T08:29:32.602Z</time></trkpt><trkpt lat="43.2490775" lon="-8.3111456"><ele>159.0</ele><time>2026-04-05T08:29:33.602Z</time></trkpt><trkpt lat="43.249007" lon="-8.3111148"><ele>159.0</ele><time>2026-04-05T08:29:34.603Z</time></trkpt><trkpt lat="43.2489515" lon="-8.3110388"><ele>159.0</ele><time>2026-04-05T08:29:35.603Z</time></trkpt><trkpt lat="43.2488998" lon="-8.3109363"><ele>159.0</ele><time>2026-04-05T08:29:36.603Z</time></trkpt><trkpt lat="43.2488281" lon="-8.3108262"><ele>159.0</ele><time>2026-04-05T08:29:37.603Z</time></trkpt><trkpt lat="43.2487384" lon="-8.3107032"><ele>159.0</ele><time>2026-04-05T08:29:38.603Z</time></trkpt><trkpt lat="43.2486307" lon="-8.3105535"><ele>159.0</ele><time>2026-04-05T08:29:39.603Z</time></trkpt><trkpt lat="43.2485124" lon="-8.3103896"><ele>159.0</ele><time>2026-04-05T08:29:40.602Z</time></trkpt><trkpt lat="43.2483911" lon="-8.3102235"><ele>159.0</ele><time>2026-04-05T08:29:41.603Z</time></trkpt><trkpt lat="43.2482626" lon="-8.3100442"><ele>159.0</ele><time>2026-04-05T08:29:42.602Z</time></trkpt><trkpt lat="43.2481341" lon="-8.3098583"><ele>159.0</ele><time>2026-04-05T08:29:43.603Z</time></trkpt><trkpt lat="43.2480072" lon="-8.3096615"><ele>158.66666666666666</ele><time>2026-04-05T08:29:44.603Z</time></trkpt><trkpt lat="43.2478981" lon="-8.3094483"><ele>158.33333333333331</ele><time>2026-04-05T08:29:45.602Z</time></trkpt><trkpt lat="43.2478104" lon="-8.3092079"><ele>158.0</ele><time>2026-04-05T08:29:46.602Z</time></trkpt><trkpt lat="43.247754" lon="-8.3089573"><ele>157.33333333333331</ele><time>2026-04-05T08:29:47.603Z</time></trkpt><trkpt lat="43.2477307" lon="-8.3086991"><ele>156.66666666666666</ele><time>2026-04-05T08:29:48.603Z</time></trkpt><trkpt lat="43.2477424" lon="-8.308437"><ele>156.0</ele><time>2026-04-05T08:29:49.603Z</time></trkpt><trkpt lat="43.2477816" lon="-8.3081649"><ele>154.0</ele><time>2026-04-05T08:29:50.603Z</time></trkpt><trkpt lat="43.2478386" lon="-8.3078842"><ele>152.0</ele><time>2026-04-05T08:29:51.602Z</time></trkpt><trkpt lat="43.2479043" lon="-8.3075969"><ele>150.0</ele><time>2026-04-05T08:29:52.603Z</time></trkpt><trkpt lat="43.2479707" lon="-8.3072982"><ele>145.5</ele><time>2026-04-05T08:29:53.603Z</time></trkpt><trkpt lat="43.2480374" lon="-8.3069958"><ele>141.0</ele><time>2026-04-05T08:29:54.603Z</time></trkpt><trkpt lat="43.248107" lon="-8.3066984"><ele>136.0</ele><time>2026-04-05T08:29:55.603Z</time></trkpt><trkpt lat="43.2481825" lon="-8.306401"><ele>131.0</ele><time>2026-04-05T08:29:56.603Z</time></trkpt><trkpt lat="43.248251" lon="-8.3061005"><ele>131.0</ele><time>2026-04-05T08:29:57.602Z</time></trkpt><trkpt lat="43.2483204" lon="-8.3057956"><ele>131.0</ele><time>2026-04-05T08:29:58.603Z</time></trkpt><trkpt lat="43.248389" lon="-8.3054868"><ele>128.5</ele><time>2026-04-05T08:29:59.603Z</time></trkpt><trkpt lat="43.248461" lon="-8.3051831"><ele>126.0</ele><time>2026-04-05T08:30:00.603Z</time></trkpt><trkpt lat="43.2485292" lon="-8.3048719"><ele>123.0</ele><time>2026-04-05T08:30:01.603Z</time></trkpt><trkpt lat="43.2486007" lon="-8.3045613"><ele>120.0</ele><time>2026-04-05T08:30:02.603Z</time></trkpt><trkpt lat="43.2486722" lon="-8.3042444"><ele>120.0</ele><time>2026-04-05T08:30:03.603Z</time></trkpt><trkpt lat="43.2487469" lon="-8.3039313"><ele>120.0</ele><time>2026-04-05T08:30:04.602Z</time></trkpt><trkpt lat="43.2488179" lon="-8.3036134"><ele>116.0</ele><time>2026-04-05T08:30:05.602Z</time></trkpt><trkpt lat="43.248891" lon="-8.3032939"><ele>112.0</ele><time>2026-04-05T08:30:06.603Z</time></trkpt><trkpt lat="43.2489622" lon="-8.3029767"><ele>111.5</ele><time>2026-04-05T08:30:07.602Z</time></trkpt><trkpt lat="43.2490339" lon="-8.3026575"><ele>111.0</ele><time>2026-04-05T08:30:08.603Z</time></trkpt><trkpt lat="43.2491088" lon="-8.3023413"><ele>109.0</ele><time>2026-04-05T08:30:09.602Z</time></trkpt><trkpt lat="43.2491821" lon="-8.3020274"><ele>107.0</ele><time>2026-04-05T08:30:10.603Z</time></trkpt><trkpt lat="43.2492549" lon="-8.3017152"><ele>103.5</ele><time>2026-04-05T08:30:11.602Z</time></trkpt><trkpt lat="43.2493169" lon="-8.3014021"><ele>100.0</ele><time>2026-04-05T08:30:12.603Z</time></trkpt><trkpt lat="43.2493624" lon="-8.301095"><ele>100.0</ele><time>2026-04-05T08:30:13.603Z</time></trkpt><trkpt lat="43.2493779" lon="-8.3007869"><ele>100.0</ele><time>2026-04-05T08:30:14.603Z</time></trkpt><trkpt lat="43.2493627" lon="-8.3004755"><ele>95.0</ele><time>2026-04-05T08:30:15.602Z</time></trkpt><trkpt lat="43.2493178" lon="-8.3001672"><ele>90.0</ele><time>2026-04-05T08:30:16.603Z</time></trkpt><trkpt lat="43.2492586" lon="-8.2998592"><ele>93.0</ele><time>2026-04-05T08:30:17.603Z</time></trkpt><trkpt lat="43.2491877" lon="-8.299545"><ele>96.0</ele><time>2026-04-05T08:30:18.603Z</time></trkpt><trkpt lat="43.2491101" lon="-8.2992319"><ele>97.5</ele><time>2026-04-05T08:30:19.602Z</time></trkpt><trkpt lat="43.2490346" lon="-8.2989118"><ele>99.0</ele><time>2026-04-05T08:30:20.603Z</time></trkpt><trkpt lat="43.248958" lon="-8.2985952"><ele>94.5</ele><time>2026-04-05T08:30:21.603Z</time></trkpt><trkpt lat="43.2488796" lon="-8.2982757"><ele>90.0</ele><time>2026-04-05T08:30:22.602Z</time></trkpt><trkpt lat="43.2488054" lon="-8.2979612"><ele>90.0</ele><time>2026-04-05T08:30:23.603Z</time></trkpt><trkpt lat="43.2487273" lon="-8.2976484"><ele>90.0</ele><time>2026-04-05T08:30:24.603Z</time></trkpt><trkpt lat="43.2486482" lon="-8.2973353"><ele>89.0</ele><time>2026-04-05T08:30:25.603Z</time></trkpt><trkpt lat="43.2485694" lon="-8.2970242"><ele>88.0</ele><time>2026-04-05T08:30:26.603Z</time></trkpt><trkpt lat="43.2484955" lon="-8.2967163"><ele>85.0</ele><time>2026-04-05T08:30:27.603Z</time></trkpt><trkpt lat="43.2484221" lon="-8.2964113"><ele>82.0</ele><time>2026-04-05T08:30:28.603Z</time></trkpt><trkpt lat="43.248356" lon="-8.2961087"><ele>82.0</ele><time>2026-04-05T08:30:29.603Z</time></trkpt><trkpt lat="43.2483041" lon="-8.2958118"><ele>82.0</ele><time>2026-04-05T08:30:30.603Z</time></trkpt><trkpt lat="43.2482866" lon="-8.2955077"><ele>82.0</ele><time>2026-04-05T08:30:31.602Z</time></trkpt><trkpt lat="43.2482947" lon="-8.2951939"><ele>80.0</ele><time>2026-04-05T08:30:32.603Z</time></trkpt><trkpt lat="43.2483281" lon="-8.2948792"><ele>78.0</ele><time>2026-04-05T08:30:33.603Z</time></trkpt><trkpt lat="43.2483762" lon="-8.2945743"><ele>76.66666666666667</ele><time>2026-04-05T08:30:34.603Z</time></trkpt><trkpt lat="43.2484248" lon="-8.294284"><ele>75.33333333333334</ele><time>2026-04-05T08:30:35.602Z</time></trkpt><trkpt lat="43.2484537" lon="-8.2939985"><ele>74.0</ele><time>2026-04-05T08:30:36.602Z</time></trkpt><trkpt lat="43.2484415" lon="-8.2937203"><ele>71.33333333333334</ele><time>2026-04-05T08:30:37.603Z</time></trkpt><trkpt lat="43.2483847" lon="-8.2934574"><ele>68.66666666666667</ele><time>2026-04-05T08:30:38.603Z</time></trkpt><trkpt lat="43.2483001" lon="-8.2932082"><ele>66.0</ele><time>2026-04-05T08:30:39.603Z</time></trkpt><trkpt lat="43.248206" lon="-8.2929562"><ele>66.0</ele><time>2026-04-05T08:30:40.603Z</time></trkpt><trkpt lat="43.2481238" lon="-8.2926919"><ele>66.0</ele><time>2026-04-05T08:30:41.603Z</time></trkpt><trkpt lat="43.24806" lon="-8.2924139"><ele>66.0</ele><time>2026-04-05T08:30:42.603Z</time></trkpt><trkpt lat="43.2480117" lon="-8.2921334"><ele>62.66666666666667</ele><time>2026-04-05T08:30:43.603Z</time></trkpt><trkpt lat="43.2479789" lon="-8.2918506"><ele>59.333333333333336</ele><time>2026-04-05T08:30:44.603Z</time></trkpt><trkpt lat="43.2479659" lon="-8.2915719"><ele>56.0</ele><time>2026-04-05T08:30:45.603Z</time></trkpt><trkpt lat="43.247963" lon="-8.2912932"><ele>52.66666666666667</ele><time>2026-04-05T08:30:46.603Z</time></trkpt><trkpt lat="43.2479585" lon="-8.2910193"><ele>49.333333333333336</ele><time>2026-04-05T08:30:47.603Z</time></trkpt><trkpt lat="43.2479298" lon="-8.2907535"><ele>46.0</ele><time>2026-04-05T08:30:48.603Z</time></trkpt><trkpt lat="43.2478813" lon="-8.290504"><ele>44.66666666666667</ele><time>2026-04-05T08:30:49.603Z</time></trkpt><trkpt lat="43.2478065" lon="-8.2902673"><ele>43.333333333333336</ele><time>2026-04-05T08:30:50.603Z</time></trkpt><trkpt lat="43.2477135" lon="-8.2900362"><ele>42.0</ele><time>2026-04-05T08:30:51.603Z</time></trkpt><trkpt lat="43.247613" lon="-8.2898092"><ele>41.666666666666664</ele><time>2026-04-05T08:30:52.603Z</time></trkpt><trkpt lat="43.247515" lon="-8.2895774"><ele>41.33333333333333</ele><time>2026-04-05T08:30:53.602Z</time></trkpt><trkpt lat="43.2474279" lon="-8.2893445"><ele>41.0</ele><time>2026-04-05T08:30:54.603Z</time></trkpt><trkpt lat="43.2473631" lon="-8.2891021"><ele>41.33333333333333</ele><time>2026-04-05T08:30:55.603Z</time></trkpt><trkpt lat="43.2473206" lon="-8.2888532"><ele>41.666666666666664</ele><time>2026-04-05T08:30:56.602Z</time></trkpt><trkpt lat="43.247284" lon="-8.2885964"><ele>42.0</ele><time>2026-04-05T08:30:57.602Z</time></trkpt><trkpt lat="43.2472438" lon="-8.2883323"><ele>43.0</ele><time>2026-04-05T08:30:58.603Z</time></trkpt><trkpt lat="43.2472084" lon="-8.2880658"><ele>44.0</ele><time>2026-04-05T08:30:59.603Z</time></trkpt><trkpt lat="43.2471718" lon="-8.2878026"><ele>45.0</ele><time>2026-04-05T08:31:00.603Z</time></trkpt><trkpt lat="43.2471378" lon="-8.28755"><ele>45.0</ele><time>2026-04-05T08:31:01.603Z</time></trkpt><trkpt lat="43.2471041" lon="-8.2873018"><ele>45.0</ele><time>2026-04-05T08:31:02.603Z</time></trkpt><trkpt lat="43.2470785" lon="-8.2870631"><ele>45.0</ele><time>2026-04-05T08:31:03.602Z</time></trkpt><trkpt lat="43.2470744" lon="-8.2868249"><ele>51.33333333333333</ele><time>2026-04-05T08:31:04.602Z</time></trkpt><trkpt lat="43.2471108" lon="-8.2865933"><ele>57.666666666666664</ele><time>2026-04-05T08:31:05.603Z</time></trkpt><trkpt lat="43.2471763" lon="-8.2863656"><ele>64.0</ele><time>2026-04-05T08:31:06.603Z</time></trkpt><trkpt lat="43.2472702" lon="-8.2861373"><ele>62.33333333333333</ele><time>2026-04-05T08:31:07.603Z</time></trkpt><trkpt lat="43.2473808" lon="-8.2859183"><ele>60.66666666666667</ele><time>2026-04-05T08:31:08.603Z</time></trkpt><trkpt lat="43.2474923" lon="-8.2857084"><ele>59.0</ele><time>2026-04-05T08:31:09.603Z</time></trkpt><trkpt lat="43.24759" lon="-8.2855144"><ele>62.66666666666667</ele><time>2026-04-05T08:31:10.603Z</time></trkpt><trkpt lat="43.2476696" lon="-8.2853201"><ele>66.33333333333333</ele><time>2026-04-05T08:31:11.602Z</time></trkpt><trkpt lat="43.2477038" lon="-8.2851182"><ele>70.0</ele><time>2026-04-05T08:31:12.603Z</time></trkpt><trkpt lat="43.2476934" lon="-8.284904"><ele>68.66666666666666</ele><time>2026-04-05T08:31:13.603Z</time></trkpt><trkpt lat="43.247635" lon="-8.284698"><ele>67.33333333333333</ele><time>2026-04-05T08:31:14.603Z</time></trkpt><trkpt lat="43.2475321" lon="-8.2845433"><ele>66.0</ele><time>2026-04-05T08:31:15.602Z</time></trkpt><trkpt lat="43.2473968" lon="-8.2843937"><ele>71.33333333333333</ele><time>2026-04-05T08:31:16.603Z</time></trkpt><trkpt lat="43.2472522" lon="-8.2842237"><ele>76.66666666666666</ele><time>2026-04-05T08:31:17.602Z</time></trkpt><trkpt lat="43.2470971" lon="-8.2840575"><ele>82.0</ele><time>2026-04-05T08:31:18.603Z</time></trkpt><trkpt lat="43.2469323" lon="-8.2839154"><ele>82.0</ele><time>2026-04-05T08:31:19.603Z</time></trkpt><trkpt lat="43.2467503" lon="-8.2838099"><ele>82.0</ele><time>2026-04-05T08:31:20.603Z</time></trkpt><trkpt lat="43.2465649" lon="-8.2837448"><ele>82.0</ele><time>2026-04-05T08:31:21.603Z</time></trkpt><trkpt lat="43.2463987" lon="-8.2836954"><ele>86.66666666666666</ele><time>2026-04-05T08:31:22.603Z</time></trkpt><trkpt lat="43.2462575" lon="-8.2836037"><ele>91.33333333333333</ele><time>2026-04-05T08:31:23.603Z</time></trkpt><trkpt lat="43.2461359" lon="-8.2835001"><ele>96.0</ele><time>2026-04-05T08:31:24.603Z</time></trkpt><trkpt lat="43.2460542" lon="-8.2833113"><ele>96.0</ele><time>2026-04-05T08:31:25.603Z</time></trkpt><trkpt lat="43.2460057" lon="-8.2831356"><ele>96.0</ele><time>2026-04-05T08:31:26.603Z</time></trkpt><trkpt lat="43.2459864" lon="-8.2829463"><ele>96.0</ele><time>2026-04-05T08:31:27.602Z</time></trkpt><trkpt lat="43.2460476" lon="-8.2827766"><ele>96.0</ele><time>2026-04-05T08:31:28.602Z</time></trkpt><trkpt lat="43.2461537" lon="-8.2826051"><ele>96.25</ele><time>2026-04-05T08:31:29.602Z</time></trkpt><trkpt lat="43.2462438" lon="-8.2824384"><ele>96.5</ele><time>2026-04-05T08:31:30.602Z</time></trkpt><trkpt lat="43.2462994" lon="-8.2822445"><ele>96.75</ele><time>2026-04-05T08:31:31.602Z</time></trkpt><trkpt lat="43.2463046" lon="-8.2820439"><ele>97.0</ele><time>2026-04-05T08:31:32.603Z</time></trkpt><trkpt lat="43.2462609" lon="-8.2818334"><ele>99.0</ele><time>2026-04-05T08:31:33.603Z</time></trkpt><trkpt lat="43.2461759" lon="-8.2816255"><ele>101.0</ele><time>2026-04-05T08:31:34.603Z</time></trkpt><trkpt lat="43.24607" lon="-8.2813991"><ele>103.0</ele><time>2026-04-05T08:31:35.603Z</time></trkpt><trkpt lat="43.2459524" lon="-8.2811577"><ele>104.0</ele><time>2026-04-05T08:31:36.603Z</time></trkpt><trkpt lat="43.2458335" lon="-8.2809103"><ele>105.0</ele><time>2026-04-05T08:31:37.603Z</time></trkpt><trkpt lat="43.2456924" lon="-8.280686"><ele>106.0</ele><time>2026-04-05T08:31:38.602Z</time></trkpt><trkpt lat="43.245533" lon="-8.2805155"><ele>108.0</ele><time>2026-04-05T08:31:39.602Z</time></trkpt><trkpt lat="43.2453513" lon="-8.2803946"><ele>110.0</ele><time>2026-04-05T08:31:40.602Z</time></trkpt><trkpt lat="43.2451658" lon="-8.2803068"><ele>112.0</ele><time>2026-04-05T08:31:41.603Z</time></trkpt><trkpt lat="43.2449737" lon="-8.2802213"><ele>116.33333333333334</ele><time>2026-04-05T08:31:42.602Z</time></trkpt><trkpt lat="43.2447717" lon="-8.2801421"><ele>120.66666666666666</ele><time>2026-04-05T08:31:43.602Z</time></trkpt><trkpt lat="43.2445768" lon="-8.2800448"><ele>125.0</ele><time>2026-04-05T08:31:44.602Z</time></trkpt><trkpt lat="43.2443816" lon="-8.2799836"><ele>125.0</ele><time>2026-04-05T08:31:45.603Z</time></trkpt><trkpt lat="43.2441956" lon="-8.2798896"><ele>125.0</ele><time>2026-04-05T08:31:46.603Z</time></trkpt><trkpt lat="43.2440142" lon="-8.2797773"><ele>125.0</ele><time>2026-04-05T08:31:47.603Z</time></trkpt><trkpt lat="43.2438389" lon="-8.2796385"><ele>125.66666666666666</ele><time>2026-04-05T08:31:48.603Z</time></trkpt><trkpt lat="43.243669" lon="-8.2794777"><ele>126.33333333333334</ele><time>2026-04-05T08:31:49.602Z</time></trkpt><trkpt lat="43.2435097" lon="-8.279317"><ele>127.0</ele><time>2026-04-05T08:31:50.603Z</time></trkpt><trkpt lat="43.2433656" lon="-8.27919"><ele>127.0</ele><time>2026-04-05T08:31:51.603Z</time></trkpt><trkpt lat="43.2432174" lon="-8.2790916"><ele>127.0</ele><time>2026-04-05T08:31:52.603Z</time></trkpt><trkpt lat="43.2430764" lon="-8.279027"><ele>127.0</ele><time>2026-04-05T08:31:53.603Z</time></trkpt><trkpt lat="43.2429419" lon="-8.2789491"><ele>129.5</ele><time>2026-04-05T08:31:54.603Z</time></trkpt><trkpt lat="43.2428195" lon="-8.278842"><ele>132.0</ele><time>2026-04-05T08:31:55.602Z</time></trkpt><trkpt lat="43.2427122" lon="-8.2787032"><ele>134.5</ele><time>2026-04-05T08:31:56.603Z</time></trkpt><trkpt lat="43.2426225" lon="-8.2785402"><ele>137.0</ele><time>2026-04-05T08:31:57.603Z</time></trkpt><trkpt lat="43.2425313" lon="-8.2783699"><ele>137.0</ele><time>2026-04-05T08:31:58.602Z</time></trkpt><trkpt lat="43.2424311" lon="-8.2782227"><ele>137.0</ele><time>2026-04-05T08:31:59.603Z</time></trkpt><trkpt lat="43.2423331" lon="-8.2781121"><ele>137.0</ele><time>2026-04-05T08:32:00.602Z</time></trkpt><trkpt lat="43.2422552" lon="-8.2780426"><ele>137.0</ele><time>2026-04-05T08:32:01.602Z</time></trkpt><trkpt lat="43.2421721" lon="-8.2779872"><ele>136.79999999999998</ele><time>2026-04-05T08:32:03.603Z</time></trkpt><trkpt lat="43.2420919" lon="-8.2779686"><ele>136.6</ele><time>2026-04-05T08:32:05.603Z</time></trkpt><trkpt lat="43.2419685" lon="-8.278027"><ele>136.39999999999998</ele><time>2026-04-05T08:32:07.602Z</time></trkpt><trkpt lat="43.2418972" lon="-8.2780906"><ele>136.2</ele><time>2026-04-05T08:32:08.603Z</time></trkpt><trkpt lat="43.2418201" lon="-8.278168"><ele>136.0</ele><time>2026-04-05T08:32:09.603Z</time></trkpt><trkpt lat="43.2417423" lon="-8.2782517"><ele>136.0</ele><time>2026-04-05T08:32:10.603Z</time></trkpt><trkpt lat="43.2416635" lon="-8.2783416"><ele>136.0</ele><time>2026-04-05T08:32:11.603Z</time></trkpt><trkpt lat="43.2415808" lon="-8.2784366"><ele>136.0</ele><time>2026-04-05T08:32:12.603Z</time></trkpt><trkpt lat="43.2415021" lon="-8.2785291"><ele>136.0</ele><time>2026-04-05T08:32:13.602Z</time></trkpt><trkpt lat="43.2414255" lon="-8.2786216"><ele>136.0</ele><time>2026-04-05T08:32:14.603Z</time></trkpt><trkpt lat="43.2413493" lon="-8.2787112"><ele>136.0</ele><time>2026-04-05T08:32:15.603Z</time></trkpt><trkpt lat="43.2412733" lon="-8.2788"><ele>136.0</ele><time>2026-04-05T08:32:16.602Z</time></trkpt><trkpt lat="43.2411998" lon="-8.2788899"><ele>136.0</ele><time>2026-04-05T08:32:17.603Z</time></trkpt><trkpt lat="43.2411222" lon="-8.2789773"><ele>136.0</ele><time>2026-04-05T08:32:18.603Z</time></trkpt><trkpt lat="43.2410444" lon="-8.279066"><ele>136.0</ele><time>2026-04-05T08:32:19.603Z</time></trkpt><trkpt lat="43.2409658" lon="-8.2791556"><ele>136.8</ele><time>2026-04-05T08:32:20.603Z</time></trkpt><trkpt lat="43.2408846" lon="-8.2792469"><ele>137.6</ele><time>2026-04-05T08:32:21.603Z</time></trkpt><trkpt lat="43.2408017" lon="-8.2793426"><ele>138.4</ele><time>2026-04-05T08:32:22.602Z</time></trkpt><trkpt lat="43.2407184" lon="-8.2794451"><ele>139.2</ele><time>2026-04-05T08:32:23.602Z</time></trkpt><trkpt lat="43.2406294" lon="-8.2795527"><ele>140.0</ele><time>2026-04-05T08:32:24.603Z</time></trkpt><trkpt lat="43.2405332" lon="-8.279662"><ele>139.5</ele><time>2026-04-05T08:32:25.602Z</time></trkpt><trkpt lat="43.2404333" lon="-8.2797795"><ele>139.0</ele><time>2026-04-05T08:32:26.603Z</time></trkpt><trkpt lat="43.2403255" lon="-8.2798971"><ele>138.5</ele><time>2026-04-05T08:32:27.602Z</time></trkpt><trkpt lat="43.2402153" lon="-8.2800155"><ele>138.0</ele><time>2026-04-05T08:32:28.602Z</time></trkpt><trkpt lat="43.2401034" lon="-8.2801408"><ele>138.0</ele><time>2026-04-05T08:32:29.602Z</time></trkpt><trkpt lat="43.2399867" lon="-8.2802728"><ele>138.0</ele><time>2026-04-05T08:32:30.602Z</time></trkpt><trkpt lat="43.239865" lon="-8.2804129"><ele>138.0</ele><time>2026-04-05T08:32:31.603Z</time></trkpt><trkpt lat="43.2397381" lon="-8.2805603"><ele>137.66666666666666</ele><time>2026-04-05T08:32:32.603Z</time></trkpt><trkpt lat="43.2396052" lon="-8.2807132"><ele>137.33333333333331</ele><time>2026-04-05T08:32:33.603Z</time></trkpt><trkpt lat="43.2394684" lon="-8.28087"><ele>137.0</ele><time>2026-04-05T08:32:34.603Z</time></trkpt><trkpt lat="43.2393283" lon="-8.2810271"><ele>137.0</ele><time>2026-04-05T08:32:35.603Z</time></trkpt><trkpt lat="43.2391899" lon="-8.2811852"><ele>137.0</ele><time>2026-04-05T08:32:36.603Z</time></trkpt><trkpt lat="43.2390538" lon="-8.2813408"><ele>137.0</ele><time>2026-04-05T08:32:37.602Z</time></trkpt><trkpt lat="43.2389214" lon="-8.2814953"><ele>136.66666666666666</ele><time>2026-04-05T08:32:38.603Z</time></trkpt><trkpt lat="43.2387882" lon="-8.2816501"><ele>136.33333333333334</ele><time>2026-04-05T08:32:39.603Z</time></trkpt><trkpt lat="43.2386526" lon="-8.2818048"><ele>136.0</ele><time>2026-04-05T08:32:40.603Z</time></trkpt><trkpt lat="43.2385181" lon="-8.2819546"><ele>136.0</ele><time>2026-04-05T08:32:41.603Z</time></trkpt><trkpt lat="43.2383877" lon="-8.282112"><ele>136.0</ele><time>2026-04-05T08:32:42.603Z</time></trkpt><trkpt lat="43.2382529" lon="-8.2822586"><ele>136.0</ele><time>2026-04-05T08:32:43.602Z</time></trkpt><trkpt lat="43.2381238" lon="-8.2824085"><ele>135.33333333333334</ele><time>2026-04-05T08:32:44.603Z</time></trkpt><trkpt lat="43.2379923" lon="-8.2825551"><ele>134.66666666666666</ele><time>2026-04-05T08:32:45.602Z</time></trkpt><trkpt lat="43.2378701" lon="-8.2827063"><ele>134.0</ele><time>2026-04-05T08:32:46.603Z</time></trkpt><trkpt lat="43.2377477" lon="-8.2828638"><ele>134.0</ele><time>2026-04-05T08:32:47.602Z</time></trkpt><trkpt lat="43.2376321" lon="-8.283023"><ele>134.0</ele><time>2026-04-05T08:32:48.602Z</time></trkpt><trkpt lat="43.2375278" lon="-8.2831932"><ele>134.0</ele><time>2026-04-05T08:32:49.602Z</time></trkpt><trkpt lat="43.2374309" lon="-8.2833678"><ele>135.0</ele><time>2026-04-05T08:32:50.602Z</time></trkpt><trkpt lat="43.23734" lon="-8.2835477"><ele>136.0</ele><time>2026-04-05T08:32:51.602Z</time></trkpt><trkpt lat="43.237251" lon="-8.2837156"><ele>137.0</ele><time>2026-04-05T08:32:52.602Z</time></trkpt><trkpt lat="43.2371678" lon="-8.2838764"><ele>138.5</ele><time>2026-04-05T08:32:53.602Z</time></trkpt><trkpt lat="43.2370786" lon="-8.2840217"><ele>140.0</ele><time>2026-04-05T08:32:54.603Z</time></trkpt><trkpt lat="43.2369782" lon="-8.2841444"><ele>141.5</ele><time>2026-04-05T08:32:55.603Z</time></trkpt><trkpt lat="43.2368682" lon="-8.2842462"><ele>143.0</ele><time>2026-04-05T08:32:56.602Z</time></trkpt><trkpt lat="43.236751" lon="-8.2843128"><ele>143.0</ele><time>2026-04-05T08:32:57.603Z</time></trkpt><trkpt lat="43.2366372" lon="-8.2843516"><ele>143.0</ele><time>2026-04-05T08:32:58.602Z</time></trkpt><trkpt lat="43.2365256" lon="-8.2843898"><ele>143.0</ele><time>2026-04-05T08:32:59.602Z</time></trkpt><trkpt lat="43.2364131" lon="-8.2844225"><ele>143.0</ele><time>2026-04-05T08:33:00.603Z</time></trkpt><trkpt lat="43.2363018" lon="-8.2844594"><ele>141.75</ele><time>2026-04-05T08:33:01.602Z</time></trkpt><trkpt lat="43.2361884" lon="-8.2844865"><ele>140.5</ele><time>2026-04-05T08:33:02.603Z</time></trkpt><trkpt lat="43.2360738" lon="-8.2845148"><ele>139.25</ele><time>2026-04-05T08:33:03.603Z</time></trkpt><trkpt lat="43.2359653" lon="-8.2845473"><ele>138.0</ele><time>2026-04-05T08:33:04.603Z</time></trkpt><trkpt lat="43.235858" lon="-8.2845731"><ele>138.0</ele><time>2026-04-05T08:33:05.602Z</time></trkpt><trkpt lat="43.2357558" lon="-8.284599"><ele>138.0</ele><time>2026-04-05T08:33:06.603Z</time></trkpt><trkpt lat="43.2356614" lon="-8.2846246"><ele>138.0</ele><time>2026-04-05T08:33:07.603Z</time></trkpt><trkpt lat="43.2355731" lon="-8.2846474"><ele>138.0</ele><time>2026-04-05T08:33:08.603Z</time></trkpt><trkpt lat="43.235493" lon="-8.2846685"><ele>138.0</ele><time>2026-04-05T08:33:09.603Z</time></trkpt><trkpt lat="43.2354146" lon="-8.2846829"><ele>138.33333333333334</ele><time>2026-04-05T08:33:10.603Z</time></trkpt><trkpt lat="43.2353407" lon="-8.2847027"><ele>138.66666666666666</ele><time>2026-04-05T08:33:11.602Z</time></trkpt><trkpt lat="43.2352695" lon="-8.2847283"><ele>139.0</ele><time>2026-04-05T08:33:12.603Z</time></trkpt><trkpt lat="43.2351926" lon="-8.2847479"><ele>139.33333333333331</ele><time>2026-04-05T08:33:13.603Z</time></trkpt><trkpt lat="43.235111" lon="-8.2847713"><ele>139.66666666666666</ele><time>2026-04-05T08:33:14.603Z</time></trkpt><trkpt lat="43.2350312" lon="-8.284795"><ele>140.0</ele><time>2026-04-05T08:33:15.602Z</time></trkpt><trkpt lat="43.2349483" lon="-8.2848225"><ele>140.0</ele><time>2026-04-05T08:33:16.603Z</time></trkpt><trkpt lat="43.2348669" lon="-8.2848511"><ele>140.0</ele><time>2026-04-05T08:33:17.603Z</time></trkpt><trkpt lat="43.2347826" lon="-8.284883"><ele>140.0</ele><time>2026-04-05T08:33:18.602Z</time></trkpt><trkpt lat="43.2346959" lon="-8.284919"><ele>140.0</ele><time>2026-04-05T08:33:19.602Z</time></trkpt><trkpt lat="43.2346077" lon="-8.2849574"><ele>140.0</ele><time>2026-04-05T08:33:20.602Z</time></trkpt><trkpt lat="43.2345117" lon="-8.2849976"><ele>138.5</ele><time>2026-04-05T08:33:21.603Z</time></trkpt><trkpt lat="43.2344055" lon="-8.2850442"><ele>137.0</ele><time>2026-04-05T08:33:22.603Z</time></trkpt><trkpt lat="43.234289" lon="-8.2851021"><ele>135.5</ele><time>2026-04-05T08:33:23.603Z</time></trkpt><trkpt lat="43.2341573" lon="-8.2851647"><ele>134.0</ele><time>2026-04-05T08:33:24.603Z</time></trkpt><trkpt lat="43.2340174" lon="-8.2852316"><ele>132.0</ele><time>2026-04-05T08:33:25.603Z</time></trkpt><trkpt lat="43.2338707" lon="-8.28531"><ele>130.0</ele><time>2026-04-05T08:33:26.603Z</time></trkpt><trkpt lat="43.2337212" lon="-8.2853968"><ele>128.0</ele><time>2026-04-05T08:33:27.602Z</time></trkpt><trkpt lat="43.2335633" lon="-8.2854877"><ele>128.0</ele><time>2026-04-05T08:33:28.603Z</time></trkpt><trkpt lat="43.2334098" lon="-8.2855735"><ele>128.0</ele><time>2026-04-05T08:33:29.603Z</time></trkpt><trkpt lat="43.2332643" lon="-8.2856595"><ele>128.0</ele><time>2026-04-05T08:33:30.603Z</time></trkpt><trkpt lat="43.233128" lon="-8.2857562"><ele>129.66666666666666</ele><time>2026-04-05T08:33:31.603Z</time></trkpt><trkpt lat="43.2329987" lon="-8.2858626"><ele>131.33333333333334</ele><time>2026-04-05T08:33:32.603Z</time></trkpt><trkpt lat="43.2328717" lon="-8.2859734"><ele>133.0</ele><time>2026-04-05T08:33:33.603Z</time></trkpt><trkpt lat="43.2327377" lon="-8.2860972"><ele>133.0</ele><time>2026-04-05T08:33:34.602Z</time></trkpt><trkpt lat="43.2326147" lon="-8.2862034"><ele>133.0</ele><time>2026-04-05T08:33:35.602Z</time></trkpt><trkpt lat="43.2324907" lon="-8.2863108"><ele>133.0</ele><time>2026-04-05T08:33:36.603Z</time></trkpt><trkpt lat="43.2323669" lon="-8.2864242"><ele>133.0</ele><time>2026-04-05T08:33:37.603Z</time></trkpt><trkpt lat="43.2322387" lon="-8.286535"><ele>132.66666666666669</ele><time>2026-04-05T08:33:38.602Z</time></trkpt><trkpt lat="43.2321103" lon="-8.2866442"><ele>132.33333333333334</ele><time>2026-04-05T08:33:39.603Z</time></trkpt><trkpt lat="43.2319818" lon="-8.2867548"><ele>132.0</ele><time>2026-04-05T08:33:40.603Z</time></trkpt><trkpt lat="43.2318546" lon="-8.286865"><ele>132.0</ele><time>2026-04-05T08:33:41.603Z</time></trkpt><trkpt lat="43.2317261" lon="-8.2869746"><ele>132.0</ele><time>2026-04-05T08:33:42.603Z</time></trkpt><trkpt lat="43.2316015" lon="-8.2870789"><ele>132.0</ele><time>2026-04-05T08:33:43.602Z</time></trkpt><trkpt lat="43.2314735" lon="-8.2871708"><ele>132.0</ele><time>2026-04-05T08:33:44.602Z</time></trkpt><trkpt lat="43.2313402" lon="-8.2872558"><ele>132.5</ele><time>2026-04-05T08:33:45.603Z</time></trkpt><trkpt lat="43.2312034" lon="-8.2873252"><ele>133.0</ele><time>2026-04-05T08:33:46.603Z</time></trkpt><trkpt lat="43.2310607" lon="-8.2873709"><ele>133.5</ele><time>2026-04-05T08:33:47.603Z</time></trkpt><trkpt lat="43.2309185" lon="-8.2874081"><ele>134.0</ele><time>2026-04-05T08:33:48.602Z</time></trkpt><trkpt lat="43.230775" lon="-8.2874415"><ele>134.75</ele><time>2026-04-05T08:33:49.603Z</time></trkpt><trkpt lat="43.2306329" lon="-8.2874731"><ele>135.5</ele><time>2026-04-05T08:33:50.603Z</time></trkpt><trkpt lat="43.2304918" lon="-8.2875087"><ele>136.25</ele><time>2026-04-05T08:33:51.603Z</time></trkpt><trkpt lat="43.2303491" lon="-8.287539"><ele>137.0</ele><time>2026-04-05T08:33:52.603Z</time></trkpt><trkpt lat="43.2302069" lon="-8.2875782"><ele>137.0</ele><time>2026-04-05T08:33:53.602Z</time></trkpt><trkpt lat="43.2300669" lon="-8.2876297"><ele>137.0</ele><time>2026-04-05T08:33:54.602Z</time></trkpt><trkpt lat="43.2299341" lon="-8.2877091"><ele>137.0</ele><time>2026-04-05T08:33:55.603Z</time></trkpt><trkpt lat="43.2298073" lon="-8.2878194"><ele>137.0</ele><time>2026-04-05T08:33:56.603Z</time></trkpt><trkpt lat="43.2296831" lon="-8.2879381"><ele>137.66666666666666</ele><time>2026-04-05T08:33:57.603Z</time></trkpt><trkpt lat="43.2295573" lon="-8.2880611"><ele>138.33333333333334</ele><time>2026-04-05T08:33:58.602Z</time></trkpt><trkpt lat="43.229431" lon="-8.2881874"><ele>139.0</ele><time>2026-04-05T08:33:59.603Z</time></trkpt><trkpt lat="43.2293039" lon="-8.2883109"><ele>139.0</ele><time>2026-04-05T08:34:00.603Z</time></trkpt><trkpt lat="43.2291784" lon="-8.2884306"><ele>139.0</ele><time>2026-04-05T08:34:01.602Z</time></trkpt><trkpt lat="43.2290517" lon="-8.2885439"><ele>139.0</ele><time>2026-04-05T08:34:02.603Z</time></trkpt><trkpt lat="43.2289292" lon="-8.2886463"><ele>139.0</ele><time>2026-04-05T08:34:03.603Z</time></trkpt><trkpt lat="43.2288006" lon="-8.2887186"><ele>139.75</ele><time>2026-04-05T08:34:04.603Z</time></trkpt><trkpt lat="43.2286678" lon="-8.2887618"><ele>140.5</ele><time>2026-04-05T08:34:05.602Z</time></trkpt><trkpt lat="43.2285372" lon="-8.2887755"><ele>141.25</ele><time>2026-04-05T08:34:06.603Z</time></trkpt><trkpt lat="43.2284089" lon="-8.2887724"><ele>142.0</ele><time>2026-04-05T08:34:07.602Z</time></trkpt><trkpt lat="43.228284" lon="-8.2887589"><ele>142.0</ele><time>2026-04-05T08:34:08.603Z</time></trkpt><trkpt lat="43.2281597" lon="-8.2887427"><ele>142.0</ele><time>2026-04-05T08:34:09.602Z</time></trkpt><trkpt lat="43.2280402" lon="-8.2887272"><ele>142.0</ele><time>2026-04-05T08:34:10.603Z</time></trkpt><trkpt lat="43.2279285" lon="-8.2887135"><ele>142.0</ele><time>2026-04-05T08:34:11.602Z</time></trkpt><trkpt lat="43.2278277" lon="-8.2887028"><ele>142.33333333333334</ele><time>2026-04-05T08:34:12.602Z</time></trkpt><trkpt lat="43.2277405" lon="-8.2886926"><ele>142.66666666666669</ele><time>2026-04-05T08:34:13.603Z</time></trkpt><trkpt lat="43.2276669" lon="-8.2886762"><ele>143.0</ele><time>2026-04-05T08:34:14.603Z</time></trkpt><trkpt lat="43.2276327" lon="-8.2885841"><ele>143.33333333333334</ele><time>2026-04-05T08:34:16.603Z</time></trkpt><trkpt lat="43.2277135" lon="-8.2885399"><ele>143.66666666666666</ele><time>2026-04-05T08:34:19.602Z</time></trkpt><trkpt lat="43.2277909" lon="-8.2885573"><ele>144.0</ele><time>2026-04-05T08:34:29.603Z</time></trkpt><trkpt lat="43.2277552" lon="-8.2886285"><ele>144.0</ele><time>2026-04-05T08:36:36.602Z</time></trkpt><trkpt lat="43.2277858" lon="-8.2887082"><ele>144.0</ele><time>2026-04-05T08:45:01.603Z</time></trkpt><trkpt lat="43.2278734" lon="-8.2887212"><ele>144.0</ele><time>2026-04-05T08:45:04.603Z</time></trkpt><trkpt lat="43.2278471" lon="-8.2888157"><ele>144.0</ele><time>2026-04-05T08:45:15.603Z</time></trkpt><trkpt lat="43.2277652" lon="-8.2888293"><ele>144.0</ele><time>2026-04-05T08:45:17.603Z</time></trkpt><trkpt lat="43.2277066" lon="-8.2887853"><ele>144.0</ele><time>2026-04-05T08:45:18.602Z</time></trkpt><trkpt lat="43.2275954" lon="-8.288748"><ele>144.0</ele><time>2026-04-05T08:45:20.603Z</time></trkpt><trkpt lat="43.2274719" lon="-8.2887145"><ele>144.0</ele><time>2026-04-05T08:45:22.602Z</time></trkpt><trkpt lat="43.2274006" lon="-8.2887047"><ele>144.0</ele><time>2026-04-05T08:45:23.603Z</time></trkpt><trkpt lat="43.2273145" lon="-8.2886912"><ele>144.0</ele><time>2026-04-05T08:45:24.603Z</time></trkpt><trkpt lat="43.2272265" lon="-8.2886781"><ele>144.0</ele><time>2026-04-05T08:45:25.603Z</time></trkpt><trkpt lat="43.2271354" lon="-8.2886697"><ele>144.4</ele><time>2026-04-05T08:45:26.603Z</time></trkpt><trkpt lat="43.2270418" lon="-8.2886567"><ele>144.8</ele><time>2026-04-05T08:45:27.603Z</time></trkpt><trkpt lat="43.2269388" lon="-8.2886505"><ele>145.2</ele><time>2026-04-05T08:45:28.602Z</time></trkpt><trkpt lat="43.2268378" lon="-8.2886439"><ele>145.6</ele><time>2026-04-05T08:45:29.602Z</time></trkpt><trkpt lat="43.2267343" lon="-8.2886337"><ele>146.0</ele><time>2026-04-05T08:45:30.603Z</time></trkpt><trkpt lat="43.2266282" lon="-8.2886284"><ele>146.0</ele><time>2026-04-05T08:45:31.603Z</time></trkpt><trkpt lat="43.2265168" lon="-8.288619"><ele>146.0</ele><time>2026-04-05T08:45:32.603Z</time></trkpt><trkpt lat="43.2264027" lon="-8.2886124"><ele>146.0</ele><time>2026-04-05T08:45:33.602Z</time></trkpt><trkpt lat="43.226285" lon="-8.2886149"><ele>146.0</ele><time>2026-04-05T08:45:34.603Z</time></trkpt><trkpt lat="43.2261591" lon="-8.2886548"><ele>146.25</ele><time>2026-04-05T08:45:35.602Z</time></trkpt><trkpt lat="43.2260372" lon="-8.2887409"><ele>146.5</ele><time>2026-04-05T08:45:36.603Z</time></trkpt><trkpt lat="43.2259301" lon="-8.2888718"><ele>146.75</ele><time>2026-04-05T08:45:37.602Z</time></trkpt><trkpt lat="43.2258331" lon="-8.2890296"><ele>147.0</ele><time>2026-04-05T08:45:38.602Z</time></trkpt><trkpt lat="43.2257351" lon="-8.2892068"><ele>147.0</ele><time>2026-04-05T08:45:39.603Z</time></trkpt><trkpt lat="43.2256489" lon="-8.2894074"><ele>147.0</ele><time>2026-04-05T08:45:40.603Z</time></trkpt><trkpt lat="43.2255625" lon="-8.2896125"><ele>147.0</ele><time>2026-04-05T08:45:41.603Z</time></trkpt><trkpt lat="43.2254668" lon="-8.2898076"><ele>148.66666666666666</ele><time>2026-04-05T08:45:42.602Z</time></trkpt><trkpt lat="43.2253765" lon="-8.2900211"><ele>150.33333333333331</ele><time>2026-04-05T08:45:43.603Z</time></trkpt><trkpt lat="43.2252807" lon="-8.2902265"><ele>152.0</ele><time>2026-04-05T08:45:44.603Z</time></trkpt><trkpt lat="43.2251833" lon="-8.2904486"><ele>152.66666666666666</ele><time>2026-04-05T08:45:45.602Z</time></trkpt><trkpt lat="43.2250848" lon="-8.290666"><ele>153.33333333333334</ele><time>2026-04-05T08:45:46.603Z</time></trkpt><trkpt lat="43.2249857" lon="-8.2908795"><ele>154.0</ele><time>2026-04-05T08:45:47.603Z</time></trkpt><trkpt lat="43.224891" lon="-8.2910952"><ele>154.0</ele><time>2026-04-05T08:45:48.602Z</time></trkpt><trkpt lat="43.2247962" lon="-8.2913176"><ele>154.0</ele><time>2026-04-05T08:45:49.603Z</time></trkpt><trkpt lat="43.224696" lon="-8.2915448"><ele>154.0</ele><time>2026-04-05T08:45:50.602Z</time></trkpt><trkpt lat="43.2245931" lon="-8.2917746"><ele>154.0</ele><time>2026-04-05T08:45:51.602Z</time></trkpt><trkpt lat="43.2244896" lon="-8.2920004"><ele>154.0</ele><time>2026-04-05T08:45:52.603Z</time></trkpt><trkpt lat="43.2243857" lon="-8.2922308"><ele>154.0</ele><time>2026-04-05T08:45:53.602Z</time></trkpt><trkpt lat="43.2242795" lon="-8.2924671"><ele>154.33333333333334</ele><time>2026-04-05T08:45:54.603Z</time></trkpt><trkpt lat="43.2241753" lon="-8.2927082"><ele>154.66666666666666</ele><time>2026-04-05T08:45:55.602Z</time></trkpt><trkpt lat="43.224068" lon="-8.2929479"><ele>155.0</ele><time>2026-04-05T08:45:56.603Z</time></trkpt><trkpt lat="43.2239637" lon="-8.2931892"><ele>154.0</ele><time>2026-04-05T08:45:57.603Z</time></trkpt><trkpt lat="43.2238615" lon="-8.2934414"><ele>153.0</ele><time>2026-04-05T08:45:58.603Z</time></trkpt><trkpt lat="43.2237647" lon="-8.2936975"><ele>152.0</ele><time>2026-04-05T08:45:59.603Z</time></trkpt><trkpt lat="43.2236799" lon="-8.2939434"><ele>152.0</ele><time>2026-04-05T08:46:00.602Z</time></trkpt><trkpt lat="43.2235946" lon="-8.2941812"><ele>152.0</ele><time>2026-04-05T08:46:01.603Z</time></trkpt><trkpt lat="43.2235087" lon="-8.2943999"><ele>152.0</ele><time>2026-04-05T08:46:02.603Z</time></trkpt><trkpt lat="43.2234184" lon="-8.2946083"><ele>153.66666666666666</ele><time>2026-04-05T08:46:03.602Z</time></trkpt><trkpt lat="43.2233259" lon="-8.2947995"><ele>155.33333333333334</ele><time>2026-04-05T08:46:04.602Z</time></trkpt><trkpt lat="43.2232356" lon="-8.2950008"><ele>157.0</ele><time>2026-04-05T08:46:05.603Z</time></trkpt><trkpt lat="43.2231515" lon="-8.295169"><ele>156.75</ele><time>2026-04-05T08:46:06.603Z</time></trkpt><trkpt lat="43.2230626" lon="-8.2953448"><ele>156.5</ele><time>2026-04-05T08:46:07.603Z</time></trkpt><trkpt lat="43.2229914" lon="-8.2954964"><ele>156.25</ele><time>2026-04-05T08:46:08.603Z</time></trkpt><trkpt lat="43.2229205" lon="-8.2956342"><ele>156.0</ele><time>2026-04-05T08:46:09.603Z</time></trkpt><trkpt lat="43.2228456" lon="-8.295771"><ele>156.0</ele><time>2026-04-05T08:46:10.603Z</time></trkpt><trkpt lat="43.2227722" lon="-8.2959187"><ele>156.0</ele><time>2026-04-05T08:46:11.603Z</time></trkpt><trkpt lat="43.2226949" lon="-8.2960688"><ele>156.0</ele><time>2026-04-05T08:46:12.603Z</time></trkpt><trkpt lat="43.2226201" lon="-8.2962215"><ele>156.0</ele><time>2026-04-05T08:46:13.602Z</time></trkpt><trkpt lat="43.2225442" lon="-8.2963791"><ele>156.0</ele><time>2026-04-05T08:46:14.602Z</time></trkpt><trkpt lat="43.2224672" lon="-8.2965435"><ele>156.0</ele><time>2026-04-05T08:46:15.602Z</time></trkpt><trkpt lat="43.222393" lon="-8.296705"><ele>156.0</ele><time>2026-04-05T08:46:16.603Z</time></trkpt><trkpt lat="43.2223146" lon="-8.2968786"><ele>156.0</ele><time>2026-04-05T08:46:17.603Z</time></trkpt><trkpt lat="43.2222356" lon="-8.2970416"><ele>156.0</ele><time>2026-04-05T08:46:18.602Z</time></trkpt><trkpt lat="43.2221516" lon="-8.2972004"><ele>156.0</ele><time>2026-04-05T08:46:19.603Z</time></trkpt><trkpt lat="43.222064" lon="-8.2973528"><ele>156.0</ele><time>2026-04-05T08:46:20.603Z</time></trkpt><trkpt lat="43.2219634" lon="-8.297489"><ele>156.0</ele><time>2026-04-05T08:46:21.603Z</time></trkpt><trkpt lat="43.2218439" lon="-8.2975918"><ele>158.0</ele><time>2026-04-05T08:46:22.603Z</time></trkpt><trkpt lat="43.2217065" lon="-8.297655"><ele>160.0</ele><time>2026-04-05T08:46:23.603Z</time></trkpt><trkpt lat="43.2215591" lon="-8.2976834"><ele>162.0</ele><time>2026-04-05T08:46:24.603Z</time></trkpt><trkpt lat="43.2214073" lon="-8.2976996"><ele>164.0</ele><time>2026-04-05T08:46:25.603Z</time></trkpt><trkpt lat="43.22125" lon="-8.2977161"><ele>164.33333333333331</ele><time>2026-04-05T08:46:26.603Z</time></trkpt><trkpt lat="43.2210912" lon="-8.2977421"><ele>164.66666666666666</ele><time>2026-04-05T08:46:27.603Z</time></trkpt><trkpt lat="43.2209339" lon="-8.2977743"><ele>165.0</ele><time>2026-04-05T08:46:28.603Z</time></trkpt><trkpt lat="43.2207782" lon="-8.2978004"><ele>165.33333333333334</ele><time>2026-04-05T08:46:29.603Z</time></trkpt><trkpt lat="43.2206212" lon="-8.2978282"><ele>165.66666666666669</ele><time>2026-04-05T08:46:30.603Z</time></trkpt><trkpt lat="43.2204699" lon="-8.2978633"><ele>166.0</ele><time>2026-04-05T08:46:31.602Z</time></trkpt><trkpt lat="43.2203213" lon="-8.2979004"><ele>166.0</ele><time>2026-04-05T08:46:32.603Z</time></trkpt><trkpt lat="43.220178" lon="-8.2979454"><ele>166.0</ele><time>2026-04-05T08:46:33.603Z</time></trkpt><trkpt lat="43.2200319" lon="-8.2979877"><ele>166.0</ele><time>2026-04-05T08:46:34.602Z</time></trkpt><trkpt lat="43.2198841" lon="-8.2980375"><ele>166.0</ele><time>2026-04-05T08:46:35.602Z</time></trkpt><trkpt lat="43.2197335" lon="-8.2980954"><ele>168.66666666666669</ele><time>2026-04-05T08:46:36.602Z</time></trkpt><trkpt lat="43.2195826" lon="-8.2981636"><ele>171.33333333333334</ele><time>2026-04-05T08:46:37.603Z</time></trkpt><trkpt lat="43.2194326" lon="-8.2982472"><ele>174.0</ele><time>2026-04-05T08:46:38.603Z</time></trkpt><trkpt lat="43.2192814" lon="-8.2983416"><ele>174.0</ele><time>2026-04-05T08:46:39.603Z</time></trkpt><trkpt lat="43.2191382" lon="-8.2984482"><ele>174.0</ele><time>2026-04-05T08:46:40.603Z</time></trkpt><trkpt lat="43.2189981" lon="-8.2985607"><ele>174.0</ele><time>2026-04-05T08:46:41.603Z</time></trkpt><trkpt lat="43.2188584" lon="-8.2986756"><ele>175.0</ele><time>2026-04-05T08:46:42.603Z</time></trkpt><trkpt lat="43.2187188" lon="-8.2987861"><ele>176.0</ele><time>2026-04-05T08:46:43.603Z</time></trkpt><trkpt lat="43.2185771" lon="-8.2988959"><ele>177.0</ele><time>2026-04-05T08:46:44.602Z</time></trkpt><trkpt lat="43.2184347" lon="-8.2990068"><ele>177.0</ele><time>2026-04-05T08:46:45.603Z</time></trkpt><trkpt lat="43.2182929" lon="-8.2991174"><ele>177.0</ele><time>2026-04-05T08:46:46.603Z</time></trkpt><trkpt lat="43.2181509" lon="-8.2992309"><ele>177.0</ele><time>2026-04-05T08:46:47.603Z</time></trkpt><trkpt lat="43.2180115" lon="-8.2993407"><ele>175.33333333333334</ele><time>2026-04-05T08:46:48.602Z</time></trkpt><trkpt lat="43.217873" lon="-8.29945"><ele>173.66666666666669</ele><time>2026-04-05T08:46:49.602Z</time></trkpt><trkpt lat="43.2177386" lon="-8.2995592"><ele>172.0</ele><time>2026-04-05T08:46:50.602Z</time></trkpt><trkpt lat="43.2176181" lon="-8.2996672"><ele>172.25</ele><time>2026-04-05T08:46:51.603Z</time></trkpt><trkpt lat="43.2174997" lon="-8.2997685"><ele>172.5</ele><time>2026-04-05T08:46:52.603Z</time></trkpt><trkpt lat="43.2173845" lon="-8.2998813"><ele>172.75</ele><time>2026-04-05T08:46:53.603Z</time></trkpt><trkpt lat="43.2172853" lon="-8.300012"><ele>173.0</ele><time>2026-04-05T08:46:54.603Z</time></trkpt><trkpt lat="43.2172026" lon="-8.3001678"><ele>173.0</ele><time>2026-04-05T08:46:55.603Z</time></trkpt><trkpt lat="43.2171396" lon="-8.300355"><ele>173.0</ele><time>2026-04-05T08:46:56.602Z</time></trkpt><trkpt lat="43.2170911" lon="-8.3005599"><ele>173.0</ele><time>2026-04-05T08:46:57.603Z</time></trkpt><trkpt lat="43.2170458" lon="-8.3007706"><ele>175.33333333333331</ele><time>2026-04-05T08:46:58.602Z</time></trkpt><trkpt lat="43.2169973" lon="-8.3009826"><ele>177.66666666666666</ele><time>2026-04-05T08:46:59.603Z</time></trkpt><trkpt lat="43.2169467" lon="-8.301203"><ele>180.0</ele><time>2026-04-05T08:47:00.603Z</time></trkpt><trkpt lat="43.2168979" lon="-8.3014236"><ele>183.0</ele><time>2026-04-05T08:47:01.602Z</time></trkpt><trkpt lat="43.2168485" lon="-8.3016375"><ele>186.0</ele><time>2026-04-05T08:47:02.603Z</time></trkpt><trkpt lat="43.2167984" lon="-8.30185"><ele>189.0</ele><time>2026-04-05T08:47:03.603Z</time></trkpt><trkpt lat="43.2167513" lon="-8.3020585"><ele>190.66666666666669</ele><time>2026-04-05T08:47:04.603Z</time></trkpt><trkpt lat="43.216706" lon="-8.3022733"><ele>192.33333333333334</ele><time>2026-04-05T08:47:05.603Z</time></trkpt><trkpt lat="43.216662" lon="-8.3024914"><ele>194.0</ele><time>2026-04-05T08:47:06.602Z</time></trkpt><trkpt lat="43.2166177" lon="-8.3027103"><ele>194.0</ele><time>2026-04-05T08:47:07.602Z</time></trkpt><trkpt lat="43.216563" lon="-8.3029166"><ele>194.0</ele><time>2026-04-05T08:47:08.602Z</time></trkpt><trkpt lat="43.216482" lon="-8.3031212"><ele>194.0</ele><time>2026-04-05T08:47:09.603Z</time></trkpt><trkpt lat="43.2163611" lon="-8.3033457"><ele>188.5</ele><time>2026-04-05T08:47:10.603Z</time></trkpt><trkpt lat="43.216207" lon="-8.3035994"><ele>183.0</ele><time>2026-04-05T08:47:11.603Z</time></trkpt><trkpt lat="43.2160421" lon="-8.3038783"><ele>185.0</ele><time>2026-04-05T08:47:12.603Z</time></trkpt><trkpt lat="43.2158758" lon="-8.3041723"><ele>187.0</ele><time>2026-04-05T08:47:13.603Z</time></trkpt><trkpt lat="43.2157108" lon="-8.3044606"><ele>185.5</ele><time>2026-04-05T08:47:14.603Z</time></trkpt><trkpt lat="43.2155474" lon="-8.304737"><ele>184.0</ele><time>2026-04-05T08:47:15.603Z</time></trkpt><trkpt lat="43.2153892" lon="-8.3050091"><ele>184.0</ele><time>2026-04-05T08:47:16.602Z</time></trkpt><trkpt lat="43.2152331" lon="-8.3052849"><ele>184.0</ele><time>2026-04-05T08:47:17.603Z</time></trkpt><trkpt lat="43.2150895" lon="-8.3055398"><ele>183.0</ele><time>2026-04-05T08:47:18.602Z</time></trkpt><trkpt lat="43.2149495" lon="-8.3057984"><ele>182.0</ele><time>2026-04-05T08:47:19.603Z</time></trkpt><trkpt lat="43.2148115" lon="-8.3060504"><ele>182.0</ele><time>2026-04-05T08:47:20.603Z</time></trkpt><trkpt lat="43.2146678" lon="-8.3063032"><ele>182.0</ele><time>2026-04-05T08:47:21.602Z</time></trkpt><trkpt lat="43.2145273" lon="-8.3065603"><ele>180.5</ele><time>2026-04-05T08:47:22.603Z</time></trkpt><trkpt lat="43.214384" lon="-8.3068228"><ele>179.0</ele><time>2026-04-05T08:47:23.602Z</time></trkpt><trkpt lat="43.2142537" lon="-8.3070497"><ele>178.66666666666666</ele><time>2026-04-05T08:47:24.603Z</time></trkpt><trkpt lat="43.214122" lon="-8.307266"><ele>178.33333333333334</ele><time>2026-04-05T08:47:25.602Z</time></trkpt><trkpt lat="43.2139862" lon="-8.3074821"><ele>178.0</ele><time>2026-04-05T08:47:26.603Z</time></trkpt><trkpt lat="43.2138374" lon="-8.3076958"><ele>178.0</ele><time>2026-04-05T08:47:27.603Z</time></trkpt><trkpt lat="43.2136695" lon="-8.3078996"><ele>178.0</ele><time>2026-04-05T08:47:28.602Z</time></trkpt><trkpt lat="43.2134788" lon="-8.3080898"><ele>174.5</ele><time>2026-04-05T08:47:29.603Z</time></trkpt><trkpt lat="43.213289" lon="-8.3082764"><ele>171.0</ele><time>2026-04-05T08:47:30.603Z</time></trkpt><trkpt lat="43.2130913" lon="-8.3084797"><ele>170.5</ele><time>2026-04-05T08:47:31.603Z</time></trkpt><trkpt lat="43.2128903" lon="-8.3086783"><ele>170.0</ele><time>2026-04-05T08:47:32.603Z</time></trkpt><trkpt lat="43.2126896" lon="-8.3088771"><ele>170.5</ele><time>2026-04-05T08:47:33.602Z</time></trkpt><trkpt lat="43.2124949" lon="-8.3090724"><ele>171.0</ele><time>2026-04-05T08:47:34.603Z</time></trkpt><trkpt lat="43.212303" lon="-8.3092739"><ele>171.0</ele><time>2026-04-05T08:47:35.603Z</time></trkpt><trkpt lat="43.2121165" lon="-8.3094796"><ele>171.0</ele><time>2026-04-05T08:47:36.603Z</time></trkpt><trkpt lat="43.2119396" lon="-8.3097063"><ele>169.5</ele><time>2026-04-05T08:47:37.603Z</time></trkpt><trkpt lat="43.2117737" lon="-8.3099463"><ele>168.0</ele><time>2026-04-05T08:47:38.602Z</time></trkpt><trkpt lat="43.2116179" lon="-8.3101987"><ele>172.0</ele><time>2026-04-05T08:47:39.602Z</time></trkpt><trkpt lat="43.2114704" lon="-8.310459"><ele>176.0</ele><time>2026-04-05T08:47:40.602Z</time></trkpt><trkpt lat="43.2113297" lon="-8.3107258"><ele>176.0</ele><time>2026-04-05T08:47:41.603Z</time></trkpt><trkpt lat="43.2111904" lon="-8.3109905"><ele>176.0</ele><time>2026-04-05T08:47:42.603Z</time></trkpt><trkpt lat="43.2110533" lon="-8.3112514"><ele>176.0</ele><time>2026-04-05T08:47:43.602Z</time></trkpt><trkpt lat="43.210927" lon="-8.3115001"><ele>176.0</ele><time>2026-04-05T08:47:44.602Z</time></trkpt><trkpt lat="43.2108135" lon="-8.3117438"><ele>176.0</ele><time>2026-04-05T08:47:45.603Z</time></trkpt><trkpt lat="43.2107267" lon="-8.3120016"><ele>175.66666666666666</ele><time>2026-04-05T08:47:46.603Z</time></trkpt><trkpt lat="43.2106743" lon="-8.3122673"><ele>175.33333333333334</ele><time>2026-04-05T08:47:47.603Z</time></trkpt><trkpt lat="43.2106592" lon="-8.3125442"><ele>175.0</ele><time>2026-04-05T08:47:48.603Z</time></trkpt><trkpt lat="43.2106652" lon="-8.3128276"><ele>173.66666666666669</ele><time>2026-04-05T08:47:49.603Z</time></trkpt><trkpt lat="43.2106794" lon="-8.3131203"><ele>172.33333333333334</ele><time>2026-04-05T08:47:50.603Z</time></trkpt><trkpt lat="43.2106893" lon="-8.3134151"><ele>171.0</ele><time>2026-04-05T08:47:51.602Z</time></trkpt><trkpt lat="43.2106969" lon="-8.3137097"><ele>171.0</ele><time>2026-04-05T08:47:52.603Z</time></trkpt><trkpt lat="43.2107036" lon="-8.3140008"><ele>171.0</ele><time>2026-04-05T08:47:53.603Z</time></trkpt><trkpt lat="43.2106976" lon="-8.3142848"><ele>171.0</ele><time>2026-04-05T08:47:54.602Z</time></trkpt><trkpt lat="43.2106544" lon="-8.3145622"><ele>172.0</ele><time>2026-04-05T08:47:55.603Z</time></trkpt><trkpt lat="43.2105802" lon="-8.3148206"><ele>173.0</ele><time>2026-04-05T08:47:56.602Z</time></trkpt><trkpt lat="43.2104844" lon="-8.3150719"><ele>174.0</ele><time>2026-04-05T08:47:57.603Z</time></trkpt><trkpt lat="43.2103796" lon="-8.3153159"><ele>174.0</ele><time>2026-04-05T08:47:58.603Z</time></trkpt><trkpt lat="43.2102704" lon="-8.3155672"><ele>174.0</ele><time>2026-04-05T08:47:59.603Z</time></trkpt><trkpt lat="43.210165" lon="-8.3158156"><ele>174.0</ele><time>2026-04-05T08:48:00.602Z</time></trkpt><trkpt lat="43.2100645" lon="-8.3160609"><ele>175.33333333333334</ele><time>2026-04-05T08:48:01.603Z</time></trkpt><trkpt lat="43.2099709" lon="-8.3163003"><ele>176.66666666666669</ele><time>2026-04-05T08:48:02.602Z</time></trkpt><trkpt lat="43.2098767" lon="-8.3165185"><ele>178.0</ele><time>2026-04-05T08:48:03.602Z</time></trkpt><trkpt lat="43.2097679" lon="-8.3167093"><ele>178.66666666666669</ele><time>2026-04-05T08:48:04.602Z</time></trkpt><trkpt lat="43.2096335" lon="-8.3168784"><ele>179.33333333333334</ele><time>2026-04-05T08:48:05.603Z</time></trkpt><trkpt lat="43.209483" lon="-8.3170265"><ele>180.0</ele><time>2026-04-05T08:48:06.602Z</time></trkpt><trkpt lat="43.2093217" lon="-8.3171653"><ele>181.33333333333334</ele><time>2026-04-05T08:48:07.603Z</time></trkpt><trkpt lat="43.2091555" lon="-8.3173122"><ele>182.66666666666669</ele><time>2026-04-05T08:48:08.603Z</time></trkpt><trkpt lat="43.2089928" lon="-8.3174576"><ele>184.0</ele><time>2026-04-05T08:48:09.602Z</time></trkpt><trkpt lat="43.2088348" lon="-8.3176101"><ele>185.66666666666669</ele><time>2026-04-05T08:48:10.603Z</time></trkpt><trkpt lat="43.2086862" lon="-8.3177628"><ele>187.33333333333334</ele><time>2026-04-05T08:48:11.603Z</time></trkpt><trkpt lat="43.2085577" lon="-8.317934"><ele>189.0</ele><time>2026-04-05T08:48:12.603Z</time></trkpt><trkpt lat="43.2084536" lon="-8.3181318"><ele>190.33333333333331</ele><time>2026-04-05T08:48:13.603Z</time></trkpt><trkpt lat="43.2083805" lon="-8.3183586"><ele>191.66666666666666</ele><time>2026-04-05T08:48:14.602Z</time></trkpt><trkpt lat="43.2083386" lon="-8.3186129"><ele>193.0</ele><time>2026-04-05T08:48:15.603Z</time></trkpt><trkpt lat="43.2082958" lon="-8.3188511"><ele>194.66666666666666</ele><time>2026-04-05T08:48:16.603Z</time></trkpt><trkpt lat="43.2082937" lon="-8.3191591"><ele>196.33333333333331</ele><time>2026-04-05T08:48:17.603Z</time></trkpt><trkpt lat="43.2082994" lon="-8.3194646"><ele>198.0</ele><time>2026-04-05T08:48:18.603Z</time></trkpt><trkpt lat="43.2082926" lon="-8.3197639"><ele>198.33333333333331</ele><time>2026-04-05T08:48:19.603Z</time></trkpt><trkpt lat="43.2082622" lon="-8.3200641"><ele>198.66666666666666</ele><time>2026-04-05T08:48:20.603Z</time></trkpt><trkpt lat="43.2081973" lon="-8.3203577"><ele>199.0</ele><time>2026-04-05T08:48:21.602Z</time></trkpt><trkpt lat="43.2081046" lon="-8.320644"><ele>200.0</ele><time>2026-04-05T08:48:22.603Z</time></trkpt><trkpt lat="43.2079956" lon="-8.3209335"><ele>201.0</ele><time>2026-04-05T08:48:23.603Z</time></trkpt><trkpt lat="43.2078858" lon="-8.3212183"><ele>204.0</ele><time>2026-04-05T08:48:24.603Z</time></trkpt><trkpt lat="43.2077774" lon="-8.3215022"><ele>207.0</ele><time>2026-04-05T08:48:25.603Z</time></trkpt><trkpt lat="43.2076949" lon="-8.3217857"><ele>207.0</ele><time>2026-04-05T08:48:26.603Z</time></trkpt><trkpt lat="43.2076515" lon="-8.3220686"><ele>207.0</ele><time>2026-04-05T08:48:27.603Z</time></trkpt><trkpt lat="43.2076312" lon="-8.3223401"><ele>207.0</ele><time>2026-04-05T08:48:28.603Z</time></trkpt><trkpt lat="43.2075872" lon="-8.3225932"><ele>209.33333333333331</ele><time>2026-04-05T08:48:29.603Z</time></trkpt><trkpt lat="43.2075016" lon="-8.3228279"><ele>211.66666666666666</ele><time>2026-04-05T08:48:30.603Z</time></trkpt><trkpt lat="43.2073997" lon="-8.3230519"><ele>214.0</ele><time>2026-04-05T08:48:31.603Z</time></trkpt><trkpt lat="43.2072196" lon="-8.3232759"><ele>216.5</ele><time>2026-04-05T08:48:32.603Z</time></trkpt><trkpt lat="43.2070447" lon="-8.323511"><ele>219.0</ele><time>2026-04-05T08:48:33.603Z</time></trkpt><trkpt lat="43.2068601" lon="-8.3237587"><ele>222.5</ele><time>2026-04-05T08:48:34.601Z</time></trkpt><trkpt lat="43.2066746" lon="-8.3240233"><ele>226.0</ele><time>2026-04-05T08:48:35.603Z</time></trkpt><trkpt lat="43.2064863" lon="-8.3242833"><ele>226.0</ele><time>2026-04-05T08:48:36.603Z</time></trkpt><trkpt lat="43.206315" lon="-8.3245629"><ele>226.0</ele><time>2026-04-05T08:48:37.602Z</time></trkpt><trkpt lat="43.2061536" lon="-8.3248495"><ele>228.0</ele><time>2026-04-05T08:48:38.602Z</time></trkpt><trkpt lat="43.2060047" lon="-8.3251447"><ele>230.0</ele><time>2026-04-05T08:48:39.602Z</time></trkpt><trkpt lat="43.2058783" lon="-8.3254465"><ele>236.5</ele><time>2026-04-05T08:48:40.602Z</time></trkpt><trkpt lat="43.2057797" lon="-8.3257589"><ele>243.0</ele><time>2026-04-05T08:48:41.603Z</time></trkpt><trkpt lat="43.2056982" lon="-8.3260533"><ele>243.0</ele><time>2026-04-05T08:48:42.603Z</time></trkpt><trkpt lat="43.2056184" lon="-8.3263361"><ele>243.0</ele><time>2026-04-05T08:48:43.603Z</time></trkpt><trkpt lat="43.2055442" lon="-8.326601"><ele>243.0</ele><time>2026-04-05T08:48:44.603Z</time></trkpt><trkpt lat="43.2054752" lon="-8.3268407"><ele>243.0</ele><time>2026-04-05T08:48:45.602Z</time></trkpt><trkpt lat="43.205401" lon="-8.3270547"><ele>243.0</ele><time>2026-04-05T08:48:46.603Z</time></trkpt><trkpt lat="43.205304" lon="-8.3272383"><ele>243.0</ele><time>2026-04-05T08:48:47.603Z</time></trkpt><trkpt lat="43.2051804" lon="-8.3273716"><ele>245.66666666666669</ele><time>2026-04-05T08:48:48.602Z</time></trkpt><trkpt lat="43.2050306" lon="-8.3274544"><ele>248.33333333333334</ele><time>2026-04-05T08:48:49.602Z</time></trkpt><trkpt lat="43.2048599" lon="-8.3275117"><ele>251.0</ele><time>2026-04-05T08:48:50.603Z</time></trkpt><trkpt lat="43.2046692" lon="-8.3275673"><ele>251.66666666666669</ele><time>2026-04-05T08:48:51.603Z</time></trkpt><trkpt lat="43.2044648" lon="-8.3276249"><ele>252.33333333333331</ele><time>2026-04-05T08:48:52.603Z</time></trkpt><trkpt lat="43.2042444" lon="-8.327685"><ele>253.0</ele><time>2026-04-05T08:48:53.602Z</time></trkpt><trkpt lat="43.2040108" lon="-8.3277505"><ele>255.0</ele><time>2026-04-05T08:48:54.603Z</time></trkpt><trkpt lat="43.2037914" lon="-8.327816"><ele>257.0</ele><time>2026-04-05T08:48:55.603Z</time></trkpt><trkpt lat="43.2035474" lon="-8.327891"><ele>257.0</ele><time>2026-04-05T08:48:56.603Z</time></trkpt><trkpt lat="43.2033086" lon="-8.3279608"><ele>257.0</ele><time>2026-04-05T08:48:57.603Z</time></trkpt><trkpt lat="43.2030879" lon="-8.3280314"><ele>259.6666666666667</ele><time>2026-04-05T08:48:58.603Z</time></trkpt><trkpt lat="43.202896" lon="-8.3281483"><ele>262.3333333333333</ele><time>2026-04-05T08:48:59.602Z</time></trkpt><trkpt lat="43.2027265" lon="-8.3283191"><ele>265.0</ele><time>2026-04-05T08:49:00.603Z</time></trkpt><trkpt lat="43.2025747" lon="-8.3285325"><ele>265.0</ele><time>2026-04-05T08:49:01.603Z</time></trkpt><trkpt lat="43.2024334" lon="-8.3287736"><ele>265.0</ele><time>2026-04-05T08:49:02.603Z</time></trkpt><trkpt lat="43.2023122" lon="-8.3290075"><ele>265.0</ele><time>2026-04-05T08:49:03.602Z</time></trkpt><trkpt lat="43.2022364" lon="-8.3292489"><ele>265.0</ele><time>2026-04-05T08:49:04.602Z</time></trkpt><trkpt lat="43.2022028" lon="-8.3294873"><ele>265.0</ele><time>2026-04-05T08:49:05.603Z</time></trkpt><trkpt lat="43.202176" lon="-8.3297084"><ele>265.0</ele><time>2026-04-05T08:49:06.602Z</time></trkpt><trkpt lat="43.2021171" lon="-8.3299099"><ele>269.66666666666663</ele><time>2026-04-05T08:49:07.602Z</time></trkpt><trkpt lat="43.2020245" lon="-8.3301021"><ele>274.3333333333333</ele><time>2026-04-05T08:49:08.603Z</time></trkpt><trkpt lat="43.2018417" lon="-8.3302405"><ele>279.0</ele><time>2026-04-05T08:49:09.602Z</time></trkpt><trkpt lat="43.2016477" lon="-8.3303808"><ele>280.5</ele><time>2026-04-05T08:49:10.602Z</time></trkpt><trkpt lat="43.2014506" lon="-8.3305563"><ele>282.0</ele><time>2026-04-05T08:49:11.602Z</time></trkpt><trkpt lat="43.2012596" lon="-8.3307727"><ele>286.5</ele><time>2026-04-05T08:49:12.603Z</time></trkpt><trkpt lat="43.2010697" lon="-8.3310158"><ele>291.0</ele><time>2026-04-05T08:49:13.602Z</time></trkpt><trkpt lat="43.2008776" lon="-8.3312695"><ele>292.0</ele><time>2026-04-05T08:49:14.603Z</time></trkpt><trkpt lat="43.2006798" lon="-8.3315091"><ele>293.0</ele><time>2026-04-05T08:49:15.602Z</time></trkpt><trkpt lat="43.2004631" lon="-8.3317303"><ele>296.5</ele><time>2026-04-05T08:49:16.603Z</time></trkpt><trkpt lat="43.2002281" lon="-8.3319312"><ele>300.0</ele><time>2026-04-05T08:49:17.603Z</time></trkpt><trkpt lat="43.1999846" lon="-8.3321237"><ele>303.0</ele><time>2026-04-05T08:49:18.602Z</time></trkpt><trkpt lat="43.1997392" lon="-8.33232"><ele>306.0</ele><time>2026-04-05T08:49:19.603Z</time></trkpt><trkpt lat="43.1995075" lon="-8.3325088"><ele>306.0</ele><time>2026-04-05T08:49:20.603Z</time></trkpt><trkpt lat="43.1993007" lon="-8.3326832"><ele>306.0</ele><time>2026-04-05T08:49:21.603Z</time></trkpt><trkpt lat="43.1991198" lon="-8.3328359"><ele>309.6666666666667</ele><time>2026-04-05T08:49:22.602Z</time></trkpt><trkpt lat="43.198957" lon="-8.3329568"><ele>313.33333333333337</ele><time>2026-04-05T08:49:23.603Z</time></trkpt><trkpt lat="43.1988052" lon="-8.3330185"><ele>317.0</ele><time>2026-04-05T08:49:24.602Z</time></trkpt><trkpt lat="43.1986513" lon="-8.3329843"><ele>317.0</ele><time>2026-04-05T08:49:25.602Z</time></trkpt><trkpt lat="43.1985088" lon="-8.3328741"><ele>317.0</ele><time>2026-04-05T08:49:26.603Z</time></trkpt><trkpt lat="43.1983674" lon="-8.3327535"><ele>317.0</ele><time>2026-04-05T08:49:27.603Z</time></trkpt><trkpt lat="43.198204" lon="-8.3326928"><ele>318.0</ele><time>2026-04-05T08:49:28.603Z</time></trkpt><trkpt lat="43.1980301" lon="-8.3327123"><ele>319.0</ele><time>2026-04-05T08:49:29.602Z</time></trkpt><trkpt lat="43.1978537" lon="-8.3328044"><ele>320.0</ele><time>2026-04-05T08:49:30.602Z</time></trkpt><trkpt lat="43.1976847" lon="-8.3329616"><ele>323.0</ele><time>2026-04-05T08:49:31.602Z</time></trkpt><trkpt lat="43.1975059" lon="-8.333142"><ele>326.0</ele><time>2026-04-05T08:49:32.603Z</time></trkpt><trkpt lat="43.1973282" lon="-8.3333229"><ele>329.0</ele><time>2026-04-05T08:49:33.603Z</time></trkpt><trkpt lat="43.1971138" lon="-8.3334674"><ele>330.0</ele><time>2026-04-05T08:49:34.602Z</time></trkpt><trkpt lat="43.1968576" lon="-8.3335652"><ele>331.0</ele><time>2026-04-05T08:49:35.603Z</time></trkpt><trkpt lat="43.1965477" lon="-8.3336116"><ele>335.0</ele><time>2026-04-05T08:49:36.603Z</time></trkpt><trkpt lat="43.1962689" lon="-8.3336904"><ele>339.0</ele><time>2026-04-05T08:49:37.602Z</time></trkpt><trkpt lat="43.1960158" lon="-8.3337748"><ele>339.0</ele><time>2026-04-05T08:49:38.603Z</time></trkpt><trkpt lat="43.195787" lon="-8.3338459"><ele>339.0</ele><time>2026-04-05T08:49:39.602Z</time></trkpt><trkpt lat="43.1955794" lon="-8.3339086"><ele>339.0</ele><time>2026-04-05T08:49:40.602Z</time></trkpt><trkpt lat="43.1953557" lon="-8.3339726"><ele>341.3333333333333</ele><time>2026-04-05T08:49:41.603Z</time></trkpt><trkpt lat="43.1951756" lon="-8.333879"><ele>343.66666666666663</ele><time>2026-04-05T08:49:42.602Z</time></trkpt><trkpt lat="43.1949848" lon="-8.3337769"><ele>346.0</ele><time>2026-04-05T08:49:43.603Z</time></trkpt><trkpt lat="43.194784" lon="-8.3336914"><ele>347.3333333333333</ele><time>2026-04-05T08:49:44.603Z</time></trkpt><trkpt lat="43.1945687" lon="-8.3336738"><ele>348.6666666666667</ele><time>2026-04-05T08:49:45.602Z</time></trkpt><trkpt lat="43.1943526" lon="-8.3337261"><ele>350.0</ele><time>2026-04-05T08:49:46.602Z</time></trkpt><trkpt lat="43.1941395" lon="-8.3338343"><ele>359.0</ele><time>2026-04-05T08:49:47.602Z</time></trkpt><trkpt lat="43.1939243" lon="-8.3339919"><ele>368.0</ele><time>2026-04-05T08:49:48.603Z</time></trkpt><trkpt lat="43.1936991" lon="-8.3341603"><ele>368.0</ele><time>2026-04-05T08:49:49.603Z</time></trkpt><trkpt lat="43.1934545" lon="-8.33431"><ele>368.0</ele><time>2026-04-05T08:49:50.603Z</time></trkpt><trkpt lat="43.1931869" lon="-8.3344172"><ele>368.5</ele><time>2026-04-05T08:49:51.602Z</time></trkpt><trkpt lat="43.1929048" lon="-8.3344964"><ele>369.0</ele><time>2026-04-05T08:49:52.603Z</time></trkpt><trkpt lat="43.1926191" lon="-8.3345784"><ele>372.5</ele><time>2026-04-05T08:49:53.603Z</time></trkpt><trkpt lat="43.1923343" lon="-8.334661"><ele>376.0</ele><time>2026-04-05T08:49:54.603Z</time></trkpt><trkpt lat="43.1920587" lon="-8.3347596"><ele>380.5</ele><time>2026-04-05T08:49:55.603Z</time></trkpt><trkpt lat="43.1917888" lon="-8.3348424"><ele>385.0</ele><time>2026-04-05T08:49:56.603Z</time></trkpt><trkpt lat="43.1915392" lon="-8.3349207"><ele>388.0</ele><time>2026-04-05T08:49:57.602Z</time></trkpt><trkpt lat="43.191291" lon="-8.3349849"><ele>391.0</ele><time>2026-04-05T08:49:58.603Z</time></trkpt><trkpt lat="43.1910401" lon="-8.3349986"><ele>391.0</ele><time>2026-04-05T08:49:59.603Z</time></trkpt><trkpt lat="43.1907989" lon="-8.33497"><ele>391.0</ele><time>2026-04-05T08:50:00.603Z</time></trkpt><trkpt lat="43.1905655" lon="-8.3349131"><ele>393.0</ele><time>2026-04-05T08:50:01.6Z</time></trkpt><trkpt lat="43.1903344" lon="-8.3349029"><ele>395.0</ele><time>2026-04-05T08:50:02.603Z</time></trkpt><trkpt lat="43.1901037" lon="-8.3349524"><ele>395.0</ele><time>2026-04-05T08:50:03.602Z</time></trkpt><trkpt lat="43.1898666" lon="-8.3350379"><ele>395.0</ele><time>2026-04-05T08:50:04.602Z</time></trkpt><trkpt lat="43.1896272" lon="-8.3351406"><ele>398.5</ele><time>2026-04-05T08:50:05.603Z</time></trkpt><trkpt lat="43.1893867" lon="-8.3352339"><ele>402.0</ele><time>2026-04-05T08:50:06.603Z</time></trkpt><trkpt lat="43.1891527" lon="-8.3353228"><ele>406.0</ele><time>2026-04-05T08:50:07.603Z</time></trkpt><trkpt lat="43.188937" lon="-8.3354104"><ele>410.0</ele><time>2026-04-05T08:50:08.602Z</time></trkpt><trkpt lat="43.1887415" lon="-8.3354982"><ele>414.0</ele><time>2026-04-05T08:50:09.603Z</time></trkpt><trkpt lat="43.1885582" lon="-8.3355729"><ele>414.0</ele><time>2026-04-05T08:50:10.603Z</time></trkpt><trkpt lat="43.1883913" lon="-8.3356484"><ele>414.0</ele><time>2026-04-05T08:50:11.602Z</time></trkpt><trkpt lat="43.1882447" lon="-8.3357327"><ele>414.0</ele><time>2026-04-05T08:50:12.603Z</time></trkpt><trkpt lat="43.1881184" lon="-8.3358149"><ele>414.0</ele><time>2026-04-05T08:50:13.602Z</time></trkpt><trkpt lat="43.1879991" lon="-8.3358642"><ele>414.0</ele><time>2026-04-05T08:50:14.602Z</time></trkpt><trkpt lat="43.1878671" lon="-8.3358599"><ele>414.0</ele><time>2026-04-05T08:50:15.603Z</time></trkpt><trkpt lat="43.187713" lon="-8.3358302"><ele>414.0</ele><time>2026-04-05T08:50:16.603Z</time></trkpt><trkpt lat="43.1875387" lon="-8.3358035"><ele>417.0</ele><time>2026-04-05T08:50:17.603Z</time></trkpt><trkpt lat="43.1873392" lon="-8.3357859"><ele>420.0</ele><time>2026-04-05T08:50:18.603Z</time></trkpt><trkpt lat="43.1871254" lon="-8.3357699"><ele>423.0</ele><time>2026-04-05T08:50:19.603Z</time></trkpt><trkpt lat="43.1868994" lon="-8.3357524"><ele>423.0</ele><time>2026-04-05T08:50:20.603Z</time></trkpt><trkpt lat="43.1866826" lon="-8.3357311"><ele>423.0</ele><time>2026-04-05T08:50:21.603Z</time></trkpt><trkpt lat="43.1864742" lon="-8.3357134"><ele>423.0</ele><time>2026-04-05T08:50:22.603Z</time></trkpt><trkpt lat="43.1862732" lon="-8.3357542"><ele>424.0</ele><time>2026-04-05T08:50:23.603Z</time></trkpt><trkpt lat="43.1860825" lon="-8.335862"><ele>425.0</ele><time>2026-04-05T08:50:24.602Z</time></trkpt><trkpt lat="43.185905" lon="-8.336032"><ele>426.0</ele><time>2026-04-05T08:50:25.602Z</time></trkpt><trkpt lat="43.1857215" lon="-8.3362341"><ele>428.0</ele><time>2026-04-05T08:50:26.602Z</time></trkpt><trkpt lat="43.1855377" lon="-8.3364611"><ele>430.0</ele><time>2026-04-05T08:50:27.603Z</time></trkpt><trkpt lat="43.1853451" lon="-8.3366996"><ele>430.0</ele><time>2026-04-05T08:50:28.602Z</time></trkpt><trkpt lat="43.1851476" lon="-8.3369417"><ele>430.0</ele><time>2026-04-05T08:50:29.602Z</time></trkpt><trkpt lat="43.1849535" lon="-8.3371826"><ele>433.5</ele><time>2026-04-05T08:50:30.603Z</time></trkpt><trkpt lat="43.1847666" lon="-8.337409"><ele>437.0</ele><time>2026-04-05T08:50:31.603Z</time></trkpt><trkpt lat="43.1845883" lon="-8.3376364"><ele>437.0</ele><time>2026-04-05T08:50:32.603Z</time></trkpt><trkpt lat="43.1844249" lon="-8.3378866"><ele>437.0</ele><time>2026-04-05T08:50:33.603Z</time></trkpt><trkpt lat="43.1842855" lon="-8.3381709"><ele>438.5</ele><time>2026-04-05T08:50:34.603Z</time></trkpt><trkpt lat="43.1841577" lon="-8.3384781"><ele>440.0</ele><time>2026-04-05T08:50:35.603Z</time></trkpt><trkpt lat="43.1840212" lon="-8.338785"><ele>442.0</ele><time>2026-04-05T08:50:36.603Z</time></trkpt><trkpt lat="43.1838603" lon="-8.3390754"><ele>444.0</ele><time>2026-04-05T08:50:37.603Z</time></trkpt><trkpt lat="43.1836883" lon="-8.3393616"><ele>444.0</ele><time>2026-04-05T08:50:38.602Z</time></trkpt><trkpt lat="43.1835114" lon="-8.3396371"><ele>444.0</ele><time>2026-04-05T08:50:39.602Z</time></trkpt><trkpt lat="43.1833459" lon="-8.3398951"><ele>446.5</ele><time>2026-04-05T08:50:40.603Z</time></trkpt><trkpt lat="43.1831801" lon="-8.3401277"><ele>449.0</ele><time>2026-04-05T08:50:41.603Z</time></trkpt><trkpt lat="43.1830134" lon="-8.3403386"><ele>449.0</ele><time>2026-04-05T08:50:42.601Z</time></trkpt><trkpt lat="43.1828377" lon="-8.3405313"><ele>449.0</ele><time>2026-04-05T08:50:43.603Z</time></trkpt><trkpt lat="43.1826646" lon="-8.3407217"><ele>449.0</ele><time>2026-04-05T08:50:44.603Z</time></trkpt><trkpt lat="43.1824916" lon="-8.3409092"><ele>450.3333333333333</ele><time>2026-04-05T08:50:45.602Z</time></trkpt><trkpt lat="43.1823196" lon="-8.3410942"><ele>451.66666666666663</ele><time>2026-04-05T08:50:46.602Z</time></trkpt><trkpt lat="43.1821452" lon="-8.3412815"><ele>453.0</ele><time>2026-04-05T08:50:47.602Z</time></trkpt><trkpt lat="43.1819745" lon="-8.3414662"><ele>453.0</ele><time>2026-04-05T08:50:48.603Z</time></trkpt><trkpt lat="43.1818046" lon="-8.3416523"><ele>453.0</ele><time>2026-04-05T08:50:49.603Z</time></trkpt><trkpt lat="43.1816384" lon="-8.3418392"><ele>453.0</ele><time>2026-04-05T08:50:50.603Z</time></trkpt><trkpt lat="43.1814771" lon="-8.3420121"><ele>452.0</ele><time>2026-04-05T08:50:51.602Z</time></trkpt><trkpt lat="43.181317" lon="-8.3421783"><ele>451.0</ele><time>2026-04-05T08:50:52.603Z</time></trkpt><trkpt lat="43.1811639" lon="-8.3423379"><ele>450.0</ele><time>2026-04-05T08:50:53.603Z</time></trkpt><trkpt lat="43.1810163" lon="-8.3424962"><ele>450.0</ele><time>2026-04-05T08:50:54.603Z</time></trkpt><trkpt lat="43.1808684" lon="-8.3426521"><ele>450.0</ele><time>2026-04-05T08:50:55.602Z</time></trkpt><trkpt lat="43.1807186" lon="-8.3428015"><ele>450.0</ele><time>2026-04-05T08:50:56.602Z</time></trkpt><trkpt lat="43.180559" lon="-8.342933"><ele>452.0</ele><time>2026-04-05T08:50:57.603Z</time></trkpt><trkpt lat="43.1803941" lon="-8.3430547"><ele>454.0</ele><time>2026-04-05T08:50:58.603Z</time></trkpt><trkpt lat="43.1802135" lon="-8.3431608"><ele>456.0</ele><time>2026-04-05T08:50:59.602Z</time></trkpt><trkpt lat="43.1800246" lon="-8.3432558"><ele>456.33333333333337</ele><time>2026-04-05T08:51:00.603Z</time></trkpt><trkpt lat="43.1798413" lon="-8.3433556"><ele>456.6666666666667</ele><time>2026-04-05T08:51:01.602Z</time></trkpt><trkpt lat="43.1796526" lon="-8.3434473"><ele>457.0</ele><time>2026-04-05T08:51:02.603Z</time></trkpt><trkpt lat="43.1794685" lon="-8.3435449"><ele>457.0</ele><time>2026-04-05T08:51:03.603Z</time></trkpt><trkpt lat="43.179286" lon="-8.3436407"><ele>457.0</ele><time>2026-04-05T08:51:04.603Z</time></trkpt><trkpt lat="43.1791026" lon="-8.3437328"><ele>457.0</ele><time>2026-04-05T08:51:05.602Z</time></trkpt><trkpt lat="43.1789201" lon="-8.3438203"><ele>458.0</ele><time>2026-04-05T08:51:06.602Z</time></trkpt><trkpt lat="43.1787442" lon="-8.3439177"><ele>459.0</ele><time>2026-04-05T08:51:07.602Z</time></trkpt><trkpt lat="43.1785649" lon="-8.3440117"><ele>460.0</ele><time>2026-04-05T08:51:08.602Z</time></trkpt><trkpt lat="43.1783844" lon="-8.344106"><ele>460.0</ele><time>2026-04-05T08:51:09.603Z</time></trkpt><trkpt lat="43.1782022" lon="-8.3442022"><ele>460.0</ele><time>2026-04-05T08:51:10.602Z</time></trkpt><trkpt lat="43.1780202" lon="-8.3442964"><ele>460.0</ele><time>2026-04-05T08:51:11.603Z</time></trkpt><trkpt lat="43.1778419" lon="-8.3443868"><ele>460.0</ele><time>2026-04-05T08:51:12.602Z</time></trkpt><trkpt lat="43.1776633" lon="-8.3444778"><ele>460.0</ele><time>2026-04-05T08:51:13.603Z</time></trkpt><trkpt lat="43.1774861" lon="-8.3445736"><ele>460.0</ele><time>2026-04-05T08:51:14.603Z</time></trkpt><trkpt lat="43.1773047" lon="-8.3446706"><ele>460.6666666666667</ele><time>2026-04-05T08:51:15.603Z</time></trkpt><trkpt lat="43.177128" lon="-8.3447689"><ele>461.33333333333337</ele><time>2026-04-05T08:51:16.603Z</time></trkpt><trkpt lat="43.176951" lon="-8.3448734"><ele>462.0</ele><time>2026-04-05T08:51:17.603Z</time></trkpt><trkpt lat="43.176772" lon="-8.3449697"><ele>462.0</ele><time>2026-04-05T08:51:18.602Z</time></trkpt><trkpt lat="43.1765886" lon="-8.3450687"><ele>462.0</ele><time>2026-04-05T08:51:19.603Z</time></trkpt><trkpt lat="43.1764022" lon="-8.3451665"><ele>462.0</ele><time>2026-04-05T08:51:20.603Z</time></trkpt><trkpt lat="43.1762113" lon="-8.3452634"><ele>462.0</ele><time>2026-04-05T08:51:21.603Z</time></trkpt><trkpt lat="43.1760187" lon="-8.3453622"><ele>462.0</ele><time>2026-04-05T08:51:22.602Z</time></trkpt><trkpt lat="43.1758227" lon="-8.3454665"><ele>462.0</ele><time>2026-04-05T08:51:23.603Z</time></trkpt><trkpt lat="43.1756243" lon="-8.3455656"><ele>462.33333333333337</ele><time>2026-04-05T08:51:24.603Z</time></trkpt><trkpt lat="43.1754221" lon="-8.3456692"><ele>462.6666666666667</ele><time>2026-04-05T08:51:25.603Z</time></trkpt><trkpt lat="43.1752161" lon="-8.3457736"><ele>463.0</ele><time>2026-04-05T08:51:26.603Z</time></trkpt><trkpt lat="43.1750101" lon="-8.345885"><ele>463.0</ele><time>2026-04-05T08:51:27.603Z</time></trkpt><trkpt lat="43.1748003" lon="-8.3459954"><ele>463.0</ele><time>2026-04-05T08:51:28.602Z</time></trkpt><trkpt lat="43.1745898" lon="-8.3461011"><ele>463.0</ele><time>2026-04-05T08:51:29.602Z</time></trkpt><trkpt lat="43.1743794" lon="-8.3462118"><ele>463.0</ele><time>2026-04-05T08:51:30.603Z</time></trkpt><trkpt lat="43.1741677" lon="-8.3463197"><ele>463.0</ele><time>2026-04-05T08:51:31.602Z</time></trkpt><trkpt lat="43.1739619" lon="-8.346426"><ele>463.0</ele><time>2026-04-05T08:51:32.603Z</time></trkpt><trkpt lat="43.1737602" lon="-8.3465312"><ele>462.6666666666667</ele><time>2026-04-05T08:51:33.603Z</time></trkpt><trkpt lat="43.1735678" lon="-8.3466319"><ele>462.33333333333337</ele><time>2026-04-05T08:51:34.603Z</time></trkpt><trkpt lat="43.1733816" lon="-8.3467335"><ele>462.0</ele><time>2026-04-05T08:51:35.603Z</time></trkpt><trkpt lat="43.1732028" lon="-8.346828"><ele>460.66666666666663</ele><time>2026-04-05T08:51:36.603Z</time></trkpt><trkpt lat="43.1730356" lon="-8.3469223"><ele>459.3333333333333</ele><time>2026-04-05T08:51:37.603Z</time></trkpt><trkpt lat="43.1728724" lon="-8.3470054"><ele>458.0</ele><time>2026-04-05T08:51:38.603Z</time></trkpt><trkpt lat="43.1727133" lon="-8.347084"><ele>458.0</ele><time>2026-04-05T08:51:39.602Z</time></trkpt><trkpt lat="43.1725638" lon="-8.3471626"><ele>458.0</ele><time>2026-04-05T08:51:40.603Z</time></trkpt><trkpt lat="43.1724229" lon="-8.3472443"><ele>458.0</ele><time>2026-04-05T08:51:41.603Z</time></trkpt><trkpt lat="43.1722914" lon="-8.3473463"><ele>456.3333333333333</ele><time>2026-04-05T08:51:42.603Z</time></trkpt><trkpt lat="43.1721625" lon="-8.3474789"><ele>454.66666666666663</ele><time>2026-04-05T08:51:43.603Z</time></trkpt><trkpt lat="43.1720385" lon="-8.3476397"><ele>453.0</ele><time>2026-04-05T08:51:44.603Z</time></trkpt><trkpt lat="43.1719174" lon="-8.3478231"><ele>453.0</ele><time>2026-04-05T08:51:45.603Z</time></trkpt><trkpt lat="43.1717944" lon="-8.3480181"><ele>453.0</ele><time>2026-04-05T08:51:46.602Z</time></trkpt><trkpt lat="43.1716709" lon="-8.3482223"><ele>453.0</ele><time>2026-04-05T08:51:47.603Z</time></trkpt><trkpt lat="43.1715464" lon="-8.3484247"><ele>452.66666666666663</ele><time>2026-04-05T08:51:48.603Z</time></trkpt><trkpt lat="43.1714218" lon="-8.3486093"><ele>452.3333333333333</ele><time>2026-04-05T08:51:49.603Z</time></trkpt><trkpt lat="43.1712936" lon="-8.3487717"><ele>452.0</ele><time>2026-04-05T08:51:50.602Z</time></trkpt><trkpt lat="43.1711676" lon="-8.3489165"><ele>452.0</ele><time>2026-04-05T08:51:51.603Z</time></trkpt><trkpt lat="43.1710537" lon="-8.3490571"><ele>452.0</ele><time>2026-04-05T08:51:52.602Z</time></trkpt><trkpt lat="43.170953" lon="-8.3492003"><ele>452.0</ele><time>2026-04-05T08:51:53.603Z</time></trkpt><trkpt lat="43.170867" lon="-8.3493346"><ele>452.0</ele><time>2026-04-05T08:51:54.603Z</time></trkpt><trkpt lat="43.1707992" lon="-8.3494503"><ele>451.99999999999994</ele><time>2026-04-05T08:51:55.602Z</time></trkpt><trkpt lat="43.1707424" lon="-8.3495401"><ele>452.0</ele><time>2026-04-05T08:51:56.603Z</time></trkpt><trkpt lat="43.1706986" lon="-8.3496205"><ele>452.0</ele><time>2026-04-05T08:51:57.602Z</time></trkpt><trkpt lat="43.1706856" lon="-8.3497058"><ele>452.0</ele><time>2026-04-05T08:51:58.603Z</time></trkpt><trkpt lat="43.1707106" lon="-8.3497886"><ele>451.99999999999994</ele><time>2026-04-05T08:51:59.603Z</time></trkpt><trkpt lat="43.1707766" lon="-8.3498656"><ele>452.0</ele><time>2026-04-05T08:52:00.603Z</time></trkpt><trkpt lat="43.1708768" lon="-8.3499451"><ele>451.66666666666663</ele><time>2026-04-05T08:52:01.602Z</time></trkpt><trkpt lat="43.1710005" lon="-8.3500429"><ele>451.33333333333337</ele><time>2026-04-05T08:52:02.603Z</time></trkpt><trkpt lat="43.1711037" lon="-8.3501729"><ele>451.0</ele><time>2026-04-05T08:52:03.603Z</time></trkpt><trkpt lat="43.1712652" lon="-8.3503002"><ele>451.0</ele><time>2026-04-05T08:52:04.603Z</time></trkpt><trkpt lat="43.1714178" lon="-8.350425"><ele>451.0</ele><time>2026-04-05T08:52:05.602Z</time></trkpt><trkpt lat="43.1715652" lon="-8.350566"><ele>451.0</ele><time>2026-04-05T08:52:06.602Z</time></trkpt><trkpt lat="43.171695" lon="-8.3507368"><ele>449.6666666666667</ele><time>2026-04-05T08:52:07.603Z</time></trkpt><trkpt lat="43.1718182" lon="-8.3509204"><ele>448.33333333333337</ele><time>2026-04-05T08:52:08.602Z</time></trkpt><trkpt lat="43.1719133" lon="-8.3511542"><ele>447.0</ele><time>2026-04-05T08:52:09.602Z</time></trkpt><trkpt lat="43.1720042" lon="-8.3513982"><ele>446.0</ele><time>2026-04-05T08:52:10.603Z</time></trkpt><trkpt lat="43.1720854" lon="-8.3516621"><ele>445.0</ele><time>2026-04-05T08:52:11.602Z</time></trkpt><trkpt lat="43.1721666" lon="-8.3519275"><ele>444.0</ele><time>2026-04-05T08:52:12.603Z</time></trkpt><trkpt lat="43.1722456" lon="-8.3521955"><ele>443.66666666666663</ele><time>2026-04-05T08:52:13.603Z</time></trkpt><trkpt lat="43.1723314" lon="-8.3524703"><ele>443.3333333333333</ele><time>2026-04-05T08:52:14.603Z</time></trkpt><trkpt lat="43.172414" lon="-8.352744"><ele>443.0</ele><time>2026-04-05T08:52:15.602Z</time></trkpt><trkpt lat="43.1724966" lon="-8.3530185"><ele>442.3333333333333</ele><time>2026-04-05T08:52:16.602Z</time></trkpt><trkpt lat="43.1725823" lon="-8.3532936"><ele>441.66666666666663</ele><time>2026-04-05T08:52:17.603Z</time></trkpt><trkpt lat="43.1726671" lon="-8.3535523"><ele>441.0</ele><time>2026-04-05T08:52:18.603Z</time></trkpt><trkpt lat="43.1727751" lon="-8.3537963"><ele>439.33333333333337</ele><time>2026-04-05T08:52:19.603Z</time></trkpt><trkpt lat="43.1729067" lon="-8.3540219"><ele>437.6666666666667</ele><time>2026-04-05T08:52:20.602Z</time></trkpt><trkpt lat="43.1730581" lon="-8.354234"><ele>436.0</ele><time>2026-04-05T08:52:21.603Z</time></trkpt><trkpt lat="43.1732147" lon="-8.354446"><ele>436.0</ele><time>2026-04-05T08:52:22.603Z</time></trkpt><trkpt lat="43.1733716" lon="-8.3546543"><ele>436.0</ele><time>2026-04-05T08:52:23.603Z</time></trkpt><trkpt lat="43.1735282" lon="-8.3548686"><ele>436.0</ele><time>2026-04-05T08:52:24.602Z</time></trkpt><trkpt lat="43.1736838" lon="-8.3550866"><ele>435.5</ele><time>2026-04-05T08:52:25.603Z</time></trkpt><trkpt lat="43.1738449" lon="-8.3553088"><ele>435.0</ele><time>2026-04-05T08:52:26.603Z</time></trkpt><trkpt lat="43.174004" lon="-8.3555279"><ele>432.66666666666663</ele><time>2026-04-05T08:52:27.603Z</time></trkpt><trkpt lat="43.1741584" lon="-8.3557423"><ele>430.3333333333333</ele><time>2026-04-05T08:52:28.603Z</time></trkpt><trkpt lat="43.1743089" lon="-8.355956"><ele>428.0</ele><time>2026-04-05T08:52:29.603Z</time></trkpt><trkpt lat="43.1744531" lon="-8.3561638"><ele>428.0</ele><time>2026-04-05T08:52:30.603Z</time></trkpt><trkpt lat="43.1746068" lon="-8.356347"><ele>428.0</ele><time>2026-04-05T08:52:31.603Z</time></trkpt><trkpt lat="43.1747803" lon="-8.3564982"><ele>428.0</ele><time>2026-04-05T08:52:32.602Z</time></trkpt><trkpt lat="43.1749754" lon="-8.3566225"><ele>424.0</ele><time>2026-04-05T08:52:33.602Z</time></trkpt><trkpt lat="43.1751764" lon="-8.3567296"><ele>420.0</ele><time>2026-04-05T08:52:34.603Z</time></trkpt><trkpt lat="43.1753714" lon="-8.3568321"><ele>416.0</ele><time>2026-04-05T08:52:35.602Z</time></trkpt><trkpt lat="43.1755587" lon="-8.3569406"><ele>415.66666666666663</ele><time>2026-04-05T08:52:36.603Z</time></trkpt><trkpt lat="43.1757326" lon="-8.3570757"><ele>415.33333333333337</ele><time>2026-04-05T08:52:37.603Z</time></trkpt><trkpt lat="43.1758875" lon="-8.35725"><ele>415.0</ele><time>2026-04-05T08:52:38.603Z</time></trkpt><trkpt lat="43.1760272" lon="-8.3574488"><ele>412.33333333333337</ele><time>2026-04-05T08:52:39.603Z</time></trkpt><trkpt lat="43.1761509" lon="-8.3576652"><ele>409.66666666666663</ele><time>2026-04-05T08:52:40.603Z</time></trkpt><trkpt lat="43.1762661" lon="-8.3578753"><ele>407.0</ele><time>2026-04-05T08:52:41.603Z</time></trkpt><trkpt lat="43.1763844" lon="-8.3580758"><ele>404.3333333333333</ele><time>2026-04-05T08:52:42.603Z</time></trkpt><trkpt lat="43.1765138" lon="-8.3582449"><ele>401.66666666666663</ele><time>2026-04-05T08:52:43.603Z</time></trkpt><trkpt lat="43.1766507" lon="-8.3584049"><ele>399.0</ele><time>2026-04-05T08:52:44.603Z</time></trkpt><trkpt lat="43.1768096" lon="-8.3585272"><ele>398.0</ele><time>2026-04-05T08:52:45.603Z</time></trkpt><trkpt lat="43.1770129" lon="-8.358578"><ele>397.0</ele><time>2026-04-05T08:52:46.603Z</time></trkpt><trkpt lat="43.1771991" lon="-8.3586372"><ele>396.0</ele><time>2026-04-05T08:52:47.603Z</time></trkpt><trkpt lat="43.1773985" lon="-8.3586269"><ele>393.66666666666663</ele><time>2026-04-05T08:52:48.603Z</time></trkpt><trkpt lat="43.1775873" lon="-8.3585886"><ele>391.3333333333333</ele><time>2026-04-05T08:52:49.603Z</time></trkpt><trkpt lat="43.1777783" lon="-8.3585351"><ele>389.0</ele><time>2026-04-05T08:52:50.603Z</time></trkpt><trkpt lat="43.1779635" lon="-8.3584669"><ele>389.0</ele><time>2026-04-05T08:52:51.602Z</time></trkpt><trkpt lat="43.1781538" lon="-8.3584458"><ele>389.0</ele><time>2026-04-05T08:52:52.603Z</time></trkpt><trkpt lat="43.1783396" lon="-8.358462"><ele>389.0</ele><time>2026-04-05T08:52:53.603Z</time></trkpt><trkpt lat="43.1785128" lon="-8.3585668"><ele>387.0</ele><time>2026-04-05T08:52:54.603Z</time></trkpt><trkpt lat="43.1786584" lon="-8.3587178"><ele>385.0</ele><time>2026-04-05T08:52:55.603Z</time></trkpt><trkpt lat="43.1787945" lon="-8.3588666"><ele>383.0</ele><time>2026-04-05T08:52:56.603Z</time></trkpt><trkpt lat="43.178946" lon="-8.3589736"><ele>382.0</ele><time>2026-04-05T08:52:57.603Z</time></trkpt><trkpt lat="43.1791241" lon="-8.3590429"><ele>381.0</ele><time>2026-04-05T08:52:58.602Z</time></trkpt><trkpt lat="43.1793144" lon="-8.3590922"><ele>380.0</ele><time>2026-04-05T08:52:59.603Z</time></trkpt><trkpt lat="43.1795179" lon="-8.3591281"><ele>380.0</ele><time>2026-04-05T08:53:00.603Z</time></trkpt><trkpt lat="43.1797098" lon="-8.3591654"><ele>380.0</ele><time>2026-04-05T08:53:01.603Z</time></trkpt><trkpt lat="43.1798846" lon="-8.3592418"><ele>380.0</ele><time>2026-04-05T08:53:02.602Z</time></trkpt><trkpt lat="43.1800479" lon="-8.3593464"><ele>381.0</ele><time>2026-04-05T08:53:03.603Z</time></trkpt><trkpt lat="43.1802089" lon="-8.3594851"><ele>382.0</ele><time>2026-04-05T08:53:04.602Z</time></trkpt><trkpt lat="43.180365" lon="-8.3596492"><ele>383.0</ele><time>2026-04-05T08:53:05.603Z</time></trkpt><trkpt lat="43.1805277" lon="-8.3598243"><ele>380.33333333333337</ele><time>2026-04-05T08:53:06.603Z</time></trkpt><trkpt lat="43.1806971" lon="-8.3600031"><ele>377.6666666666667</ele><time>2026-04-05T08:53:07.603Z</time></trkpt><trkpt lat="43.1808619" lon="-8.3601813"><ele>375.0</ele><time>2026-04-05T08:53:08.603Z</time></trkpt><trkpt lat="43.1810269" lon="-8.3603398"><ele>375.0</ele><time>2026-04-05T08:53:09.602Z</time></trkpt><trkpt lat="43.1811966" lon="-8.3604779"><ele>375.0</ele><time>2026-04-05T08:53:10.603Z</time></trkpt><trkpt lat="43.1813722" lon="-8.3605959"><ele>375.0</ele><time>2026-04-05T08:53:11.603Z</time></trkpt><trkpt lat="43.1815429" lon="-8.3607022"><ele>373.6666666666667</ele><time>2026-04-05T08:53:12.602Z</time></trkpt><trkpt lat="43.18171" lon="-8.3608077"><ele>372.33333333333337</ele><time>2026-04-05T08:53:13.602Z</time></trkpt><trkpt lat="43.1818782" lon="-8.3609003"><ele>371.0</ele><time>2026-04-05T08:53:14.603Z</time></trkpt><trkpt lat="43.1820483" lon="-8.3609567"><ele>371.0</ele><time>2026-04-05T08:53:15.603Z</time></trkpt><trkpt lat="43.1822221" lon="-8.3609689"><ele>371.0</ele><time>2026-04-05T08:53:16.602Z</time></trkpt><trkpt lat="43.1823964" lon="-8.3609601"><ele>371.0</ele><time>2026-04-05T08:53:17.603Z</time></trkpt><trkpt lat="43.1825643" lon="-8.3609485"><ele>370.33333333333337</ele><time>2026-04-05T08:53:18.602Z</time></trkpt><trkpt lat="43.1827303" lon="-8.3609495"><ele>369.6666666666667</ele><time>2026-04-05T08:53:19.603Z</time></trkpt><trkpt lat="43.1828821" lon="-8.360989"><ele>369.0</ele><time>2026-04-05T08:53:20.602Z</time></trkpt><trkpt lat="43.1830389" lon="-8.361071"><ele>369.0</ele><time>2026-04-05T08:53:21.603Z</time></trkpt><trkpt lat="43.1831381" lon="-8.3612459"><ele>369.0</ele><time>2026-04-05T08:53:22.603Z</time></trkpt><trkpt lat="43.1832246" lon="-8.3614391"><ele>369.0</ele><time>2026-04-05T08:53:23.603Z</time></trkpt><trkpt lat="43.1832749" lon="-8.36166"><ele>363.6666666666667</ele><time>2026-04-05T08:53:24.603Z</time></trkpt><trkpt lat="43.1832943" lon="-8.3619067"><ele>358.33333333333337</ele><time>2026-04-05T08:53:25.603Z</time></trkpt><trkpt lat="43.1832881" lon="-8.362166"><ele>353.0</ele><time>2026-04-05T08:53:26.603Z</time></trkpt><trkpt lat="43.1832675" lon="-8.3624385"><ele>351.0</ele><time>2026-04-05T08:53:27.602Z</time></trkpt><trkpt lat="43.1832206" lon="-8.3627096"><ele>349.0</ele><time>2026-04-05T08:53:28.603Z</time></trkpt><trkpt lat="43.1831437" lon="-8.3629629"><ele>347.0</ele><time>2026-04-05T08:53:29.602Z</time></trkpt><trkpt lat="43.1830724" lon="-8.3632169"><ele>343.6666666666667</ele><time>2026-04-05T08:53:30.602Z</time></trkpt><trkpt lat="43.182961" lon="-8.3634544"><ele>340.3333333333333</ele><time>2026-04-05T08:53:31.603Z</time></trkpt><trkpt lat="43.1828358" lon="-8.3636482"><ele>337.0</ele><time>2026-04-05T08:53:32.603Z</time></trkpt><trkpt lat="43.1826621" lon="-8.3638721"><ele>334.0</ele><time>2026-04-05T08:53:33.603Z</time></trkpt><trkpt lat="43.1824726" lon="-8.3640267"><ele>331.0</ele><time>2026-04-05T08:53:34.602Z</time></trkpt><trkpt lat="43.1823165" lon="-8.3642174"><ele>328.0</ele><time>2026-04-05T08:53:35.603Z</time></trkpt><trkpt lat="43.1821802" lon="-8.3644243"><ele>328.0</ele><time>2026-04-05T08:53:36.603Z</time></trkpt><trkpt lat="43.1820871" lon="-8.3646494"><ele>328.0</ele><time>2026-04-05T08:53:37.603Z</time></trkpt><trkpt lat="43.1820226" lon="-8.3648871"><ele>328.0</ele><time>2026-04-05T08:53:38.603Z</time></trkpt><trkpt lat="43.1819693" lon="-8.3651187"><ele>324.66666666666663</ele><time>2026-04-05T08:53:39.603Z</time></trkpt><trkpt lat="43.1819115" lon="-8.3653381"><ele>321.3333333333333</ele><time>2026-04-05T08:53:40.603Z</time></trkpt><trkpt lat="43.1818325" lon="-8.3655253"><ele>318.0</ele><time>2026-04-05T08:53:41.603Z</time></trkpt><trkpt lat="43.1817465" lon="-8.3656938"><ele>317.5</ele><time>2026-04-05T08:53:42.603Z</time></trkpt><trkpt lat="43.1816512" lon="-8.3658422"><ele>317.0</ele><time>2026-04-05T08:53:43.603Z</time></trkpt><trkpt lat="43.1815637" lon="-8.365972"><ele>316.5</ele><time>2026-04-05T08:53:44.603Z</time></trkpt><trkpt lat="43.1815048" lon="-8.3660887"><ele>316.0</ele><time>2026-04-05T08:53:45.603Z</time></trkpt><trkpt lat="43.1814869" lon="-8.3661941"><ele>316.0</ele><time>2026-04-05T08:53:46.603Z</time></trkpt><trkpt lat="43.1815065" lon="-8.3662817"><ele>316.0</ele><time>2026-04-05T08:53:47.603Z</time></trkpt><trkpt lat="43.1815581" lon="-8.3663423"><ele>316.0</ele><time>2026-04-05T08:53:48.602Z</time></trkpt><trkpt lat="43.1817146" lon="-8.3664566"><ele>316.0</ele><time>2026-04-05T08:53:50.602Z</time></trkpt><trkpt lat="43.1818241" lon="-8.3665259"><ele>316.0</ele><time>2026-04-05T08:53:51.602Z</time></trkpt><trkpt lat="43.1819353" lon="-8.3665953"><ele>312.66666666666663</ele><time>2026-04-05T08:53:52.602Z</time></trkpt><trkpt lat="43.1820578" lon="-8.3666419"><ele>309.3333333333333</ele><time>2026-04-05T08:53:53.603Z</time></trkpt><trkpt lat="43.1821882" lon="-8.3666663"><ele>306.0</ele><time>2026-04-05T08:53:54.603Z</time></trkpt><trkpt lat="43.1824004" lon="-8.3666073"><ele>306.0</ele><time>2026-04-05T08:53:55.603Z</time></trkpt><trkpt lat="43.1825755" lon="-8.3665259"><ele>306.0</ele><time>2026-04-05T08:53:56.603Z</time></trkpt><trkpt lat="43.1827547" lon="-8.3664334"><ele>306.0</ele><time>2026-04-05T08:53:57.603Z</time></trkpt><trkpt lat="43.1829272" lon="-8.3663321"><ele>304.3333333333333</ele><time>2026-04-05T08:53:58.602Z</time></trkpt><trkpt lat="43.1831001" lon="-8.366215"><ele>302.66666666666663</ele><time>2026-04-05T08:53:59.603Z</time></trkpt><trkpt lat="43.1832742" lon="-8.3660946"><ele>301.0</ele><time>2026-04-05T08:54:00.603Z</time></trkpt><trkpt lat="43.1834551" lon="-8.365976"><ele>301.0</ele><time>2026-04-05T08:54:01.603Z</time></trkpt><trkpt lat="43.1836318" lon="-8.3658597"><ele>301.0</ele><time>2026-04-05T08:54:02.602Z</time></trkpt><trkpt lat="43.1838159" lon="-8.3657631"><ele>301.0</ele><time>2026-04-05T08:54:03.602Z</time></trkpt><trkpt lat="43.1840102" lon="-8.3657032"><ele>294.66666666666663</ele><time>2026-04-05T08:54:04.602Z</time></trkpt><trkpt lat="43.184203" lon="-8.3656856"><ele>288.3333333333333</ele><time>2026-04-05T08:54:05.603Z</time></trkpt><trkpt lat="43.1844029" lon="-8.3657248"><ele>282.0</ele><time>2026-04-05T08:54:06.603Z</time></trkpt><trkpt lat="43.184598" lon="-8.3658019"><ele>282.0</ele><time>2026-04-05T08:54:07.602Z</time></trkpt><trkpt lat="43.18478" lon="-8.3659189"><ele>282.0</ele><time>2026-04-05T08:54:08.603Z</time></trkpt><trkpt lat="43.1849538" lon="-8.3660695"><ele>282.0</ele><time>2026-04-05T08:54:09.602Z</time></trkpt><trkpt lat="43.1851229" lon="-8.3662435"><ele>278.6666666666667</ele><time>2026-04-05T08:54:10.603Z</time></trkpt><trkpt lat="43.1852906" lon="-8.3664176"><ele>275.33333333333337</ele><time>2026-04-05T08:54:11.603Z</time></trkpt><trkpt lat="43.1854618" lon="-8.366588"><ele>272.0</ele><time>2026-04-05T08:54:12.603Z</time></trkpt><trkpt lat="43.1856425" lon="-8.3667506"><ele>276.6666666666667</ele><time>2026-04-05T08:54:13.603Z</time></trkpt><trkpt lat="43.1858261" lon="-8.3668997"><ele>281.3333333333333</ele><time>2026-04-05T08:54:14.603Z</time></trkpt><trkpt lat="43.186018" lon="-8.3670325"><ele>286.0</ele><time>2026-04-05T08:54:15.602Z</time></trkpt><trkpt lat="43.1862179" lon="-8.3671351"><ele>280.3333333333333</ele><time>2026-04-05T08:54:16.603Z</time></trkpt><trkpt lat="43.186429" lon="-8.3672093"><ele>274.6666666666667</ele><time>2026-04-05T08:54:17.603Z</time></trkpt><trkpt lat="43.186646" lon="-8.367263"><ele>269.0</ele><time>2026-04-05T08:54:18.603Z</time></trkpt><trkpt lat="43.186864" lon="-8.3672816"><ele>268.0</ele><time>2026-04-05T08:54:19.603Z</time></trkpt><trkpt lat="43.1870838" lon="-8.3672737"><ele>267.0</ele><time>2026-04-05T08:54:20.603Z</time></trkpt><trkpt lat="43.1872971" lon="-8.3672234"><ele>266.0</ele><time>2026-04-05T08:54:21.603Z</time></trkpt><trkpt lat="43.1875104" lon="-8.3671453"><ele>268.0</ele><time>2026-04-05T08:54:22.603Z</time></trkpt><trkpt lat="43.1877182" lon="-8.367051"><ele>270.0</ele><time>2026-04-05T08:54:23.603Z</time></trkpt><trkpt lat="43.1879159" lon="-8.3669218"><ele>272.0</ele><time>2026-04-05T08:54:24.602Z</time></trkpt><trkpt lat="43.1881057" lon="-8.3667767"><ele>269.6666666666667</ele><time>2026-04-05T08:54:25.603Z</time></trkpt><trkpt lat="43.1882844" lon="-8.3666084"><ele>267.3333333333333</ele><time>2026-04-05T08:54:26.602Z</time></trkpt><trkpt lat="43.1884498" lon="-8.3664158"><ele>265.0</ele><time>2026-04-05T08:54:27.602Z</time></trkpt><trkpt lat="43.1886042" lon="-8.3662103"><ele>265.0</ele><time>2026-04-05T08:54:28.603Z</time></trkpt><trkpt lat="43.1887571" lon="-8.3659955"><ele>265.0</ele><time>2026-04-05T08:54:29.603Z</time></trkpt><trkpt lat="43.1889107" lon="-8.3657778"><ele>265.0</ele><time>2026-04-05T08:54:30.603Z</time></trkpt><trkpt lat="43.189063" lon="-8.3655594"><ele>262.66666666666663</ele><time>2026-04-05T08:54:31.603Z</time></trkpt><trkpt lat="43.1892237" lon="-8.3653531"><ele>260.3333333333333</ele><time>2026-04-05T08:54:32.603Z</time></trkpt><trkpt lat="43.1893945" lon="-8.3651651"><ele>258.0</ele><time>2026-04-05T08:54:33.603Z</time></trkpt><trkpt lat="43.1895806" lon="-8.3650009"><ele>258.0</ele><time>2026-04-05T08:54:34.603Z</time></trkpt><trkpt lat="43.1897782" lon="-8.3648709"><ele>258.0</ele><time>2026-04-05T08:54:35.603Z</time></trkpt><trkpt lat="43.1899868" lon="-8.3647762"><ele>258.0</ele><time>2026-04-05T08:54:36.602Z</time></trkpt><trkpt lat="43.1901974" lon="-8.3646997"><ele>256.6666666666667</ele><time>2026-04-05T08:54:37.603Z</time></trkpt><trkpt lat="43.1904124" lon="-8.3646184"><ele>255.33333333333334</ele><time>2026-04-05T08:54:38.603Z</time></trkpt><trkpt lat="43.1906263" lon="-8.3645316"><ele>254.0</ele><time>2026-04-05T08:54:39.602Z</time></trkpt><trkpt lat="43.1908334" lon="-8.3644275"><ele>248.66666666666669</ele><time>2026-04-05T08:54:40.603Z</time></trkpt><trkpt lat="43.1910296" lon="-8.3643005"><ele>243.33333333333331</ele><time>2026-04-05T08:54:41.603Z</time></trkpt><trkpt lat="43.1912064" lon="-8.3641424"><ele>238.0</ele><time>2026-04-05T08:54:42.603Z</time></trkpt><trkpt lat="43.1913607" lon="-8.3639472"><ele>242.0</ele><time>2026-04-05T08:54:43.603Z</time></trkpt><trkpt lat="43.1914952" lon="-8.3637261"><ele>246.0</ele><time>2026-04-05T08:54:44.602Z</time></trkpt><trkpt lat="43.1916088" lon="-8.3634829"><ele>250.0</ele><time>2026-04-05T08:54:45.603Z</time></trkpt><trkpt lat="43.1917117" lon="-8.3632271"><ele>245.33333333333331</ele><time>2026-04-05T08:54:46.602Z</time></trkpt><trkpt lat="43.1918137" lon="-8.3629675"><ele>240.66666666666669</ele><time>2026-04-05T08:54:47.602Z</time></trkpt><trkpt lat="43.191919" lon="-8.3627069"><ele>236.0</ele><time>2026-04-05T08:54:48.603Z</time></trkpt><trkpt lat="43.1920296" lon="-8.362441"><ele>239.0</ele><time>2026-04-05T08:54:49.603Z</time></trkpt><trkpt lat="43.1921355" lon="-8.3621801"><ele>242.0</ele><time>2026-04-05T08:54:50.603Z</time></trkpt><trkpt lat="43.1922402" lon="-8.3619254"><ele>245.0</ele><time>2026-04-05T08:54:51.602Z</time></trkpt><trkpt lat="43.1923461" lon="-8.3616745"><ele>238.66666666666669</ele><time>2026-04-05T08:54:52.603Z</time></trkpt><trkpt lat="43.1924587" lon="-8.361432"><ele>232.33333333333331</ele><time>2026-04-05T08:54:53.603Z</time></trkpt><trkpt lat="43.1925826" lon="-8.3612012"><ele>226.0</ele><time>2026-04-05T08:54:54.603Z</time></trkpt><trkpt lat="43.1927183" lon="-8.3609893"><ele>226.0</ele><time>2026-04-05T08:54:55.603Z</time></trkpt><trkpt lat="43.1928793" lon="-8.360793"><ele>226.0</ele><time>2026-04-05T08:54:56.602Z</time></trkpt><trkpt lat="43.1930466" lon="-8.3606172"><ele>226.0</ele><time>2026-04-05T08:54:57.603Z</time></trkpt><trkpt lat="43.1932284" lon="-8.3604674"><ele>224.0</ele><time>2026-04-05T08:54:58.603Z</time></trkpt><trkpt lat="43.1934212" lon="-8.3603409"><ele>222.0</ele><time>2026-04-05T08:54:59.602Z</time></trkpt><trkpt lat="43.1936175" lon="-8.3602384"><ele>220.0</ele><time>2026-04-05T08:55:00.603Z</time></trkpt><trkpt lat="43.1938139" lon="-8.3601409"><ele>214.33333333333331</ele><time>2026-04-05T08:55:01.602Z</time></trkpt><trkpt lat="43.1940185" lon="-8.3600862"><ele>208.66666666666669</ele><time>2026-04-05T08:55:02.602Z</time></trkpt><trkpt lat="43.1942196" lon="-8.3600386"><ele>203.0</ele><time>2026-04-05T08:55:03.602Z</time></trkpt><trkpt lat="43.1944097" lon="-8.3600118"><ele>203.0</ele><time>2026-04-05T08:55:04.603Z</time></trkpt><trkpt lat="43.1945838" lon="-8.3600162"><ele>203.0</ele><time>2026-04-05T08:55:05.603Z</time></trkpt><trkpt lat="43.1947411" lon="-8.3600393"><ele>203.0</ele><time>2026-04-05T08:55:06.602Z</time></trkpt><trkpt lat="43.1948955" lon="-8.3600765"><ele>200.0</ele><time>2026-04-05T08:55:07.603Z</time></trkpt><trkpt lat="43.1950557" lon="-8.3601255"><ele>197.0</ele><time>2026-04-05T08:55:08.603Z</time></trkpt><trkpt lat="43.1952193" lon="-8.3601724"><ele>194.0</ele><time>2026-04-05T08:55:09.602Z</time></trkpt><trkpt lat="43.1953914" lon="-8.3602133"><ele>194.0</ele><time>2026-04-05T08:55:10.602Z</time></trkpt><trkpt lat="43.1955693" lon="-8.3602485"><ele>194.0</ele><time>2026-04-05T08:55:11.602Z</time></trkpt><trkpt lat="43.1957574" lon="-8.3602734"><ele>194.0</ele><time>2026-04-05T08:55:12.603Z</time></trkpt><trkpt lat="43.195956" lon="-8.3602755"><ele>194.0</ele><time>2026-04-05T08:55:13.603Z</time></trkpt><trkpt lat="43.196161" lon="-8.3602507"><ele>194.0</ele><time>2026-04-05T08:55:14.603Z</time></trkpt><trkpt lat="43.1963688" lon="-8.3602095"><ele>194.0</ele><time>2026-04-05T08:55:15.603Z</time></trkpt><trkpt lat="43.1965791" lon="-8.3601561"><ele>192.66666666666669</ele><time>2026-04-05T08:55:16.602Z</time></trkpt><trkpt lat="43.1967918" lon="-8.3600993"><ele>191.33333333333334</ele><time>2026-04-05T08:55:17.603Z</time></trkpt><trkpt lat="43.1970064" lon="-8.3600392"><ele>190.0</ele><time>2026-04-05T08:55:18.603Z</time></trkpt><trkpt lat="43.1972201" lon="-8.3599826"><ele>187.0</ele><time>2026-04-05T08:55:19.603Z</time></trkpt><trkpt lat="43.1974327" lon="-8.3599316"><ele>184.0</ele><time>2026-04-05T08:55:20.603Z</time></trkpt><trkpt lat="43.197637" lon="-8.3598838"><ele>181.0</ele><time>2026-04-05T08:55:21.602Z</time></trkpt><trkpt lat="43.1978498" lon="-8.3598611"><ele>181.0</ele><time>2026-04-05T08:55:22.603Z</time></trkpt><trkpt lat="43.1980517" lon="-8.3598437"><ele>181.0</ele><time>2026-04-05T08:55:23.603Z</time></trkpt><trkpt lat="43.1982446" lon="-8.3598406"><ele>181.0</ele><time>2026-04-05T08:55:24.603Z</time></trkpt><trkpt lat="43.1984388" lon="-8.3598554"><ele>178.0</ele><time>2026-04-05T08:55:25.602Z</time></trkpt><trkpt lat="43.1986379" lon="-8.359878"><ele>175.0</ele><time>2026-04-05T08:55:26.602Z</time></trkpt><trkpt lat="43.1988321" lon="-8.3599015"><ele>172.0</ele><time>2026-04-05T08:55:27.603Z</time></trkpt><trkpt lat="43.1990088" lon="-8.3599429"><ele>169.66666666666669</ele><time>2026-04-05T08:55:28.602Z</time></trkpt><trkpt lat="43.1991852" lon="-8.3599836"><ele>167.33333333333334</ele><time>2026-04-05T08:55:29.603Z</time></trkpt><trkpt lat="43.1993581" lon="-8.3600148"><ele>165.0</ele><time>2026-04-05T08:55:30.602Z</time></trkpt><trkpt lat="43.1995215" lon="-8.3600452"><ele>165.0</ele><time>2026-04-05T08:55:31.602Z</time></trkpt><trkpt lat="43.199675" lon="-8.3600692"><ele>165.0</ele><time>2026-04-05T08:55:32.602Z</time></trkpt><trkpt lat="43.1998103" lon="-8.360087"><ele>165.0</ele><time>2026-04-05T08:55:33.603Z</time></trkpt><trkpt lat="43.199929" lon="-8.3600879"><ele>165.0</ele><time>2026-04-05T08:55:34.603Z</time></trkpt><trkpt lat="43.2000214" lon="-8.3600829"><ele>164.0</ele><time>2026-04-05T08:55:35.603Z</time></trkpt><trkpt lat="43.2000924" lon="-8.3600915"><ele>163.0</ele><time>2026-04-05T08:55:36.603Z</time></trkpt><trkpt lat="43.2001722" lon="-8.3602024"><ele>162.0</ele><time>2026-04-05T08:55:38.602Z</time></trkpt><trkpt lat="43.2001771" lon="-8.3603874"><ele>161.0</ele><time>2026-04-05T08:55:40.602Z</time></trkpt><trkpt lat="43.2001546" lon="-8.3604985"><ele>160.0</ele><time>2026-04-05T08:55:41.603Z</time></trkpt><trkpt lat="43.2001031" lon="-8.3606031"><ele>157.75</ele><time>2026-04-05T08:55:42.603Z</time></trkpt><trkpt lat="43.2000229" lon="-8.3606877"><ele>155.5</ele><time>2026-04-05T08:55:43.603Z</time></trkpt><trkpt lat="43.1999172" lon="-8.3607322"><ele>153.25</ele><time>2026-04-05T08:55:44.602Z</time></trkpt><trkpt lat="43.1998097" lon="-8.3607762"><ele>151.0</ele><time>2026-04-05T08:55:45.603Z</time></trkpt><trkpt lat="43.1996741" lon="-8.3606874"><ele>151.0</ele><time>2026-04-05T08:55:46.603Z</time></trkpt><trkpt lat="43.1995562" lon="-8.3605963"><ele>151.0</ele><time>2026-04-05T08:55:47.602Z</time></trkpt><trkpt lat="43.1994374" lon="-8.3604891"><ele>151.0</ele><time>2026-04-05T08:55:48.603Z</time></trkpt><trkpt lat="43.1992995" lon="-8.360399"><ele>151.0</ele><time>2026-04-05T08:55:49.602Z</time></trkpt><trkpt lat="43.1991514" lon="-8.3603326"><ele>158.0</ele><time>2026-04-05T08:55:50.602Z</time></trkpt><trkpt lat="43.1989933" lon="-8.3602784"><ele>165.0</ele><time>2026-04-05T08:55:51.602Z</time></trkpt><trkpt lat="43.1988185" lon="-8.3602844"><ele>172.0</ele><time>2026-04-05T08:55:52.602Z</time></trkpt><trkpt lat="43.1986526" lon="-8.3603212"><ele>172.0</ele><time>2026-04-05T08:55:53.602Z</time></trkpt><trkpt lat="43.1984916" lon="-8.3603758"><ele>172.0</ele><time>2026-04-05T08:55:54.602Z</time></trkpt><trkpt lat="43.1983368" lon="-8.360474"><ele>172.0</ele><time>2026-04-05T08:55:55.603Z</time></trkpt><trkpt lat="43.1981831" lon="-8.3605727"><ele>171.33333333333334</ele><time>2026-04-05T08:55:56.603Z</time></trkpt><trkpt lat="43.1980361" lon="-8.360661"><ele>170.66666666666666</ele><time>2026-04-05T08:55:57.603Z</time></trkpt><trkpt lat="43.1978942" lon="-8.3607584"><ele>170.0</ele><time>2026-04-05T08:55:58.603Z</time></trkpt><trkpt lat="43.1977605" lon="-8.3608308"><ele>170.0</ele><time>2026-04-05T08:55:59.603Z</time></trkpt><trkpt lat="43.1976298" lon="-8.3608964"><ele>170.0</ele><time>2026-04-05T08:56:00.603Z</time></trkpt><trkpt lat="43.1974861" lon="-8.3609353"><ele>170.0</ele><time>2026-04-05T08:56:01.603Z</time></trkpt><trkpt lat="43.1973375" lon="-8.3609405"><ele>170.0</ele><time>2026-04-05T08:56:02.603Z</time></trkpt><trkpt lat="43.197183" lon="-8.3609266"><ele>171.75</ele><time>2026-04-05T08:56:03.602Z</time></trkpt><trkpt lat="43.1970332" lon="-8.3609068"><ele>173.5</ele><time>2026-04-05T08:56:04.603Z</time></trkpt><trkpt lat="43.1968923" lon="-8.3608981"><ele>175.25</ele><time>2026-04-05T08:56:05.603Z</time></trkpt><trkpt lat="43.196782" lon="-8.3609101"><ele>177.0</ele><time>2026-04-05T08:56:06.603Z</time></trkpt><trkpt lat="43.196703" lon="-8.3609455"><ele>177.0</ele><time>2026-04-05T08:56:07.602Z</time></trkpt><trkpt lat="43.1966404" lon="-8.3609791"><ele>177.0</ele><time>2026-04-05T08:56:08.603Z</time></trkpt><trkpt lat="43.1965378" lon="-8.3610458"><ele>177.0</ele><time>2026-04-05T08:56:10.602Z</time></trkpt><trkpt lat="43.196494" lon="-8.3611154"><ele>177.0</ele><time>2026-04-05T08:56:11.603Z</time></trkpt><trkpt lat="43.196447" lon="-8.361196"><ele>177.0</ele><time>2026-04-05T08:56:12.603Z</time></trkpt><trkpt lat="43.1964026" lon="-8.3612845"><ele>177.0</ele><time>2026-04-05T08:56:13.603Z</time></trkpt><trkpt lat="43.1963241" lon="-8.3613429"><ele>173.25</ele><time>2026-04-05T08:56:14.602Z</time></trkpt><trkpt lat="43.1962249" lon="-8.3613959"><ele>169.5</ele><time>2026-04-05T08:56:15.603Z</time></trkpt><trkpt lat="43.1961117" lon="-8.361458"><ele>165.75</ele><time>2026-04-05T08:56:16.603Z</time></trkpt><trkpt lat="43.1960005" lon="-8.361525"><ele>162.0</ele><time>2026-04-05T08:56:17.602Z</time></trkpt><trkpt lat="43.1958942" lon="-8.3615895"><ele>162.0</ele><time>2026-04-05T08:56:18.603Z</time></trkpt><trkpt lat="43.1957903" lon="-8.3616425"><ele>162.0</ele><time>2026-04-05T08:56:19.603Z</time></trkpt><trkpt lat="43.1956934" lon="-8.3616922"><ele>162.0</ele><time>2026-04-05T08:56:20.603Z</time></trkpt><trkpt lat="43.1956053" lon="-8.3617347"><ele>162.0</ele><time>2026-04-05T08:56:21.603Z</time></trkpt><trkpt lat="43.1955381" lon="-8.3617693"><ele>162.0</ele><time>2026-04-05T08:56:22.602Z</time></trkpt><trkpt lat="43.1954888" lon="-8.3618963"><ele>162.0</ele><time>2026-04-05T08:56:24.602Z</time></trkpt><trkpt lat="43.1955712" lon="-8.3619601"><ele>162.0</ele><time>2026-04-05T08:56:26.603Z</time></trkpt><trkpt lat="43.1956435" lon="-8.361964"><ele>162.0</ele><time>2026-04-05T08:56:27.603Z</time></trkpt><trkpt lat="43.1957187" lon="-8.3619729"><ele>162.0</ele><time>2026-04-05T08:56:28.602Z</time></trkpt><trkpt lat="43.1957826" lon="-8.3620055"><ele>162.0</ele><time>2026-04-05T08:56:29.603Z</time></trkpt><trkpt lat="43.1958259" lon="-8.3620691"><ele>162.0</ele><time>2026-04-05T08:56:30.603Z</time></trkpt><trkpt lat="43.1958674" lon="-8.3621354"><ele>162.0</ele><time>2026-04-05T08:56:31.603Z</time></trkpt><trkpt lat="43.195928" lon="-8.3621936"><ele>158.79999999999998</ele><time>2026-04-05T08:56:32.603Z</time></trkpt><trkpt lat="43.1960205" lon="-8.3622207"><ele>155.6</ele><time>2026-04-05T08:56:33.603Z</time></trkpt><trkpt lat="43.1961205" lon="-8.3622527"><ele>152.39999999999998</ele><time>2026-04-05T08:56:34.603Z</time></trkpt><trkpt lat="43.1962199" lon="-8.3623089"><ele>149.2</ele><time>2026-04-05T08:56:35.602Z</time></trkpt><trkpt lat="43.1963156" lon="-8.3623824"><ele>146.0</ele><time>2026-04-05T08:56:36.603Z</time></trkpt><trkpt lat="43.1964062" lon="-8.3624483"><ele>146.0</ele><time>2026-04-05T08:56:37.603Z</time></trkpt><trkpt lat="43.1964936" lon="-8.3625165"><ele>146.0</ele><time>2026-04-05T08:56:38.603Z</time></trkpt><trkpt lat="43.1965723" lon="-8.3625704"><ele>146.0</ele><time>2026-04-05T08:56:39.603Z</time></trkpt><trkpt lat="43.1966392" lon="-8.3626051"><ele>146.0</ele><time>2026-04-05T08:56:40.603Z</time></trkpt><trkpt lat="43.196714" lon="-8.362674"><ele>146.0</ele><time>2026-04-05T08:56:42.603Z</time></trkpt><trkpt lat="43.1967051" lon="-8.3627958"><ele>146.0</ele><time>2026-04-05T08:56:44.603Z</time></trkpt><trkpt lat="43.1966715" lon="-8.3628785"><ele>146.4</ele><time>2026-04-05T08:56:45.603Z</time></trkpt><trkpt lat="43.1966222" lon="-8.3629806"><ele>146.8</ele><time>2026-04-05T08:56:46.603Z</time></trkpt><trkpt lat="43.1965552" lon="-8.3630859"><ele>147.20000000000002</ele><time>2026-04-05T08:56:47.602Z</time></trkpt><trkpt lat="43.1964725" lon="-8.3631945"><ele>147.6</ele><time>2026-04-05T08:56:48.603Z</time></trkpt><trkpt lat="43.1963808" lon="-8.3633021"><ele>148.0</ele><time>2026-04-05T08:56:49.603Z</time></trkpt><trkpt lat="43.1962902" lon="-8.3634027"><ele>145.8</ele><time>2026-04-05T08:56:50.602Z</time></trkpt><trkpt lat="43.1962129" lon="-8.3635035"><ele>143.60000000000002</ele><time>2026-04-05T08:56:51.602Z</time></trkpt><trkpt lat="43.1961157" lon="-8.3635738"><ele>141.39999999999998</ele><time>2026-04-05T08:56:52.603Z</time></trkpt><trkpt lat="43.1960304" lon="-8.3636467"><ele>139.2</ele><time>2026-04-05T08:56:53.603Z</time></trkpt><trkpt lat="43.195962" lon="-8.3637063"><ele>137.0</ele><time>2026-04-05T08:56:54.603Z</time></trkpt><trkpt lat="43.1959174" lon="-8.3637678"><ele>135.2</ele><time>2026-04-05T08:56:55.603Z</time></trkpt><trkpt lat="43.195943" lon="-8.363869"><ele>133.39999999999998</ele><time>2026-04-05T08:56:57.602Z</time></trkpt><trkpt lat="43.1960652" lon="-8.3639234"><ele>131.60000000000002</ele><time>2026-04-05T08:56:59.603Z</time></trkpt><trkpt lat="43.1961498" lon="-8.3639535"><ele>129.8</ele><time>2026-04-05T08:57:00.603Z</time></trkpt><trkpt lat="43.1962407" lon="-8.3639812"><ele>128.0</ele><time>2026-04-05T08:57:01.603Z</time></trkpt><trkpt lat="43.1963233" lon="-8.3640079"><ele>127.99999999999999</ele><time>2026-04-05T08:57:02.603Z</time></trkpt><trkpt lat="43.1963994" lon="-8.36401"><ele>128.0</ele><time>2026-04-05T08:57:03.603Z</time></trkpt><trkpt lat="43.1964752" lon="-8.3639981"><ele>128.0</ele><time>2026-04-05T08:57:04.602Z</time></trkpt><trkpt lat="43.1965623" lon="-8.363987"><ele>128.0</ele><time>2026-04-05T08:57:05.603Z</time></trkpt><trkpt lat="43.1966537" lon="-8.3639797"><ele>127.99999999999999</ele><time>2026-04-05T08:57:06.603Z</time></trkpt><trkpt lat="43.196739" lon="-8.3639914"><ele>128.0</ele><time>2026-04-05T08:57:07.602Z</time></trkpt><trkpt lat="43.1968079" lon="-8.3639858"><ele>128.0</ele><time>2026-04-05T08:57:08.603Z</time></trkpt><trkpt lat="43.1969106" lon="-8.3640148"><ele>128.0</ele><time>2026-04-05T08:57:10.603Z</time></trkpt><trkpt lat="43.1969235" lon="-8.3641616"><ele>128.0</ele><time>2026-04-05T08:57:12.603Z</time></trkpt><trkpt lat="43.1969074" lon="-8.3642548"><ele>128.0</ele><time>2026-04-05T08:57:13.603Z</time></trkpt><trkpt lat="43.1968672" lon="-8.3643496"><ele>128.0</ele><time>2026-04-05T08:57:14.603Z</time></trkpt><trkpt lat="43.1968006" lon="-8.364429"><ele>128.0</ele><time>2026-04-05T08:57:15.603Z</time></trkpt><trkpt lat="43.1967219" lon="-8.3645048"><ele>128.0</ele><time>2026-04-05T08:57:16.603Z</time></trkpt><trkpt lat="43.1966558" lon="-8.3645875"><ele>128.0</ele><time>2026-04-05T08:57:17.603Z</time></trkpt><trkpt lat="43.1965994" lon="-8.3646784"><ele>128.0</ele><time>2026-04-05T08:57:18.603Z</time></trkpt><trkpt lat="43.1966186" lon="-8.3648116"><ele>128.0</ele><time>2026-04-05T08:57:19.603Z</time></trkpt><trkpt lat="43.1966218" lon="-8.3649494"><ele>126.75</ele><time>2026-04-05T08:57:20.603Z</time></trkpt><trkpt lat="43.1966286" lon="-8.36511"><ele>125.5</ele><time>2026-04-05T08:57:21.603Z</time></trkpt><trkpt lat="43.1966381" lon="-8.3652775"><ele>124.25</ele><time>2026-04-05T08:57:22.602Z</time></trkpt><trkpt lat="43.1966512" lon="-8.3654484"><ele>123.0</ele><time>2026-04-05T08:57:23.602Z</time></trkpt><trkpt lat="43.1966724" lon="-8.3656219"><ele>121.60000000000001</ele><time>2026-04-05T08:57:24.602Z</time></trkpt><trkpt lat="43.1966847" lon="-8.3657811"><ele>120.20000000000002</ele><time>2026-04-05T08:57:25.603Z</time></trkpt><trkpt lat="43.196695" lon="-8.3659371"><ele>118.8</ele><time>2026-04-05T08:57:26.602Z</time></trkpt><trkpt lat="43.1966909" lon="-8.3660855"><ele>117.4</ele><time>2026-04-05T08:57:27.603Z</time></trkpt><trkpt lat="43.1966682" lon="-8.3662177"><ele>116.0</ele><time>2026-04-05T08:57:28.602Z</time></trkpt><trkpt lat="43.1966246" lon="-8.3663304"><ele>114.83333333333333</ele><time>2026-04-05T08:57:29.603Z</time></trkpt><trkpt lat="43.1965569" lon="-8.3664161"><ele>113.66666666666666</ele><time>2026-04-05T08:57:30.603Z</time></trkpt><trkpt lat="43.1964892" lon="-8.366495"><ele>112.5</ele><time>2026-04-05T08:57:31.603Z</time></trkpt><trkpt lat="43.1964489" lon="-8.3665795"><ele>111.33333333333334</ele><time>2026-04-05T08:57:32.603Z</time></trkpt><trkpt lat="43.1964398" lon="-8.3666749"><ele>110.16666666666667</ele><time>2026-04-05T08:57:33.603Z</time></trkpt><trkpt lat="43.1964591" lon="-8.3667888"><ele>109.0</ele><time>2026-04-05T08:57:34.603Z</time></trkpt><trkpt lat="43.1964849" lon="-8.3669308"><ele>109.0</ele><time>2026-04-05T08:57:35.603Z</time></trkpt><trkpt lat="43.1965075" lon="-8.3670859"><ele>109.0</ele><time>2026-04-05T08:57:36.603Z</time></trkpt><trkpt lat="43.1965245" lon="-8.3672334"><ele>109.0</ele><time>2026-04-05T08:57:37.603Z</time></trkpt><trkpt lat="43.1965334" lon="-8.367379"><ele>109.0</ele><time>2026-04-05T08:57:38.602Z</time></trkpt><trkpt lat="43.1965417" lon="-8.3675266"><ele>109.0</ele><time>2026-04-05T08:57:39.602Z</time></trkpt><trkpt lat="43.1965351" lon="-8.3676801"><ele>108.80000000000001</ele><time>2026-04-05T08:57:40.603Z</time></trkpt><trkpt lat="43.1965216" lon="-8.3678261"><ele>108.60000000000001</ele><time>2026-04-05T08:57:41.603Z</time></trkpt><trkpt lat="43.196485" lon="-8.3679643"><ele>108.4</ele><time>2026-04-05T08:57:42.602Z</time></trkpt><trkpt lat="43.1964266" lon="-8.3680954"><ele>108.2</ele><time>2026-04-05T08:57:43.603Z</time></trkpt><trkpt lat="43.196363" lon="-8.3682262"><ele>108.0</ele><time>2026-04-05T08:57:44.602Z</time></trkpt><trkpt lat="43.1963055" lon="-8.3683615"><ele>109.25</ele><time>2026-04-05T08:57:45.603Z</time></trkpt><trkpt lat="43.1962594" lon="-8.3684979"><ele>110.5</ele><time>2026-04-05T08:57:46.602Z</time></trkpt><trkpt lat="43.1962383" lon="-8.3686457"><ele>111.75</ele><time>2026-04-05T08:57:47.602Z</time></trkpt><trkpt lat="43.1962417" lon="-8.3688083"><ele>113.0</ele><time>2026-04-05T08:57:48.603Z</time></trkpt><trkpt lat="43.1962547" lon="-8.3689838"><ele>113.25</ele><time>2026-04-05T08:57:49.602Z</time></trkpt><trkpt lat="43.1962717" lon="-8.3691734"><ele>113.5</ele><time>2026-04-05T08:57:50.603Z</time></trkpt><trkpt lat="43.1962954" lon="-8.3693591"><ele>113.75</ele><time>2026-04-05T08:57:51.603Z</time></trkpt><trkpt lat="43.1963452" lon="-8.3695198"><ele>114.0</ele><time>2026-04-05T08:57:52.603Z</time></trkpt><trkpt lat="43.1964116" lon="-8.3696637"><ele>112.0</ele><time>2026-04-05T08:57:53.603Z</time></trkpt><trkpt lat="43.1964635" lon="-8.369797"><ele>110.0</ele><time>2026-04-05T08:57:54.603Z</time></trkpt><trkpt lat="43.1964932" lon="-8.3699311"><ele>108.0</ele><time>2026-04-05T08:57:55.602Z</time></trkpt><trkpt lat="43.1964896" lon="-8.3700817"><ele>106.0</ele><time>2026-04-05T08:57:56.602Z</time></trkpt><trkpt lat="43.196485" lon="-8.3702418"><ele>104.0</ele><time>2026-04-05T08:57:57.602Z</time></trkpt><trkpt lat="43.1964772" lon="-8.3704188"><ele>100.5</ele><time>2026-04-05T08:57:58.603Z</time></trkpt><trkpt lat="43.1964774" lon="-8.3706013"><ele>97.0</ele><time>2026-04-05T08:57:59.602Z</time></trkpt><trkpt lat="43.1964795" lon="-8.3707904"><ele>93.5</ele><time>2026-04-05T08:58:00.603Z</time></trkpt><trkpt lat="43.1964934" lon="-8.3709863"><ele>90.0</ele><time>2026-04-05T08:58:01.603Z</time></trkpt><trkpt lat="43.1965041" lon="-8.3711829"><ele>88.75</ele><time>2026-04-05T08:58:02.603Z</time></trkpt><trkpt lat="43.1964964" lon="-8.3713631"><ele>87.5</ele><time>2026-04-05T08:58:03.603Z</time></trkpt><trkpt lat="43.1964665" lon="-8.3715266"><ele>86.25</ele><time>2026-04-05T08:58:04.603Z</time></trkpt><trkpt lat="43.1964292" lon="-8.3716669"><ele>85.0</ele><time>2026-04-05T08:58:05.602Z</time></trkpt><trkpt lat="43.1963941" lon="-8.3717762"><ele>85.0</ele><time>2026-04-05T08:58:06.602Z</time></trkpt><trkpt lat="43.1964129" lon="-8.3718681"><ele>85.0</ele><time>2026-04-05T08:58:07.602Z</time></trkpt><trkpt lat="43.1964478" lon="-8.371964"><ele>85.0</ele><time>2026-04-05T08:58:08.602Z</time></trkpt><trkpt lat="43.1964863" lon="-8.372078"><ele>85.0</ele><time>2026-04-05T08:58:09.602Z</time></trkpt><trkpt lat="43.1965199" lon="-8.3722136"><ele>85.0</ele><time>2026-04-05T08:58:10.603Z</time></trkpt><trkpt lat="43.1965288" lon="-8.3723685"><ele>85.4</ele><time>2026-04-05T08:58:11.603Z</time></trkpt><trkpt lat="43.1964998" lon="-8.3725214"><ele>85.8</ele><time>2026-04-05T08:58:12.603Z</time></trkpt><trkpt lat="43.1964423" lon="-8.3726568"><ele>86.19999999999999</ele><time>2026-04-05T08:58:13.603Z</time></trkpt><trkpt lat="43.1963828" lon="-8.3727751"><ele>86.6</ele><time>2026-04-05T08:58:14.603Z</time></trkpt><trkpt lat="43.1963572" lon="-8.3728973"><ele>87.0</ele><time>2026-04-05T08:58:15.603Z</time></trkpt><trkpt lat="43.1963777" lon="-8.3730157"><ele>88.75</ele><time>2026-04-05T08:58:16.603Z</time></trkpt><trkpt lat="43.196442" lon="-8.3731112"><ele>90.5</ele><time>2026-04-05T08:58:17.602Z</time></trkpt><trkpt lat="43.1965324" lon="-8.3731952"><ele>92.25</ele><time>2026-04-05T08:58:18.603Z</time></trkpt><trkpt lat="43.1966434" lon="-8.3732771"><ele>94.0</ele><time>2026-04-05T08:58:19.603Z</time></trkpt><trkpt lat="43.1967504" lon="-8.3733622"><ele>94.83333333333333</ele><time>2026-04-05T08:58:20.602Z</time></trkpt><trkpt lat="43.196844" lon="-8.3734527"><ele>95.66666666666666</ele><time>2026-04-05T08:58:21.603Z</time></trkpt><trkpt lat="43.1969181" lon="-8.3735309"><ele>96.5</ele><time>2026-04-05T08:58:22.603Z</time></trkpt><trkpt lat="43.1969674" lon="-8.3735936"><ele>97.33333333333333</ele><time>2026-04-05T08:58:23.602Z</time></trkpt><trkpt lat="43.1970203" lon="-8.3736811"><ele>98.16666666666667</ele><time>2026-04-05T08:58:25.602Z</time></trkpt><trkpt lat="43.1970185" lon="-8.37377"><ele>99.0</ele><time>2026-04-05T08:58:28.602Z</time></trkpt><trkpt lat="43.1969429" lon="-8.3738767"><ele>100.6</ele><time>2026-04-05T08:58:30.603Z</time></trkpt><trkpt lat="43.196897" lon="-8.3739539"><ele>102.2</ele><time>2026-04-05T08:58:31.603Z</time></trkpt><trkpt lat="43.1968453" lon="-8.374053"><ele>103.79999999999998</ele><time>2026-04-05T08:58:32.603Z</time></trkpt><trkpt lat="43.1967941" lon="-8.3741657"><ele>105.39999999999999</ele><time>2026-04-05T08:58:33.603Z</time></trkpt><trkpt lat="43.1967485" lon="-8.3742914"><ele>107.0</ele><time>2026-04-05T08:58:34.603Z</time></trkpt><trkpt lat="43.1966987" lon="-8.3744197"><ele>107.0</ele><time>2026-04-05T08:58:35.602Z</time></trkpt><trkpt lat="43.1966422" lon="-8.37455"><ele>107.0</ele><time>2026-04-05T08:58:36.603Z</time></trkpt><trkpt lat="43.1965731" lon="-8.3746803"><ele>107.0</ele><time>2026-04-05T08:58:37.602Z</time></trkpt><trkpt lat="43.1964893" lon="-8.3748069"><ele>107.0</ele><time>2026-04-05T08:58:38.603Z</time></trkpt><trkpt lat="43.1963982" lon="-8.3749329"><ele>107.19999999999999</ele><time>2026-04-05T08:58:39.603Z</time></trkpt><trkpt lat="43.1963045" lon="-8.3750509"><ele>107.39999999999999</ele><time>2026-04-05T08:58:40.603Z</time></trkpt><trkpt lat="43.1962212" lon="-8.3751565"><ele>107.60000000000001</ele><time>2026-04-05T08:58:41.603Z</time></trkpt><trkpt lat="43.19615" lon="-8.3752499"><ele>107.80000000000001</ele><time>2026-04-05T08:58:42.602Z</time></trkpt><trkpt lat="43.196095" lon="-8.3753364"><ele>108.0</ele><time>2026-04-05T08:58:43.602Z</time></trkpt><trkpt lat="43.1960513" lon="-8.3754128"><ele>108.0</ele><time>2026-04-05T08:58:44.603Z</time></trkpt><trkpt lat="43.1959994" lon="-8.3755198"><ele>108.0</ele><time>2026-04-05T08:58:46.603Z</time></trkpt><trkpt lat="43.1959272" lon="-8.37559"><ele>108.0</ele><time>2026-04-05T08:58:48.603Z</time></trkpt><trkpt lat="43.19587" lon="-8.3756419"><ele>108.0</ele><time>2026-04-05T08:58:49.603Z</time></trkpt><trkpt lat="43.1958207" lon="-8.3757281"><ele>108.0</ele><time>2026-04-05T08:58:50.602Z</time></trkpt><trkpt lat="43.1957978" lon="-8.3758428"><ele>108.0</ele><time>2026-04-05T08:58:51.603Z</time></trkpt><trkpt lat="43.1957907" lon="-8.3759733"><ele>108.2</ele><time>2026-04-05T08:58:52.603Z</time></trkpt><trkpt lat="43.1958196" lon="-8.376113"><ele>108.4</ele><time>2026-04-05T08:58:53.603Z</time></trkpt><trkpt lat="43.1958254" lon="-8.3762577"><ele>108.60000000000001</ele><time>2026-04-05T08:58:54.602Z</time></trkpt><trkpt lat="43.1957949" lon="-8.3763779"><ele>108.80000000000001</ele><time>2026-04-05T08:58:55.603Z</time></trkpt><trkpt lat="43.1957399" lon="-8.376479"><ele>109.0</ele><time>2026-04-05T08:58:56.603Z</time></trkpt><trkpt lat="43.1956219" lon="-8.376506"><ele>111.0</ele><time>2026-04-05T08:58:57.603Z</time></trkpt><trkpt lat="43.1955015" lon="-8.3765305"><ele>113.0</ele><time>2026-04-05T08:58:58.603Z</time></trkpt><trkpt lat="43.1953693" lon="-8.3765438"><ele>115.0</ele><time>2026-04-05T08:58:59.602Z</time></trkpt><trkpt lat="43.1952311" lon="-8.3765488"><ele>117.0</ele><time>2026-04-05T08:59:00.603Z</time></trkpt><trkpt lat="43.1950798" lon="-8.3765615"><ele>117.0</ele><time>2026-04-05T08:59:01.603Z</time></trkpt><trkpt lat="43.1949277" lon="-8.376575"><ele>117.0</ele><time>2026-04-05T08:59:02.603Z</time></trkpt><trkpt lat="43.1947776" lon="-8.3766001"><ele>117.0</ele><time>2026-04-05T08:59:03.603Z</time></trkpt><trkpt lat="43.1946382" lon="-8.3766241"><ele>117.0</ele><time>2026-04-05T08:59:04.603Z</time></trkpt><trkpt lat="43.194513" lon="-8.3766441"><ele>116.25</ele><time>2026-04-05T08:59:05.602Z</time></trkpt><trkpt lat="43.1943966" lon="-8.3766689"><ele>115.5</ele><time>2026-04-05T08:59:06.603Z</time></trkpt><trkpt lat="43.194285" lon="-8.3767241"><ele>114.75</ele><time>2026-04-05T08:59:07.602Z</time></trkpt><trkpt lat="43.1941725" lon="-8.3768082"><ele>114.0</ele><time>2026-04-05T08:59:08.603Z</time></trkpt><trkpt lat="43.1940635" lon="-8.3769123"><ele>113.25</ele><time>2026-04-05T08:59:09.603Z</time></trkpt><trkpt lat="43.1939625" lon="-8.3770322"><ele>112.5</ele><time>2026-04-05T08:59:10.603Z</time></trkpt><trkpt lat="43.1938693" lon="-8.3771599"><ele>111.75</ele><time>2026-04-05T08:59:11.602Z</time></trkpt><trkpt lat="43.1937659" lon="-8.3772704"><ele>111.0</ele><time>2026-04-05T08:59:12.602Z</time></trkpt><trkpt lat="43.1936573" lon="-8.3773728"><ele>114.75</ele><time>2026-04-05T08:59:13.603Z</time></trkpt><trkpt lat="43.1935439" lon="-8.3774661"><ele>118.5</ele><time>2026-04-05T08:59:14.603Z</time></trkpt><trkpt lat="43.1934422" lon="-8.3775683"><ele>122.25</ele><time>2026-04-05T08:59:15.603Z</time></trkpt><trkpt lat="43.1933497" lon="-8.377669"><ele>126.0</ele><time>2026-04-05T08:59:16.602Z</time></trkpt><trkpt lat="43.1932556" lon="-8.3777491"><ele>126.0</ele><time>2026-04-05T08:59:17.603Z</time></trkpt><trkpt lat="43.193161" lon="-8.3777967"><ele>126.0</ele><time>2026-04-05T08:59:18.603Z</time></trkpt><trkpt lat="43.1930648" lon="-8.3777945"><ele>126.0</ele><time>2026-04-05T08:59:19.603Z</time></trkpt><trkpt lat="43.1929804" lon="-8.3777384"><ele>126.0</ele><time>2026-04-05T08:59:20.603Z</time></trkpt><trkpt lat="43.1929033" lon="-8.3776774"><ele>126.0</ele><time>2026-04-05T08:59:21.602Z</time></trkpt><trkpt lat="43.1928167" lon="-8.3776448"><ele>126.0</ele><time>2026-04-05T08:59:22.603Z</time></trkpt><trkpt lat="43.1927259" lon="-8.3776493"><ele>126.0</ele><time>2026-04-05T08:59:23.603Z</time></trkpt><trkpt lat="43.1926287" lon="-8.3776929"><ele>126.0</ele><time>2026-04-05T08:59:24.602Z</time></trkpt><trkpt lat="43.1925267" lon="-8.3777436"><ele>126.0</ele><time>2026-04-05T08:59:25.603Z</time></trkpt><trkpt lat="43.1924246" lon="-8.3777779"><ele>126.0</ele><time>2026-04-05T08:59:26.603Z</time></trkpt><trkpt lat="43.1923318" lon="-8.3777961"><ele>126.0</ele><time>2026-04-05T08:59:27.603Z</time></trkpt><trkpt lat="43.192247" lon="-8.3778122"><ele>126.0</ele><time>2026-04-05T08:59:28.602Z</time></trkpt><trkpt lat="43.1921623" lon="-8.37785"><ele>126.0</ele><time>2026-04-05T08:59:29.603Z</time></trkpt><trkpt lat="43.1920792" lon="-8.3779094"><ele>126.0</ele><time>2026-04-05T08:59:30.603Z</time></trkpt><trkpt lat="43.1919979" lon="-8.3779881"><ele>126.0</ele><time>2026-04-05T08:59:31.603Z</time></trkpt><trkpt lat="43.1919158" lon="-8.3780811"><ele>126.0</ele><time>2026-04-05T08:59:32.602Z</time></trkpt><trkpt lat="43.191829" lon="-8.3781723"><ele>126.0</ele><time>2026-04-05T08:59:33.602Z</time></trkpt><trkpt lat="43.1917297" lon="-8.378267"><ele>126.0</ele><time>2026-04-05T08:59:34.602Z</time></trkpt><trkpt lat="43.1916248" lon="-8.3783752"><ele>126.0</ele><time>2026-04-05T08:59:35.602Z</time></trkpt><trkpt lat="43.19151" lon="-8.3784945"><ele>125.66666666666666</ele><time>2026-04-05T08:59:36.603Z</time></trkpt><trkpt lat="43.19139" lon="-8.3786211"><ele>125.33333333333333</ele><time>2026-04-05T08:59:37.603Z</time></trkpt><trkpt lat="43.1912659" lon="-8.3787493"><ele>125.0</ele><time>2026-04-05T08:59:38.603Z</time></trkpt><trkpt lat="43.1911458" lon="-8.3788714"><ele>125.0</ele><time>2026-04-05T08:59:39.603Z</time></trkpt><trkpt lat="43.1910317" lon="-8.3789877"><ele>125.0</ele><time>2026-04-05T08:59:40.603Z</time></trkpt><trkpt lat="43.1909254" lon="-8.379103"><ele>125.0</ele><time>2026-04-05T08:59:41.602Z</time></trkpt><trkpt lat="43.1908356" lon="-8.3792159"><ele>125.0</ele><time>2026-04-05T08:59:42.603Z</time></trkpt><trkpt lat="43.1907635" lon="-8.3793391"><ele>125.0</ele><time>2026-04-05T08:59:43.603Z</time></trkpt><trkpt lat="43.1907031" lon="-8.3794872"><ele>125.0</ele><time>2026-04-05T08:59:44.603Z</time></trkpt><trkpt lat="43.1906447" lon="-8.3796547"><ele>125.0</ele><time>2026-04-05T08:59:45.602Z</time></trkpt><trkpt lat="43.1905864" lon="-8.3798313"><ele>125.0</ele><time>2026-04-05T08:59:46.602Z</time></trkpt><trkpt lat="43.1905345" lon="-8.38002"><ele>127.75</ele><time>2026-04-05T08:59:47.602Z</time></trkpt><trkpt lat="43.1904962" lon="-8.3802222"><ele>130.5</ele><time>2026-04-05T08:59:48.602Z</time></trkpt><trkpt lat="43.1904593" lon="-8.3804141"><ele>133.25</ele><time>2026-04-05T08:59:49.602Z</time></trkpt><trkpt lat="43.190407" lon="-8.3805925"><ele>136.0</ele><time>2026-04-05T08:59:50.602Z</time></trkpt><trkpt lat="43.1903249" lon="-8.3807606"><ele>136.0</ele><time>2026-04-05T08:59:51.603Z</time></trkpt><trkpt lat="43.1902213" lon="-8.3809201"><ele>136.0</ele><time>2026-04-05T08:59:52.603Z</time></trkpt><trkpt lat="43.1901077" lon="-8.3810859"><ele>136.0</ele><time>2026-04-05T08:59:53.602Z</time></trkpt><trkpt lat="43.189995" lon="-8.3812594"><ele>138.33333333333334</ele><time>2026-04-05T08:59:54.603Z</time></trkpt><trkpt lat="43.1898688" lon="-8.3814222"><ele>140.66666666666666</ele><time>2026-04-05T08:59:55.603Z</time></trkpt><trkpt lat="43.1897545" lon="-8.3816021"><ele>143.0</ele><time>2026-04-05T08:59:56.603Z</time></trkpt><trkpt lat="43.1896345" lon="-8.3817697"><ele>143.0</ele><time>2026-04-05T08:59:57.603Z</time></trkpt><trkpt lat="43.1895162" lon="-8.3819449"><ele>143.0</ele><time>2026-04-05T08:59:58.603Z</time></trkpt><trkpt lat="43.1894102" lon="-8.3821234"><ele>143.0</ele><time>2026-04-05T08:59:59.602Z</time></trkpt><trkpt lat="43.1893174" lon="-8.3823159"><ele>144.66666666666666</ele><time>2026-04-05T09:00:00.603Z</time></trkpt><trkpt lat="43.1892335" lon="-8.3825319"><ele>146.33333333333334</ele><time>2026-04-05T09:00:01.603Z</time></trkpt><trkpt lat="43.1891453" lon="-8.3827501"><ele>148.0</ele><time>2026-04-05T09:00:02.603Z</time></trkpt><trkpt lat="43.1890601" lon="-8.3829805"><ele>140.33333333333334</ele><time>2026-04-05T09:00:03.603Z</time></trkpt><trkpt lat="43.1889669" lon="-8.3832084"><ele>132.66666666666666</ele><time>2026-04-05T09:00:04.602Z</time></trkpt><trkpt lat="43.1888723" lon="-8.3834353"><ele>125.0</ele><time>2026-04-05T09:00:05.603Z</time></trkpt><trkpt lat="43.1887912" lon="-8.3836576"><ele>128.33333333333331</ele><time>2026-04-05T09:00:06.603Z</time></trkpt><trkpt lat="43.1887109" lon="-8.3838697"><ele>131.66666666666666</ele><time>2026-04-05T09:00:07.603Z</time></trkpt><trkpt lat="43.1886318" lon="-8.3840661"><ele>135.0</ele><time>2026-04-05T09:00:08.603Z</time></trkpt><trkpt lat="43.1885586" lon="-8.3842638"><ele>135.0</ele><time>2026-04-05T09:00:09.603Z</time></trkpt><trkpt lat="43.1884851" lon="-8.3844488"><ele>135.0</ele><time>2026-04-05T09:00:10.603Z</time></trkpt><trkpt lat="43.1884041" lon="-8.3846176"><ele>135.0</ele><time>2026-04-05T09:00:11.602Z</time></trkpt><trkpt lat="43.1883253" lon="-8.3847579"><ele>135.0</ele><time>2026-04-05T09:00:12.602Z</time></trkpt><trkpt lat="43.1882569" lon="-8.3848801"><ele>136.75</ele><time>2026-04-05T09:00:13.603Z</time></trkpt><trkpt lat="43.188205" lon="-8.3850169"><ele>138.5</ele><time>2026-04-05T09:00:14.602Z</time></trkpt><trkpt lat="43.1882195" lon="-8.3851634"><ele>140.25</ele><time>2026-04-05T09:00:15.603Z</time></trkpt><trkpt lat="43.1882672" lon="-8.3852991"><ele>142.0</ele><time>2026-04-05T09:00:16.603Z</time></trkpt><trkpt lat="43.1883323" lon="-8.3854399"><ele>142.5</ele><time>2026-04-05T09:00:17.603Z</time></trkpt><trkpt lat="43.1883871" lon="-8.3855913"><ele>143.0</ele><time>2026-04-05T09:00:18.603Z</time></trkpt><trkpt lat="43.188411" lon="-8.3857815"><ele>143.5</ele><time>2026-04-05T09:00:19.602Z</time></trkpt><trkpt lat="43.1883935" lon="-8.3859664"><ele>144.0</ele><time>2026-04-05T09:00:20.603Z</time></trkpt><trkpt lat="43.1883598" lon="-8.3861437"><ele>144.0</ele><time>2026-04-05T09:00:21.602Z</time></trkpt><trkpt lat="43.1883065" lon="-8.3863161"><ele>144.0</ele><time>2026-04-05T09:00:22.603Z</time></trkpt><trkpt lat="43.1882733" lon="-8.3864925"><ele>144.0</ele><time>2026-04-05T09:00:23.603Z</time></trkpt><trkpt lat="43.1882501" lon="-8.3866628"><ele>144.0</ele><time>2026-04-05T09:00:24.603Z</time></trkpt><trkpt lat="43.1882347" lon="-8.3868416"><ele>145.0</ele><time>2026-04-05T09:00:25.603Z</time></trkpt><trkpt lat="43.188218" lon="-8.3870191"><ele>146.0</ele><time>2026-04-05T09:00:26.603Z</time></trkpt><trkpt lat="43.1882652" lon="-8.3871579"><ele>147.0</ele><time>2026-04-05T09:00:27.602Z</time></trkpt><trkpt lat="43.1883207" lon="-8.38729"><ele>148.0</ele><time>2026-04-05T09:00:28.603Z</time></trkpt><trkpt lat="43.1883598" lon="-8.3874207"><ele>149.4</ele><time>2026-04-05T09:00:29.602Z</time></trkpt><trkpt lat="43.1883717" lon="-8.3875164"><ele>150.8</ele><time>2026-04-05T09:00:30.603Z</time></trkpt><trkpt lat="43.1883061" lon="-8.3876283"><ele>152.2</ele><time>2026-04-05T09:00:31.602Z</time></trkpt><trkpt lat="43.1882557" lon="-8.3876854"><ele>153.6</ele><time>2026-04-05T09:00:32.603Z</time></trkpt><trkpt lat="43.1881276" lon="-8.387707"><ele>155.0</ele><time>2026-04-05T09:00:33.603Z</time></trkpt><trkpt lat="43.1880086" lon="-8.3877428"><ele>156.25</ele><time>2026-04-05T09:00:34.603Z</time></trkpt><trkpt lat="43.1878866" lon="-8.387763"><ele>157.5</ele><time>2026-04-05T09:00:35.603Z</time></trkpt><trkpt lat="43.1877712" lon="-8.3878133"><ele>158.75</ele><time>2026-04-05T09:00:36.603Z</time></trkpt><trkpt lat="43.1876691" lon="-8.3879103"><ele>160.0</ele><time>2026-04-05T09:00:37.603Z</time></trkpt><trkpt lat="43.1875696" lon="-8.3880231"><ele>160.0</ele><time>2026-04-05T09:00:38.603Z</time></trkpt><trkpt lat="43.1874741" lon="-8.3881751"><ele>160.0</ele><time>2026-04-05T09:00:39.602Z</time></trkpt><trkpt lat="43.1873735" lon="-8.3883272"><ele>160.0</ele><time>2026-04-05T09:00:40.603Z</time></trkpt><trkpt lat="43.1872712" lon="-8.388489"><ele>160.0</ele><time>2026-04-05T09:00:41.603Z</time></trkpt><trkpt lat="43.1871654" lon="-8.3886539"><ele>160.0</ele><time>2026-04-05T09:00:42.603Z</time></trkpt><trkpt lat="43.1870546" lon="-8.3888126"><ele>160.0</ele><time>2026-04-05T09:00:43.603Z</time></trkpt><trkpt lat="43.1869393" lon="-8.3889669"><ele>160.0</ele><time>2026-04-05T09:00:44.602Z</time></trkpt><trkpt lat="43.1868215" lon="-8.3891095"><ele>160.0</ele><time>2026-04-05T09:00:45.602Z</time></trkpt><trkpt lat="43.1867036" lon="-8.3892375"><ele>160.0</ele><time>2026-04-05T09:00:46.603Z</time></trkpt><trkpt lat="43.1865955" lon="-8.3893711"><ele>154.66666666666669</ele><time>2026-04-05T09:00:47.602Z</time></trkpt><trkpt lat="43.1865039" lon="-8.389526"><ele>149.33333333333334</ele><time>2026-04-05T09:00:48.603Z</time></trkpt><trkpt lat="43.186432" lon="-8.3897093"><ele>144.0</ele><time>2026-04-05T09:00:49.602Z</time></trkpt><trkpt lat="43.1863691" lon="-8.3899112"><ele>144.0</ele><time>2026-04-05T09:00:50.602Z</time></trkpt><trkpt lat="43.1863075" lon="-8.3901274"><ele>144.0</ele><time>2026-04-05T09:00:51.603Z</time></trkpt><trkpt lat="43.1862262" lon="-8.3903368"><ele>144.0</ele><time>2026-04-05T09:00:52.603Z</time></trkpt><trkpt lat="43.186125" lon="-8.390531"><ele>152.0</ele><time>2026-04-05T09:00:53.603Z</time></trkpt><trkpt lat="43.1860145" lon="-8.3907172"><ele>160.0</ele><time>2026-04-05T09:00:54.603Z</time></trkpt><trkpt lat="43.1859079" lon="-8.390883"><ele>168.0</ele><time>2026-04-05T09:00:55.602Z</time></trkpt><trkpt lat="43.1858128" lon="-8.3910259"><ele>168.0</ele><time>2026-04-05T09:00:56.602Z</time></trkpt><trkpt lat="43.1857567" lon="-8.3911746"><ele>168.0</ele><time>2026-04-05T09:00:57.603Z</time></trkpt><trkpt lat="43.1857376" lon="-8.3913196"><ele>168.0</ele><time>2026-04-05T09:00:58.603Z</time></trkpt><trkpt lat="43.1857572" lon="-8.3914539"><ele>168.0</ele><time>2026-04-05T09:00:59.603Z</time></trkpt><trkpt lat="43.1858189" lon="-8.3915837"><ele>168.0</ele><time>2026-04-05T09:01:00.603Z</time></trkpt><trkpt lat="43.1859137" lon="-8.391686"><ele>168.25</ele><time>2026-04-05T09:01:01.603Z</time></trkpt><trkpt lat="43.1860347" lon="-8.3917629"><ele>168.5</ele><time>2026-04-05T09:01:02.603Z</time></trkpt><trkpt lat="43.186179" lon="-8.3918145"><ele>168.75</ele><time>2026-04-05T09:01:03.603Z</time></trkpt><trkpt lat="43.1863282" lon="-8.3918383"><ele>169.0</ele><time>2026-04-05T09:01:04.603Z</time></trkpt><trkpt lat="43.186471" lon="-8.3918801"><ele>169.39999999999998</ele><time>2026-04-05T09:01:05.603Z</time></trkpt><trkpt lat="43.1865882" lon="-8.3919073"><ele>169.8</ele><time>2026-04-05T09:01:06.603Z</time></trkpt><trkpt lat="43.1866902" lon="-8.3919591"><ele>170.2</ele><time>2026-04-05T09:01:07.602Z</time></trkpt><trkpt lat="43.1867628" lon="-8.3920481"><ele>170.60000000000002</ele><time>2026-04-05T09:01:08.603Z</time></trkpt><trkpt lat="43.1868231" lon="-8.3921232"><ele>171.0</ele><time>2026-04-05T09:01:09.603Z</time></trkpt><trkpt lat="43.1868665" lon="-8.3922353"><ele>171.0</ele><time>2026-04-05T09:01:10.603Z</time></trkpt><trkpt lat="43.1868852" lon="-8.3924705"><ele>171.0</ele><time>2026-04-05T09:01:11.603Z</time></trkpt><trkpt lat="43.1869123" lon="-8.3926695"><ele>171.0</ele><time>2026-04-05T09:01:12.603Z</time></trkpt><trkpt lat="43.1869386" lon="-8.3928751"><ele>170.33333333333334</ele><time>2026-04-05T09:01:13.602Z</time></trkpt><trkpt lat="43.1869772" lon="-8.3930984"><ele>169.66666666666669</ele><time>2026-04-05T09:01:14.603Z</time></trkpt><trkpt lat="43.1870223" lon="-8.3932955"><ele>169.0</ele><time>2026-04-05T09:01:15.603Z</time></trkpt><trkpt lat="43.1870584" lon="-8.3934692"><ele>169.0</ele><time>2026-04-05T09:01:16.603Z</time></trkpt><trkpt lat="43.1870732" lon="-8.3936295"><ele>169.0</ele><time>2026-04-05T09:01:17.603Z</time></trkpt><trkpt lat="43.1870815" lon="-8.3937919"><ele>169.0</ele><time>2026-04-05T09:01:18.603Z</time></trkpt><trkpt lat="43.1870373" lon="-8.3939306"><ele>169.0</ele><time>2026-04-05T09:01:19.602Z</time></trkpt><trkpt lat="43.186941" lon="-8.3940702"><ele>173.0</ele><time>2026-04-05T09:01:20.603Z</time></trkpt><trkpt lat="43.1868868" lon="-8.394235"><ele>177.0</ele><time>2026-04-05T09:01:21.603Z</time></trkpt><trkpt lat="43.1868549" lon="-8.3944009"><ele>181.0</ele><time>2026-04-05T09:01:22.603Z</time></trkpt><trkpt lat="43.1868347" lon="-8.3945662"><ele>185.0</ele><time>2026-04-05T09:01:23.602Z</time></trkpt><trkpt lat="43.1867856" lon="-8.3947405"><ele>187.2</ele><time>2026-04-05T09:01:24.603Z</time></trkpt><trkpt lat="43.1867566" lon="-8.3948955"><ele>189.4</ele><time>2026-04-05T09:01:25.603Z</time></trkpt><trkpt lat="43.1867623" lon="-8.3950363"><ele>191.60000000000002</ele><time>2026-04-05T09:01:26.603Z</time></trkpt><trkpt lat="43.1867891" lon="-8.3951615"><ele>193.8</ele><time>2026-04-05T09:01:27.602Z</time></trkpt><trkpt lat="43.1868416" lon="-8.395258"><ele>196.0</ele><time>2026-04-05T09:01:28.603Z</time></trkpt><trkpt lat="43.1869101" lon="-8.3953459"><ele>196.0</ele><time>2026-04-05T09:01:29.603Z</time></trkpt><trkpt lat="43.1869702" lon="-8.3954447"><ele>196.0</ele><time>2026-04-05T09:01:30.602Z</time></trkpt><trkpt lat="43.1870155" lon="-8.3955537"><ele>196.0</ele><time>2026-04-05T09:01:31.603Z</time></trkpt><trkpt lat="43.1870364" lon="-8.3956514"><ele>196.0</ele><time>2026-04-05T09:01:32.602Z</time></trkpt><trkpt lat="43.1869767" lon="-8.3957784"><ele>196.0</ele><time>2026-04-05T09:01:33.603Z</time></trkpt><trkpt lat="43.1868647" lon="-8.3959348"><ele>196.75</ele><time>2026-04-05T09:01:34.602Z</time></trkpt><trkpt lat="43.1867696" lon="-8.3960727"><ele>197.5</ele><time>2026-04-05T09:01:35.603Z</time></trkpt><trkpt lat="43.1866873" lon="-8.3962288"><ele>198.25</ele><time>2026-04-05T09:01:36.602Z</time></trkpt><trkpt lat="43.1865688" lon="-8.3963696"><ele>199.0</ele><time>2026-04-05T09:01:37.603Z</time></trkpt><trkpt lat="43.1864553" lon="-8.3965201"><ele>199.0</ele><time>2026-04-05T09:01:38.603Z</time></trkpt><trkpt lat="43.1863368" lon="-8.3966804"><ele>199.0</ele><time>2026-04-05T09:01:39.602Z</time></trkpt><trkpt lat="43.1862239" lon="-8.3968563"><ele>199.0</ele><time>2026-04-05T09:01:40.602Z</time></trkpt><trkpt lat="43.1861098" lon="-8.397025"><ele>205.66666666666666</ele><time>2026-04-05T09:01:41.603Z</time></trkpt><trkpt lat="43.1859986" lon="-8.3971932"><ele>212.33333333333331</ele><time>2026-04-05T09:01:42.603Z</time></trkpt><trkpt lat="43.1858857" lon="-8.3973567"><ele>219.0</ele><time>2026-04-05T09:01:43.602Z</time></trkpt><trkpt lat="43.1857858" lon="-8.3975183"><ele>219.0</ele><time>2026-04-05T09:01:44.602Z</time></trkpt><trkpt lat="43.1857121" lon="-8.3976818"><ele>219.0</ele><time>2026-04-05T09:01:45.603Z</time></trkpt><trkpt lat="43.1856697" lon="-8.3978494"><ele>219.0</ele><time>2026-04-05T09:01:46.603Z</time></trkpt><trkpt lat="43.1856495" lon="-8.3980058"><ele>219.0</ele><time>2026-04-05T09:01:47.603Z</time></trkpt><trkpt lat="43.1856184" lon="-8.3981414"><ele>219.0</ele><time>2026-04-05T09:01:48.602Z</time></trkpt><trkpt lat="43.1855755" lon="-8.3982617"><ele>218.99999999999997</ele><time>2026-04-05T09:01:49.603Z</time></trkpt><trkpt lat="43.1854948" lon="-8.398338"><ele>218.99999999999997</ele><time>2026-04-05T09:01:50.602Z</time></trkpt><trkpt lat="43.1853728" lon="-8.3983667"><ele>219.0</ele><time>2026-04-05T09:01:51.602Z</time></trkpt><trkpt lat="43.1852459" lon="-8.3984029"><ele>219.0</ele><time>2026-04-05T09:01:52.603Z</time></trkpt><trkpt lat="43.1851025" lon="-8.398441"><ele>219.0</ele><time>2026-04-05T09:01:53.603Z</time></trkpt><trkpt lat="43.1849579" lon="-8.3984833"><ele>219.0</ele><time>2026-04-05T09:01:54.602Z</time></trkpt><trkpt lat="43.1848262" lon="-8.398523"><ele>219.0</ele><time>2026-04-05T09:01:55.603Z</time></trkpt><trkpt lat="43.1847042" lon="-8.3985535"><ele>219.0</ele><time>2026-04-05T09:01:56.603Z</time></trkpt><trkpt lat="43.1845882" lon="-8.398592"><ele>218.6</ele><time>2026-04-05T09:01:57.603Z</time></trkpt><trkpt lat="43.1844714" lon="-8.3986413"><ele>218.2</ele><time>2026-04-05T09:01:58.602Z</time></trkpt><trkpt lat="43.1843693" lon="-8.3986708"><ele>217.79999999999998</ele><time>2026-04-05T09:01:59.603Z</time></trkpt><trkpt lat="43.184281" lon="-8.3987522"><ele>217.39999999999998</ele><time>2026-04-05T09:02:00.603Z</time></trkpt><trkpt lat="43.1841957" lon="-8.3988517"><ele>217.0</ele><time>2026-04-05T09:02:01.603Z</time></trkpt><trkpt lat="43.1841279" lon="-8.3989887"><ele>217.0</ele><time>2026-04-05T09:02:02.602Z</time></trkpt><trkpt lat="43.1840533" lon="-8.3991272"><ele>217.0</ele><time>2026-04-05T09:02:03.602Z</time></trkpt><trkpt lat="43.1839852" lon="-8.3992966"><ele>217.0</ele><time>2026-04-05T09:02:04.602Z</time></trkpt><trkpt lat="43.183958" lon="-8.3994595"><ele>217.0</ele><time>2026-04-05T09:02:05.603Z</time></trkpt><trkpt lat="43.1839588" lon="-8.3996075"><ele>218.25</ele><time>2026-04-05T09:02:06.602Z</time></trkpt><trkpt lat="43.1839997" lon="-8.399753"><ele>219.5</ele><time>2026-04-05T09:02:07.603Z</time></trkpt><trkpt lat="43.1840329" lon="-8.3999036"><ele>220.75</ele><time>2026-04-05T09:02:08.603Z</time></trkpt><trkpt lat="43.1840492" lon="-8.4000721"><ele>222.0</ele><time>2026-04-05T09:02:09.603Z</time></trkpt><trkpt lat="43.1840432" lon="-8.4002758"><ele>222.0</ele><time>2026-04-05T09:02:10.603Z</time></trkpt><trkpt lat="43.1840292" lon="-8.4004955"><ele>222.0</ele><time>2026-04-05T09:02:11.602Z</time></trkpt><trkpt lat="43.184029" lon="-8.4007245"><ele>222.0</ele><time>2026-04-05T09:02:12.602Z</time></trkpt><trkpt lat="43.1840143" lon="-8.4009479"><ele>220.75</ele><time>2026-04-05T09:02:13.603Z</time></trkpt><trkpt lat="43.1839886" lon="-8.4011485"><ele>219.5</ele><time>2026-04-05T09:02:14.603Z</time></trkpt><trkpt lat="43.1839409" lon="-8.4013305"><ele>218.25</ele><time>2026-04-05T09:02:15.602Z</time></trkpt><trkpt lat="43.1838636" lon="-8.401494"><ele>217.0</ele><time>2026-04-05T09:02:16.603Z</time></trkpt><trkpt lat="43.1837691" lon="-8.4016594"><ele>217.0</ele><time>2026-04-05T09:02:17.602Z</time></trkpt><trkpt lat="43.1836817" lon="-8.4018319"><ele>217.0</ele><time>2026-04-05T09:02:18.603Z</time></trkpt><trkpt lat="43.183576" lon="-8.4020011"><ele>217.0</ele><time>2026-04-05T09:02:19.602Z</time></trkpt><trkpt lat="43.1834611" lon="-8.402164"><ele>220.33333333333331</ele><time>2026-04-05T09:02:20.603Z</time></trkpt><trkpt lat="43.1833328" lon="-8.4023297"><ele>223.66666666666669</ele><time>2026-04-05T09:02:21.602Z</time></trkpt><trkpt lat="43.1832061" lon="-8.4024862"><ele>227.0</ele><time>2026-04-05T09:02:22.603Z</time></trkpt><trkpt lat="43.183064" lon="-8.4026207"><ele>227.0</ele><time>2026-04-05T09:02:23.603Z</time></trkpt><trkpt lat="43.1829204" lon="-8.402732"><ele>227.0</ele><time>2026-04-05T09:02:24.603Z</time></trkpt><trkpt lat="43.1827824" lon="-8.4028292"><ele>227.0</ele><time>2026-04-05T09:02:25.603Z</time></trkpt><trkpt lat="43.1826501" lon="-8.4029148"><ele>227.0</ele><time>2026-04-05T09:02:26.602Z</time></trkpt><trkpt lat="43.1825383" lon="-8.4029942"><ele>227.0</ele><time>2026-04-05T09:02:27.603Z</time></trkpt><trkpt lat="43.1824453" lon="-8.4030935"><ele>227.0</ele><time>2026-04-05T09:02:28.603Z</time></trkpt><trkpt lat="43.1823785" lon="-8.4032113"><ele>227.0</ele><time>2026-04-05T09:02:29.602Z</time></trkpt><trkpt lat="43.1823504" lon="-8.4033521"><ele>228.5</ele><time>2026-04-05T09:02:30.603Z</time></trkpt><trkpt lat="43.1823601" lon="-8.4034953"><ele>230.0</ele><time>2026-04-05T09:02:31.603Z</time></trkpt><trkpt lat="43.1824109" lon="-8.4036321"><ele>231.5</ele><time>2026-04-05T09:02:32.603Z</time></trkpt><trkpt lat="43.1824955" lon="-8.4037697"><ele>233.0</ele><time>2026-04-05T09:02:33.603Z</time></trkpt><trkpt lat="43.1825889" lon="-8.4039165"><ele>233.0</ele><time>2026-04-05T09:02:34.602Z</time></trkpt><trkpt lat="43.1826953" lon="-8.4040792"><ele>233.0</ele><time>2026-04-05T09:02:35.603Z</time></trkpt><trkpt lat="43.1828043" lon="-8.4042517"><ele>233.0</ele><time>2026-04-05T09:02:36.602Z</time></trkpt><trkpt lat="43.1829152" lon="-8.4044319"><ele>233.0</ele><time>2026-04-05T09:02:37.603Z</time></trkpt><trkpt lat="43.1830157" lon="-8.4046013"><ele>233.0</ele><time>2026-04-05T09:02:38.603Z</time></trkpt><trkpt lat="43.1831156" lon="-8.4047345"><ele>233.0</ele><time>2026-04-05T09:02:39.603Z</time></trkpt><trkpt lat="43.1832298" lon="-8.4048064"><ele>233.0</ele><time>2026-04-05T09:02:40.603Z</time></trkpt><trkpt lat="43.1833679" lon="-8.4048433"><ele>236.33333333333334</ele><time>2026-04-05T09:02:41.603Z</time></trkpt><trkpt lat="43.1835283" lon="-8.4048681"><ele>239.66666666666669</ele><time>2026-04-05T09:02:42.602Z</time></trkpt><trkpt lat="43.1836881" lon="-8.4048913"><ele>243.0</ele><time>2026-04-05T09:02:43.602Z</time></trkpt><trkpt lat="43.1838346" lon="-8.4049258"><ele>243.0</ele><time>2026-04-05T09:02:44.603Z</time></trkpt><trkpt lat="43.1839664" lon="-8.4049934"><ele>243.0</ele><time>2026-04-05T09:02:45.603Z</time></trkpt><trkpt lat="43.1840821" lon="-8.4051065"><ele>243.0</ele><time>2026-04-05T09:02:46.602Z</time></trkpt><trkpt lat="43.1841955" lon="-8.405233"><ele>243.0</ele><time>2026-04-05T09:02:47.603Z</time></trkpt><trkpt lat="43.1843078" lon="-8.405354"><ele>243.0</ele><time>2026-04-05T09:02:48.603Z</time></trkpt><trkpt lat="43.1844243" lon="-8.4054514"><ele>243.0</ele><time>2026-04-05T09:02:49.603Z</time></trkpt><trkpt lat="43.1845469" lon="-8.4055429"><ele>243.0</ele><time>2026-04-05T09:02:50.602Z</time></trkpt><trkpt lat="43.1846612" lon="-8.4056603"><ele>243.0</ele><time>2026-04-05T09:02:51.603Z</time></trkpt><trkpt lat="43.1847558" lon="-8.405815"><ele>243.0</ele><time>2026-04-05T09:02:52.603Z</time></trkpt><trkpt lat="43.1848324" lon="-8.4059659"><ele>243.0</ele><time>2026-04-05T09:02:53.603Z</time></trkpt><trkpt lat="43.1849118" lon="-8.4060959"><ele>243.0</ele><time>2026-04-05T09:02:54.602Z</time></trkpt><trkpt lat="43.18501" lon="-8.4061884"><ele>243.0</ele><time>2026-04-05T09:02:55.603Z</time></trkpt><trkpt lat="43.1851344" lon="-8.406238"><ele>246.25</ele><time>2026-04-05T09:02:56.603Z</time></trkpt><trkpt lat="43.1852665" lon="-8.4062556"><ele>249.5</ele><time>2026-04-05T09:02:57.603Z</time></trkpt><trkpt lat="43.1854053" lon="-8.4062551"><ele>252.75</ele><time>2026-04-05T09:02:58.603Z</time></trkpt><trkpt lat="43.1855278" lon="-8.4061661"><ele>256.0</ele><time>2026-04-05T09:02:59.603Z</time></trkpt><trkpt lat="43.1856562" lon="-8.4060802"><ele>257.5</ele><time>2026-04-05T09:03:00.602Z</time></trkpt><trkpt lat="43.1857851" lon="-8.4059776"><ele>259.0</ele><time>2026-04-05T09:03:01.602Z</time></trkpt><trkpt lat="43.1859135" lon="-8.405875"><ele>260.5</ele><time>2026-04-05T09:03:02.602Z</time></trkpt><trkpt lat="43.186038" lon="-8.4057831"><ele>262.0</ele><time>2026-04-05T09:03:03.602Z</time></trkpt><trkpt lat="43.1861716" lon="-8.4057353"><ele>262.0</ele><time>2026-04-05T09:03:04.603Z</time></trkpt><trkpt lat="43.1863167" lon="-8.4057238"><ele>262.0</ele><time>2026-04-05T09:03:05.603Z</time></trkpt><trkpt lat="43.1864616" lon="-8.4057534"><ele>262.0</ele><time>2026-04-05T09:03:06.603Z</time></trkpt><trkpt lat="43.1865994" lon="-8.4058212"><ele>262.0</ele><time>2026-04-05T09:03:07.602Z</time></trkpt><trkpt lat="43.1867255" lon="-8.4059266"><ele>264.0</ele><time>2026-04-05T09:03:08.603Z</time></trkpt><trkpt lat="43.1868341" lon="-8.4060417"><ele>266.0</ele><time>2026-04-05T09:03:09.603Z</time></trkpt><trkpt lat="43.1869355" lon="-8.4061451"><ele>268.0</ele><time>2026-04-05T09:03:10.603Z</time></trkpt><trkpt lat="43.187039" lon="-8.4062106"><ele>270.0</ele><time>2026-04-05T09:03:11.603Z</time></trkpt><trkpt lat="43.1871488" lon="-8.4062474"><ele>270.0</ele><time>2026-04-05T09:03:12.603Z</time></trkpt><trkpt lat="43.1872563" lon="-8.4062518"><ele>270.0</ele><time>2026-04-05T09:03:13.602Z</time></trkpt><trkpt lat="43.1873635" lon="-8.4062425"><ele>270.0</ele><time>2026-04-05T09:03:14.602Z</time></trkpt><trkpt lat="43.1874653" lon="-8.4062211"><ele>270.0</ele><time>2026-04-05T09:03:15.603Z</time></trkpt><trkpt lat="43.1875653" lon="-8.4061903"><ele>270.0</ele><time>2026-04-05T09:03:16.602Z</time></trkpt><trkpt lat="43.187666" lon="-8.4061614"><ele>271.2</ele><time>2026-04-05T09:03:17.602Z</time></trkpt><trkpt lat="43.187765" lon="-8.4061365"><ele>272.4</ele><time>2026-04-05T09:03:18.603Z</time></trkpt><trkpt lat="43.1878686" lon="-8.4061054"><ele>273.6</ele><time>2026-04-05T09:03:19.603Z</time></trkpt><trkpt lat="43.187968" lon="-8.4060696"><ele>274.8</ele><time>2026-04-05T09:03:20.603Z</time></trkpt><trkpt lat="43.188066" lon="-8.4060516"><ele>276.0</ele><time>2026-04-05T09:03:21.603Z</time></trkpt><trkpt lat="43.1881719" lon="-8.4060455"><ele>274.8</ele><time>2026-04-05T09:03:22.603Z</time></trkpt><trkpt lat="43.1882774" lon="-8.4060481"><ele>273.6</ele><time>2026-04-05T09:03:23.602Z</time></trkpt><trkpt lat="43.1883864" lon="-8.4060735"><ele>272.4</ele><time>2026-04-05T09:03:24.603Z</time></trkpt><trkpt lat="43.1884846" lon="-8.4061057"><ele>271.2</ele><time>2026-04-05T09:03:25.602Z</time></trkpt><trkpt lat="43.1885847" lon="-8.4061461"><ele>270.0</ele><time>2026-04-05T09:03:26.603Z</time></trkpt><trkpt lat="43.1886656" lon="-8.4062392"><ele>265.4</ele><time>2026-04-05T09:03:27.603Z</time></trkpt><trkpt lat="43.1887035" lon="-8.4063927"><ele>260.8</ele><time>2026-04-05T09:03:28.602Z</time></trkpt><trkpt lat="43.1887482" lon="-8.4065351"><ele>256.2</ele><time>2026-04-05T09:03:29.602Z</time></trkpt><trkpt lat="43.1887871" lon="-8.4066665"><ele>251.6</ele><time>2026-04-05T09:03:30.603Z</time></trkpt><trkpt lat="43.1888253" lon="-8.4067802"><ele>247.0</ele><time>2026-04-05T09:03:31.603Z</time></trkpt><trkpt lat="43.1888825" lon="-8.4068877"><ele>247.0</ele><time>2026-04-05T09:03:32.603Z</time></trkpt><trkpt lat="43.1889596" lon="-8.4069729"><ele>247.0</ele><time>2026-04-05T09:03:33.602Z</time></trkpt><trkpt lat="43.1890471" lon="-8.4070402"><ele>247.0</ele><time>2026-04-05T09:03:34.603Z</time></trkpt><trkpt lat="43.1891563" lon="-8.4070641"><ele>247.0</ele><time>2026-04-05T09:03:35.603Z</time></trkpt><trkpt lat="43.1892658" lon="-8.4070741"><ele>247.0</ele><time>2026-04-05T09:03:36.603Z</time></trkpt><trkpt lat="43.1893722" lon="-8.4070659"><ele>249.8</ele><time>2026-04-05T09:03:37.603Z</time></trkpt><trkpt lat="43.1894771" lon="-8.407014"><ele>252.6</ele><time>2026-04-05T09:03:38.602Z</time></trkpt><trkpt lat="43.1895776" lon="-8.4069467"><ele>255.40000000000003</ele><time>2026-04-05T09:03:39.602Z</time></trkpt><trkpt lat="43.1896632" lon="-8.4068528"><ele>258.2</ele><time>2026-04-05T09:03:40.603Z</time></trkpt><trkpt lat="43.1897282" lon="-8.4067434"><ele>261.0</ele><time>2026-04-05T09:03:41.603Z</time></trkpt><trkpt lat="43.1898058" lon="-8.4066513"><ele>261.0</ele><time>2026-04-05T09:03:42.602Z</time></trkpt><trkpt lat="43.1898408" lon="-8.4065243"><ele>261.0</ele><time>2026-04-05T09:03:43.603Z</time></trkpt><trkpt lat="43.1898926" lon="-8.4064084"><ele>261.0</ele><time>2026-04-05T09:03:44.603Z</time></trkpt><trkpt lat="43.1899518" lon="-8.4063005"><ele>261.0</ele><time>2026-04-05T09:03:45.603Z</time></trkpt><trkpt lat="43.1900133" lon="-8.4061977"><ele>261.0</ele><time>2026-04-05T09:03:46.601Z</time></trkpt><trkpt lat="43.190068" lon="-8.4060767"><ele>261.6</ele><time>2026-04-05T09:03:47.603Z</time></trkpt><trkpt lat="43.1901175" lon="-8.4059572"><ele>262.20000000000005</ele><time>2026-04-05T09:03:48.602Z</time></trkpt><trkpt lat="43.1901608" lon="-8.4058251"><ele>262.79999999999995</ele><time>2026-04-05T09:03:49.603Z</time></trkpt><trkpt lat="43.1901981" lon="-8.4056962"><ele>263.4</ele><time>2026-04-05T09:03:50.603Z</time></trkpt><trkpt lat="43.1902347" lon="-8.4055654"><ele>264.0</ele><time>2026-04-05T09:03:51.603Z</time></trkpt><trkpt lat="43.1902727" lon="-8.4054356"><ele>264.0</ele><time>2026-04-05T09:03:52.603Z</time></trkpt><trkpt lat="43.1903132" lon="-8.405312"><ele>264.0</ele><time>2026-04-05T09:03:53.603Z</time></trkpt><trkpt lat="43.1903504" lon="-8.405194"><ele>264.0</ele><time>2026-04-05T09:03:54.602Z</time></trkpt><trkpt lat="43.1903875" lon="-8.4050776"><ele>264.0</ele><time>2026-04-05T09:03:55.602Z</time></trkpt><trkpt lat="43.1904259" lon="-8.4049616"><ele>264.0</ele><time>2026-04-05T09:03:56.603Z</time></trkpt><trkpt lat="43.1904667" lon="-8.4048542"><ele>264.0</ele><time>2026-04-05T09:03:57.603Z</time></trkpt><trkpt lat="43.1905133" lon="-8.4047485"><ele>264.0</ele><time>2026-04-05T09:03:58.602Z</time></trkpt><trkpt lat="43.1905779" lon="-8.4046599"><ele>264.0</ele><time>2026-04-05T09:03:59.603Z</time></trkpt><trkpt lat="43.1906531" lon="-8.4045929"><ele>264.0</ele><time>2026-04-05T09:04:00.603Z</time></trkpt><trkpt lat="43.1907382" lon="-8.4045362"><ele>264.0</ele><time>2026-04-05T09:04:01.603Z</time></trkpt><trkpt lat="43.1908326" lon="-8.4044884"><ele>264.4</ele><time>2026-04-05T09:04:02.603Z</time></trkpt><trkpt lat="43.190926" lon="-8.4044417"><ele>264.79999999999995</ele><time>2026-04-05T09:04:03.603Z</time></trkpt><trkpt lat="43.1910245" lon="-8.4043945"><ele>265.20000000000005</ele><time>2026-04-05T09:04:04.603Z</time></trkpt><trkpt lat="43.1911119" lon="-8.4043491"><ele>265.6</ele><time>2026-04-05T09:04:05.603Z</time></trkpt><trkpt lat="43.1911938" lon="-8.4043015"><ele>266.0</ele><time>2026-04-05T09:04:06.603Z</time></trkpt><trkpt lat="43.1912845" lon="-8.4042559"><ele>266.0</ele><time>2026-04-05T09:04:07.603Z</time></trkpt><trkpt lat="43.1913636" lon="-8.4042261"><ele>266.0</ele><time>2026-04-05T09:04:08.602Z</time></trkpt><trkpt lat="43.1914328" lon="-8.4042172"><ele>266.0</ele><time>2026-04-05T09:04:09.603Z</time></trkpt><trkpt lat="43.191496" lon="-8.4042237"><ele>266.0</ele><time>2026-04-05T09:04:10.602Z</time></trkpt><trkpt lat="43.191579" lon="-8.4042969"><ele>266.0</ele><time>2026-04-05T09:04:11.603Z</time></trkpt><trkpt lat="43.1916355" lon="-8.4043777"><ele>266.0</ele><time>2026-04-05T09:04:12.602Z</time></trkpt><trkpt lat="43.1916852" lon="-8.404463"><ele>265.25</ele><time>2026-04-05T09:04:13.602Z</time></trkpt><trkpt lat="43.1917499" lon="-8.4046182"><ele>264.5</ele><time>2026-04-05T09:04:14.603Z</time></trkpt><trkpt lat="43.1917929" lon="-8.4048017"><ele>263.75</ele><time>2026-04-05T09:04:15.603Z</time></trkpt><trkpt lat="43.1917718" lon="-8.4049523"><ele>263.0</ele><time>2026-04-05T09:04:16.602Z</time></trkpt><trkpt lat="43.1917754" lon="-8.4050954"><ele>261.6</ele><time>2026-04-05T09:04:17.603Z</time></trkpt><trkpt lat="43.1918015" lon="-8.4052165"><ele>260.20000000000005</ele><time>2026-04-05T09:04:18.603Z</time></trkpt><trkpt lat="43.1918423" lon="-8.4053268"><ele>258.8</ele><time>2026-04-05T09:04:19.603Z</time></trkpt><trkpt lat="43.1918924" lon="-8.4054404"><ele>257.40000000000003</ele><time>2026-04-05T09:04:20.602Z</time></trkpt><trkpt lat="43.1919614" lon="-8.4055523"><ele>256.0</ele><time>2026-04-05T09:04:21.603Z</time></trkpt><trkpt lat="43.1920322" lon="-8.4056639"><ele>255.8</ele><time>2026-04-05T09:04:22.603Z</time></trkpt><trkpt lat="43.1921226" lon="-8.4057319"><ele>255.60000000000002</ele><time>2026-04-05T09:04:23.602Z</time></trkpt><trkpt lat="43.1922205" lon="-8.4057782"><ele>255.4</ele><time>2026-04-05T09:04:24.603Z</time></trkpt><trkpt lat="43.192328" lon="-8.4057776"><ele>255.2</ele><time>2026-04-05T09:04:25.603Z</time></trkpt><trkpt lat="43.1924466" lon="-8.4057609"><ele>255.0</ele><time>2026-04-05T09:04:26.602Z</time></trkpt><trkpt lat="43.1925752" lon="-8.4057441"><ele>255.0</ele><time>2026-04-05T09:04:27.602Z</time></trkpt><trkpt lat="43.1927077" lon="-8.4057216"><ele>255.0</ele><time>2026-04-05T09:04:28.603Z</time></trkpt><trkpt lat="43.1928461" lon="-8.4057049"><ele>255.0</ele><time>2026-04-05T09:04:29.602Z</time></trkpt><trkpt lat="43.1929825" lon="-8.4056815"><ele>255.0</ele><time>2026-04-05T09:04:30.603Z</time></trkpt><trkpt lat="43.1931175" lon="-8.4056572"><ele>255.25</ele><time>2026-04-05T09:04:31.603Z</time></trkpt><trkpt lat="43.1932529" lon="-8.4056347"><ele>255.5</ele><time>2026-04-05T09:04:32.603Z</time></trkpt><trkpt lat="43.1933808" lon="-8.4056134"><ele>255.75</ele><time>2026-04-05T09:04:33.603Z</time></trkpt><trkpt lat="43.1935107" lon="-8.4055824"><ele>256.0</ele><time>2026-04-05T09:04:34.602Z</time></trkpt><trkpt lat="43.1936377" lon="-8.4055581"><ele>256.0</ele><time>2026-04-05T09:04:35.602Z</time></trkpt><trkpt lat="43.1937536" lon="-8.4055367"><ele>256.0</ele><time>2026-04-05T09:04:36.603Z</time></trkpt><trkpt lat="43.1938648" lon="-8.4055069"><ele>256.0</ele><time>2026-04-05T09:04:37.602Z</time></trkpt><trkpt lat="43.193953" lon="-8.4054742"><ele>256.0</ele><time>2026-04-05T09:04:38.603Z</time></trkpt><trkpt lat="43.1940426" lon="-8.4054548"><ele>256.0</ele><time>2026-04-05T09:04:39.603Z</time></trkpt><trkpt lat="43.1941189" lon="-8.4054005"><ele>259.8</ele><time>2026-04-05T09:04:40.603Z</time></trkpt><trkpt lat="43.1942004" lon="-8.4053416"><ele>263.6</ele><time>2026-04-05T09:04:41.603Z</time></trkpt><trkpt lat="43.1942943" lon="-8.4052975"><ele>267.4</ele><time>2026-04-05T09:04:42.603Z</time></trkpt><trkpt lat="43.1944016" lon="-8.405248"><ele>271.2</ele><time>2026-04-05T09:04:43.603Z</time></trkpt><trkpt lat="43.1945164" lon="-8.4051941"><ele>275.0</ele><time>2026-04-05T09:04:44.603Z</time></trkpt><trkpt lat="43.1946404" lon="-8.4051351"><ele>275.0</ele><time>2026-04-05T09:04:45.602Z</time></trkpt><trkpt lat="43.1947682" lon="-8.4050622"><ele>275.0</ele><time>2026-04-05T09:04:46.603Z</time></trkpt><trkpt lat="43.1949072" lon="-8.4049657"><ele>275.0</ele><time>2026-04-05T09:04:47.603Z</time></trkpt><trkpt lat="43.1950487" lon="-8.404847"><ele>273.6666666666667</ele><time>2026-04-05T09:04:48.602Z</time></trkpt><trkpt lat="43.1951891" lon="-8.4047273"><ele>272.3333333333333</ele><time>2026-04-05T09:04:49.602Z</time></trkpt><trkpt lat="43.1953416" lon="-8.4045579"><ele>271.0</ele><time>2026-04-05T09:04:50.603Z</time></trkpt><trkpt lat="43.1954944" lon="-8.4043751"><ele>273.3333333333333</ele><time>2026-04-05T09:04:51.602Z</time></trkpt><trkpt lat="43.1956478" lon="-8.4041943"><ele>275.6666666666667</ele><time>2026-04-05T09:04:52.603Z</time></trkpt><trkpt lat="43.1958114" lon="-8.4040177"><ele>278.0</ele><time>2026-04-05T09:04:53.603Z</time></trkpt><trkpt lat="43.195993" lon="-8.4038715"><ele>284.33333333333337</ele><time>2026-04-05T09:04:54.603Z</time></trkpt><trkpt lat="43.1961601" lon="-8.4037152"><ele>290.6666666666667</ele><time>2026-04-05T09:04:55.603Z</time></trkpt><trkpt lat="43.196382" lon="-8.4036721"><ele>297.0</ele><time>2026-04-05T09:04:56.602Z</time></trkpt><trkpt lat="43.1965962" lon="-8.4036516"><ele>297.0</ele><time>2026-04-05T09:04:57.603Z</time></trkpt><trkpt lat="43.1968199" lon="-8.403659"><ele>297.0</ele><time>2026-04-05T09:04:58.603Z</time></trkpt><trkpt lat="43.1970436" lon="-8.4036786"><ele>297.0</ele><time>2026-04-05T09:04:59.603Z</time></trkpt><trkpt lat="43.1972697" lon="-8.4036816"><ele>300.0</ele><time>2026-04-05T09:05:00.603Z</time></trkpt><trkpt lat="43.19748" lon="-8.4036623"><ele>303.0</ele><time>2026-04-05T09:05:01.603Z</time></trkpt><trkpt lat="43.1976925" lon="-8.4035755"><ele>306.0</ele><time>2026-04-05T09:05:02.602Z</time></trkpt><trkpt lat="43.1978966" lon="-8.4034547"><ele>306.0</ele><time>2026-04-05T09:05:03.603Z</time></trkpt><trkpt lat="43.1980848" lon="-8.4032929"><ele>306.0</ele><time>2026-04-05T09:05:04.602Z</time></trkpt><trkpt lat="43.1982603" lon="-8.4030918"><ele>312.5</ele><time>2026-04-05T09:05:05.603Z</time></trkpt><trkpt lat="43.1984228" lon="-8.4028555"><ele>319.0</ele><time>2026-04-05T09:05:06.602Z</time></trkpt><trkpt lat="43.198588" lon="-8.4026084"><ele>319.0</ele><time>2026-04-05T09:05:07.603Z</time></trkpt><trkpt lat="43.1987594" lon="-8.4023672"><ele>319.0</ele><time>2026-04-05T09:05:08.603Z</time></trkpt><trkpt lat="43.19892" lon="-8.402135"><ele>321.3333333333333</ele><time>2026-04-05T09:05:09.602Z</time></trkpt><trkpt lat="43.199068" lon="-8.4019157"><ele>323.6666666666667</ele><time>2026-04-05T09:05:10.603Z</time></trkpt><trkpt lat="43.1992119" lon="-8.4017121"><ele>326.0</ele><time>2026-04-05T09:05:11.602Z</time></trkpt><trkpt lat="43.1993637" lon="-8.4015418"><ele>326.0</ele><time>2026-04-05T09:05:12.602Z</time></trkpt><trkpt lat="43.1995491" lon="-8.4014253"><ele>326.0</ele><time>2026-04-05T09:05:13.603Z</time></trkpt><trkpt lat="43.1997382" lon="-8.4013488"><ele>326.0</ele><time>2026-04-05T09:05:14.603Z</time></trkpt><trkpt lat="43.1999392" lon="-8.4013089"><ele>326.6666666666667</ele><time>2026-04-05T09:05:15.603Z</time></trkpt><trkpt lat="43.2001379" lon="-8.4012865"><ele>327.3333333333333</ele><time>2026-04-05T09:05:16.603Z</time></trkpt><trkpt lat="43.2002839" lon="-8.4013461"><ele>328.0</ele><time>2026-04-05T09:05:17.603Z</time></trkpt><trkpt lat="43.2004874" lon="-8.401453"><ele>331.5</ele><time>2026-04-05T09:05:18.603Z</time></trkpt><trkpt lat="43.2007246" lon="-8.4016091"><ele>335.0</ele><time>2026-04-05T09:05:19.602Z</time></trkpt><trkpt lat="43.2009469" lon="-8.4016831"><ele>335.0</ele><time>2026-04-05T09:05:20.603Z</time></trkpt><trkpt lat="43.2011848" lon="-8.401691"><ele>335.0</ele><time>2026-04-05T09:05:21.603Z</time></trkpt><trkpt lat="43.2014142" lon="-8.4016345"><ele>335.5</ele><time>2026-04-05T09:05:22.603Z</time></trkpt><trkpt lat="43.2016455" lon="-8.4015177"><ele>336.0</ele><time>2026-04-05T09:05:23.603Z</time></trkpt><trkpt lat="43.2018842" lon="-8.4013704"><ele>345.5</ele><time>2026-04-05T09:05:24.603Z</time></trkpt><trkpt lat="43.2021326" lon="-8.4012024"><ele>355.0</ele><time>2026-04-05T09:05:25.602Z</time></trkpt><trkpt lat="43.2023819" lon="-8.4010425"><ele>355.0</ele><time>2026-04-05T09:05:26.603Z</time></trkpt><trkpt lat="43.2026355" lon="-8.4008843"><ele>355.0</ele><time>2026-04-05T09:05:27.603Z</time></trkpt><trkpt lat="43.202894" lon="-8.4007237"><ele>355.0</ele><time>2026-04-05T09:05:28.602Z</time></trkpt><trkpt lat="43.2031376" lon="-8.400562"><ele>355.0</ele><time>2026-04-05T09:05:29.603Z</time></trkpt><trkpt lat="43.2033662" lon="-8.4004082"><ele>357.0</ele><time>2026-04-05T09:05:30.603Z</time></trkpt><trkpt lat="43.2035845" lon="-8.4002733"><ele>359.0</ele><time>2026-04-05T09:05:31.603Z</time></trkpt><trkpt lat="43.2037902" lon="-8.4001453"><ele>359.0</ele><time>2026-04-05T09:05:32.603Z</time></trkpt><trkpt lat="43.2039806" lon="-8.4000228"><ele>359.0</ele><time>2026-04-05T09:05:33.603Z</time></trkpt><trkpt lat="43.2041593" lon="-8.3999107"><ele>359.0</ele><time>2026-04-05T09:05:34.603Z</time></trkpt><trkpt lat="43.2043229" lon="-8.3998345"><ele>356.6666666666667</ele><time>2026-04-05T09:05:35.602Z</time></trkpt><trkpt lat="43.2044912" lon="-8.3997684"><ele>354.3333333333333</ele><time>2026-04-05T09:05:36.603Z</time></trkpt><trkpt lat="43.2046468" lon="-8.3997463"><ele>352.0</ele><time>2026-04-05T09:05:37.603Z</time></trkpt><trkpt lat="43.2047706" lon="-8.3997871"><ele>350.0</ele><time>2026-04-05T09:05:38.602Z</time></trkpt><trkpt lat="43.2049593" lon="-8.3998705"><ele>348.0</ele><time>2026-04-05T09:05:39.602Z</time></trkpt><trkpt lat="43.2051393" lon="-8.4000127"><ele>346.0</ele><time>2026-04-05T09:05:40.602Z</time></trkpt><trkpt lat="43.2052785" lon="-8.40021"><ele>349.66666666666663</ele><time>2026-04-05T09:05:41.603Z</time></trkpt><trkpt lat="43.2053482" lon="-8.400513"><ele>353.3333333333333</ele><time>2026-04-05T09:05:42.602Z</time></trkpt><trkpt lat="43.2053373" lon="-8.400792"><ele>357.0</ele><time>2026-04-05T09:05:43.602Z</time></trkpt><trkpt lat="43.2053094" lon="-8.4010953"><ele>362.0</ele><time>2026-04-05T09:05:44.603Z</time></trkpt><trkpt lat="43.205248" lon="-8.4013948"><ele>367.0</ele><time>2026-04-05T09:05:45.603Z</time></trkpt><trkpt lat="43.2051361" lon="-8.4017701"><ele>367.0</ele><time>2026-04-05T09:05:46.603Z</time></trkpt><trkpt lat="43.2050926" lon="-8.4020895"><ele>367.0</ele><time>2026-04-05T09:05:47.603Z</time></trkpt><trkpt lat="43.2051256" lon="-8.4023728"><ele>367.0</ele><time>2026-04-05T09:05:48.602Z</time></trkpt><trkpt lat="43.2051802" lon="-8.4026436"><ele>371.0</ele><time>2026-04-05T09:05:49.603Z</time></trkpt><trkpt lat="43.2052885" lon="-8.4028879"><ele>375.0</ele><time>2026-04-05T09:05:50.603Z</time></trkpt><trkpt lat="43.2054364" lon="-8.4030855"><ele>379.0</ele><time>2026-04-05T09:05:51.602Z</time></trkpt><trkpt lat="43.2056232" lon="-8.4032316"><ele>386.0</ele><time>2026-04-05T09:05:52.602Z</time></trkpt><trkpt lat="43.2058412" lon="-8.4033303"><ele>393.0</ele><time>2026-04-05T09:05:53.602Z</time></trkpt><trkpt lat="43.2060774" lon="-8.403419"><ele>393.0</ele><time>2026-04-05T09:05:54.603Z</time></trkpt><trkpt lat="43.2063132" lon="-8.4035259"><ele>393.0</ele><time>2026-04-05T09:05:55.603Z</time></trkpt><trkpt lat="43.2065314" lon="-8.403665"><ele>396.5</ele><time>2026-04-05T09:05:56.603Z</time></trkpt><trkpt lat="43.2067242" lon="-8.403827"><ele>400.0</ele><time>2026-04-05T09:05:57.603Z</time></trkpt><trkpt lat="43.2068828" lon="-8.4040653"><ele>402.0</ele><time>2026-04-05T09:05:58.602Z</time></trkpt><trkpt lat="43.2070302" lon="-8.4043013"><ele>404.0</ele><time>2026-04-05T09:05:59.603Z</time></trkpt><trkpt lat="43.2071196" lon="-8.404614"><ele>406.0</ele><time>2026-04-05T09:06:00.603Z</time></trkpt><trkpt lat="43.2071975" lon="-8.4049334"><ele>408.0</ele><time>2026-04-05T09:06:01.603Z</time></trkpt><trkpt lat="43.2072481" lon="-8.4053023"><ele>410.0</ele><time>2026-04-05T09:06:02.603Z</time></trkpt><trkpt lat="43.207296" lon="-8.4056842"><ele>412.0</ele><time>2026-04-05T09:06:03.603Z</time></trkpt><trkpt lat="43.2073428" lon="-8.4060748"><ele>414.5</ele><time>2026-04-05T09:06:04.603Z</time></trkpt><trkpt lat="43.2073895" lon="-8.4064631"><ele>417.0</ele><time>2026-04-05T09:06:05.602Z</time></trkpt><trkpt lat="43.2074332" lon="-8.4068399"><ele>418.5</ele><time>2026-04-05T09:06:06.603Z</time></trkpt><trkpt lat="43.2074798" lon="-8.407214"><ele>420.0</ele><time>2026-04-05T09:06:07.603Z</time></trkpt><trkpt lat="43.207523" lon="-8.4075873"><ele>420.0</ele><time>2026-04-05T09:06:08.603Z</time></trkpt><trkpt lat="43.2075672" lon="-8.407952"><ele>420.0</ele><time>2026-04-05T09:06:09.603Z</time></trkpt><trkpt lat="43.2076079" lon="-8.4083056"><ele>420.5</ele><time>2026-04-05T09:06:10.602Z</time></trkpt><trkpt lat="43.2076472" lon="-8.4086514"><ele>421.0</ele><time>2026-04-05T09:06:11.603Z</time></trkpt><trkpt lat="43.2076869" lon="-8.4089848"><ele>422.0</ele><time>2026-04-05T09:06:12.603Z</time></trkpt><trkpt lat="43.2077454" lon="-8.4093006"><ele>423.0</ele><time>2026-04-05T09:06:13.603Z</time></trkpt><trkpt lat="43.2078192" lon="-8.4095911"><ele>422.0</ele><time>2026-04-05T09:06:14.602Z</time></trkpt><trkpt lat="43.2079214" lon="-8.4098498"><ele>421.0</ele><time>2026-04-05T09:06:15.603Z</time></trkpt><trkpt lat="43.2080382" lon="-8.4100759"><ele>420.0</ele><time>2026-04-05T09:06:16.602Z</time></trkpt><trkpt lat="43.2081752" lon="-8.4102758"><ele>423.66666666666663</ele><time>2026-04-05T09:06:17.603Z</time></trkpt><trkpt lat="43.2083414" lon="-8.4104486"><ele>427.3333333333333</ele><time>2026-04-05T09:06:18.603Z</time></trkpt><trkpt lat="43.2085277" lon="-8.4106032"><ele>431.0</ele><time>2026-04-05T09:06:19.603Z</time></trkpt><trkpt lat="43.2087259" lon="-8.4107508"><ele>431.0</ele><time>2026-04-05T09:06:20.603Z</time></trkpt><trkpt lat="43.2089184" lon="-8.4109135"><ele>431.0</ele><time>2026-04-05T09:06:21.602Z</time></trkpt><trkpt lat="43.2090994" lon="-8.4111007"><ele>432.5</ele><time>2026-04-05T09:06:22.602Z</time></trkpt><trkpt lat="43.2092605" lon="-8.4113214"><ele>434.0</ele><time>2026-04-05T09:06:23.602Z</time></trkpt><trkpt lat="43.2093965" lon="-8.4115769"><ele>434.0</ele><time>2026-04-05T09:06:24.602Z</time></trkpt><trkpt lat="43.2094975" lon="-8.4118635"><ele>434.0</ele><time>2026-04-05T09:06:25.603Z</time></trkpt><trkpt lat="43.2095625" lon="-8.412173"><ele>433.5</ele><time>2026-04-05T09:06:26.603Z</time></trkpt><trkpt lat="43.2095906" lon="-8.4124993"><ele>433.0</ele><time>2026-04-05T09:06:27.603Z</time></trkpt><trkpt lat="43.2095875" lon="-8.4128378"><ele>434.5</ele><time>2026-04-05T09:06:28.603Z</time></trkpt><trkpt lat="43.209572" lon="-8.4131814"><ele>436.0</ele><time>2026-04-05T09:06:29.603Z</time></trkpt><trkpt lat="43.2095601" lon="-8.4135223"><ele>438.0</ele><time>2026-04-05T09:06:30.603Z</time></trkpt><trkpt lat="43.2095673" lon="-8.4138659"><ele>440.0</ele><time>2026-04-05T09:06:31.602Z</time></trkpt><trkpt lat="43.2096022" lon="-8.4142108"><ele>440.0</ele><time>2026-04-05T09:06:32.603Z</time></trkpt><trkpt lat="43.2096612" lon="-8.4145472"><ele>440.0</ele><time>2026-04-05T09:06:33.603Z</time></trkpt><trkpt lat="43.2097269" lon="-8.4148672"><ele>441.5</ele><time>2026-04-05T09:06:34.603Z</time></trkpt><trkpt lat="43.2097941" lon="-8.415179"><ele>443.0</ele><time>2026-04-05T09:06:35.603Z</time></trkpt><trkpt lat="43.2098424" lon="-8.4154956"><ele>446.5</ele><time>2026-04-05T09:06:36.603Z</time></trkpt><trkpt lat="43.2098689" lon="-8.4158218"><ele>450.0</ele><time>2026-04-05T09:06:37.603Z</time></trkpt><trkpt lat="43.2098725" lon="-8.4161555"><ele>451.0</ele><time>2026-04-05T09:06:38.603Z</time></trkpt><trkpt lat="43.209858" lon="-8.4164911"><ele>452.0</ele><time>2026-04-05T09:06:39.603Z</time></trkpt><trkpt lat="43.2098385" lon="-8.4168104"><ele>452.66666666666663</ele><time>2026-04-05T09:06:40.603Z</time></trkpt><trkpt lat="43.2098226" lon="-8.4171113"><ele>453.33333333333337</ele><time>2026-04-05T09:06:41.602Z</time></trkpt><trkpt lat="43.2098188" lon="-8.4173996"><ele>454.0</ele><time>2026-04-05T09:06:42.603Z</time></trkpt><trkpt lat="43.209827" lon="-8.417676"><ele>454.0</ele><time>2026-04-05T09:06:43.603Z</time></trkpt><trkpt lat="43.2098469" lon="-8.4179466"><ele>454.0</ele><time>2026-04-05T09:06:44.602Z</time></trkpt><trkpt lat="43.2098826" lon="-8.4182144"><ele>454.0</ele><time>2026-04-05T09:06:45.603Z</time></trkpt><trkpt lat="43.2099415" lon="-8.4184866"><ele>451.33333333333337</ele><time>2026-04-05T09:06:46.603Z</time></trkpt><trkpt lat="43.2100257" lon="-8.4187601"><ele>448.66666666666663</ele><time>2026-04-05T09:06:47.603Z</time></trkpt><trkpt lat="43.2101362" lon="-8.4190356"><ele>446.0</ele><time>2026-04-05T09:06:48.603Z</time></trkpt><trkpt lat="43.2102657" lon="-8.4193012"><ele>440.0</ele><time>2026-04-05T09:06:49.603Z</time></trkpt><trkpt lat="43.210405" lon="-8.4195514"><ele>434.0</ele><time>2026-04-05T09:06:50.603Z</time></trkpt><trkpt lat="43.2105393" lon="-8.4198016"><ele>433.0</ele><time>2026-04-05T09:06:51.602Z</time></trkpt><trkpt lat="43.2106533" lon="-8.4200591"><ele>432.0</ele><time>2026-04-05T09:06:52.603Z</time></trkpt><trkpt lat="43.2107283" lon="-8.4203361"><ele>431.0</ele><time>2026-04-05T09:06:53.603Z</time></trkpt><trkpt lat="43.2107651" lon="-8.4206343"><ele>428.0</ele><time>2026-04-05T09:06:54.603Z</time></trkpt><trkpt lat="43.2107676" lon="-8.4209368"><ele>425.0</ele><time>2026-04-05T09:06:55.602Z</time></trkpt><trkpt lat="43.2107271" lon="-8.4212445"><ele>422.0</ele><time>2026-04-05T09:06:56.603Z</time></trkpt><trkpt lat="43.2106437" lon="-8.4215387"><ele>411.5</ele><time>2026-04-05T09:06:57.602Z</time></trkpt><trkpt lat="43.2105313" lon="-8.4218143"><ele>401.0</ele><time>2026-04-05T09:06:58.603Z</time></trkpt><trkpt lat="43.2104094" lon="-8.4220726"><ele>401.0</ele><time>2026-04-05T09:06:59.603Z</time></trkpt><trkpt lat="43.2103154" lon="-8.4223342"><ele>401.0</ele><time>2026-04-05T09:07:00.603Z</time></trkpt><trkpt lat="43.2102561" lon="-8.4225992"><ele>401.0</ele><time>2026-04-05T09:07:01.603Z</time></trkpt><trkpt lat="43.2102344" lon="-8.4228708"><ele>401.0</ele><time>2026-04-05T09:07:02.602Z</time></trkpt><trkpt lat="43.2102516" lon="-8.4231449"><ele>401.0</ele><time>2026-04-05T09:07:03.603Z</time></trkpt><trkpt lat="43.2103008" lon="-8.4234048"><ele>401.0</ele><time>2026-04-05T09:07:04.603Z</time></trkpt><trkpt lat="43.2103678" lon="-8.4236432"><ele>397.66666666666663</ele><time>2026-04-05T09:07:05.602Z</time></trkpt><trkpt lat="43.2104512" lon="-8.4238654"><ele>394.33333333333337</ele><time>2026-04-05T09:07:06.602Z</time></trkpt><trkpt lat="43.2105333" lon="-8.4240956"><ele>391.0</ele><time>2026-04-05T09:07:07.603Z</time></trkpt><trkpt lat="43.2106243" lon="-8.4243363"><ele>392.6666666666667</ele><time>2026-04-05T09:07:08.603Z</time></trkpt><trkpt lat="43.2107212" lon="-8.4245848"><ele>394.33333333333337</ele><time>2026-04-05T09:07:09.603Z</time></trkpt><trkpt lat="43.2108178" lon="-8.4248426"><ele>396.0</ele><time>2026-04-05T09:07:10.603Z</time></trkpt><trkpt lat="43.2109219" lon="-8.4251018"><ele>396.0</ele><time>2026-04-05T09:07:11.602Z</time></trkpt><trkpt lat="43.211017" lon="-8.4253649"><ele>396.0</ele><time>2026-04-05T09:07:12.602Z</time></trkpt><trkpt lat="43.2110951" lon="-8.4256364"><ele>396.0</ele><time>2026-04-05T09:07:13.602Z</time></trkpt><trkpt lat="43.2111477" lon="-8.4259139"><ele>392.66666666666663</ele><time>2026-04-05T09:07:14.603Z</time></trkpt><trkpt lat="43.2111831" lon="-8.4261857"><ele>389.3333333333333</ele><time>2026-04-05T09:07:15.603Z</time></trkpt><trkpt lat="43.2112185" lon="-8.4264419"><ele>386.0</ele><time>2026-04-05T09:07:16.603Z</time></trkpt><trkpt lat="43.211268" lon="-8.4266784"><ele>382.3333333333333</ele><time>2026-04-05T09:07:17.602Z</time></trkpt><trkpt lat="43.2113527" lon="-8.4268912"><ele>378.66666666666663</ele><time>2026-04-05T09:07:18.603Z</time></trkpt><trkpt lat="43.2114661" lon="-8.4270837"><ele>375.0</ele><time>2026-04-05T09:07:19.603Z</time></trkpt><trkpt lat="43.2116134" lon="-8.4272448"><ele>374.0</ele><time>2026-04-05T09:07:20.603Z</time></trkpt><trkpt lat="43.2117651" lon="-8.4273976"><ele>373.0</ele><time>2026-04-05T09:07:21.603Z</time></trkpt><trkpt lat="43.2119049" lon="-8.4275671"><ele>372.0</ele><time>2026-04-05T09:07:22.603Z</time></trkpt><trkpt lat="43.2120094" lon="-8.4277634"><ele>367.3333333333333</ele><time>2026-04-05T09:07:23.603Z</time></trkpt><trkpt lat="43.2120787" lon="-8.4279882"><ele>362.66666666666663</ele><time>2026-04-05T09:07:24.603Z</time></trkpt><trkpt lat="43.2121079" lon="-8.4282201"><ele>358.0</ele><time>2026-04-05T09:07:25.603Z</time></trkpt><trkpt lat="43.2120961" lon="-8.428453"><ele>358.0</ele><time>2026-04-05T09:07:26.603Z</time></trkpt><trkpt lat="43.2120412" lon="-8.428679"><ele>358.0</ele><time>2026-04-05T09:07:27.603Z</time></trkpt><trkpt lat="43.211951" lon="-8.4288896"><ele>358.0</ele><time>2026-04-05T09:07:28.603Z</time></trkpt><trkpt lat="43.2118409" lon="-8.4290885"><ele>356.0</ele><time>2026-04-05T09:07:29.602Z</time></trkpt><trkpt lat="43.2117368" lon="-8.4292889"><ele>354.0</ele><time>2026-04-05T09:07:30.602Z</time></trkpt><trkpt lat="43.2116622" lon="-8.4295106"><ele>352.0</ele><time>2026-04-05T09:07:31.602Z</time></trkpt><trkpt lat="43.2116217" lon="-8.4297551"><ele>351.0</ele><time>2026-04-05T09:07:32.603Z</time></trkpt><trkpt lat="43.2116134" lon="-8.4300051"><ele>350.0</ele><time>2026-04-05T09:07:33.603Z</time></trkpt><trkpt lat="43.2116361" lon="-8.4302618"><ele>349.0</ele><time>2026-04-05T09:07:34.603Z</time></trkpt><trkpt lat="43.2116827" lon="-8.4305114"><ele>348.3333333333333</ele><time>2026-04-05T09:07:35.602Z</time></trkpt><trkpt lat="43.2117017" lon="-8.4307684"><ele>347.6666666666667</ele><time>2026-04-05T09:07:36.603Z</time></trkpt><trkpt lat="43.2116811" lon="-8.431024"><ele>347.0</ele><time>2026-04-05T09:07:37.603Z</time></trkpt><trkpt lat="43.2116308" lon="-8.4312747"><ele>345.33333333333337</ele><time>2026-04-05T09:07:38.603Z</time></trkpt><trkpt lat="43.2115758" lon="-8.4315244"><ele>343.6666666666667</ele><time>2026-04-05T09:07:39.603Z</time></trkpt><trkpt lat="43.2115474" lon="-8.4317743"><ele>342.0</ele><time>2026-04-05T09:07:40.602Z</time></trkpt><trkpt lat="43.2115567" lon="-8.4320183"><ele>339.0</ele><time>2026-04-05T09:07:41.603Z</time></trkpt><trkpt lat="43.2116123" lon="-8.4322495"><ele>336.0</ele><time>2026-04-05T09:07:42.603Z</time></trkpt><trkpt lat="43.2117152" lon="-8.4324738"><ele>333.0</ele><time>2026-04-05T09:07:43.603Z</time></trkpt><trkpt lat="43.211841" lon="-8.4326834"><ele>333.0</ele><time>2026-04-05T09:07:44.602Z</time></trkpt><trkpt lat="43.2119602" lon="-8.4328886"><ele>333.0</ele><time>2026-04-05T09:07:45.603Z</time></trkpt><trkpt lat="43.2120598" lon="-8.4331011"><ele>333.0</ele><time>2026-04-05T09:07:46.603Z</time></trkpt><trkpt lat="43.2121204" lon="-8.433334"><ele>329.0</ele><time>2026-04-05T09:07:47.602Z</time></trkpt><trkpt lat="43.2121705" lon="-8.433579"><ele>325.0</ele><time>2026-04-05T09:07:48.603Z</time></trkpt><trkpt lat="43.2122019" lon="-8.4338324"><ele>321.0</ele><time>2026-04-05T09:07:49.603Z</time></trkpt><trkpt lat="43.2121853" lon="-8.4340361"><ele>318.3333333333333</ele><time>2026-04-05T09:07:50.603Z</time></trkpt><trkpt lat="43.2121517" lon="-8.4342279"><ele>315.66666666666663</ele><time>2026-04-05T09:07:51.603Z</time></trkpt><trkpt lat="43.2120868" lon="-8.434415"><ele>313.0</ele><time>2026-04-05T09:07:52.602Z</time></trkpt><trkpt lat="43.211966" lon="-8.4345659"><ele>312.0</ele><time>2026-04-05T09:07:53.602Z</time></trkpt><trkpt lat="43.2118656" lon="-8.4346976"><ele>311.0</ele><time>2026-04-05T09:07:54.602Z</time></trkpt><trkpt lat="43.2117498" lon="-8.4348162"><ele>310.0</ele><time>2026-04-05T09:07:55.603Z</time></trkpt><trkpt lat="43.2116311" lon="-8.4349418"><ele>309.0</ele><time>2026-04-05T09:07:56.602Z</time></trkpt><trkpt lat="43.2115219" lon="-8.4350894"><ele>303.0</ele><time>2026-04-05T09:07:57.603Z</time></trkpt><trkpt lat="43.211425" lon="-8.4352719"><ele>297.0</ele><time>2026-04-05T09:07:58.603Z</time></trkpt><trkpt lat="43.2113557" lon="-8.4354792"><ele>291.0</ele><time>2026-04-05T09:07:59.603Z</time></trkpt><trkpt lat="43.2113304" lon="-8.4357192"><ele>291.0</ele><time>2026-04-05T09:08:00.603Z</time></trkpt><trkpt lat="43.211345" lon="-8.4359449"><ele>291.0</ele><time>2026-04-05T09:08:01.603Z</time></trkpt><trkpt lat="43.2114" lon="-8.4361585"><ele>291.0</ele><time>2026-04-05T09:08:02.602Z</time></trkpt><trkpt lat="43.2114931" lon="-8.4363529"><ele>291.0</ele><time>2026-04-05T09:08:03.602Z</time></trkpt><trkpt lat="43.2116187" lon="-8.4365199"><ele>291.0</ele><time>2026-04-05T09:08:04.603Z</time></trkpt><trkpt lat="43.2117795" lon="-8.4366575"><ele>291.0</ele><time>2026-04-05T09:08:05.602Z</time></trkpt><trkpt lat="43.2119661" lon="-8.4367716"><ele>291.0</ele><time>2026-04-05T09:08:06.602Z</time></trkpt><trkpt lat="43.2121578" lon="-8.4368875"><ele>291.0</ele><time>2026-04-05T09:08:07.603Z</time></trkpt><trkpt lat="43.2123357" lon="-8.4370266"><ele>291.0</ele><time>2026-04-05T09:08:08.603Z</time></trkpt><trkpt lat="43.2125241" lon="-8.4371772"><ele>291.0</ele><time>2026-04-05T09:08:09.602Z</time></trkpt><trkpt lat="43.2126147" lon="-8.4374009"><ele>291.0</ele><time>2026-04-05T09:08:10.603Z</time></trkpt><trkpt lat="43.2127115" lon="-8.43763"><ele>291.0</ele><time>2026-04-05T09:08:11.603Z</time></trkpt><trkpt lat="43.2127895" lon="-8.4378781"><ele>290.3333333333333</ele><time>2026-04-05T09:08:12.602Z</time></trkpt><trkpt lat="43.2128482" lon="-8.4381469"><ele>289.66666666666663</ele><time>2026-04-05T09:08:13.603Z</time></trkpt><trkpt lat="43.2129021" lon="-8.438434"><ele>289.0</ele><time>2026-04-05T09:08:14.603Z</time></trkpt><trkpt lat="43.2129591" lon="-8.4387231"><ele>285.66666666666663</ele><time>2026-04-05T09:08:15.603Z</time></trkpt><trkpt lat="43.2130287" lon="-8.4389959"><ele>282.3333333333333</ele><time>2026-04-05T09:08:16.603Z</time></trkpt><trkpt lat="43.2131247" lon="-8.4392546"><ele>279.0</ele><time>2026-04-05T09:08:17.603Z</time></trkpt><trkpt lat="43.2132458" lon="-8.4395019"><ele>283.3333333333333</ele><time>2026-04-05T09:08:18.603Z</time></trkpt><trkpt lat="43.2133764" lon="-8.4397364"><ele>287.66666666666663</ele><time>2026-04-05T09:08:19.603Z</time></trkpt><trkpt lat="43.2135015" lon="-8.4399712"><ele>292.0</ele><time>2026-04-05T09:08:20.603Z</time></trkpt><trkpt lat="43.2135966" lon="-8.4402075"><ele>292.0</ele><time>2026-04-05T09:08:21.603Z</time></trkpt><trkpt lat="43.213664" lon="-8.4404608"><ele>292.0</ele><time>2026-04-05T09:08:22.603Z</time></trkpt><trkpt lat="43.2137163" lon="-8.4407307"><ele>292.0</ele><time>2026-04-05T09:08:23.603Z</time></trkpt><trkpt lat="43.2137742" lon="-8.4410041"><ele>288.3333333333333</ele><time>2026-04-05T09:08:24.603Z</time></trkpt><trkpt lat="43.2138291" lon="-8.4412627"><ele>284.6666666666667</ele><time>2026-04-05T09:08:25.603Z</time></trkpt><trkpt lat="43.2138782" lon="-8.4415115"><ele>281.0</ele><time>2026-04-05T09:08:26.602Z</time></trkpt><trkpt lat="43.2139129" lon="-8.4417416"><ele>278.0</ele><time>2026-04-05T09:08:27.602Z</time></trkpt><trkpt lat="43.2139177" lon="-8.4419648"><ele>275.0</ele><time>2026-04-05T09:08:28.603Z</time></trkpt><trkpt lat="43.2138787" lon="-8.4421767"><ele>272.0</ele><time>2026-04-05T09:08:29.602Z</time></trkpt><trkpt lat="43.2137985" lon="-8.4423675"><ele>269.33333333333337</ele><time>2026-04-05T09:08:30.603Z</time></trkpt><trkpt lat="43.2136774" lon="-8.4425368"><ele>266.6666666666667</ele><time>2026-04-05T09:08:31.602Z</time></trkpt><trkpt lat="43.2135232" lon="-8.4426824"><ele>264.0</ele><time>2026-04-05T09:08:32.603Z</time></trkpt><trkpt lat="43.2133444" lon="-8.4428106"><ele>263.3333333333333</ele><time>2026-04-05T09:08:33.602Z</time></trkpt><trkpt lat="43.2131737" lon="-8.442967"><ele>262.66666666666663</ele><time>2026-04-05T09:08:34.602Z</time></trkpt><trkpt lat="43.2130237" lon="-8.4431701"><ele>262.0</ele><time>2026-04-05T09:08:35.602Z</time></trkpt><trkpt lat="43.2128951" lon="-8.4434122"><ele>262.3333333333333</ele><time>2026-04-05T09:08:36.602Z</time></trkpt><trkpt lat="43.2127791" lon="-8.443676"><ele>262.6666666666667</ele><time>2026-04-05T09:08:37.603Z</time></trkpt><trkpt lat="43.2126776" lon="-8.443922"><ele>263.0</ele><time>2026-04-05T09:08:38.603Z</time></trkpt><trkpt lat="43.2125922" lon="-8.4441492"><ele>263.0</ele><time>2026-04-05T09:08:39.603Z</time></trkpt><trkpt lat="43.2125492" lon="-8.4443623"><ele>263.0</ele><time>2026-04-05T09:08:40.602Z</time></trkpt><trkpt lat="43.2125377" lon="-8.4445551"><ele>263.0</ele><time>2026-04-05T09:08:41.602Z</time></trkpt><trkpt lat="43.2125416" lon="-8.4447334"><ele>263.0</ele><time>2026-04-05T09:08:42.603Z</time></trkpt><trkpt lat="43.2125344" lon="-8.4448969"><ele>263.2</ele><time>2026-04-05T09:08:43.602Z</time></trkpt><trkpt lat="43.21253" lon="-8.4450603"><ele>263.4</ele><time>2026-04-05T09:08:44.602Z</time></trkpt><trkpt lat="43.2124638" lon="-8.4451701"><ele>263.59999999999997</ele><time>2026-04-05T09:08:45.602Z</time></trkpt><trkpt lat="43.2124143" lon="-8.4452823"><ele>263.8</ele><time>2026-04-05T09:08:46.603Z</time></trkpt><trkpt lat="43.2123656" lon="-8.4453905"><ele>264.0</ele><time>2026-04-05T09:08:47.603Z</time></trkpt><trkpt lat="43.2123411" lon="-8.4455428"><ele>264.0</ele><time>2026-04-05T09:08:49.603Z</time></trkpt><trkpt lat="43.2123892" lon="-8.4456948"><ele>264.0</ele><time>2026-04-05T09:08:51.603Z</time></trkpt><trkpt lat="43.2124396" lon="-8.4457821"><ele>264.0</ele><time>2026-04-05T09:08:52.602Z</time></trkpt><trkpt lat="43.2124868" lon="-8.4458685"><ele>264.0</ele><time>2026-04-05T09:08:53.603Z</time></trkpt><trkpt lat="43.2125787" lon="-8.4460188"><ele>264.0</ele><time>2026-04-05T09:08:54.602Z</time></trkpt><trkpt lat="43.212664" lon="-8.4461626"><ele>263.3333333333333</ele><time>2026-04-05T09:08:55.603Z</time></trkpt><trkpt lat="43.2127584" lon="-8.4463175"><ele>262.66666666666663</ele><time>2026-04-05T09:08:56.603Z</time></trkpt><trkpt lat="43.2128631" lon="-8.4464883"><ele>262.0</ele><time>2026-04-05T09:08:57.603Z</time></trkpt><trkpt lat="43.2129667" lon="-8.4466639"><ele>262.0</ele><time>2026-04-05T09:08:58.602Z</time></trkpt><trkpt lat="43.2130728" lon="-8.4468479"><ele>262.0</ele><time>2026-04-05T09:08:59.603Z</time></trkpt><trkpt lat="43.2131844" lon="-8.4470289"><ele>262.0</ele><time>2026-04-05T09:09:00.603Z</time></trkpt><trkpt lat="43.2132842" lon="-8.4472015"><ele>261.75</ele><time>2026-04-05T09:09:01.603Z</time></trkpt><trkpt lat="43.2133802" lon="-8.447359"><ele>261.5</ele><time>2026-04-05T09:09:02.602Z</time></trkpt><trkpt lat="43.2134743" lon="-8.4475088"><ele>261.25</ele><time>2026-04-05T09:09:03.603Z</time></trkpt><trkpt lat="43.2135706" lon="-8.4476649"><ele>261.0</ele><time>2026-04-05T09:09:04.602Z</time></trkpt><trkpt lat="43.2136638" lon="-8.4478324"><ele>260.0</ele><time>2026-04-05T09:09:05.603Z</time></trkpt><trkpt lat="43.2137545" lon="-8.4480004"><ele>259.0</ele><time>2026-04-05T09:09:06.602Z</time></trkpt><trkpt lat="43.2138557" lon="-8.448166"><ele>258.0</ele><time>2026-04-05T09:09:07.602Z</time></trkpt><trkpt lat="43.2139584" lon="-8.4483296"><ele>257.6666666666667</ele><time>2026-04-05T09:09:08.602Z</time></trkpt><trkpt lat="43.2140687" lon="-8.4484999"><ele>257.33333333333337</ele><time>2026-04-05T09:09:09.603Z</time></trkpt><trkpt lat="43.2142029" lon="-8.4486638"><ele>257.0</ele><time>2026-04-05T09:09:10.603Z</time></trkpt><trkpt lat="43.2143616" lon="-8.4488037"><ele>257.0</ele><time>2026-04-05T09:09:11.603Z</time></trkpt><trkpt lat="43.2145428" lon="-8.4489291"><ele>257.0</ele><time>2026-04-05T09:09:12.603Z</time></trkpt><trkpt lat="43.2147413" lon="-8.4490429"><ele>257.0</ele><time>2026-04-05T09:09:13.603Z</time></trkpt><trkpt lat="43.2149451" lon="-8.4491516"><ele>257.0</ele><time>2026-04-05T09:09:14.603Z</time></trkpt><trkpt lat="43.2151556" lon="-8.4492628"><ele>257.0</ele><time>2026-04-05T09:09:15.603Z</time></trkpt><trkpt lat="43.2153673" lon="-8.4493697"><ele>257.0</ele><time>2026-04-05T09:09:16.603Z</time></trkpt><trkpt lat="43.2155837" lon="-8.4494772"><ele>257.0</ele><time>2026-04-05T09:09:17.603Z</time></trkpt><trkpt lat="43.2157992" lon="-8.4495862"><ele>256.6666666666667</ele><time>2026-04-05T09:09:18.603Z</time></trkpt><trkpt lat="43.216014" lon="-8.449694"><ele>256.3333333333333</ele><time>2026-04-05T09:09:19.602Z</time></trkpt><trkpt lat="43.2162153" lon="-8.4497964"><ele>256.0</ele><time>2026-04-05T09:09:20.602Z</time></trkpt><trkpt lat="43.2164023" lon="-8.4498997"><ele>256.66666666666663</ele><time>2026-04-05T09:09:21.602Z</time></trkpt><trkpt lat="43.2165733" lon="-8.4500177"><ele>257.3333333333333</ele><time>2026-04-05T09:09:22.603Z</time></trkpt><trkpt lat="43.2167349" lon="-8.4501609"><ele>258.0</ele><time>2026-04-05T09:09:23.602Z</time></trkpt><trkpt lat="43.2168797" lon="-8.4503317"><ele>256.6666666666667</ele><time>2026-04-05T09:09:24.602Z</time></trkpt><trkpt lat="43.2170067" lon="-8.4505353"><ele>255.33333333333334</ele><time>2026-04-05T09:09:25.603Z</time></trkpt><trkpt lat="43.2171222" lon="-8.4507596"><ele>254.0</ele><time>2026-04-05T09:09:26.603Z</time></trkpt><trkpt lat="43.2172331" lon="-8.4509948"><ele>253.66666666666669</ele><time>2026-04-05T09:09:27.602Z</time></trkpt><trkpt lat="43.2173446" lon="-8.4512409"><ele>253.33333333333331</ele><time>2026-04-05T09:09:28.603Z</time></trkpt><trkpt lat="43.2174581" lon="-8.4514965"><ele>253.0</ele><time>2026-04-05T09:09:29.602Z</time></trkpt><trkpt lat="43.2175716" lon="-8.4517568"><ele>253.0</ele><time>2026-04-05T09:09:30.603Z</time></trkpt><trkpt lat="43.2176769" lon="-8.4520032"><ele>253.0</ele><time>2026-04-05T09:09:31.603Z</time></trkpt><trkpt lat="43.2177805" lon="-8.4522399"><ele>253.0</ele><time>2026-04-05T09:09:32.602Z</time></trkpt><trkpt lat="43.2178844" lon="-8.4524711"><ele>253.33333333333331</ele><time>2026-04-05T09:09:33.603Z</time></trkpt><trkpt lat="43.2179836" lon="-8.4526975"><ele>253.66666666666669</ele><time>2026-04-05T09:09:34.602Z</time></trkpt><trkpt lat="43.2180809" lon="-8.4529194"><ele>254.0</ele><time>2026-04-05T09:09:35.603Z</time></trkpt><trkpt lat="43.2181738" lon="-8.4531286"><ele>254.0</ele><time>2026-04-05T09:09:36.603Z</time></trkpt><trkpt lat="43.2182576" lon="-8.4533267"><ele>254.0</ele><time>2026-04-05T09:09:37.603Z</time></trkpt><trkpt lat="43.2183392" lon="-8.4535171"><ele>254.0</ele><time>2026-04-05T09:09:38.602Z</time></trkpt><trkpt lat="43.2184159" lon="-8.4536997"><ele>252.5</ele><time>2026-04-05T09:09:39.603Z</time></trkpt><trkpt lat="43.218491" lon="-8.4538772"><ele>251.0</ele><time>2026-04-05T09:09:40.602Z</time></trkpt><trkpt lat="43.2185612" lon="-8.4540371"><ele>249.5</ele><time>2026-04-05T09:09:41.603Z</time></trkpt><trkpt lat="43.2186251" lon="-8.4541883"><ele>248.0</ele><time>2026-04-05T09:09:42.603Z</time></trkpt><trkpt lat="43.2186861" lon="-8.4543306"><ele>248.0</ele><time>2026-04-05T09:09:43.603Z</time></trkpt><trkpt lat="43.2187427" lon="-8.4544665"><ele>248.0</ele><time>2026-04-05T09:09:44.602Z</time></trkpt><trkpt lat="43.2187986" lon="-8.4545964"><ele>248.0</ele><time>2026-04-05T09:09:45.602Z</time></trkpt><trkpt lat="43.218848" lon="-8.4547178"><ele>248.0</ele><time>2026-04-05T09:09:46.603Z</time></trkpt><trkpt lat="43.2188897" lon="-8.4548283"><ele>248.0</ele><time>2026-04-05T09:09:47.603Z</time></trkpt><trkpt lat="43.2189235" lon="-8.4549297"><ele>248.33333333333334</ele><time>2026-04-05T09:09:48.603Z</time></trkpt><trkpt lat="43.2189502" lon="-8.4550136"><ele>248.66666666666669</ele><time>2026-04-05T09:09:49.602Z</time></trkpt><trkpt lat="43.2189792" lon="-8.4551031"><ele>249.0</ele><time>2026-04-05T09:09:50.602Z</time></trkpt><trkpt lat="43.2190148" lon="-8.455184"><ele>249.33333333333331</ele><time>2026-04-05T09:09:52.603Z</time></trkpt><trkpt lat="43.2190956" lon="-8.455298"><ele>249.66666666666666</ele><time>2026-04-05T09:09:54.603Z</time></trkpt><trkpt lat="43.2191628" lon="-8.4553669"><ele>250.0</ele><time>2026-04-05T09:09:55.602Z</time></trkpt><trkpt lat="43.2192367" lon="-8.455442"><ele>248.75</ele><time>2026-04-05T09:09:56.603Z</time></trkpt><trkpt lat="43.2193294" lon="-8.4555186"><ele>247.5</ele><time>2026-04-05T09:09:57.602Z</time></trkpt><trkpt lat="43.2194125" lon="-8.4555959"><ele>246.25</ele><time>2026-04-05T09:09:58.603Z</time></trkpt><trkpt lat="43.2195051" lon="-8.4556741"><ele>245.0</ele><time>2026-04-05T09:09:59.603Z</time></trkpt><trkpt lat="43.2196207" lon="-8.4557641"><ele>245.0</ele><time>2026-04-05T09:10:00.602Z</time></trkpt><trkpt lat="43.2197384" lon="-8.4558587"><ele>245.0</ele><time>2026-04-05T09:10:01.603Z</time></trkpt><trkpt lat="43.2198574" lon="-8.4559594"><ele>245.0</ele><time>2026-04-05T09:10:02.603Z</time></trkpt><trkpt lat="43.2199717" lon="-8.4560568"><ele>245.0</ele><time>2026-04-05T09:10:03.603Z</time></trkpt><trkpt lat="43.2200878" lon="-8.4561581"><ele>245.75</ele><time>2026-04-05T09:10:04.602Z</time></trkpt><trkpt lat="43.2201992" lon="-8.4562512"><ele>246.5</ele><time>2026-04-05T09:10:05.603Z</time></trkpt><trkpt lat="43.2203091" lon="-8.4563425"><ele>247.25</ele><time>2026-04-05T09:10:06.602Z</time></trkpt><trkpt lat="43.2204208" lon="-8.4564333"><ele>248.0</ele><time>2026-04-05T09:10:07.602Z</time></trkpt><trkpt lat="43.2205317" lon="-8.4565247"><ele>248.0</ele><time>2026-04-05T09:10:08.603Z</time></trkpt><trkpt lat="43.220642" lon="-8.4566205"><ele>248.0</ele><time>2026-04-05T09:10:09.603Z</time></trkpt><trkpt lat="43.2207498" lon="-8.456715"><ele>248.0</ele><time>2026-04-05T09:10:10.603Z</time></trkpt><trkpt lat="43.2208622" lon="-8.4568099"><ele>248.0</ele><time>2026-04-05T09:10:11.603Z</time></trkpt><trkpt lat="43.2209798" lon="-8.4568993"><ele>248.25</ele><time>2026-04-05T09:10:12.603Z</time></trkpt><trkpt lat="43.2211045" lon="-8.4569896"><ele>248.5</ele><time>2026-04-05T09:10:13.603Z</time></trkpt><trkpt lat="43.2212411" lon="-8.457073"><ele>248.75</ele><time>2026-04-05T09:10:14.603Z</time></trkpt><trkpt lat="43.2213898" lon="-8.4571495"><ele>249.0</ele><time>2026-04-05T09:10:15.602Z</time></trkpt><trkpt lat="43.2215424" lon="-8.4572268"><ele>252.33333333333331</ele><time>2026-04-05T09:10:16.603Z</time></trkpt><trkpt lat="43.2216986" lon="-8.4573181"><ele>255.66666666666666</ele><time>2026-04-05T09:10:17.603Z</time></trkpt><trkpt lat="43.2218497" lon="-8.4574146"><ele>259.0</ele><time>2026-04-05T09:10:18.603Z</time></trkpt><trkpt lat="43.2219959" lon="-8.4575113"><ele>259.0</ele><time>2026-04-05T09:10:19.603Z</time></trkpt><trkpt lat="43.2221426" lon="-8.4576098"><ele>259.0</ele><time>2026-04-05T09:10:20.602Z</time></trkpt><trkpt lat="43.2222871" lon="-8.457705"><ele>259.0</ele><time>2026-04-05T09:10:21.602Z</time></trkpt><trkpt lat="43.2224288" lon="-8.4577999"><ele>260.0</ele><time>2026-04-05T09:10:22.602Z</time></trkpt><trkpt lat="43.2225661" lon="-8.4578963"><ele>261.0</ele><time>2026-04-05T09:10:23.603Z</time></trkpt><trkpt lat="43.2226993" lon="-8.4579858"><ele>262.0</ele><time>2026-04-05T09:10:24.603Z</time></trkpt><trkpt lat="43.2228238" lon="-8.4580904"><ele>263.0</ele><time>2026-04-05T09:10:25.603Z</time></trkpt><trkpt lat="43.2229363" lon="-8.4582118"><ele>263.0</ele><time>2026-04-05T09:10:26.603Z</time></trkpt><trkpt lat="43.2230473" lon="-8.458341"><ele>263.0</ele><time>2026-04-05T09:10:27.603Z</time></trkpt><trkpt lat="43.223164" lon="-8.458449"><ele>263.0</ele><time>2026-04-05T09:10:28.603Z</time></trkpt><trkpt lat="43.2232977" lon="-8.4585148"><ele>263.0</ele><time>2026-04-05T09:10:29.603Z</time></trkpt><trkpt lat="43.2234381" lon="-8.4585448"><ele>265.25</ele><time>2026-04-05T09:10:30.603Z</time></trkpt><trkpt lat="43.2235841" lon="-8.4585555"><ele>267.5</ele><time>2026-04-05T09:10:31.603Z</time></trkpt><trkpt lat="43.2237306" lon="-8.4585599"><ele>269.75</ele><time>2026-04-05T09:10:32.602Z</time></trkpt><trkpt lat="43.2238703" lon="-8.4585611"><ele>272.0</ele><time>2026-04-05T09:10:33.603Z</time></trkpt><trkpt lat="43.224" lon="-8.4585639"><ele>272.25</ele><time>2026-04-05T09:10:34.603Z</time></trkpt><trkpt lat="43.2241243" lon="-8.4585467"><ele>272.5</ele><time>2026-04-05T09:10:35.603Z</time></trkpt><trkpt lat="43.2242515" lon="-8.4585129"><ele>272.75</ele><time>2026-04-05T09:10:36.603Z</time></trkpt><trkpt lat="43.2243669" lon="-8.4584393"><ele>273.0</ele><time>2026-04-05T09:10:37.603Z</time></trkpt><trkpt lat="43.2244763" lon="-8.4583575"><ele>273.0</ele><time>2026-04-05T09:10:38.603Z</time></trkpt><trkpt lat="43.2245891" lon="-8.4582992"><ele>273.0</ele><time>2026-04-05T09:10:39.603Z</time></trkpt><trkpt lat="43.2247068" lon="-8.4582912"><ele>273.0</ele><time>2026-04-05T09:10:40.602Z</time></trkpt><trkpt lat="43.2248292" lon="-8.4582885"><ele>273.0</ele><time>2026-04-05T09:10:41.603Z</time></trkpt><trkpt lat="43.2249316" lon="-8.4583477"><ele>273.5</ele><time>2026-04-05T09:10:42.602Z</time></trkpt><trkpt lat="43.225015" lon="-8.4585007"><ele>274.0</ele><time>2026-04-05T09:10:43.603Z</time></trkpt><trkpt lat="43.2250907" lon="-8.4586407"><ele>274.5</ele><time>2026-04-05T09:10:44.602Z</time></trkpt><trkpt lat="43.2251656" lon="-8.4587981"><ele>275.0</ele><time>2026-04-05T09:10:45.602Z</time></trkpt><trkpt lat="43.2252427" lon="-8.4589549"><ele>274.0</ele><time>2026-04-05T09:10:46.603Z</time></trkpt><trkpt lat="43.2253213" lon="-8.4591095"><ele>273.0</ele><time>2026-04-05T09:10:47.603Z</time></trkpt><trkpt lat="43.2253953" lon="-8.459257"><ele>272.0</ele><time>2026-04-05T09:10:48.603Z</time></trkpt><trkpt lat="43.2254702" lon="-8.4594009"><ele>271.0</ele><time>2026-04-05T09:10:49.602Z</time></trkpt><trkpt lat="43.225546" lon="-8.4595444"><ele>269.75</ele><time>2026-04-05T09:10:50.603Z</time></trkpt><trkpt lat="43.2256208" lon="-8.4596861"><ele>268.5</ele><time>2026-04-05T09:10:51.602Z</time></trkpt><trkpt lat="43.2256932" lon="-8.459824"><ele>267.25</ele><time>2026-04-05T09:10:52.603Z</time></trkpt><trkpt lat="43.2257642" lon="-8.4599632"><ele>266.0</ele><time>2026-04-05T09:10:53.603Z</time></trkpt><trkpt lat="43.225835" lon="-8.4601038"><ele>268.5</ele><time>2026-04-05T09:10:54.603Z</time></trkpt><trkpt lat="43.2259101" lon="-8.4602444"><ele>271.0</ele><time>2026-04-05T09:10:55.603Z</time></trkpt><trkpt lat="43.2259875" lon="-8.4603858"><ele>273.5</ele><time>2026-04-05T09:10:56.603Z</time></trkpt><trkpt lat="43.2260654" lon="-8.460529"><ele>276.0</ele><time>2026-04-05T09:10:57.602Z</time></trkpt><trkpt lat="43.2261452" lon="-8.4606737"><ele>276.0</ele><time>2026-04-05T09:10:58.603Z</time></trkpt><trkpt lat="43.2262243" lon="-8.4608154"><ele>276.0</ele><time>2026-04-05T09:10:59.603Z</time></trkpt><trkpt lat="43.2262992" lon="-8.4609585"><ele>276.0</ele><time>2026-04-05T09:11:00.602Z</time></trkpt><trkpt lat="43.226362" lon="-8.4611091"><ele>276.0</ele><time>2026-04-05T09:11:01.603Z</time></trkpt><trkpt lat="43.2263961" lon="-8.4612788"><ele>276.25</ele><time>2026-04-05T09:11:02.603Z</time></trkpt><trkpt lat="43.2263979" lon="-8.4614551"><ele>276.5</ele><time>2026-04-05T09:11:03.602Z</time></trkpt><trkpt lat="43.2263915" lon="-8.4616324"><ele>276.75</ele><time>2026-04-05T09:11:04.603Z</time></trkpt><trkpt lat="43.2264122" lon="-8.4618134"><ele>277.0</ele><time>2026-04-05T09:11:05.603Z</time></trkpt><trkpt lat="43.2264595" lon="-8.461983"><ele>282.75</ele><time>2026-04-05T09:11:06.603Z</time></trkpt><trkpt lat="43.2265029" lon="-8.4621404"><ele>288.5</ele><time>2026-04-05T09:11:07.602Z</time></trkpt><trkpt lat="43.2265217" lon="-8.4623047"><ele>294.25</ele><time>2026-04-05T09:11:08.603Z</time></trkpt><trkpt lat="43.2265192" lon="-8.4624631"><ele>300.0</ele><time>2026-04-05T09:11:09.603Z</time></trkpt><trkpt lat="43.2264967" lon="-8.4626146"><ele>299.0</ele><time>2026-04-05T09:11:10.602Z</time></trkpt><trkpt lat="43.2264632" lon="-8.4627498"><ele>298.0</ele><time>2026-04-05T09:11:11.602Z</time></trkpt><trkpt lat="43.2264353" lon="-8.4628736"><ele>297.0</ele><time>2026-04-05T09:11:12.602Z</time></trkpt><trkpt lat="43.2264264" lon="-8.4629872"><ele>296.0</ele><time>2026-04-05T09:11:13.603Z</time></trkpt><trkpt lat="43.2264342" lon="-8.4630913"><ele>295.0</ele><time>2026-04-05T09:11:14.603Z</time></trkpt><trkpt lat="43.226457" lon="-8.463201"><ele>294.0</ele><time>2026-04-05T09:11:15.603Z</time></trkpt><trkpt lat="43.2264968" lon="-8.4633135"><ele>294.0</ele><time>2026-04-05T09:11:16.603Z</time></trkpt><trkpt lat="43.2265537" lon="-8.4634307"><ele>294.0</ele><time>2026-04-05T09:11:17.602Z</time></trkpt><trkpt lat="43.2266332" lon="-8.4635503"><ele>294.0</ele><time>2026-04-05T09:11:18.603Z</time></trkpt><trkpt lat="43.2267154" lon="-8.4636783"><ele>294.0</ele><time>2026-04-05T09:11:19.603Z</time></trkpt><trkpt lat="43.2268036" lon="-8.4638219"><ele>291.6666666666667</ele><time>2026-04-05T09:11:20.603Z</time></trkpt><trkpt lat="43.2268948" lon="-8.463978"><ele>289.33333333333337</ele><time>2026-04-05T09:11:21.602Z</time></trkpt><trkpt lat="43.2269934" lon="-8.4641388"><ele>287.0</ele><time>2026-04-05T09:11:22.603Z</time></trkpt><trkpt lat="43.2270921" lon="-8.4642977"><ele>287.0</ele><time>2026-04-05T09:11:23.603Z</time></trkpt><trkpt lat="43.2271904" lon="-8.4644577"><ele>287.0</ele><time>2026-04-05T09:11:24.603Z</time></trkpt><trkpt lat="43.2272893" lon="-8.4646128"><ele>287.0</ele><time>2026-04-05T09:11:25.603Z</time></trkpt><trkpt lat="43.2273844" lon="-8.4647676"><ele>288.33333333333337</ele><time>2026-04-05T09:11:26.603Z</time></trkpt><trkpt lat="43.2274899" lon="-8.4649334"><ele>289.6666666666667</ele><time>2026-04-05T09:11:27.603Z</time></trkpt><trkpt lat="43.2275908" lon="-8.4650947"><ele>291.0</ele><time>2026-04-05T09:11:28.602Z</time></trkpt><trkpt lat="43.2276979" lon="-8.4652538"><ele>291.0</ele><time>2026-04-05T09:11:29.602Z</time></trkpt><trkpt lat="43.2278047" lon="-8.4654247"><ele>291.0</ele><time>2026-04-05T09:11:30.603Z</time></trkpt><trkpt lat="43.2279076" lon="-8.4655928"><ele>291.0</ele><time>2026-04-05T09:11:31.602Z</time></trkpt><trkpt lat="43.2280032" lon="-8.4657493"><ele>292.75</ele><time>2026-04-05T09:11:32.603Z</time></trkpt><trkpt lat="43.2280976" lon="-8.4658888"><ele>294.5</ele><time>2026-04-05T09:11:33.603Z</time></trkpt><trkpt lat="43.2281925" lon="-8.4660106"><ele>296.25</ele><time>2026-04-05T09:11:34.603Z</time></trkpt><trkpt lat="43.2283135" lon="-8.4661202"><ele>298.0</ele><time>2026-04-05T09:11:35.603Z</time></trkpt><trkpt lat="43.2284383" lon="-8.4662246"><ele>292.0</ele><time>2026-04-05T09:11:36.603Z</time></trkpt><trkpt lat="43.2285667" lon="-8.4663398"><ele>286.0</ele><time>2026-04-05T09:11:37.603Z</time></trkpt><trkpt lat="43.2286932" lon="-8.4664687"><ele>280.0</ele><time>2026-04-05T09:11:38.603Z</time></trkpt><trkpt lat="43.2288203" lon="-8.4666073"><ele>280.0</ele><time>2026-04-05T09:11:39.603Z</time></trkpt><trkpt lat="43.2289459" lon="-8.466743"><ele>280.0</ele><time>2026-04-05T09:11:40.602Z</time></trkpt><trkpt lat="43.2290728" lon="-8.4668766"><ele>280.0</ele><time>2026-04-05T09:11:41.603Z</time></trkpt><trkpt lat="43.2291999" lon="-8.4670096"><ele>283.0</ele><time>2026-04-05T09:11:42.602Z</time></trkpt><trkpt lat="43.2293276" lon="-8.4671378"><ele>286.0</ele><time>2026-04-05T09:11:43.603Z</time></trkpt><trkpt lat="43.2294527" lon="-8.467258"><ele>289.0</ele><time>2026-04-05T09:11:44.602Z</time></trkpt><trkpt lat="43.2295787" lon="-8.4673737"><ele>289.0</ele><time>2026-04-05T09:11:45.602Z</time></trkpt><trkpt lat="43.2297065" lon="-8.467481"><ele>289.0</ele><time>2026-04-05T09:11:46.603Z</time></trkpt><trkpt lat="43.2298283" lon="-8.4675782"><ele>289.0</ele><time>2026-04-05T09:11:47.603Z</time></trkpt><trkpt lat="43.229945" lon="-8.4676759"><ele>289.0</ele><time>2026-04-05T09:11:48.603Z</time></trkpt><trkpt lat="43.2300461" lon="-8.4677623"><ele>289.25</ele><time>2026-04-05T09:11:49.603Z</time></trkpt><trkpt lat="43.2301475" lon="-8.4678453"><ele>289.5</ele><time>2026-04-05T09:11:50.603Z</time></trkpt><trkpt lat="43.2302546" lon="-8.4679275"><ele>289.75</ele><time>2026-04-05T09:11:51.603Z</time></trkpt><trkpt lat="43.2303591" lon="-8.4680046"><ele>290.0</ele><time>2026-04-05T09:11:52.603Z</time></trkpt><trkpt lat="43.2304584" lon="-8.4680786"><ele>290.0</ele><time>2026-04-05T09:11:53.603Z</time></trkpt><trkpt lat="43.2305653" lon="-8.4681248"><ele>290.0</ele><time>2026-04-05T09:11:54.603Z</time></trkpt><trkpt lat="43.2306768" lon="-8.4681379"><ele>290.0</ele><time>2026-04-05T09:11:55.602Z</time></trkpt><trkpt lat="43.2307948" lon="-8.4681336"><ele>290.0</ele><time>2026-04-05T09:11:56.603Z</time></trkpt><trkpt lat="43.230916" lon="-8.4681218"><ele>291.25</ele><time>2026-04-05T09:11:57.603Z</time></trkpt><trkpt lat="43.23104" lon="-8.4681014"><ele>292.5</ele><time>2026-04-05T09:11:58.603Z</time></trkpt><trkpt lat="43.2311674" lon="-8.4680694"><ele>293.75</ele><time>2026-04-05T09:11:59.603Z</time></trkpt><trkpt lat="43.2312888" lon="-8.4680373"><ele>295.0</ele><time>2026-04-05T09:12:00.603Z</time></trkpt><trkpt lat="43.2314059" lon="-8.4679911"><ele>296.5</ele><time>2026-04-05T09:12:01.603Z</time></trkpt><trkpt lat="43.2315211" lon="-8.4679351"><ele>298.0</ele><time>2026-04-05T09:12:02.603Z</time></trkpt><trkpt lat="43.2316325" lon="-8.4678716"><ele>299.5</ele><time>2026-04-05T09:12:03.603Z</time></trkpt><trkpt lat="43.2317407" lon="-8.4678054"><ele>301.0</ele><time>2026-04-05T09:12:04.603Z</time></trkpt><trkpt lat="43.2318392" lon="-8.4677459"><ele>301.0</ele><time>2026-04-05T09:12:05.603Z</time></trkpt><trkpt lat="43.2319329" lon="-8.4676841"><ele>301.0</ele><time>2026-04-05T09:12:06.602Z</time></trkpt><trkpt lat="43.2320198" lon="-8.4676235"><ele>301.0</ele><time>2026-04-05T09:12:07.603Z</time></trkpt><trkpt lat="43.2320985" lon="-8.4675482"><ele>301.0</ele><time>2026-04-05T09:12:08.603Z</time></trkpt><trkpt lat="43.2321615" lon="-8.4674425"><ele>301.0</ele><time>2026-04-05T09:12:09.603Z</time></trkpt><trkpt lat="43.2322048" lon="-8.467301"><ele>301.0</ele><time>2026-04-05T09:12:10.603Z</time></trkpt><trkpt lat="43.2322393" lon="-8.4671472"><ele>301.0</ele><time>2026-04-05T09:12:11.603Z</time></trkpt><trkpt lat="43.2322636" lon="-8.4669838"><ele>301.0</ele><time>2026-04-05T09:12:12.603Z</time></trkpt><trkpt lat="43.232272" lon="-8.4668148"><ele>301.0</ele><time>2026-04-05T09:12:13.602Z</time></trkpt><trkpt lat="43.2322679" lon="-8.4666422"><ele>302.75</ele><time>2026-04-05T09:12:14.603Z</time></trkpt><trkpt lat="43.2322593" lon="-8.4664685"><ele>304.5</ele><time>2026-04-05T09:12:15.603Z</time></trkpt><trkpt lat="43.2322518" lon="-8.4663008"><ele>306.25</ele><time>2026-04-05T09:12:16.603Z</time></trkpt><trkpt lat="43.2322435" lon="-8.4661337"><ele>308.0</ele><time>2026-04-05T09:12:17.603Z</time></trkpt><trkpt lat="43.2322406" lon="-8.4659696"><ele>308.0</ele><time>2026-04-05T09:12:18.603Z</time></trkpt><trkpt lat="43.2322451" lon="-8.4658075"><ele>308.0</ele><time>2026-04-05T09:12:19.603Z</time></trkpt><trkpt lat="43.232255" lon="-8.4656527"><ele>308.0</ele><time>2026-04-05T09:12:20.602Z</time></trkpt><trkpt lat="43.2322566" lon="-8.4654958"><ele>308.0</ele><time>2026-04-05T09:12:21.602Z</time></trkpt><trkpt lat="43.2322477" lon="-8.4653468"><ele>308.33333333333337</ele><time>2026-04-05T09:12:22.602Z</time></trkpt><trkpt lat="43.2322289" lon="-8.4652075"><ele>308.6666666666667</ele><time>2026-04-05T09:12:23.603Z</time></trkpt><trkpt lat="43.2322122" lon="-8.4650789"><ele>309.0</ele><time>2026-04-05T09:12:24.602Z</time></trkpt><trkpt lat="43.2321997" lon="-8.4649697"><ele>309.3333333333333</ele><time>2026-04-05T09:12:25.602Z</time></trkpt><trkpt lat="43.2321873" lon="-8.4648736"><ele>309.66666666666663</ele><time>2026-04-05T09:12:26.602Z</time></trkpt><trkpt lat="43.2322114" lon="-8.4647413"><ele>310.0</ele><time>2026-04-05T09:12:28.603Z</time></trkpt><trkpt lat="43.232289" lon="-8.4646625"><ele>304.8</ele><time>2026-04-05T09:12:30.603Z</time></trkpt><trkpt lat="43.2323452" lon="-8.4647457"><ele>299.6</ele><time>2026-04-05T09:12:31.603Z</time></trkpt><trkpt lat="43.2324003" lon="-8.4648262"><ele>294.4</ele><time>2026-04-05T09:12:32.603Z</time></trkpt><trkpt lat="43.2324513" lon="-8.4649322"><ele>289.2</ele><time>2026-04-05T09:12:33.603Z</time></trkpt><trkpt lat="43.2325003" lon="-8.4650641"><ele>284.0</ele><time>2026-04-05T09:12:34.603Z</time></trkpt><trkpt lat="43.2325523" lon="-8.4652087"><ele>284.0</ele><time>2026-04-05T09:12:35.603Z</time></trkpt><trkpt lat="43.2326052" lon="-8.4653511"><ele>284.0</ele><time>2026-04-05T09:12:36.602Z</time></trkpt><trkpt lat="43.2326588" lon="-8.4654924"><ele>284.0</ele><time>2026-04-05T09:12:37.602Z</time></trkpt><trkpt lat="43.232708" lon="-8.4656318"><ele>284.0</ele><time>2026-04-05T09:12:38.603Z</time></trkpt><trkpt lat="43.2327589" lon="-8.4657747"><ele>283.75</ele><time>2026-04-05T09:12:39.602Z</time></trkpt><trkpt lat="43.2327976" lon="-8.4659307"><ele>283.5</ele><time>2026-04-05T09:12:40.603Z</time></trkpt><trkpt lat="43.2328285" lon="-8.4660917"><ele>283.25</ele><time>2026-04-05T09:12:41.603Z</time></trkpt><trkpt lat="43.2328514" lon="-8.4662607"><ele>283.0</ele><time>2026-04-05T09:12:42.602Z</time></trkpt><trkpt lat="43.2328766" lon="-8.4664325"><ele>283.0</ele><time>2026-04-05T09:12:43.603Z</time></trkpt><trkpt lat="43.2328913" lon="-8.4666019"><ele>283.0</ele><time>2026-04-05T09:12:44.602Z</time></trkpt><trkpt lat="43.2329063" lon="-8.4667819"><ele>283.0</ele><time>2026-04-05T09:12:45.602Z</time></trkpt><trkpt lat="43.2329269" lon="-8.4669349"><ele>283.0</ele><time>2026-04-05T09:12:46.602Z</time></trkpt><trkpt lat="43.2329608" lon="-8.4671327"><ele>282.3333333333333</ele><time>2026-04-05T09:12:47.603Z</time></trkpt><trkpt lat="43.2329914" lon="-8.4673351"><ele>281.6666666666667</ele><time>2026-04-05T09:12:48.603Z</time></trkpt><trkpt lat="43.2330324" lon="-8.4675388"><ele>281.0</ele><time>2026-04-05T09:12:49.602Z</time></trkpt><trkpt lat="43.2330682" lon="-8.4677434"><ele>280.33333333333337</ele><time>2026-04-05T09:12:50.603Z</time></trkpt><trkpt lat="43.2330923" lon="-8.4679456"><ele>279.6666666666667</ele><time>2026-04-05T09:12:51.603Z</time></trkpt><trkpt lat="43.2331087" lon="-8.4681508"><ele>279.0</ele><time>2026-04-05T09:12:52.603Z</time></trkpt><trkpt lat="43.2331312" lon="-8.4683568"><ele>272.3333333333333</ele><time>2026-04-05T09:12:53.603Z</time></trkpt><trkpt lat="43.233168" lon="-8.4685575"><ele>265.66666666666663</ele><time>2026-04-05T09:12:54.603Z</time></trkpt><trkpt lat="43.2332161" lon="-8.4687576"><ele>259.0</ele><time>2026-04-05T09:12:55.602Z</time></trkpt><trkpt lat="43.2332687" lon="-8.4689565"><ele>259.0</ele><time>2026-04-05T09:12:56.602Z</time></trkpt><trkpt lat="43.2333065" lon="-8.4691517"><ele>259.0</ele><time>2026-04-05T09:12:57.602Z</time></trkpt><trkpt lat="43.2333059" lon="-8.4693599"><ele>259.0</ele><time>2026-04-05T09:12:58.602Z</time></trkpt><trkpt lat="43.233305" lon="-8.4695617"><ele>259.0</ele><time>2026-04-05T09:12:59.603Z</time></trkpt><trkpt lat="43.2332985" lon="-8.4697526"><ele>259.25</ele><time>2026-04-05T09:13:00.602Z</time></trkpt><trkpt lat="43.2332889" lon="-8.469934"><ele>259.5</ele><time>2026-04-05T09:13:01.603Z</time></trkpt><trkpt lat="43.233292" lon="-8.4701129"><ele>259.75</ele><time>2026-04-05T09:13:02.603Z</time></trkpt><trkpt lat="43.2333325" lon="-8.4702874"><ele>260.0</ele><time>2026-04-05T09:13:03.603Z</time></trkpt><trkpt lat="43.2333999" lon="-8.4704524"><ele>262.6666666666667</ele><time>2026-04-05T09:13:04.602Z</time></trkpt><trkpt lat="43.2334952" lon="-8.4706093"><ele>265.3333333333333</ele><time>2026-04-05T09:13:05.603Z</time></trkpt><trkpt lat="43.2335975" lon="-8.4707631"><ele>268.0</ele><time>2026-04-05T09:13:06.603Z</time></trkpt><trkpt lat="43.2337096" lon="-8.4709044"><ele>268.0</ele><time>2026-04-05T09:13:07.603Z</time></trkpt><trkpt lat="43.2338244" lon="-8.471028"><ele>268.0</ele><time>2026-04-05T09:13:08.603Z</time></trkpt><trkpt lat="43.2339229" lon="-8.4711541"><ele>268.0</ele><time>2026-04-05T09:13:09.603Z</time></trkpt><trkpt lat="43.2340049" lon="-8.4712832"><ele>268.0</ele><time>2026-04-05T09:13:10.602Z</time></trkpt><trkpt lat="43.2340518" lon="-8.4714396"><ele>264.0</ele><time>2026-04-05T09:13:11.603Z</time></trkpt><trkpt lat="43.2340708" lon="-8.4716091"><ele>260.0</ele><time>2026-04-05T09:13:12.603Z</time></trkpt><trkpt lat="43.2340713" lon="-8.471791"><ele>256.0</ele><time>2026-04-05T09:13:13.603Z</time></trkpt><trkpt lat="43.2340403" lon="-8.4719954"><ele>252.0</ele><time>2026-04-05T09:13:14.603Z</time></trkpt><trkpt lat="43.2340397" lon="-8.4721967"><ele>251.25</ele><time>2026-04-05T09:13:15.603Z</time></trkpt><trkpt lat="43.2340383" lon="-8.4723875"><ele>250.5</ele><time>2026-04-05T09:13:16.603Z</time></trkpt><trkpt lat="43.2340104" lon="-8.4725634"><ele>249.75</ele><time>2026-04-05T09:13:17.603Z</time></trkpt><trkpt lat="43.2339608" lon="-8.4727248"><ele>249.0</ele><time>2026-04-05T09:13:18.603Z</time></trkpt><trkpt lat="43.2338945" lon="-8.4728782"><ele>247.5</ele><time>2026-04-05T09:13:19.603Z</time></trkpt><trkpt lat="43.2338336" lon="-8.4730271"><ele>246.0</ele><time>2026-04-05T09:13:20.603Z</time></trkpt><trkpt lat="43.2337616" lon="-8.4731719"><ele>244.5</ele><time>2026-04-05T09:13:21.602Z</time></trkpt><trkpt lat="43.2336829" lon="-8.4733127"><ele>243.0</ele><time>2026-04-05T09:13:22.603Z</time></trkpt><trkpt lat="43.2336046" lon="-8.4734493"><ele>243.0</ele><time>2026-04-05T09:13:23.603Z</time></trkpt><trkpt lat="43.2335316" lon="-8.4735905"><ele>243.0</ele><time>2026-04-05T09:13:24.602Z</time></trkpt><trkpt lat="43.233468" lon="-8.4737322"><ele>243.0</ele><time>2026-04-05T09:13:25.603Z</time></trkpt><trkpt lat="43.2334357" lon="-8.4739089"><ele>243.0</ele><time>2026-04-05T09:13:26.603Z</time></trkpt><trkpt lat="43.2334297" lon="-8.4740888"><ele>241.5</ele><time>2026-04-05T09:13:27.602Z</time></trkpt><trkpt lat="43.2334442" lon="-8.4742721"><ele>240.0</ele><time>2026-04-05T09:13:28.603Z</time></trkpt><trkpt lat="43.2334778" lon="-8.4744576"><ele>238.5</ele><time>2026-04-05T09:13:29.603Z</time></trkpt><trkpt lat="43.2335138" lon="-8.4746485"><ele>237.0</ele><time>2026-04-05T09:13:30.603Z</time></trkpt><trkpt lat="43.2335495" lon="-8.4748248"><ele>235.25</ele><time>2026-04-05T09:13:31.603Z</time></trkpt><trkpt lat="43.2335735" lon="-8.4749976"><ele>233.5</ele><time>2026-04-05T09:13:32.602Z</time></trkpt><trkpt lat="43.2335749" lon="-8.4751726"><ele>231.75</ele><time>2026-04-05T09:13:33.603Z</time></trkpt><trkpt lat="43.2335451" lon="-8.4753362"><ele>230.0</ele><time>2026-04-05T09:13:34.602Z</time></trkpt><trkpt lat="43.2334802" lon="-8.4754854"><ele>230.0</ele><time>2026-04-05T09:13:35.602Z</time></trkpt><trkpt lat="43.2333911" lon="-8.4756028"><ele>230.0</ele><time>2026-04-05T09:13:36.602Z</time></trkpt><trkpt lat="43.2332799" lon="-8.4756891"><ele>230.0</ele><time>2026-04-05T09:13:37.603Z</time></trkpt><trkpt lat="43.2331654" lon="-8.4757637"><ele>230.0</ele><time>2026-04-05T09:13:38.603Z</time></trkpt><trkpt lat="43.2330652" lon="-8.475854"><ele>226.25</ele><time>2026-04-05T09:13:39.603Z</time></trkpt><trkpt lat="43.2330038" lon="-8.4759833"><ele>222.5</ele><time>2026-04-05T09:13:40.602Z</time></trkpt><trkpt lat="43.2329737" lon="-8.4761326"><ele>218.75</ele><time>2026-04-05T09:13:41.603Z</time></trkpt><trkpt lat="43.2329659" lon="-8.4762955"><ele>215.0</ele><time>2026-04-05T09:13:42.602Z</time></trkpt><trkpt lat="43.2329618" lon="-8.4764736"><ele>215.0</ele><time>2026-04-05T09:13:43.603Z</time></trkpt><trkpt lat="43.2329534" lon="-8.4766586"><ele>215.0</ele><time>2026-04-05T09:13:44.603Z</time></trkpt><trkpt lat="43.2329507" lon="-8.4768485"><ele>215.0</ele><time>2026-04-05T09:13:45.603Z</time></trkpt><trkpt lat="43.2329419" lon="-8.4770423"><ele>215.0</ele><time>2026-04-05T09:13:46.603Z</time></trkpt><trkpt lat="43.2329314" lon="-8.4772348"><ele>214.25</ele><time>2026-04-05T09:13:47.602Z</time></trkpt><trkpt lat="43.2329214" lon="-8.4774233"><ele>213.5</ele><time>2026-04-05T09:13:48.602Z</time></trkpt><trkpt lat="43.2329088" lon="-8.4776139"><ele>212.75</ele><time>2026-04-05T09:13:49.603Z</time></trkpt><trkpt lat="43.2329011" lon="-8.4778039"><ele>212.0</ele><time>2026-04-05T09:13:50.603Z</time></trkpt><trkpt lat="43.232892" lon="-8.4779946"><ele>212.0</ele><time>2026-04-05T09:13:51.603Z</time></trkpt><trkpt lat="43.232886" lon="-8.4781848"><ele>212.0</ele><time>2026-04-05T09:13:52.603Z</time></trkpt><trkpt lat="43.2328792" lon="-8.4783718"><ele>212.0</ele><time>2026-04-05T09:13:53.603Z</time></trkpt><trkpt lat="43.2328686" lon="-8.4785578"><ele>212.0</ele><time>2026-04-05T09:13:54.603Z</time></trkpt><trkpt lat="43.232859" lon="-8.478738"><ele>213.25</ele><time>2026-04-05T09:13:55.602Z</time></trkpt><trkpt lat="43.2328667" lon="-8.4789162"><ele>214.5</ele><time>2026-04-05T09:13:56.603Z</time></trkpt><trkpt lat="43.2328951" lon="-8.4790926"><ele>215.75</ele><time>2026-04-05T09:13:57.602Z</time></trkpt><trkpt lat="43.2329431" lon="-8.4792552"><ele>217.0</ele><time>2026-04-05T09:13:58.603Z</time></trkpt><trkpt lat="43.2330007" lon="-8.4794196"><ele>217.0</ele><time>2026-04-05T09:13:59.602Z</time></trkpt><trkpt lat="43.2330641" lon="-8.4795836"><ele>217.0</ele><time>2026-04-05T09:14:00.603Z</time></trkpt><trkpt lat="43.2331294" lon="-8.4797528"><ele>217.0</ele><time>2026-04-05T09:14:01.603Z</time></trkpt><trkpt lat="43.2331918" lon="-8.479926"><ele>217.0</ele><time>2026-04-05T09:14:02.603Z</time></trkpt><trkpt lat="43.2332574" lon="-8.4801014"><ele>216.5</ele><time>2026-04-05T09:14:03.603Z</time></trkpt><trkpt lat="43.2333262" lon="-8.4802791"><ele>216.0</ele><time>2026-04-05T09:14:04.602Z</time></trkpt><trkpt lat="43.2334115" lon="-8.480447"><ele>215.5</ele><time>2026-04-05T09:14:05.603Z</time></trkpt><trkpt lat="43.2335155" lon="-8.4805974"><ele>215.0</ele><time>2026-04-05T09:14:06.603Z</time></trkpt><trkpt lat="43.2336259" lon="-8.4807376"><ele>214.33333333333334</ele><time>2026-04-05T09:14:07.602Z</time></trkpt><trkpt lat="43.2337264" lon="-8.4808963"><ele>213.66666666666669</ele><time>2026-04-05T09:14:08.603Z</time></trkpt><trkpt lat="43.2338062" lon="-8.4810759"><ele>213.0</ele><time>2026-04-05T09:14:09.602Z</time></trkpt><trkpt lat="43.2338653" lon="-8.4812821"><ele>217.0</ele><time>2026-04-05T09:14:10.603Z</time></trkpt><trkpt lat="43.2339056" lon="-8.4814919"><ele>221.0</ele><time>2026-04-05T09:14:11.603Z</time></trkpt><trkpt lat="43.2339215" lon="-8.4817077"><ele>225.0</ele><time>2026-04-05T09:14:12.603Z</time></trkpt><trkpt lat="43.2339348" lon="-8.4819263"><ele>223.25</ele><time>2026-04-05T09:14:13.602Z</time></trkpt><trkpt lat="43.2339302" lon="-8.4821086"><ele>221.5</ele><time>2026-04-05T09:14:14.602Z</time></trkpt><trkpt lat="43.2339164" lon="-8.4822897"><ele>219.75</ele><time>2026-04-05T09:14:15.603Z</time></trkpt><trkpt lat="43.2339103" lon="-8.4824666"><ele>218.0</ele><time>2026-04-05T09:14:16.603Z</time></trkpt><trkpt lat="43.2339153" lon="-8.4826417"><ele>218.0</ele><time>2026-04-05T09:14:17.603Z</time></trkpt><trkpt lat="43.2339034" lon="-8.482821"><ele>218.0</ele><time>2026-04-05T09:14:18.603Z</time></trkpt><trkpt lat="43.2338962" lon="-8.4829977"><ele>218.0</ele><time>2026-04-05T09:14:19.603Z</time></trkpt><trkpt lat="43.2338924" lon="-8.4831759"><ele>218.0</ele><time>2026-04-05T09:14:20.603Z</time></trkpt><trkpt lat="43.2339019" lon="-8.4833575"><ele>215.5</ele><time>2026-04-05T09:14:21.603Z</time></trkpt><trkpt lat="43.2339118" lon="-8.4835422"><ele>213.0</ele><time>2026-04-05T09:14:22.602Z</time></trkpt><trkpt lat="43.233921" lon="-8.4837268"><ele>210.5</ele><time>2026-04-05T09:14:23.603Z</time></trkpt><trkpt lat="43.2339286" lon="-8.4839155"><ele>208.0</ele><time>2026-04-05T09:14:24.602Z</time></trkpt><trkpt lat="43.2339315" lon="-8.4841081"><ele>207.25</ele><time>2026-04-05T09:14:25.602Z</time></trkpt><trkpt lat="43.233945" lon="-8.484303"><ele>206.5</ele><time>2026-04-05T09:14:26.602Z</time></trkpt><trkpt lat="43.2339559" lon="-8.4845"><ele>205.75</ele><time>2026-04-05T09:14:27.603Z</time></trkpt><trkpt lat="43.2339683" lon="-8.4847007"><ele>205.0</ele><time>2026-04-05T09:14:28.603Z</time></trkpt><trkpt lat="43.2339795" lon="-8.484903"><ele>204.75</ele><time>2026-04-05T09:14:29.603Z</time></trkpt><trkpt lat="43.2339894" lon="-8.4850999"><ele>204.5</ele><time>2026-04-05T09:14:30.602Z</time></trkpt><trkpt lat="43.2339964" lon="-8.4852939"><ele>204.25</ele><time>2026-04-05T09:14:31.603Z</time></trkpt><trkpt lat="43.2340104" lon="-8.4854859"><ele>204.0</ele><time>2026-04-05T09:14:32.602Z</time></trkpt><trkpt lat="43.2340241" lon="-8.4856732"><ele>204.0</ele><time>2026-04-05T09:14:33.603Z</time></trkpt><trkpt lat="43.2340351" lon="-8.4858511"><ele>204.0</ele><time>2026-04-05T09:14:34.603Z</time></trkpt><trkpt lat="43.2340183" lon="-8.4860229"><ele>204.0</ele><time>2026-04-05T09:14:35.603Z</time></trkpt><trkpt lat="43.2339608" lon="-8.4861859"><ele>204.0</ele><time>2026-04-05T09:14:36.603Z</time></trkpt><trkpt lat="43.2338785" lon="-8.4863379"><ele>203.0</ele><time>2026-04-05T09:14:37.602Z</time></trkpt><trkpt lat="43.233788" lon="-8.4864813"><ele>202.0</ele><time>2026-04-05T09:14:38.602Z</time></trkpt><trkpt lat="43.2336937" lon="-8.4866243"><ele>201.0</ele><time>2026-04-05T09:14:39.602Z</time></trkpt><trkpt lat="43.2336012" lon="-8.4867734"><ele>200.0</ele><time>2026-04-05T09:14:40.603Z</time></trkpt><trkpt lat="43.2335079" lon="-8.4869236"><ele>200.0</ele><time>2026-04-05T09:14:41.602Z</time></trkpt><trkpt lat="43.2334122" lon="-8.4870716"><ele>200.0</ele><time>2026-04-05T09:14:42.603Z</time></trkpt><trkpt lat="43.2333176" lon="-8.487216"><ele>200.0</ele><time>2026-04-05T09:14:43.602Z</time></trkpt><trkpt lat="43.2332232" lon="-8.4873601"><ele>200.0</ele><time>2026-04-05T09:14:44.603Z</time></trkpt><trkpt lat="43.2331317" lon="-8.4875019"><ele>201.25</ele><time>2026-04-05T09:14:45.603Z</time></trkpt><trkpt lat="43.233044" lon="-8.4876409"><ele>202.5</ele><time>2026-04-05T09:14:46.602Z</time></trkpt><trkpt lat="43.2329618" lon="-8.4877781"><ele>203.75</ele><time>2026-04-05T09:14:47.603Z</time></trkpt><trkpt lat="43.2328857" lon="-8.4879122"><ele>205.0</ele><time>2026-04-05T09:14:48.603Z</time></trkpt><trkpt lat="43.2328366" lon="-8.4880683"><ele>205.75</ele><time>2026-04-05T09:14:49.603Z</time></trkpt><trkpt lat="43.2328099" lon="-8.488236"><ele>206.5</ele><time>2026-04-05T09:14:50.602Z</time></trkpt><trkpt lat="43.2327906" lon="-8.4884056"><ele>207.25</ele><time>2026-04-05T09:14:51.602Z</time></trkpt><trkpt lat="43.2327492" lon="-8.4885629"><ele>208.0</ele><time>2026-04-05T09:14:52.603Z</time></trkpt><trkpt lat="43.2326819" lon="-8.488707"><ele>207.60000000000002</ele><time>2026-04-05T09:14:53.603Z</time></trkpt><trkpt lat="43.2326337" lon="-8.4888462"><ele>207.20000000000002</ele><time>2026-04-05T09:14:54.602Z</time></trkpt><trkpt lat="43.2326311" lon="-8.4889926"><ele>206.8</ele><time>2026-04-05T09:14:55.603Z</time></trkpt><trkpt lat="43.2326832" lon="-8.4891155"><ele>206.4</ele><time>2026-04-05T09:14:56.602Z</time></trkpt><trkpt lat="43.2327649" lon="-8.4892028"><ele>206.0</ele><time>2026-04-05T09:14:57.602Z</time></trkpt><trkpt lat="43.2328529" lon="-8.4892901"><ele>206.0</ele><time>2026-04-05T09:14:58.602Z</time></trkpt><trkpt lat="43.2329384" lon="-8.4893921"><ele>206.0</ele><time>2026-04-05T09:14:59.603Z</time></trkpt><trkpt lat="43.2330018" lon="-8.4895126"><ele>206.0</ele><time>2026-04-05T09:15:00.603Z</time></trkpt><trkpt lat="43.2330444" lon="-8.489646"><ele>206.0</ele><time>2026-04-05T09:15:01.603Z</time></trkpt><trkpt lat="43.2330588" lon="-8.4897849"><ele>206.0</ele><time>2026-04-05T09:15:02.602Z</time></trkpt><trkpt lat="43.233034" lon="-8.489923"><ele>205.75</ele><time>2026-04-05T09:15:03.602Z</time></trkpt><trkpt lat="43.232984" lon="-8.4900545"><ele>205.5</ele><time>2026-04-05T09:15:04.603Z</time></trkpt><trkpt lat="43.2329198" lon="-8.4901863"><ele>205.25</ele><time>2026-04-05T09:15:05.603Z</time></trkpt><trkpt lat="43.2328603" lon="-8.4903282"><ele>205.0</ele><time>2026-04-05T09:15:06.603Z</time></trkpt><trkpt lat="43.2328013" lon="-8.4904789"><ele>205.0</ele><time>2026-04-05T09:15:07.603Z</time></trkpt><trkpt lat="43.2327329" lon="-8.4906287"><ele>205.0</ele><time>2026-04-05T09:15:08.602Z</time></trkpt><trkpt lat="43.2326658" lon="-8.4907826"><ele>205.0</ele><time>2026-04-05T09:15:09.602Z</time></trkpt><trkpt lat="43.2326003" lon="-8.490939"><ele>205.0</ele><time>2026-04-05T09:15:10.602Z</time></trkpt><trkpt lat="43.2325328" lon="-8.4910924"><ele>205.0</ele><time>2026-04-05T09:15:11.602Z</time></trkpt><trkpt lat="43.2324682" lon="-8.4912432"><ele>205.0</ele><time>2026-04-05T09:15:12.603Z</time></trkpt><trkpt lat="43.2324053" lon="-8.4913897"><ele>205.0</ele><time>2026-04-05T09:15:13.602Z</time></trkpt><trkpt lat="43.2323434" lon="-8.4915324"><ele>205.0</ele><time>2026-04-05T09:15:14.603Z</time></trkpt><trkpt lat="43.232286" lon="-8.4916828"><ele>208.0</ele><time>2026-04-05T09:15:15.603Z</time></trkpt><trkpt lat="43.2322402" lon="-8.4918397"><ele>211.0</ele><time>2026-04-05T09:15:16.602Z</time></trkpt><trkpt lat="43.2322083" lon="-8.49201"><ele>214.0</ele><time>2026-04-05T09:15:17.603Z</time></trkpt><trkpt lat="43.2321903" lon="-8.4921892"><ele>217.0</ele><time>2026-04-05T09:15:18.602Z</time></trkpt><trkpt lat="43.2321841" lon="-8.4923768"><ele>217.0</ele><time>2026-04-05T09:15:19.602Z</time></trkpt><trkpt lat="43.2321746" lon="-8.492567"><ele>217.0</ele><time>2026-04-05T09:15:20.602Z</time></trkpt><trkpt lat="43.2321657" lon="-8.4927597"><ele>217.0</ele><time>2026-04-05T09:15:21.602Z</time></trkpt><trkpt lat="43.2321578" lon="-8.492959"><ele>217.0</ele><time>2026-04-05T09:15:22.602Z</time></trkpt><trkpt lat="43.2321494" lon="-8.4931599"><ele>216.75</ele><time>2026-04-05T09:15:23.603Z</time></trkpt><trkpt lat="43.2321388" lon="-8.4933567"><ele>216.5</ele><time>2026-04-05T09:15:24.602Z</time></trkpt><trkpt lat="43.232131" lon="-8.4935484"><ele>216.25</ele><time>2026-04-05T09:15:25.602Z</time></trkpt><trkpt lat="43.2321201" lon="-8.4937373"><ele>216.0</ele><time>2026-04-05T09:15:26.603Z</time></trkpt><trkpt lat="43.232114" lon="-8.4939177"><ele>216.0</ele><time>2026-04-05T09:15:27.603Z</time></trkpt><trkpt lat="43.2321075" lon="-8.4940972"><ele>216.0</ele><time>2026-04-05T09:15:28.603Z</time></trkpt><trkpt lat="43.2321002" lon="-8.4942729"><ele>216.0</ele><time>2026-04-05T09:15:29.603Z</time></trkpt><trkpt lat="43.2320959" lon="-8.4944464"><ele>216.0</ele><time>2026-04-05T09:15:30.603Z</time></trkpt><trkpt lat="43.2321037" lon="-8.494619"><ele>216.0</ele><time>2026-04-05T09:15:31.602Z</time></trkpt><trkpt lat="43.2321248" lon="-8.4947917"><ele>216.0</ele><time>2026-04-05T09:15:32.603Z</time></trkpt><trkpt lat="43.2321486" lon="-8.4949629"><ele>216.0</ele><time>2026-04-05T09:15:33.602Z</time></trkpt><trkpt lat="43.2321741" lon="-8.4951313"><ele>216.0</ele><time>2026-04-05T09:15:34.603Z</time></trkpt><trkpt lat="43.2321984" lon="-8.4953003"><ele>218.0</ele><time>2026-04-05T09:15:35.602Z</time></trkpt><trkpt lat="43.2322171" lon="-8.4954732"><ele>220.0</ele><time>2026-04-05T09:15:36.602Z</time></trkpt><trkpt lat="43.2322413" lon="-8.4956487"><ele>222.0</ele><time>2026-04-05T09:15:37.602Z</time></trkpt><trkpt lat="43.2322663" lon="-8.4958211"><ele>224.0</ele><time>2026-04-05T09:15:38.602Z</time></trkpt><trkpt lat="43.2322932" lon="-8.4959946"><ele>218.75</ele><time>2026-04-05T09:15:39.603Z</time></trkpt><trkpt lat="43.2323105" lon="-8.4961721"><ele>213.5</ele><time>2026-04-05T09:15:40.603Z</time></trkpt><trkpt lat="43.2323313" lon="-8.4963414"><ele>208.25</ele><time>2026-04-05T09:15:41.603Z</time></trkpt><trkpt lat="43.2323315" lon="-8.4965168"><ele>203.0</ele><time>2026-04-05T09:15:42.603Z</time></trkpt><trkpt lat="43.2323296" lon="-8.4966826"><ele>202.8</ele><time>2026-04-05T09:15:43.602Z</time></trkpt><trkpt lat="43.2323076" lon="-8.4968166"><ele>202.60000000000002</ele><time>2026-04-05T09:15:44.602Z</time></trkpt><trkpt lat="43.2322605" lon="-8.4969638"><ele>202.39999999999998</ele><time>2026-04-05T09:15:45.603Z</time></trkpt><trkpt lat="43.232269" lon="-8.497122"><ele>202.2</ele><time>2026-04-05T09:15:46.602Z</time></trkpt><trkpt lat="43.232312" lon="-8.4972661"><ele>202.0</ele><time>2026-04-05T09:15:47.603Z</time></trkpt><trkpt lat="43.2323782" lon="-8.4973898"><ele>203.25</ele><time>2026-04-05T09:15:48.602Z</time></trkpt><trkpt lat="43.2324505" lon="-8.4975083"><ele>204.5</ele><time>2026-04-05T09:15:49.603Z</time></trkpt><trkpt lat="43.2325046" lon="-8.4976449"><ele>205.75</ele><time>2026-04-05T09:15:50.603Z</time></trkpt><trkpt lat="43.2325287" lon="-8.4978162"><ele>207.0</ele><time>2026-04-05T09:15:51.603Z</time></trkpt><trkpt lat="43.232544" lon="-8.4979734"><ele>207.8</ele><time>2026-04-05T09:15:52.603Z</time></trkpt><trkpt lat="43.2325618" lon="-8.4981206"><ele>208.6</ele><time>2026-04-05T09:15:53.603Z</time></trkpt><trkpt lat="43.2325846" lon="-8.4982503"><ele>209.4</ele><time>2026-04-05T09:15:54.602Z</time></trkpt><trkpt lat="43.232605" lon="-8.4983733"><ele>210.20000000000002</ele><time>2026-04-05T09:15:55.602Z</time></trkpt><trkpt lat="43.2326205" lon="-8.4984907"><ele>211.0</ele><time>2026-04-05T09:15:56.603Z</time></trkpt><trkpt lat="43.2326298" lon="-8.4986213"><ele>210.5</ele><time>2026-04-05T09:15:57.603Z</time></trkpt><trkpt lat="43.2326378" lon="-8.4987599"><ele>210.0</ele><time>2026-04-05T09:15:58.603Z</time></trkpt><trkpt lat="43.2326352" lon="-8.498917"><ele>209.5</ele><time>2026-04-05T09:15:59.603Z</time></trkpt><trkpt lat="43.2326287" lon="-8.4990944"><ele>209.0</ele><time>2026-04-05T09:16:00.603Z</time></trkpt><trkpt lat="43.2326352" lon="-8.4992822"><ele>209.0</ele><time>2026-04-05T09:16:01.603Z</time></trkpt><trkpt lat="43.2326363" lon="-8.4994748"><ele>209.0</ele><time>2026-04-05T09:16:02.602Z</time></trkpt><trkpt lat="43.2326471" lon="-8.4996674"><ele>209.0</ele><time>2026-04-05T09:16:03.603Z</time></trkpt><trkpt lat="43.232684" lon="-8.4998633"><ele>209.0</ele><time>2026-04-05T09:16:04.603Z</time></trkpt><trkpt lat="43.2327473" lon="-8.5000621"><ele>208.66666666666669</ele><time>2026-04-05T09:16:05.602Z</time></trkpt><trkpt lat="43.2328319" lon="-8.5002543"><ele>208.33333333333331</ele><time>2026-04-05T09:16:06.603Z</time></trkpt><trkpt lat="43.2329325" lon="-8.5004452"><ele>208.0</ele><time>2026-04-05T09:16:07.603Z</time></trkpt><trkpt lat="43.2330391" lon="-8.5006312"><ele>203.66666666666666</ele><time>2026-04-05T09:16:08.603Z</time></trkpt><trkpt lat="43.2331452" lon="-8.5008135"><ele>199.33333333333331</ele><time>2026-04-05T09:16:09.603Z</time></trkpt><trkpt lat="43.2332438" lon="-8.5010035"><ele>195.0</ele><time>2026-04-05T09:16:10.603Z</time></trkpt><trkpt lat="43.2333413" lon="-8.5011924"><ele>196.0</ele><time>2026-04-05T09:16:11.603Z</time></trkpt><trkpt lat="43.2334364" lon="-8.5013818"><ele>197.0</ele><time>2026-04-05T09:16:12.603Z</time></trkpt><trkpt lat="43.2335343" lon="-8.501568"><ele>198.0</ele><time>2026-04-05T09:16:13.603Z</time></trkpt><trkpt lat="43.23362" lon="-8.5017616"><ele>198.0</ele><time>2026-04-05T09:16:14.603Z</time></trkpt><trkpt lat="43.2336977" lon="-8.5019611"><ele>198.0</ele><time>2026-04-05T09:16:15.602Z</time></trkpt><trkpt lat="43.2337753" lon="-8.5021525"><ele>198.0</ele><time>2026-04-05T09:16:16.603Z</time></trkpt><trkpt lat="43.2338464" lon="-8.5023399"><ele>198.0</ele><time>2026-04-05T09:16:17.603Z</time></trkpt><trkpt lat="43.2339141" lon="-8.5025248"><ele>198.0</ele><time>2026-04-05T09:16:18.603Z</time></trkpt><trkpt lat="43.2339825" lon="-8.5027055"><ele>198.0</ele><time>2026-04-05T09:16:19.602Z</time></trkpt><trkpt lat="43.2340497" lon="-8.5028792"><ele>198.0</ele><time>2026-04-05T09:16:20.603Z</time></trkpt><trkpt lat="43.234118" lon="-8.5030484"><ele>198.0</ele><time>2026-04-05T09:16:21.602Z</time></trkpt><trkpt lat="43.2341867" lon="-8.5032115"><ele>198.0</ele><time>2026-04-05T09:16:22.603Z</time></trkpt><trkpt lat="43.2342519" lon="-8.5033778"><ele>198.0</ele><time>2026-04-05T09:16:23.603Z</time></trkpt><trkpt lat="43.2343172" lon="-8.5035432"><ele>198.0</ele><time>2026-04-05T09:16:24.603Z</time></trkpt><trkpt lat="43.2343817" lon="-8.5037133"><ele>199.0</ele><time>2026-04-05T09:16:25.603Z</time></trkpt><trkpt lat="43.2344484" lon="-8.5038881"><ele>200.0</ele><time>2026-04-05T09:16:26.603Z</time></trkpt><trkpt lat="43.2345196" lon="-8.504074"><ele>201.0</ele><time>2026-04-05T09:16:27.602Z</time></trkpt><trkpt lat="43.2345939" lon="-8.504269"><ele>201.0</ele><time>2026-04-05T09:16:28.603Z</time></trkpt><trkpt lat="43.2346755" lon="-8.5044648"><ele>201.0</ele><time>2026-04-05T09:16:29.603Z</time></trkpt><trkpt lat="43.2347581" lon="-8.5046754"><ele>201.0</ele><time>2026-04-05T09:16:30.603Z</time></trkpt><trkpt lat="43.234847" lon="-8.5048999"><ele>198.0</ele><time>2026-04-05T09:16:31.603Z</time></trkpt><trkpt lat="43.2349347" lon="-8.5051276"><ele>195.0</ele><time>2026-04-05T09:16:32.603Z</time></trkpt><trkpt lat="43.2350323" lon="-8.5053615"><ele>192.0</ele><time>2026-04-05T09:16:33.603Z</time></trkpt><trkpt lat="43.2351268" lon="-8.5055917"><ele>192.0</ele><time>2026-04-05T09:16:34.603Z</time></trkpt><trkpt lat="43.2352121" lon="-8.5058259"><ele>192.0</ele><time>2026-04-05T09:16:35.603Z</time></trkpt><trkpt lat="43.235298" lon="-8.5060596"><ele>192.0</ele><time>2026-04-05T09:16:36.602Z</time></trkpt><trkpt lat="43.2353885" lon="-8.5062862"><ele>192.33333333333331</ele><time>2026-04-05T09:16:37.603Z</time></trkpt><trkpt lat="43.2354788" lon="-8.5065115"><ele>192.66666666666666</ele><time>2026-04-05T09:16:38.602Z</time></trkpt><trkpt lat="43.2355678" lon="-8.5067329"><ele>193.0</ele><time>2026-04-05T09:16:39.603Z</time></trkpt><trkpt lat="43.2356552" lon="-8.5069498"><ele>193.0</ele><time>2026-04-05T09:16:40.603Z</time></trkpt><trkpt lat="43.2357422" lon="-8.5071658"><ele>193.0</ele><time>2026-04-05T09:16:41.603Z</time></trkpt><trkpt lat="43.2358238" lon="-8.5073761"><ele>193.0</ele><time>2026-04-05T09:16:42.603Z</time></trkpt><trkpt lat="43.2359031" lon="-8.5075839"><ele>193.0</ele><time>2026-04-05T09:16:43.602Z</time></trkpt><trkpt lat="43.2359847" lon="-8.5077826"><ele>193.0</ele><time>2026-04-05T09:16:44.603Z</time></trkpt><trkpt lat="43.2360648" lon="-8.5079918"><ele>193.0</ele><time>2026-04-05T09:16:45.602Z</time></trkpt><trkpt lat="43.2361433" lon="-8.5081981"><ele>192.66666666666666</ele><time>2026-04-05T09:16:46.603Z</time></trkpt><trkpt lat="43.2362203" lon="-8.508399"><ele>192.33333333333331</ele><time>2026-04-05T09:16:47.603Z</time></trkpt><trkpt lat="43.2362955" lon="-8.5085979"><ele>192.0</ele><time>2026-04-05T09:16:48.602Z</time></trkpt><trkpt lat="43.236371" lon="-8.5087982"><ele>192.0</ele><time>2026-04-05T09:16:49.603Z</time></trkpt><trkpt lat="43.2364476" lon="-8.5089992"><ele>192.0</ele><time>2026-04-05T09:16:50.603Z</time></trkpt><trkpt lat="43.2365261" lon="-8.5091968"><ele>192.0</ele><time>2026-04-05T09:16:51.603Z</time></trkpt><trkpt lat="43.236602" lon="-8.5094007"><ele>190.33333333333334</ele><time>2026-04-05T09:16:52.603Z</time></trkpt><trkpt lat="43.236679" lon="-8.5096033"><ele>188.66666666666669</ele><time>2026-04-05T09:16:53.603Z</time></trkpt><trkpt lat="43.2367594" lon="-8.5098056"><ele>187.0</ele><time>2026-04-05T09:16:54.603Z</time></trkpt><trkpt lat="43.2368401" lon="-8.510011"><ele>187.0</ele><time>2026-04-05T09:16:55.602Z</time></trkpt><trkpt lat="43.2369249" lon="-8.5102171"><ele>187.0</ele><time>2026-04-05T09:16:56.603Z</time></trkpt><trkpt lat="43.2370267" lon="-8.5104059"><ele>187.0</ele><time>2026-04-05T09:16:57.603Z</time></trkpt><trkpt lat="43.2371368" lon="-8.5105863"><ele>187.33333333333334</ele><time>2026-04-05T09:16:58.603Z</time></trkpt><trkpt lat="43.2372452" lon="-8.5107601"><ele>187.66666666666666</ele><time>2026-04-05T09:16:59.603Z</time></trkpt><trkpt lat="43.2373493" lon="-8.5109328"><ele>188.0</ele><time>2026-04-05T09:17:00.603Z</time></trkpt><trkpt lat="43.237457" lon="-8.5111094"><ele>186.66666666666666</ele><time>2026-04-05T09:17:01.603Z</time></trkpt><trkpt lat="43.2375628" lon="-8.5112881"><ele>185.33333333333334</ele><time>2026-04-05T09:17:02.602Z</time></trkpt><trkpt lat="43.2376688" lon="-8.5114651"><ele>184.0</ele><time>2026-04-05T09:17:03.603Z</time></trkpt><trkpt lat="43.2377754" lon="-8.5116432"><ele>184.0</ele><time>2026-04-05T09:17:04.602Z</time></trkpt><trkpt lat="43.2378829" lon="-8.5118224"><ele>184.0</ele><time>2026-04-05T09:17:05.602Z</time></trkpt><trkpt lat="43.2379867" lon="-8.5119963"><ele>184.0</ele><time>2026-04-05T09:17:06.602Z</time></trkpt><trkpt lat="43.2380918" lon="-8.5121652"><ele>183.0</ele><time>2026-04-05T09:17:07.602Z</time></trkpt><trkpt lat="43.2381927" lon="-8.5123321"><ele>182.0</ele><time>2026-04-05T09:17:08.603Z</time></trkpt><trkpt lat="43.2382903" lon="-8.5124969"><ele>181.0</ele><time>2026-04-05T09:17:09.602Z</time></trkpt><trkpt lat="43.2383877" lon="-8.5126659"><ele>181.0</ele><time>2026-04-05T09:17:10.602Z</time></trkpt><trkpt lat="43.2384885" lon="-8.5128365"><ele>181.0</ele><time>2026-04-05T09:17:11.602Z</time></trkpt><trkpt lat="43.238589" lon="-8.5130112"><ele>181.0</ele><time>2026-04-05T09:17:12.603Z</time></trkpt><trkpt lat="43.2386917" lon="-8.5131831"><ele>180.66666666666669</ele><time>2026-04-05T09:17:13.603Z</time></trkpt><trkpt lat="43.238794" lon="-8.5133565"><ele>180.33333333333334</ele><time>2026-04-05T09:17:14.603Z</time></trkpt><trkpt lat="43.2389008" lon="-8.5135236"><ele>180.0</ele><time>2026-04-05T09:17:15.603Z</time></trkpt><trkpt lat="43.2390028" lon="-8.5136901"><ele>181.33333333333334</ele><time>2026-04-05T09:17:16.603Z</time></trkpt><trkpt lat="43.239101" lon="-8.5138576"><ele>182.66666666666669</ele><time>2026-04-05T09:17:17.603Z</time></trkpt><trkpt lat="43.2391961" lon="-8.5140224"><ele>184.0</ele><time>2026-04-05T09:17:18.603Z</time></trkpt><trkpt lat="43.2392911" lon="-8.5141789"><ele>184.0</ele><time>2026-04-05T09:17:19.603Z</time></trkpt><trkpt lat="43.2393847" lon="-8.5143288"><ele>184.0</ele><time>2026-04-05T09:17:20.602Z</time></trkpt><trkpt lat="43.2394736" lon="-8.5144754"><ele>184.0</ele><time>2026-04-05T09:17:21.603Z</time></trkpt><trkpt lat="43.2395672" lon="-8.5146192"><ele>184.0</ele><time>2026-04-05T09:17:22.602Z</time></trkpt><trkpt lat="43.2396473" lon="-8.5147426"><ele>183.79999999999998</ele><time>2026-04-05T09:17:23.602Z</time></trkpt><trkpt lat="43.2397229" lon="-8.5148659"><ele>183.6</ele><time>2026-04-05T09:17:24.603Z</time></trkpt><trkpt lat="43.2397855" lon="-8.5149854"><ele>183.4</ele><time>2026-04-05T09:17:25.602Z</time></trkpt><trkpt lat="43.2398386" lon="-8.515101"><ele>183.2</ele><time>2026-04-05T09:17:26.602Z</time></trkpt><trkpt lat="43.2398753" lon="-8.515219"><ele>183.0</ele><time>2026-04-05T09:17:27.603Z</time></trkpt><trkpt lat="43.2398964" lon="-8.5153508"><ele>183.25</ele><time>2026-04-05T09:17:28.602Z</time></trkpt><trkpt lat="43.2399034" lon="-8.5155086"><ele>183.5</ele><time>2026-04-05T09:17:29.602Z</time></trkpt><trkpt lat="43.2399059" lon="-8.5156867"><ele>183.75</ele><time>2026-04-05T09:17:30.602Z</time></trkpt><trkpt lat="43.2399043" lon="-8.515891"><ele>184.0</ele><time>2026-04-05T09:17:31.603Z</time></trkpt><trkpt lat="43.2399111" lon="-8.5161121"><ele>183.0</ele><time>2026-04-05T09:17:32.603Z</time></trkpt><trkpt lat="43.2399215" lon="-8.5163437"><ele>182.0</ele><time>2026-04-05T09:17:33.603Z</time></trkpt><trkpt lat="43.2399389" lon="-8.5165838"><ele>181.0</ele><time>2026-04-05T09:17:34.603Z</time></trkpt><trkpt lat="43.2399561" lon="-8.5168279"><ele>180.33333333333334</ele><time>2026-04-05T09:17:35.603Z</time></trkpt><trkpt lat="43.23997" lon="-8.5170821"><ele>179.66666666666666</ele><time>2026-04-05T09:17:36.602Z</time></trkpt><trkpt lat="43.2399791" lon="-8.5173416"><ele>179.0</ele><time>2026-04-05T09:17:37.603Z</time></trkpt><trkpt lat="43.2399897" lon="-8.5176048"><ele>179.0</ele><time>2026-04-05T09:17:38.603Z</time></trkpt><trkpt lat="43.2399966" lon="-8.517877"><ele>179.0</ele><time>2026-04-05T09:17:39.603Z</time></trkpt><trkpt lat="43.2400016" lon="-8.5181442"><ele>179.0</ele><time>2026-04-05T09:17:40.602Z</time></trkpt><trkpt lat="43.2400126" lon="-8.518415"><ele>179.33333333333331</ele><time>2026-04-05T09:17:41.602Z</time></trkpt><trkpt lat="43.2400204" lon="-8.5186852"><ele>179.66666666666666</ele><time>2026-04-05T09:17:42.602Z</time></trkpt><trkpt lat="43.2400311" lon="-8.5189584"><ele>180.0</ele><time>2026-04-05T09:17:43.603Z</time></trkpt><trkpt lat="43.2400421" lon="-8.5192306"><ele>180.66666666666666</ele><time>2026-04-05T09:17:44.603Z</time></trkpt><trkpt lat="43.2400535" lon="-8.5194879"><ele>181.33333333333331</ele><time>2026-04-05T09:17:45.603Z</time></trkpt><trkpt lat="43.2400648" lon="-8.5197367"><ele>182.0</ele><time>2026-04-05T09:17:46.603Z</time></trkpt><trkpt lat="43.2400764" lon="-8.5199737"><ele>183.66666666666666</ele><time>2026-04-05T09:17:47.602Z</time></trkpt><trkpt lat="43.2400859" lon="-8.5201979"><ele>185.33333333333334</ele><time>2026-04-05T09:17:48.603Z</time></trkpt><trkpt lat="43.240098" lon="-8.5204141"><ele>187.0</ele><time>2026-04-05T09:17:49.602Z</time></trkpt><trkpt lat="43.2401095" lon="-8.5206267"><ele>187.0</ele><time>2026-04-05T09:17:50.603Z</time></trkpt><trkpt lat="43.2401178" lon="-8.5208334"><ele>187.0</ele><time>2026-04-05T09:17:51.603Z</time></trkpt><trkpt lat="43.2401256" lon="-8.5210411"><ele>187.0</ele><time>2026-04-05T09:17:52.602Z</time></trkpt><trkpt lat="43.2401348" lon="-8.5212453"><ele>188.33333333333334</ele><time>2026-04-05T09:17:53.603Z</time></trkpt><trkpt lat="43.2401391" lon="-8.5214558"><ele>189.66666666666666</ele><time>2026-04-05T09:17:54.603Z</time></trkpt><trkpt lat="43.2401436" lon="-8.5216749"><ele>191.0</ele><time>2026-04-05T09:17:55.603Z</time></trkpt><trkpt lat="43.2401545" lon="-8.5218925"><ele>189.0</ele><time>2026-04-05T09:17:56.603Z</time></trkpt><trkpt lat="43.2401653" lon="-8.522117"><ele>187.0</ele><time>2026-04-05T09:17:57.603Z</time></trkpt><trkpt lat="43.2401784" lon="-8.5223502"><ele>185.0</ele><time>2026-04-05T09:17:58.603Z</time></trkpt><trkpt lat="43.2401888" lon="-8.5225888"><ele>185.0</ele><time>2026-04-05T09:17:59.603Z</time></trkpt><trkpt lat="43.2401981" lon="-8.5228289"><ele>185.0</ele><time>2026-04-05T09:18:00.603Z</time></trkpt><trkpt lat="43.2402061" lon="-8.5230721"><ele>185.0</ele><time>2026-04-05T09:18:01.603Z</time></trkpt><trkpt lat="43.2402172" lon="-8.5233107"><ele>184.0</ele><time>2026-04-05T09:18:02.603Z</time></trkpt><trkpt lat="43.2402245" lon="-8.5235527"><ele>183.0</ele><time>2026-04-05T09:18:03.603Z</time></trkpt><trkpt lat="43.2402313" lon="-8.5237905"><ele>182.0</ele><time>2026-04-05T09:18:04.603Z</time></trkpt><trkpt lat="43.2402394" lon="-8.5240376"><ele>182.0</ele><time>2026-04-05T09:18:05.602Z</time></trkpt><trkpt lat="43.2402512" lon="-8.5242847"><ele>182.0</ele><time>2026-04-05T09:18:06.603Z</time></trkpt><trkpt lat="43.240263" lon="-8.5245331"><ele>182.0</ele><time>2026-04-05T09:18:07.603Z</time></trkpt><trkpt lat="43.2402763" lon="-8.52478"><ele>183.66666666666666</ele><time>2026-04-05T09:18:08.602Z</time></trkpt><trkpt lat="43.2402891" lon="-8.525025"><ele>185.33333333333334</ele><time>2026-04-05T09:18:09.602Z</time></trkpt><trkpt lat="43.2402968" lon="-8.5252693"><ele>187.0</ele><time>2026-04-05T09:18:10.602Z</time></trkpt><trkpt lat="43.2403043" lon="-8.5255179"><ele>187.0</ele><time>2026-04-05T09:18:11.603Z</time></trkpt><trkpt lat="43.2403122" lon="-8.5257719"><ele>187.0</ele><time>2026-04-05T09:18:12.603Z</time></trkpt><trkpt lat="43.2403219" lon="-8.5260265"><ele>187.0</ele><time>2026-04-05T09:18:13.603Z</time></trkpt><trkpt lat="43.2403336" lon="-8.5262769"><ele>186.33333333333334</ele><time>2026-04-05T09:18:14.603Z</time></trkpt><trkpt lat="43.2403441" lon="-8.5265302"><ele>185.66666666666666</ele><time>2026-04-05T09:18:15.602Z</time></trkpt><trkpt lat="43.2403544" lon="-8.5267785"><ele>185.0</ele><time>2026-04-05T09:18:16.602Z</time></trkpt><trkpt lat="43.2403674" lon="-8.5270214"><ele>186.0</ele><time>2026-04-05T09:18:17.602Z</time></trkpt><trkpt lat="43.2403812" lon="-8.527262"><ele>187.0</ele><time>2026-04-05T09:18:18.603Z</time></trkpt><trkpt lat="43.2403922" lon="-8.5274997"><ele>188.0</ele><time>2026-04-05T09:18:19.602Z</time></trkpt><trkpt lat="43.2404017" lon="-8.527743"><ele>188.66666666666666</ele><time>2026-04-05T09:18:20.602Z</time></trkpt><trkpt lat="43.2404114" lon="-8.5279835"><ele>189.33333333333334</ele><time>2026-04-05T09:18:21.603Z</time></trkpt><trkpt lat="43.2404183" lon="-8.5282224"><ele>190.0</ele><time>2026-04-05T09:18:22.602Z</time></trkpt><trkpt lat="43.2404285" lon="-8.5284618"><ele>190.0</ele><time>2026-04-05T09:18:23.603Z</time></trkpt><trkpt lat="43.2404336" lon="-8.5287034"><ele>190.0</ele><time>2026-04-05T09:18:24.603Z</time></trkpt><trkpt lat="43.2404431" lon="-8.5289445"><ele>190.0</ele><time>2026-04-05T09:18:25.603Z</time></trkpt><trkpt lat="43.2404478" lon="-8.5291864"><ele>189.66666666666669</ele><time>2026-04-05T09:18:26.603Z</time></trkpt><trkpt lat="43.2404535" lon="-8.5294292"><ele>189.33333333333334</ele><time>2026-04-05T09:18:27.603Z</time></trkpt><trkpt lat="43.2404595" lon="-8.5296666"><ele>189.0</ele><time>2026-04-05T09:18:28.602Z</time></trkpt><trkpt lat="43.2404601" lon="-8.5299057"><ele>188.33333333333334</ele><time>2026-04-05T09:18:29.602Z</time></trkpt><trkpt lat="43.2404669" lon="-8.5301508"><ele>187.66666666666669</ele><time>2026-04-05T09:18:30.603Z</time></trkpt><trkpt lat="43.2404736" lon="-8.530397"><ele>187.0</ele><time>2026-04-05T09:18:31.602Z</time></trkpt><trkpt lat="43.2404784" lon="-8.5306389"><ele>187.0</ele><time>2026-04-05T09:18:32.602Z</time></trkpt><trkpt lat="43.2404821" lon="-8.5308833"><ele>187.0</ele><time>2026-04-05T09:18:33.603Z</time></trkpt><trkpt lat="43.2404861" lon="-8.5311259"><ele>187.0</ele><time>2026-04-05T09:18:34.602Z</time></trkpt><trkpt lat="43.2404908" lon="-8.5313673"><ele>187.0</ele><time>2026-04-05T09:18:35.602Z</time></trkpt><trkpt lat="43.2404971" lon="-8.531601"><ele>187.0</ele><time>2026-04-05T09:18:36.602Z</time></trkpt><trkpt lat="43.2405029" lon="-8.5318391"><ele>187.0</ele><time>2026-04-05T09:18:37.602Z</time></trkpt><trkpt lat="43.2405119" lon="-8.5320796"><ele>186.33333333333334</ele><time>2026-04-05T09:18:38.603Z</time></trkpt><trkpt lat="43.2405175" lon="-8.5323128"><ele>185.66666666666666</ele><time>2026-04-05T09:18:39.603Z</time></trkpt><trkpt lat="43.2405221" lon="-8.5325466"><ele>185.0</ele><time>2026-04-05T09:18:40.602Z</time></trkpt><trkpt lat="43.2405266" lon="-8.5327816"><ele>184.0</ele><time>2026-04-05T09:18:41.603Z</time></trkpt><trkpt lat="43.2405338" lon="-8.5330177"><ele>183.0</ele><time>2026-04-05T09:18:42.603Z</time></trkpt><trkpt lat="43.2405351" lon="-8.5332549"><ele>182.0</ele><time>2026-04-05T09:18:43.603Z</time></trkpt><trkpt lat="43.2405411" lon="-8.5334915"><ele>182.0</ele><time>2026-04-05T09:18:44.602Z</time></trkpt><trkpt lat="43.2405443" lon="-8.5337389"><ele>182.0</ele><time>2026-04-05T09:18:45.602Z</time></trkpt><trkpt lat="43.2405546" lon="-8.5339772"><ele>182.0</ele><time>2026-04-05T09:18:46.602Z</time></trkpt><trkpt lat="43.2405594" lon="-8.5342177"><ele>182.0</ele><time>2026-04-05T09:18:47.603Z</time></trkpt><trkpt lat="43.2405642" lon="-8.5344665"><ele>182.0</ele><time>2026-04-05T09:18:48.603Z</time></trkpt><trkpt lat="43.2405691" lon="-8.5347093"><ele>182.0</ele><time>2026-04-05T09:18:49.603Z</time></trkpt><trkpt lat="43.240578" lon="-8.5349455"><ele>182.33333333333331</ele><time>2026-04-05T09:18:50.603Z</time></trkpt><trkpt lat="43.2405832" lon="-8.5351776"><ele>182.66666666666666</ele><time>2026-04-05T09:18:51.603Z</time></trkpt><trkpt lat="43.2405885" lon="-8.5354023"><ele>183.0</ele><time>2026-04-05T09:18:52.603Z</time></trkpt><trkpt lat="43.2405911" lon="-8.5356263"><ele>182.33333333333334</ele><time>2026-04-05T09:18:53.602Z</time></trkpt><trkpt lat="43.2405934" lon="-8.5358522"><ele>181.66666666666669</ele><time>2026-04-05T09:18:54.602Z</time></trkpt><trkpt lat="43.2405959" lon="-8.5360819"><ele>181.0</ele><time>2026-04-05T09:18:55.602Z</time></trkpt><trkpt lat="43.2406046" lon="-8.5363108"><ele>180.0</ele><time>2026-04-05T09:18:56.602Z</time></trkpt><trkpt lat="43.2406107" lon="-8.5365482"><ele>179.0</ele><time>2026-04-05T09:18:57.603Z</time></trkpt><trkpt lat="43.240618" lon="-8.5367915"><ele>178.0</ele><time>2026-04-05T09:18:58.603Z</time></trkpt><trkpt lat="43.2406211" lon="-8.5370385"><ele>177.66666666666669</ele><time>2026-04-05T09:18:59.603Z</time></trkpt><trkpt lat="43.2406284" lon="-8.5372899"><ele>177.33333333333334</ele><time>2026-04-05T09:19:00.603Z</time></trkpt><trkpt lat="43.2406379" lon="-8.5375324"><ele>177.0</ele><time>2026-04-05T09:19:01.603Z</time></trkpt><trkpt lat="43.2406437" lon="-8.5377768"><ele>176.66666666666666</ele><time>2026-04-05T09:19:02.603Z</time></trkpt><trkpt lat="43.2406475" lon="-8.5380187"><ele>176.33333333333331</ele><time>2026-04-05T09:19:03.603Z</time></trkpt><trkpt lat="43.2406503" lon="-8.5382437"><ele>176.0</ele><time>2026-04-05T09:19:04.603Z</time></trkpt><trkpt lat="43.2406489" lon="-8.5384608"><ele>176.0</ele><time>2026-04-05T09:19:05.602Z</time></trkpt><trkpt lat="43.2406538" lon="-8.5386701"><ele>176.0</ele><time>2026-04-05T09:19:06.603Z</time></trkpt><trkpt lat="43.2406566" lon="-8.5388714"><ele>176.0</ele><time>2026-04-05T09:19:07.603Z</time></trkpt><trkpt lat="43.2406611" lon="-8.539075"><ele>176.0</ele><time>2026-04-05T09:19:08.602Z</time></trkpt><trkpt lat="43.2406603" lon="-8.5392827"><ele>176.33333333333331</ele><time>2026-04-05T09:19:09.603Z</time></trkpt><trkpt lat="43.2406603" lon="-8.5394925"><ele>176.66666666666666</ele><time>2026-04-05T09:19:10.603Z</time></trkpt><trkpt lat="43.2406574" lon="-8.5397124"><ele>177.0</ele><time>2026-04-05T09:19:11.603Z</time></trkpt><trkpt lat="43.2406543" lon="-8.5399336"><ele>176.66666666666666</ele><time>2026-04-05T09:19:12.603Z</time></trkpt><trkpt lat="43.240647" lon="-8.5401573"><ele>176.33333333333331</ele><time>2026-04-05T09:19:13.603Z</time></trkpt><trkpt lat="43.2406329" lon="-8.5403787"><ele>176.0</ele><time>2026-04-05T09:19:14.603Z</time></trkpt><trkpt lat="43.2406209" lon="-8.5405914"><ele>176.0</ele><time>2026-04-05T09:19:15.603Z</time></trkpt><trkpt lat="43.2406119" lon="-8.5408105"><ele>176.0</ele><time>2026-04-05T09:19:16.602Z</time></trkpt><trkpt lat="43.2406058" lon="-8.5410252"><ele>176.0</ele><time>2026-04-05T09:19:17.603Z</time></trkpt><trkpt lat="43.2405984" lon="-8.5412392"><ele>176.0</ele><time>2026-04-05T09:19:18.603Z</time></trkpt><trkpt lat="43.2405882" lon="-8.541457"><ele>176.0</ele><time>2026-04-05T09:19:19.602Z</time></trkpt><trkpt lat="43.2405765" lon="-8.5416728"><ele>176.0</ele><time>2026-04-05T09:19:20.603Z</time></trkpt><trkpt lat="43.2405641" lon="-8.54189"><ele>175.66666666666666</ele><time>2026-04-05T09:19:21.603Z</time></trkpt><trkpt lat="43.2405505" lon="-8.542111"><ele>175.33333333333334</ele><time>2026-04-05T09:19:22.603Z</time></trkpt><trkpt lat="43.2405369" lon="-8.5423284"><ele>175.0</ele><time>2026-04-05T09:19:23.603Z</time></trkpt><trkpt lat="43.2405259" lon="-8.5425449"><ele>175.0</ele><time>2026-04-05T09:19:24.603Z</time></trkpt><trkpt lat="43.2405167" lon="-8.5427602"><ele>175.0</ele><time>2026-04-05T09:19:25.603Z</time></trkpt><trkpt lat="43.2405153" lon="-8.542975"><ele>175.0</ele><time>2026-04-05T09:19:26.603Z</time></trkpt><trkpt lat="43.2405314" lon="-8.5431899"><ele>175.0</ele><time>2026-04-05T09:19:27.603Z</time></trkpt><trkpt lat="43.2405628" lon="-8.5433981"><ele>175.0</ele><time>2026-04-05T09:19:28.603Z</time></trkpt><trkpt lat="43.2406091" lon="-8.5435911"><ele>175.0</ele><time>2026-04-05T09:19:29.602Z</time></trkpt><trkpt lat="43.2406647" lon="-8.5437788"><ele>175.0</ele><time>2026-04-05T09:19:30.603Z</time></trkpt><trkpt lat="43.2407175" lon="-8.5439613"><ele>175.0</ele><time>2026-04-05T09:19:31.603Z</time></trkpt><trkpt lat="43.2407678" lon="-8.5441515"><ele>175.0</ele><time>2026-04-05T09:19:32.602Z</time></trkpt><trkpt lat="43.2408192" lon="-8.5443429"><ele>175.0</ele><time>2026-04-05T09:19:33.602Z</time></trkpt><trkpt lat="43.2408766" lon="-8.5445374"><ele>176.0</ele><time>2026-04-05T09:19:34.603Z</time></trkpt><trkpt lat="43.240933" lon="-8.5447365"><ele>177.0</ele><time>2026-04-05T09:19:35.602Z</time></trkpt><trkpt lat="43.240989" lon="-8.5449338"><ele>178.0</ele><time>2026-04-05T09:19:36.603Z</time></trkpt><trkpt lat="43.2410473" lon="-8.5451329"><ele>178.0</ele><time>2026-04-05T09:19:37.602Z</time></trkpt><trkpt lat="43.2411072" lon="-8.5453402"><ele>178.0</ele><time>2026-04-05T09:19:38.603Z</time></trkpt><trkpt lat="43.2411635" lon="-8.5455407"><ele>178.0</ele><time>2026-04-05T09:19:39.603Z</time></trkpt><trkpt lat="43.241214" lon="-8.5457369"><ele>178.5</ele><time>2026-04-05T09:19:40.603Z</time></trkpt><trkpt lat="43.2412648" lon="-8.5459258"><ele>179.0</ele><time>2026-04-05T09:19:41.603Z</time></trkpt><trkpt lat="43.2413183" lon="-8.5461111"><ele>179.5</ele><time>2026-04-05T09:19:42.602Z</time></trkpt><trkpt lat="43.2413691" lon="-8.5462912"><ele>180.0</ele><time>2026-04-05T09:19:43.603Z</time></trkpt><trkpt lat="43.2414182" lon="-8.5464667"><ele>179.75</ele><time>2026-04-05T09:19:44.603Z</time></trkpt><trkpt lat="43.241468" lon="-8.5466359"><ele>179.5</ele><time>2026-04-05T09:19:45.602Z</time></trkpt><trkpt lat="43.2415146" lon="-8.5468005"><ele>179.25</ele><time>2026-04-05T09:19:46.603Z</time></trkpt><trkpt lat="43.2415614" lon="-8.5469635"><ele>179.0</ele><time>2026-04-05T09:19:47.603Z</time></trkpt><trkpt lat="43.2416074" lon="-8.5471271"><ele>179.0</ele><time>2026-04-05T09:19:48.602Z</time></trkpt><trkpt lat="43.2416552" lon="-8.5472962"><ele>179.0</ele><time>2026-04-05T09:19:49.602Z</time></trkpt><trkpt lat="43.2417029" lon="-8.5474665"><ele>179.0</ele><time>2026-04-05T09:19:50.603Z</time></trkpt><trkpt lat="43.2417534" lon="-8.5476398"><ele>179.0</ele><time>2026-04-05T09:19:51.603Z</time></trkpt><trkpt lat="43.2418031" lon="-8.5478151"><ele>179.25</ele><time>2026-04-05T09:19:52.603Z</time></trkpt><trkpt lat="43.2418512" lon="-8.5479934"><ele>179.5</ele><time>2026-04-05T09:19:53.603Z</time></trkpt><trkpt lat="43.2419023" lon="-8.5481671"><ele>179.75</ele><time>2026-04-05T09:19:54.603Z</time></trkpt><trkpt lat="43.2419503" lon="-8.5483373"><ele>180.0</ele><time>2026-04-05T09:19:55.603Z</time></trkpt><trkpt lat="43.2419964" lon="-8.5485042"><ele>180.0</ele><time>2026-04-05T09:19:56.603Z</time></trkpt><trkpt lat="43.2420408" lon="-8.5486696"><ele>180.0</ele><time>2026-04-05T09:19:57.603Z</time></trkpt><trkpt lat="43.242092" lon="-8.5488314"><ele>180.0</ele><time>2026-04-05T09:19:58.602Z</time></trkpt><trkpt lat="43.2421539" lon="-8.5489814"><ele>180.0</ele><time>2026-04-05T09:19:59.602Z</time></trkpt><trkpt lat="43.2422312" lon="-8.5491174"><ele>177.0</ele><time>2026-04-05T09:20:00.603Z</time></trkpt><trkpt lat="43.2423179" lon="-8.5492393"><ele>174.0</ele><time>2026-04-05T09:20:01.603Z</time></trkpt><trkpt lat="43.242405" lon="-8.5493543"><ele>171.0</ele><time>2026-04-05T09:20:02.603Z</time></trkpt><trkpt lat="43.2424954" lon="-8.5494642"><ele>168.0</ele><time>2026-04-05T09:20:03.603Z</time></trkpt><trkpt lat="43.2425832" lon="-8.5495795"><ele>167.25</ele><time>2026-04-05T09:20:04.603Z</time></trkpt><trkpt lat="43.2426621" lon="-8.5497121"><ele>166.5</ele><time>2026-04-05T09:20:05.603Z</time></trkpt><trkpt lat="43.2427169" lon="-8.549866"><ele>165.75</ele><time>2026-04-05T09:20:06.602Z</time></trkpt><trkpt lat="43.2427567" lon="-8.5500366"><ele>165.0</ele><time>2026-04-05T09:20:07.603Z</time></trkpt><trkpt lat="43.2427702" lon="-8.5502233"><ele>165.0</ele><time>2026-04-05T09:20:08.603Z</time></trkpt><trkpt lat="43.2427521" lon="-8.5504283"><ele>165.0</ele><time>2026-04-05T09:20:09.603Z</time></trkpt><trkpt lat="43.2427213" lon="-8.5506422"><ele>165.0</ele><time>2026-04-05T09:20:10.603Z</time></trkpt><trkpt lat="43.2426806" lon="-8.5508712"><ele>165.0</ele><time>2026-04-05T09:20:11.603Z</time></trkpt><trkpt lat="43.2426372" lon="-8.5511182"><ele>165.0</ele><time>2026-04-05T09:20:12.603Z</time></trkpt><trkpt lat="43.2425903" lon="-8.5513749"><ele>165.0</ele><time>2026-04-05T09:20:13.603Z</time></trkpt><trkpt lat="43.2425441" lon="-8.5516387"><ele>166.0</ele><time>2026-04-05T09:20:14.602Z</time></trkpt><trkpt lat="43.2424945" lon="-8.5519081"><ele>167.0</ele><time>2026-04-05T09:20:15.602Z</time></trkpt><trkpt lat="43.2424531" lon="-8.552184"><ele>168.0</ele><time>2026-04-05T09:20:16.603Z</time></trkpt><trkpt lat="43.242428" lon="-8.5524634"><ele>169.0</ele><time>2026-04-05T09:20:17.603Z</time></trkpt><trkpt lat="43.2424197" lon="-8.5527455"><ele>170.0</ele><time>2026-04-05T09:20:18.603Z</time></trkpt><trkpt lat="43.2424292" lon="-8.5530298"><ele>171.0</ele><time>2026-04-05T09:20:19.603Z</time></trkpt><trkpt lat="43.2424379" lon="-8.5533098"><ele>172.0</ele><time>2026-04-05T09:20:20.603Z</time></trkpt><trkpt lat="43.242445" lon="-8.5535716"><ele>173.0</ele><time>2026-04-05T09:20:21.602Z</time></trkpt><trkpt lat="43.2424434" lon="-8.5538126"><ele>174.0</ele><time>2026-04-05T09:20:22.603Z</time></trkpt><trkpt lat="43.2424154" lon="-8.5540398"><ele>172.66666666666666</ele><time>2026-04-05T09:20:23.602Z</time></trkpt><trkpt lat="43.2422953" lon="-8.5542497"><ele>171.33333333333331</ele><time>2026-04-05T09:20:24.602Z</time></trkpt><trkpt lat="43.2421912" lon="-8.5544657"><ele>170.0</ele><time>2026-04-05T09:20:25.602Z</time></trkpt><trkpt lat="43.2421043" lon="-8.5546968"><ele>170.0</ele><time>2026-04-05T09:20:26.603Z</time></trkpt><trkpt lat="43.2420493" lon="-8.5549445"><ele>170.0</ele><time>2026-04-05T09:20:27.603Z</time></trkpt><trkpt lat="43.2420289" lon="-8.5552002"><ele>170.0</ele><time>2026-04-05T09:20:28.603Z</time></trkpt><trkpt lat="43.2420371" lon="-8.5554602"><ele>170.33333333333331</ele><time>2026-04-05T09:20:29.603Z</time></trkpt><trkpt lat="43.2420408" lon="-8.555715"><ele>170.66666666666666</ele><time>2026-04-05T09:20:30.603Z</time></trkpt><trkpt lat="43.2420448" lon="-8.5559963"><ele>171.0</ele><time>2026-04-05T09:20:31.602Z</time></trkpt><trkpt lat="43.2420535" lon="-8.5562737"><ele>169.66666666666666</ele><time>2026-04-05T09:20:32.603Z</time></trkpt><trkpt lat="43.242065" lon="-8.5565539"><ele>168.33333333333331</ele><time>2026-04-05T09:20:33.603Z</time></trkpt><trkpt lat="43.2420736" lon="-8.5568327"><ele>167.0</ele><time>2026-04-05T09:20:34.603Z</time></trkpt><trkpt lat="43.2420841" lon="-8.5571083"><ele>166.66666666666666</ele><time>2026-04-05T09:20:35.602Z</time></trkpt><trkpt lat="43.2420887" lon="-8.5573892"><ele>166.33333333333334</ele><time>2026-04-05T09:20:36.602Z</time></trkpt><trkpt lat="43.2421154" lon="-8.5576507"><ele>166.0</ele><time>2026-04-05T09:20:37.603Z</time></trkpt><trkpt lat="43.2421315" lon="-8.557909"><ele>165.66666666666669</ele><time>2026-04-05T09:20:38.603Z</time></trkpt><trkpt lat="43.2421483" lon="-8.5581702"><ele>165.33333333333334</ele><time>2026-04-05T09:20:39.603Z</time></trkpt><trkpt lat="43.2421663" lon="-8.5584384"><ele>165.0</ele><time>2026-04-05T09:20:40.603Z</time></trkpt><trkpt lat="43.2421922" lon="-8.5587011"><ele>165.0</ele><time>2026-04-05T09:20:41.603Z</time></trkpt><trkpt lat="43.2422164" lon="-8.5589587"><ele>165.0</ele><time>2026-04-05T09:20:42.603Z</time></trkpt><trkpt lat="43.2422424" lon="-8.5592113"><ele>165.0</ele><time>2026-04-05T09:20:43.602Z</time></trkpt><trkpt lat="43.2422702" lon="-8.5594591"><ele>168.0</ele><time>2026-04-05T09:20:44.603Z</time></trkpt><trkpt lat="43.2423012" lon="-8.5597091"><ele>171.0</ele><time>2026-04-05T09:20:45.602Z</time></trkpt><trkpt lat="43.242339" lon="-8.5599653"><ele>174.0</ele><time>2026-04-05T09:20:46.603Z</time></trkpt><trkpt lat="43.2423748" lon="-8.5602232"><ele>173.33333333333334</ele><time>2026-04-05T09:20:47.602Z</time></trkpt><trkpt lat="43.2424111" lon="-8.5604862"><ele>172.66666666666669</ele><time>2026-04-05T09:20:48.602Z</time></trkpt><trkpt lat="43.2424458" lon="-8.5607528"><ele>172.0</ele><time>2026-04-05T09:20:49.603Z</time></trkpt><trkpt lat="43.2424832" lon="-8.5610301"><ele>171.33333333333334</ele><time>2026-04-05T09:20:50.603Z</time></trkpt><trkpt lat="43.2425188" lon="-8.5613066"><ele>170.66666666666666</ele><time>2026-04-05T09:20:51.603Z</time></trkpt><trkpt lat="43.2425536" lon="-8.5615789"><ele>170.0</ele><time>2026-04-05T09:20:52.603Z</time></trkpt><trkpt lat="43.2425872" lon="-8.5618397"><ele>170.66666666666666</ele><time>2026-04-05T09:20:53.603Z</time></trkpt><trkpt lat="43.2426216" lon="-8.5620811"><ele>171.33333333333334</ele><time>2026-04-05T09:20:54.603Z</time></trkpt><trkpt lat="43.2426564" lon="-8.5623091"><ele>172.0</ele><time>2026-04-05T09:20:55.603Z</time></trkpt><trkpt lat="43.2426862" lon="-8.5625187"><ele>172.0</ele><time>2026-04-05T09:20:56.603Z</time></trkpt><trkpt lat="43.2427154" lon="-8.5627056"><ele>172.0</ele><time>2026-04-05T09:20:57.603Z</time></trkpt><trkpt lat="43.2427378" lon="-8.5629056"><ele>172.0</ele><time>2026-04-05T09:20:58.603Z</time></trkpt><trkpt lat="43.2427602" lon="-8.5630464"><ele>172.0</ele><time>2026-04-05T09:20:59.603Z</time></trkpt><trkpt lat="43.2427781" lon="-8.5631919"><ele>172.5</ele><time>2026-04-05T09:21:00.603Z</time></trkpt><trkpt lat="43.2427777" lon="-8.5633142"><ele>173.0</ele><time>2026-04-05T09:21:01.603Z</time></trkpt><trkpt lat="43.2427486" lon="-8.5634051"><ele>173.5</ele><time>2026-04-05T09:21:02.603Z</time></trkpt><trkpt lat="43.2426977" lon="-8.5634607"><ele>174.0</ele><time>2026-04-05T09:21:03.603Z</time></trkpt><trkpt lat="43.2426273" lon="-8.5634808"><ele>174.5</ele><time>2026-04-05T09:21:04.603Z</time></trkpt><trkpt lat="43.2425351" lon="-8.5634891"><ele>175.0</ele><time>2026-04-05T09:21:05.602Z</time></trkpt><trkpt lat="43.2424183" lon="-8.5635222"><ele>172.5</ele><time>2026-04-05T09:21:06.603Z</time></trkpt><trkpt lat="43.2422928" lon="-8.5635751"><ele>170.0</ele><time>2026-04-05T09:21:07.603Z</time></trkpt><trkpt lat="43.2421556" lon="-8.5636448"><ele>167.5</ele><time>2026-04-05T09:21:08.603Z</time></trkpt><trkpt lat="43.2420115" lon="-8.5637262"><ele>165.0</ele><time>2026-04-05T09:21:09.602Z</time></trkpt><trkpt lat="43.2418577" lon="-8.5638307"><ele>165.0</ele><time>2026-04-05T09:21:10.603Z</time></trkpt><trkpt lat="43.241695" lon="-8.5639564"><ele>165.0</ele><time>2026-04-05T09:21:11.602Z</time></trkpt><trkpt lat="43.2415287" lon="-8.5641054"><ele>165.0</ele><time>2026-04-05T09:21:12.603Z</time></trkpt><trkpt lat="43.2413623" lon="-8.5642717"><ele>165.66666666666666</ele><time>2026-04-05T09:21:13.603Z</time></trkpt><trkpt lat="43.241193" lon="-8.5644488"><ele>166.33333333333331</ele><time>2026-04-05T09:21:14.602Z</time></trkpt><trkpt lat="43.2410134" lon="-8.5646148"><ele>167.0</ele><time>2026-04-05T09:21:15.603Z</time></trkpt><trkpt lat="43.2408036" lon="-8.5647528"><ele>169.0</ele><time>2026-04-05T09:21:16.603Z</time></trkpt><trkpt lat="43.2405714" lon="-8.5648788"><ele>171.0</ele><time>2026-04-05T09:21:17.603Z</time></trkpt><trkpt lat="43.2403359" lon="-8.5649995"><ele>171.0</ele><time>2026-04-05T09:21:18.602Z</time></trkpt><trkpt lat="43.2400952" lon="-8.5651208"><ele>171.0</ele><time>2026-04-05T09:21:19.603Z</time></trkpt><trkpt lat="43.2398547" lon="-8.5652357"><ele>175.0</ele><time>2026-04-05T09:21:20.603Z</time></trkpt><trkpt lat="43.2396153" lon="-8.5653454"><ele>179.0</ele><time>2026-04-05T09:21:21.603Z</time></trkpt><trkpt lat="43.2393795" lon="-8.565448"><ele>179.0</ele><time>2026-04-05T09:21:22.603Z</time></trkpt><trkpt lat="43.2391572" lon="-8.5655443"><ele>179.0</ele><time>2026-04-05T09:21:23.603Z</time></trkpt><trkpt lat="43.2389492" lon="-8.5656355"><ele>179.33333333333331</ele><time>2026-04-05T09:21:24.602Z</time></trkpt><trkpt lat="43.2387629" lon="-8.5657018"><ele>179.66666666666666</ele><time>2026-04-05T09:21:25.603Z</time></trkpt><trkpt lat="43.238586" lon="-8.565727"><ele>180.0</ele><time>2026-04-05T09:21:26.603Z</time></trkpt><trkpt lat="43.2384104" lon="-8.565736"><ele>180.0</ele><time>2026-04-05T09:21:27.603Z</time></trkpt><trkpt lat="43.2382392" lon="-8.5656038"><ele>180.0</ele><time>2026-04-05T09:21:28.603Z</time></trkpt><trkpt lat="43.2380657" lon="-8.5654777"><ele>180.0</ele><time>2026-04-05T09:21:29.603Z</time></trkpt><trkpt lat="43.2378827" lon="-8.5653385"><ele>180.66666666666666</ele><time>2026-04-05T09:21:30.602Z</time></trkpt><trkpt lat="43.2376977" lon="-8.5651917"><ele>181.33333333333331</ele><time>2026-04-05T09:21:31.603Z</time></trkpt><trkpt lat="43.237504" lon="-8.5650387"><ele>182.0</ele><time>2026-04-05T09:21:32.603Z</time></trkpt><trkpt lat="43.2373058" lon="-8.5648855"><ele>183.0</ele><time>2026-04-05T09:21:33.603Z</time></trkpt><trkpt lat="43.2371124" lon="-8.5647346"><ele>184.0</ele><time>2026-04-05T09:21:34.603Z</time></trkpt><trkpt lat="43.2369216" lon="-8.5645815"><ele>185.0</ele><time>2026-04-05T09:21:35.603Z</time></trkpt><trkpt lat="43.2367379" lon="-8.5644149"><ele>185.66666666666666</ele><time>2026-04-05T09:21:36.603Z</time></trkpt><trkpt lat="43.2365491" lon="-8.5642322"><ele>186.33333333333334</ele><time>2026-04-05T09:21:37.602Z</time></trkpt><trkpt lat="43.2364097" lon="-8.5640365"><ele>187.0</ele><time>2026-04-05T09:21:38.603Z</time></trkpt><trkpt lat="43.2362672" lon="-8.5638392"><ele>188.66666666666669</ele><time>2026-04-05T09:21:39.602Z</time></trkpt><trkpt lat="43.2361218" lon="-8.5636392"><ele>190.33333333333334</ele><time>2026-04-05T09:21:40.602Z</time></trkpt><trkpt lat="43.235971" lon="-8.5634293"><ele>192.0</ele><time>2026-04-05T09:21:41.603Z</time></trkpt><trkpt lat="43.2358211" lon="-8.5632147"><ele>192.0</ele><time>2026-04-05T09:21:42.603Z</time></trkpt><trkpt lat="43.23567" lon="-8.5630038"><ele>192.0</ele><time>2026-04-05T09:21:43.603Z</time></trkpt><trkpt lat="43.2355065" lon="-8.5628019"><ele>192.0</ele><time>2026-04-05T09:21:44.603Z</time></trkpt><trkpt lat="43.2353333" lon="-8.5626014"><ele>193.5</ele><time>2026-04-05T09:21:45.603Z</time></trkpt><trkpt lat="43.2351482" lon="-8.5624095"><ele>195.0</ele><time>2026-04-05T09:21:46.602Z</time></trkpt><trkpt lat="43.2349683" lon="-8.5622156"><ele>195.5</ele><time>2026-04-05T09:21:47.603Z</time></trkpt><trkpt lat="43.2347831" lon="-8.5620378"><ele>196.0</ele><time>2026-04-05T09:21:48.602Z</time></trkpt><trkpt lat="43.2345899" lon="-8.5618787"><ele>195.0</ele><time>2026-04-05T09:21:49.603Z</time></trkpt><trkpt lat="43.2343827" lon="-8.5617478"><ele>194.0</ele><time>2026-04-05T09:21:50.603Z</time></trkpt><trkpt lat="43.2341696" lon="-8.561633"><ele>197.0</ele><time>2026-04-05T09:21:51.603Z</time></trkpt><trkpt lat="43.2339533" lon="-8.5615295"><ele>200.0</ele><time>2026-04-05T09:21:52.603Z</time></trkpt><trkpt lat="43.2337336" lon="-8.5614256"><ele>200.0</ele><time>2026-04-05T09:21:53.603Z</time></trkpt><trkpt lat="43.2335175" lon="-8.5613207"><ele>200.0</ele><time>2026-04-05T09:21:54.602Z</time></trkpt><trkpt lat="43.2333064" lon="-8.5612214"><ele>205.33333333333334</ele><time>2026-04-05T09:21:55.603Z</time></trkpt><trkpt lat="43.2330965" lon="-8.5611451"><ele>210.66666666666669</ele><time>2026-04-05T09:21:56.603Z</time></trkpt><trkpt lat="43.2328927" lon="-8.5611006"><ele>216.0</ele><time>2026-04-05T09:21:57.602Z</time></trkpt><trkpt lat="43.2326931" lon="-8.5610839"><ele>216.0</ele><time>2026-04-05T09:21:58.602Z</time></trkpt><trkpt lat="43.2325023" lon="-8.5610849"><ele>216.0</ele><time>2026-04-05T09:21:59.603Z</time></trkpt><trkpt lat="43.2323093" lon="-8.5610954"><ele>216.0</ele><time>2026-04-05T09:22:00.602Z</time></trkpt><trkpt lat="43.2321198" lon="-8.5611108"><ele>218.33333333333331</ele><time>2026-04-05T09:22:01.603Z</time></trkpt><trkpt lat="43.231943" lon="-8.5611266"><ele>220.66666666666666</ele><time>2026-04-05T09:22:02.603Z</time></trkpt><trkpt lat="43.2317769" lon="-8.5611319"><ele>223.0</ele><time>2026-04-05T09:22:03.602Z</time></trkpt><trkpt lat="43.2316084" lon="-8.5611287"><ele>227.33333333333331</ele><time>2026-04-05T09:22:04.603Z</time></trkpt><trkpt lat="43.231431" lon="-8.5611065"><ele>231.66666666666669</ele><time>2026-04-05T09:22:05.603Z</time></trkpt><trkpt lat="43.2312295" lon="-8.5610606"><ele>236.0</ele><time>2026-04-05T09:22:06.603Z</time></trkpt><trkpt lat="43.2310098" lon="-8.5610159"><ele>236.0</ele><time>2026-04-05T09:22:07.602Z</time></trkpt><trkpt lat="43.2307836" lon="-8.5609821"><ele>236.0</ele><time>2026-04-05T09:22:08.603Z</time></trkpt><trkpt lat="43.2305706" lon="-8.5609648"><ele>236.0</ele><time>2026-04-05T09:22:09.602Z</time></trkpt><trkpt lat="43.2303764" lon="-8.5609294"><ele>240.0</ele><time>2026-04-05T09:22:10.603Z</time></trkpt><trkpt lat="43.2302067" lon="-8.5608908"><ele>244.0</ele><time>2026-04-05T09:22:11.603Z</time></trkpt><trkpt lat="43.2300517" lon="-8.5608095"><ele>248.0</ele><time>2026-04-05T09:22:12.602Z</time></trkpt><trkpt lat="43.2299219" lon="-8.5606826"><ele>248.0</ele><time>2026-04-05T09:22:13.603Z</time></trkpt><trkpt lat="43.2298091" lon="-8.5605072"><ele>248.0</ele><time>2026-04-05T09:22:14.602Z</time></trkpt><trkpt lat="43.2297078" lon="-8.5602874"><ele>248.0</ele><time>2026-04-05T09:22:15.602Z</time></trkpt><trkpt lat="43.2295998" lon="-8.5600349"><ele>251.33333333333334</ele><time>2026-04-05T09:22:16.603Z</time></trkpt><trkpt lat="43.229497" lon="-8.5597695"><ele>254.66666666666669</ele><time>2026-04-05T09:22:17.602Z</time></trkpt><trkpt lat="43.2293984" lon="-8.5595063"><ele>258.0</ele><time>2026-04-05T09:22:18.603Z</time></trkpt><trkpt lat="43.2293101" lon="-8.5592541"><ele>258.0</ele><time>2026-04-05T09:22:19.602Z</time></trkpt><trkpt lat="43.2292238" lon="-8.5589946"><ele>258.0</ele><time>2026-04-05T09:22:20.603Z</time></trkpt><trkpt lat="43.2291507" lon="-8.5587247"><ele>258.0</ele><time>2026-04-05T09:22:21.603Z</time></trkpt><trkpt lat="43.2290797" lon="-8.5584529"><ele>256.3333333333333</ele><time>2026-04-05T09:22:22.603Z</time></trkpt><trkpt lat="43.2290057" lon="-8.5581719"><ele>254.66666666666666</ele><time>2026-04-05T09:22:23.602Z</time></trkpt><trkpt lat="43.2289291" lon="-8.5579058"><ele>253.0</ele><time>2026-04-05T09:22:24.603Z</time></trkpt><trkpt lat="43.2288516" lon="-8.5576512"><ele>259.66666666666663</ele><time>2026-04-05T09:22:25.602Z</time></trkpt><trkpt lat="43.2287565" lon="-8.5574131"><ele>266.3333333333333</ele><time>2026-04-05T09:22:26.602Z</time></trkpt><trkpt lat="43.2286501" lon="-8.5571894"><ele>273.0</ele><time>2026-04-05T09:22:27.602Z</time></trkpt><trkpt lat="43.2285524" lon="-8.5569591"><ele>273.0</ele><time>2026-04-05T09:22:28.603Z</time></trkpt><trkpt lat="43.2284594" lon="-8.5567288"><ele>273.0</ele><time>2026-04-05T09:22:29.602Z</time></trkpt><trkpt lat="43.2284235" lon="-8.5564598"><ele>273.0</ele><time>2026-04-05T09:22:30.602Z</time></trkpt><trkpt lat="43.2283851" lon="-8.5561991"><ele>273.0</ele><time>2026-04-05T09:22:31.603Z</time></trkpt><trkpt lat="43.2283322" lon="-8.5559401"><ele>273.0</ele><time>2026-04-05T09:22:32.603Z</time></trkpt><trkpt lat="43.2282762" lon="-8.5556813"><ele>273.0</ele><time>2026-04-05T09:22:33.603Z</time></trkpt><trkpt lat="43.2282372" lon="-8.5554034"><ele>273.6666666666667</ele><time>2026-04-05T09:22:34.603Z</time></trkpt><trkpt lat="43.2282047" lon="-8.5551275"><ele>274.33333333333337</ele><time>2026-04-05T09:22:35.602Z</time></trkpt><trkpt lat="43.2281852" lon="-8.5548114"><ele>275.0</ele><time>2026-04-05T09:22:36.603Z</time></trkpt><trkpt lat="43.2281642" lon="-8.554495"><ele>296.0</ele><time>2026-04-05T09:22:37.603Z</time></trkpt><trkpt lat="43.2281365" lon="-8.5541801"><ele>317.0</ele><time>2026-04-05T09:22:38.603Z</time></trkpt><trkpt lat="43.228104" lon="-8.5538659"><ele>318.5</ele><time>2026-04-05T09:22:39.602Z</time></trkpt><trkpt lat="43.2280723" lon="-8.55355"><ele>320.0</ele><time>2026-04-05T09:22:40.603Z</time></trkpt><trkpt lat="43.2280421" lon="-8.5532438"><ele>320.0</ele><time>2026-04-05T09:22:41.603Z</time></trkpt><trkpt lat="43.2280219" lon="-8.5529521"><ele>320.0</ele><time>2026-04-05T09:22:42.603Z</time></trkpt><trkpt lat="43.2280088" lon="-8.5526721"><ele>320.0</ele><time>2026-04-05T09:22:43.603Z</time></trkpt><trkpt lat="43.2279879" lon="-8.5524014"><ele>319.33333333333337</ele><time>2026-04-05T09:22:44.602Z</time></trkpt><trkpt lat="43.2279695" lon="-8.5521329"><ele>318.6666666666667</ele><time>2026-04-05T09:22:45.602Z</time></trkpt><trkpt lat="43.2279638" lon="-8.5518676"><ele>318.0</ele><time>2026-04-05T09:22:46.603Z</time></trkpt><trkpt lat="43.2279577" lon="-8.5516069"><ele>317.0</ele><time>2026-04-05T09:22:47.603Z</time></trkpt><trkpt lat="43.2279204" lon="-8.5513543"><ele>316.0</ele><time>2026-04-05T09:22:48.603Z</time></trkpt><trkpt lat="43.2278556" lon="-8.551107"><ele>315.0</ele><time>2026-04-05T09:22:49.602Z</time></trkpt><trkpt lat="43.2277701" lon="-8.5508515"><ele>313.3333333333333</ele><time>2026-04-05T09:22:50.602Z</time></trkpt><trkpt lat="43.2276771" lon="-8.5505888"><ele>311.66666666666663</ele><time>2026-04-05T09:22:51.602Z</time></trkpt><trkpt lat="43.2275808" lon="-8.5503269"><ele>310.0</ele><time>2026-04-05T09:22:52.603Z</time></trkpt><trkpt lat="43.2274844" lon="-8.550069"><ele>309.0</ele><time>2026-04-05T09:22:53.603Z</time></trkpt><trkpt lat="43.2274159" lon="-8.5498025"><ele>308.0</ele><time>2026-04-05T09:22:54.603Z</time></trkpt><trkpt lat="43.2273706" lon="-8.5495202"><ele>307.0</ele><time>2026-04-05T09:22:55.603Z</time></trkpt><trkpt lat="43.2273345" lon="-8.549233"><ele>311.66666666666663</ele><time>2026-04-05T09:22:56.603Z</time></trkpt><trkpt lat="43.2272872" lon="-8.5489484"><ele>316.3333333333333</ele><time>2026-04-05T09:22:57.603Z</time></trkpt><trkpt lat="43.2272082" lon="-8.5486721"><ele>321.0</ele><time>2026-04-05T09:22:58.603Z</time></trkpt><trkpt lat="43.2271136" lon="-8.5484079"><ele>321.0</ele><time>2026-04-05T09:22:59.603Z</time></trkpt><trkpt lat="43.2270082" lon="-8.5481655"><ele>321.0</ele><time>2026-04-05T09:23:00.603Z</time></trkpt><trkpt lat="43.2269047" lon="-8.5479344"><ele>321.0</ele><time>2026-04-05T09:23:01.603Z</time></trkpt><trkpt lat="43.2268278" lon="-8.5477093"><ele>321.0</ele><time>2026-04-05T09:23:02.602Z</time></trkpt><trkpt lat="43.226773" lon="-8.5474693"><ele>321.0</ele><time>2026-04-05T09:23:03.603Z</time></trkpt><trkpt lat="43.2267397" lon="-8.5472182"><ele>321.0</ele><time>2026-04-05T09:23:04.603Z</time></trkpt><trkpt lat="43.2267166" lon="-8.5469513"><ele>321.3333333333333</ele><time>2026-04-05T09:23:05.603Z</time></trkpt><trkpt lat="43.2266876" lon="-8.5466743"><ele>321.66666666666663</ele><time>2026-04-05T09:23:06.603Z</time></trkpt><trkpt lat="43.2266522" lon="-8.5463806"><ele>322.0</ele><time>2026-04-05T09:23:07.603Z</time></trkpt><trkpt lat="43.226619" lon="-8.5460875"><ele>322.0</ele><time>2026-04-05T09:23:08.603Z</time></trkpt><trkpt lat="43.2265898" lon="-8.545811"><ele>322.0</ele><time>2026-04-05T09:23:09.603Z</time></trkpt><trkpt lat="43.2265674" lon="-8.5455535"><ele>322.0</ele><time>2026-04-05T09:23:10.603Z</time></trkpt><trkpt lat="43.2265415" lon="-8.5453077"><ele>322.0</ele><time>2026-04-05T09:23:11.602Z</time></trkpt><trkpt lat="43.2265176" lon="-8.5450783"><ele>322.0</ele><time>2026-04-05T09:23:12.603Z</time></trkpt><trkpt lat="43.2264829" lon="-8.5448586"><ele>322.0</ele><time>2026-04-05T09:23:13.603Z</time></trkpt><trkpt lat="43.2264465" lon="-8.5446495"><ele>325.5</ele><time>2026-04-05T09:23:14.603Z</time></trkpt><trkpt lat="43.226401" lon="-8.5444622"><ele>329.0</ele><time>2026-04-05T09:23:15.603Z</time></trkpt><trkpt lat="43.2263473" lon="-8.5442951"><ele>332.5</ele><time>2026-04-05T09:23:16.602Z</time></trkpt><trkpt lat="43.2262778" lon="-8.5441478"><ele>336.0</ele><time>2026-04-05T09:23:17.603Z</time></trkpt><trkpt lat="43.2261993" lon="-8.5440263"><ele>336.0</ele><time>2026-04-05T09:23:18.603Z</time></trkpt><trkpt lat="43.2261235" lon="-8.5439216"><ele>336.0</ele><time>2026-04-05T09:23:19.603Z</time></trkpt><trkpt lat="43.2260595" lon="-8.5438335"><ele>336.0</ele><time>2026-04-05T09:23:20.603Z</time></trkpt><trkpt lat="43.2260005" lon="-8.5437414"><ele>336.0</ele><time>2026-04-05T09:23:21.603Z</time></trkpt><trkpt lat="43.2260005" lon="-8.5436364"><ele>336.0</ele><time>2026-04-05T09:23:22.603Z</time></trkpt><trkpt lat="43.2259958" lon="-8.5435406"><ele>336.0</ele><time>2026-04-05T09:23:23.603Z</time></trkpt><trkpt lat="43.2260352" lon="-8.5434154"><ele>337.0</ele><time>2026-04-05T09:23:24.602Z</time></trkpt><trkpt lat="43.2260718" lon="-8.5432846"><ele>338.0</ele><time>2026-04-05T09:23:25.603Z</time></trkpt><trkpt lat="43.2261037" lon="-8.5431438"><ele>339.0</ele><time>2026-04-05T09:23:26.602Z</time></trkpt><trkpt lat="43.2261477" lon="-8.5429996"><ele>340.0</ele><time>2026-04-05T09:23:27.603Z</time></trkpt><trkpt lat="43.2261905" lon="-8.5428546"><ele>341.0</ele><time>2026-04-05T09:23:28.603Z</time></trkpt><trkpt lat="43.2262071" lon="-8.5427032"><ele>343.25</ele><time>2026-04-05T09:23:29.602Z</time></trkpt><trkpt lat="43.2261986" lon="-8.5425474"><ele>345.5</ele><time>2026-04-05T09:23:30.603Z</time></trkpt><trkpt lat="43.2261598" lon="-8.542401"><ele>347.75</ele><time>2026-04-05T09:23:31.603Z</time></trkpt><trkpt lat="43.2261013" lon="-8.5422442"><ele>350.0</ele><time>2026-04-05T09:23:32.602Z</time></trkpt><trkpt lat="43.2260592" lon="-8.542071"><ele>351.0</ele><time>2026-04-05T09:23:33.603Z</time></trkpt><trkpt lat="43.2260378" lon="-8.5418773"><ele>352.0</ele><time>2026-04-05T09:23:34.603Z</time></trkpt><trkpt lat="43.2260367" lon="-8.5416692"><ele>353.0</ele><time>2026-04-05T09:23:35.603Z</time></trkpt><trkpt lat="43.2260559" lon="-8.5414565"><ele>353.0</ele><time>2026-04-05T09:23:36.602Z</time></trkpt><trkpt lat="43.2260858" lon="-8.5412415"><ele>353.0</ele><time>2026-04-05T09:23:37.603Z</time></trkpt><trkpt lat="43.2261218" lon="-8.5410245"><ele>353.0</ele><time>2026-04-05T09:23:38.602Z</time></trkpt><trkpt lat="43.2261684" lon="-8.5408032"><ele>353.33333333333337</ele><time>2026-04-05T09:23:39.603Z</time></trkpt><trkpt lat="43.2262198" lon="-8.5405806"><ele>353.6666666666667</ele><time>2026-04-05T09:23:40.602Z</time></trkpt><trkpt lat="43.2262771" lon="-8.5403509"><ele>354.0</ele><time>2026-04-05T09:23:41.603Z</time></trkpt><trkpt lat="43.2263322" lon="-8.5401183"><ele>354.0</ele><time>2026-04-05T09:23:42.603Z</time></trkpt><trkpt lat="43.226385" lon="-8.5398816"><ele>354.0</ele><time>2026-04-05T09:23:43.603Z</time></trkpt><trkpt lat="43.2264402" lon="-8.5396434"><ele>354.0</ele><time>2026-04-05T09:23:44.602Z</time></trkpt><trkpt lat="43.2265016" lon="-8.5394117"><ele>357.0</ele><time>2026-04-05T09:23:45.602Z</time></trkpt><trkpt lat="43.226567" lon="-8.5391883"><ele>360.0</ele><time>2026-04-05T09:23:46.603Z</time></trkpt><trkpt lat="43.2266457" lon="-8.5389701"><ele>363.0</ele><time>2026-04-05T09:23:47.602Z</time></trkpt><trkpt lat="43.2267235" lon="-8.5387527"><ele>363.3333333333333</ele><time>2026-04-05T09:23:48.602Z</time></trkpt><trkpt lat="43.2267918" lon="-8.5385311"><ele>363.66666666666663</ele><time>2026-04-05T09:23:49.603Z</time></trkpt><trkpt lat="43.2268345" lon="-8.5383026"><ele>364.0</ele><time>2026-04-05T09:23:50.603Z</time></trkpt><trkpt lat="43.2268558" lon="-8.5380752"><ele>364.0</ele><time>2026-04-05T09:23:51.603Z</time></trkpt><trkpt lat="43.2268498" lon="-8.5378449"><ele>364.0</ele><time>2026-04-05T09:23:52.602Z</time></trkpt><trkpt lat="43.2268207" lon="-8.5376109"><ele>364.0</ele><time>2026-04-05T09:23:53.603Z</time></trkpt><trkpt lat="43.2267784" lon="-8.537363"><ele>364.0</ele><time>2026-04-05T09:23:54.603Z</time></trkpt><trkpt lat="43.226728" lon="-8.5371075"><ele>364.0</ele><time>2026-04-05T09:23:55.603Z</time></trkpt><trkpt lat="43.2266763" lon="-8.5368455"><ele>364.0</ele><time>2026-04-05T09:23:56.603Z</time></trkpt><trkpt lat="43.2266274" lon="-8.5365833"><ele>363.66666666666663</ele><time>2026-04-05T09:23:57.603Z</time></trkpt><trkpt lat="43.226579" lon="-8.5363196"><ele>363.3333333333333</ele><time>2026-04-05T09:23:58.602Z</time></trkpt><trkpt lat="43.226515" lon="-8.5360666"><ele>363.0</ele><time>2026-04-05T09:23:59.603Z</time></trkpt><trkpt lat="43.2264382" lon="-8.5358321"><ele>363.0</ele><time>2026-04-05T09:24:00.603Z</time></trkpt><trkpt lat="43.2263529" lon="-8.5356132"><ele>363.0</ele><time>2026-04-05T09:24:01.603Z</time></trkpt><trkpt lat="43.2262437" lon="-8.5354205"><ele>363.0</ele><time>2026-04-05T09:24:02.602Z</time></trkpt><trkpt lat="43.2261166" lon="-8.5352443"><ele>366.3333333333333</ele><time>2026-04-05T09:24:03.603Z</time></trkpt><trkpt lat="43.2259853" lon="-8.5350806"><ele>369.66666666666663</ele><time>2026-04-05T09:24:04.602Z</time></trkpt><trkpt lat="43.2258666" lon="-8.5349051"><ele>373.0</ele><time>2026-04-05T09:24:05.603Z</time></trkpt><trkpt lat="43.2257719" lon="-8.534707"><ele>373.0</ele><time>2026-04-05T09:24:06.603Z</time></trkpt><trkpt lat="43.2257093" lon="-8.5344933"><ele>373.0</ele><time>2026-04-05T09:24:07.603Z</time></trkpt><trkpt lat="43.2256563" lon="-8.5342781"><ele>373.0</ele><time>2026-04-05T09:24:08.602Z</time></trkpt><trkpt lat="43.2256273" lon="-8.5340332"><ele>373.0</ele><time>2026-04-05T09:24:09.603Z</time></trkpt><trkpt lat="43.2256033" lon="-8.5337803"><ele>373.0</ele><time>2026-04-05T09:24:10.603Z</time></trkpt><trkpt lat="43.225582" lon="-8.5335133"><ele>373.0</ele><time>2026-04-05T09:24:11.602Z</time></trkpt><trkpt lat="43.2255664" lon="-8.5332453"><ele>374.66666666666663</ele><time>2026-04-05T09:24:12.602Z</time></trkpt><trkpt lat="43.2255484" lon="-8.5329829"><ele>376.3333333333333</ele><time>2026-04-05T09:24:13.602Z</time></trkpt><trkpt lat="43.2255343" lon="-8.5327112"><ele>378.0</ele><time>2026-04-05T09:24:14.603Z</time></trkpt><trkpt lat="43.2255219" lon="-8.5324353"><ele>378.3333333333333</ele><time>2026-04-05T09:24:15.603Z</time></trkpt><trkpt lat="43.2255118" lon="-8.532162"><ele>378.66666666666663</ele><time>2026-04-05T09:24:16.602Z</time></trkpt><trkpt lat="43.2255073" lon="-8.5318741"><ele>379.0</ele><time>2026-04-05T09:24:17.603Z</time></trkpt><trkpt lat="43.2255051" lon="-8.5315881"><ele>380.3333333333333</ele><time>2026-04-05T09:24:18.603Z</time></trkpt><trkpt lat="43.2255094" lon="-8.5313021"><ele>381.6666666666667</ele><time>2026-04-05T09:24:19.602Z</time></trkpt><trkpt lat="43.2255167" lon="-8.5310191"><ele>383.0</ele><time>2026-04-05T09:24:20.602Z</time></trkpt><trkpt lat="43.2255258" lon="-8.5307444"><ele>383.0</ele><time>2026-04-05T09:24:21.603Z</time></trkpt><trkpt lat="43.2255337" lon="-8.5304735"><ele>383.0</ele><time>2026-04-05T09:24:22.602Z</time></trkpt><trkpt lat="43.2255416" lon="-8.5302053"><ele>383.0</ele><time>2026-04-05T09:24:23.603Z</time></trkpt><trkpt lat="43.2255489" lon="-8.5299371"><ele>383.0</ele><time>2026-04-05T09:24:24.603Z</time></trkpt><trkpt lat="43.2255482" lon="-8.5296693"><ele>383.0</ele><time>2026-04-05T09:24:25.603Z</time></trkpt><trkpt lat="43.2255491" lon="-8.529396"><ele>383.0</ele><time>2026-04-05T09:24:26.603Z</time></trkpt><trkpt lat="43.2255553" lon="-8.5291145"><ele>383.6666666666667</ele><time>2026-04-05T09:24:27.602Z</time></trkpt><trkpt lat="43.2255634" lon="-8.5288274"><ele>384.33333333333337</ele><time>2026-04-05T09:24:28.603Z</time></trkpt><trkpt lat="43.225575" lon="-8.5285375"><ele>385.0</ele><time>2026-04-05T09:24:29.603Z</time></trkpt><trkpt lat="43.2255874" lon="-8.5282427"><ele>385.0</ele><time>2026-04-05T09:24:30.602Z</time></trkpt><trkpt lat="43.2255984" lon="-8.527945"><ele>385.0</ele><time>2026-04-05T09:24:31.603Z</time></trkpt><trkpt lat="43.2256073" lon="-8.5276601"><ele>385.0</ele><time>2026-04-05T09:24:32.603Z</time></trkpt><trkpt lat="43.225622" lon="-8.5273925"><ele>384.33333333333337</ele><time>2026-04-05T09:24:33.603Z</time></trkpt><trkpt lat="43.2256244" lon="-8.5271232"><ele>383.6666666666667</ele><time>2026-04-05T09:24:34.602Z</time></trkpt><trkpt lat="43.2256095" lon="-8.5268515"><ele>383.0</ele><time>2026-04-05T09:24:35.602Z</time></trkpt><trkpt lat="43.2255851" lon="-8.526576"><ele>380.0</ele><time>2026-04-05T09:24:36.603Z</time></trkpt><trkpt lat="43.22556" lon="-8.5263076"><ele>377.0</ele><time>2026-04-05T09:24:37.602Z</time></trkpt><trkpt lat="43.2255412" lon="-8.5260486"><ele>374.0</ele><time>2026-04-05T09:24:38.602Z</time></trkpt><trkpt lat="43.2255112" lon="-8.525793"><ele>371.33333333333337</ele><time>2026-04-05T09:24:39.603Z</time></trkpt><trkpt lat="43.2254612" lon="-8.5255465"><ele>368.6666666666667</ele><time>2026-04-05T09:24:40.603Z</time></trkpt><trkpt lat="43.2253714" lon="-8.5253244"><ele>366.0</ele><time>2026-04-05T09:24:41.602Z</time></trkpt><trkpt lat="43.2252441" lon="-8.5251284"><ele>366.0</ele><time>2026-04-05T09:24:42.602Z</time></trkpt><trkpt lat="43.2250895" lon="-8.5249508"><ele>366.0</ele><time>2026-04-05T09:24:43.603Z</time></trkpt><trkpt lat="43.2249304" lon="-8.5247703"><ele>366.0</ele><time>2026-04-05T09:24:44.603Z</time></trkpt><trkpt lat="43.2247992" lon="-8.5245443"><ele>366.0</ele><time>2026-04-05T09:24:45.603Z</time></trkpt><trkpt lat="43.2246828" lon="-8.5242939"><ele>366.0</ele><time>2026-04-05T09:24:46.602Z</time></trkpt><trkpt lat="43.2245727" lon="-8.5240324"><ele>366.0</ele><time>2026-04-05T09:24:47.603Z</time></trkpt><trkpt lat="43.2244681" lon="-8.523759"><ele>366.6666666666667</ele><time>2026-04-05T09:24:48.603Z</time></trkpt><trkpt lat="43.2243668" lon="-8.5234853"><ele>367.33333333333337</ele><time>2026-04-05T09:24:49.602Z</time></trkpt><trkpt lat="43.2242818" lon="-8.5232045"><ele>368.0</ele><time>2026-04-05T09:24:50.602Z</time></trkpt><trkpt lat="43.2242134" lon="-8.5229169"><ele>368.6666666666667</ele><time>2026-04-05T09:24:51.603Z</time></trkpt><trkpt lat="43.2241565" lon="-8.5226422"><ele>369.3333333333333</ele><time>2026-04-05T09:24:52.603Z</time></trkpt><trkpt lat="43.2240889" lon="-8.5223834"><ele>370.0</ele><time>2026-04-05T09:24:53.603Z</time></trkpt><trkpt lat="43.2239902" lon="-8.5221462"><ele>371.3333333333333</ele><time>2026-04-05T09:24:54.603Z</time></trkpt><trkpt lat="43.2238719" lon="-8.5219104"><ele>372.6666666666667</ele><time>2026-04-05T09:24:55.603Z</time></trkpt><trkpt lat="43.2237426" lon="-8.5216733"><ele>374.0</ele><time>2026-04-05T09:24:56.603Z</time></trkpt><trkpt lat="43.2236073" lon="-8.5214364"><ele>377.33333333333337</ele><time>2026-04-05T09:24:57.603Z</time></trkpt><trkpt lat="43.2234562" lon="-8.5212149"><ele>380.6666666666667</ele><time>2026-04-05T09:24:58.603Z</time></trkpt><trkpt lat="43.223299" lon="-8.5210036"><ele>384.0</ele><time>2026-04-05T09:24:59.603Z</time></trkpt><trkpt lat="43.2231319" lon="-8.5207918"><ele>384.0</ele><time>2026-04-05T09:25:00.603Z</time></trkpt><trkpt lat="43.2229676" lon="-8.5205732"><ele>384.0</ele><time>2026-04-05T09:25:01.603Z</time></trkpt><trkpt lat="43.2228111" lon="-8.5203537"><ele>387.0</ele><time>2026-04-05T09:25:02.602Z</time></trkpt><trkpt lat="43.2226653" lon="-8.5201253"><ele>390.0</ele><time>2026-04-05T09:25:03.603Z</time></trkpt><trkpt lat="43.2225245" lon="-8.5198991"><ele>393.0</ele><time>2026-04-05T09:25:04.603Z</time></trkpt><trkpt lat="43.2223851" lon="-8.5196808"><ele>395.66666666666663</ele><time>2026-04-05T09:25:05.602Z</time></trkpt><trkpt lat="43.2222455" lon="-8.5194768"><ele>398.3333333333333</ele><time>2026-04-05T09:25:06.603Z</time></trkpt><trkpt lat="43.2221042" lon="-8.5192828"><ele>401.0</ele><time>2026-04-05T09:25:07.603Z</time></trkpt><trkpt lat="43.221967" lon="-8.5190915"><ele>401.0</ele><time>2026-04-05T09:25:08.602Z</time></trkpt><trkpt lat="43.2218433" lon="-8.5188908"><ele>401.0</ele><time>2026-04-05T09:25:09.603Z</time></trkpt><trkpt lat="43.2217312" lon="-8.5186919"><ele>401.0</ele><time>2026-04-05T09:25:10.603Z</time></trkpt><trkpt lat="43.2216337" lon="-8.5184998"><ele>401.0</ele><time>2026-04-05T09:25:11.603Z</time></trkpt><trkpt lat="43.2215355" lon="-8.5183124"><ele>401.0</ele><time>2026-04-05T09:25:12.603Z</time></trkpt><trkpt lat="43.2214509" lon="-8.5181224"><ele>401.0</ele><time>2026-04-05T09:25:13.602Z</time></trkpt><trkpt lat="43.2214114" lon="-8.5178762"><ele>402.66666666666663</ele><time>2026-04-05T09:25:14.602Z</time></trkpt><trkpt lat="43.2213759" lon="-8.5176446"><ele>404.33333333333337</ele><time>2026-04-05T09:25:15.603Z</time></trkpt><trkpt lat="43.2213637" lon="-8.5174195"><ele>406.0</ele><time>2026-04-05T09:25:16.603Z</time></trkpt><trkpt lat="43.2213836" lon="-8.5172038"><ele>406.6666666666667</ele><time>2026-04-05T09:25:17.602Z</time></trkpt><trkpt lat="43.2214334" lon="-8.5169945"><ele>407.33333333333337</ele><time>2026-04-05T09:25:18.603Z</time></trkpt><trkpt lat="43.2215037" lon="-8.5167867"><ele>408.0</ele><time>2026-04-05T09:25:19.602Z</time></trkpt><trkpt lat="43.2215803" lon="-8.5165922"><ele>408.0</ele><time>2026-04-05T09:25:20.603Z</time></trkpt><trkpt lat="43.2216342" lon="-8.5164044"><ele>408.0</ele><time>2026-04-05T09:25:21.603Z</time></trkpt><trkpt lat="43.2216428" lon="-8.5162255"><ele>408.0</ele><time>2026-04-05T09:25:22.603Z</time></trkpt><trkpt lat="43.2216109" lon="-8.5160432"><ele>408.0</ele><time>2026-04-05T09:25:23.603Z</time></trkpt><trkpt lat="43.2215554" lon="-8.5158469"><ele>409.0</ele><time>2026-04-05T09:25:24.603Z</time></trkpt><trkpt lat="43.221488" lon="-8.5156432"><ele>410.0</ele><time>2026-04-05T09:25:25.603Z</time></trkpt><trkpt lat="43.2214135" lon="-8.5154383"><ele>411.0</ele><time>2026-04-05T09:25:26.603Z</time></trkpt><trkpt lat="43.2213291" lon="-8.5152402"><ele>414.0</ele><time>2026-04-05T09:25:27.603Z</time></trkpt><trkpt lat="43.2212302" lon="-8.5150491"><ele>417.0</ele><time>2026-04-05T09:25:28.602Z</time></trkpt><trkpt lat="43.2211124" lon="-8.5148653"><ele>420.0</ele><time>2026-04-05T09:25:29.603Z</time></trkpt><trkpt lat="43.2209846" lon="-8.5146798"><ele>420.66666666666663</ele><time>2026-04-05T09:25:30.602Z</time></trkpt><trkpt lat="43.2208654" lon="-8.5144976"><ele>421.3333333333333</ele><time>2026-04-05T09:25:31.603Z</time></trkpt><trkpt lat="43.2207747" lon="-8.5142871"><ele>422.0</ele><time>2026-04-05T09:25:32.603Z</time></trkpt><trkpt lat="43.2207116" lon="-8.5140606"><ele>421.0</ele><time>2026-04-05T09:25:33.602Z</time></trkpt><trkpt lat="43.2206303" lon="-8.5138423"><ele>420.0</ele><time>2026-04-05T09:25:34.603Z</time></trkpt><trkpt lat="43.2205092" lon="-8.5136322"><ele>419.0</ele><time>2026-04-05T09:25:35.603Z</time></trkpt><trkpt lat="43.2203733" lon="-8.5134278"><ele>421.3333333333333</ele><time>2026-04-05T09:25:36.603Z</time></trkpt><trkpt lat="43.2202304" lon="-8.5132168"><ele>423.66666666666663</ele><time>2026-04-05T09:25:37.602Z</time></trkpt><trkpt lat="43.2200876" lon="-8.5129921"><ele>426.0</ele><time>2026-04-05T09:25:38.603Z</time></trkpt><trkpt lat="43.2199529" lon="-8.5127561"><ele>426.0</ele><time>2026-04-05T09:25:39.603Z</time></trkpt><trkpt lat="43.2198103" lon="-8.5125198"><ele>426.0</ele><time>2026-04-05T09:25:40.603Z</time></trkpt><trkpt lat="43.2196626" lon="-8.5122811"><ele>427.33333333333337</ele><time>2026-04-05T09:25:41.602Z</time></trkpt><trkpt lat="43.2195156" lon="-8.512045"><ele>428.6666666666667</ele><time>2026-04-05T09:25:42.603Z</time></trkpt><trkpt lat="43.2193763" lon="-8.5118174"><ele>430.0</ele><time>2026-04-05T09:25:43.602Z</time></trkpt><trkpt lat="43.2192456" lon="-8.511593"><ele>430.0</ele><time>2026-04-05T09:25:44.603Z</time></trkpt><trkpt lat="43.219122" lon="-8.5113761"><ele>430.0</ele><time>2026-04-05T09:25:45.603Z</time></trkpt><trkpt lat="43.2190089" lon="-8.5111542"><ele>430.0</ele><time>2026-04-05T09:25:46.603Z</time></trkpt><trkpt lat="43.2189217" lon="-8.5109119"><ele>430.6666666666667</ele><time>2026-04-05T09:25:47.603Z</time></trkpt><trkpt lat="43.2188571" lon="-8.5106537"><ele>431.33333333333337</ele><time>2026-04-05T09:25:48.603Z</time></trkpt><trkpt lat="43.2188082" lon="-8.5103805"><ele>432.0</ele><time>2026-04-05T09:25:49.603Z</time></trkpt><trkpt lat="43.2187552" lon="-8.5101069"><ele>432.0</ele><time>2026-04-05T09:25:50.603Z</time></trkpt><trkpt lat="43.21869" lon="-8.5098302"><ele>432.0</ele><time>2026-04-05T09:25:51.603Z</time></trkpt><trkpt lat="43.2186028" lon="-8.5095508"><ele>432.0</ele><time>2026-04-05T09:25:52.602Z</time></trkpt><trkpt lat="43.2185133" lon="-8.5092688"><ele>432.0</ele><time>2026-04-05T09:25:53.603Z</time></trkpt><trkpt lat="43.2184206" lon="-8.5089862"><ele>432.0</ele><time>2026-04-05T09:25:54.602Z</time></trkpt><trkpt lat="43.2183333" lon="-8.5087006"><ele>431.66666666666663</ele><time>2026-04-05T09:25:55.603Z</time></trkpt><trkpt lat="43.2182535" lon="-8.5084329"><ele>431.3333333333333</ele><time>2026-04-05T09:25:56.603Z</time></trkpt><trkpt lat="43.2181779" lon="-8.5081834"><ele>431.0</ele><time>2026-04-05T09:25:57.603Z</time></trkpt><trkpt lat="43.2180996" lon="-8.5079509"><ele>432.66666666666663</ele><time>2026-04-05T09:25:58.602Z</time></trkpt><trkpt lat="43.2180229" lon="-8.5077449"><ele>434.33333333333337</ele><time>2026-04-05T09:25:59.602Z</time></trkpt><trkpt lat="43.2179482" lon="-8.5075666"><ele>436.0</ele><time>2026-04-05T09:26:00.603Z</time></trkpt><trkpt lat="43.2178757" lon="-8.5074159"><ele>436.0</ele><time>2026-04-05T09:26:01.603Z</time></trkpt><trkpt lat="43.2177981" lon="-8.5072899"><ele>436.0</ele><time>2026-04-05T09:26:02.603Z</time></trkpt><trkpt lat="43.2177084" lon="-8.5071966"><ele>436.0</ele><time>2026-04-05T09:26:03.603Z</time></trkpt><trkpt lat="43.2176156" lon="-8.5071321"><ele>436.0</ele><time>2026-04-05T09:26:04.603Z</time></trkpt><trkpt lat="43.2175096" lon="-8.5070994"><ele>436.0</ele><time>2026-04-05T09:26:05.603Z</time></trkpt><trkpt lat="43.2173973" lon="-8.5070859"><ele>437.25</ele><time>2026-04-05T09:26:06.602Z</time></trkpt><trkpt lat="43.2172822" lon="-8.507075"><ele>438.5</ele><time>2026-04-05T09:26:07.603Z</time></trkpt><trkpt lat="43.2171639" lon="-8.5070702"><ele>439.75</ele><time>2026-04-05T09:26:08.602Z</time></trkpt><trkpt lat="43.2170437" lon="-8.5070654"><ele>441.0</ele><time>2026-04-05T09:26:09.602Z</time></trkpt><trkpt lat="43.2169221" lon="-8.5070544"><ele>441.0</ele><time>2026-04-05T09:26:10.602Z</time></trkpt><trkpt lat="43.2167979" lon="-8.5070263"><ele>441.0</ele><time>2026-04-05T09:26:11.603Z</time></trkpt><trkpt lat="43.216676" lon="-8.5069841"><ele>441.0</ele><time>2026-04-05T09:26:12.603Z</time></trkpt><trkpt lat="43.2165587" lon="-8.506916"><ele>441.0</ele><time>2026-04-05T09:26:13.603Z</time></trkpt><trkpt lat="43.2164456" lon="-8.5068264"><ele>444.75</ele><time>2026-04-05T09:26:14.602Z</time></trkpt><trkpt lat="43.2163446" lon="-8.5067256"><ele>448.5</ele><time>2026-04-05T09:26:15.603Z</time></trkpt><trkpt lat="43.2162516" lon="-8.5066244"><ele>452.25</ele><time>2026-04-05T09:26:16.603Z</time></trkpt><trkpt lat="43.2161659" lon="-8.506524"><ele>456.0</ele><time>2026-04-05T09:26:17.603Z</time></trkpt><trkpt lat="43.2160777" lon="-8.5064305"><ele>456.0</ele><time>2026-04-05T09:26:18.602Z</time></trkpt><trkpt lat="43.2159917" lon="-8.5063382"><ele>456.0</ele><time>2026-04-05T09:26:19.602Z</time></trkpt><trkpt lat="43.2159103" lon="-8.5062511"><ele>456.0</ele><time>2026-04-05T09:26:20.602Z</time></trkpt><trkpt lat="43.2158334" lon="-8.5061605"><ele>456.0</ele><time>2026-04-05T09:26:21.602Z</time></trkpt><trkpt lat="43.2157632" lon="-8.5060616"><ele>456.0</ele><time>2026-04-05T09:26:22.602Z</time></trkpt><trkpt lat="43.2157016" lon="-8.5059587"><ele>456.6</ele><time>2026-04-05T09:26:23.603Z</time></trkpt><trkpt lat="43.215643" lon="-8.5058515"><ele>457.20000000000005</ele><time>2026-04-05T09:26:24.603Z</time></trkpt><trkpt lat="43.2155801" lon="-8.5057336"><ele>457.79999999999995</ele><time>2026-04-05T09:26:25.603Z</time></trkpt><trkpt lat="43.2155174" lon="-8.5056144"><ele>458.4</ele><time>2026-04-05T09:26:26.603Z</time></trkpt><trkpt lat="43.2154514" lon="-8.5054985"><ele>459.0</ele><time>2026-04-05T09:26:27.603Z</time></trkpt><trkpt lat="43.2153871" lon="-8.5053844"><ele>459.0</ele><time>2026-04-05T09:26:28.603Z</time></trkpt><trkpt lat="43.2153093" lon="-8.5052655"><ele>459.0</ele><time>2026-04-05T09:26:29.603Z</time></trkpt><trkpt lat="43.2152366" lon="-8.5051526"><ele>459.0</ele><time>2026-04-05T09:26:30.603Z</time></trkpt><trkpt lat="43.2151566" lon="-8.5050388"><ele>459.0</ele><time>2026-04-05T09:26:31.603Z</time></trkpt><trkpt lat="43.2150731" lon="-8.5049311"><ele>459.0</ele><time>2026-04-05T09:26:32.603Z</time></trkpt><trkpt lat="43.2149898" lon="-8.5048178"><ele>459.0</ele><time>2026-04-05T09:26:33.603Z</time></trkpt><trkpt lat="43.2149102" lon="-8.5047061"><ele>459.0</ele><time>2026-04-05T09:26:34.603Z</time></trkpt><trkpt lat="43.2148357" lon="-8.5045721"><ele>459.0</ele><time>2026-04-05T09:26:35.602Z</time></trkpt><trkpt lat="43.2147617" lon="-8.5044346"><ele>462.0</ele><time>2026-04-05T09:26:36.602Z</time></trkpt><trkpt lat="43.2146853" lon="-8.5042942"><ele>465.0</ele><time>2026-04-05T09:26:37.603Z</time></trkpt><trkpt lat="43.2146043" lon="-8.5041506"><ele>468.0</ele><time>2026-04-05T09:26:38.603Z</time></trkpt><trkpt lat="43.2145227" lon="-8.5040101"><ele>471.0</ele><time>2026-04-05T09:26:39.602Z</time></trkpt><trkpt lat="43.2144383" lon="-8.5038714"><ele>469.0</ele><time>2026-04-05T09:26:40.603Z</time></trkpt><trkpt lat="43.2143555" lon="-8.5037339"><ele>467.0</ele><time>2026-04-05T09:26:41.602Z</time></trkpt><trkpt lat="43.2142712" lon="-8.5035961"><ele>465.0</ele><time>2026-04-05T09:26:42.603Z</time></trkpt><trkpt lat="43.214185" lon="-8.5034628"><ele>463.0</ele><time>2026-04-05T09:26:43.602Z</time></trkpt><trkpt lat="43.214094" lon="-8.5033423"><ele>463.0</ele><time>2026-04-05T09:26:44.602Z</time></trkpt><trkpt lat="43.2140042" lon="-8.5032353"><ele>463.0</ele><time>2026-04-05T09:26:45.602Z</time></trkpt><trkpt lat="43.2139067" lon="-8.5031326"><ele>463.0</ele><time>2026-04-05T09:26:46.603Z</time></trkpt><trkpt lat="43.2137998" lon="-8.503034"><ele>463.0</ele><time>2026-04-05T09:26:47.603Z</time></trkpt><trkpt lat="43.2136871" lon="-8.5029404"><ele>464.25</ele><time>2026-04-05T09:26:48.603Z</time></trkpt><trkpt lat="43.2135674" lon="-8.5028608"><ele>465.5</ele><time>2026-04-05T09:26:49.603Z</time></trkpt><trkpt lat="43.2134475" lon="-8.5027839"><ele>466.75</ele><time>2026-04-05T09:26:50.603Z</time></trkpt><trkpt lat="43.2133239" lon="-8.5027072"><ele>468.0</ele><time>2026-04-05T09:26:51.603Z</time></trkpt><trkpt lat="43.213206" lon="-8.5026277"><ele>469.5</ele><time>2026-04-05T09:26:52.603Z</time></trkpt><trkpt lat="43.2130888" lon="-8.5025515"><ele>471.0</ele><time>2026-04-05T09:26:53.603Z</time></trkpt><trkpt lat="43.2129749" lon="-8.5024871"><ele>472.5</ele><time>2026-04-05T09:26:54.603Z</time></trkpt><trkpt lat="43.2128607" lon="-8.5024249"><ele>474.0</ele><time>2026-04-05T09:26:55.603Z</time></trkpt><trkpt lat="43.2127448" lon="-8.5023744"><ele>474.0</ele><time>2026-04-05T09:26:56.603Z</time></trkpt><trkpt lat="43.2126249" lon="-8.5023293"><ele>474.0</ele><time>2026-04-05T09:26:57.603Z</time></trkpt><trkpt lat="43.2124992" lon="-8.5022986"><ele>474.0</ele><time>2026-04-05T09:26:58.603Z</time></trkpt><trkpt lat="43.2123656" lon="-8.5022902"><ele>474.0</ele><time>2026-04-05T09:26:59.602Z</time></trkpt><trkpt lat="43.2122304" lon="-8.5023092"><ele>474.25</ele><time>2026-04-05T09:27:00.602Z</time></trkpt><trkpt lat="43.2121016" lon="-8.5023528"><ele>474.5</ele><time>2026-04-05T09:27:01.602Z</time></trkpt><trkpt lat="43.211972" lon="-8.5024002"><ele>474.75</ele><time>2026-04-05T09:27:02.602Z</time></trkpt><trkpt lat="43.2118382" lon="-8.5024212"><ele>475.0</ele><time>2026-04-05T09:27:03.602Z</time></trkpt><trkpt lat="43.2116997" lon="-8.5023959"><ele>475.0</ele><time>2026-04-05T09:27:04.603Z</time></trkpt><trkpt lat="43.211564" lon="-8.5023392"><ele>475.0</ele><time>2026-04-05T09:27:05.603Z</time></trkpt><trkpt lat="43.2114365" lon="-8.5022655"><ele>475.0</ele><time>2026-04-05T09:27:06.603Z</time></trkpt><trkpt lat="43.2113068" lon="-8.5021661"><ele>475.0</ele><time>2026-04-05T09:27:07.603Z</time></trkpt><trkpt lat="43.2111871" lon="-8.5020673"><ele>474.75</ele><time>2026-04-05T09:27:08.603Z</time></trkpt><trkpt lat="43.2110728" lon="-8.5019654"><ele>474.5</ele><time>2026-04-05T09:27:09.602Z</time></trkpt><trkpt lat="43.2109685" lon="-8.5018562"><ele>474.25</ele><time>2026-04-05T09:27:10.603Z</time></trkpt><trkpt lat="43.2108798" lon="-8.5017381"><ele>474.0</ele><time>2026-04-05T09:27:11.603Z</time></trkpt><trkpt lat="43.2108069" lon="-8.5016204"><ele>474.0</ele><time>2026-04-05T09:27:12.603Z</time></trkpt><trkpt lat="43.210742" lon="-8.501503"><ele>474.0</ele><time>2026-04-05T09:27:13.603Z</time></trkpt><trkpt lat="43.2106839" lon="-8.5013859"><ele>474.0</ele><time>2026-04-05T09:27:14.603Z</time></trkpt><trkpt lat="43.2106285" lon="-8.5012756"><ele>474.0</ele><time>2026-04-05T09:27:15.602Z</time></trkpt><trkpt lat="43.2105734" lon="-8.5011667"><ele>474.0</ele><time>2026-04-05T09:27:16.603Z</time></trkpt><trkpt lat="43.2105259" lon="-8.5010589"><ele>473.1666666666667</ele><time>2026-04-05T09:27:17.603Z</time></trkpt><trkpt lat="43.2104808" lon="-8.5009614"><ele>472.33333333333337</ele><time>2026-04-05T09:27:18.603Z</time></trkpt><trkpt lat="43.2104347" lon="-8.5008741"><ele>471.5</ele><time>2026-04-05T09:27:19.603Z</time></trkpt><trkpt lat="43.2103901" lon="-8.5007896"><ele>470.6666666666667</ele><time>2026-04-05T09:27:20.602Z</time></trkpt><trkpt lat="43.2103443" lon="-8.5006987"><ele>469.83333333333337</ele><time>2026-04-05T09:27:21.603Z</time></trkpt><trkpt lat="43.2102905" lon="-8.5005937"><ele>469.0</ele><time>2026-04-05T09:27:22.603Z</time></trkpt><trkpt lat="43.2102348" lon="-8.5004663"><ele>467.75</ele><time>2026-04-05T09:27:23.603Z</time></trkpt><trkpt lat="43.2101686" lon="-8.500318"><ele>466.5</ele><time>2026-04-05T09:27:24.603Z</time></trkpt><trkpt lat="43.2100832" lon="-8.500145"><ele>465.25</ele><time>2026-04-05T09:27:25.603Z</time></trkpt><trkpt lat="43.209987" lon="-8.4999545"><ele>464.0</ele><time>2026-04-05T09:27:26.603Z</time></trkpt><trkpt lat="43.2098797" lon="-8.4997387"><ele>460.66666666666663</ele><time>2026-04-05T09:27:27.603Z</time></trkpt><trkpt lat="43.2097648" lon="-8.4995118"><ele>457.33333333333337</ele><time>2026-04-05T09:27:28.603Z</time></trkpt><trkpt lat="43.2096415" lon="-8.4992678"><ele>454.0</ele><time>2026-04-05T09:27:29.603Z</time></trkpt><trkpt lat="43.209509" lon="-8.4990142"><ele>454.0</ele><time>2026-04-05T09:27:30.603Z</time></trkpt><trkpt lat="43.2093829" lon="-8.4987513"><ele>454.0</ele><time>2026-04-05T09:27:31.603Z</time></trkpt><trkpt lat="43.209282" lon="-8.4984781"><ele>453.5</ele><time>2026-04-05T09:27:32.603Z</time></trkpt><trkpt lat="43.2092044" lon="-8.4981671"><ele>453.0</ele><time>2026-04-05T09:27:33.602Z</time></trkpt><trkpt lat="43.2091452" lon="-8.4978325"><ele>454.0</ele><time>2026-04-05T09:27:34.603Z</time></trkpt><trkpt lat="43.2090867" lon="-8.4974929"><ele>455.0</ele><time>2026-04-05T09:27:35.603Z</time></trkpt><trkpt lat="43.2090197" lon="-8.4971794"><ele>454.0</ele><time>2026-04-05T09:27:36.603Z</time></trkpt><trkpt lat="43.2089547" lon="-8.4968893"><ele>453.0</ele><time>2026-04-05T09:27:37.602Z</time></trkpt><trkpt lat="43.2088783" lon="-8.4966475"><ele>452.0</ele><time>2026-04-05T09:27:38.603Z</time></trkpt><trkpt lat="43.2087721" lon="-8.4964512"><ele>452.0</ele><time>2026-04-05T09:27:39.603Z</time></trkpt><trkpt lat="43.2086317" lon="-8.4962813"><ele>452.0</ele><time>2026-04-05T09:27:40.602Z</time></trkpt><trkpt lat="43.2084656" lon="-8.4961109"><ele>452.0</ele><time>2026-04-05T09:27:41.603Z</time></trkpt><trkpt lat="43.208296" lon="-8.4959141"><ele>447.0</ele><time>2026-04-05T09:27:42.603Z</time></trkpt><trkpt lat="43.208135" lon="-8.4956769"><ele>442.0</ele><time>2026-04-05T09:27:43.602Z</time></trkpt><trkpt lat="43.2079935" lon="-8.4954081"><ele>440.0</ele><time>2026-04-05T09:27:44.602Z</time></trkpt><trkpt lat="43.2078802" lon="-8.4951135"><ele>438.0</ele><time>2026-04-05T09:27:45.603Z</time></trkpt><trkpt lat="43.2077837" lon="-8.4948211"><ele>438.0</ele><time>2026-04-05T09:27:46.603Z</time></trkpt><trkpt lat="43.2076857" lon="-8.4945572"><ele>438.0</ele><time>2026-04-05T09:27:47.603Z</time></trkpt><trkpt lat="43.2075697" lon="-8.49434"><ele>438.0</ele><time>2026-04-05T09:27:48.602Z</time></trkpt><trkpt lat="43.2074328" lon="-8.4941894"><ele>437.0</ele><time>2026-04-05T09:27:49.603Z</time></trkpt><trkpt lat="43.2072739" lon="-8.4940929"><ele>436.0</ele><time>2026-04-05T09:27:50.602Z</time></trkpt><trkpt lat="43.2070806" lon="-8.4940387"><ele>435.0</ele><time>2026-04-05T09:27:51.602Z</time></trkpt><trkpt lat="43.2068667" lon="-8.4940131"><ele>435.0</ele><time>2026-04-05T09:27:52.602Z</time></trkpt><trkpt lat="43.2066718" lon="-8.4939924"><ele>435.0</ele><time>2026-04-05T09:27:53.603Z</time></trkpt><trkpt lat="43.2064861" lon="-8.4939427"><ele>435.0</ele><time>2026-04-05T09:27:54.602Z</time></trkpt><trkpt lat="43.2063342" lon="-8.4938378"><ele>434.66666666666663</ele><time>2026-04-05T09:27:55.603Z</time></trkpt><trkpt lat="43.2062087" lon="-8.4936906"><ele>434.3333333333333</ele><time>2026-04-05T09:27:56.603Z</time></trkpt><trkpt lat="43.2061175" lon="-8.4934886"><ele>434.0</ele><time>2026-04-05T09:27:57.603Z</time></trkpt><trkpt lat="43.2060408" lon="-8.4932294"><ele>434.0</ele><time>2026-04-05T09:27:58.602Z</time></trkpt><trkpt lat="43.2059815" lon="-8.4929228"><ele>434.0</ele><time>2026-04-05T09:27:59.603Z</time></trkpt><trkpt lat="43.2059096" lon="-8.4925921"><ele>436.0</ele><time>2026-04-05T09:28:00.603Z</time></trkpt><trkpt lat="43.2058073" lon="-8.4922766"><ele>438.0</ele><time>2026-04-05T09:28:01.603Z</time></trkpt><trkpt lat="43.2056797" lon="-8.4919709"><ele>435.5</ele><time>2026-04-05T09:28:02.602Z</time></trkpt><trkpt lat="43.2055508" lon="-8.4916965"><ele>433.0</ele><time>2026-04-05T09:28:03.603Z</time></trkpt><trkpt lat="43.2054342" lon="-8.4914397"><ele>434.33333333333337</ele><time>2026-04-05T09:28:04.603Z</time></trkpt><trkpt lat="43.2053108" lon="-8.4912115"><ele>435.66666666666663</ele><time>2026-04-05T09:28:05.603Z</time></trkpt><trkpt lat="43.2051631" lon="-8.4910318"><ele>437.0</ele><time>2026-04-05T09:28:06.603Z</time></trkpt><trkpt lat="43.2049833" lon="-8.490895"><ele>435.5</ele><time>2026-04-05T09:28:07.602Z</time></trkpt><trkpt lat="43.204767" lon="-8.4907787"><ele>434.0</ele><time>2026-04-05T09:28:08.603Z</time></trkpt><trkpt lat="43.2045315" lon="-8.4906579"><ele>434.0</ele><time>2026-04-05T09:28:09.603Z</time></trkpt><trkpt lat="43.204291" lon="-8.4904891"><ele>434.0</ele><time>2026-04-05T09:28:10.602Z</time></trkpt><trkpt lat="43.2040403" lon="-8.490284"><ele>436.5</ele><time>2026-04-05T09:28:11.602Z</time></trkpt><trkpt lat="43.2037845" lon="-8.4900739"><ele>439.0</ele><time>2026-04-05T09:28:12.603Z</time></trkpt><trkpt lat="43.2035326" lon="-8.4898675"><ele>439.0</ele><time>2026-04-05T09:28:13.602Z</time></trkpt><trkpt lat="43.2032997" lon="-8.4896781"><ele>439.0</ele><time>2026-04-05T09:28:14.602Z</time></trkpt><trkpt lat="43.2030803" lon="-8.4894944"><ele>440.0</ele><time>2026-04-05T09:28:15.603Z</time></trkpt><trkpt lat="43.2028824" lon="-8.4893171"><ele>441.0</ele><time>2026-04-05T09:28:16.603Z</time></trkpt><trkpt lat="43.2027073" lon="-8.4891325"><ele>441.0</ele><time>2026-04-05T09:28:17.603Z</time></trkpt><trkpt lat="43.2025566" lon="-8.4889215"><ele>441.0</ele><time>2026-04-05T09:28:18.603Z</time></trkpt><trkpt lat="43.2024221" lon="-8.4886951"><ele>441.0</ele><time>2026-04-05T09:28:19.603Z</time></trkpt><trkpt lat="43.2022967" lon="-8.488459"><ele>441.33333333333337</ele><time>2026-04-05T09:28:20.603Z</time></trkpt><trkpt lat="43.2021755" lon="-8.4882169"><ele>441.6666666666667</ele><time>2026-04-05T09:28:21.602Z</time></trkpt><trkpt lat="43.2020586" lon="-8.4879832"><ele>442.0</ele><time>2026-04-05T09:28:22.603Z</time></trkpt><trkpt lat="43.2019393" lon="-8.4877532"><ele>442.6666666666667</ele><time>2026-04-05T09:28:23.603Z</time></trkpt><trkpt lat="43.2018227" lon="-8.4875229"><ele>443.33333333333337</ele><time>2026-04-05T09:28:24.602Z</time></trkpt><trkpt lat="43.2017054" lon="-8.4872941"><ele>444.0</ele><time>2026-04-05T09:28:25.603Z</time></trkpt><trkpt lat="43.2015932" lon="-8.487078"><ele>442.66666666666663</ele><time>2026-04-05T09:28:26.603Z</time></trkpt><trkpt lat="43.2014849" lon="-8.4868627"><ele>441.3333333333333</ele><time>2026-04-05T09:28:27.603Z</time></trkpt><trkpt lat="43.2013859" lon="-8.4866611"><ele>440.0</ele><time>2026-04-05T09:28:28.602Z</time></trkpt><trkpt lat="43.2012824" lon="-8.4864524"><ele>438.66666666666663</ele><time>2026-04-05T09:28:29.603Z</time></trkpt><trkpt lat="43.2011692" lon="-8.4862506"><ele>437.33333333333337</ele><time>2026-04-05T09:28:30.603Z</time></trkpt><trkpt lat="43.2010368" lon="-8.4860731"><ele>436.0</ele><time>2026-04-05T09:28:31.602Z</time></trkpt><trkpt lat="43.2008867" lon="-8.4859106"><ele>436.0</ele><time>2026-04-05T09:28:32.603Z</time></trkpt><trkpt lat="43.2007228" lon="-8.4857546"><ele>436.0</ele><time>2026-04-05T09:28:33.603Z</time></trkpt><trkpt lat="43.2005436" lon="-8.4855925"><ele>436.0</ele><time>2026-04-05T09:28:34.603Z</time></trkpt><trkpt lat="43.2003557" lon="-8.4854196"><ele>432.0</ele><time>2026-04-05T09:28:35.603Z</time></trkpt><trkpt lat="43.2001521" lon="-8.4852313"><ele>428.0</ele><time>2026-04-05T09:28:36.602Z</time></trkpt><trkpt lat="43.1999452" lon="-8.4850464"><ele>426.5</ele><time>2026-04-05T09:28:37.602Z</time></trkpt><trkpt lat="43.1997339" lon="-8.4848582"><ele>425.0</ele><time>2026-04-05T09:28:38.602Z</time></trkpt><trkpt lat="43.1995197" lon="-8.4846701"><ele>421.5</ele><time>2026-04-05T09:28:39.603Z</time></trkpt><trkpt lat="43.1993053" lon="-8.484479"><ele>418.0</ele><time>2026-04-05T09:28:40.603Z</time></trkpt><trkpt lat="43.1990964" lon="-8.4842933"><ele>414.0</ele><time>2026-04-05T09:28:41.603Z</time></trkpt><trkpt lat="43.1988925" lon="-8.4841133"><ele>410.0</ele><time>2026-04-05T09:28:42.603Z</time></trkpt><trkpt lat="43.1986858" lon="-8.4839304"><ele>410.0</ele><time>2026-04-05T09:28:43.603Z</time></trkpt><trkpt lat="43.1984935" lon="-8.4837816"><ele>410.0</ele><time>2026-04-05T09:28:44.602Z</time></trkpt><trkpt lat="43.1982909" lon="-8.4836753"><ele>410.0</ele><time>2026-04-05T09:28:45.603Z</time></trkpt><trkpt lat="43.1980756" lon="-8.4836044"><ele>410.66666666666663</ele><time>2026-04-05T09:28:46.602Z</time></trkpt><trkpt lat="43.1978618" lon="-8.4835423"><ele>411.33333333333337</ele><time>2026-04-05T09:28:47.602Z</time></trkpt><trkpt lat="43.1976525" lon="-8.4835461"><ele>412.0</ele><time>2026-04-05T09:28:48.602Z</time></trkpt><trkpt lat="43.1974576" lon="-8.4835713"><ele>411.33333333333337</ele><time>2026-04-05T09:28:49.603Z</time></trkpt><trkpt lat="43.1972705" lon="-8.4835896"><ele>410.66666666666663</ele><time>2026-04-05T09:28:50.602Z</time></trkpt><trkpt lat="43.1970831" lon="-8.4835825"><ele>410.0</ele><time>2026-04-05T09:28:51.603Z</time></trkpt><trkpt lat="43.1968978" lon="-8.4835358"><ele>410.0</ele><time>2026-04-05T09:28:52.603Z</time></trkpt><trkpt lat="43.1967071" lon="-8.4834438"><ele>410.0</ele><time>2026-04-05T09:28:53.603Z</time></trkpt><trkpt lat="43.1965007" lon="-8.4833195"><ele>410.0</ele><time>2026-04-05T09:28:54.603Z</time></trkpt><trkpt lat="43.1962936" lon="-8.483197"><ele>409.0</ele><time>2026-04-05T09:28:55.602Z</time></trkpt><trkpt lat="43.1960888" lon="-8.483081"><ele>408.0</ele><time>2026-04-05T09:28:56.603Z</time></trkpt><trkpt lat="43.1958965" lon="-8.4829651"><ele>407.0</ele><time>2026-04-05T09:28:57.603Z</time></trkpt><trkpt lat="43.1957282" lon="-8.4828124"><ele>404.3333333333333</ele><time>2026-04-05T09:28:58.603Z</time></trkpt><trkpt lat="43.1955781" lon="-8.4826339"><ele>401.66666666666663</ele><time>2026-04-05T09:28:59.603Z</time></trkpt><trkpt lat="43.1954525" lon="-8.4824398"><ele>399.0</ele><time>2026-04-05T09:29:00.603Z</time></trkpt><trkpt lat="43.1953391" lon="-8.4822454"><ele>399.33333333333337</ele><time>2026-04-05T09:29:01.602Z</time></trkpt><trkpt lat="43.1952271" lon="-8.4820675"><ele>399.6666666666667</ele><time>2026-04-05T09:29:02.603Z</time></trkpt><trkpt lat="43.1950998" lon="-8.4819305"><ele>400.0</ele><time>2026-04-05T09:29:03.603Z</time></trkpt><trkpt lat="43.1949524" lon="-8.4818241"><ele>398.6666666666667</ele><time>2026-04-05T09:29:04.603Z</time></trkpt><trkpt lat="43.1947862" lon="-8.481743"><ele>397.33333333333337</ele><time>2026-04-05T09:29:05.603Z</time></trkpt><trkpt lat="43.1946223" lon="-8.4816578"><ele>396.0</ele><time>2026-04-05T09:29:06.603Z</time></trkpt><trkpt lat="43.1944719" lon="-8.4815729"><ele>396.0</ele><time>2026-04-05T09:29:07.603Z</time></trkpt><trkpt lat="43.1943489" lon="-8.4814539"><ele>396.0</ele><time>2026-04-05T09:29:08.602Z</time></trkpt><trkpt lat="43.1942613" lon="-8.4812986"><ele>396.0</ele><time>2026-04-05T09:29:09.603Z</time></trkpt><trkpt lat="43.1942068" lon="-8.4811169"><ele>396.0</ele><time>2026-04-05T09:29:10.603Z</time></trkpt><trkpt lat="43.1941575" lon="-8.4809188"><ele>395.0</ele><time>2026-04-05T09:29:11.603Z</time></trkpt><trkpt lat="43.1941304" lon="-8.4806925"><ele>394.0</ele><time>2026-04-05T09:29:12.602Z</time></trkpt><trkpt lat="43.1940968" lon="-8.4804632"><ele>393.0</ele><time>2026-04-05T09:29:13.603Z</time></trkpt><trkpt lat="43.1940401" lon="-8.4802355"><ele>392.33333333333337</ele><time>2026-04-05T09:29:14.602Z</time></trkpt><trkpt lat="43.1939565" lon="-8.4800164"><ele>391.6666666666667</ele><time>2026-04-05T09:29:15.602Z</time></trkpt><trkpt lat="43.1938551" lon="-8.4797981"><ele>391.0</ele><time>2026-04-05T09:29:16.603Z</time></trkpt><trkpt lat="43.1937481" lon="-8.4795762"><ele>390.33333333333337</ele><time>2026-04-05T09:29:17.603Z</time></trkpt><trkpt lat="43.1936264" lon="-8.4793738"><ele>389.66666666666663</ele><time>2026-04-05T09:29:18.603Z</time></trkpt><trkpt lat="43.1934941" lon="-8.4792042"><ele>389.0</ele><time>2026-04-05T09:29:19.603Z</time></trkpt><trkpt lat="43.1933275" lon="-8.4790857"><ele>390.66666666666663</ele><time>2026-04-05T09:29:20.603Z</time></trkpt><trkpt lat="43.1931352" lon="-8.4789907"><ele>392.33333333333337</ele><time>2026-04-05T09:29:21.603Z</time></trkpt><trkpt lat="43.1929229" lon="-8.4789051"><ele>394.0</ele><time>2026-04-05T09:29:22.602Z</time></trkpt><trkpt lat="43.192691" lon="-8.47883"><ele>394.0</ele><time>2026-04-05T09:29:23.602Z</time></trkpt><trkpt lat="43.1924647" lon="-8.4787503"><ele>394.0</ele><time>2026-04-05T09:29:24.603Z</time></trkpt><trkpt lat="43.1922383" lon="-8.4786712"><ele>393.33333333333337</ele><time>2026-04-05T09:29:25.603Z</time></trkpt><trkpt lat="43.1920206" lon="-8.4786032"><ele>392.66666666666663</ele><time>2026-04-05T09:29:26.603Z</time></trkpt><trkpt lat="43.1918157" lon="-8.4785589"><ele>392.0</ele><time>2026-04-05T09:29:27.602Z</time></trkpt><trkpt lat="43.1916206" lon="-8.4785438"><ele>391.3333333333333</ele><time>2026-04-05T09:29:28.603Z</time></trkpt><trkpt lat="43.1914238" lon="-8.4785603"><ele>390.66666666666663</ele><time>2026-04-05T09:29:29.602Z</time></trkpt><trkpt lat="43.1912224" lon="-8.4786038"><ele>390.0</ele><time>2026-04-05T09:29:30.603Z</time></trkpt><trkpt lat="43.1910173" lon="-8.4786728"><ele>390.0</ele><time>2026-04-05T09:29:31.603Z</time></trkpt><trkpt lat="43.1908217" lon="-8.4787536"><ele>390.0</ele><time>2026-04-05T09:29:32.602Z</time></trkpt><trkpt lat="43.1906387" lon="-8.4788321"><ele>390.0</ele><time>2026-04-05T09:29:33.602Z</time></trkpt><trkpt lat="43.1904646" lon="-8.4789072"><ele>387.6666666666667</ele><time>2026-04-05T09:29:34.603Z</time></trkpt><trkpt lat="43.1903001" lon="-8.4789598"><ele>385.33333333333337</ele><time>2026-04-05T09:29:35.603Z</time></trkpt><trkpt lat="43.1901349" lon="-8.4789792"><ele>383.0</ele><time>2026-04-05T09:29:36.602Z</time></trkpt><trkpt lat="43.1899705" lon="-8.4789721"><ele>381.6666666666667</ele><time>2026-04-05T09:29:37.603Z</time></trkpt><trkpt lat="43.1898079" lon="-8.478951"><ele>380.3333333333333</ele><time>2026-04-05T09:29:38.603Z</time></trkpt><trkpt lat="43.1896552" lon="-8.478937"><ele>379.0</ele><time>2026-04-05T09:29:39.603Z</time></trkpt><trkpt lat="43.189504" lon="-8.4789195"><ele>379.0</ele><time>2026-04-05T09:29:40.602Z</time></trkpt><trkpt lat="43.1893578" lon="-8.4789029"><ele>379.0</ele><time>2026-04-05T09:29:41.603Z</time></trkpt><trkpt lat="43.1892173" lon="-8.4788787"><ele>379.0</ele><time>2026-04-05T09:29:42.603Z</time></trkpt><trkpt lat="43.1890842" lon="-8.4788561"><ele>379.0</ele><time>2026-04-05T09:29:43.603Z</time></trkpt><trkpt lat="43.1889514" lon="-8.4788558"><ele>378.0</ele><time>2026-04-05T09:29:44.603Z</time></trkpt><trkpt lat="43.1888161" lon="-8.4788715"><ele>377.0</ele><time>2026-04-05T09:29:45.603Z</time></trkpt><trkpt lat="43.1886726" lon="-8.4788925"><ele>376.0</ele><time>2026-04-05T09:29:46.602Z</time></trkpt><trkpt lat="43.1885295" lon="-8.4789082"><ele>375.0</ele><time>2026-04-05T09:29:47.602Z</time></trkpt><trkpt lat="43.1883979" lon="-8.4788426"><ele>375.6</ele><time>2026-04-05T09:29:48.603Z</time></trkpt><trkpt lat="43.1882789" lon="-8.4787652"><ele>376.2</ele><time>2026-04-05T09:29:49.603Z</time></trkpt><trkpt lat="43.1881765" lon="-8.478688"><ele>376.79999999999995</ele><time>2026-04-05T09:29:50.603Z</time></trkpt><trkpt lat="43.1880919" lon="-8.4786192"><ele>377.4</ele><time>2026-04-05T09:29:51.603Z</time></trkpt><trkpt lat="43.1880197" lon="-8.4785613"><ele>378.0</ele><time>2026-04-05T09:29:52.603Z</time></trkpt><trkpt lat="43.1879234" lon="-8.4785004"><ele>376.79999999999995</ele><time>2026-04-05T09:29:54.603Z</time></trkpt><trkpt lat="43.1878618" lon="-8.4785282"><ele>375.6</ele><time>2026-04-05T09:29:56.603Z</time></trkpt><trkpt lat="43.1878323" lon="-8.4786852"><ele>374.4</ele><time>2026-04-05T09:29:58.603Z</time></trkpt><trkpt lat="43.1878293" lon="-8.4788206"><ele>373.20000000000005</ele><time>2026-04-05T09:29:59.603Z</time></trkpt><trkpt lat="43.1878323" lon="-8.4789848"><ele>372.0</ele><time>2026-04-05T09:30:00.603Z</time></trkpt><trkpt lat="43.187833" lon="-8.4791731"><ele>371.6666666666667</ele><time>2026-04-05T09:30:01.603Z</time></trkpt><trkpt lat="43.1878297" lon="-8.4793812"><ele>371.33333333333337</ele><time>2026-04-05T09:30:02.603Z</time></trkpt><trkpt lat="43.1878305" lon="-8.4796103"><ele>371.0</ele><time>2026-04-05T09:30:03.603Z</time></trkpt><trkpt lat="43.1878336" lon="-8.4798526"><ele>370.6666666666667</ele><time>2026-04-05T09:30:04.603Z</time></trkpt><trkpt lat="43.187833" lon="-8.4801004"><ele>370.3333333333333</ele><time>2026-04-05T09:30:05.603Z</time></trkpt><trkpt lat="43.1878436" lon="-8.4803515"><ele>370.0</ele><time>2026-04-05T09:30:06.603Z</time></trkpt><trkpt lat="43.1878827" lon="-8.4806082"><ele>371.0</ele><time>2026-04-05T09:30:07.603Z</time></trkpt><trkpt lat="43.1879432" lon="-8.4808588"><ele>372.0</ele><time>2026-04-05T09:30:08.602Z</time></trkpt><trkpt lat="43.1880234" lon="-8.4810985"><ele>373.0</ele><time>2026-04-05T09:30:09.602Z</time></trkpt><trkpt lat="43.1881156" lon="-8.4813268"><ele>374.66666666666663</ele><time>2026-04-05T09:30:10.603Z</time></trkpt><trkpt lat="43.1881793" lon="-8.4815768"><ele>376.3333333333333</ele><time>2026-04-05T09:30:11.602Z</time></trkpt><trkpt lat="43.1882734" lon="-8.4818158"><ele>378.0</ele><time>2026-04-05T09:30:12.602Z</time></trkpt><trkpt lat="43.1883271" lon="-8.4820749"><ele>379.0</ele><time>2026-04-05T09:30:13.602Z</time></trkpt><trkpt lat="43.1883625" lon="-8.4823434"><ele>380.0</ele><time>2026-04-05T09:30:14.603Z</time></trkpt><trkpt lat="43.1883725" lon="-8.4826226"><ele>381.0</ele><time>2026-04-05T09:30:15.603Z</time></trkpt><trkpt lat="43.1883666" lon="-8.482899"><ele>381.0</ele><time>2026-04-05T09:30:16.602Z</time></trkpt><trkpt lat="43.1883543" lon="-8.483172"><ele>381.0</ele><time>2026-04-05T09:30:17.603Z</time></trkpt><trkpt lat="43.1883428" lon="-8.4834547"><ele>381.0</ele><time>2026-04-05T09:30:18.602Z</time></trkpt><trkpt lat="43.188328" lon="-8.4837459"><ele>382.0</ele><time>2026-04-05T09:30:19.603Z</time></trkpt><trkpt lat="43.1883159" lon="-8.4840391"><ele>383.0</ele><time>2026-04-05T09:30:20.603Z</time></trkpt><trkpt lat="43.1883049" lon="-8.4843363"><ele>384.0</ele><time>2026-04-05T09:30:21.602Z</time></trkpt><trkpt lat="43.1882866" lon="-8.4846396"><ele>386.0</ele><time>2026-04-05T09:30:22.603Z</time></trkpt><trkpt lat="43.1882688" lon="-8.4849475"><ele>388.0</ele><time>2026-04-05T09:30:23.603Z</time></trkpt><trkpt lat="43.1882533" lon="-8.4852598"><ele>388.0</ele><time>2026-04-05T09:30:24.603Z</time></trkpt><trkpt lat="43.1882368" lon="-8.4855791"><ele>388.0</ele><time>2026-04-05T09:30:25.602Z</time></trkpt><trkpt lat="43.1882224" lon="-8.4859014"><ele>388.0</ele><time>2026-04-05T09:30:26.603Z</time></trkpt><trkpt lat="43.1882049" lon="-8.4862391"><ele>388.0</ele><time>2026-04-05T09:30:27.602Z</time></trkpt><trkpt lat="43.1881835" lon="-8.4865868"><ele>387.5</ele><time>2026-04-05T09:30:28.602Z</time></trkpt><trkpt lat="43.1881686" lon="-8.48694"><ele>387.0</ele><time>2026-04-05T09:30:29.603Z</time></trkpt><trkpt lat="43.1881506" lon="-8.4872951"><ele>387.0</ele><time>2026-04-05T09:30:30.603Z</time></trkpt><trkpt lat="43.1881315" lon="-8.4876423"><ele>387.0</ele><time>2026-04-05T09:30:31.603Z</time></trkpt><trkpt lat="43.1881034" lon="-8.4879761"><ele>387.0</ele><time>2026-04-05T09:30:32.603Z</time></trkpt><trkpt lat="43.1880499" lon="-8.4882971"><ele>387.0</ele><time>2026-04-05T09:30:33.603Z</time></trkpt><trkpt lat="43.1879697" lon="-8.4886036"><ele>386.5</ele><time>2026-04-05T09:30:34.602Z</time></trkpt><trkpt lat="43.1878596" lon="-8.4888871"><ele>386.0</ele><time>2026-04-05T09:30:35.603Z</time></trkpt><trkpt lat="43.1877218" lon="-8.4891483"><ele>386.0</ele><time>2026-04-05T09:30:36.602Z</time></trkpt><trkpt lat="43.1875662" lon="-8.4893757"><ele>386.0</ele><time>2026-04-05T09:30:37.603Z</time></trkpt><trkpt lat="43.1873607" lon="-8.4895545"><ele>390.0</ele><time>2026-04-05T09:30:38.603Z</time></trkpt><trkpt lat="43.1871355" lon="-8.4896932"><ele>394.0</ele><time>2026-04-05T09:30:39.603Z</time></trkpt><trkpt lat="43.1868979" lon="-8.4897846"><ele>394.0</ele><time>2026-04-05T09:30:40.602Z</time></trkpt><trkpt lat="43.1866477" lon="-8.4898294"><ele>394.0</ele><time>2026-04-05T09:30:41.602Z</time></trkpt><trkpt lat="43.1863924" lon="-8.4898429"><ele>401.5</ele><time>2026-04-05T09:30:42.602Z</time></trkpt><trkpt lat="43.1861369" lon="-8.4898404"><ele>409.0</ele><time>2026-04-05T09:30:43.603Z</time></trkpt><trkpt lat="43.185887" lon="-8.4898559"><ele>409.5</ele><time>2026-04-05T09:30:44.603Z</time></trkpt><trkpt lat="43.1856458" lon="-8.4899093"><ele>410.0</ele><time>2026-04-05T09:30:45.603Z</time></trkpt><trkpt lat="43.1854152" lon="-8.4899981"><ele>410.0</ele><time>2026-04-05T09:30:46.603Z</time></trkpt><trkpt lat="43.1852" lon="-8.4901387"><ele>410.0</ele><time>2026-04-05T09:30:47.603Z</time></trkpt><trkpt lat="43.1849994" lon="-8.4903297"><ele>410.5</ele><time>2026-04-05T09:30:48.603Z</time></trkpt><trkpt lat="43.1848011" lon="-8.4905502"><ele>411.0</ele><time>2026-04-05T09:30:49.603Z</time></trkpt><trkpt lat="43.1845958" lon="-8.4907899"><ele>411.0</ele><time>2026-04-05T09:30:50.603Z</time></trkpt><trkpt lat="43.1843781" lon="-8.4910369"><ele>411.0</ele><time>2026-04-05T09:30:51.603Z</time></trkpt><trkpt lat="43.1841513" lon="-8.4912922"><ele>415.0</ele><time>2026-04-05T09:30:52.602Z</time></trkpt><trkpt lat="43.1839264" lon="-8.4915452"><ele>419.0</ele><time>2026-04-05T09:30:53.603Z</time></trkpt><trkpt lat="43.1837133" lon="-8.4917842"><ele>419.0</ele><time>2026-04-05T09:30:54.603Z</time></trkpt><trkpt lat="43.1835061" lon="-8.4920137"><ele>419.0</ele><time>2026-04-05T09:30:55.602Z</time></trkpt><trkpt lat="43.1833101" lon="-8.4922384"><ele>420.5</ele><time>2026-04-05T09:30:56.603Z</time></trkpt><trkpt lat="43.1831186" lon="-8.4924662"><ele>422.0</ele><time>2026-04-05T09:30:57.602Z</time></trkpt><trkpt lat="43.1829274" lon="-8.492687"><ele>422.0</ele><time>2026-04-05T09:30:58.602Z</time></trkpt><trkpt lat="43.1827409" lon="-8.4929079"><ele>422.0</ele><time>2026-04-05T09:30:59.603Z</time></trkpt><trkpt lat="43.1825545" lon="-8.4931226"><ele>424.5</ele><time>2026-04-05T09:31:00.603Z</time></trkpt><trkpt lat="43.1823703" lon="-8.4933416"><ele>427.0</ele><time>2026-04-05T09:31:01.603Z</time></trkpt><trkpt lat="43.1821833" lon="-8.493555"><ele>435.0</ele><time>2026-04-05T09:31:02.603Z</time></trkpt><trkpt lat="43.1819912" lon="-8.4937658"><ele>443.0</ele><time>2026-04-05T09:31:03.602Z</time></trkpt><trkpt lat="43.1817996" lon="-8.4939736"><ele>443.0</ele><time>2026-04-05T09:31:04.603Z</time></trkpt><trkpt lat="43.1816137" lon="-8.4941933"><ele>443.0</ele><time>2026-04-05T09:31:05.602Z</time></trkpt><trkpt lat="43.1814484" lon="-8.4944361"><ele>439.0</ele><time>2026-04-05T09:31:06.603Z</time></trkpt><trkpt lat="43.1813096" lon="-8.4947133"><ele>435.0</ele><time>2026-04-05T09:31:07.603Z</time></trkpt><trkpt lat="43.1811905" lon="-8.4950062"><ele>435.0</ele><time>2026-04-05T09:31:08.603Z</time></trkpt><trkpt lat="43.1810828" lon="-8.49531"><ele>435.0</ele><time>2026-04-05T09:31:09.602Z</time></trkpt><trkpt lat="43.1809796" lon="-8.4956216"><ele>437.5</ele><time>2026-04-05T09:31:10.603Z</time></trkpt><trkpt lat="43.1808632" lon="-8.4959269"><ele>440.0</ele><time>2026-04-05T09:31:11.603Z</time></trkpt><trkpt lat="43.180723" lon="-8.4962092"><ele>438.5</ele><time>2026-04-05T09:31:12.603Z</time></trkpt><trkpt lat="43.1805627" lon="-8.4964641"><ele>437.0</ele><time>2026-04-05T09:31:13.603Z</time></trkpt><trkpt lat="43.1803874" lon="-8.4967009"><ele>437.0</ele><time>2026-04-05T09:31:14.603Z</time></trkpt><trkpt lat="43.1802115" lon="-8.4969393"><ele>437.0</ele><time>2026-04-05T09:31:15.603Z</time></trkpt><trkpt lat="43.1800486" lon="-8.4971759"><ele>437.0</ele><time>2026-04-05T09:31:16.602Z</time></trkpt><trkpt lat="43.1799037" lon="-8.4974271"><ele>437.0</ele><time>2026-04-05T09:31:17.602Z</time></trkpt><trkpt lat="43.1797904" lon="-8.4976899"><ele>439.3333333333333</ele><time>2026-04-05T09:31:18.603Z</time></trkpt><trkpt lat="43.1797099" lon="-8.4979686"><ele>441.66666666666663</ele><time>2026-04-05T09:31:19.602Z</time></trkpt><trkpt lat="43.1796612" lon="-8.4982597"><ele>444.0</ele><time>2026-04-05T09:31:20.603Z</time></trkpt><trkpt lat="43.1796446" lon="-8.4985639"><ele>444.0</ele><time>2026-04-05T09:31:21.603Z</time></trkpt><trkpt lat="43.1796521" lon="-8.4988824"><ele>444.0</ele><time>2026-04-05T09:31:22.603Z</time></trkpt><trkpt lat="43.1796673" lon="-8.4992109"><ele>444.0</ele><time>2026-04-05T09:31:23.603Z</time></trkpt><trkpt lat="43.1796869" lon="-8.4995538"><ele>444.0</ele><time>2026-04-05T09:31:24.602Z</time></trkpt><trkpt lat="43.1796989" lon="-8.4999031"><ele>444.5</ele><time>2026-04-05T09:31:25.603Z</time></trkpt><trkpt lat="43.1796856" lon="-8.5002524"><ele>445.0</ele><time>2026-04-05T09:31:26.603Z</time></trkpt><trkpt lat="43.1796389" lon="-8.5005992"><ele>445.0</ele><time>2026-04-05T09:31:27.603Z</time></trkpt><trkpt lat="43.1795856" lon="-8.5009154"><ele>445.0</ele><time>2026-04-05T09:31:28.602Z</time></trkpt><trkpt lat="43.1795126" lon="-8.5011995"><ele>451.5</ele><time>2026-04-05T09:31:29.603Z</time></trkpt><trkpt lat="43.1794076" lon="-8.5014774"><ele>458.0</ele><time>2026-04-05T09:31:30.602Z</time></trkpt><trkpt lat="43.1791177" lon="-8.5016433"><ele>455.0</ele><time>2026-04-05T09:31:31.603Z</time></trkpt><trkpt lat="43.1788776" lon="-8.501796"><ele>452.0</ele><time>2026-04-05T09:31:32.602Z</time></trkpt><trkpt lat="43.1786325" lon="-8.5018998"><ele>452.0</ele><time>2026-04-05T09:31:33.603Z</time></trkpt><trkpt lat="43.178371" lon="-8.5019742"><ele>452.0</ele><time>2026-04-05T09:31:34.603Z</time></trkpt><trkpt lat="43.1781002" lon="-8.502017"><ele>458.5</ele><time>2026-04-05T09:31:35.603Z</time></trkpt><trkpt lat="43.1778556" lon="-8.5020971"><ele>465.0</ele><time>2026-04-05T09:31:36.602Z</time></trkpt><trkpt lat="43.1776184" lon="-8.5021476"><ele>465.0</ele><time>2026-04-05T09:31:37.602Z</time></trkpt><trkpt lat="43.1773869" lon="-8.502207"><ele>465.0</ele><time>2026-04-05T09:31:38.602Z</time></trkpt><trkpt lat="43.1771385" lon="-8.5022752"><ele>464.33333333333337</ele><time>2026-04-05T09:31:39.603Z</time></trkpt><trkpt lat="43.1769472" lon="-8.5023905"><ele>463.6666666666667</ele><time>2026-04-05T09:31:40.603Z</time></trkpt><trkpt lat="43.1767569" lon="-8.502542"><ele>463.0</ele><time>2026-04-05T09:31:41.603Z</time></trkpt><trkpt lat="43.1765838" lon="-8.5027285"><ele>463.6666666666667</ele><time>2026-04-05T09:31:42.602Z</time></trkpt><trkpt lat="43.1764247" lon="-8.5029385"><ele>464.33333333333337</ele><time>2026-04-05T09:31:43.603Z</time></trkpt><trkpt lat="43.1762718" lon="-8.5031612"><ele>465.0</ele><time>2026-04-05T09:31:44.603Z</time></trkpt><trkpt lat="43.1761198" lon="-8.5033873"><ele>465.0</ele><time>2026-04-05T09:31:45.602Z</time></trkpt><trkpt lat="43.175971" lon="-8.5036117"><ele>465.0</ele><time>2026-04-05T09:31:46.603Z</time></trkpt><trkpt lat="43.1758155" lon="-8.5038347"><ele>465.0</ele><time>2026-04-05T09:31:47.603Z</time></trkpt><trkpt lat="43.1756619" lon="-8.5040558"><ele>464.0</ele><time>2026-04-05T09:31:48.602Z</time></trkpt><trkpt lat="43.175509" lon="-8.5042793"><ele>463.0</ele><time>2026-04-05T09:31:49.602Z</time></trkpt><trkpt lat="43.1753518" lon="-8.5045113"><ele>462.5</ele><time>2026-04-05T09:31:50.603Z</time></trkpt><trkpt lat="43.1751897" lon="-8.5047468"><ele>462.0</ele><time>2026-04-05T09:31:51.603Z</time></trkpt><trkpt lat="43.1750233" lon="-8.5049847"><ele>462.0</ele><time>2026-04-05T09:31:52.602Z</time></trkpt><trkpt lat="43.1748596" lon="-8.5052288"><ele>462.0</ele><time>2026-04-05T09:31:53.603Z</time></trkpt><trkpt lat="43.174689" lon="-8.505471"><ele>459.0</ele><time>2026-04-05T09:31:54.602Z</time></trkpt><trkpt lat="43.1745209" lon="-8.5057159"><ele>456.0</ele><time>2026-04-05T09:31:55.603Z</time></trkpt><trkpt lat="43.1743476" lon="-8.5059552"><ele>456.0</ele><time>2026-04-05T09:31:56.602Z</time></trkpt><trkpt lat="43.1741809" lon="-8.5061929"><ele>456.0</ele><time>2026-04-05T09:31:57.603Z</time></trkpt><trkpt lat="43.1740112" lon="-8.5064341"><ele>454.0</ele><time>2026-04-05T09:31:58.603Z</time></trkpt><trkpt lat="43.1738389" lon="-8.5066708"><ele>452.0</ele><time>2026-04-05T09:31:59.603Z</time></trkpt><trkpt lat="43.1736759" lon="-8.5069078"><ele>450.0</ele><time>2026-04-05T09:32:00.603Z</time></trkpt><trkpt lat="43.173512" lon="-8.5071428"><ele>448.0</ele><time>2026-04-05T09:32:01.603Z</time></trkpt><trkpt lat="43.173355" lon="-8.5073777"><ele>448.0</ele><time>2026-04-05T09:32:02.603Z</time></trkpt><trkpt lat="43.173205" lon="-8.5076004"><ele>448.0</ele><time>2026-04-05T09:32:03.603Z</time></trkpt><trkpt lat="43.1730575" lon="-8.5078194"><ele>448.0</ele><time>2026-04-05T09:32:04.602Z</time></trkpt><trkpt lat="43.1729098" lon="-8.5080344"><ele>447.0</ele><time>2026-04-05T09:32:05.602Z</time></trkpt><trkpt lat="43.1728023" lon="-8.5082448"><ele>446.0</ele><time>2026-04-05T09:32:06.603Z</time></trkpt><trkpt lat="43.1726102" lon="-8.5084608"><ele>445.0</ele><time>2026-04-05T09:32:07.602Z</time></trkpt><trkpt lat="43.172468" lon="-8.5086765"><ele>441.6666666666667</ele><time>2026-04-05T09:32:08.602Z</time></trkpt><trkpt lat="43.1723253" lon="-8.5088935"><ele>438.33333333333337</ele><time>2026-04-05T09:32:09.603Z</time></trkpt><trkpt lat="43.1721795" lon="-8.5091012"><ele>435.0</ele><time>2026-04-05T09:32:10.603Z</time></trkpt><trkpt lat="43.1720219" lon="-8.5092955"><ele>435.0</ele><time>2026-04-05T09:32:11.603Z</time></trkpt><trkpt lat="43.1718505" lon="-8.5094595"><ele>435.0</ele><time>2026-04-05T09:32:12.603Z</time></trkpt><trkpt lat="43.171658" lon="-8.5095837"><ele>435.0</ele><time>2026-04-05T09:32:13.603Z</time></trkpt><trkpt lat="43.1714547" lon="-8.5096909"><ele>436.33333333333337</ele><time>2026-04-05T09:32:14.603Z</time></trkpt><trkpt lat="43.171243" lon="-8.5096974"><ele>437.6666666666667</ele><time>2026-04-05T09:32:15.602Z</time></trkpt><trkpt lat="43.1710138" lon="-8.5096523"><ele>439.0</ele><time>2026-04-05T09:32:16.603Z</time></trkpt><trkpt lat="43.1707962" lon="-8.5095665"><ele>442.5</ele><time>2026-04-05T09:32:17.603Z</time></trkpt><trkpt lat="43.1705765" lon="-8.5094739"><ele>446.0</ele><time>2026-04-05T09:32:18.602Z</time></trkpt><trkpt lat="43.1703594" lon="-8.5093657"><ele>446.0</ele><time>2026-04-05T09:32:19.603Z</time></trkpt><trkpt lat="43.1701536" lon="-8.5092267"><ele>446.0</ele><time>2026-04-05T09:32:20.603Z</time></trkpt><trkpt lat="43.1699275" lon="-8.5091527"><ele>447.0</ele><time>2026-04-05T09:32:21.603Z</time></trkpt><trkpt lat="43.1696953" lon="-8.5091414"><ele>448.0</ele><time>2026-04-05T09:32:22.603Z</time></trkpt><trkpt lat="43.1694585" lon="-8.5091865"><ele>448.0</ele><time>2026-04-05T09:32:23.603Z</time></trkpt><trkpt lat="43.1692322" lon="-8.5092887"><ele>448.0</ele><time>2026-04-05T09:32:24.602Z</time></trkpt><trkpt lat="43.1690212" lon="-8.5094531"><ele>446.0</ele><time>2026-04-05T09:32:25.602Z</time></trkpt><trkpt lat="43.1688486" lon="-8.5096745"><ele>444.0</ele><time>2026-04-05T09:32:26.603Z</time></trkpt><trkpt lat="43.1687069" lon="-8.5099493"><ele>444.0</ele><time>2026-04-05T09:32:27.603Z</time></trkpt><trkpt lat="43.1686082" lon="-8.5102583"><ele>444.0</ele><time>2026-04-05T09:32:28.602Z</time></trkpt><trkpt lat="43.1685447" lon="-8.5105926"><ele>443.5</ele><time>2026-04-05T09:32:29.602Z</time></trkpt><trkpt lat="43.1685007" lon="-8.5109389"><ele>443.0</ele><time>2026-04-05T09:32:30.603Z</time></trkpt><trkpt lat="43.1684652" lon="-8.5112886"><ele>448.0</ele><time>2026-04-05T09:32:31.603Z</time></trkpt><trkpt lat="43.1684177" lon="-8.5116333"><ele>453.0</ele><time>2026-04-05T09:32:32.603Z</time></trkpt><trkpt lat="43.1683407" lon="-8.5119643"><ele>457.0</ele><time>2026-04-05T09:32:33.603Z</time></trkpt><trkpt lat="43.1682352" lon="-8.5122681"><ele>461.0</ele><time>2026-04-05T09:32:34.603Z</time></trkpt><trkpt lat="43.1680954" lon="-8.5125507"><ele>461.0</ele><time>2026-04-05T09:32:35.603Z</time></trkpt><trkpt lat="43.1679494" lon="-8.5128176"><ele>461.0</ele><time>2026-04-05T09:32:36.603Z</time></trkpt><trkpt lat="43.1678109" lon="-8.5130741"><ele>465.0</ele><time>2026-04-05T09:32:37.603Z</time></trkpt><trkpt lat="43.1676737" lon="-8.5133291"><ele>469.0</ele><time>2026-04-05T09:32:38.602Z</time></trkpt><trkpt lat="43.1675424" lon="-8.513582"><ele>469.0</ele><time>2026-04-05T09:32:39.602Z</time></trkpt><trkpt lat="43.1674089" lon="-8.5138208"><ele>469.0</ele><time>2026-04-05T09:32:40.603Z</time></trkpt><trkpt lat="43.167274" lon="-8.5140668"><ele>469.0</ele><time>2026-04-05T09:32:41.602Z</time></trkpt><trkpt lat="43.1671394" lon="-8.5143119"><ele>469.0</ele><time>2026-04-05T09:32:42.603Z</time></trkpt><trkpt lat="43.1670005" lon="-8.5145581"><ele>469.0</ele><time>2026-04-05T09:32:43.603Z</time></trkpt><trkpt lat="43.166861" lon="-8.5148013"><ele>468.6666666666667</ele><time>2026-04-05T09:32:44.603Z</time></trkpt><trkpt lat="43.1667149" lon="-8.5150489"><ele>468.33333333333337</ele><time>2026-04-05T09:32:45.603Z</time></trkpt><trkpt lat="43.1665933" lon="-8.5152234"><ele>468.0</ele><time>2026-04-05T09:32:46.872Z</time></trkpt><trkpt lat="43.1663853" lon="-8.5154592"><ele>468.0</ele><time>2026-04-05T09:32:48.049Z</time></trkpt><trkpt lat="43.165969" lon="-8.5158337"><ele>468.0</ele><time>2026-04-05T09:32:49.599Z</time></trkpt><trkpt lat="43.1657721" lon="-8.5160185"><ele>468.0</ele><time>2026-04-05T09:32:50.604Z</time></trkpt><trkpt lat="43.1655912" lon="-8.5162357"><ele>472.0</ele><time>2026-04-05T09:32:51.604Z</time></trkpt><trkpt lat="43.1654179" lon="-8.5164722"><ele>476.0</ele><time>2026-04-05T09:32:52.593Z</time></trkpt><trkpt lat="43.1652671" lon="-8.5167382"><ele>476.0</ele><time>2026-04-05T09:32:53.595Z</time></trkpt><trkpt lat="43.1651393" lon="-8.5170212"><ele>476.0</ele><time>2026-04-05T09:32:54.595Z</time></trkpt><trkpt lat="43.1650348" lon="-8.5173239"><ele>481.0</ele><time>2026-04-05T09:32:55.595Z</time></trkpt><trkpt lat="43.1649624" lon="-8.5176391"><ele>486.0</ele><time>2026-04-05T09:32:56.595Z</time></trkpt><trkpt lat="43.1649204" lon="-8.5179625"><ele>486.0</ele><time>2026-04-05T09:32:57.595Z</time></trkpt><trkpt lat="43.1649056" lon="-8.5182876"><ele>486.0</ele><time>2026-04-05T09:32:58.595Z</time></trkpt><trkpt lat="43.1649015" lon="-8.5186052"><ele>486.5</ele><time>2026-04-05T09:32:59.595Z</time></trkpt><trkpt lat="43.1649005" lon="-8.5189237"><ele>487.0</ele><time>2026-04-05T09:33:00.595Z</time></trkpt><trkpt lat="43.164895" lon="-8.5192381"><ele>487.0</ele><time>2026-04-05T09:33:01.595Z</time></trkpt><trkpt lat="43.1648869" lon="-8.5195529"><ele>487.0</ele><time>2026-04-05T09:33:02.595Z</time></trkpt><trkpt lat="43.1648649" lon="-8.5198631"><ele>487.0</ele><time>2026-04-05T09:33:03.595Z</time></trkpt><trkpt lat="43.1648236" lon="-8.5201683"><ele>487.0</ele><time>2026-04-05T09:33:04.595Z</time></trkpt><trkpt lat="43.1647659" lon="-8.5204697"><ele>487.0</ele><time>2026-04-05T09:33:05.594Z</time></trkpt><trkpt lat="43.164688" lon="-8.5207627"><ele>487.0</ele><time>2026-04-05T09:33:06.595Z</time></trkpt><trkpt lat="43.1645904" lon="-8.5210496"><ele>490.5</ele><time>2026-04-05T09:33:07.595Z</time></trkpt><trkpt lat="43.1644895" lon="-8.5213274"><ele>494.0</ele><time>2026-04-05T09:33:08.595Z</time></trkpt><trkpt lat="43.1643551" lon="-8.521604"><ele>494.0</ele><time>2026-04-05T09:33:09.595Z</time></trkpt><trkpt lat="43.1642288" lon="-8.5218823"><ele>494.0</ele><time>2026-04-05T09:33:10.594Z</time></trkpt><trkpt lat="43.1641017" lon="-8.5221587"><ele>495.0</ele><time>2026-04-05T09:33:11.595Z</time></trkpt><trkpt lat="43.163973" lon="-8.522432"><ele>496.0</ele><time>2026-04-05T09:33:12.595Z</time></trkpt><trkpt lat="43.1638423" lon="-8.5227113"><ele>497.5</ele><time>2026-04-05T09:33:13.595Z</time></trkpt><trkpt lat="43.1637149" lon="-8.5229886"><ele>499.0</ele><time>2026-04-05T09:33:14.595Z</time></trkpt><trkpt lat="43.1635832" lon="-8.523271"><ele>499.0</ele><time>2026-04-05T09:33:15.595Z</time></trkpt><trkpt lat="43.1634527" lon="-8.5235507"><ele>499.0</ele><time>2026-04-05T09:33:16.595Z</time></trkpt><trkpt lat="43.1633213" lon="-8.5238215"><ele>498.6666666666667</ele><time>2026-04-05T09:33:17.595Z</time></trkpt><trkpt lat="43.163196" lon="-8.5240831"><ele>498.33333333333337</ele><time>2026-04-05T09:33:18.594Z</time></trkpt><trkpt lat="43.1630779" lon="-8.5243355"><ele>498.0</ele><time>2026-04-05T09:33:19.594Z</time></trkpt><trkpt lat="43.1629643" lon="-8.5245781"><ele>499.0</ele><time>2026-04-05T09:33:20.595Z</time></trkpt><trkpt lat="43.1628535" lon="-8.52481"><ele>500.0</ele><time>2026-04-05T09:33:21.594Z</time></trkpt><trkpt lat="43.1627458" lon="-8.5250326"><ele>501.0</ele><time>2026-04-05T09:33:22.594Z</time></trkpt><trkpt lat="43.1626438" lon="-8.525252"><ele>501.66666666666663</ele><time>2026-04-05T09:33:23.595Z</time></trkpt><trkpt lat="43.1625464" lon="-8.5254633"><ele>502.3333333333333</ele><time>2026-04-05T09:33:24.595Z</time></trkpt><trkpt lat="43.1624569" lon="-8.5256776"><ele>503.0</ele><time>2026-04-05T09:33:25.594Z</time></trkpt><trkpt lat="43.1623758" lon="-8.5258947"><ele>503.0</ele><time>2026-04-05T09:33:26.595Z</time></trkpt><trkpt lat="43.1623035" lon="-8.5261193"><ele>503.0</ele><time>2026-04-05T09:33:27.594Z</time></trkpt><trkpt lat="43.162243" lon="-8.5263561"><ele>503.0</ele><time>2026-04-05T09:33:28.595Z</time></trkpt><trkpt lat="43.1621944" lon="-8.5266013"><ele>502.66666666666663</ele><time>2026-04-05T09:33:29.595Z</time></trkpt><trkpt lat="43.1621598" lon="-8.5268562"><ele>502.33333333333337</ele><time>2026-04-05T09:33:30.595Z</time></trkpt><trkpt lat="43.1621358" lon="-8.527122"><ele>502.0</ele><time>2026-04-05T09:33:31.595Z</time></trkpt><trkpt lat="43.1621187" lon="-8.5273905"><ele>500.6666666666667</ele><time>2026-04-05T09:33:32.595Z</time></trkpt><trkpt lat="43.1621088" lon="-8.5276679"><ele>499.33333333333337</ele><time>2026-04-05T09:33:33.595Z</time></trkpt><trkpt lat="43.1620989" lon="-8.5279515"><ele>498.0</ele><time>2026-04-05T09:33:34.595Z</time></trkpt><trkpt lat="43.1620898" lon="-8.5282364"><ele>497.66666666666663</ele><time>2026-04-05T09:33:35.595Z</time></trkpt><trkpt lat="43.1620833" lon="-8.5285296"><ele>497.3333333333333</ele><time>2026-04-05T09:33:36.595Z</time></trkpt><trkpt lat="43.1620785" lon="-8.5288243"><ele>497.0</ele><time>2026-04-05T09:33:37.595Z</time></trkpt><trkpt lat="43.1620726" lon="-8.5291108"><ele>496.3333333333333</ele><time>2026-04-05T09:33:38.595Z</time></trkpt><trkpt lat="43.1620703" lon="-8.5293926"><ele>495.66666666666663</ele><time>2026-04-05T09:33:39.595Z</time></trkpt><trkpt lat="43.1620706" lon="-8.529677"><ele>495.0</ele><time>2026-04-05T09:33:40.594Z</time></trkpt><trkpt lat="43.1620779" lon="-8.5299599"><ele>494.0</ele><time>2026-04-05T09:33:41.595Z</time></trkpt><trkpt lat="43.1621031" lon="-8.5302425"><ele>493.0</ele><time>2026-04-05T09:33:42.595Z</time></trkpt><trkpt lat="43.162144" lon="-8.5305227"><ele>492.0</ele><time>2026-04-05T09:33:43.594Z</time></trkpt><trkpt lat="43.1621977" lon="-8.5307966"><ele>491.66666666666663</ele><time>2026-04-05T09:33:44.594Z</time></trkpt><trkpt lat="43.1622664" lon="-8.5310696"><ele>491.3333333333333</ele><time>2026-04-05T09:33:45.595Z</time></trkpt><trkpt lat="43.1623483" lon="-8.5313376"><ele>491.0</ele><time>2026-04-05T09:33:46.595Z</time></trkpt><trkpt lat="43.1624321" lon="-8.5316122"><ele>491.0</ele><time>2026-04-05T09:33:47.595Z</time></trkpt><trkpt lat="43.162517" lon="-8.5318784"><ele>491.0</ele><time>2026-04-05T09:33:48.595Z</time></trkpt><trkpt lat="43.162601" lon="-8.532146"><ele>491.0</ele><time>2026-04-05T09:33:49.594Z</time></trkpt><trkpt lat="43.1626769" lon="-8.5324198"><ele>491.66666666666663</ele><time>2026-04-05T09:33:50.594Z</time></trkpt><trkpt lat="43.1627414" lon="-8.5326984"><ele>492.33333333333337</ele><time>2026-04-05T09:33:51.594Z</time></trkpt><trkpt lat="43.162788" lon="-8.5329824"><ele>493.0</ele><time>2026-04-05T09:33:52.594Z</time></trkpt><trkpt lat="43.1628201" lon="-8.5332685"><ele>494.0</ele><time>2026-04-05T09:33:53.595Z</time></trkpt><trkpt lat="43.1628369" lon="-8.5335593"><ele>495.0</ele><time>2026-04-05T09:33:54.595Z</time></trkpt><trkpt lat="43.1628435" lon="-8.5338521"><ele>496.0</ele><time>2026-04-05T09:33:55.594Z</time></trkpt><trkpt lat="43.1628522" lon="-8.5341511"><ele>496.0</ele><time>2026-04-05T09:33:56.595Z</time></trkpt><trkpt lat="43.1628648" lon="-8.5344502"><ele>496.0</ele><time>2026-04-05T09:33:57.595Z</time></trkpt><trkpt lat="43.1628738" lon="-8.5347479"><ele>496.0</ele><time>2026-04-05T09:33:58.594Z</time></trkpt><trkpt lat="43.1628807" lon="-8.5350415"><ele>494.0</ele><time>2026-04-05T09:33:59.595Z</time></trkpt><trkpt lat="43.1628907" lon="-8.5353571"><ele>492.0</ele><time>2026-04-05T09:34:00.595Z</time></trkpt><trkpt lat="43.1628929" lon="-8.5356657"><ele>491.0</ele><time>2026-04-05T09:34:01.595Z</time></trkpt><trkpt lat="43.1629029" lon="-8.5359734"><ele>490.0</ele><time>2026-04-05T09:34:02.595Z</time></trkpt><trkpt lat="43.1629067" lon="-8.5362795"><ele>489.0</ele><time>2026-04-05T09:34:03.595Z</time></trkpt><trkpt lat="43.1629088" lon="-8.5365807"><ele>487.66666666666663</ele><time>2026-04-05T09:34:04.595Z</time></trkpt><trkpt lat="43.1629119" lon="-8.5368827"><ele>486.3333333333333</ele><time>2026-04-05T09:34:05.595Z</time></trkpt><trkpt lat="43.1629226" lon="-8.537184"><ele>485.0</ele><time>2026-04-05T09:34:06.594Z</time></trkpt><trkpt lat="43.1629349" lon="-8.5374865"><ele>482.3333333333333</ele><time>2026-04-05T09:34:07.595Z</time></trkpt><trkpt lat="43.1629423" lon="-8.5377922"><ele>479.66666666666663</ele><time>2026-04-05T09:34:08.595Z</time></trkpt><trkpt lat="43.1629484" lon="-8.5380965"><ele>477.0</ele><time>2026-04-05T09:34:09.595Z</time></trkpt><trkpt lat="43.1629483" lon="-8.5384056"><ele>473.0</ele><time>2026-04-05T09:34:10.595Z</time></trkpt><trkpt lat="43.1629334" lon="-8.5387164"><ele>469.0</ele><time>2026-04-05T09:34:11.594Z</time></trkpt><trkpt lat="43.1629017" lon="-8.5390296"><ele>466.0</ele><time>2026-04-05T09:34:12.594Z</time></trkpt><trkpt lat="43.1628581" lon="-8.539342"><ele>463.0</ele><time>2026-04-05T09:34:13.594Z</time></trkpt><trkpt lat="43.1627813" lon="-8.5396485"><ele>461.5</ele><time>2026-04-05T09:34:14.594Z</time></trkpt><trkpt lat="43.1626888" lon="-8.539942"><ele>460.0</ele><time>2026-04-05T09:34:15.595Z</time></trkpt><trkpt lat="43.1625709" lon="-8.5402276"><ele>456.5</ele><time>2026-04-05T09:34:16.595Z</time></trkpt><trkpt lat="43.1624314" lon="-8.5404944"><ele>453.0</ele><time>2026-04-05T09:34:17.595Z</time></trkpt><trkpt lat="43.1622689" lon="-8.5407464"><ele>452.5</ele><time>2026-04-05T09:34:18.595Z</time></trkpt><trkpt lat="43.1620952" lon="-8.5409802"><ele>452.0</ele><time>2026-04-05T09:34:19.595Z</time></trkpt><trkpt lat="43.16192" lon="-8.5412084"><ele>447.5</ele><time>2026-04-05T09:34:20.595Z</time></trkpt><trkpt lat="43.1617367" lon="-8.5414458"><ele>443.0</ele><time>2026-04-05T09:34:21.594Z</time></trkpt><trkpt lat="43.1615677" lon="-8.5416877"><ele>442.0</ele><time>2026-04-05T09:34:22.595Z</time></trkpt><trkpt lat="43.1614231" lon="-8.5419405"><ele>441.0</ele><time>2026-04-05T09:34:23.595Z</time></trkpt><trkpt lat="43.1612953" lon="-8.5422044"><ele>438.0</ele><time>2026-04-05T09:34:24.595Z</time></trkpt><trkpt lat="43.161183" lon="-8.5424821"><ele>435.0</ele><time>2026-04-05T09:34:25.595Z</time></trkpt><trkpt lat="43.1610945" lon="-8.542767"><ele>433.5</ele><time>2026-04-05T09:34:26.595Z</time></trkpt><trkpt lat="43.1609979" lon="-8.5430517"><ele>432.0</ele><time>2026-04-05T09:34:27.594Z</time></trkpt><trkpt lat="43.1609533" lon="-8.5433538"><ele>432.0</ele><time>2026-04-05T09:34:28.595Z</time></trkpt><trkpt lat="43.1608958" lon="-8.5436501"><ele>432.0</ele><time>2026-04-05T09:34:29.595Z</time></trkpt><trkpt lat="43.1608412" lon="-8.5439528"><ele>432.5</ele><time>2026-04-05T09:34:30.594Z</time></trkpt><trkpt lat="43.1607881" lon="-8.5442588"><ele>433.0</ele><time>2026-04-05T09:34:31.595Z</time></trkpt><trkpt lat="43.1607293" lon="-8.5445632"><ele>433.6666666666667</ele><time>2026-04-05T09:34:32.595Z</time></trkpt><trkpt lat="43.160673" lon="-8.5448615"><ele>434.33333333333337</ele><time>2026-04-05T09:34:33.595Z</time></trkpt><trkpt lat="43.1606208" lon="-8.5451585"><ele>435.0</ele><time>2026-04-05T09:34:34.595Z</time></trkpt><trkpt lat="43.1605663" lon="-8.545453"><ele>436.0</ele><time>2026-04-05T09:34:35.594Z</time></trkpt><trkpt lat="43.1605176" lon="-8.5457442"><ele>437.0</ele><time>2026-04-05T09:34:36.594Z</time></trkpt><trkpt lat="43.160469" lon="-8.5460341"><ele>438.0</ele><time>2026-04-05T09:34:37.595Z</time></trkpt><trkpt lat="43.1604217" lon="-8.5463177"><ele>438.66666666666663</ele><time>2026-04-05T09:34:38.595Z</time></trkpt><trkpt lat="43.1603739" lon="-8.5465992"><ele>439.3333333333333</ele><time>2026-04-05T09:34:39.595Z</time></trkpt><trkpt lat="43.1603234" lon="-8.5468782"><ele>440.0</ele><time>2026-04-05T09:34:40.595Z</time></trkpt><trkpt lat="43.1602743" lon="-8.5471553"><ele>440.3333333333333</ele><time>2026-04-05T09:34:41.595Z</time></trkpt><trkpt lat="43.1602311" lon="-8.5474303"><ele>440.66666666666663</ele><time>2026-04-05T09:34:42.594Z</time></trkpt><trkpt lat="43.1601829" lon="-8.5476974"><ele>441.0</ele><time>2026-04-05T09:34:43.595Z</time></trkpt><trkpt lat="43.1601306" lon="-8.547963"><ele>441.33333333333337</ele><time>2026-04-05T09:34:44.595Z</time></trkpt><trkpt lat="43.1600834" lon="-8.5482255"><ele>441.6666666666667</ele><time>2026-04-05T09:34:45.595Z</time></trkpt><trkpt lat="43.1600373" lon="-8.5484887"><ele>442.0</ele><time>2026-04-05T09:34:46.595Z</time></trkpt><trkpt lat="43.1599935" lon="-8.5487446"><ele>442.0</ele><time>2026-04-05T09:34:47.595Z</time></trkpt><trkpt lat="43.1599512" lon="-8.5489959"><ele>442.0</ele><time>2026-04-05T09:34:48.595Z</time></trkpt><trkpt lat="43.159912" lon="-8.5492416"><ele>442.0</ele><time>2026-04-05T09:34:49.594Z</time></trkpt><trkpt lat="43.1598711" lon="-8.5494865"><ele>443.0</ele><time>2026-04-05T09:34:50.595Z</time></trkpt><trkpt lat="43.1598255" lon="-8.5497316"><ele>444.0</ele><time>2026-04-05T09:34:51.595Z</time></trkpt><trkpt lat="43.1597825" lon="-8.5499762"><ele>445.0</ele><time>2026-04-05T09:34:52.594Z</time></trkpt><trkpt lat="43.1597402" lon="-8.5502256"><ele>443.0</ele><time>2026-04-05T09:34:53.594Z</time></trkpt><trkpt lat="43.1596973" lon="-8.550476"><ele>441.0</ele><time>2026-04-05T09:34:54.595Z</time></trkpt><trkpt lat="43.1596578" lon="-8.5507251"><ele>439.0</ele><time>2026-04-05T09:34:55.594Z</time></trkpt><trkpt lat="43.1596153" lon="-8.5509737"><ele>438.0</ele><time>2026-04-05T09:34:56.595Z</time></trkpt><trkpt lat="43.1595754" lon="-8.5512225"><ele>437.0</ele><time>2026-04-05T09:34:57.594Z</time></trkpt><trkpt lat="43.1595337" lon="-8.5514712"><ele>436.0</ele><time>2026-04-05T09:34:58.595Z</time></trkpt><trkpt lat="43.1594905" lon="-8.5517199"><ele>436.0</ele><time>2026-04-05T09:34:59.595Z</time></trkpt><trkpt lat="43.1594468" lon="-8.5519696"><ele>436.0</ele><time>2026-04-05T09:35:00.594Z</time></trkpt><trkpt lat="43.1594053" lon="-8.552219"><ele>436.0</ele><time>2026-04-05T09:35:01.594Z</time></trkpt><trkpt lat="43.1593644" lon="-8.5524695"><ele>434.33333333333337</ele><time>2026-04-05T09:35:02.595Z</time></trkpt><trkpt lat="43.1593225" lon="-8.5527193"><ele>432.66666666666663</ele><time>2026-04-05T09:35:03.594Z</time></trkpt><trkpt lat="43.159283" lon="-8.5529637"><ele>431.0</ele><time>2026-04-05T09:35:04.595Z</time></trkpt><trkpt lat="43.159243" lon="-8.55321"><ele>430.0</ele><time>2026-04-05T09:35:05.595Z</time></trkpt><trkpt lat="43.1592031" lon="-8.5534557"><ele>429.0</ele><time>2026-04-05T09:35:06.595Z</time></trkpt><trkpt lat="43.159163" lon="-8.5537019"><ele>428.0</ele><time>2026-04-05T09:35:07.595Z</time></trkpt><trkpt lat="43.1591192" lon="-8.5539428"><ele>427.66666666666663</ele><time>2026-04-05T09:35:08.594Z</time></trkpt><trkpt lat="43.1590763" lon="-8.5541854"><ele>427.33333333333337</ele><time>2026-04-05T09:35:09.595Z</time></trkpt><trkpt lat="43.1590364" lon="-8.5544212"><ele>427.0</ele><time>2026-04-05T09:35:10.595Z</time></trkpt><trkpt lat="43.1589994" lon="-8.554646"><ele>427.0</ele><time>2026-04-05T09:35:11.595Z</time></trkpt><trkpt lat="43.1589707" lon="-8.5548681"><ele>427.0</ele><time>2026-04-05T09:35:12.595Z</time></trkpt><trkpt lat="43.1589614" lon="-8.5550886"><ele>427.0</ele><time>2026-04-05T09:35:13.594Z</time></trkpt><trkpt lat="43.1589831" lon="-8.5552992"><ele>426.0</ele><time>2026-04-05T09:35:14.595Z</time></trkpt><trkpt lat="43.1590336" lon="-8.5555033"><ele>425.0</ele><time>2026-04-05T09:35:15.594Z</time></trkpt><trkpt lat="43.1591021" lon="-8.5557018"><ele>424.0</ele><time>2026-04-05T09:35:16.595Z</time></trkpt><trkpt lat="43.1591728" lon="-8.5559053"><ele>424.0</ele><time>2026-04-05T09:35:17.595Z</time></trkpt><trkpt lat="43.159246" lon="-8.5561118"><ele>424.0</ele><time>2026-04-05T09:35:18.595Z</time></trkpt><trkpt lat="43.1593116" lon="-8.5563237"><ele>424.0</ele><time>2026-04-05T09:35:19.594Z</time></trkpt><trkpt lat="43.1593692" lon="-8.5565353"><ele>424.0</ele><time>2026-04-05T09:35:20.594Z</time></trkpt><trkpt lat="43.1594007" lon="-8.5567522"><ele>424.0</ele><time>2026-04-05T09:35:21.594Z</time></trkpt><trkpt lat="43.1594238" lon="-8.5569661"><ele>424.0</ele><time>2026-04-05T09:35:22.595Z</time></trkpt><trkpt lat="43.159438" lon="-8.5571798"><ele>423.5</ele><time>2026-04-05T09:35:23.594Z</time></trkpt><trkpt lat="43.1594501" lon="-8.5573781"><ele>423.0</ele><time>2026-04-05T09:35:24.595Z</time></trkpt><trkpt lat="43.1594562" lon="-8.5575721"><ele>422.5</ele><time>2026-04-05T09:35:25.594Z</time></trkpt><trkpt lat="43.1594521" lon="-8.5577527"><ele>422.0</ele><time>2026-04-05T09:35:26.595Z</time></trkpt><trkpt lat="43.1594514" lon="-8.5579269"><ele>421.8</ele><time>2026-04-05T09:35:27.594Z</time></trkpt><trkpt lat="43.1594331" lon="-8.5580717"><ele>421.6</ele><time>2026-04-05T09:35:28.594Z</time></trkpt><trkpt lat="43.1594223" lon="-8.5582147"><ele>421.40000000000003</ele><time>2026-04-05T09:35:29.595Z</time></trkpt><trkpt lat="43.1594038" lon="-8.5583537"><ele>421.20000000000005</ele><time>2026-04-05T09:35:30.594Z</time></trkpt><trkpt lat="43.1593919" lon="-8.5584837"><ele>421.0</ele><time>2026-04-05T09:35:31.594Z</time></trkpt><trkpt lat="43.1593777" lon="-8.5585975"><ele>421.00000000000006</ele><time>2026-04-05T09:35:32.594Z</time></trkpt><trkpt lat="43.1593665" lon="-8.5586999"><ele>421.0</ele><time>2026-04-05T09:35:33.594Z</time></trkpt><trkpt lat="43.159353" lon="-8.558802"><ele>421.0</ele><time>2026-04-05T09:35:34.595Z</time></trkpt><trkpt lat="43.1593406" lon="-8.558905"><ele>421.0</ele><time>2026-04-05T09:35:35.595Z</time></trkpt><trkpt lat="43.159329" lon="-8.5590011"><ele>421.00000000000006</ele><time>2026-04-05T09:35:36.595Z</time></trkpt><trkpt lat="43.1593216" lon="-8.559101"><ele>421.0</ele><time>2026-04-05T09:35:37.595Z</time></trkpt><trkpt lat="43.1593065" lon="-8.5592166"><ele>421.5</ele><time>2026-04-05T09:35:38.594Z</time></trkpt><trkpt lat="43.1592842" lon="-8.5593599"><ele>422.0</ele><time>2026-04-05T09:35:39.595Z</time></trkpt><trkpt lat="43.1592616" lon="-8.5595279"><ele>422.5</ele><time>2026-04-05T09:35:40.595Z</time></trkpt><trkpt lat="43.1592381" lon="-8.5597262"><ele>423.0</ele><time>2026-04-05T09:35:41.594Z</time></trkpt><trkpt lat="43.1592146" lon="-8.5599462"><ele>423.0</ele><time>2026-04-05T09:35:42.595Z</time></trkpt><trkpt lat="43.1591896" lon="-8.5601741"><ele>423.0</ele><time>2026-04-05T09:35:43.595Z</time></trkpt><trkpt lat="43.1591633" lon="-8.5604246"><ele>423.0</ele><time>2026-04-05T09:35:44.594Z</time></trkpt><trkpt lat="43.1591365" lon="-8.5606891"><ele>422.0</ele><time>2026-04-05T09:35:45.595Z</time></trkpt><trkpt lat="43.15911" lon="-8.5609623"><ele>421.0</ele><time>2026-04-05T09:35:46.595Z</time></trkpt><trkpt lat="43.1590814" lon="-8.5612359"><ele>420.0</ele><time>2026-04-05T09:35:47.594Z</time></trkpt><trkpt lat="43.1590535" lon="-8.5615039"><ele>417.66666666666663</ele><time>2026-04-05T09:35:48.595Z</time></trkpt><trkpt lat="43.1590302" lon="-8.561761"><ele>415.3333333333333</ele><time>2026-04-05T09:35:49.595Z</time></trkpt><trkpt lat="43.1590005" lon="-8.5620069"><ele>413.0</ele><time>2026-04-05T09:35:50.595Z</time></trkpt><trkpt lat="43.158957" lon="-8.562236"><ele>413.0</ele><time>2026-04-05T09:35:51.595Z</time></trkpt><trkpt lat="43.1588976" lon="-8.5624448"><ele>413.0</ele><time>2026-04-05T09:35:52.595Z</time></trkpt><trkpt lat="43.1588297" lon="-8.5626278"><ele>413.0</ele><time>2026-04-05T09:35:53.595Z</time></trkpt><trkpt lat="43.1587518" lon="-8.5628113"><ele>413.75</ele><time>2026-04-05T09:35:54.595Z</time></trkpt><trkpt lat="43.1586762" lon="-8.5629912"><ele>414.5</ele><time>2026-04-05T09:35:55.595Z</time></trkpt><trkpt lat="43.1586036" lon="-8.563165"><ele>415.25</ele><time>2026-04-05T09:35:56.595Z</time></trkpt><trkpt lat="43.1585314" lon="-8.5633368"><ele>416.0</ele><time>2026-04-05T09:35:57.595Z</time></trkpt><trkpt lat="43.1584626" lon="-8.5635114"><ele>416.0</ele><time>2026-04-05T09:35:58.595Z</time></trkpt><trkpt lat="43.1583936" lon="-8.5636772"><ele>416.0</ele><time>2026-04-05T09:35:59.595Z</time></trkpt><trkpt lat="43.1583278" lon="-8.5638374"><ele>416.0</ele><time>2026-04-05T09:36:00.595Z</time></trkpt><trkpt lat="43.1582669" lon="-8.563985"><ele>416.0</ele><time>2026-04-05T09:36:01.595Z</time></trkpt><trkpt lat="43.1582094" lon="-8.5641248"><ele>417.0</ele><time>2026-04-05T09:36:02.595Z</time></trkpt><trkpt lat="43.1581582" lon="-8.5642572"><ele>418.0</ele><time>2026-04-05T09:36:03.595Z</time></trkpt><trkpt lat="43.1581073" lon="-8.5643787"><ele>419.0</ele><time>2026-04-05T09:36:04.595Z</time></trkpt><trkpt lat="43.1580603" lon="-8.56449"><ele>420.0</ele><time>2026-04-05T09:36:05.595Z</time></trkpt><trkpt lat="43.1580171" lon="-8.5645937"><ele>421.0</ele><time>2026-04-05T09:36:06.594Z</time></trkpt><trkpt lat="43.1579811" lon="-8.5646911"><ele>423.0</ele><time>2026-04-05T09:36:07.594Z</time></trkpt><trkpt lat="43.1579544" lon="-8.5647739"><ele>423.0</ele><time>2026-04-05T09:36:08.595Z</time></trkpt><trkpt lat="43.1579325" lon="-8.5649092"><ele>423.0</ele><time>2026-04-05T09:36:10.595Z</time></trkpt></trkseg><trkseg><trkpt lat="43.157865" lon="-8.5649995"><ele>423.0</ele><time>2026-04-05T10:04:32.6Z</time></trkpt><trkpt lat="43.1578362" lon="-8.5651067"><ele>423.0</ele><time>2026-04-05T10:04:34.599Z</time></trkpt><trkpt lat="43.1578808" lon="-8.5652493"><ele>423.0</ele><time>2026-04-05T10:04:36.599Z</time></trkpt><trkpt lat="43.1579555" lon="-8.5653315"><ele>423.0</ele><time>2026-04-05T10:04:37.6Z</time></trkpt><trkpt lat="43.1580427" lon="-8.5654222"><ele>423.0</ele><time>2026-04-05T10:04:38.599Z</time></trkpt><trkpt lat="43.158121" lon="-8.5655322"><ele>423.25</ele><time>2026-04-05T10:04:39.6Z</time></trkpt><trkpt lat="43.1582025" lon="-8.5656622"><ele>423.5</ele><time>2026-04-05T10:04:40.6Z</time></trkpt><trkpt lat="43.1582845" lon="-8.5657963"><ele>423.75</ele><time>2026-04-05T10:04:41.6Z</time></trkpt><trkpt lat="43.1583653" lon="-8.5659217"><ele>424.0</ele><time>2026-04-05T10:04:42.599Z</time></trkpt><trkpt lat="43.1584429" lon="-8.5660419"><ele>424.0</ele><time>2026-04-05T10:04:43.6Z</time></trkpt><trkpt lat="43.1585149" lon="-8.5661618"><ele>424.0</ele><time>2026-04-05T10:04:44.6Z</time></trkpt><trkpt lat="43.1585881" lon="-8.5662728"><ele>424.0</ele><time>2026-04-05T10:04:45.6Z</time></trkpt><trkpt lat="43.158667" lon="-8.5664112"><ele>424.0</ele><time>2026-04-05T10:04:46.599Z</time></trkpt><trkpt lat="43.1587485" lon="-8.5665502"><ele>423.5</ele><time>2026-04-05T10:04:47.6Z</time></trkpt><trkpt lat="43.1588274" lon="-8.5667026"><ele>423.0</ele><time>2026-04-05T10:04:48.6Z</time></trkpt><trkpt lat="43.1588932" lon="-8.566856"><ele>422.5</ele><time>2026-04-05T10:04:49.599Z</time></trkpt><trkpt lat="43.1589433" lon="-8.5670228"><ele>422.0</ele><time>2026-04-05T10:04:50.6Z</time></trkpt><trkpt lat="43.1589776" lon="-8.567192"><ele>422.0</ele><time>2026-04-05T10:04:51.599Z</time></trkpt><trkpt lat="43.159002" lon="-8.5673704"><ele>422.0</ele><time>2026-04-05T10:04:52.599Z</time></trkpt><trkpt lat="43.1590207" lon="-8.5675465"><ele>422.0</ele><time>2026-04-05T10:04:53.6Z</time></trkpt><trkpt lat="43.1590418" lon="-8.5677146"><ele>422.0</ele><time>2026-04-05T10:04:54.599Z</time></trkpt><trkpt lat="43.1590698" lon="-8.5678777"><ele>423.0</ele><time>2026-04-05T10:04:55.599Z</time></trkpt><trkpt lat="43.1591063" lon="-8.5680313"><ele>424.0</ele><time>2026-04-05T10:04:56.6Z</time></trkpt><trkpt lat="43.1591419" lon="-8.568181"><ele>425.0</ele><time>2026-04-05T10:04:57.6Z</time></trkpt><trkpt lat="43.1591715" lon="-8.5683318"><ele>426.0</ele><time>2026-04-05T10:04:58.599Z</time></trkpt><trkpt lat="43.1591987" lon="-8.5684826"><ele>426.0</ele><time>2026-04-05T10:04:59.599Z</time></trkpt><trkpt lat="43.1592218" lon="-8.5686363"><ele>426.0</ele><time>2026-04-05T10:05:00.6Z</time></trkpt><trkpt lat="43.1592383" lon="-8.5687942"><ele>426.0</ele><time>2026-04-05T10:05:01.6Z</time></trkpt><trkpt lat="43.1592552" lon="-8.5689527"><ele>426.0</ele><time>2026-04-05T10:05:02.599Z</time></trkpt><trkpt lat="43.1592679" lon="-8.5691085"><ele>426.25</ele><time>2026-04-05T10:05:03.599Z</time></trkpt><trkpt lat="43.159285" lon="-8.5692658"><ele>426.5</ele><time>2026-04-05T10:05:04.6Z</time></trkpt><trkpt lat="43.1593042" lon="-8.5694371"><ele>426.75</ele><time>2026-04-05T10:05:05.599Z</time></trkpt><trkpt lat="43.1593218" lon="-8.5696134"><ele>427.0</ele><time>2026-04-05T10:05:06.599Z</time></trkpt><trkpt lat="43.1593362" lon="-8.5698016"><ele>427.25</ele><time>2026-04-05T10:05:07.6Z</time></trkpt><trkpt lat="43.1593364" lon="-8.5699919"><ele>427.5</ele><time>2026-04-05T10:05:08.6Z</time></trkpt><trkpt lat="43.1593309" lon="-8.5701829"><ele>427.75</ele><time>2026-04-05T10:05:09.6Z</time></trkpt><trkpt lat="43.159322" lon="-8.5703556"><ele>428.0</ele><time>2026-04-05T10:05:10.599Z</time></trkpt><trkpt lat="43.1593021" lon="-8.5705152"><ele>428.5</ele><time>2026-04-05T10:05:11.6Z</time></trkpt><trkpt lat="43.1592842" lon="-8.5706669"><ele>429.0</ele><time>2026-04-05T10:05:12.6Z</time></trkpt><trkpt lat="43.1592652" lon="-8.5708343"><ele>429.5</ele><time>2026-04-05T10:05:13.599Z</time></trkpt><trkpt lat="43.1592402" lon="-8.5710087"><ele>430.0</ele><time>2026-04-05T10:05:14.6Z</time></trkpt><trkpt lat="43.1592117" lon="-8.5711845"><ele>431.0</ele><time>2026-04-05T10:05:15.6Z</time></trkpt><trkpt lat="43.159195" lon="-8.5713648"><ele>432.0</ele><time>2026-04-05T10:05:16.6Z</time></trkpt><trkpt lat="43.1591992" lon="-8.5715524"><ele>433.0</ele><time>2026-04-05T10:05:17.6Z</time></trkpt><trkpt lat="43.1592268" lon="-8.5717495"><ele>434.0</ele><time>2026-04-05T10:05:18.599Z</time></trkpt><trkpt lat="43.1592788" lon="-8.5719468"><ele>434.0</ele><time>2026-04-05T10:05:19.6Z</time></trkpt><trkpt lat="43.1593611" lon="-8.5721371"><ele>434.0</ele><time>2026-04-05T10:05:20.6Z</time></trkpt><trkpt lat="43.1594701" lon="-8.5723214"><ele>434.0</ele><time>2026-04-05T10:05:21.6Z</time></trkpt><trkpt lat="43.1595766" lon="-8.5725035"><ele>434.0</ele><time>2026-04-05T10:05:22.6Z</time></trkpt><trkpt lat="43.1597106" lon="-8.572685"><ele>434.0</ele><time>2026-04-05T10:05:23.6Z</time></trkpt><trkpt lat="43.1598524" lon="-8.5728566"><ele>434.0</ele><time>2026-04-05T10:05:24.6Z</time></trkpt><trkpt lat="43.1600103" lon="-8.572997"><ele>435.3333333333333</ele><time>2026-04-05T10:05:25.6Z</time></trkpt><trkpt lat="43.1601853" lon="-8.5730921"><ele>436.66666666666663</ele><time>2026-04-05T10:05:26.6Z</time></trkpt><trkpt lat="43.1603762" lon="-8.5731542"><ele>438.0</ele><time>2026-04-05T10:05:27.6Z</time></trkpt><trkpt lat="43.1605787" lon="-8.5731939"><ele>439.66666666666663</ele><time>2026-04-05T10:05:28.6Z</time></trkpt><trkpt lat="43.1607839" lon="-8.5732273"><ele>441.3333333333333</ele><time>2026-04-05T10:05:29.6Z</time></trkpt><trkpt lat="43.1609854" lon="-8.5732576"><ele>443.0</ele><time>2026-04-05T10:05:30.6Z</time></trkpt><trkpt lat="43.1611762" lon="-8.5732796"><ele>443.0</ele><time>2026-04-05T10:05:31.6Z</time></trkpt><trkpt lat="43.161359" lon="-8.5732614"><ele>443.0</ele><time>2026-04-05T10:05:32.6Z</time></trkpt><trkpt lat="43.1615395" lon="-8.5731985"><ele>443.0</ele><time>2026-04-05T10:05:33.599Z</time></trkpt><trkpt lat="43.1617214" lon="-8.5731024"><ele>444.0</ele><time>2026-04-05T10:05:34.6Z</time></trkpt><trkpt lat="43.1619105" lon="-8.5729835"><ele>445.0</ele><time>2026-04-05T10:05:35.6Z</time></trkpt><trkpt lat="43.1621068" lon="-8.572862"><ele>446.0</ele><time>2026-04-05T10:05:36.6Z</time></trkpt><trkpt lat="43.1623173" lon="-8.5727331"><ele>446.0</ele><time>2026-04-05T10:05:37.599Z</time></trkpt><trkpt lat="43.1625347" lon="-8.5725982"><ele>446.0</ele><time>2026-04-05T10:05:38.599Z</time></trkpt><trkpt lat="43.1627608" lon="-8.5724612"><ele>446.0</ele><time>2026-04-05T10:05:39.6Z</time></trkpt><trkpt lat="43.1629868" lon="-8.5723269"><ele>446.0</ele><time>2026-04-05T10:05:40.599Z</time></trkpt><trkpt lat="43.1632113" lon="-8.5721976"><ele>445.0</ele><time>2026-04-05T10:05:41.6Z</time></trkpt><trkpt lat="43.1634345" lon="-8.572063"><ele>444.0</ele><time>2026-04-05T10:05:42.6Z</time></trkpt><trkpt lat="43.1636591" lon="-8.571932"><ele>443.5</ele><time>2026-04-05T10:05:43.6Z</time></trkpt><trkpt lat="43.1638889" lon="-8.5718056"><ele>443.0</ele><time>2026-04-05T10:05:44.6Z</time></trkpt><trkpt lat="43.164117" lon="-8.5716842"><ele>445.0</ele><time>2026-04-05T10:05:45.6Z</time></trkpt><trkpt lat="43.1643518" lon="-8.571559"><ele>447.0</ele><time>2026-04-05T10:05:46.599Z</time></trkpt><trkpt lat="43.1645832" lon="-8.5714296"><ele>447.0</ele><time>2026-04-05T10:05:47.6Z</time></trkpt><trkpt lat="43.1648258" lon="-8.5712974"><ele>447.0</ele><time>2026-04-05T10:05:48.6Z</time></trkpt><trkpt lat="43.1650667" lon="-8.5711673"><ele>449.5</ele><time>2026-04-05T10:05:49.6Z</time></trkpt><trkpt lat="43.1653092" lon="-8.5710337"><ele>452.0</ele><time>2026-04-05T10:05:50.599Z</time></trkpt><trkpt lat="43.1655511" lon="-8.5708984"><ele>455.5</ele><time>2026-04-05T10:05:51.6Z</time></trkpt><trkpt lat="43.1657926" lon="-8.5707665"><ele>459.0</ele><time>2026-04-05T10:05:52.6Z</time></trkpt><trkpt lat="43.1660329" lon="-8.5706348"><ele>459.0</ele><time>2026-04-05T10:05:53.6Z</time></trkpt><trkpt lat="43.1662705" lon="-8.570504"><ele>459.0</ele><time>2026-04-05T10:05:54.599Z</time></trkpt><trkpt lat="43.1665062" lon="-8.5703774"><ele>466.5</ele><time>2026-04-05T10:05:55.6Z</time></trkpt><trkpt lat="43.1667274" lon="-8.5702634"><ele>474.0</ele><time>2026-04-05T10:05:56.599Z</time></trkpt><trkpt lat="43.1669461" lon="-8.57016"><ele>474.0</ele><time>2026-04-05T10:05:57.6Z</time></trkpt><trkpt lat="43.167164" lon="-8.5700628"><ele>474.0</ele><time>2026-04-05T10:05:58.6Z</time></trkpt><trkpt lat="43.1673902" lon="-8.5699804"><ele>475.5</ele><time>2026-04-05T10:05:59.6Z</time></trkpt><trkpt lat="43.1676187" lon="-8.5699132"><ele>477.0</ele><time>2026-04-05T10:06:00.6Z</time></trkpt><trkpt lat="43.1678536" lon="-8.5698583"><ele>477.0</ele><time>2026-04-05T10:06:01.6Z</time></trkpt><trkpt lat="43.168091" lon="-8.5698064"><ele>477.0</ele><time>2026-04-05T10:06:02.6Z</time></trkpt><trkpt lat="43.1683292" lon="-8.5697579"><ele>478.0</ele><time>2026-04-05T10:06:03.6Z</time></trkpt><trkpt lat="43.1685674" lon="-8.569704"><ele>479.0</ele><time>2026-04-05T10:06:04.599Z</time></trkpt><trkpt lat="43.1688034" lon="-8.5696571"><ele>480.0</ele><time>2026-04-05T10:06:05.6Z</time></trkpt><trkpt lat="43.1690379" lon="-8.5696058"><ele>481.0</ele><time>2026-04-05T10:06:06.6Z</time></trkpt><trkpt lat="43.1692728" lon="-8.5695566"><ele>480.5</ele><time>2026-04-05T10:06:07.6Z</time></trkpt><trkpt lat="43.1695131" lon="-8.5695055"><ele>480.0</ele><time>2026-04-05T10:06:08.599Z</time></trkpt><trkpt lat="43.1697584" lon="-8.5694591"><ele>480.0</ele><time>2026-04-05T10:06:09.6Z</time></trkpt><trkpt lat="43.1699953" lon="-8.5694082"><ele>480.0</ele><time>2026-04-05T10:06:10.6Z</time></trkpt><trkpt lat="43.1702386" lon="-8.5693604"><ele>480.0</ele><time>2026-04-05T10:06:11.6Z</time></trkpt><trkpt lat="43.170481" lon="-8.5693113"><ele>480.0</ele><time>2026-04-05T10:06:12.599Z</time></trkpt><trkpt lat="43.1707023" lon="-8.5692704"><ele>477.66666666666663</ele><time>2026-04-05T10:06:13.6Z</time></trkpt><trkpt lat="43.1709268" lon="-8.5692217"><ele>475.3333333333333</ele><time>2026-04-05T10:06:14.6Z</time></trkpt><trkpt lat="43.1711459" lon="-8.5691709"><ele>473.0</ele><time>2026-04-05T10:06:15.6Z</time></trkpt><trkpt lat="43.1713565" lon="-8.5691126"><ele>468.0</ele><time>2026-04-05T10:06:16.6Z</time></trkpt><trkpt lat="43.1715637" lon="-8.5690328"><ele>463.0</ele><time>2026-04-05T10:06:17.599Z</time></trkpt><trkpt lat="43.1717646" lon="-8.568927"><ele>458.0</ele><time>2026-04-05T10:06:18.6Z</time></trkpt><trkpt lat="43.1719575" lon="-8.568797"><ele>458.3333333333333</ele><time>2026-04-05T10:06:19.6Z</time></trkpt><trkpt lat="43.1721422" lon="-8.5686435"><ele>458.66666666666663</ele><time>2026-04-05T10:06:20.599Z</time></trkpt><trkpt lat="43.1723166" lon="-8.5684665"><ele>459.0</ele><time>2026-04-05T10:06:21.6Z</time></trkpt><trkpt lat="43.1724804" lon="-8.5682794"><ele>455.33333333333337</ele><time>2026-04-05T10:06:22.6Z</time></trkpt><trkpt lat="43.1726405" lon="-8.5681001"><ele>451.6666666666667</ele><time>2026-04-05T10:06:23.6Z</time></trkpt><trkpt lat="43.172802" lon="-8.567934"><ele>448.0</ele><time>2026-04-05T10:06:24.6Z</time></trkpt><trkpt lat="43.1729508" lon="-8.5677832"><ele>447.6666666666667</ele><time>2026-04-05T10:06:25.6Z</time></trkpt><trkpt lat="43.1731328" lon="-8.5677053"><ele>447.33333333333337</ele><time>2026-04-05T10:06:26.599Z</time></trkpt><trkpt lat="43.1733134" lon="-8.5676834"><ele>447.0</ele><time>2026-04-05T10:06:27.599Z</time></trkpt><trkpt lat="43.1734886" lon="-8.5677111"><ele>446.0</ele><time>2026-04-05T10:06:28.6Z</time></trkpt><trkpt lat="43.1736628" lon="-8.5677723"><ele>445.0</ele><time>2026-04-05T10:06:29.6Z</time></trkpt><trkpt lat="43.173839" lon="-8.5678208"><ele>444.0</ele><time>2026-04-05T10:06:30.6Z</time></trkpt><trkpt lat="43.1740235" lon="-8.567832"><ele>443.66666666666663</ele><time>2026-04-05T10:06:31.6Z</time></trkpt><trkpt lat="43.1741946" lon="-8.5678199"><ele>443.3333333333333</ele><time>2026-04-05T10:06:32.6Z</time></trkpt><trkpt lat="43.1743661" lon="-8.5678089"><ele>443.0</ele><time>2026-04-05T10:06:33.6Z</time></trkpt><trkpt lat="43.1745452" lon="-8.5678259"><ele>440.0</ele><time>2026-04-05T10:06:34.6Z</time></trkpt><trkpt lat="43.1747302" lon="-8.5678717"><ele>437.0</ele><time>2026-04-05T10:06:35.6Z</time></trkpt><trkpt lat="43.1749227" lon="-8.5679407"><ele>434.0</ele><time>2026-04-05T10:06:36.6Z</time></trkpt><trkpt lat="43.1751218" lon="-8.5680268"><ele>432.0</ele><time>2026-04-05T10:06:37.599Z</time></trkpt><trkpt lat="43.1753256" lon="-8.5681159"><ele>430.0</ele><time>2026-04-05T10:06:38.599Z</time></trkpt><trkpt lat="43.1755198" lon="-8.5682013"><ele>428.0</ele><time>2026-04-05T10:06:39.6Z</time></trkpt><trkpt lat="43.1757109" lon="-8.5682802"><ele>427.0</ele><time>2026-04-05T10:06:40.599Z</time></trkpt><trkpt lat="43.1759045" lon="-8.5683366"><ele>426.0</ele><time>2026-04-05T10:06:41.6Z</time></trkpt><trkpt lat="43.1760993" lon="-8.5683753"><ele>425.0</ele><time>2026-04-05T10:06:42.599Z</time></trkpt><trkpt lat="43.1762917" lon="-8.5683961"><ele>425.0</ele><time>2026-04-05T10:06:43.6Z</time></trkpt><trkpt lat="43.1764794" lon="-8.5684096"><ele>425.0</ele><time>2026-04-05T10:06:44.6Z</time></trkpt><trkpt lat="43.1766589" lon="-8.5683567"><ele>425.0</ele><time>2026-04-05T10:06:45.6Z</time></trkpt><trkpt lat="43.1768432" lon="-8.5683013"><ele>424.66666666666663</ele><time>2026-04-05T10:06:46.6Z</time></trkpt><trkpt lat="43.1769919" lon="-8.5682168"><ele>424.33333333333337</ele><time>2026-04-05T10:06:47.6Z</time></trkpt><trkpt lat="43.1771433" lon="-8.5680745"><ele>424.0</ele><time>2026-04-05T10:06:48.6Z</time></trkpt><trkpt lat="43.1772991" lon="-8.5679417"><ele>422.6666666666667</ele><time>2026-04-05T10:06:49.6Z</time></trkpt><trkpt lat="43.1774667" lon="-8.5678099"><ele>421.33333333333337</ele><time>2026-04-05T10:06:50.599Z</time></trkpt><trkpt lat="43.1776318" lon="-8.567676"><ele>420.0</ele><time>2026-04-05T10:06:51.6Z</time></trkpt><trkpt lat="43.1777972" lon="-8.5675411"><ele>420.0</ele><time>2026-04-05T10:06:52.6Z</time></trkpt><trkpt lat="43.1779613" lon="-8.5674062"><ele>420.0</ele><time>2026-04-05T10:06:53.6Z</time></trkpt><trkpt lat="43.1781173" lon="-8.5672789"><ele>420.0</ele><time>2026-04-05T10:06:54.599Z</time></trkpt><trkpt lat="43.1782707" lon="-8.5671715"><ele>419.0</ele><time>2026-04-05T10:06:55.6Z</time></trkpt><trkpt lat="43.1784319" lon="-8.5671037"><ele>418.0</ele><time>2026-04-05T10:06:56.599Z</time></trkpt><trkpt lat="43.1786056" lon="-8.5670644"><ele>417.0</ele><time>2026-04-05T10:06:57.599Z</time></trkpt><trkpt lat="43.1787908" lon="-8.5670533"><ele>417.0</ele><time>2026-04-05T10:06:58.6Z</time></trkpt><trkpt lat="43.1789728" lon="-8.5670544"><ele>417.0</ele><time>2026-04-05T10:06:59.6Z</time></trkpt><trkpt lat="43.179159" lon="-8.5670675"><ele>417.0</ele><time>2026-04-05T10:07:00.6Z</time></trkpt><trkpt lat="43.1793471" lon="-8.567073"><ele>417.0</ele><time>2026-04-05T10:07:01.6Z</time></trkpt><trkpt lat="43.1795365" lon="-8.5670772"><ele>417.0</ele><time>2026-04-05T10:07:02.6Z</time></trkpt><trkpt lat="43.1797204" lon="-8.5670824"><ele>417.0</ele><time>2026-04-05T10:07:03.599Z</time></trkpt><trkpt lat="43.1799027" lon="-8.5671061"><ele>414.66666666666663</ele><time>2026-04-05T10:07:04.599Z</time></trkpt><trkpt lat="43.1800809" lon="-8.5671606"><ele>412.3333333333333</ele><time>2026-04-05T10:07:05.6Z</time></trkpt><trkpt lat="43.180252" lon="-8.5672484"><ele>410.0</ele><time>2026-04-05T10:07:06.6Z</time></trkpt><trkpt lat="43.1804126" lon="-8.5673576"><ele>410.0</ele><time>2026-04-05T10:07:07.6Z</time></trkpt><trkpt lat="43.1805662" lon="-8.5674795"><ele>410.0</ele><time>2026-04-05T10:07:08.6Z</time></trkpt><trkpt lat="43.1807232" lon="-8.5676092"><ele>410.0</ele><time>2026-04-05T10:07:09.6Z</time></trkpt><trkpt lat="43.1808864" lon="-8.5677384"><ele>409.66666666666663</ele><time>2026-04-05T10:07:10.6Z</time></trkpt><trkpt lat="43.1810517" lon="-8.5678748"><ele>409.33333333333337</ele><time>2026-04-05T10:07:11.6Z</time></trkpt><trkpt lat="43.1812261" lon="-8.5680132"><ele>409.0</ele><time>2026-04-05T10:07:12.6Z</time></trkpt><trkpt lat="43.1814045" lon="-8.5681561"><ele>410.33333333333337</ele><time>2026-04-05T10:07:13.599Z</time></trkpt><trkpt lat="43.1815874" lon="-8.5682975"><ele>411.66666666666663</ele><time>2026-04-05T10:07:14.6Z</time></trkpt><trkpt lat="43.181769" lon="-8.568448"><ele>413.0</ele><time>2026-04-05T10:07:15.6Z</time></trkpt><trkpt lat="43.1819446" lon="-8.5685872"><ele>412.0</ele><time>2026-04-05T10:07:16.599Z</time></trkpt><trkpt lat="43.1821116" lon="-8.568724"><ele>411.0</ele><time>2026-04-05T10:07:17.6Z</time></trkpt><trkpt lat="43.182269" lon="-8.5688514"><ele>410.0</ele><time>2026-04-05T10:07:18.6Z</time></trkpt><trkpt lat="43.1824231" lon="-8.5689696"><ele>409.66666666666663</ele><time>2026-04-05T10:07:19.6Z</time></trkpt><trkpt lat="43.1825807" lon="-8.5690572"><ele>409.33333333333337</ele><time>2026-04-05T10:07:20.6Z</time></trkpt><trkpt lat="43.1827395" lon="-8.5691085"><ele>409.0</ele><time>2026-04-05T10:07:21.6Z</time></trkpt><trkpt lat="43.1829018" lon="-8.5691161"><ele>409.0</ele><time>2026-04-05T10:07:22.599Z</time></trkpt><trkpt lat="43.1830591" lon="-8.5690831"><ele>409.0</ele><time>2026-04-05T10:07:23.6Z</time></trkpt><trkpt lat="43.1832177" lon="-8.5690199"><ele>409.0</ele><time>2026-04-05T10:07:24.6Z</time></trkpt><trkpt lat="43.1833766" lon="-8.5689466"><ele>408.33333333333337</ele><time>2026-04-05T10:07:25.599Z</time></trkpt><trkpt lat="43.1835454" lon="-8.5688517"><ele>407.66666666666663</ele><time>2026-04-05T10:07:26.6Z</time></trkpt><trkpt lat="43.1837156" lon="-8.5687561"><ele>407.0</ele><time>2026-04-05T10:07:27.599Z</time></trkpt><trkpt lat="43.1838788" lon="-8.5686614"><ele>409.0</ele><time>2026-04-05T10:07:28.6Z</time></trkpt><trkpt lat="43.1840427" lon="-8.5685682"><ele>411.0</ele><time>2026-04-05T10:07:29.6Z</time></trkpt><trkpt lat="43.1842066" lon="-8.5684765"><ele>413.0</ele><time>2026-04-05T10:07:30.6Z</time></trkpt><trkpt lat="43.1843658" lon="-8.5683895"><ele>413.0</ele><time>2026-04-05T10:07:31.599Z</time></trkpt><trkpt lat="43.1845219" lon="-8.5683031"><ele>413.0</ele><time>2026-04-05T10:07:32.6Z</time></trkpt><trkpt lat="43.184676" lon="-8.5682169"><ele>413.0</ele><time>2026-04-05T10:07:33.6Z</time></trkpt><trkpt lat="43.1848269" lon="-8.5681316"><ele>412.25</ele><time>2026-04-05T10:07:34.599Z</time></trkpt><trkpt lat="43.1849712" lon="-8.5680535"><ele>411.5</ele><time>2026-04-05T10:07:35.6Z</time></trkpt><trkpt lat="43.1851082" lon="-8.5679718"><ele>410.75</ele><time>2026-04-05T10:07:36.6Z</time></trkpt><trkpt lat="43.1852395" lon="-8.5678936"><ele>410.0</ele><time>2026-04-05T10:07:37.6Z</time></trkpt><trkpt lat="43.1853801" lon="-8.5678174"><ele>408.3333333333333</ele><time>2026-04-05T10:07:38.6Z</time></trkpt><trkpt lat="43.1855213" lon="-8.5677431"><ele>406.66666666666663</ele><time>2026-04-05T10:07:39.6Z</time></trkpt><trkpt lat="43.1856686" lon="-8.5676623"><ele>405.0</ele><time>2026-04-05T10:07:40.6Z</time></trkpt><trkpt lat="43.1858121" lon="-8.5675822"><ele>405.0</ele><time>2026-04-05T10:07:41.6Z</time></trkpt><trkpt lat="43.1859609" lon="-8.5675213"><ele>405.0</ele><time>2026-04-05T10:07:42.6Z</time></trkpt><trkpt lat="43.1861169" lon="-8.567496"><ele>405.0</ele><time>2026-04-05T10:07:43.6Z</time></trkpt><trkpt lat="43.1862831" lon="-8.5675145"><ele>405.0</ele><time>2026-04-05T10:07:44.6Z</time></trkpt><trkpt lat="43.1864443" lon="-8.5675784"><ele>405.0</ele><time>2026-04-05T10:07:45.599Z</time></trkpt><trkpt lat="43.1866048" lon="-8.5676933"><ele>405.0</ele><time>2026-04-05T10:07:46.6Z</time></trkpt><trkpt lat="43.1867624" lon="-8.5678302"><ele>401.33333333333337</ele><time>2026-04-05T10:07:47.6Z</time></trkpt><trkpt lat="43.1869199" lon="-8.5679748"><ele>397.6666666666667</ele><time>2026-04-05T10:07:48.599Z</time></trkpt><trkpt lat="43.1870779" lon="-8.5681237"><ele>394.0</ele><time>2026-04-05T10:07:49.6Z</time></trkpt><trkpt lat="43.187234" lon="-8.5682648"><ele>393.6666666666667</ele><time>2026-04-05T10:07:50.6Z</time></trkpt><trkpt lat="43.1873866" lon="-8.5684042"><ele>393.33333333333337</ele><time>2026-04-05T10:07:51.6Z</time></trkpt><trkpt lat="43.1875331" lon="-8.5685401"><ele>393.0</ele><time>2026-04-05T10:07:52.599Z</time></trkpt><trkpt lat="43.187678" lon="-8.5686703"><ele>391.33333333333337</ele><time>2026-04-05T10:07:53.6Z</time></trkpt><trkpt lat="43.187818" lon="-8.5687979"><ele>389.6666666666667</ele><time>2026-04-05T10:07:54.6Z</time></trkpt><trkpt lat="43.1879565" lon="-8.5689243"><ele>388.0</ele><time>2026-04-05T10:07:55.6Z</time></trkpt><trkpt lat="43.1880907" lon="-8.5690446"><ele>389.33333333333337</ele><time>2026-04-05T10:07:56.6Z</time></trkpt><trkpt lat="43.1882155" lon="-8.5691632"><ele>390.66666666666663</ele><time>2026-04-05T10:07:57.6Z</time></trkpt><trkpt lat="43.1883311" lon="-8.5692945"><ele>392.0</ele><time>2026-04-05T10:07:58.599Z</time></trkpt><trkpt lat="43.1884419" lon="-8.5694359"><ele>391.0</ele><time>2026-04-05T10:07:59.6Z</time></trkpt><trkpt lat="43.1885715" lon="-8.5695519"><ele>390.0</ele><time>2026-04-05T10:08:00.6Z</time></trkpt><trkpt lat="43.1887243" lon="-8.569636"><ele>389.0</ele><time>2026-04-05T10:08:01.599Z</time></trkpt><trkpt lat="43.1888937" lon="-8.5697031"><ele>387.3333333333333</ele><time>2026-04-05T10:08:02.599Z</time></trkpt><trkpt lat="43.1890747" lon="-8.5697725"><ele>385.66666666666663</ele><time>2026-04-05T10:08:03.6Z</time></trkpt><trkpt lat="43.1892557" lon="-8.5698461"><ele>384.0</ele><time>2026-04-05T10:08:04.6Z</time></trkpt><trkpt lat="43.1894306" lon="-8.5699174"><ele>384.0</ele><time>2026-04-05T10:08:05.6Z</time></trkpt><trkpt lat="43.1895923" lon="-8.5699829"><ele>384.0</ele><time>2026-04-05T10:08:06.599Z</time></trkpt><trkpt lat="43.1897405" lon="-8.5700485"><ele>384.0</ele><time>2026-04-05T10:08:07.6Z</time></trkpt><trkpt lat="43.1898717" lon="-8.5701219"><ele>384.5</ele><time>2026-04-05T10:08:08.6Z</time></trkpt><trkpt lat="43.1899898" lon="-8.570214"><ele>385.0</ele><time>2026-04-05T10:08:09.6Z</time></trkpt><trkpt lat="43.1900874" lon="-8.570344"><ele>385.5</ele><time>2026-04-05T10:08:10.599Z</time></trkpt><trkpt lat="43.1901585" lon="-8.5705047"><ele>386.0</ele><time>2026-04-05T10:08:11.6Z</time></trkpt><trkpt lat="43.1902022" lon="-8.5706834"><ele>386.0</ele><time>2026-04-05T10:08:12.599Z</time></trkpt><trkpt lat="43.1902118" lon="-8.5708737"><ele>386.0</ele><time>2026-04-05T10:08:13.6Z</time></trkpt><trkpt lat="43.1902045" lon="-8.5710758"><ele>386.0</ele><time>2026-04-05T10:08:14.6Z</time></trkpt><trkpt lat="43.1902017" lon="-8.5712876"><ele>386.0</ele><time>2026-04-05T10:08:15.6Z</time></trkpt><trkpt lat="43.1902071" lon="-8.5715097"><ele>385.3333333333333</ele><time>2026-04-05T10:08:16.6Z</time></trkpt><trkpt lat="43.19023" lon="-8.571737"><ele>384.66666666666663</ele><time>2026-04-05T10:08:17.6Z</time></trkpt><trkpt lat="43.1902689" lon="-8.571968"><ele>384.0</ele><time>2026-04-05T10:08:18.6Z</time></trkpt><trkpt lat="43.1903127" lon="-8.5722094"><ele>383.0</ele><time>2026-04-05T10:08:19.6Z</time></trkpt><trkpt lat="43.1903535" lon="-8.5724631"><ele>382.0</ele><time>2026-04-05T10:08:20.6Z</time></trkpt><trkpt lat="43.1903978" lon="-8.5727244"><ele>381.0</ele><time>2026-04-05T10:08:21.6Z</time></trkpt><trkpt lat="43.1904484" lon="-8.5729976"><ele>379.3333333333333</ele><time>2026-04-05T10:08:22.6Z</time></trkpt><trkpt lat="43.190495" lon="-8.5732642"><ele>377.66666666666663</ele><time>2026-04-05T10:08:23.6Z</time></trkpt><trkpt lat="43.1905419" lon="-8.5735171"><ele>376.0</ele><time>2026-04-05T10:08:24.6Z</time></trkpt><trkpt lat="43.1905825" lon="-8.573761"><ele>375.0</ele><time>2026-04-05T10:08:25.6Z</time></trkpt><trkpt lat="43.1906148" lon="-8.5739964"><ele>374.0</ele><time>2026-04-05T10:08:26.6Z</time></trkpt><trkpt lat="43.1906271" lon="-8.5742316"><ele>373.0</ele><time>2026-04-05T10:08:27.599Z</time></trkpt><trkpt lat="43.1906107" lon="-8.5744623"><ele>372.75</ele><time>2026-04-05T10:08:28.599Z</time></trkpt><trkpt lat="43.1905872" lon="-8.5746739"><ele>372.5</ele><time>2026-04-05T10:08:29.6Z</time></trkpt><trkpt lat="43.190568" lon="-8.5748707"><ele>372.25</ele><time>2026-04-05T10:08:30.6Z</time></trkpt><trkpt lat="43.1905764" lon="-8.5750441"><ele>372.0</ele><time>2026-04-05T10:08:31.6Z</time></trkpt><trkpt lat="43.190621" lon="-8.5751992"><ele>372.5</ele><time>2026-04-05T10:08:32.6Z</time></trkpt><trkpt lat="43.1906969" lon="-8.5753328"><ele>373.0</ele><time>2026-04-05T10:08:33.6Z</time></trkpt><trkpt lat="43.190805" lon="-8.5754368"><ele>373.5</ele><time>2026-04-05T10:08:34.599Z</time></trkpt><trkpt lat="43.1909339" lon="-8.575514"><ele>374.0</ele><time>2026-04-05T10:08:35.599Z</time></trkpt><trkpt lat="43.191088" lon="-8.5755755"><ele>374.0</ele><time>2026-04-05T10:08:36.599Z</time></trkpt><trkpt lat="43.1912562" lon="-8.5756415"><ele>374.0</ele><time>2026-04-05T10:08:37.599Z</time></trkpt><trkpt lat="43.1914355" lon="-8.5757039"><ele>374.0</ele><time>2026-04-05T10:08:38.6Z</time></trkpt><trkpt lat="43.1916058" lon="-8.5757684"><ele>372.6666666666667</ele><time>2026-04-05T10:08:39.599Z</time></trkpt><trkpt lat="43.1917718" lon="-8.5758357"><ele>371.3333333333333</ele><time>2026-04-05T10:08:40.599Z</time></trkpt><trkpt lat="43.1919294" lon="-8.5759294"><ele>370.0</ele><time>2026-04-05T10:08:41.6Z</time></trkpt><trkpt lat="43.1920655" lon="-8.5760651"><ele>368.66666666666663</ele><time>2026-04-05T10:08:42.6Z</time></trkpt><trkpt lat="43.192189" lon="-8.5762348"><ele>367.3333333333333</ele><time>2026-04-05T10:08:43.6Z</time></trkpt><trkpt lat="43.1922964" lon="-8.576434"><ele>366.0</ele><time>2026-04-05T10:08:44.6Z</time></trkpt><trkpt lat="43.1923933" lon="-8.5766399"><ele>364.3333333333333</ele><time>2026-04-05T10:08:45.599Z</time></trkpt><trkpt lat="43.1924942" lon="-8.5768389"><ele>362.66666666666663</ele><time>2026-04-05T10:08:46.6Z</time></trkpt><trkpt lat="43.1925985" lon="-8.5770379"><ele>361.0</ele><time>2026-04-05T10:08:47.6Z</time></trkpt><trkpt lat="43.1927057" lon="-8.5772359"><ele>359.66666666666663</ele><time>2026-04-05T10:08:48.6Z</time></trkpt><trkpt lat="43.1928075" lon="-8.5774404"><ele>358.3333333333333</ele><time>2026-04-05T10:08:49.599Z</time></trkpt><trkpt lat="43.1929093" lon="-8.5776421"><ele>357.0</ele><time>2026-04-05T10:08:50.6Z</time></trkpt><trkpt lat="43.1930113" lon="-8.5778371"><ele>356.3333333333333</ele><time>2026-04-05T10:08:51.599Z</time></trkpt><trkpt lat="43.1931109" lon="-8.5780375"><ele>355.66666666666663</ele><time>2026-04-05T10:08:52.599Z</time></trkpt><trkpt lat="43.1931908" lon="-8.578252"><ele>355.0</ele><time>2026-04-05T10:08:53.6Z</time></trkpt><trkpt lat="43.1932579" lon="-8.578477"><ele>353.66666666666663</ele><time>2026-04-05T10:08:54.6Z</time></trkpt><trkpt lat="43.1933155" lon="-8.5787169"><ele>352.3333333333333</ele><time>2026-04-05T10:08:55.6Z</time></trkpt><trkpt lat="43.1933857" lon="-8.5789444"><ele>351.0</ele><time>2026-04-05T10:08:56.6Z</time></trkpt><trkpt lat="43.1934591" lon="-8.5791697"><ele>351.0</ele><time>2026-04-05T10:08:57.6Z</time></trkpt><trkpt lat="43.1935756" lon="-8.5793365"><ele>351.0</ele><time>2026-04-05T10:08:58.6Z</time></trkpt><trkpt lat="43.1937089" lon="-8.5794771"><ele>351.0</ele><time>2026-04-05T10:08:59.599Z</time></trkpt><trkpt lat="43.1938711" lon="-8.5795757"><ele>349.3333333333333</ele><time>2026-04-05T10:09:00.6Z</time></trkpt><trkpt lat="43.1940427" lon="-8.5796213"><ele>347.66666666666663</ele><time>2026-04-05T10:09:01.599Z</time></trkpt><trkpt lat="43.1942166" lon="-8.579642"><ele>346.0</ele><time>2026-04-05T10:09:02.6Z</time></trkpt><trkpt lat="43.1943852" lon="-8.5796758"><ele>346.0</ele><time>2026-04-05T10:09:03.599Z</time></trkpt><trkpt lat="43.1945579" lon="-8.579744"><ele>346.0</ele><time>2026-04-05T10:09:04.6Z</time></trkpt><trkpt lat="43.1947253" lon="-8.579853"><ele>346.0</ele><time>2026-04-05T10:09:05.6Z</time></trkpt><trkpt lat="43.1948897" lon="-8.5799787"><ele>346.0</ele><time>2026-04-05T10:09:06.6Z</time></trkpt><trkpt lat="43.1950504" lon="-8.5801038"><ele>346.0</ele><time>2026-04-05T10:09:07.599Z</time></trkpt><trkpt lat="43.1952036" lon="-8.5802195"><ele>346.0</ele><time>2026-04-05T10:09:08.599Z</time></trkpt><trkpt lat="43.1953469" lon="-8.5803302"><ele>346.3333333333333</ele><time>2026-04-05T10:09:09.6Z</time></trkpt><trkpt lat="43.1954821" lon="-8.5804345"><ele>346.6666666666667</ele><time>2026-04-05T10:09:10.6Z</time></trkpt><trkpt lat="43.195613" lon="-8.5805354"><ele>347.0</ele><time>2026-04-05T10:09:11.599Z</time></trkpt><trkpt lat="43.195738" lon="-8.5806457"><ele>347.0</ele><time>2026-04-05T10:09:12.6Z</time></trkpt><trkpt lat="43.1958635" lon="-8.5807778"><ele>347.0</ele><time>2026-04-05T10:09:13.599Z</time></trkpt><trkpt lat="43.1959844" lon="-8.5809398"><ele>347.0</ele><time>2026-04-05T10:09:14.6Z</time></trkpt><trkpt lat="43.1961083" lon="-8.581093"><ele>347.6666666666667</ele><time>2026-04-05T10:09:15.6Z</time></trkpt><trkpt lat="43.1962269" lon="-8.5812942"><ele>348.3333333333333</ele><time>2026-04-05T10:09:16.599Z</time></trkpt><trkpt lat="43.1963392" lon="-8.5814907"><ele>349.0</ele><time>2026-04-05T10:09:17.6Z</time></trkpt><trkpt lat="43.196445" lon="-8.5816797"><ele>345.66666666666663</ele><time>2026-04-05T10:09:18.6Z</time></trkpt><trkpt lat="43.1965529" lon="-8.5818592"><ele>342.3333333333333</ele><time>2026-04-05T10:09:19.6Z</time></trkpt><trkpt lat="43.1966642" lon="-8.5820271"><ele>339.0</ele><time>2026-04-05T10:09:20.599Z</time></trkpt><trkpt lat="43.1967695" lon="-8.5822082"><ele>339.0</ele><time>2026-04-05T10:09:21.6Z</time></trkpt><trkpt lat="43.1968799" lon="-8.5823834"><ele>339.0</ele><time>2026-04-05T10:09:22.599Z</time></trkpt><trkpt lat="43.1969996" lon="-8.5825492"><ele>339.0</ele><time>2026-04-05T10:09:23.599Z</time></trkpt><trkpt lat="43.1971294" lon="-8.5826988"><ele>339.0</ele><time>2026-04-05T10:09:24.6Z</time></trkpt><trkpt lat="43.1972587" lon="-8.5828324"><ele>339.0</ele><time>2026-04-05T10:09:25.6Z</time></trkpt><trkpt lat="43.1973882" lon="-8.5829453"><ele>339.0</ele><time>2026-04-05T10:09:26.6Z</time></trkpt><trkpt lat="43.1975148" lon="-8.58304"><ele>338.75</ele><time>2026-04-05T10:09:27.6Z</time></trkpt><trkpt lat="43.1976476" lon="-8.5830909"><ele>338.5</ele><time>2026-04-05T10:09:28.6Z</time></trkpt><trkpt lat="43.197778" lon="-8.5830978"><ele>338.25</ele><time>2026-04-05T10:09:29.599Z</time></trkpt><trkpt lat="43.1979039" lon="-8.5830563"><ele>338.0</ele><time>2026-04-05T10:09:30.599Z</time></trkpt><trkpt lat="43.1980178" lon="-8.5829633"><ele>337.5</ele><time>2026-04-05T10:09:31.6Z</time></trkpt><trkpt lat="43.1981073" lon="-8.5828237"><ele>337.0</ele><time>2026-04-05T10:09:32.6Z</time></trkpt><trkpt lat="43.1981601" lon="-8.5826491"><ele>336.5</ele><time>2026-04-05T10:09:33.6Z</time></trkpt><trkpt lat="43.1981743" lon="-8.5824474"><ele>336.0</ele><time>2026-04-05T10:09:34.6Z</time></trkpt><trkpt lat="43.1981647" lon="-8.5822365"><ele>336.0</ele><time>2026-04-05T10:09:35.6Z</time></trkpt><trkpt lat="43.1981414" lon="-8.5820201"><ele>336.0</ele><time>2026-04-05T10:09:36.6Z</time></trkpt><trkpt lat="43.1981195" lon="-8.58179"><ele>336.0</ele><time>2026-04-05T10:09:37.6Z</time></trkpt><trkpt lat="43.1981003" lon="-8.5815581"><ele>335.0</ele><time>2026-04-05T10:09:38.6Z</time></trkpt><trkpt lat="43.1981012" lon="-8.5813322"><ele>334.0</ele><time>2026-04-05T10:09:39.599Z</time></trkpt><trkpt lat="43.1981268" lon="-8.5811048"><ele>333.0</ele><time>2026-04-05T10:09:40.599Z</time></trkpt><trkpt lat="43.1981731" lon="-8.5808852"><ele>329.3333333333333</ele><time>2026-04-05T10:09:41.6Z</time></trkpt><trkpt lat="43.1982499" lon="-8.5806781"><ele>325.66666666666663</ele><time>2026-04-05T10:09:42.6Z</time></trkpt><trkpt lat="43.1983242" lon="-8.5804652"><ele>322.0</ele><time>2026-04-05T10:09:43.599Z</time></trkpt><trkpt lat="43.1984658" lon="-8.5802944"><ele>321.3333333333333</ele><time>2026-04-05T10:09:44.6Z</time></trkpt><trkpt lat="43.1986291" lon="-8.5801413"><ele>320.6666666666667</ele><time>2026-04-05T10:09:45.6Z</time></trkpt><trkpt lat="43.1988293" lon="-8.5800371"><ele>320.0</ele><time>2026-04-05T10:09:46.599Z</time></trkpt><trkpt lat="43.1990363" lon="-8.5799859"><ele>318.33333333333337</ele><time>2026-04-05T10:09:47.6Z</time></trkpt><trkpt lat="43.1992352" lon="-8.5799246"><ele>316.6666666666667</ele><time>2026-04-05T10:09:48.6Z</time></trkpt><trkpt lat="43.1994503" lon="-8.5799114"><ele>315.0</ele><time>2026-04-05T10:09:49.6Z</time></trkpt><trkpt lat="43.1996068" lon="-8.5800913"><ele>315.0</ele><time>2026-04-05T10:09:50.6Z</time></trkpt><trkpt lat="43.199775" lon="-8.5802137"><ele>315.0</ele><time>2026-04-05T10:09:51.6Z</time></trkpt><trkpt lat="43.1998959" lon="-8.5803862"><ele>315.0</ele><time>2026-04-05T10:09:52.599Z</time></trkpt><trkpt lat="43.2000165" lon="-8.5805511"><ele>317.6666666666667</ele><time>2026-04-05T10:09:53.599Z</time></trkpt><trkpt lat="43.2001379" lon="-8.5807264"><ele>320.33333333333337</ele><time>2026-04-05T10:09:54.6Z</time></trkpt><trkpt lat="43.2002577" lon="-8.5809116"><ele>323.0</ele><time>2026-04-05T10:09:55.599Z</time></trkpt><trkpt lat="43.2003829" lon="-8.5810934"><ele>322.0</ele><time>2026-04-05T10:09:56.599Z</time></trkpt><trkpt lat="43.2005105" lon="-8.5812769"><ele>321.0</ele><time>2026-04-05T10:09:57.6Z</time></trkpt><trkpt lat="43.200651" lon="-8.5814709"><ele>320.0</ele><time>2026-04-05T10:09:58.6Z</time></trkpt><trkpt lat="43.2008038" lon="-8.5816552"><ele>318.33333333333337</ele><time>2026-04-05T10:09:59.6Z</time></trkpt><trkpt lat="43.2009676" lon="-8.5818277"><ele>316.6666666666667</ele><time>2026-04-05T10:10:00.6Z</time></trkpt><trkpt lat="43.2011279" lon="-8.581983"><ele>315.0</ele><time>2026-04-05T10:10:01.6Z</time></trkpt><trkpt lat="43.201288" lon="-8.5821207"><ele>315.0</ele><time>2026-04-05T10:10:02.6Z</time></trkpt><trkpt lat="43.2014539" lon="-8.5822394"><ele>315.0</ele><time>2026-04-05T10:10:03.599Z</time></trkpt><trkpt lat="43.2016168" lon="-8.5823356"><ele>315.0</ele><time>2026-04-05T10:10:04.6Z</time></trkpt><trkpt lat="43.2017807" lon="-8.5824185"><ele>315.6666666666667</ele><time>2026-04-05T10:10:05.599Z</time></trkpt><trkpt lat="43.2019384" lon="-8.582489"><ele>316.33333333333337</ele><time>2026-04-05T10:10:06.6Z</time></trkpt><trkpt lat="43.2020986" lon="-8.5825541"><ele>317.0</ele><time>2026-04-05T10:10:07.6Z</time></trkpt><trkpt lat="43.20225" lon="-8.582621"><ele>315.33333333333337</ele><time>2026-04-05T10:10:08.6Z</time></trkpt><trkpt lat="43.2023917" lon="-8.582718"><ele>313.6666666666667</ele><time>2026-04-05T10:10:09.6Z</time></trkpt><trkpt lat="43.2025186" lon="-8.5828553"><ele>312.0</ele><time>2026-04-05T10:10:10.599Z</time></trkpt><trkpt lat="43.2026241" lon="-8.5830324"><ele>308.0</ele><time>2026-04-05T10:10:11.6Z</time></trkpt><trkpt lat="43.2027034" lon="-8.583244"><ele>304.0</ele><time>2026-04-05T10:10:12.6Z</time></trkpt><trkpt lat="43.2027485" lon="-8.5834826"><ele>300.0</ele><time>2026-04-05T10:10:13.6Z</time></trkpt><trkpt lat="43.2027604" lon="-8.5837286"><ele>298.0</ele><time>2026-04-05T10:10:14.6Z</time></trkpt><trkpt lat="43.2027528" lon="-8.5839738"><ele>296.0</ele><time>2026-04-05T10:10:15.6Z</time></trkpt><trkpt lat="43.2027597" lon="-8.584201"><ele>294.0</ele><time>2026-04-05T10:10:16.599Z</time></trkpt><trkpt lat="43.2027918" lon="-8.5844211"><ele>294.0</ele><time>2026-04-05T10:10:17.599Z</time></trkpt><trkpt lat="43.2028518" lon="-8.5846276"><ele>294.0</ele><time>2026-04-05T10:10:18.599Z</time></trkpt><trkpt lat="43.2029429" lon="-8.5848143"><ele>294.0</ele><time>2026-04-05T10:10:19.6Z</time></trkpt><trkpt lat="43.2030511" lon="-8.584986"><ele>295.0</ele><time>2026-04-05T10:10:20.6Z</time></trkpt><trkpt lat="43.2031734" lon="-8.5851524"><ele>296.0</ele><time>2026-04-05T10:10:21.6Z</time></trkpt><trkpt lat="43.2032997" lon="-8.5853335"><ele>297.0</ele><time>2026-04-05T10:10:22.6Z</time></trkpt><trkpt lat="43.2034086" lon="-8.5855286"><ele>295.0</ele><time>2026-04-05T10:10:23.6Z</time></trkpt><trkpt lat="43.2034936" lon="-8.58574"><ele>293.0</ele><time>2026-04-05T10:10:24.6Z</time></trkpt><trkpt lat="43.2035686" lon="-8.5859494"><ele>291.0</ele><time>2026-04-05T10:10:25.6Z</time></trkpt><trkpt lat="43.2036499" lon="-8.5861485"><ele>289.0</ele><time>2026-04-05T10:10:26.6Z</time></trkpt><trkpt lat="43.2037521" lon="-8.586321"><ele>287.0</ele><time>2026-04-05T10:10:27.6Z</time></trkpt><trkpt lat="43.2038727" lon="-8.5864645"><ele>285.0</ele><time>2026-04-05T10:10:28.6Z</time></trkpt><trkpt lat="43.2040198" lon="-8.5865824"><ele>284.6666666666667</ele><time>2026-04-05T10:10:29.6Z</time></trkpt><trkpt lat="43.2041817" lon="-8.5866728"><ele>284.33333333333337</ele><time>2026-04-05T10:10:30.6Z</time></trkpt><trkpt lat="43.204354" lon="-8.5867564"><ele>284.0</ele><time>2026-04-05T10:10:31.6Z</time></trkpt><trkpt lat="43.2045351" lon="-8.5868214"><ele>284.0</ele><time>2026-04-05T10:10:32.599Z</time></trkpt><trkpt lat="43.2046986" lon="-8.5869142"><ele>284.0</ele><time>2026-04-05T10:10:33.6Z</time></trkpt><trkpt lat="43.2048493" lon="-8.5870082"><ele>284.0</ele><time>2026-04-05T10:10:34.6Z</time></trkpt><trkpt lat="43.2050092" lon="-8.5870858"><ele>281.6666666666667</ele><time>2026-04-05T10:10:35.6Z</time></trkpt><trkpt lat="43.2051687" lon="-8.5871555"><ele>279.3333333333333</ele><time>2026-04-05T10:10:36.6Z</time></trkpt><trkpt lat="43.2053361" lon="-8.5872053"><ele>277.0</ele><time>2026-04-05T10:10:37.599Z</time></trkpt><trkpt lat="43.2055102" lon="-8.5872532"><ele>275.66666666666663</ele><time>2026-04-05T10:10:38.6Z</time></trkpt><trkpt lat="43.2056923" lon="-8.5872833"><ele>274.3333333333333</ele><time>2026-04-05T10:10:39.599Z</time></trkpt><trkpt lat="43.2058768" lon="-8.5872982"><ele>273.0</ele><time>2026-04-05T10:10:40.6Z</time></trkpt><trkpt lat="43.2060532" lon="-8.5872978"><ele>273.0</ele><time>2026-04-05T10:10:41.6Z</time></trkpt><trkpt lat="43.2062176" lon="-8.5872833"><ele>273.0</ele><time>2026-04-05T10:10:42.599Z</time></trkpt><trkpt lat="43.2063746" lon="-8.5872561"><ele>273.0</ele><time>2026-04-05T10:10:43.6Z</time></trkpt><trkpt lat="43.2065123" lon="-8.5871985"><ele>273.0</ele><time>2026-04-05T10:10:44.6Z</time></trkpt><trkpt lat="43.2066383" lon="-8.5871105"><ele>273.0</ele><time>2026-04-05T10:10:45.6Z</time></trkpt><trkpt lat="43.2067518" lon="-8.5869921"><ele>273.0</ele><time>2026-04-05T10:10:46.6Z</time></trkpt><trkpt lat="43.2068591" lon="-8.5868581"><ele>273.0</ele><time>2026-04-05T10:10:47.599Z</time></trkpt><trkpt lat="43.2069666" lon="-8.5867193"><ele>275.3333333333333</ele><time>2026-04-05T10:10:48.599Z</time></trkpt><trkpt lat="43.2070793" lon="-8.5865719"><ele>277.66666666666663</ele><time>2026-04-05T10:10:49.599Z</time></trkpt><trkpt lat="43.2071955" lon="-8.5864234"><ele>280.0</ele><time>2026-04-05T10:10:50.6Z</time></trkpt><trkpt lat="43.2073139" lon="-8.5862746"><ele>280.3333333333333</ele><time>2026-04-05T10:10:51.6Z</time></trkpt><trkpt lat="43.2074397" lon="-8.5861323"><ele>280.6666666666667</ele><time>2026-04-05T10:10:52.6Z</time></trkpt><trkpt lat="43.2075795" lon="-8.5860044"><ele>281.0</ele><time>2026-04-05T10:10:53.6Z</time></trkpt><trkpt lat="43.2077275" lon="-8.5858859"><ele>281.0</ele><time>2026-04-05T10:10:54.6Z</time></trkpt><trkpt lat="43.2078873" lon="-8.5857841"><ele>281.0</ele><time>2026-04-05T10:10:55.6Z</time></trkpt><trkpt lat="43.2080529" lon="-8.5857197"><ele>281.0</ele><time>2026-04-05T10:10:56.6Z</time></trkpt><trkpt lat="43.2082269" lon="-8.5856952"><ele>279.33333333333337</ele><time>2026-04-05T10:10:57.6Z</time></trkpt><trkpt lat="43.2083951" lon="-8.5856924"><ele>277.6666666666667</ele><time>2026-04-05T10:10:58.6Z</time></trkpt><trkpt lat="43.2085712" lon="-8.5857167"><ele>276.0</ele><time>2026-04-05T10:10:59.599Z</time></trkpt><trkpt lat="43.2087443" lon="-8.58577"><ele>276.0</ele><time>2026-04-05T10:11:00.6Z</time></trkpt><trkpt lat="43.2089064" lon="-8.5858307"><ele>276.0</ele><time>2026-04-05T10:11:01.599Z</time></trkpt><trkpt lat="43.2090664" lon="-8.5858715"><ele>276.0</ele><time>2026-04-05T10:11:02.6Z</time></trkpt><trkpt lat="43.2092209" lon="-8.585876"><ele>278.6666666666667</ele><time>2026-04-05T10:11:03.6Z</time></trkpt><trkpt lat="43.209373" lon="-8.5858533"><ele>281.33333333333337</ele><time>2026-04-05T10:11:04.6Z</time></trkpt><trkpt lat="43.2095235" lon="-8.5858253"><ele>284.0</ele><time>2026-04-05T10:11:05.6Z</time></trkpt><trkpt lat="43.2096728" lon="-8.5857976"><ele>284.0</ele><time>2026-04-05T10:11:06.6Z</time></trkpt><trkpt lat="43.2098149" lon="-8.5857691"><ele>284.0</ele><time>2026-04-05T10:11:07.599Z</time></trkpt><trkpt lat="43.2099543" lon="-8.5857433"><ele>284.0</ele><time>2026-04-05T10:11:08.6Z</time></trkpt><trkpt lat="43.210091" lon="-8.5857378"><ele>284.0</ele><time>2026-04-05T10:11:09.6Z</time></trkpt><trkpt lat="43.2102203" lon="-8.5857716"><ele>286.0</ele><time>2026-04-05T10:11:10.6Z</time></trkpt><trkpt lat="43.2103522" lon="-8.5858273"><ele>288.0</ele><time>2026-04-05T10:11:11.6Z</time></trkpt><trkpt lat="43.2104832" lon="-8.5858798"><ele>290.0</ele><time>2026-04-05T10:11:12.6Z</time></trkpt><trkpt lat="43.210625" lon="-8.5859302"><ele>292.0</ele><time>2026-04-05T10:11:13.599Z</time></trkpt><trkpt lat="43.2107663" lon="-8.5859754"><ele>293.0</ele><time>2026-04-05T10:11:14.6Z</time></trkpt><trkpt lat="43.2109158" lon="-8.5860157"><ele>294.0</ele><time>2026-04-05T10:11:15.6Z</time></trkpt><trkpt lat="43.2110695" lon="-8.5860536"><ele>295.0</ele><time>2026-04-05T10:11:16.599Z</time></trkpt><trkpt lat="43.2112157" lon="-8.5860904"><ele>295.0</ele><time>2026-04-05T10:11:17.6Z</time></trkpt><trkpt lat="43.2113569" lon="-8.5861236"><ele>295.0</ele><time>2026-04-05T10:11:18.6Z</time></trkpt><trkpt lat="43.2115003" lon="-8.5861325"><ele>295.0</ele><time>2026-04-05T10:11:19.6Z</time></trkpt><trkpt lat="43.2116484" lon="-8.5860992"><ele>295.0</ele><time>2026-04-05T10:11:20.6Z</time></trkpt><trkpt lat="43.2117924" lon="-8.5860203"><ele>293.66666666666663</ele><time>2026-04-05T10:11:21.6Z</time></trkpt><trkpt lat="43.2119327" lon="-8.5859007"><ele>292.3333333333333</ele><time>2026-04-05T10:11:22.599Z</time></trkpt><trkpt lat="43.2120621" lon="-8.585741"><ele>291.0</ele><time>2026-04-05T10:11:23.6Z</time></trkpt><trkpt lat="43.2121899" lon="-8.5855668"><ele>291.0</ele><time>2026-04-05T10:11:24.6Z</time></trkpt><trkpt lat="43.2123179" lon="-8.5853915"><ele>291.0</ele><time>2026-04-05T10:11:25.6Z</time></trkpt><trkpt lat="43.212443" lon="-8.5852201"><ele>291.0</ele><time>2026-04-05T10:11:26.6Z</time></trkpt><trkpt lat="43.2125671" lon="-8.5850501"><ele>289.3333333333333</ele><time>2026-04-05T10:11:27.599Z</time></trkpt><trkpt lat="43.2126907" lon="-8.5848866"><ele>287.66666666666663</ele><time>2026-04-05T10:11:28.6Z</time></trkpt><trkpt lat="43.2128244" lon="-8.5847445"><ele>286.0</ele><time>2026-04-05T10:11:29.6Z</time></trkpt><trkpt lat="43.2129646" lon="-8.5846144"><ele>284.66666666666663</ele><time>2026-04-05T10:11:30.6Z</time></trkpt><trkpt lat="43.2131082" lon="-8.5844875"><ele>283.3333333333333</ele><time>2026-04-05T10:11:31.6Z</time></trkpt><trkpt lat="43.2132505" lon="-8.5843544"><ele>282.0</ele><time>2026-04-05T10:11:32.6Z</time></trkpt><trkpt lat="43.2133945" lon="-8.5842194"><ele>282.0</ele><time>2026-04-05T10:11:33.6Z</time></trkpt><trkpt lat="43.2135364" lon="-8.5840833"><ele>282.0</ele><time>2026-04-05T10:11:34.599Z</time></trkpt><trkpt lat="43.2136767" lon="-8.5839472"><ele>282.0</ele><time>2026-04-05T10:11:35.6Z</time></trkpt><trkpt lat="43.2138091" lon="-8.5838052"><ele>285.0</ele><time>2026-04-05T10:11:36.599Z</time></trkpt><trkpt lat="43.213943" lon="-8.5836617"><ele>288.0</ele><time>2026-04-05T10:11:37.6Z</time></trkpt><trkpt lat="43.2140714" lon="-8.5835222"><ele>291.0</ele><time>2026-04-05T10:11:38.599Z</time></trkpt><trkpt lat="43.2141942" lon="-8.5833831"><ele>284.6666666666667</ele><time>2026-04-05T10:11:39.6Z</time></trkpt><trkpt lat="43.214309" lon="-8.5832487"><ele>278.33333333333337</ele><time>2026-04-05T10:11:40.599Z</time></trkpt><trkpt lat="43.2144139" lon="-8.5831011"><ele>272.0</ele><time>2026-04-05T10:11:41.6Z</time></trkpt><trkpt lat="43.2145117" lon="-8.5829393"><ele>274.0</ele><time>2026-04-05T10:11:42.6Z</time></trkpt><trkpt lat="43.2145741" lon="-8.5827435"><ele>276.0</ele><time>2026-04-05T10:11:43.6Z</time></trkpt><trkpt lat="43.2146369" lon="-8.582545"><ele>278.0</ele><time>2026-04-05T10:11:44.599Z</time></trkpt><trkpt lat="43.2146846" lon="-8.5823532"><ele>278.0</ele><time>2026-04-05T10:11:45.6Z</time></trkpt><trkpt lat="43.2147368" lon="-8.5821628"><ele>278.0</ele><time>2026-04-05T10:11:46.6Z</time></trkpt><trkpt lat="43.2147966" lon="-8.5819809"><ele>278.0</ele><time>2026-04-05T10:11:47.6Z</time></trkpt><trkpt lat="43.2148696" lon="-8.5818064"><ele>278.0</ele><time>2026-04-05T10:11:48.6Z</time></trkpt><trkpt lat="43.2149725" lon="-8.5816465"><ele>272.6666666666667</ele><time>2026-04-05T10:11:49.599Z</time></trkpt><trkpt lat="43.2150984" lon="-8.5815092"><ele>267.3333333333333</ele><time>2026-04-05T10:11:50.6Z</time></trkpt><trkpt lat="43.2152416" lon="-8.5813881"><ele>262.0</ele><time>2026-04-05T10:11:51.6Z</time></trkpt><trkpt lat="43.2153908" lon="-8.5812711"><ele>263.0</ele><time>2026-04-05T10:11:52.6Z</time></trkpt><trkpt lat="43.2155422" lon="-8.5811536"><ele>264.0</ele><time>2026-04-05T10:11:53.6Z</time></trkpt><trkpt lat="43.2156862" lon="-8.5810396"><ele>265.0</ele><time>2026-04-05T10:11:54.6Z</time></trkpt><trkpt lat="43.2158226" lon="-8.5809158"><ele>260.3333333333333</ele><time>2026-04-05T10:11:55.6Z</time></trkpt><trkpt lat="43.2159523" lon="-8.5807774"><ele>255.66666666666669</ele><time>2026-04-05T10:11:56.6Z</time></trkpt><trkpt lat="43.2160702" lon="-8.5806237"><ele>251.0</ele><time>2026-04-05T10:11:57.599Z</time></trkpt><trkpt lat="43.2161909" lon="-8.5804924"><ele>251.0</ele><time>2026-04-05T10:11:58.6Z</time></trkpt><trkpt lat="43.2163259" lon="-8.5803774"><ele>251.0</ele><time>2026-04-05T10:11:59.6Z</time></trkpt><trkpt lat="43.2164827" lon="-8.5803047"><ele>251.0</ele><time>2026-04-05T10:12:00.6Z</time></trkpt><trkpt lat="43.2166586" lon="-8.580282"><ele>248.66666666666669</ele><time>2026-04-05T10:12:01.599Z</time></trkpt><trkpt lat="43.2168061" lon="-8.5802806"><ele>246.33333333333331</ele><time>2026-04-05T10:12:02.6Z</time></trkpt><trkpt lat="43.2170078" lon="-8.5804233"><ele>244.0</ele><time>2026-04-05T10:12:03.6Z</time></trkpt><trkpt lat="43.2172024" lon="-8.5805183"><ele>240.33333333333331</ele><time>2026-04-05T10:12:04.6Z</time></trkpt><trkpt lat="43.2174147" lon="-8.5805701"><ele>236.66666666666669</ele><time>2026-04-05T10:12:05.6Z</time></trkpt><trkpt lat="43.2176353" lon="-8.5805846"><ele>233.0</ele><time>2026-04-05T10:12:06.599Z</time></trkpt><trkpt lat="43.2178567" lon="-8.5805917"><ele>233.0</ele><time>2026-04-05T10:12:07.6Z</time></trkpt><trkpt lat="43.2180971" lon="-8.5806159"><ele>233.0</ele><time>2026-04-05T10:12:08.6Z</time></trkpt><trkpt lat="43.2183637" lon="-8.5806487"><ele>229.5</ele><time>2026-04-05T10:12:09.6Z</time></trkpt><trkpt lat="43.2186586" lon="-8.5806652"><ele>226.0</ele><time>2026-04-05T10:12:10.6Z</time></trkpt><trkpt lat="43.2189814" lon="-8.5806724"><ele>224.0</ele><time>2026-04-05T10:12:11.6Z</time></trkpt><trkpt lat="43.2193059" lon="-8.5806689"><ele>222.0</ele><time>2026-04-05T10:12:12.6Z</time></trkpt><trkpt lat="43.2196279" lon="-8.5806699"><ele>222.0</ele><time>2026-04-05T10:12:13.6Z</time></trkpt><trkpt lat="43.2199271" lon="-8.580683"><ele>222.0</ele><time>2026-04-05T10:12:14.599Z</time></trkpt><trkpt lat="43.2202106" lon="-8.5807034"><ele>222.0</ele><time>2026-04-05T10:12:15.599Z</time></trkpt><trkpt lat="43.2204729" lon="-8.5807196"><ele>222.0</ele><time>2026-04-05T10:12:16.6Z</time></trkpt><trkpt lat="43.2207175" lon="-8.5807148"><ele>224.33333333333331</ele><time>2026-04-05T10:12:17.599Z</time></trkpt><trkpt lat="43.2209306" lon="-8.5806574"><ele>226.66666666666666</ele><time>2026-04-05T10:12:18.6Z</time></trkpt><trkpt lat="43.2211306" lon="-8.5805662"><ele>229.0</ele><time>2026-04-05T10:12:19.6Z</time></trkpt><trkpt lat="43.2212671" lon="-8.5803738"><ele>230.0</ele><time>2026-04-05T10:12:20.6Z</time></trkpt><trkpt lat="43.2214121" lon="-8.580152"><ele>231.0</ele><time>2026-04-05T10:12:21.6Z</time></trkpt><trkpt lat="43.2215496" lon="-8.579905"><ele>232.0</ele><time>2026-04-05T10:12:22.6Z</time></trkpt><trkpt lat="43.2216897" lon="-8.5796539"><ele>235.0</ele><time>2026-04-05T10:12:23.6Z</time></trkpt><trkpt lat="43.2218305" lon="-8.5794356"><ele>238.0</ele><time>2026-04-05T10:12:24.6Z</time></trkpt><trkpt lat="43.221969" lon="-8.579254"><ele>241.0</ele><time>2026-04-05T10:12:25.6Z</time></trkpt><trkpt lat="43.222132" lon="-8.5791248"><ele>241.0</ele><time>2026-04-05T10:12:26.6Z</time></trkpt><trkpt lat="43.2223029" lon="-8.579042"><ele>241.0</ele><time>2026-04-05T10:12:27.599Z</time></trkpt><trkpt lat="43.2224706" lon="-8.5790058"><ele>241.0</ele><time>2026-04-05T10:12:28.599Z</time></trkpt><trkpt lat="43.2226437" lon="-8.5790094"><ele>240.66666666666666</ele><time>2026-04-05T10:12:29.6Z</time></trkpt><trkpt lat="43.2228257" lon="-8.5790468"><ele>240.33333333333331</ele><time>2026-04-05T10:12:30.599Z</time></trkpt><trkpt lat="43.2230035" lon="-8.5790953"><ele>240.0</ele><time>2026-04-05T10:12:31.6Z</time></trkpt><trkpt lat="43.2231865" lon="-8.5791443"><ele>240.0</ele><time>2026-04-05T10:12:32.6Z</time></trkpt><trkpt lat="43.2233691" lon="-8.5791764"><ele>240.0</ele><time>2026-04-05T10:12:33.6Z</time></trkpt><trkpt lat="43.2235559" lon="-8.5791899"><ele>240.0</ele><time>2026-04-05T10:12:34.6Z</time></trkpt><trkpt lat="43.2237353" lon="-8.5791946"><ele>240.0</ele><time>2026-04-05T10:12:35.6Z</time></trkpt><trkpt lat="43.223906" lon="-8.5792029"><ele>240.0</ele><time>2026-04-05T10:12:36.599Z</time></trkpt><trkpt lat="43.2240787" lon="-8.5792125"><ele>240.0</ele><time>2026-04-05T10:12:37.6Z</time></trkpt><trkpt lat="43.2242425" lon="-8.5792261"><ele>240.0</ele><time>2026-04-05T10:12:38.599Z</time></trkpt><trkpt lat="43.2244045" lon="-8.5792354"><ele>240.0</ele><time>2026-04-05T10:12:39.6Z</time></trkpt><trkpt lat="43.2245638" lon="-8.5792541"><ele>240.0</ele><time>2026-04-05T10:12:40.6Z</time></trkpt><trkpt lat="43.2247147" lon="-8.5793029"><ele>238.66666666666669</ele><time>2026-04-05T10:12:41.599Z</time></trkpt><trkpt lat="43.2248482" lon="-8.5793604"><ele>237.33333333333334</ele><time>2026-04-05T10:12:42.599Z</time></trkpt><trkpt lat="43.2249856" lon="-8.5795262"><ele>236.0</ele><time>2026-04-05T10:12:43.6Z</time></trkpt><trkpt lat="43.2251175" lon="-8.5797152"><ele>235.66666666666669</ele><time>2026-04-05T10:12:44.6Z</time></trkpt><trkpt lat="43.2252632" lon="-8.5799095"><ele>235.33333333333331</ele><time>2026-04-05T10:12:45.6Z</time></trkpt><trkpt lat="43.2254336" lon="-8.5800789"><ele>235.0</ele><time>2026-04-05T10:12:46.6Z</time></trkpt><trkpt lat="43.2256391" lon="-8.5801987"><ele>235.5</ele><time>2026-04-05T10:12:47.6Z</time></trkpt><trkpt lat="43.2258603" lon="-8.5802646"><ele>236.0</ele><time>2026-04-05T10:12:48.599Z</time></trkpt><trkpt lat="43.2261021" lon="-8.5803015"><ele>236.0</ele><time>2026-04-05T10:12:49.599Z</time></trkpt><trkpt lat="43.2263497" lon="-8.5803475"><ele>236.0</ele><time>2026-04-05T10:12:50.6Z</time></trkpt><trkpt lat="43.2265938" lon="-8.5803905"><ele>237.5</ele><time>2026-04-05T10:12:51.6Z</time></trkpt><trkpt lat="43.2268303" lon="-8.5804264"><ele>239.0</ele><time>2026-04-05T10:12:52.6Z</time></trkpt><trkpt lat="43.2270591" lon="-8.5804661"><ele>239.0</ele><time>2026-04-05T10:12:53.6Z</time></trkpt><trkpt lat="43.2272834" lon="-8.5805005"><ele>239.0</ele><time>2026-04-05T10:12:54.599Z</time></trkpt><trkpt lat="43.2275063" lon="-8.5805395"><ele>239.0</ele><time>2026-04-05T10:12:55.599Z</time></trkpt><trkpt lat="43.2277268" lon="-8.5805835"><ele>239.0</ele><time>2026-04-05T10:12:56.6Z</time></trkpt><trkpt lat="43.2279494" lon="-8.5806259"><ele>239.0</ele><time>2026-04-05T10:12:57.6Z</time></trkpt><trkpt lat="43.2281779" lon="-8.5806711"><ele>239.0</ele><time>2026-04-05T10:12:58.6Z</time></trkpt><trkpt lat="43.2284017" lon="-8.5807112"><ele>239.0</ele><time>2026-04-05T10:12:59.6Z</time></trkpt><trkpt lat="43.2286204" lon="-8.5807552"><ele>239.0</ele><time>2026-04-05T10:13:00.6Z</time></trkpt><trkpt lat="43.2288295" lon="-8.5808003"><ele>237.33333333333334</ele><time>2026-04-05T10:13:01.6Z</time></trkpt><trkpt lat="43.2290263" lon="-8.5808395"><ele>235.66666666666669</ele><time>2026-04-05T10:13:02.599Z</time></trkpt><trkpt lat="43.229218" lon="-8.5808353"><ele>234.0</ele><time>2026-04-05T10:13:03.599Z</time></trkpt><trkpt lat="43.2293967" lon="-8.5807766"><ele>234.0</ele><time>2026-04-05T10:13:04.6Z</time></trkpt><trkpt lat="43.2295692" lon="-8.5806858"><ele>234.0</ele><time>2026-04-05T10:13:05.6Z</time></trkpt><trkpt lat="43.2297437" lon="-8.5806003"><ele>234.0</ele><time>2026-04-05T10:13:06.6Z</time></trkpt><trkpt lat="43.2299269" lon="-8.5805631"><ele>233.66666666666669</ele><time>2026-04-05T10:13:07.6Z</time></trkpt><trkpt lat="43.230109" lon="-8.5805814"><ele>233.33333333333334</ele><time>2026-04-05T10:13:08.599Z</time></trkpt><trkpt lat="43.2302942" lon="-8.5806495"><ele>233.0</ele><time>2026-04-05T10:13:09.599Z</time></trkpt><trkpt lat="43.2304758" lon="-8.5807495"><ele>232.33333333333334</ele><time>2026-04-05T10:13:10.6Z</time></trkpt><trkpt lat="43.2306618" lon="-8.5808621"><ele>231.66666666666669</ele><time>2026-04-05T10:13:11.6Z</time></trkpt><trkpt lat="43.2308439" lon="-8.5809737"><ele>231.0</ele><time>2026-04-05T10:13:12.6Z</time></trkpt><trkpt lat="43.2310211" lon="-8.5810846"><ele>229.66666666666669</ele><time>2026-04-05T10:13:13.6Z</time></trkpt><trkpt lat="43.2311967" lon="-8.5812054"><ele>228.33333333333334</ele><time>2026-04-05T10:13:14.6Z</time></trkpt><trkpt lat="43.2313671" lon="-8.5813364"><ele>227.0</ele><time>2026-04-05T10:13:15.6Z</time></trkpt><trkpt lat="43.2315252" lon="-8.5814886"><ele>226.33333333333334</ele><time>2026-04-05T10:13:16.6Z</time></trkpt><trkpt lat="43.2316763" lon="-8.5816565"><ele>225.66666666666669</ele><time>2026-04-05T10:13:17.6Z</time></trkpt><trkpt lat="43.2318257" lon="-8.5818385"><ele>225.0</ele><time>2026-04-05T10:13:18.599Z</time></trkpt><trkpt lat="43.2319745" lon="-8.5820286"><ele>223.0</ele><time>2026-04-05T10:13:19.599Z</time></trkpt><trkpt lat="43.2321234" lon="-8.5822259"><ele>221.0</ele><time>2026-04-05T10:13:20.6Z</time></trkpt><trkpt lat="43.2322743" lon="-8.58243"><ele>219.0</ele><time>2026-04-05T10:13:21.599Z</time></trkpt><trkpt lat="43.2324293" lon="-8.5826338"><ele>219.0</ele><time>2026-04-05T10:13:22.6Z</time></trkpt><trkpt lat="43.2325808" lon="-8.5828358"><ele>219.0</ele><time>2026-04-05T10:13:23.599Z</time></trkpt><trkpt lat="43.2327267" lon="-8.5830401"><ele>219.0</ele><time>2026-04-05T10:13:24.6Z</time></trkpt><trkpt lat="43.2328762" lon="-8.5832433"><ele>217.0</ele><time>2026-04-05T10:13:25.6Z</time></trkpt><trkpt lat="43.2330296" lon="-8.5834436"><ele>215.0</ele><time>2026-04-05T10:13:26.6Z</time></trkpt><trkpt lat="43.2331828" lon="-8.5836287"><ele>213.0</ele><time>2026-04-05T10:13:27.6Z</time></trkpt><trkpt lat="43.2333358" lon="-8.5838025"><ele>210.33333333333331</ele><time>2026-04-05T10:13:28.6Z</time></trkpt><trkpt lat="43.233486" lon="-8.5839538"><ele>207.66666666666666</ele><time>2026-04-05T10:13:29.6Z</time></trkpt><trkpt lat="43.233633" lon="-8.5841014"><ele>205.0</ele><time>2026-04-05T10:13:30.6Z</time></trkpt><trkpt lat="43.2337721" lon="-8.5842445"><ele>205.0</ele><time>2026-04-05T10:13:31.599Z</time></trkpt><trkpt lat="43.2339075" lon="-8.5843844"><ele>205.0</ele><time>2026-04-05T10:13:32.6Z</time></trkpt><trkpt lat="43.2340359" lon="-8.5845202"><ele>205.0</ele><time>2026-04-05T10:13:33.6Z</time></trkpt><trkpt lat="43.2341727" lon="-8.5846621"><ele>202.33333333333331</ele><time>2026-04-05T10:13:34.6Z</time></trkpt><trkpt lat="43.2342975" lon="-8.5847952"><ele>199.66666666666669</ele><time>2026-04-05T10:13:35.6Z</time></trkpt><trkpt lat="43.2344243" lon="-8.5849288"><ele>197.0</ele><time>2026-04-05T10:13:36.6Z</time></trkpt><trkpt lat="43.2345471" lon="-8.5850562"><ele>197.0</ele><time>2026-04-05T10:13:37.6Z</time></trkpt><trkpt lat="43.234666" lon="-8.5851764"><ele>197.0</ele><time>2026-04-05T10:13:38.599Z</time></trkpt><trkpt lat="43.2347769" lon="-8.585291"><ele>197.0</ele><time>2026-04-05T10:13:39.599Z</time></trkpt><trkpt lat="43.2348861" lon="-8.5853994"><ele>197.0</ele><time>2026-04-05T10:13:40.599Z</time></trkpt><trkpt lat="43.2349943" lon="-8.585495"><ele>196.0</ele><time>2026-04-05T10:13:41.599Z</time></trkpt><trkpt lat="43.2351146" lon="-8.585574"><ele>195.0</ele><time>2026-04-05T10:13:42.6Z</time></trkpt><trkpt lat="43.2352383" lon="-8.5856351"><ele>194.0</ele><time>2026-04-05T10:13:43.6Z</time></trkpt><trkpt lat="43.2353696" lon="-8.5856791"><ele>193.0</ele><time>2026-04-05T10:13:44.6Z</time></trkpt><trkpt lat="43.2354985" lon="-8.5857098"><ele>193.0</ele><time>2026-04-05T10:13:45.6Z</time></trkpt><trkpt lat="43.2356305" lon="-8.5857334"><ele>193.0</ele><time>2026-04-05T10:13:46.599Z</time></trkpt><trkpt lat="43.2357637" lon="-8.5857366"><ele>193.0</ele><time>2026-04-05T10:13:47.599Z</time></trkpt><trkpt lat="43.2358943" lon="-8.5857098"><ele>193.0</ele><time>2026-04-05T10:13:48.6Z</time></trkpt><trkpt lat="43.2360177" lon="-8.5856653"><ele>192.75</ele><time>2026-04-05T10:13:49.6Z</time></trkpt><trkpt lat="43.236131" lon="-8.5855917"><ele>192.5</ele><time>2026-04-05T10:13:50.6Z</time></trkpt><trkpt lat="43.2362324" lon="-8.5855044"><ele>192.25</ele><time>2026-04-05T10:13:51.599Z</time></trkpt><trkpt lat="43.2363248" lon="-8.5853965"><ele>192.0</ele><time>2026-04-05T10:13:52.6Z</time></trkpt><trkpt lat="43.2364082" lon="-8.5852769"><ele>191.25</ele><time>2026-04-05T10:13:53.6Z</time></trkpt><trkpt lat="43.2364836" lon="-8.5851489"><ele>190.5</ele><time>2026-04-05T10:13:54.6Z</time></trkpt><trkpt lat="43.2365553" lon="-8.5850158"><ele>189.75</ele><time>2026-04-05T10:13:55.6Z</time></trkpt><trkpt lat="43.236624" lon="-8.5848842"><ele>189.0</ele><time>2026-04-05T10:13:56.6Z</time></trkpt><trkpt lat="43.2366911" lon="-8.5847559"><ele>189.0</ele><time>2026-04-05T10:13:57.6Z</time></trkpt><trkpt lat="43.2367612" lon="-8.5846407"><ele>189.0</ele><time>2026-04-05T10:13:58.6Z</time></trkpt><trkpt lat="43.2368364" lon="-8.584556"><ele>189.0</ele><time>2026-04-05T10:13:59.599Z</time></trkpt><trkpt lat="43.2369239" lon="-8.5845234"><ele>189.0</ele><time>2026-04-05T10:14:00.6Z</time></trkpt><trkpt lat="43.2370075" lon="-8.5845404"><ele>189.0</ele><time>2026-04-05T10:14:01.6Z</time></trkpt><trkpt lat="43.2370917" lon="-8.5845984"><ele>189.0</ele><time>2026-04-05T10:14:02.599Z</time></trkpt><trkpt lat="43.2371652" lon="-8.5846914"><ele>189.0</ele><time>2026-04-05T10:14:03.6Z</time></trkpt><trkpt lat="43.2372374" lon="-8.5848016"><ele>189.0</ele><time>2026-04-05T10:14:04.6Z</time></trkpt><trkpt lat="43.2373146" lon="-8.5849069"><ele>189.0</ele><time>2026-04-05T10:14:05.599Z</time></trkpt><trkpt lat="43.237388" lon="-8.5850326"><ele>189.0</ele><time>2026-04-05T10:14:06.599Z</time></trkpt><trkpt lat="43.2374661" lon="-8.5851582"><ele>188.0</ele><time>2026-04-05T10:14:07.599Z</time></trkpt><trkpt lat="43.2375484" lon="-8.5852858"><ele>187.0</ele><time>2026-04-05T10:14:08.6Z</time></trkpt><trkpt lat="43.2376275" lon="-8.58542"><ele>186.0</ele><time>2026-04-05T10:14:09.599Z</time></trkpt><trkpt lat="43.2377065" lon="-8.5855624"><ele>185.0</ele><time>2026-04-05T10:14:10.599Z</time></trkpt><trkpt lat="43.2377874" lon="-8.5857039"><ele>184.5</ele><time>2026-04-05T10:14:11.599Z</time></trkpt><trkpt lat="43.2378677" lon="-8.5858426"><ele>184.0</ele><time>2026-04-05T10:14:12.6Z</time></trkpt><trkpt lat="43.2379481" lon="-8.5859893"><ele>183.5</ele><time>2026-04-05T10:14:13.6Z</time></trkpt><trkpt lat="43.2380332" lon="-8.5861377"><ele>183.0</ele><time>2026-04-05T10:14:14.6Z</time></trkpt><trkpt lat="43.2381204" lon="-8.5862821"><ele>180.5</ele><time>2026-04-05T10:14:15.6Z</time></trkpt><trkpt lat="43.2382056" lon="-8.5864227"><ele>178.0</ele><time>2026-04-05T10:14:16.6Z</time></trkpt><trkpt lat="43.2382942" lon="-8.5865427"><ele>175.5</ele><time>2026-04-05T10:14:17.6Z</time></trkpt><trkpt lat="43.2383863" lon="-8.5866176"><ele>173.0</ele><time>2026-04-05T10:14:18.6Z</time></trkpt><trkpt lat="43.2384853" lon="-8.5866424"><ele>173.0</ele><time>2026-04-05T10:14:19.599Z</time></trkpt><trkpt lat="43.2385877" lon="-8.586632"><ele>173.0</ele><time>2026-04-05T10:14:20.6Z</time></trkpt><trkpt lat="43.2386913" lon="-8.5865949"><ele>173.0</ele><time>2026-04-05T10:14:21.6Z</time></trkpt><trkpt lat="43.2387948" lon="-8.5865429"><ele>173.0</ele><time>2026-04-05T10:14:22.599Z</time></trkpt><trkpt lat="43.2389017" lon="-8.5864751"><ele>173.0</ele><time>2026-04-05T10:14:23.6Z</time></trkpt><trkpt lat="43.239011" lon="-8.5863955"><ele>172.25</ele><time>2026-04-05T10:14:24.599Z</time></trkpt><trkpt lat="43.2391195" lon="-8.5863114"><ele>171.5</ele><time>2026-04-05T10:14:25.6Z</time></trkpt><trkpt lat="43.2392276" lon="-8.5862259"><ele>170.75</ele><time>2026-04-05T10:14:26.599Z</time></trkpt><trkpt lat="43.2393344" lon="-8.5861447"><ele>170.0</ele><time>2026-04-05T10:14:27.6Z</time></trkpt><trkpt lat="43.239445" lon="-8.5860708"><ele>170.0</ele><time>2026-04-05T10:14:28.599Z</time></trkpt><trkpt lat="43.2395561" lon="-8.5860021"><ele>170.0</ele><time>2026-04-05T10:14:29.6Z</time></trkpt><trkpt lat="43.2396727" lon="-8.5859413"><ele>170.0</ele><time>2026-04-05T10:14:30.6Z</time></trkpt><trkpt lat="43.2398009" lon="-8.5859115"><ele>170.0</ele><time>2026-04-05T10:14:31.6Z</time></trkpt><trkpt lat="43.2399401" lon="-8.5859071"><ele>167.75</ele><time>2026-04-05T10:14:32.6Z</time></trkpt><trkpt lat="43.2400806" lon="-8.5859282"><ele>165.5</ele><time>2026-04-05T10:14:33.599Z</time></trkpt><trkpt lat="43.2402274" lon="-8.5859661"><ele>163.25</ele><time>2026-04-05T10:14:34.599Z</time></trkpt><trkpt lat="43.2403762" lon="-8.5860106"><ele>161.0</ele><time>2026-04-05T10:14:35.6Z</time></trkpt><trkpt lat="43.2405116" lon="-8.5860525"><ele>159.75</ele><time>2026-04-05T10:14:36.6Z</time></trkpt><trkpt lat="43.2406469" lon="-8.5860982"><ele>158.5</ele><time>2026-04-05T10:14:37.6Z</time></trkpt><trkpt lat="43.2407779" lon="-8.5861416"><ele>157.25</ele><time>2026-04-05T10:14:38.6Z</time></trkpt><trkpt lat="43.2409016" lon="-8.5861912"><ele>156.0</ele><time>2026-04-05T10:14:39.599Z</time></trkpt><trkpt lat="43.2410223" lon="-8.5862539"><ele>155.5</ele><time>2026-04-05T10:14:40.6Z</time></trkpt><trkpt lat="43.2411325" lon="-8.586342"><ele>155.0</ele><time>2026-04-05T10:14:41.599Z</time></trkpt><trkpt lat="43.2412295" lon="-8.5864516"><ele>154.5</ele><time>2026-04-05T10:14:42.6Z</time></trkpt><trkpt lat="43.2413177" lon="-8.5865847"><ele>154.0</ele><time>2026-04-05T10:14:43.6Z</time></trkpt><trkpt lat="43.2413905" lon="-8.5867397"><ele>154.0</ele><time>2026-04-05T10:14:44.6Z</time></trkpt><trkpt lat="43.2414486" lon="-8.5869097"><ele>154.0</ele><time>2026-04-05T10:14:45.6Z</time></trkpt><trkpt lat="43.2414895" lon="-8.5870859"><ele>154.0</ele><time>2026-04-05T10:14:46.599Z</time></trkpt><trkpt lat="43.2415277" lon="-8.587264"><ele>154.0</ele><time>2026-04-05T10:14:47.599Z</time></trkpt><trkpt lat="43.2415663" lon="-8.5874413"><ele>152.5</ele><time>2026-04-05T10:14:48.6Z</time></trkpt><trkpt lat="43.2416029" lon="-8.587622"><ele>151.0</ele><time>2026-04-05T10:14:49.599Z</time></trkpt><trkpt lat="43.2416426" lon="-8.587804"><ele>149.5</ele><time>2026-04-05T10:14:50.6Z</time></trkpt><trkpt lat="43.2416834" lon="-8.5879886"><ele>148.0</ele><time>2026-04-05T10:14:51.6Z</time></trkpt><trkpt lat="43.2417261" lon="-8.5881747"><ele>148.0</ele><time>2026-04-05T10:14:52.6Z</time></trkpt><trkpt lat="43.2417718" lon="-8.5883538"><ele>148.0</ele><time>2026-04-05T10:14:53.6Z</time></trkpt><trkpt lat="43.2418111" lon="-8.5885227"><ele>148.0</ele><time>2026-04-05T10:14:54.599Z</time></trkpt><trkpt lat="43.2418498" lon="-8.5886857"><ele>148.0</ele><time>2026-04-05T10:14:55.6Z</time></trkpt><trkpt lat="43.2418958" lon="-8.5888457"><ele>149.25</ele><time>2026-04-05T10:14:56.6Z</time></trkpt><trkpt lat="43.2419609" lon="-8.5889943"><ele>150.5</ele><time>2026-04-05T10:14:57.6Z</time></trkpt><trkpt lat="43.24204" lon="-8.5891302"><ele>151.75</ele><time>2026-04-05T10:14:58.6Z</time></trkpt><trkpt lat="43.2421247" lon="-8.5892618"><ele>153.0</ele><time>2026-04-05T10:14:59.6Z</time></trkpt><trkpt lat="43.2422101" lon="-8.5893927"><ele>153.5</ele><time>2026-04-05T10:15:00.599Z</time></trkpt><trkpt lat="43.2423052" lon="-8.5895195"><ele>154.0</ele><time>2026-04-05T10:15:01.6Z</time></trkpt><trkpt lat="43.2424094" lon="-8.5896365"><ele>154.5</ele><time>2026-04-05T10:15:02.6Z</time></trkpt><trkpt lat="43.2425267" lon="-8.589739"><ele>155.0</ele><time>2026-04-05T10:15:03.6Z</time></trkpt><trkpt lat="43.2426513" lon="-8.5898163"><ele>155.0</ele><time>2026-04-05T10:15:04.6Z</time></trkpt><trkpt lat="43.2427802" lon="-8.5898639"><ele>155.0</ele><time>2026-04-05T10:15:05.6Z</time></trkpt><trkpt lat="43.2429119" lon="-8.5898765"><ele>155.0</ele><time>2026-04-05T10:15:06.599Z</time></trkpt><trkpt lat="43.2430421" lon="-8.5898592"><ele>155.0</ele><time>2026-04-05T10:15:07.6Z</time></trkpt><trkpt lat="43.2431705" lon="-8.589808"><ele>155.25</ele><time>2026-04-05T10:15:08.599Z</time></trkpt><trkpt lat="43.2432913" lon="-8.5897367"><ele>155.5</ele><time>2026-04-05T10:15:09.6Z</time></trkpt><trkpt lat="43.2434061" lon="-8.5896508"><ele>155.75</ele><time>2026-04-05T10:15:10.599Z</time></trkpt><trkpt lat="43.2435144" lon="-8.5895673"><ele>156.0</ele><time>2026-04-05T10:15:11.6Z</time></trkpt><trkpt lat="43.2436271" lon="-8.5894897"><ele>156.0</ele><time>2026-04-05T10:15:12.599Z</time></trkpt><trkpt lat="43.2437439" lon="-8.5894334"><ele>156.0</ele><time>2026-04-05T10:15:13.6Z</time></trkpt><trkpt lat="43.2438587" lon="-8.5893989"><ele>156.0</ele><time>2026-04-05T10:15:14.6Z</time></trkpt><trkpt lat="43.2439816" lon="-8.5893785"><ele>156.0</ele><time>2026-04-05T10:15:15.6Z</time></trkpt><trkpt lat="43.244106" lon="-8.5893705"><ele>157.25</ele><time>2026-04-05T10:15:16.599Z</time></trkpt><trkpt lat="43.2442267" lon="-8.5893753"><ele>158.5</ele><time>2026-04-05T10:15:17.6Z</time></trkpt><trkpt lat="43.2443548" lon="-8.5893852"><ele>159.75</ele><time>2026-04-05T10:15:18.599Z</time></trkpt><trkpt lat="43.2444836" lon="-8.5893924"><ele>161.0</ele><time>2026-04-05T10:15:19.599Z</time></trkpt><trkpt lat="43.2446129" lon="-8.589397"><ele>161.0</ele><time>2026-04-05T10:15:20.6Z</time></trkpt><trkpt lat="43.24474" lon="-8.5894081"><ele>161.0</ele><time>2026-04-05T10:15:21.599Z</time></trkpt><trkpt lat="43.2448725" lon="-8.5894115"><ele>161.0</ele><time>2026-04-05T10:15:22.6Z</time></trkpt><trkpt lat="43.2450096" lon="-8.5894192"><ele>161.0</ele><time>2026-04-05T10:15:23.6Z</time></trkpt><trkpt lat="43.2451517" lon="-8.5894239"><ele>161.75</ele><time>2026-04-05T10:15:24.599Z</time></trkpt><trkpt lat="43.2452897" lon="-8.5894309"><ele>162.5</ele><time>2026-04-05T10:15:25.6Z</time></trkpt><trkpt lat="43.2454267" lon="-8.5894369"><ele>163.25</ele><time>2026-04-05T10:15:26.6Z</time></trkpt><trkpt lat="43.245558" lon="-8.5894433"><ele>164.0</ele><time>2026-04-05T10:15:27.599Z</time></trkpt><trkpt lat="43.2456882" lon="-8.5894541"><ele>164.0</ele><time>2026-04-05T10:15:28.599Z</time></trkpt><trkpt lat="43.2458176" lon="-8.5894638"><ele>164.0</ele><time>2026-04-05T10:15:29.6Z</time></trkpt><trkpt lat="43.2459433" lon="-8.5894706"><ele>164.0</ele><time>2026-04-05T10:15:30.6Z</time></trkpt><trkpt lat="43.2460647" lon="-8.5894772"><ele>164.0</ele><time>2026-04-05T10:15:31.6Z</time></trkpt><trkpt lat="43.246181" lon="-8.5894782"><ele>164.0</ele><time>2026-04-05T10:15:32.6Z</time></trkpt><trkpt lat="43.2462892" lon="-8.5894741"><ele>164.0</ele><time>2026-04-05T10:15:33.6Z</time></trkpt><trkpt lat="43.2463921" lon="-8.5894637"><ele>164.0</ele><time>2026-04-05T10:15:34.6Z</time></trkpt><trkpt lat="43.2464902" lon="-8.5894374"><ele>164.0</ele><time>2026-04-05T10:15:35.599Z</time></trkpt><trkpt lat="43.2465795" lon="-8.5893944"><ele>164.0</ele><time>2026-04-05T10:15:36.599Z</time></trkpt><trkpt lat="43.2466596" lon="-8.589336"><ele>164.0</ele><time>2026-04-05T10:15:37.599Z</time></trkpt><trkpt lat="43.2467297" lon="-8.5892626"><ele>164.0</ele><time>2026-04-05T10:15:38.6Z</time></trkpt><trkpt lat="43.2467942" lon="-8.5891704"><ele>164.0</ele><time>2026-04-05T10:15:39.6Z</time></trkpt><trkpt lat="43.2468458" lon="-8.589063"><ele>164.0</ele><time>2026-04-05T10:15:40.6Z</time></trkpt><trkpt lat="43.2468897" lon="-8.5889468"><ele>164.0</ele><time>2026-04-05T10:15:41.599Z</time></trkpt><trkpt lat="43.2469293" lon="-8.5888319"><ele>164.0</ele><time>2026-04-05T10:15:42.6Z</time></trkpt><trkpt lat="43.2469646" lon="-8.588709"><ele>164.0</ele><time>2026-04-05T10:15:43.6Z</time></trkpt><trkpt lat="43.2470002" lon="-8.5885881"><ele>164.0</ele><time>2026-04-05T10:15:44.6Z</time></trkpt><trkpt lat="43.2470341" lon="-8.5884664"><ele>164.0</ele><time>2026-04-05T10:15:45.599Z</time></trkpt><trkpt lat="43.2470664" lon="-8.5883374"><ele>164.0</ele><time>2026-04-05T10:15:46.6Z</time></trkpt><trkpt lat="43.2471024" lon="-8.5882095"><ele>164.2</ele><time>2026-04-05T10:15:47.6Z</time></trkpt><trkpt lat="43.247138" lon="-8.5880806"><ele>164.39999999999998</ele><time>2026-04-05T10:15:48.599Z</time></trkpt><trkpt lat="43.2471641" lon="-8.5879567"><ele>164.6</ele><time>2026-04-05T10:15:49.6Z</time></trkpt><trkpt lat="43.2471982" lon="-8.5878179"><ele>164.8</ele><time>2026-04-05T10:15:50.599Z</time></trkpt><trkpt lat="43.2472269" lon="-8.5876878"><ele>165.0</ele><time>2026-04-05T10:15:51.6Z</time></trkpt><trkpt lat="43.247264" lon="-8.5875696"><ele>165.6</ele><time>2026-04-05T10:15:52.6Z</time></trkpt><trkpt lat="43.2472969" lon="-8.5874539"><ele>166.2</ele><time>2026-04-05T10:15:53.6Z</time></trkpt><trkpt lat="43.2473273" lon="-8.5873342"><ele>166.8</ele><time>2026-04-05T10:15:54.6Z</time></trkpt><trkpt lat="43.2473575" lon="-8.5872175"><ele>167.4</ele><time>2026-04-05T10:15:55.599Z</time></trkpt><trkpt lat="43.2473904" lon="-8.5870949"><ele>168.0</ele><time>2026-04-05T10:15:56.6Z</time></trkpt><trkpt lat="43.2474203" lon="-8.586974"><ele>168.4</ele><time>2026-04-05T10:15:57.6Z</time></trkpt><trkpt lat="43.2474454" lon="-8.5868639"><ele>168.8</ele><time>2026-04-05T10:15:58.6Z</time></trkpt><trkpt lat="43.2474906" lon="-8.5867108"><ele>169.2</ele><time>2026-04-05T10:15:59.599Z</time></trkpt><trkpt lat="43.247528" lon="-8.5865713"><ele>169.6</ele><time>2026-04-05T10:16:00.6Z</time></trkpt><trkpt lat="43.2475721" lon="-8.5864195"><ele>170.0</ele><time>2026-04-05T10:16:01.6Z</time></trkpt><trkpt lat="43.2476085" lon="-8.5862678"><ele>170.2</ele><time>2026-04-05T10:16:02.599Z</time></trkpt><trkpt lat="43.2476465" lon="-8.5861166"><ele>170.4</ele><time>2026-04-05T10:16:03.6Z</time></trkpt><trkpt lat="43.2476839" lon="-8.585972"><ele>170.60000000000002</ele><time>2026-04-05T10:16:04.6Z</time></trkpt><trkpt lat="43.2477123" lon="-8.5858463"><ele>170.8</ele><time>2026-04-05T10:16:05.6Z</time></trkpt><trkpt lat="43.2477403" lon="-8.5857279"><ele>171.0</ele><time>2026-04-05T10:16:06.599Z</time></trkpt><trkpt lat="43.2477692" lon="-8.5856007"><ele>171.0</ele><time>2026-04-05T10:16:07.6Z</time></trkpt><trkpt lat="43.2478041" lon="-8.5854678"><ele>171.0</ele><time>2026-04-05T10:16:08.6Z</time></trkpt><trkpt lat="43.2478419" lon="-8.5853251"><ele>171.0</ele><time>2026-04-05T10:16:09.599Z</time></trkpt><trkpt lat="43.2478796" lon="-8.5851839"><ele>171.0</ele><time>2026-04-05T10:16:10.599Z</time></trkpt><trkpt lat="43.2479208" lon="-8.5850353"><ele>171.0</ele><time>2026-04-05T10:16:11.6Z</time></trkpt><trkpt lat="43.247956" lon="-8.584895"><ele>171.20000000000002</ele><time>2026-04-05T10:16:12.6Z</time></trkpt><trkpt lat="43.2479927" lon="-8.5847476"><ele>171.4</ele><time>2026-04-05T10:16:13.599Z</time></trkpt><trkpt lat="43.2480341" lon="-8.5846156"><ele>171.6</ele><time>2026-04-05T10:16:14.6Z</time></trkpt><trkpt lat="43.2480726" lon="-8.5844685"><ele>171.8</ele><time>2026-04-05T10:16:15.599Z</time></trkpt><trkpt lat="43.2481082" lon="-8.5843421"><ele>172.0</ele><time>2026-04-05T10:16:16.6Z</time></trkpt><trkpt lat="43.2481374" lon="-8.5842196"><ele>173.0</ele><time>2026-04-05T10:16:17.599Z</time></trkpt><trkpt lat="43.2481646" lon="-8.5841023"><ele>174.0</ele><time>2026-04-05T10:16:18.599Z</time></trkpt><trkpt lat="43.2481857" lon="-8.5840076"><ele>175.0</ele><time>2026-04-05T10:16:19.599Z</time></trkpt><trkpt lat="43.2482227" lon="-8.5838673"><ele>176.0</ele><time>2026-04-05T10:16:21.599Z</time></trkpt><trkpt lat="43.2482447" lon="-8.5837478"><ele>177.0</ele><time>2026-04-05T10:16:23.6Z</time></trkpt><trkpt lat="43.248257" lon="-8.5836039"><ele>177.33333333333334</ele><time>2026-04-05T10:16:25.599Z</time></trkpt><trkpt lat="43.2482596" lon="-8.5834303"><ele>177.66666666666666</ele><time>2026-04-05T10:16:27.599Z</time></trkpt><trkpt lat="43.2482576" lon="-8.5833329"><ele>178.0</ele><time>2026-04-05T10:16:28.6Z</time></trkpt><trkpt lat="43.248255" lon="-8.5832268"><ele>178.33333333333331</ele><time>2026-04-05T10:16:29.6Z</time></trkpt><trkpt lat="43.248258" lon="-8.5831136"><ele>178.66666666666666</ele><time>2026-04-05T10:16:30.599Z</time></trkpt><trkpt lat="43.2482629" lon="-8.5829943"><ele>179.0</ele><time>2026-04-05T10:16:31.599Z</time></trkpt><trkpt lat="43.2482591" lon="-8.5828781"><ele>179.5</ele><time>2026-04-05T10:16:32.599Z</time></trkpt><trkpt lat="43.2482615" lon="-8.5827671"><ele>180.0</ele><time>2026-04-05T10:16:33.6Z</time></trkpt><trkpt lat="43.2482633" lon="-8.5826521"><ele>180.5</ele><time>2026-04-05T10:16:34.6Z</time></trkpt><trkpt lat="43.2482656" lon="-8.5825416"><ele>181.0</ele><time>2026-04-05T10:16:35.6Z</time></trkpt><trkpt lat="43.2482677" lon="-8.5824367"><ele>181.5</ele><time>2026-04-05T10:16:36.6Z</time></trkpt><trkpt lat="43.2482738" lon="-8.5823377"><ele>182.0</ele><time>2026-04-05T10:16:37.6Z</time></trkpt><trkpt lat="43.2482735" lon="-8.5822402"><ele>182.0</ele><time>2026-04-05T10:16:38.6Z</time></trkpt><trkpt lat="43.2482745" lon="-8.5821403"><ele>182.0</ele><time>2026-04-05T10:16:39.6Z</time></trkpt><trkpt lat="43.2482737" lon="-8.5820334"><ele>182.0</ele><time>2026-04-05T10:16:40.6Z</time></trkpt><trkpt lat="43.2482771" lon="-8.5819271"><ele>182.0</ele><time>2026-04-05T10:16:41.6Z</time></trkpt><trkpt lat="43.2482769" lon="-8.5818219"><ele>182.0</ele><time>2026-04-05T10:16:42.6Z</time></trkpt><trkpt lat="43.2482781" lon="-8.5817253"><ele>182.0</ele><time>2026-04-05T10:16:43.599Z</time></trkpt><trkpt lat="43.2482792" lon="-8.5816347"><ele>182.0</ele><time>2026-04-05T10:16:44.6Z</time></trkpt><trkpt lat="43.2482798" lon="-8.5815469"><ele>182.0</ele><time>2026-04-05T10:16:45.6Z</time></trkpt><trkpt lat="43.2482766" lon="-8.5814027"><ele>182.0</ele><time>2026-04-05T10:16:47.6Z</time></trkpt><trkpt lat="43.2482696" lon="-8.5813033"><ele>182.0</ele><time>2026-04-05T10:16:58.6Z</time></trkpt><trkpt lat="43.2483941" lon="-8.5813081"><ele>182.0</ele><time>2026-04-05T10:17:01.6Z</time></trkpt><trkpt lat="43.2484616" lon="-8.5813713"><ele>182.0</ele><time>2026-04-05T10:17:02.6Z</time></trkpt><trkpt lat="43.248536" lon="-8.5814412"><ele>182.0</ele><time>2026-04-05T10:17:03.6Z</time></trkpt><trkpt lat="43.248617" lon="-8.5815045"><ele>182.0</ele><time>2026-04-05T10:17:04.6Z</time></trkpt><trkpt lat="43.248709" lon="-8.5815868"><ele>182.0</ele><time>2026-04-05T10:17:05.6Z</time></trkpt><trkpt lat="43.2488017" lon="-8.5816577"><ele>182.0</ele><time>2026-04-05T10:17:06.599Z</time></trkpt><trkpt lat="43.2488957" lon="-8.5817425"><ele>182.0</ele><time>2026-04-05T10:17:07.6Z</time></trkpt><trkpt lat="43.2489932" lon="-8.5818283"><ele>181.5</ele><time>2026-04-05T10:17:08.6Z</time></trkpt><trkpt lat="43.2490946" lon="-8.5819105"><ele>181.0</ele><time>2026-04-05T10:17:09.599Z</time></trkpt><trkpt lat="43.2492008" lon="-8.5819918"><ele>180.5</ele><time>2026-04-05T10:17:10.599Z</time></trkpt><trkpt lat="43.2493068" lon="-8.5820765"><ele>180.0</ele><time>2026-04-05T10:17:11.599Z</time></trkpt><trkpt lat="43.2494035" lon="-8.582161"><ele>180.0</ele><time>2026-04-05T10:17:12.599Z</time></trkpt><trkpt lat="43.2495007" lon="-8.5822397"><ele>180.0</ele><time>2026-04-05T10:17:13.6Z</time></trkpt><trkpt lat="43.2495948" lon="-8.5823185"><ele>180.0</ele><time>2026-04-05T10:17:14.6Z</time></trkpt><trkpt lat="43.2496832" lon="-8.5823966"><ele>180.0</ele><time>2026-04-05T10:17:15.6Z</time></trkpt><trkpt lat="43.2497739" lon="-8.5824649"><ele>180.0</ele><time>2026-04-05T10:17:16.599Z</time></trkpt><trkpt lat="43.2498622" lon="-8.5825397"><ele>178.8</ele><time>2026-04-05T10:17:17.599Z</time></trkpt><trkpt lat="43.2499547" lon="-8.5826131"><ele>177.6</ele><time>2026-04-05T10:17:18.599Z</time></trkpt><trkpt lat="43.2500434" lon="-8.5826922"><ele>176.39999999999998</ele><time>2026-04-05T10:17:19.6Z</time></trkpt><trkpt lat="43.2501351" lon="-8.5827689"><ele>175.2</ele><time>2026-04-05T10:17:20.6Z</time></trkpt><trkpt lat="43.2502284" lon="-8.5828454"><ele>174.0</ele><time>2026-04-05T10:17:21.6Z</time></trkpt><trkpt lat="43.2503219" lon="-8.5829206"><ele>174.0</ele><time>2026-04-05T10:17:22.599Z</time></trkpt><trkpt lat="43.2504153" lon="-8.5829951"><ele>174.0</ele><time>2026-04-05T10:17:23.599Z</time></trkpt><trkpt lat="43.2505019" lon="-8.5830672"><ele>174.0</ele><time>2026-04-05T10:17:24.6Z</time></trkpt><trkpt lat="43.2505805" lon="-8.5831325"><ele>174.0</ele><time>2026-04-05T10:17:25.599Z</time></trkpt><trkpt lat="43.2506632" lon="-8.5832051"><ele>174.0</ele><time>2026-04-05T10:17:26.599Z</time></trkpt><trkpt lat="43.2507546" lon="-8.583282"><ele>173.0</ele><time>2026-04-05T10:17:27.599Z</time></trkpt><trkpt lat="43.250855" lon="-8.5833698"><ele>172.0</ele><time>2026-04-05T10:17:28.6Z</time></trkpt><trkpt lat="43.2509552" lon="-8.5834499"><ele>171.0</ele><time>2026-04-05T10:17:29.6Z</time></trkpt><trkpt lat="43.2510484" lon="-8.5835282"><ele>170.0</ele><time>2026-04-05T10:17:30.6Z</time></trkpt><trkpt lat="43.2511384" lon="-8.5835956"><ele>169.0</ele><time>2026-04-05T10:17:31.6Z</time></trkpt><trkpt lat="43.2512178" lon="-8.5836623"><ele>169.16666666666669</ele><time>2026-04-05T10:17:32.599Z</time></trkpt><trkpt lat="43.2512884" lon="-8.5837247"><ele>169.33333333333334</ele><time>2026-04-05T10:17:33.6Z</time></trkpt><trkpt lat="43.2513534" lon="-8.5837769"><ele>169.5</ele><time>2026-04-05T10:17:34.6Z</time></trkpt><trkpt lat="43.2514157" lon="-8.5838251"><ele>169.66666666666666</ele><time>2026-04-05T10:17:35.6Z</time></trkpt><trkpt lat="43.2514702" lon="-8.5838738"><ele>169.83333333333331</ele><time>2026-04-05T10:17:36.6Z</time></trkpt><trkpt lat="43.2515251" lon="-8.5839194"><ele>170.0</ele><time>2026-04-05T10:17:37.6Z</time></trkpt><trkpt lat="43.2516222" lon="-8.5839973"><ele>170.0</ele><time>2026-04-05T10:17:39.6Z</time></trkpt><trkpt lat="43.2516401" lon="-8.5840826"><ele>170.0</ele><time>2026-04-05T10:17:41.6Z</time></trkpt><trkpt lat="43.2515735" lon="-8.5839988"><ele>170.0</ele><time>2026-04-05T10:17:45.6Z</time></trkpt><trkpt lat="43.2514773" lon="-8.5839001"><ele>170.0</ele><time>2026-04-05T10:17:47.6Z</time></trkpt><trkpt lat="43.2514036" lon="-8.5838405"><ele>170.0</ele><time>2026-04-05T10:17:48.6Z</time></trkpt><trkpt lat="43.2513288" lon="-8.5837763"><ele>170.0</ele><time>2026-04-05T10:17:49.599Z</time></trkpt><trkpt lat="43.2512539" lon="-8.5837062"><ele>169.8</ele><time>2026-04-05T10:17:50.6Z</time></trkpt><trkpt lat="43.2511743" lon="-8.5836359"><ele>169.6</ele><time>2026-04-05T10:17:51.599Z</time></trkpt><trkpt lat="43.2510894" lon="-8.5835638"><ele>169.39999999999998</ele><time>2026-04-05T10:17:52.6Z</time></trkpt><trkpt lat="43.250996" lon="-8.5834909"><ele>169.2</ele><time>2026-04-05T10:17:53.6Z</time></trkpt><trkpt lat="43.2508955" lon="-8.583411"><ele>169.0</ele><time>2026-04-05T10:17:54.6Z</time></trkpt><trkpt lat="43.2507999" lon="-8.5833295"><ele>169.0</ele><time>2026-04-05T10:17:55.6Z</time></trkpt><trkpt lat="43.2507208" lon="-8.5832646"><ele>169.0</ele><time>2026-04-05T10:17:56.599Z</time></trkpt><trkpt lat="43.2506545" lon="-8.5832102"><ele>169.0</ele><time>2026-04-05T10:17:57.6Z</time></trkpt><trkpt lat="43.2505817" lon="-8.5831234"><ele>169.0</ele><time>2026-04-05T10:17:59.6Z</time></trkpt><trkpt lat="43.2506095" lon="-8.5830097"><ele>169.0</ele><time>2026-04-05T10:18:01.6Z</time></trkpt><trkpt lat="43.2507118" lon="-8.5828895"><ele>168.75</ele><time>2026-04-05T10:18:03.6Z</time></trkpt><trkpt lat="43.2507961" lon="-8.5828046"><ele>168.5</ele><time>2026-04-05T10:18:04.6Z</time></trkpt><trkpt lat="43.2508915" lon="-8.582716"><ele>168.25</ele><time>2026-04-05T10:18:05.6Z</time></trkpt><trkpt lat="43.2509972" lon="-8.5826279"><ele>168.0</ele><time>2026-04-05T10:18:06.6Z</time></trkpt><trkpt lat="43.2511113" lon="-8.5825474"><ele>168.0</ele><time>2026-04-05T10:18:07.6Z</time></trkpt><trkpt lat="43.2512372" lon="-8.5824726"><ele>168.0</ele><time>2026-04-05T10:18:08.6Z</time></trkpt><trkpt lat="43.251372" lon="-8.5823949"><ele>168.0</ele><time>2026-04-05T10:18:09.6Z</time></trkpt><trkpt lat="43.2515071" lon="-8.5823106"><ele>168.0</ele><time>2026-04-05T10:18:10.599Z</time></trkpt><trkpt lat="43.2516428" lon="-8.5822383"><ele>166.5</ele><time>2026-04-05T10:18:11.599Z</time></trkpt><trkpt lat="43.2517863" lon="-8.5822011"><ele>165.0</ele><time>2026-04-05T10:18:12.599Z</time></trkpt><trkpt lat="43.2519293" lon="-8.5822197"><ele>163.5</ele><time>2026-04-05T10:18:13.6Z</time></trkpt><trkpt lat="43.2520598" lon="-8.5822897"><ele>162.0</ele><time>2026-04-05T10:18:14.6Z</time></trkpt><trkpt lat="43.2521787" lon="-8.5823948"><ele>162.5</ele><time>2026-04-05T10:18:15.6Z</time></trkpt><trkpt lat="43.2522949" lon="-8.5825038"><ele>163.0</ele><time>2026-04-05T10:18:16.599Z</time></trkpt><trkpt lat="43.2524244" lon="-8.582577"><ele>163.5</ele><time>2026-04-05T10:18:17.6Z</time></trkpt><trkpt lat="43.2525557" lon="-8.5826123"><ele>164.0</ele><time>2026-04-05T10:18:18.6Z</time></trkpt><trkpt lat="43.2526753" lon="-8.5826468"><ele>164.0</ele><time>2026-04-05T10:18:19.6Z</time></trkpt><trkpt lat="43.2527745" lon="-8.5827289"><ele>164.0</ele><time>2026-04-05T10:18:20.6Z</time></trkpt><trkpt lat="43.252845" lon="-8.5828642"><ele>164.0</ele><time>2026-04-05T10:18:21.6Z</time></trkpt><trkpt lat="43.2529221" lon="-8.5830141"><ele>164.0</ele><time>2026-04-05T10:18:22.6Z</time></trkpt><trkpt lat="43.2530298" lon="-8.5831556"><ele>166.0</ele><time>2026-04-05T10:18:23.6Z</time></trkpt><trkpt lat="43.2531629" lon="-8.5832919"><ele>168.0</ele><time>2026-04-05T10:18:24.6Z</time></trkpt><trkpt lat="43.2533193" lon="-8.5834142"><ele>170.0</ele><time>2026-04-05T10:18:25.6Z</time></trkpt><trkpt lat="43.2534922" lon="-8.5835334"><ele>170.0</ele><time>2026-04-05T10:18:26.6Z</time></trkpt><trkpt lat="43.2536689" lon="-8.5836391"><ele>170.0</ele><time>2026-04-05T10:18:27.6Z</time></trkpt><trkpt lat="43.25384" lon="-8.5837275"><ele>170.0</ele><time>2026-04-05T10:18:28.6Z</time></trkpt><trkpt lat="43.2540024" lon="-8.5837917"><ele>169.25</ele><time>2026-04-05T10:18:29.6Z</time></trkpt><trkpt lat="43.2541487" lon="-8.5838513"><ele>168.5</ele><time>2026-04-05T10:18:30.599Z</time></trkpt><trkpt lat="43.2542818" lon="-8.5839287"><ele>167.75</ele><time>2026-04-05T10:18:31.599Z</time></trkpt><trkpt lat="43.2543957" lon="-8.5840465"><ele>167.0</ele><time>2026-04-05T10:18:32.6Z</time></trkpt><trkpt lat="43.2544801" lon="-8.5842076"><ele>167.0</ele><time>2026-04-05T10:18:33.599Z</time></trkpt><trkpt lat="43.2545538" lon="-8.5843976"><ele>167.0</ele><time>2026-04-05T10:18:34.599Z</time></trkpt><trkpt lat="43.2546442" lon="-8.584587"><ele>167.0</ele><time>2026-04-05T10:18:35.6Z</time></trkpt><trkpt lat="43.2547528" lon="-8.5847459"><ele>166.0</ele><time>2026-04-05T10:18:36.599Z</time></trkpt><trkpt lat="43.2548857" lon="-8.5848541"><ele>165.0</ele><time>2026-04-05T10:18:37.599Z</time></trkpt><trkpt lat="43.2550369" lon="-8.584891"><ele>164.0</ele><time>2026-04-05T10:18:38.6Z</time></trkpt><trkpt lat="43.2552067" lon="-8.5848991"><ele>164.0</ele><time>2026-04-05T10:18:39.599Z</time></trkpt><trkpt lat="43.255392" lon="-8.5849047"><ele>164.0</ele><time>2026-04-05T10:18:40.6Z</time></trkpt><trkpt lat="43.2555907" lon="-8.5849186"><ele>164.0</ele><time>2026-04-05T10:18:41.599Z</time></trkpt><trkpt lat="43.2557989" lon="-8.58495"><ele>163.33333333333331</ele><time>2026-04-05T10:18:42.6Z</time></trkpt><trkpt lat="43.2560057" lon="-8.5849955"><ele>162.66666666666666</ele><time>2026-04-05T10:18:43.599Z</time></trkpt><trkpt lat="43.2562144" lon="-8.5850619"><ele>162.0</ele><time>2026-04-05T10:18:44.6Z</time></trkpt><trkpt lat="43.2564223" lon="-8.5851377"><ele>162.33333333333334</ele><time>2026-04-05T10:18:45.599Z</time></trkpt><trkpt lat="43.256628" lon="-8.5852355"><ele>162.66666666666669</ele><time>2026-04-05T10:18:46.6Z</time></trkpt><trkpt lat="43.2568294" lon="-8.5853609"><ele>163.0</ele><time>2026-04-05T10:18:47.6Z</time></trkpt><trkpt lat="43.2570257" lon="-8.5855035"><ele>163.0</ele><time>2026-04-05T10:18:48.6Z</time></trkpt><trkpt lat="43.2572219" lon="-8.5856546"><ele>163.0</ele><time>2026-04-05T10:18:49.6Z</time></trkpt><trkpt lat="43.2574172" lon="-8.5857993"><ele>163.0</ele><time>2026-04-05T10:18:50.6Z</time></trkpt><trkpt lat="43.257605" lon="-8.5859379"><ele>162.0</ele><time>2026-04-05T10:18:51.6Z</time></trkpt><trkpt lat="43.2577943" lon="-8.5860712"><ele>161.0</ele><time>2026-04-05T10:18:52.6Z</time></trkpt><trkpt lat="43.2579799" lon="-8.5862018"><ele>160.0</ele><time>2026-04-05T10:18:53.6Z</time></trkpt><trkpt lat="43.2581618" lon="-8.5863281"><ele>162.33333333333334</ele><time>2026-04-05T10:18:54.6Z</time></trkpt><trkpt lat="43.2583449" lon="-8.5864636"><ele>164.66666666666666</ele><time>2026-04-05T10:18:55.6Z</time></trkpt><trkpt lat="43.258514" lon="-8.5865811"><ele>167.0</ele><time>2026-04-05T10:18:56.6Z</time></trkpt><trkpt lat="43.258675" lon="-8.5866903"><ele>167.0</ele><time>2026-04-05T10:18:57.6Z</time></trkpt><trkpt lat="43.2588212" lon="-8.5867903"><ele>167.0</ele><time>2026-04-05T10:18:58.6Z</time></trkpt><trkpt lat="43.2589445" lon="-8.5868764"><ele>167.0</ele><time>2026-04-05T10:18:59.6Z</time></trkpt><trkpt lat="43.2590531" lon="-8.5869486"><ele>167.0</ele><time>2026-04-05T10:19:00.6Z</time></trkpt><trkpt lat="43.2591494" lon="-8.5870108"><ele>167.2</ele><time>2026-04-05T10:19:01.6Z</time></trkpt><trkpt lat="43.2592362" lon="-8.5870591"><ele>167.39999999999998</ele><time>2026-04-05T10:19:02.6Z</time></trkpt><trkpt lat="43.2593145" lon="-8.5871114"><ele>167.60000000000002</ele><time>2026-04-05T10:19:03.6Z</time></trkpt><trkpt lat="43.2593956" lon="-8.587172"><ele>167.8</ele><time>2026-04-05T10:19:04.6Z</time></trkpt><trkpt lat="43.2594842" lon="-8.5872342"><ele>168.0</ele><time>2026-04-05T10:19:05.6Z</time></trkpt><trkpt lat="43.2595821" lon="-8.5873002"><ele>168.0</ele><time>2026-04-05T10:19:06.599Z</time></trkpt><trkpt lat="43.2596876" lon="-8.5873672"><ele>168.0</ele><time>2026-04-05T10:19:07.6Z</time></trkpt><trkpt lat="43.2597964" lon="-8.5874415"><ele>168.0</ele><time>2026-04-05T10:19:08.6Z</time></trkpt><trkpt lat="43.2599117" lon="-8.5875215"><ele>168.0</ele><time>2026-04-05T10:19:09.599Z</time></trkpt><trkpt lat="43.2600304" lon="-8.5876029"><ele>168.5</ele><time>2026-04-05T10:19:10.6Z</time></trkpt><trkpt lat="43.2601442" lon="-8.5876943"><ele>169.0</ele><time>2026-04-05T10:19:11.6Z</time></trkpt><trkpt lat="43.2602523" lon="-8.5877869"><ele>169.5</ele><time>2026-04-05T10:19:12.6Z</time></trkpt><trkpt lat="43.2603614" lon="-8.5878602"><ele>170.0</ele><time>2026-04-05T10:19:13.6Z</time></trkpt><trkpt lat="43.2604737" lon="-8.587899"><ele>170.0</ele><time>2026-04-05T10:19:14.599Z</time></trkpt><trkpt lat="43.260587" lon="-8.5879175"><ele>170.0</ele><time>2026-04-05T10:19:15.599Z</time></trkpt><trkpt lat="43.2607063" lon="-8.5879254"><ele>170.0</ele><time>2026-04-05T10:19:16.599Z</time></trkpt><trkpt lat="43.2608275" lon="-8.5879341"><ele>170.0</ele><time>2026-04-05T10:19:17.6Z</time></trkpt><trkpt lat="43.2609491" lon="-8.5879422"><ele>170.5</ele><time>2026-04-05T10:19:18.6Z</time></trkpt><trkpt lat="43.2610692" lon="-8.5879434"><ele>171.0</ele><time>2026-04-05T10:19:19.6Z</time></trkpt><trkpt lat="43.2611897" lon="-8.587948"><ele>171.5</ele><time>2026-04-05T10:19:20.599Z</time></trkpt><trkpt lat="43.2613117" lon="-8.5879434"><ele>172.0</ele><time>2026-04-05T10:19:21.599Z</time></trkpt><trkpt lat="43.2614316" lon="-8.5879333"><ele>172.0</ele><time>2026-04-05T10:19:22.6Z</time></trkpt><trkpt lat="43.261548" lon="-8.5879016"><ele>172.0</ele><time>2026-04-05T10:19:23.599Z</time></trkpt><trkpt lat="43.2616556" lon="-8.5878625"><ele>172.0</ele><time>2026-04-05T10:19:24.599Z</time></trkpt><trkpt lat="43.2617454" lon="-8.5878181"><ele>172.0</ele><time>2026-04-05T10:19:25.6Z</time></trkpt><trkpt lat="43.2618255" lon="-8.5877681"><ele>172.0</ele><time>2026-04-05T10:19:26.599Z</time></trkpt><trkpt lat="43.2619043" lon="-8.5877183"><ele>172.5</ele><time>2026-04-05T10:19:27.599Z</time></trkpt><trkpt lat="43.2620012" lon="-8.5876642"><ele>173.0</ele><time>2026-04-05T10:19:28.6Z</time></trkpt><trkpt lat="43.2621172" lon="-8.5875867"><ele>173.5</ele><time>2026-04-05T10:19:29.6Z</time></trkpt><trkpt lat="43.2622536" lon="-8.5874796"><ele>174.0</ele><time>2026-04-05T10:19:30.6Z</time></trkpt><trkpt lat="43.2623939" lon="-8.5873565"><ele>174.0</ele><time>2026-04-05T10:19:31.599Z</time></trkpt><trkpt lat="43.2625388" lon="-8.5872426"><ele>174.0</ele><time>2026-04-05T10:19:32.6Z</time></trkpt><trkpt lat="43.2626922" lon="-8.5871288"><ele>174.0</ele><time>2026-04-05T10:19:33.6Z</time></trkpt><trkpt lat="43.2628446" lon="-8.5870211"><ele>174.25</ele><time>2026-04-05T10:19:34.6Z</time></trkpt><trkpt lat="43.2629879" lon="-8.5869228"><ele>174.5</ele><time>2026-04-05T10:19:35.6Z</time></trkpt><trkpt lat="43.2631209" lon="-8.5868384"><ele>174.75</ele><time>2026-04-05T10:19:36.6Z</time></trkpt><trkpt lat="43.2632441" lon="-8.5867626"><ele>175.0</ele><time>2026-04-05T10:19:37.599Z</time></trkpt><trkpt lat="43.2633543" lon="-8.5866975"><ele>175.25</ele><time>2026-04-05T10:19:38.6Z</time></trkpt><trkpt lat="43.2634605" lon="-8.5866316"><ele>175.5</ele><time>2026-04-05T10:19:39.599Z</time></trkpt><trkpt lat="43.263574" lon="-8.5865679"><ele>175.75</ele><time>2026-04-05T10:19:40.599Z</time></trkpt><trkpt lat="43.263701" lon="-8.5865"><ele>176.0</ele><time>2026-04-05T10:19:41.6Z</time></trkpt><trkpt lat="43.2638426" lon="-8.5864293"><ele>176.0</ele><time>2026-04-05T10:19:42.6Z</time></trkpt><trkpt lat="43.263996" lon="-8.5863555"><ele>176.0</ele><time>2026-04-05T10:19:43.6Z</time></trkpt><trkpt lat="43.2641559" lon="-8.5862711"><ele>176.0</ele><time>2026-04-05T10:19:44.599Z</time></trkpt><trkpt lat="43.2643242" lon="-8.5861803"><ele>176.0</ele><time>2026-04-05T10:19:45.6Z</time></trkpt><trkpt lat="43.2645032" lon="-8.5860879"><ele>176.0</ele><time>2026-04-05T10:19:46.6Z</time></trkpt><trkpt lat="43.2646807" lon="-8.585996"><ele>176.0</ele><time>2026-04-05T10:19:47.6Z</time></trkpt><trkpt lat="43.2648468" lon="-8.5859123"><ele>176.0</ele><time>2026-04-05T10:19:48.6Z</time></trkpt><trkpt lat="43.2650011" lon="-8.5858358"><ele>176.0</ele><time>2026-04-05T10:19:49.6Z</time></trkpt><trkpt lat="43.2651487" lon="-8.5857665"><ele>176.0</ele><time>2026-04-05T10:19:50.599Z</time></trkpt><trkpt lat="43.2652879" lon="-8.5857039"><ele>176.0</ele><time>2026-04-05T10:19:51.6Z</time></trkpt><trkpt lat="43.2654162" lon="-8.5856564"><ele>176.0</ele><time>2026-04-05T10:19:52.6Z</time></trkpt><trkpt lat="43.2655393" lon="-8.5856203"><ele>176.0</ele><time>2026-04-05T10:19:53.599Z</time></trkpt><trkpt lat="43.2656691" lon="-8.5855978"><ele>176.0</ele><time>2026-04-05T10:19:54.599Z</time></trkpt><trkpt lat="43.2658154" lon="-8.5855823"><ele>176.0</ele><time>2026-04-05T10:19:55.6Z</time></trkpt><trkpt lat="43.2659541" lon="-8.585574"><ele>176.0</ele><time>2026-04-05T10:19:56.6Z</time></trkpt><trkpt lat="43.2661027" lon="-8.5855701"><ele>176.0</ele><time>2026-04-05T10:19:57.599Z</time></trkpt><trkpt lat="43.2662364" lon="-8.5855646"><ele>176.0</ele><time>2026-04-05T10:19:58.6Z</time></trkpt><trkpt lat="43.2663501" lon="-8.585565"><ele>176.0</ele><time>2026-04-05T10:19:59.6Z</time></trkpt><trkpt lat="43.2664491" lon="-8.5855668"><ele>176.0</ele><time>2026-04-05T10:20:00.6Z</time></trkpt><trkpt lat="43.2665216" lon="-8.5855752"><ele>176.0</ele><time>2026-04-05T10:20:01.6Z</time></trkpt><trkpt lat="43.2665938" lon="-8.5855876"><ele>176.0</ele><time>2026-04-05T10:20:03.6Z</time></trkpt><trkpt lat="43.2666472" lon="-8.5857414"><ele>176.0</ele><time>2026-04-05T10:20:06.599Z</time></trkpt><trkpt lat="43.266662" lon="-8.5858802"><ele>176.0</ele><time>2026-04-05T10:20:07.6Z</time></trkpt><trkpt lat="43.266679" lon="-8.5860308"><ele>176.0</ele><time>2026-04-05T10:20:08.6Z</time></trkpt><trkpt lat="43.2667008" lon="-8.5861976"><ele>176.0</ele><time>2026-04-05T10:20:09.6Z</time></trkpt><trkpt lat="43.2667425" lon="-8.5863746"><ele>176.0</ele><time>2026-04-05T10:20:10.6Z</time></trkpt><trkpt lat="43.2667937" lon="-8.5865663"><ele>175.5</ele><time>2026-04-05T10:20:11.6Z</time></trkpt><trkpt lat="43.2668451" lon="-8.5867575"><ele>175.0</ele><time>2026-04-05T10:20:12.6Z</time></trkpt><trkpt lat="43.2669031" lon="-8.5869473"><ele>174.5</ele><time>2026-04-05T10:20:13.6Z</time></trkpt><trkpt lat="43.2669744" lon="-8.5871302"><ele>174.0</ele><time>2026-04-05T10:20:14.6Z</time></trkpt><trkpt lat="43.267064" lon="-8.5873081"><ele>174.0</ele><time>2026-04-05T10:20:15.6Z</time></trkpt><trkpt lat="43.2671717" lon="-8.587486"><ele>174.0</ele><time>2026-04-05T10:20:16.6Z</time></trkpt><trkpt lat="43.2672939" lon="-8.5876521"><ele>174.0</ele><time>2026-04-05T10:20:17.6Z</time></trkpt><trkpt lat="43.2674184" lon="-8.5878265"><ele>174.66666666666666</ele><time>2026-04-05T10:20:18.599Z</time></trkpt><trkpt lat="43.267543" lon="-8.5880051"><ele>175.33333333333331</ele><time>2026-04-05T10:20:19.6Z</time></trkpt><trkpt lat="43.2676633" lon="-8.5881774"><ele>176.0</ele><time>2026-04-05T10:20:20.6Z</time></trkpt><trkpt lat="43.2677862" lon="-8.5883561"><ele>176.0</ele><time>2026-04-05T10:20:21.6Z</time></trkpt><trkpt lat="43.267911" lon="-8.5885359"><ele>176.0</ele><time>2026-04-05T10:20:22.6Z</time></trkpt><trkpt lat="43.2680381" lon="-8.5887172"><ele>176.0</ele><time>2026-04-05T10:20:23.6Z</time></trkpt><trkpt lat="43.2681636" lon="-8.5888967"><ele>176.0</ele><time>2026-04-05T10:20:24.6Z</time></trkpt><trkpt lat="43.2682814" lon="-8.5890711"><ele>176.0</ele><time>2026-04-05T10:20:25.6Z</time></trkpt><trkpt lat="43.2684023" lon="-8.5892433"><ele>176.0</ele><time>2026-04-05T10:20:26.6Z</time></trkpt><trkpt lat="43.2685219" lon="-8.5894131"><ele>176.33333333333331</ele><time>2026-04-05T10:20:27.6Z</time></trkpt><trkpt lat="43.2686439" lon="-8.5895839"><ele>176.66666666666666</ele><time>2026-04-05T10:20:28.6Z</time></trkpt><trkpt lat="43.268769" lon="-8.5897376"><ele>177.0</ele><time>2026-04-05T10:20:29.6Z</time></trkpt><trkpt lat="43.2689062" lon="-8.589871"><ele>177.33333333333334</ele><time>2026-04-05T10:20:30.599Z</time></trkpt><trkpt lat="43.2690508" lon="-8.5899873"><ele>177.66666666666669</ele><time>2026-04-05T10:20:31.6Z</time></trkpt><trkpt lat="43.2692064" lon="-8.590082"><ele>178.0</ele><time>2026-04-05T10:20:32.599Z</time></trkpt><trkpt lat="43.2693835" lon="-8.5901764"><ele>178.0</ele><time>2026-04-05T10:20:33.6Z</time></trkpt><trkpt lat="43.2695694" lon="-8.590273"><ele>178.0</ele><time>2026-04-05T10:20:34.599Z</time></trkpt><trkpt lat="43.2697618" lon="-8.590373"><ele>178.0</ele><time>2026-04-05T10:20:35.6Z</time></trkpt><trkpt lat="43.2699594" lon="-8.5904802"><ele>179.66666666666669</ele><time>2026-04-05T10:20:36.6Z</time></trkpt><trkpt lat="43.2701727" lon="-8.5905822"><ele>181.33333333333334</ele><time>2026-04-05T10:20:37.6Z</time></trkpt><trkpt lat="43.2703822" lon="-8.5906749"><ele>183.0</ele><time>2026-04-05T10:20:38.6Z</time></trkpt><trkpt lat="43.2705898" lon="-8.5907607"><ele>183.66666666666666</ele><time>2026-04-05T10:20:39.6Z</time></trkpt><trkpt lat="43.2707876" lon="-8.590858"><ele>184.33333333333331</ele><time>2026-04-05T10:20:40.6Z</time></trkpt><trkpt lat="43.2709825" lon="-8.5909548"><ele>185.0</ele><time>2026-04-05T10:20:41.6Z</time></trkpt><trkpt lat="43.2711797" lon="-8.5910511"><ele>185.0</ele><time>2026-04-05T10:20:42.6Z</time></trkpt><trkpt lat="43.2713751" lon="-8.5911454"><ele>185.0</ele><time>2026-04-05T10:20:43.6Z</time></trkpt><trkpt lat="43.2715704" lon="-8.5912359"><ele>185.0</ele><time>2026-04-05T10:20:44.599Z</time></trkpt><trkpt lat="43.2717704" lon="-8.5913196"><ele>186.66666666666666</ele><time>2026-04-05T10:20:45.6Z</time></trkpt><trkpt lat="43.2719674" lon="-8.591387"><ele>188.33333333333334</ele><time>2026-04-05T10:20:46.6Z</time></trkpt><trkpt lat="43.2721653" lon="-8.5914357"><ele>190.0</ele><time>2026-04-05T10:20:47.6Z</time></trkpt><trkpt lat="43.2723674" lon="-8.5914759"><ele>191.66666666666669</ele><time>2026-04-05T10:20:48.6Z</time></trkpt><trkpt lat="43.2725721" lon="-8.5915276"><ele>193.33333333333334</ele><time>2026-04-05T10:20:49.6Z</time></trkpt><trkpt lat="43.2727813" lon="-8.5915663"><ele>195.0</ele><time>2026-04-05T10:20:50.6Z</time></trkpt><trkpt lat="43.2729913" lon="-8.5916104"><ele>194.66666666666669</ele><time>2026-04-05T10:20:51.6Z</time></trkpt><trkpt lat="43.2731975" lon="-8.5916475"><ele>194.33333333333334</ele><time>2026-04-05T10:20:52.599Z</time></trkpt><trkpt lat="43.2734122" lon="-8.5916925"><ele>194.0</ele><time>2026-04-05T10:20:53.6Z</time></trkpt><trkpt lat="43.2736322" lon="-8.5917359"><ele>194.0</ele><time>2026-04-05T10:20:54.599Z</time></trkpt><trkpt lat="43.2738525" lon="-8.5917779"><ele>194.0</ele><time>2026-04-05T10:20:55.6Z</time></trkpt><trkpt lat="43.2740743" lon="-8.5918229"><ele>194.0</ele><time>2026-04-05T10:20:56.599Z</time></trkpt><trkpt lat="43.2742959" lon="-8.5918604"><ele>195.0</ele><time>2026-04-05T10:20:57.6Z</time></trkpt><trkpt lat="43.2745195" lon="-8.5919087"><ele>196.0</ele><time>2026-04-05T10:20:58.6Z</time></trkpt><trkpt lat="43.2747431" lon="-8.5919576"><ele>197.33333333333331</ele><time>2026-04-05T10:20:59.6Z</time></trkpt><trkpt lat="43.2749637" lon="-8.5920069"><ele>198.66666666666669</ele><time>2026-04-05T10:21:00.6Z</time></trkpt><trkpt lat="43.2751809" lon="-8.5920555"><ele>200.0</ele><time>2026-04-05T10:21:01.599Z</time></trkpt><trkpt lat="43.2753933" lon="-8.5920944"><ele>202.0</ele><time>2026-04-05T10:21:02.6Z</time></trkpt><trkpt lat="43.2756042" lon="-8.5921086"><ele>204.0</ele><time>2026-04-05T10:21:03.6Z</time></trkpt><trkpt lat="43.2758162" lon="-8.5920998"><ele>206.0</ele><time>2026-04-05T10:21:04.6Z</time></trkpt><trkpt lat="43.2760245" lon="-8.5920738"><ele>206.0</ele><time>2026-04-05T10:21:05.599Z</time></trkpt><trkpt lat="43.2762379" lon="-8.5920393"><ele>206.0</ele><time>2026-04-05T10:21:06.6Z</time></trkpt><trkpt lat="43.2764515" lon="-8.5920041"><ele>206.0</ele><time>2026-04-05T10:21:07.6Z</time></trkpt><trkpt lat="43.2766695" lon="-8.5919638"><ele>208.33333333333334</ele><time>2026-04-05T10:21:08.6Z</time></trkpt><trkpt lat="43.2768956" lon="-8.5919297"><ele>210.66666666666669</ele><time>2026-04-05T10:21:09.6Z</time></trkpt><trkpt lat="43.2771058" lon="-8.5918949"><ele>213.0</ele><time>2026-04-05T10:21:10.6Z</time></trkpt><trkpt lat="43.277331" lon="-8.5918774"><ele>214.0</ele><time>2026-04-05T10:21:11.6Z</time></trkpt><trkpt lat="43.2775486" lon="-8.5918477"><ele>215.0</ele><time>2026-04-05T10:21:12.6Z</time></trkpt><trkpt lat="43.2777655" lon="-8.5918181"><ele>216.0</ele><time>2026-04-05T10:21:13.6Z</time></trkpt><trkpt lat="43.2779837" lon="-8.5917914"><ele>217.66666666666669</ele><time>2026-04-05T10:21:14.599Z</time></trkpt><trkpt lat="43.2781951" lon="-8.591757"><ele>219.33333333333334</ele><time>2026-04-05T10:21:15.6Z</time></trkpt><trkpt lat="43.2784011" lon="-8.5917228"><ele>221.0</ele><time>2026-04-05T10:21:16.599Z</time></trkpt><trkpt lat="43.2786091" lon="-8.5916891"><ele>221.0</ele><time>2026-04-05T10:21:17.6Z</time></trkpt><trkpt lat="43.2788181" lon="-8.5916496"><ele>221.0</ele><time>2026-04-05T10:21:18.599Z</time></trkpt><trkpt lat="43.279025" lon="-8.5916121"><ele>221.0</ele><time>2026-04-05T10:21:19.6Z</time></trkpt><trkpt lat="43.2792209" lon="-8.5915781"><ele>221.0</ele><time>2026-04-05T10:21:20.6Z</time></trkpt><trkpt lat="43.2794255" lon="-8.5915457"><ele>221.0</ele><time>2026-04-05T10:21:21.6Z</time></trkpt><trkpt lat="43.2796272" lon="-8.5915412"><ele>221.0</ele><time>2026-04-05T10:21:22.6Z</time></trkpt><trkpt lat="43.2798389" lon="-8.591563"><ele>221.0</ele><time>2026-04-05T10:21:23.6Z</time></trkpt><trkpt lat="43.2800504" lon="-8.5916027"><ele>221.0</ele><time>2026-04-05T10:21:24.6Z</time></trkpt><trkpt lat="43.280272" lon="-8.5916318"><ele>221.0</ele><time>2026-04-05T10:21:25.6Z</time></trkpt><trkpt lat="43.2805025" lon="-8.5916608"><ele>221.0</ele><time>2026-04-05T10:21:26.599Z</time></trkpt><trkpt lat="43.2807342" lon="-8.5916898"><ele>221.0</ele><time>2026-04-05T10:21:27.599Z</time></trkpt><trkpt lat="43.2809651" lon="-8.5917233"><ele>221.0</ele><time>2026-04-05T10:21:28.6Z</time></trkpt><trkpt lat="43.2811963" lon="-8.5917535"><ele>221.0</ele><time>2026-04-05T10:21:29.6Z</time></trkpt><trkpt lat="43.2814293" lon="-8.5917852"><ele>222.0</ele><time>2026-04-05T10:21:30.6Z</time></trkpt><trkpt lat="43.2816616" lon="-8.5918116"><ele>223.0</ele><time>2026-04-05T10:21:31.6Z</time></trkpt><trkpt lat="43.2818907" lon="-8.5918432"><ele>223.0</ele><time>2026-04-05T10:21:32.6Z</time></trkpt><trkpt lat="43.2821222" lon="-8.5918753"><ele>223.0</ele><time>2026-04-05T10:21:33.599Z</time></trkpt><trkpt lat="43.2823465" lon="-8.5919048"><ele>225.0</ele><time>2026-04-05T10:21:34.6Z</time></trkpt><trkpt lat="43.2825765" lon="-8.5919341"><ele>227.0</ele><time>2026-04-05T10:21:35.599Z</time></trkpt><trkpt lat="43.2828021" lon="-8.5919643"><ele>227.0</ele><time>2026-04-05T10:21:36.6Z</time></trkpt><trkpt lat="43.2830285" lon="-8.5919935"><ele>227.0</ele><time>2026-04-05T10:21:37.599Z</time></trkpt><trkpt lat="43.2832545" lon="-8.5920237"><ele>231.5</ele><time>2026-04-05T10:21:38.599Z</time></trkpt><trkpt lat="43.2834807" lon="-8.5920559"><ele>236.0</ele><time>2026-04-05T10:21:39.6Z</time></trkpt><trkpt lat="43.2837062" lon="-8.5920854"><ele>236.0</ele><time>2026-04-05T10:21:40.6Z</time></trkpt><trkpt lat="43.2839293" lon="-8.5921137"><ele>236.0</ele><time>2026-04-05T10:21:41.6Z</time></trkpt><trkpt lat="43.2841381" lon="-8.5921451"><ele>236.0</ele><time>2026-04-05T10:21:42.599Z</time></trkpt><trkpt lat="43.2843334" lon="-8.5921738"><ele>237.33333333333334</ele><time>2026-04-05T10:21:43.599Z</time></trkpt><trkpt lat="43.2845208" lon="-8.592196"><ele>238.66666666666669</ele><time>2026-04-05T10:21:44.6Z</time></trkpt><trkpt lat="43.2847145" lon="-8.5921958"><ele>240.0</ele><time>2026-04-05T10:21:45.599Z</time></trkpt><trkpt lat="43.2848893" lon="-8.5921348"><ele>239.66666666666669</ele><time>2026-04-05T10:21:46.6Z</time></trkpt><trkpt lat="43.2850681" lon="-8.5920423"><ele>239.33333333333334</ele><time>2026-04-05T10:21:47.599Z</time></trkpt><trkpt lat="43.2852226" lon="-8.5918887"><ele>239.0</ele><time>2026-04-05T10:21:48.6Z</time></trkpt><trkpt lat="43.2853643" lon="-8.5916981"><ele>239.0</ele><time>2026-04-05T10:21:49.6Z</time></trkpt><trkpt lat="43.2855056" lon="-8.5915024"><ele>239.0</ele><time>2026-04-05T10:21:50.6Z</time></trkpt><trkpt lat="43.2856438" lon="-8.5913031"><ele>239.0</ele><time>2026-04-05T10:21:51.6Z</time></trkpt><trkpt lat="43.2857796" lon="-8.5910992"><ele>242.66666666666669</ele><time>2026-04-05T10:21:52.6Z</time></trkpt><trkpt lat="43.2859179" lon="-8.5908972"><ele>246.33333333333331</ele><time>2026-04-05T10:21:53.599Z</time></trkpt><trkpt lat="43.2860577" lon="-8.5907035"><ele>250.0</ele><time>2026-04-05T10:21:54.6Z</time></trkpt><trkpt lat="43.2861892" lon="-8.5905136"><ele>249.66666666666666</ele><time>2026-04-05T10:21:55.599Z</time></trkpt><trkpt lat="43.2863149" lon="-8.5903364"><ele>249.33333333333331</ele><time>2026-04-05T10:21:56.6Z</time></trkpt><trkpt lat="43.2864301" lon="-8.5901692"><ele>249.0</ele><time>2026-04-05T10:21:57.6Z</time></trkpt><trkpt lat="43.2865363" lon="-8.5900174"><ele>250.75</ele><time>2026-04-05T10:21:58.599Z</time></trkpt><trkpt lat="43.2866372" lon="-8.5898799"><ele>252.5</ele><time>2026-04-05T10:21:59.599Z</time></trkpt><trkpt lat="43.286742" lon="-8.5897628"><ele>254.25</ele><time>2026-04-05T10:22:00.6Z</time></trkpt><trkpt lat="43.286859" lon="-8.5896908"><ele>256.0</ele><time>2026-04-05T10:22:01.599Z</time></trkpt><trkpt lat="43.2869655" lon="-8.5896325"><ele>256.0</ele><time>2026-04-05T10:22:02.6Z</time></trkpt><trkpt lat="43.2871167" lon="-8.5896928"><ele>256.0</ele><time>2026-04-05T10:22:03.6Z</time></trkpt><trkpt lat="43.2872628" lon="-8.5897832"><ele>256.0</ele><time>2026-04-05T10:22:04.6Z</time></trkpt><trkpt lat="43.2874258" lon="-8.589882"><ele>255.33333333333331</ele><time>2026-04-05T10:22:05.6Z</time></trkpt><trkpt lat="43.2875861" lon="-8.5899873"><ele>254.66666666666669</ele><time>2026-04-05T10:22:06.6Z</time></trkpt><trkpt lat="43.2877638" lon="-8.5900933"><ele>254.0</ele><time>2026-04-05T10:22:07.6Z</time></trkpt><trkpt lat="43.2879414" lon="-8.5902122"><ele>253.66666666666669</ele><time>2026-04-05T10:22:08.599Z</time></trkpt><trkpt lat="43.2881109" lon="-8.5903202"><ele>253.33333333333331</ele><time>2026-04-05T10:22:09.6Z</time></trkpt><trkpt lat="43.2882708" lon="-8.5904225"><ele>253.0</ele><time>2026-04-05T10:22:10.599Z</time></trkpt><trkpt lat="43.2884202" lon="-8.5905147"><ele>255.33333333333331</ele><time>2026-04-05T10:22:11.6Z</time></trkpt><trkpt lat="43.2885373" lon="-8.590675"><ele>257.6666666666667</ele><time>2026-04-05T10:22:12.6Z</time></trkpt><trkpt lat="43.2886369" lon="-8.5908506"><ele>260.0</ele><time>2026-04-05T10:22:13.6Z</time></trkpt><trkpt lat="43.2887344" lon="-8.591038"><ele>261.0</ele><time>2026-04-05T10:22:14.6Z</time></trkpt><trkpt lat="43.2888188" lon="-8.5912725"><ele>262.0</ele><time>2026-04-05T10:22:15.6Z</time></trkpt><trkpt lat="43.2888915" lon="-8.5914994"><ele>263.0</ele><time>2026-04-05T10:22:16.6Z</time></trkpt><trkpt lat="43.2889549" lon="-8.5917257"><ele>264.0</ele><time>2026-04-05T10:22:17.599Z</time></trkpt><trkpt lat="43.2889978" lon="-8.5919703"><ele>265.0</ele><time>2026-04-05T10:22:18.6Z</time></trkpt><trkpt lat="43.2890224" lon="-8.5922233"><ele>266.0</ele><time>2026-04-05T10:22:19.6Z</time></trkpt><trkpt lat="43.2890343" lon="-8.5924862"><ele>269.0</ele><time>2026-04-05T10:22:20.6Z</time></trkpt><trkpt lat="43.2890499" lon="-8.5927512"><ele>272.0</ele><time>2026-04-05T10:22:21.6Z</time></trkpt><trkpt lat="43.2890698" lon="-8.5930222"><ele>275.0</ele><time>2026-04-05T10:22:22.6Z</time></trkpt><trkpt lat="43.2890848" lon="-8.593293"><ele>275.0</ele><time>2026-04-05T10:22:23.6Z</time></trkpt><trkpt lat="43.2891034" lon="-8.5935709"><ele>275.0</ele><time>2026-04-05T10:22:24.599Z</time></trkpt><trkpt lat="43.2891213" lon="-8.593841"><ele>275.0</ele><time>2026-04-05T10:22:25.6Z</time></trkpt><trkpt lat="43.2891348" lon="-8.594096"><ele>275.0</ele><time>2026-04-05T10:22:26.6Z</time></trkpt><trkpt lat="43.2891686" lon="-8.5943345"><ele>275.0</ele><time>2026-04-05T10:22:27.6Z</time></trkpt><trkpt lat="43.2892223" lon="-8.5945389"><ele>275.0</ele><time>2026-04-05T10:22:28.6Z</time></trkpt><trkpt lat="43.2892902" lon="-8.5947213"><ele>276.75</ele><time>2026-04-05T10:22:29.6Z</time></trkpt><trkpt lat="43.2893646" lon="-8.5948959"><ele>278.5</ele><time>2026-04-05T10:22:30.6Z</time></trkpt><trkpt lat="43.2894431" lon="-8.5950656"><ele>280.25</ele><time>2026-04-05T10:22:31.599Z</time></trkpt><trkpt lat="43.2895163" lon="-8.5952268"><ele>282.0</ele><time>2026-04-05T10:22:32.6Z</time></trkpt><trkpt lat="43.289579" lon="-8.5954076"><ele>283.0</ele><time>2026-04-05T10:22:33.599Z</time></trkpt><trkpt lat="43.2896335" lon="-8.5956095"><ele>284.0</ele><time>2026-04-05T10:22:34.6Z</time></trkpt><trkpt lat="43.2896712" lon="-8.5958261"><ele>285.0</ele><time>2026-04-05T10:22:35.6Z</time></trkpt><trkpt lat="43.2896808" lon="-8.5960639"><ele>284.6666666666667</ele><time>2026-04-05T10:22:36.6Z</time></trkpt><trkpt lat="43.2896643" lon="-8.5963155"><ele>284.33333333333337</ele><time>2026-04-05T10:22:37.6Z</time></trkpt><trkpt lat="43.289633" lon="-8.596571"><ele>284.0</ele><time>2026-04-05T10:22:38.6Z</time></trkpt><trkpt lat="43.2896055" lon="-8.5968108"><ele>283.6666666666667</ele><time>2026-04-05T10:22:39.6Z</time></trkpt><trkpt lat="43.2895804" lon="-8.597043"><ele>283.3333333333333</ele><time>2026-04-05T10:22:40.599Z</time></trkpt><trkpt lat="43.2895822" lon="-8.5972612"><ele>283.0</ele><time>2026-04-05T10:22:41.6Z</time></trkpt><trkpt lat="43.2896143" lon="-8.5974651"><ele>283.0</ele><time>2026-04-05T10:22:42.6Z</time></trkpt><trkpt lat="43.2896693" lon="-8.5976651"><ele>283.0</ele><time>2026-04-05T10:22:43.6Z</time></trkpt><trkpt lat="43.2897342" lon="-8.597868"><ele>283.0</ele><time>2026-04-05T10:22:44.6Z</time></trkpt><trkpt lat="43.289796" lon="-8.5980788"><ele>279.3333333333333</ele><time>2026-04-05T10:22:45.599Z</time></trkpt><trkpt lat="43.2898537" lon="-8.598285"><ele>275.6666666666667</ele><time>2026-04-05T10:22:46.6Z</time></trkpt><trkpt lat="43.2899039" lon="-8.5985012"><ele>272.0</ele><time>2026-04-05T10:22:47.6Z</time></trkpt><trkpt lat="43.2899575" lon="-8.5987043"><ele>272.0</ele><time>2026-04-05T10:22:48.6Z</time></trkpt><trkpt lat="43.2900141" lon="-8.5988968"><ele>272.0</ele><time>2026-04-05T10:22:49.6Z</time></trkpt><trkpt lat="43.2900971" lon="-8.599071"><ele>272.0</ele><time>2026-04-05T10:22:50.599Z</time></trkpt><trkpt lat="43.2901839" lon="-8.599227"><ele>272.0</ele><time>2026-04-05T10:22:51.599Z</time></trkpt><trkpt lat="43.2902674" lon="-8.599374"><ele>272.0</ele><time>2026-04-05T10:22:52.599Z</time></trkpt><trkpt lat="43.2903527" lon="-8.5995128"><ele>272.0</ele><time>2026-04-05T10:22:53.599Z</time></trkpt><trkpt lat="43.2904348" lon="-8.5996547"><ele>272.0</ele><time>2026-04-05T10:22:54.6Z</time></trkpt><trkpt lat="43.2905171" lon="-8.5998028"><ele>272.0</ele><time>2026-04-05T10:22:55.6Z</time></trkpt><trkpt lat="43.2905908" lon="-8.5999323"><ele>270.8</ele><time>2026-04-05T10:22:56.599Z</time></trkpt><trkpt lat="43.2906614" lon="-8.6000491"><ele>269.6</ele><time>2026-04-05T10:22:57.6Z</time></trkpt><trkpt lat="43.2907208" lon="-8.6001559"><ele>268.40000000000003</ele><time>2026-04-05T10:22:58.599Z</time></trkpt><trkpt lat="43.2907732" lon="-8.6002612"><ele>267.2</ele><time>2026-04-05T10:22:59.6Z</time></trkpt><trkpt lat="43.2908274" lon="-8.6003582"><ele>266.0</ele><time>2026-04-05T10:23:00.6Z</time></trkpt><trkpt lat="43.2908761" lon="-8.6004562"><ele>265.33333333333337</ele><time>2026-04-05T10:23:01.6Z</time></trkpt><trkpt lat="43.2909296" lon="-8.6005556"><ele>264.6666666666667</ele><time>2026-04-05T10:23:02.6Z</time></trkpt><trkpt lat="43.2909922" lon="-8.600626"><ele>264.0</ele><time>2026-04-05T10:23:03.6Z</time></trkpt><trkpt lat="43.2910683" lon="-8.6006626"><ele>263.3333333333333</ele><time>2026-04-05T10:23:04.6Z</time></trkpt><trkpt lat="43.2911514" lon="-8.6006602"><ele>262.66666666666663</ele><time>2026-04-05T10:23:05.599Z</time></trkpt><trkpt lat="43.2912433" lon="-8.6006208"><ele>262.0</ele><time>2026-04-05T10:23:06.6Z</time></trkpt><trkpt lat="43.2913531" lon="-8.6005615"><ele>259.0</ele><time>2026-04-05T10:23:07.6Z</time></trkpt><trkpt lat="43.2914616" lon="-8.6004682"><ele>256.0</ele><time>2026-04-05T10:23:08.6Z</time></trkpt><trkpt lat="43.2915805" lon="-8.6003512"><ele>253.0</ele><time>2026-04-05T10:23:09.6Z</time></trkpt><trkpt lat="43.2917007" lon="-8.6002314"><ele>250.0</ele><time>2026-04-05T10:23:10.6Z</time></trkpt><trkpt lat="43.2918164" lon="-8.6001217"><ele>250.0</ele><time>2026-04-05T10:23:11.6Z</time></trkpt><trkpt lat="43.291925" lon="-8.600034"><ele>250.0</ele><time>2026-04-05T10:23:12.599Z</time></trkpt><trkpt lat="43.29203" lon="-8.5999724"><ele>250.0</ele><time>2026-04-05T10:23:13.6Z</time></trkpt><trkpt lat="43.2921464" lon="-8.5999464"><ele>250.0</ele><time>2026-04-05T10:23:14.6Z</time></trkpt><trkpt lat="43.2922626" lon="-8.5999535"><ele>246.0</ele><time>2026-04-05T10:23:15.6Z</time></trkpt><trkpt lat="43.2923699" lon="-8.5999886"><ele>242.0</ele><time>2026-04-05T10:23:16.6Z</time></trkpt><trkpt lat="43.2925037" lon="-8.6001069"><ele>238.0</ele><time>2026-04-05T10:23:17.6Z</time></trkpt><trkpt lat="43.2926366" lon="-8.6002313"><ele>234.0</ele><time>2026-04-05T10:23:18.599Z</time></trkpt><trkpt lat="43.2927634" lon="-8.6003646"><ele>234.0</ele><time>2026-04-05T10:23:19.6Z</time></trkpt><trkpt lat="43.2928881" lon="-8.6004826"><ele>234.0</ele><time>2026-04-05T10:23:20.599Z</time></trkpt><trkpt lat="43.2930225" lon="-8.6005806"><ele>234.0</ele><time>2026-04-05T10:23:21.6Z</time></trkpt><trkpt lat="43.2931607" lon="-8.6006618"><ele>228.0</ele><time>2026-04-05T10:23:22.599Z</time></trkpt><trkpt lat="43.2933021" lon="-8.6007162"><ele>222.0</ele><time>2026-04-05T10:23:23.599Z</time></trkpt><trkpt lat="43.2934514" lon="-8.6007666"><ele>216.0</ele><time>2026-04-05T10:23:24.599Z</time></trkpt><trkpt lat="43.2936012" lon="-8.6008105"><ele>216.0</ele><time>2026-04-05T10:23:25.6Z</time></trkpt><trkpt lat="43.2937501" lon="-8.6008433"><ele>216.0</ele><time>2026-04-05T10:23:26.6Z</time></trkpt><trkpt lat="43.2939039" lon="-8.600842"><ele>216.0</ele><time>2026-04-05T10:23:27.6Z</time></trkpt><trkpt lat="43.2940567" lon="-8.6007992"><ele>214.33333333333331</ele><time>2026-04-05T10:23:28.6Z</time></trkpt><trkpt lat="43.2942046" lon="-8.6007216"><ele>212.66666666666666</ele><time>2026-04-05T10:23:29.6Z</time></trkpt><trkpt lat="43.2943426" lon="-8.6006486"><ele>211.0</ele><time>2026-04-05T10:23:30.6Z</time></trkpt><trkpt lat="43.2945066" lon="-8.6005873"><ele>211.0</ele><time>2026-04-05T10:23:31.599Z</time></trkpt><trkpt lat="43.2946724" lon="-8.6005604"><ele>211.0</ele><time>2026-04-05T10:23:32.6Z</time></trkpt><trkpt lat="43.2948427" lon="-8.6005551"><ele>211.0</ele><time>2026-04-05T10:23:33.6Z</time></trkpt><trkpt lat="43.2950151" lon="-8.6005765"><ele>211.0</ele><time>2026-04-05T10:23:34.6Z</time></trkpt><trkpt lat="43.2951792" lon="-8.6006096"><ele>211.0</ele><time>2026-04-05T10:23:35.599Z</time></trkpt><trkpt lat="43.2953289" lon="-8.6006602"><ele>211.0</ele><time>2026-04-05T10:23:36.599Z</time></trkpt><trkpt lat="43.2954728" lon="-8.6007292"><ele>207.0</ele><time>2026-04-05T10:23:37.6Z</time></trkpt><trkpt lat="43.2956175" lon="-8.6008164"><ele>203.0</ele><time>2026-04-05T10:23:38.6Z</time></trkpt><trkpt lat="43.2957706" lon="-8.6009099"><ele>199.0</ele><time>2026-04-05T10:23:39.599Z</time></trkpt><trkpt lat="43.2959293" lon="-8.601007"><ele>199.0</ele><time>2026-04-05T10:23:40.6Z</time></trkpt><trkpt lat="43.2960864" lon="-8.6011085"><ele>199.0</ele><time>2026-04-05T10:23:41.6Z</time></trkpt><trkpt lat="43.2962413" lon="-8.6012037"><ele>199.0</ele><time>2026-04-05T10:23:42.6Z</time></trkpt><trkpt lat="43.2964018" lon="-8.6013015"><ele>197.33333333333331</ele><time>2026-04-05T10:23:43.6Z</time></trkpt><trkpt lat="43.2965592" lon="-8.6014134"><ele>195.66666666666669</ele><time>2026-04-05T10:23:44.599Z</time></trkpt><trkpt lat="43.2967147" lon="-8.6015524"><ele>194.0</ele><time>2026-04-05T10:23:45.6Z</time></trkpt><trkpt lat="43.2968632" lon="-8.6017073"><ele>194.0</ele><time>2026-04-05T10:23:46.599Z</time></trkpt><trkpt lat="43.2970031" lon="-8.6018648"><ele>194.0</ele><time>2026-04-05T10:23:47.6Z</time></trkpt><trkpt lat="43.2971365" lon="-8.6020097"><ele>194.0</ele><time>2026-04-05T10:23:48.6Z</time></trkpt><trkpt lat="43.2972493" lon="-8.6021378"><ele>191.0</ele><time>2026-04-05T10:23:49.599Z</time></trkpt><trkpt lat="43.2973486" lon="-8.6022399"><ele>188.0</ele><time>2026-04-05T10:23:50.6Z</time></trkpt><trkpt lat="43.2974355" lon="-8.6023191"><ele>185.0</ele><time>2026-04-05T10:23:51.6Z</time></trkpt><trkpt lat="43.2975307" lon="-8.6023693"><ele>182.0</ele><time>2026-04-05T10:23:52.6Z</time></trkpt><trkpt lat="43.2976374" lon="-8.602383"><ele>179.0</ele><time>2026-04-05T10:23:53.6Z</time></trkpt><trkpt lat="43.2977489" lon="-8.6023734"><ele>179.0</ele><time>2026-04-05T10:23:54.6Z</time></trkpt><trkpt lat="43.2978653" lon="-8.6023603"><ele>179.0</ele><time>2026-04-05T10:23:55.6Z</time></trkpt><trkpt lat="43.2979753" lon="-8.6024109"><ele>179.0</ele><time>2026-04-05T10:23:56.6Z</time></trkpt><trkpt lat="43.2980736" lon="-8.6025147"><ele>179.0</ele><time>2026-04-05T10:23:57.6Z</time></trkpt><trkpt lat="43.2981743" lon="-8.6026412"><ele>179.66666666666666</ele><time>2026-04-05T10:23:58.599Z</time></trkpt><trkpt lat="43.2982783" lon="-8.6027866"><ele>180.33333333333334</ele><time>2026-04-05T10:23:59.6Z</time></trkpt><trkpt lat="43.298379" lon="-8.6029928"><ele>181.0</ele><time>2026-04-05T10:24:00.599Z</time></trkpt><trkpt lat="43.2984673" lon="-8.603207"><ele>178.0</ele><time>2026-04-05T10:24:01.6Z</time></trkpt><trkpt lat="43.298555" lon="-8.6034195"><ele>175.0</ele><time>2026-04-05T10:24:02.599Z</time></trkpt><trkpt lat="43.2986296" lon="-8.603631"><ele>172.0</ele><time>2026-04-05T10:24:03.599Z</time></trkpt><trkpt lat="43.2987027" lon="-8.6038317"><ele>170.33333333333334</ele><time>2026-04-05T10:24:04.599Z</time></trkpt><trkpt lat="43.2987764" lon="-8.6040364"><ele>168.66666666666666</ele><time>2026-04-05T10:24:05.599Z</time></trkpt><trkpt lat="43.2988455" lon="-8.6042408"><ele>167.0</ele><time>2026-04-05T10:24:06.599Z</time></trkpt><trkpt lat="43.298911" lon="-8.6044278"><ele>167.0</ele><time>2026-04-05T10:24:07.6Z</time></trkpt><trkpt lat="43.2989781" lon="-8.6045958"><ele>167.0</ele><time>2026-04-05T10:24:08.6Z</time></trkpt><trkpt lat="43.299077" lon="-8.6047388"><ele>167.0</ele><time>2026-04-05T10:24:09.6Z</time></trkpt><trkpt lat="43.2992013" lon="-8.6048589"><ele>167.0</ele><time>2026-04-05T10:24:10.6Z</time></trkpt><trkpt lat="43.2993243" lon="-8.6049745"><ele>167.0</ele><time>2026-04-05T10:24:11.6Z</time></trkpt><trkpt lat="43.2994968" lon="-8.6051044"><ele>167.0</ele><time>2026-04-05T10:24:12.599Z</time></trkpt><trkpt lat="43.2996729" lon="-8.6052283"><ele>167.0</ele><time>2026-04-05T10:24:13.599Z</time></trkpt><trkpt lat="43.2998581" lon="-8.6053514"><ele>167.66666666666666</ele><time>2026-04-05T10:24:14.6Z</time></trkpt><trkpt lat="43.3000364" lon="-8.6054798"><ele>168.33333333333334</ele><time>2026-04-05T10:24:15.6Z</time></trkpt><trkpt lat="43.300207" lon="-8.6056031"><ele>169.0</ele><time>2026-04-05T10:24:16.6Z</time></trkpt><trkpt lat="43.3003652" lon="-8.6057211"><ele>169.0</ele><time>2026-04-05T10:24:17.6Z</time></trkpt><trkpt lat="43.3005075" lon="-8.6058267"><ele>169.0</ele><time>2026-04-05T10:24:18.6Z</time></trkpt><trkpt lat="43.3006478" lon="-8.6059065"><ele>169.0</ele><time>2026-04-05T10:24:19.6Z</time></trkpt><trkpt lat="43.3007944" lon="-8.6059381"><ele>171.66666666666669</ele><time>2026-04-05T10:24:20.599Z</time></trkpt><trkpt lat="43.3009563" lon="-8.6059491"><ele>174.33333333333334</ele><time>2026-04-05T10:24:21.599Z</time></trkpt><trkpt lat="43.3011316" lon="-8.6059416"><ele>177.0</ele><time>2026-04-05T10:24:22.599Z</time></trkpt><trkpt lat="43.3013181" lon="-8.6059341"><ele>177.66666666666666</ele><time>2026-04-05T10:24:23.599Z</time></trkpt><trkpt lat="43.3015093" lon="-8.6058929"><ele>178.33333333333331</ele><time>2026-04-05T10:24:24.599Z</time></trkpt><trkpt lat="43.3017121" lon="-8.6058282"><ele>179.0</ele><time>2026-04-05T10:24:25.6Z</time></trkpt><trkpt lat="43.3019156" lon="-8.6057624"><ele>179.0</ele><time>2026-04-05T10:24:26.6Z</time></trkpt><trkpt lat="43.302122" lon="-8.6057009"><ele>179.0</ele><time>2026-04-05T10:24:27.599Z</time></trkpt><trkpt lat="43.3023169" lon="-8.6056386"><ele>179.0</ele><time>2026-04-05T10:24:28.6Z</time></trkpt><trkpt lat="43.3024947" lon="-8.6055791"><ele>178.66666666666666</ele><time>2026-04-05T10:24:29.6Z</time></trkpt><trkpt lat="43.302661" lon="-8.6055189"><ele>178.33333333333334</ele><time>2026-04-05T10:24:30.6Z</time></trkpt><trkpt lat="43.3028191" lon="-8.6054708"><ele>178.0</ele><time>2026-04-05T10:24:31.599Z</time></trkpt><trkpt lat="43.3029582" lon="-8.605425"><ele>177.0</ele><time>2026-04-05T10:24:32.6Z</time></trkpt><trkpt lat="43.3030997" lon="-8.6054723"><ele>176.0</ele><time>2026-04-05T10:24:33.6Z</time></trkpt><trkpt lat="43.3032343" lon="-8.6055506"><ele>175.0</ele><time>2026-04-05T10:24:34.599Z</time></trkpt><trkpt lat="43.3033638" lon="-8.6056374"><ele>174.0</ele><time>2026-04-05T10:24:35.6Z</time></trkpt><trkpt lat="43.3035092" lon="-8.6056881"><ele>174.0</ele><time>2026-04-05T10:24:36.6Z</time></trkpt><trkpt lat="43.3036638" lon="-8.605696"><ele>174.0</ele><time>2026-04-05T10:24:37.6Z</time></trkpt><trkpt lat="43.3038263" lon="-8.6056735"><ele>174.0</ele><time>2026-04-05T10:24:38.6Z</time></trkpt><trkpt lat="43.3039865" lon="-8.6056424"><ele>175.75</ele><time>2026-04-05T10:24:39.6Z</time></trkpt><trkpt lat="43.3041227" lon="-8.6056029"><ele>177.5</ele><time>2026-04-05T10:24:40.6Z</time></trkpt><trkpt lat="43.3042298" lon="-8.6055187"><ele>179.25</ele><time>2026-04-05T10:24:41.6Z</time></trkpt><trkpt lat="43.3043257" lon="-8.6054142"><ele>181.0</ele><time>2026-04-05T10:24:42.599Z</time></trkpt><trkpt lat="43.3043797" lon="-8.6052258"><ele>181.0</ele><time>2026-04-05T10:24:43.599Z</time></trkpt><trkpt lat="43.3044275" lon="-8.6050133"><ele>181.0</ele><time>2026-04-05T10:24:44.6Z</time></trkpt><trkpt lat="43.3044721" lon="-8.6047707"><ele>181.0</ele><time>2026-04-05T10:24:45.6Z</time></trkpt><trkpt lat="43.3045096" lon="-8.6044972"><ele>183.33333333333334</ele><time>2026-04-05T10:24:46.6Z</time></trkpt><trkpt lat="43.3045505" lon="-8.6042146"><ele>185.66666666666666</ele><time>2026-04-05T10:24:47.599Z</time></trkpt><trkpt lat="43.3045889" lon="-8.6039245"><ele>188.0</ele><time>2026-04-05T10:24:48.6Z</time></trkpt><trkpt lat="43.3046232" lon="-8.6036376"><ele>188.33333333333331</ele><time>2026-04-05T10:24:49.599Z</time></trkpt><trkpt lat="43.304665" lon="-8.6033567"><ele>188.66666666666666</ele><time>2026-04-05T10:24:50.6Z</time></trkpt><trkpt lat="43.3047316" lon="-8.6030997"><ele>189.0</ele><time>2026-04-05T10:24:51.599Z</time></trkpt><trkpt lat="43.3048148" lon="-8.6028824"><ele>192.25</ele><time>2026-04-05T10:24:52.599Z</time></trkpt><trkpt lat="43.304894" lon="-8.6026901"><ele>195.5</ele><time>2026-04-05T10:24:53.6Z</time></trkpt><trkpt lat="43.3049425" lon="-8.6025007"><ele>198.75</ele><time>2026-04-05T10:24:54.6Z</time></trkpt><trkpt lat="43.3049443" lon="-8.6023143"><ele>202.0</ele><time>2026-04-05T10:24:55.599Z</time></trkpt><trkpt lat="43.3049358" lon="-8.602126"><ele>201.0</ele><time>2026-04-05T10:24:56.6Z</time></trkpt><trkpt lat="43.3048762" lon="-8.6018949"><ele>200.0</ele><time>2026-04-05T10:24:57.6Z</time></trkpt><trkpt lat="43.3048373" lon="-8.6016651"><ele>199.0</ele><time>2026-04-05T10:24:58.6Z</time></trkpt><trkpt lat="43.3048293" lon="-8.6014332"><ele>199.0</ele><time>2026-04-05T10:24:59.6Z</time></trkpt><trkpt lat="43.3048525" lon="-8.601193"><ele>199.0</ele><time>2026-04-05T10:25:00.6Z</time></trkpt><trkpt lat="43.3048923" lon="-8.6009445"><ele>199.0</ele><time>2026-04-05T10:25:01.599Z</time></trkpt><trkpt lat="43.3049456" lon="-8.6006991"><ele>199.66666666666666</ele><time>2026-04-05T10:25:02.599Z</time></trkpt><trkpt lat="43.3049927" lon="-8.6004668"><ele>200.33333333333331</ele><time>2026-04-05T10:25:03.6Z</time></trkpt><trkpt lat="43.3050258" lon="-8.6002454"><ele>201.0</ele><time>2026-04-05T10:25:04.599Z</time></trkpt><trkpt lat="43.305067" lon="-8.6000118"><ele>201.66666666666669</ele><time>2026-04-05T10:25:05.599Z</time></trkpt><trkpt lat="43.3051105" lon="-8.5997657"><ele>202.33333333333334</ele><time>2026-04-05T10:25:06.6Z</time></trkpt><trkpt lat="43.3051603" lon="-8.5995131"><ele>203.0</ele><time>2026-04-05T10:25:07.6Z</time></trkpt><trkpt lat="43.3052061" lon="-8.5992455"><ele>203.0</ele><time>2026-04-05T10:25:08.6Z</time></trkpt><trkpt lat="43.3052374" lon="-8.5989669"><ele>203.0</ele><time>2026-04-05T10:25:09.6Z</time></trkpt><trkpt lat="43.3052529" lon="-8.5986857"><ele>203.0</ele><time>2026-04-05T10:25:10.6Z</time></trkpt><trkpt lat="43.3052657" lon="-8.5984022"><ele>202.33333333333334</ele><time>2026-04-05T10:25:11.6Z</time></trkpt><trkpt lat="43.3052867" lon="-8.5981261"><ele>201.66666666666669</ele><time>2026-04-05T10:25:12.6Z</time></trkpt><trkpt lat="43.3053303" lon="-8.5978648"><ele>201.0</ele><time>2026-04-05T10:25:13.6Z</time></trkpt><trkpt lat="43.3053939" lon="-8.5976221"><ele>201.0</ele><time>2026-04-05T10:25:14.6Z</time></trkpt><trkpt lat="43.3054641" lon="-8.5973888"><ele>201.0</ele><time>2026-04-05T10:25:15.6Z</time></trkpt><trkpt lat="43.3055254" lon="-8.597162"><ele>201.0</ele><time>2026-04-05T10:25:16.6Z</time></trkpt><trkpt lat="43.3055558" lon="-8.5969451"><ele>201.66666666666669</ele><time>2026-04-05T10:25:17.599Z</time></trkpt><trkpt lat="43.3055635" lon="-8.5967119"><ele>202.33333333333334</ele><time>2026-04-05T10:25:18.599Z</time></trkpt><trkpt lat="43.3055579" lon="-8.596473"><ele>203.0</ele><time>2026-04-05T10:25:19.6Z</time></trkpt><trkpt lat="43.3055453" lon="-8.5962206"><ele>205.33333333333334</ele><time>2026-04-05T10:25:20.6Z</time></trkpt><trkpt lat="43.3055309" lon="-8.595959"><ele>207.66666666666669</ele><time>2026-04-05T10:25:21.599Z</time></trkpt><trkpt lat="43.3055172" lon="-8.5956986"><ele>210.0</ele><time>2026-04-05T10:25:22.6Z</time></trkpt><trkpt lat="43.3055162" lon="-8.595434"><ele>210.66666666666669</ele><time>2026-04-05T10:25:23.6Z</time></trkpt><trkpt lat="43.3055317" lon="-8.5951671"><ele>211.33333333333334</ele><time>2026-04-05T10:25:24.6Z</time></trkpt><trkpt lat="43.3055584" lon="-8.5948958"><ele>212.0</ele><time>2026-04-05T10:25:25.6Z</time></trkpt><trkpt lat="43.3055928" lon="-8.5946264"><ele>205.66666666666669</ele><time>2026-04-05T10:25:26.599Z</time></trkpt><trkpt lat="43.3056241" lon="-8.5943526"><ele>199.33333333333331</ele><time>2026-04-05T10:25:27.599Z</time></trkpt><trkpt lat="43.305656" lon="-8.5940704"><ele>193.0</ele><time>2026-04-05T10:25:28.6Z</time></trkpt><trkpt lat="43.3056758" lon="-8.5937996"><ele>193.0</ele><time>2026-04-05T10:25:29.6Z</time></trkpt><trkpt lat="43.3056885" lon="-8.5935433"><ele>193.0</ele><time>2026-04-05T10:25:30.599Z</time></trkpt><trkpt lat="43.3057168" lon="-8.5932987"><ele>193.0</ele><time>2026-04-05T10:25:31.6Z</time></trkpt><trkpt lat="43.3057453" lon="-8.5930671"><ele>193.0</ele><time>2026-04-05T10:25:32.599Z</time></trkpt><trkpt lat="43.3057828" lon="-8.5928495"><ele>193.0</ele><time>2026-04-05T10:25:33.6Z</time></trkpt><trkpt lat="43.3058278" lon="-8.5926423"><ele>193.0</ele><time>2026-04-05T10:25:34.6Z</time></trkpt><trkpt lat="43.3058886" lon="-8.5924424"><ele>193.0</ele><time>2026-04-05T10:25:35.599Z</time></trkpt><trkpt lat="43.3059429" lon="-8.5922572"><ele>193.0</ele><time>2026-04-05T10:25:36.6Z</time></trkpt><trkpt lat="43.3060379" lon="-8.5920348"><ele>193.0</ele><time>2026-04-05T10:25:37.6Z</time></trkpt><trkpt lat="43.3061269" lon="-8.5918385"><ele>191.66666666666666</ele><time>2026-04-05T10:25:38.599Z</time></trkpt><trkpt lat="43.306233" lon="-8.5916409"><ele>190.33333333333331</ele><time>2026-04-05T10:25:39.599Z</time></trkpt><trkpt lat="43.3063368" lon="-8.5914449"><ele>189.0</ele><time>2026-04-05T10:25:40.6Z</time></trkpt><trkpt lat="43.3064313" lon="-8.5912399"><ele>183.0</ele><time>2026-04-05T10:25:41.6Z</time></trkpt><trkpt lat="43.3065273" lon="-8.5910387"><ele>177.0</ele><time>2026-04-05T10:25:42.599Z</time></trkpt><trkpt lat="43.3066232" lon="-8.590843"><ele>171.0</ele><time>2026-04-05T10:25:43.599Z</time></trkpt><trkpt lat="43.3067316" lon="-8.5906617"><ele>171.0</ele><time>2026-04-05T10:25:44.6Z</time></trkpt><trkpt lat="43.3068473" lon="-8.5904937"><ele>171.0</ele><time>2026-04-05T10:25:45.6Z</time></trkpt><trkpt lat="43.3069593" lon="-8.5903423"><ele>171.0</ele><time>2026-04-05T10:25:46.6Z</time></trkpt><trkpt lat="43.3070745" lon="-8.5901939"><ele>169.25</ele><time>2026-04-05T10:25:47.6Z</time></trkpt><trkpt lat="43.3071839" lon="-8.5900542"><ele>167.5</ele><time>2026-04-05T10:25:48.6Z</time></trkpt><trkpt lat="43.3072861" lon="-8.5899202"><ele>165.75</ele><time>2026-04-05T10:25:49.6Z</time></trkpt><trkpt lat="43.3073829" lon="-8.5898024"><ele>164.0</ele><time>2026-04-05T10:25:50.6Z</time></trkpt><trkpt lat="43.3074622" lon="-8.5897074"><ele>164.0</ele><time>2026-04-05T10:25:51.6Z</time></trkpt><trkpt lat="43.3075142" lon="-8.5896218"><ele>164.0</ele><time>2026-04-05T10:25:52.599Z</time></trkpt><trkpt lat="43.3075114" lon="-8.5894765"><ele>164.0</ele><time>2026-04-05T10:25:54.599Z</time></trkpt><trkpt lat="43.3074031" lon="-8.589441"><ele>164.0</ele><time>2026-04-05T10:25:56.6Z</time></trkpt><trkpt lat="43.30732" lon="-8.5894715"><ele>164.0</ele><time>2026-04-05T10:25:57.599Z</time></trkpt><trkpt lat="43.3072134" lon="-8.5895232"><ele>164.0</ele><time>2026-04-05T10:25:58.6Z</time></trkpt><trkpt lat="43.3070918" lon="-8.5895879"><ele>164.0</ele><time>2026-04-05T10:25:59.6Z</time></trkpt><trkpt lat="43.3069627" lon="-8.5896498"><ele>164.0</ele><time>2026-04-05T10:26:00.599Z</time></trkpt><trkpt lat="43.3068266" lon="-8.5896897"><ele>164.0</ele><time>2026-04-05T10:26:01.6Z</time></trkpt><trkpt lat="43.3066761" lon="-8.5897167"><ele>164.0</ele><time>2026-04-05T10:26:02.6Z</time></trkpt><trkpt lat="43.3065238" lon="-8.5897584"><ele>164.0</ele><time>2026-04-05T10:26:03.599Z</time></trkpt><trkpt lat="43.3063699" lon="-8.5898355"><ele>164.0</ele><time>2026-04-05T10:26:04.599Z</time></trkpt><trkpt lat="43.306217" lon="-8.5899146"><ele>168.0</ele><time>2026-04-05T10:26:05.6Z</time></trkpt><trkpt lat="43.306057" lon="-8.5899616"><ele>172.0</ele><time>2026-04-05T10:26:06.6Z</time></trkpt><trkpt lat="43.3058888" lon="-8.5899681"><ele>176.0</ele><time>2026-04-05T10:26:07.6Z</time></trkpt><trkpt lat="43.3057195" lon="-8.5899436"><ele>179.33333333333331</ele><time>2026-04-05T10:26:08.6Z</time></trkpt><trkpt lat="43.3055493" lon="-8.5898909"><ele>182.66666666666666</ele><time>2026-04-05T10:26:09.6Z</time></trkpt><trkpt lat="43.3053846" lon="-8.5897984"><ele>186.0</ele><time>2026-04-05T10:26:10.6Z</time></trkpt><trkpt lat="43.3052287" lon="-8.5896868"><ele>186.0</ele><time>2026-04-05T10:26:11.599Z</time></trkpt><trkpt lat="43.3050886" lon="-8.589554"><ele>186.0</ele><time>2026-04-05T10:26:12.599Z</time></trkpt><trkpt lat="43.3049689" lon="-8.5893937"><ele>186.0</ele><time>2026-04-05T10:26:13.6Z</time></trkpt><trkpt lat="43.3048784" lon="-8.5891882"><ele>187.33333333333334</ele><time>2026-04-05T10:26:14.6Z</time></trkpt><trkpt lat="43.3047946" lon="-8.5889602"><ele>188.66666666666669</ele><time>2026-04-05T10:26:15.6Z</time></trkpt><trkpt lat="43.3047053" lon="-8.5887473"><ele>190.0</ele><time>2026-04-05T10:26:16.6Z</time></trkpt><trkpt lat="43.3045658" lon="-8.5885604"><ele>186.0</ele><time>2026-04-05T10:26:17.6Z</time></trkpt><trkpt lat="43.3044127" lon="-8.5883827"><ele>182.0</ele><time>2026-04-05T10:26:18.6Z</time></trkpt><trkpt lat="43.3042516" lon="-8.5881972"><ele>178.0</ele><time>2026-04-05T10:26:19.6Z</time></trkpt><trkpt lat="43.3040832" lon="-8.588008"><ele>181.0</ele><time>2026-04-05T10:26:20.6Z</time></trkpt><trkpt lat="43.3039243" lon="-8.5878249"><ele>184.0</ele><time>2026-04-05T10:26:21.6Z</time></trkpt><trkpt lat="43.3037825" lon="-8.5876382"><ele>187.0</ele><time>2026-04-05T10:26:22.6Z</time></trkpt><trkpt lat="43.3036667" lon="-8.5874234"><ele>187.0</ele><time>2026-04-05T10:26:23.599Z</time></trkpt><trkpt lat="43.303576" lon="-8.5871866"><ele>187.0</ele><time>2026-04-05T10:26:24.599Z</time></trkpt><trkpt lat="43.303518" lon="-8.5869294"><ele>187.0</ele><time>2026-04-05T10:26:25.6Z</time></trkpt><trkpt lat="43.303471" lon="-8.5866661"><ele>184.0</ele><time>2026-04-05T10:26:26.599Z</time></trkpt><trkpt lat="43.3033993" lon="-8.5863972"><ele>181.0</ele><time>2026-04-05T10:26:27.6Z</time></trkpt><trkpt lat="43.303312" lon="-8.5861219"><ele>178.0</ele><time>2026-04-05T10:26:28.6Z</time></trkpt><trkpt lat="43.3032196" lon="-8.5858526"><ele>179.66666666666669</ele><time>2026-04-05T10:26:29.6Z</time></trkpt><trkpt lat="43.3031275" lon="-8.585599"><ele>181.33333333333334</ele><time>2026-04-05T10:26:30.6Z</time></trkpt><trkpt lat="43.3030383" lon="-8.5853652"><ele>183.0</ele><time>2026-04-05T10:26:31.6Z</time></trkpt><trkpt lat="43.3029697" lon="-8.5851474"><ele>183.0</ele><time>2026-04-05T10:26:32.599Z</time></trkpt><trkpt lat="43.3029402" lon="-8.5849289"><ele>183.0</ele><time>2026-04-05T10:26:33.599Z</time></trkpt><trkpt lat="43.302959" lon="-8.5847012"><ele>183.0</ele><time>2026-04-05T10:26:34.6Z</time></trkpt><trkpt lat="43.3030158" lon="-8.5844568"><ele>173.66666666666666</ele><time>2026-04-05T10:26:35.599Z</time></trkpt><trkpt lat="43.3030877" lon="-8.5841931"><ele>164.33333333333331</ele><time>2026-04-05T10:26:36.6Z</time></trkpt><trkpt lat="43.3031581" lon="-8.5839089"><ele>155.0</ele><time>2026-04-05T10:26:37.6Z</time></trkpt><trkpt lat="43.303213" lon="-8.5836122"><ele>155.0</ele><time>2026-04-05T10:26:38.598Z</time></trkpt><trkpt lat="43.3032412" lon="-8.5833283"><ele>155.0</ele><time>2026-04-05T10:26:39.6Z</time></trkpt><trkpt lat="43.3032548" lon="-8.5830625"><ele>155.0</ele><time>2026-04-05T10:26:40.6Z</time></trkpt><trkpt lat="43.3032696" lon="-8.5828075"><ele>156.0</ele><time>2026-04-05T10:26:41.6Z</time></trkpt><trkpt lat="43.3033134" lon="-8.5825603"><ele>157.0</ele><time>2026-04-05T10:26:42.6Z</time></trkpt><trkpt lat="43.303367" lon="-8.5823112"><ele>158.0</ele><time>2026-04-05T10:26:43.6Z</time></trkpt><trkpt lat="43.3034797" lon="-8.5820967"><ele>157.33333333333331</ele><time>2026-04-05T10:26:44.599Z</time></trkpt><trkpt lat="43.3035779" lon="-8.5818522"><ele>156.66666666666666</ele><time>2026-04-05T10:26:45.6Z</time></trkpt><trkpt lat="43.3036617" lon="-8.5815928"><ele>156.0</ele><time>2026-04-05T10:26:46.6Z</time></trkpt><trkpt lat="43.303743" lon="-8.581338"><ele>154.33333333333334</ele><time>2026-04-05T10:26:47.599Z</time></trkpt><trkpt lat="43.3038129" lon="-8.5810963"><ele>152.66666666666669</ele><time>2026-04-05T10:26:48.6Z</time></trkpt><trkpt lat="43.303863" lon="-8.5808657"><ele>151.0</ele><time>2026-04-05T10:26:49.6Z</time></trkpt><trkpt lat="43.3038803" lon="-8.5806473"><ele>151.0</ele><time>2026-04-05T10:26:50.599Z</time></trkpt><trkpt lat="43.303864" lon="-8.5804297"><ele>151.0</ele><time>2026-04-05T10:26:51.6Z</time></trkpt><trkpt lat="43.3038117" lon="-8.580224"><ele>151.0</ele><time>2026-04-05T10:26:52.6Z</time></trkpt><trkpt lat="43.3037229" lon="-8.5800265"><ele>147.66666666666669</ele><time>2026-04-05T10:26:53.599Z</time></trkpt><trkpt lat="43.3036059" lon="-8.5798553"><ele>144.33333333333334</ele><time>2026-04-05T10:26:54.599Z</time></trkpt><trkpt lat="43.3034685" lon="-8.5797318"><ele>141.0</ele><time>2026-04-05T10:26:55.6Z</time></trkpt><trkpt lat="43.3033155" lon="-8.5796693"><ele>141.0</ele><time>2026-04-05T10:26:56.6Z</time></trkpt><trkpt lat="43.3031409" lon="-8.5796649"><ele>141.0</ele><time>2026-04-05T10:26:57.599Z</time></trkpt><trkpt lat="43.302957" lon="-8.579709"><ele>141.0</ele><time>2026-04-05T10:26:58.599Z</time></trkpt><trkpt lat="43.3027968" lon="-8.5797892"><ele>141.5</ele><time>2026-04-05T10:26:59.6Z</time></trkpt><trkpt lat="43.3026633" lon="-8.5798698"><ele>142.0</ele><time>2026-04-05T10:27:00.6Z</time></trkpt><trkpt lat="43.3025487" lon="-8.5799153"><ele>142.5</ele><time>2026-04-05T10:27:01.6Z</time></trkpt><trkpt lat="43.302439" lon="-8.5799016"><ele>143.0</ele><time>2026-04-05T10:27:02.6Z</time></trkpt><trkpt lat="43.3023651" lon="-8.5798247"><ele>143.0</ele><time>2026-04-05T10:27:03.6Z</time></trkpt><trkpt lat="43.3023099" lon="-8.5797446"><ele>143.0</ele><time>2026-04-05T10:27:04.6Z</time></trkpt><trkpt lat="43.302269" lon="-8.579619"><ele>143.0</ele><time>2026-04-05T10:27:05.6Z</time></trkpt><trkpt lat="43.3022628" lon="-8.5794471"><ele>143.0</ele><time>2026-04-05T10:27:06.6Z</time></trkpt><trkpt lat="43.3022933" lon="-8.579215"><ele>140.5</ele><time>2026-04-05T10:27:07.599Z</time></trkpt><trkpt lat="43.3025744" lon="-8.5790024"><ele>138.0</ele><time>2026-04-05T10:27:08.6Z</time></trkpt><trkpt lat="43.3027339" lon="-8.5788027"><ele>139.33333333333334</ele><time>2026-04-05T10:27:09.6Z</time></trkpt><trkpt lat="43.3028877" lon="-8.5786092"><ele>140.66666666666669</ele><time>2026-04-05T10:27:10.6Z</time></trkpt><trkpt lat="43.303022" lon="-8.5784071"><ele>142.0</ele><time>2026-04-05T10:27:11.6Z</time></trkpt><trkpt lat="43.3031228" lon="-8.5781934"><ele>136.33333333333334</ele><time>2026-04-05T10:27:12.599Z</time></trkpt><trkpt lat="43.3031912" lon="-8.5779588"><ele>130.66666666666666</ele><time>2026-04-05T10:27:13.6Z</time></trkpt><trkpt lat="43.3032224" lon="-8.5777172"><ele>125.0</ele><time>2026-04-05T10:27:14.6Z</time></trkpt><trkpt lat="43.3032559" lon="-8.5774626"><ele>125.0</ele><time>2026-04-05T10:27:15.599Z</time></trkpt><trkpt lat="43.3032861" lon="-8.5772252"><ele>125.0</ele><time>2026-04-05T10:27:16.6Z</time></trkpt><trkpt lat="43.3032984" lon="-8.5770078"><ele>125.0</ele><time>2026-04-05T10:27:17.6Z</time></trkpt><trkpt lat="43.3032738" lon="-8.5767962"><ele>124.33333333333333</ele><time>2026-04-05T10:27:18.599Z</time></trkpt><trkpt lat="43.3032112" lon="-8.5765906"><ele>123.66666666666666</ele><time>2026-04-05T10:27:19.6Z</time></trkpt><trkpt lat="43.3031319" lon="-8.5763837"><ele>123.0</ele><time>2026-04-05T10:27:20.6Z</time></trkpt><trkpt lat="43.303058" lon="-8.5761721"><ele>133.0</ele><time>2026-04-05T10:27:21.599Z</time></trkpt><trkpt lat="43.3030223" lon="-8.5759471"><ele>143.0</ele><time>2026-04-05T10:27:22.6Z</time></trkpt><trkpt lat="43.3030307" lon="-8.5757035"><ele>153.0</ele><time>2026-04-05T10:27:23.599Z</time></trkpt><trkpt lat="43.3030592" lon="-8.5754548"><ele>141.33333333333334</ele><time>2026-04-05T10:27:24.6Z</time></trkpt><trkpt lat="43.3030892" lon="-8.5751891"><ele>129.66666666666669</ele><time>2026-04-05T10:27:25.599Z</time></trkpt><trkpt lat="43.3031149" lon="-8.5749027"><ele>118.0</ele><time>2026-04-05T10:27:26.599Z</time></trkpt><trkpt lat="43.3031461" lon="-8.5746044"><ele>118.33333333333334</ele><time>2026-04-05T10:27:27.6Z</time></trkpt><trkpt lat="43.3031797" lon="-8.5743054"><ele>118.66666666666666</ele><time>2026-04-05T10:27:28.6Z</time></trkpt><trkpt lat="43.3032157" lon="-8.5740188"><ele>119.0</ele><time>2026-04-05T10:27:29.6Z</time></trkpt><trkpt lat="43.3032614" lon="-8.5737535"><ele>120.0</ele><time>2026-04-05T10:27:30.599Z</time></trkpt><trkpt lat="43.303306" lon="-8.5734999"><ele>121.0</ele><time>2026-04-05T10:27:31.6Z</time></trkpt><trkpt lat="43.3033505" lon="-8.5732647"><ele>122.0</ele><time>2026-04-05T10:27:32.6Z</time></trkpt><trkpt lat="43.3033864" lon="-8.5730577"><ele>122.0</ele><time>2026-04-05T10:27:33.6Z</time></trkpt><trkpt lat="43.3034039" lon="-8.5728766"><ele>122.0</ele><time>2026-04-05T10:27:34.6Z</time></trkpt><trkpt lat="43.3033916" lon="-8.5727121"><ele>122.0</ele><time>2026-04-05T10:27:35.6Z</time></trkpt><trkpt lat="43.3033732" lon="-8.5725572"><ele>122.0</ele><time>2026-04-05T10:27:36.6Z</time></trkpt><trkpt lat="43.3033717" lon="-8.5723938"><ele>122.0</ele><time>2026-04-05T10:27:37.6Z</time></trkpt><trkpt lat="43.3033933" lon="-8.5722296"><ele>122.0</ele><time>2026-04-05T10:27:38.6Z</time></trkpt><trkpt lat="43.3034211" lon="-8.572066"><ele>122.0</ele><time>2026-04-05T10:27:39.6Z</time></trkpt><trkpt lat="43.3034272" lon="-8.5718986"><ele>122.0</ele><time>2026-04-05T10:27:40.6Z</time></trkpt><trkpt lat="43.3034099" lon="-8.5717351"><ele>120.75</ele><time>2026-04-05T10:27:41.599Z</time></trkpt><trkpt lat="43.3033878" lon="-8.5715698"><ele>119.5</ele><time>2026-04-05T10:27:42.6Z</time></trkpt><trkpt lat="43.3033797" lon="-8.5714094"><ele>118.25</ele><time>2026-04-05T10:27:43.6Z</time></trkpt><trkpt lat="43.3033994" lon="-8.5712593"><ele>117.0</ele><time>2026-04-05T10:27:44.6Z</time></trkpt><trkpt lat="43.3034519" lon="-8.5711239"><ele>115.0</ele><time>2026-04-05T10:27:45.6Z</time></trkpt><trkpt lat="43.303536" lon="-8.5710081"><ele>113.0</ele><time>2026-04-05T10:27:46.6Z</time></trkpt><trkpt lat="43.303636" lon="-8.5708999"><ele>111.0</ele><time>2026-04-05T10:27:47.6Z</time></trkpt><trkpt lat="43.3037411" lon="-8.5707895"><ele>109.0</ele><time>2026-04-05T10:27:48.6Z</time></trkpt><trkpt lat="43.3038499" lon="-8.570681"><ele>109.75</ele><time>2026-04-05T10:27:49.6Z</time></trkpt><trkpt lat="43.3039536" lon="-8.5705648"><ele>110.5</ele><time>2026-04-05T10:27:50.6Z</time></trkpt><trkpt lat="43.3040612" lon="-8.5704479"><ele>111.25</ele><time>2026-04-05T10:27:51.6Z</time></trkpt><trkpt lat="43.30417" lon="-8.5703307"><ele>112.0</ele><time>2026-04-05T10:27:52.6Z</time></trkpt><trkpt lat="43.304281" lon="-8.570213"><ele>109.75</ele><time>2026-04-05T10:27:53.599Z</time></trkpt><trkpt lat="43.3043908" lon="-8.5700835"><ele>107.5</ele><time>2026-04-05T10:27:54.6Z</time></trkpt><trkpt lat="43.304488" lon="-8.5699305"><ele>105.25</ele><time>2026-04-05T10:27:55.6Z</time></trkpt><trkpt lat="43.3045617" lon="-8.5697556"><ele>103.0</ele><time>2026-04-05T10:27:56.6Z</time></trkpt><trkpt lat="43.3046265" lon="-8.5695721"><ele>102.0</ele><time>2026-04-05T10:27:57.599Z</time></trkpt><trkpt lat="43.3046895" lon="-8.5693826"><ele>101.0</ele><time>2026-04-05T10:27:58.6Z</time></trkpt><trkpt lat="43.3047685" lon="-8.5691988"><ele>100.0</ele><time>2026-04-05T10:27:59.6Z</time></trkpt><trkpt lat="43.3048646" lon="-8.5690391"><ele>100.0</ele><time>2026-04-05T10:28:00.599Z</time></trkpt><trkpt lat="43.3049786" lon="-8.5688887"><ele>100.0</ele><time>2026-04-05T10:28:01.6Z</time></trkpt><trkpt lat="43.3050917" lon="-8.5687573"><ele>100.0</ele><time>2026-04-05T10:28:02.599Z</time></trkpt><trkpt lat="43.3052043" lon="-8.5686325"><ele>99.25</ele><time>2026-04-05T10:28:03.6Z</time></trkpt><trkpt lat="43.3053087" lon="-8.5685183"><ele>98.5</ele><time>2026-04-05T10:28:04.6Z</time></trkpt><trkpt lat="43.3054148" lon="-8.5684062"><ele>97.75</ele><time>2026-04-05T10:28:05.599Z</time></trkpt><trkpt lat="43.305514" lon="-8.5682965"><ele>97.0</ele><time>2026-04-05T10:28:06.599Z</time></trkpt><trkpt lat="43.3056005" lon="-8.568176"><ele>97.0</ele><time>2026-04-05T10:28:07.6Z</time></trkpt><trkpt lat="43.30567" lon="-8.5680351"><ele>97.0</ele><time>2026-04-05T10:28:08.6Z</time></trkpt><trkpt lat="43.3057129" lon="-8.5678817"><ele>97.0</ele><time>2026-04-05T10:28:09.6Z</time></trkpt><trkpt lat="43.3057477" lon="-8.5677261"><ele>97.0</ele><time>2026-04-05T10:28:10.6Z</time></trkpt><trkpt lat="43.3057756" lon="-8.5675684"><ele>95.75</ele><time>2026-04-05T10:28:11.6Z</time></trkpt><trkpt lat="43.3058038" lon="-8.5674076"><ele>94.5</ele><time>2026-04-05T10:28:12.6Z</time></trkpt><trkpt lat="43.3058335" lon="-8.5672458"><ele>93.25</ele><time>2026-04-05T10:28:13.6Z</time></trkpt><trkpt lat="43.3058619" lon="-8.56708"><ele>92.0</ele><time>2026-04-05T10:28:14.6Z</time></trkpt><trkpt lat="43.3058964" lon="-8.5669165"><ele>90.25</ele><time>2026-04-05T10:28:15.6Z</time></trkpt><trkpt lat="43.3059373" lon="-8.5667631"><ele>88.5</ele><time>2026-04-05T10:28:16.6Z</time></trkpt><trkpt lat="43.3059831" lon="-8.5666088"><ele>86.75</ele><time>2026-04-05T10:28:17.6Z</time></trkpt><trkpt lat="43.306011" lon="-8.5664524"><ele>85.0</ele><time>2026-04-05T10:28:18.6Z</time></trkpt><trkpt lat="43.3060041" lon="-8.5662941"><ele>82.5</ele><time>2026-04-05T10:28:19.6Z</time></trkpt><trkpt lat="43.3059602" lon="-8.5661561"><ele>80.0</ele><time>2026-04-05T10:28:20.599Z</time></trkpt><trkpt lat="43.3058838" lon="-8.5660402"><ele>77.5</ele><time>2026-04-05T10:28:21.6Z</time></trkpt><trkpt lat="43.3058013" lon="-8.565935"><ele>75.0</ele><time>2026-04-05T10:28:22.6Z</time></trkpt><trkpt lat="43.3057125" lon="-8.5658349"><ele>75.0</ele><time>2026-04-05T10:28:23.6Z</time></trkpt><trkpt lat="43.30563" lon="-8.5657339"><ele>75.0</ele><time>2026-04-05T10:28:24.599Z</time></trkpt><trkpt lat="43.3055496" lon="-8.565633"><ele>75.0</ele><time>2026-04-05T10:28:25.6Z</time></trkpt><trkpt lat="43.3054664" lon="-8.565534"><ele>75.0</ele><time>2026-04-05T10:28:26.599Z</time></trkpt><trkpt lat="43.3053843" lon="-8.5654319"><ele>75.0</ele><time>2026-04-05T10:28:27.6Z</time></trkpt><trkpt lat="43.3053036" lon="-8.5653311"><ele>73.4</ele><time>2026-04-05T10:28:28.6Z</time></trkpt><trkpt lat="43.3052317" lon="-8.5652204"><ele>71.8</ele><time>2026-04-05T10:28:29.6Z</time></trkpt><trkpt lat="43.3051725" lon="-8.5650929"><ele>70.2</ele><time>2026-04-05T10:28:30.6Z</time></trkpt><trkpt lat="43.3051268" lon="-8.5649511"><ele>68.6</ele><time>2026-04-05T10:28:31.6Z</time></trkpt><trkpt lat="43.3050908" lon="-8.5647996"><ele>67.0</ele><time>2026-04-05T10:28:32.6Z</time></trkpt><trkpt lat="43.3050676" lon="-8.5646432"><ele>66.25</ele><time>2026-04-05T10:28:33.6Z</time></trkpt><trkpt lat="43.3050483" lon="-8.5644829"><ele>65.5</ele><time>2026-04-05T10:28:34.6Z</time></trkpt><trkpt lat="43.3050359" lon="-8.5643148"><ele>64.75</ele><time>2026-04-05T10:28:35.599Z</time></trkpt><trkpt lat="43.3050259" lon="-8.5641417"><ele>64.0</ele><time>2026-04-05T10:28:36.6Z</time></trkpt><trkpt lat="43.3050064" lon="-8.5639662"><ele>64.0</ele><time>2026-04-05T10:28:37.599Z</time></trkpt><trkpt lat="43.3049582" lon="-8.5637919"><ele>64.0</ele><time>2026-04-05T10:28:38.6Z</time></trkpt><trkpt lat="43.304883" lon="-8.5636278"><ele>64.0</ele><time>2026-04-05T10:28:39.6Z</time></trkpt><trkpt lat="43.3047914" lon="-8.5634726"><ele>64.0</ele><time>2026-04-05T10:28:40.6Z</time></trkpt><trkpt lat="43.3046887" lon="-8.5633214"><ele>63.33333333333333</ele><time>2026-04-05T10:28:41.6Z</time></trkpt><trkpt lat="43.3045847" lon="-8.5631723"><ele>62.66666666666667</ele><time>2026-04-05T10:28:42.599Z</time></trkpt><trkpt lat="43.3044819" lon="-8.5630214"><ele>62.0</ele><time>2026-04-05T10:28:43.6Z</time></trkpt><trkpt lat="43.3043765" lon="-8.5628695"><ele>59.333333333333336</ele><time>2026-04-05T10:28:44.6Z</time></trkpt><trkpt lat="43.3042715" lon="-8.5627167"><ele>56.66666666666667</ele><time>2026-04-05T10:28:45.6Z</time></trkpt><trkpt lat="43.3041632" lon="-8.5625644"><ele>54.0</ele><time>2026-04-05T10:28:46.6Z</time></trkpt><trkpt lat="43.3040508" lon="-8.5624126"><ele>54.0</ele><time>2026-04-05T10:28:47.599Z</time></trkpt><trkpt lat="43.3039413" lon="-8.5622577"><ele>54.0</ele><time>2026-04-05T10:28:48.6Z</time></trkpt><trkpt lat="43.3038333" lon="-8.5621024"><ele>54.0</ele><time>2026-04-05T10:28:49.6Z</time></trkpt><trkpt lat="43.3037273" lon="-8.5619486"><ele>54.5</ele><time>2026-04-05T10:28:50.599Z</time></trkpt><trkpt lat="43.3036229" lon="-8.5617984"><ele>55.0</ele><time>2026-04-05T10:28:51.6Z</time></trkpt><trkpt lat="43.3035201" lon="-8.5616503"><ele>55.5</ele><time>2026-04-05T10:28:52.6Z</time></trkpt><trkpt lat="43.3034197" lon="-8.5615062"><ele>56.0</ele><time>2026-04-05T10:28:53.6Z</time></trkpt><trkpt lat="43.3033186" lon="-8.561365"><ele>56.0</ele><time>2026-04-05T10:28:54.6Z</time></trkpt><trkpt lat="43.3032181" lon="-8.5612412"><ele>56.0</ele><time>2026-04-05T10:28:55.599Z</time></trkpt><trkpt lat="43.3031115" lon="-8.561127"><ele>56.0</ele><time>2026-04-05T10:28:56.6Z</time></trkpt><trkpt lat="43.3030092" lon="-8.5610212"><ele>56.0</ele><time>2026-04-05T10:28:57.6Z</time></trkpt><trkpt lat="43.3029303" lon="-8.5609003"><ele>55.5</ele><time>2026-04-05T10:28:58.6Z</time></trkpt><trkpt lat="43.3028717" lon="-8.5607614"><ele>55.0</ele><time>2026-04-05T10:28:59.6Z</time></trkpt><trkpt lat="43.302848" lon="-8.5605983"><ele>54.5</ele><time>2026-04-05T10:29:00.599Z</time></trkpt><trkpt lat="43.3028549" lon="-8.5604289"><ele>54.0</ele><time>2026-04-05T10:29:01.599Z</time></trkpt><trkpt lat="43.302871" lon="-8.5602551"><ele>52.5</ele><time>2026-04-05T10:29:02.6Z</time></trkpt><trkpt lat="43.3028899" lon="-8.5600761"><ele>51.0</ele><time>2026-04-05T10:29:03.6Z</time></trkpt><trkpt lat="43.3029131" lon="-8.5598938"><ele>49.5</ele><time>2026-04-05T10:29:04.6Z</time></trkpt><trkpt lat="43.3029462" lon="-8.5597085"><ele>48.0</ele><time>2026-04-05T10:29:05.6Z</time></trkpt><trkpt lat="43.3030077" lon="-8.5595331"><ele>42.666666666666664</ele><time>2026-04-05T10:29:06.6Z</time></trkpt><trkpt lat="43.303087" lon="-8.5593674"><ele>37.33333333333333</ele><time>2026-04-05T10:29:07.599Z</time></trkpt><trkpt lat="43.3031794" lon="-8.5592032"><ele>32.0</ele><time>2026-04-05T10:29:08.6Z</time></trkpt><trkpt lat="43.3032771" lon="-8.5590384"><ele>32.0</ele><time>2026-04-05T10:29:09.6Z</time></trkpt><trkpt lat="43.3033824" lon="-8.5588827"><ele>32.0</ele><time>2026-04-05T10:29:10.6Z</time></trkpt><trkpt lat="43.3034961" lon="-8.5587368"><ele>32.0</ele><time>2026-04-05T10:29:11.599Z</time></trkpt><trkpt lat="43.3036217" lon="-8.5586097"><ele>31.333333333333332</ele><time>2026-04-05T10:29:12.6Z</time></trkpt><trkpt lat="43.3037572" lon="-8.5585083"><ele>30.666666666666664</ele><time>2026-04-05T10:29:13.6Z</time></trkpt><trkpt lat="43.3038961" lon="-8.5584242"><ele>30.0</ele><time>2026-04-05T10:29:14.599Z</time></trkpt><trkpt lat="43.3040374" lon="-8.558342"><ele>29.25</ele><time>2026-04-05T10:29:15.6Z</time></trkpt><trkpt lat="43.3041687" lon="-8.5582463"><ele>28.5</ele><time>2026-04-05T10:29:16.599Z</time></trkpt><trkpt lat="43.3042939" lon="-8.5581321"><ele>27.75</ele><time>2026-04-05T10:29:17.6Z</time></trkpt><trkpt lat="43.3044082" lon="-8.5580022"><ele>27.0</ele><time>2026-04-05T10:29:18.6Z</time></trkpt><trkpt lat="43.3045216" lon="-8.5578548"><ele>26.666666666666664</ele><time>2026-04-05T10:29:19.6Z</time></trkpt><trkpt lat="43.3046337" lon="-8.5576999"><ele>26.333333333333332</ele><time>2026-04-05T10:29:20.599Z</time></trkpt><trkpt lat="43.3047387" lon="-8.5575325"><ele>26.0</ele><time>2026-04-05T10:29:21.6Z</time></trkpt><trkpt lat="43.3048583" lon="-8.5573839"><ele>24.333333333333332</ele><time>2026-04-05T10:29:22.6Z</time></trkpt><trkpt lat="43.3049888" lon="-8.5572494"><ele>22.666666666666664</ele><time>2026-04-05T10:29:23.599Z</time></trkpt><trkpt lat="43.3051247" lon="-8.5571316"><ele>21.0</ele><time>2026-04-05T10:29:24.6Z</time></trkpt><trkpt lat="43.3052647" lon="-8.5570179"><ele>20.666666666666668</ele><time>2026-04-05T10:29:25.6Z</time></trkpt><trkpt lat="43.3054153" lon="-8.5569025"><ele>20.333333333333336</ele><time>2026-04-05T10:29:26.6Z</time></trkpt><trkpt lat="43.3055698" lon="-8.5567799"><ele>20.0</ele><time>2026-04-05T10:29:27.599Z</time></trkpt><trkpt lat="43.3057182" lon="-8.5566461"><ele>19.333333333333336</ele><time>2026-04-05T10:29:28.6Z</time></trkpt><trkpt lat="43.3058575" lon="-8.5564961"><ele>18.666666666666668</ele><time>2026-04-05T10:29:29.599Z</time></trkpt><trkpt lat="43.3059896" lon="-8.5563428"><ele>18.0</ele><time>2026-04-05T10:29:30.6Z</time></trkpt><trkpt lat="43.3061195" lon="-8.5561805"><ele>16.666666666666668</ele><time>2026-04-05T10:29:31.6Z</time></trkpt><trkpt lat="43.3062492" lon="-8.5560212"><ele>15.333333333333334</ele><time>2026-04-05T10:29:32.599Z</time></trkpt><trkpt lat="43.306384" lon="-8.5558687"><ele>14.0</ele><time>2026-04-05T10:29:33.6Z</time></trkpt><trkpt lat="43.3065151" lon="-8.5557253"><ele>12.666666666666668</ele><time>2026-04-05T10:29:34.6Z</time></trkpt><trkpt lat="43.3066503" lon="-8.5555827"><ele>11.333333333333334</ele><time>2026-04-05T10:29:35.6Z</time></trkpt><trkpt lat="43.3067821" lon="-8.5554484"><ele>10.0</ele><time>2026-04-05T10:29:36.599Z</time></trkpt><trkpt lat="43.3069132" lon="-8.5553144"><ele>9.666666666666668</ele><time>2026-04-05T10:29:37.6Z</time></trkpt><trkpt lat="43.3070501" lon="-8.5551806"><ele>9.333333333333334</ele><time>2026-04-05T10:29:38.599Z</time></trkpt><trkpt lat="43.3071829" lon="-8.5550465"><ele>9.0</ele><time>2026-04-05T10:29:39.6Z</time></trkpt><trkpt lat="43.3073103" lon="-8.5549123"><ele>10.333333333333332</ele><time>2026-04-05T10:29:40.599Z</time></trkpt><trkpt lat="43.3074366" lon="-8.5547841"><ele>11.666666666666666</ele><time>2026-04-05T10:29:41.6Z</time></trkpt><trkpt lat="43.3075648" lon="-8.5546559"><ele>13.0</ele><time>2026-04-05T10:29:42.599Z</time></trkpt><trkpt lat="43.3076858" lon="-8.5545331"><ele>13.5</ele><time>2026-04-05T10:29:43.6Z</time></trkpt><trkpt lat="43.3077966" lon="-8.554404"><ele>14.0</ele><time>2026-04-05T10:29:44.6Z</time></trkpt><trkpt lat="43.3078996" lon="-8.5542724"><ele>14.5</ele><time>2026-04-05T10:29:45.6Z</time></trkpt><trkpt lat="43.3079933" lon="-8.5541381"><ele>15.0</ele><time>2026-04-05T10:29:46.6Z</time></trkpt><trkpt lat="43.3080848" lon="-8.553998"><ele>12.75</ele><time>2026-04-05T10:29:47.6Z</time></trkpt><trkpt lat="43.3081751" lon="-8.5538516"><ele>10.5</ele><time>2026-04-05T10:29:48.599Z</time></trkpt><trkpt lat="43.3082599" lon="-8.5537102"><ele>8.25</ele><time>2026-04-05T10:29:49.6Z</time></trkpt><trkpt lat="43.3083345" lon="-8.5535747"><ele>6.0</ele><time>2026-04-05T10:29:50.599Z</time></trkpt><trkpt lat="43.3083996" lon="-8.5534472"><ele>6.0</ele><time>2026-04-05T10:29:51.599Z</time></trkpt><trkpt lat="43.3084621" lon="-8.5533241"><ele>6.0</ele><time>2026-04-05T10:29:52.6Z</time></trkpt><trkpt lat="43.308522" lon="-8.5531908"><ele>6.0</ele><time>2026-04-05T10:29:53.6Z</time></trkpt><trkpt lat="43.3085775" lon="-8.5530363"><ele>6.0</ele><time>2026-04-05T10:29:54.599Z</time></trkpt><trkpt lat="43.3086182" lon="-8.5528593"><ele>5.333333333333333</ele><time>2026-04-05T10:29:55.6Z</time></trkpt><trkpt lat="43.3086542" lon="-8.5526614"><ele>4.666666666666666</ele><time>2026-04-05T10:29:56.6Z</time></trkpt><trkpt lat="43.3086898" lon="-8.5524459"><ele>4.0</ele><time>2026-04-05T10:29:57.6Z</time></trkpt><trkpt lat="43.3087246" lon="-8.5522351"><ele>3.6666666666666665</ele><time>2026-04-05T10:29:58.6Z</time></trkpt><trkpt lat="43.3087591" lon="-8.5520272"><ele>3.333333333333333</ele><time>2026-04-05T10:29:59.6Z</time></trkpt><trkpt lat="43.3087943" lon="-8.5518225"><ele>3.0</ele><time>2026-04-05T10:30:00.6Z</time></trkpt><trkpt lat="43.3088302" lon="-8.5516226"><ele>3.0</ele><time>2026-04-05T10:30:01.6Z</time></trkpt><trkpt lat="43.3088701" lon="-8.5514254"><ele>3.0</ele><time>2026-04-05T10:30:02.6Z</time></trkpt><trkpt lat="43.3089067" lon="-8.5512297"><ele>3.0</ele><time>2026-04-05T10:30:03.6Z</time></trkpt><trkpt lat="43.3089405" lon="-8.5510349"><ele>3.0</ele><time>2026-04-05T10:30:04.6Z</time></trkpt><trkpt lat="43.3089721" lon="-8.5508422"><ele>3.5</ele><time>2026-04-05T10:30:05.6Z</time></trkpt><trkpt lat="43.3090071" lon="-8.5506491"><ele>4.0</ele><time>2026-04-05T10:30:06.6Z</time></trkpt><trkpt lat="43.3090404" lon="-8.5504555"><ele>4.5</ele><time>2026-04-05T10:30:07.6Z</time></trkpt><trkpt lat="43.309077" lon="-8.5502652"><ele>5.0</ele><time>2026-04-05T10:30:08.599Z</time></trkpt><trkpt lat="43.3091067" lon="-8.5500813"><ele>5.0</ele><time>2026-04-05T10:30:09.599Z</time></trkpt><trkpt lat="43.3091381" lon="-8.5499005"><ele>5.0</ele><time>2026-04-05T10:30:10.599Z</time></trkpt><trkpt lat="43.3091642" lon="-8.5497337"><ele>5.0</ele><time>2026-04-05T10:30:11.6Z</time></trkpt><trkpt lat="43.3091885" lon="-8.5495875"><ele>5.0</ele><time>2026-04-05T10:30:12.6Z</time></trkpt><trkpt lat="43.309211" lon="-8.5494607"><ele>5.2</ele><time>2026-04-05T10:30:13.6Z</time></trkpt><trkpt lat="43.3092313" lon="-8.5493485"><ele>5.4</ele><time>2026-04-05T10:30:14.6Z</time></trkpt><trkpt lat="43.3092497" lon="-8.5492513"><ele>5.6</ele><time>2026-04-05T10:30:15.6Z</time></trkpt><trkpt lat="43.3092635" lon="-8.5491633"><ele>5.8</ele><time>2026-04-05T10:30:16.6Z</time></trkpt><trkpt lat="43.3092916" lon="-8.5489994"><ele>6.0</ele><time>2026-04-05T10:30:18.599Z</time></trkpt><trkpt lat="43.3093262" lon="-8.5488376"><ele>6.833333333333333</ele><time>2026-04-05T10:30:20.6Z</time></trkpt><trkpt lat="43.3093541" lon="-8.5486732"><ele>7.666666666666666</ele><time>2026-04-05T10:30:22.6Z</time></trkpt><trkpt lat="43.3093671" lon="-8.5485844"><ele>8.5</ele><time>2026-04-05T10:30:23.6Z</time></trkpt><trkpt lat="43.3093814" lon="-8.5484893"><ele>9.333333333333332</ele><time>2026-04-05T10:30:24.6Z</time></trkpt><trkpt lat="43.309403" lon="-8.5483879"><ele>10.166666666666666</ele><time>2026-04-05T10:30:25.6Z</time></trkpt><trkpt lat="43.3094314" lon="-8.5482801"><ele>11.0</ele><time>2026-04-05T10:30:26.599Z</time></trkpt><trkpt lat="43.3094827" lon="-8.548169"><ele>11.0</ele><time>2026-04-05T10:30:27.6Z</time></trkpt><trkpt lat="43.3095585" lon="-8.5480641"><ele>11.0</ele><time>2026-04-05T10:30:28.6Z</time></trkpt><trkpt lat="43.309656" lon="-8.5479644"><ele>11.0</ele><time>2026-04-05T10:30:29.599Z</time></trkpt><trkpt lat="43.3097597" lon="-8.5478673"><ele>11.0</ele><time>2026-04-05T10:30:30.599Z</time></trkpt><trkpt lat="43.3098727" lon="-8.5477643"><ele>13.0</ele><time>2026-04-05T10:30:31.599Z</time></trkpt><trkpt lat="43.3099901" lon="-8.5476568"><ele>15.0</ele><time>2026-04-05T10:30:32.599Z</time></trkpt><trkpt lat="43.3101006" lon="-8.5475466"><ele>17.0</ele><time>2026-04-05T10:30:33.6Z</time></trkpt><trkpt lat="43.3102129" lon="-8.5474454"><ele>19.0</ele><time>2026-04-05T10:30:34.6Z</time></trkpt><trkpt lat="43.3103209" lon="-8.5473545"><ele>19.0</ele><time>2026-04-05T10:30:35.6Z</time></trkpt><trkpt lat="43.3104269" lon="-8.5472579"><ele>19.0</ele><time>2026-04-05T10:30:36.599Z</time></trkpt><trkpt lat="43.3105228" lon="-8.5471584"><ele>19.0</ele><time>2026-04-05T10:30:37.6Z</time></trkpt><trkpt lat="43.3106223" lon="-8.5470603"><ele>19.0</ele><time>2026-04-05T10:30:38.6Z</time></trkpt><trkpt lat="43.3107183" lon="-8.5469621"><ele>20.25</ele><time>2026-04-05T10:30:39.6Z</time></trkpt><trkpt lat="43.310812" lon="-8.5468606"><ele>21.5</ele><time>2026-04-05T10:30:40.6Z</time></trkpt><trkpt lat="43.3109027" lon="-8.5467551"><ele>22.75</ele><time>2026-04-05T10:30:41.6Z</time></trkpt><trkpt lat="43.3109924" lon="-8.5466445"><ele>24.0</ele><time>2026-04-05T10:30:42.599Z</time></trkpt><trkpt lat="43.3110953" lon="-8.5465388"><ele>24.0</ele><time>2026-04-05T10:30:43.6Z</time></trkpt><trkpt lat="43.3112045" lon="-8.5464174"><ele>24.0</ele><time>2026-04-05T10:30:44.6Z</time></trkpt><trkpt lat="43.3113109" lon="-8.546287"><ele>24.0</ele><time>2026-04-05T10:30:45.6Z</time></trkpt><trkpt lat="43.3114193" lon="-8.5461431"><ele>24.0</ele><time>2026-04-05T10:30:46.6Z</time></trkpt><trkpt lat="43.3115181" lon="-8.5459815"><ele>24.666666666666664</ele><time>2026-04-05T10:30:47.6Z</time></trkpt><trkpt lat="43.3115851" lon="-8.5457918"><ele>25.333333333333332</ele><time>2026-04-05T10:30:48.6Z</time></trkpt><trkpt lat="43.3116041" lon="-8.5455899"><ele>26.0</ele><time>2026-04-05T10:30:49.6Z</time></trkpt><trkpt lat="43.3115808" lon="-8.5453856"><ele>25.666666666666664</ele><time>2026-04-05T10:30:50.6Z</time></trkpt><trkpt lat="43.3115437" lon="-8.5451771"><ele>25.333333333333336</ele><time>2026-04-05T10:30:51.6Z</time></trkpt><trkpt lat="43.3114944" lon="-8.5449702"><ele>25.0</ele><time>2026-04-05T10:30:52.599Z</time></trkpt><trkpt lat="43.3114383" lon="-8.5447756"><ele>28.5</ele><time>2026-04-05T10:30:53.6Z</time></trkpt><trkpt lat="43.3113661" lon="-8.5446015"><ele>32.0</ele><time>2026-04-05T10:30:54.599Z</time></trkpt><trkpt lat="43.3112814" lon="-8.544449"><ele>35.5</ele><time>2026-04-05T10:30:55.599Z</time></trkpt><trkpt lat="43.3111907" lon="-8.5443044"><ele>39.0</ele><time>2026-04-05T10:30:56.6Z</time></trkpt><trkpt lat="43.3111054" lon="-8.5441532"><ele>41.25</ele><time>2026-04-05T10:30:57.6Z</time></trkpt><trkpt lat="43.3110268" lon="-8.5439902"><ele>43.5</ele><time>2026-04-05T10:30:58.599Z</time></trkpt><trkpt lat="43.3109656" lon="-8.5438167"><ele>45.75</ele><time>2026-04-05T10:30:59.6Z</time></trkpt><trkpt lat="43.3109175" lon="-8.5436366"><ele>48.0</ele><time>2026-04-05T10:31:00.6Z</time></trkpt><trkpt lat="43.3108976" lon="-8.5434714"><ele>50.0</ele><time>2026-04-05T10:31:01.599Z</time></trkpt><trkpt lat="43.3108977" lon="-8.543305"><ele>52.0</ele><time>2026-04-05T10:31:02.6Z</time></trkpt><trkpt lat="43.3109095" lon="-8.5431511"><ele>54.0</ele><time>2026-04-05T10:31:03.6Z</time></trkpt><trkpt lat="43.3109758" lon="-8.5429852"><ele>56.0</ele><time>2026-04-05T10:31:04.6Z</time></trkpt><trkpt lat="43.3110588" lon="-8.5428312"><ele>58.5</ele><time>2026-04-05T10:31:05.6Z</time></trkpt><trkpt lat="43.3111528" lon="-8.5426752"><ele>61.0</ele><time>2026-04-05T10:31:06.6Z</time></trkpt><trkpt lat="43.3112479" lon="-8.5425192"><ele>63.5</ele><time>2026-04-05T10:31:07.6Z</time></trkpt><trkpt lat="43.3113348" lon="-8.542356"><ele>66.0</ele><time>2026-04-05T10:31:08.6Z</time></trkpt><trkpt lat="43.3114152" lon="-8.5421934"><ele>64.75</ele><time>2026-04-05T10:31:09.599Z</time></trkpt><trkpt lat="43.3114907" lon="-8.542028"><ele>63.5</ele><time>2026-04-05T10:31:10.599Z</time></trkpt><trkpt lat="43.3115606" lon="-8.5418655"><ele>62.25</ele><time>2026-04-05T10:31:11.6Z</time></trkpt><trkpt lat="43.3116243" lon="-8.5417014"><ele>61.0</ele><time>2026-04-05T10:31:12.6Z</time></trkpt><trkpt lat="43.3116859" lon="-8.5415362"><ele>61.0</ele><time>2026-04-05T10:31:13.6Z</time></trkpt><trkpt lat="43.3117552" lon="-8.5413679"><ele>61.0</ele><time>2026-04-05T10:31:14.6Z</time></trkpt><trkpt lat="43.311837" lon="-8.5411986"><ele>61.0</ele><time>2026-04-05T10:31:15.6Z</time></trkpt><trkpt lat="43.311928" lon="-8.5410347"><ele>61.0</ele><time>2026-04-05T10:31:16.599Z</time></trkpt><trkpt lat="43.3120274" lon="-8.5408704"><ele>60.0</ele><time>2026-04-05T10:31:17.6Z</time></trkpt><trkpt lat="43.3121373" lon="-8.5407062"><ele>59.0</ele><time>2026-04-05T10:31:18.599Z</time></trkpt><trkpt lat="43.3122525" lon="-8.5405417"><ele>58.0</ele><time>2026-04-05T10:31:19.6Z</time></trkpt><trkpt lat="43.3123729" lon="-8.5403827"><ele>64.33333333333333</ele><time>2026-04-05T10:31:20.6Z</time></trkpt><trkpt lat="43.3125036" lon="-8.5402323"><ele>70.66666666666667</ele><time>2026-04-05T10:31:21.599Z</time></trkpt><trkpt lat="43.3126395" lon="-8.5400867"><ele>77.0</ele><time>2026-04-05T10:31:22.6Z</time></trkpt><trkpt lat="43.3127788" lon="-8.5399515"><ele>77.0</ele><time>2026-04-05T10:31:23.6Z</time></trkpt><trkpt lat="43.3129178" lon="-8.5398145"><ele>77.0</ele><time>2026-04-05T10:31:24.599Z</time></trkpt><trkpt lat="43.3130492" lon="-8.5396674"><ele>77.0</ele><time>2026-04-05T10:31:25.6Z</time></trkpt><trkpt lat="43.3131638" lon="-8.5394977"><ele>78.33333333333334</ele><time>2026-04-05T10:31:26.6Z</time></trkpt><trkpt lat="43.3132577" lon="-8.5393109"><ele>79.66666666666667</ele><time>2026-04-05T10:31:27.6Z</time></trkpt><trkpt lat="43.3133386" lon="-8.5391157"><ele>81.0</ele><time>2026-04-05T10:31:28.6Z</time></trkpt><trkpt lat="43.3134011" lon="-8.5389151"><ele>84.0</ele><time>2026-04-05T10:31:29.6Z</time></trkpt><trkpt lat="43.3134621" lon="-8.5387161"><ele>87.0</ele><time>2026-04-05T10:31:30.6Z</time></trkpt><trkpt lat="43.3135154" lon="-8.5385183"><ele>90.0</ele><time>2026-04-05T10:31:31.6Z</time></trkpt><trkpt lat="43.3135635" lon="-8.5383122"><ele>90.0</ele><time>2026-04-05T10:31:32.6Z</time></trkpt><trkpt lat="43.3136054" lon="-8.5381001"><ele>90.0</ele><time>2026-04-05T10:31:33.6Z</time></trkpt><trkpt lat="43.3136438" lon="-8.5378825"><ele>90.0</ele><time>2026-04-05T10:31:34.599Z</time></trkpt><trkpt lat="43.3136771" lon="-8.5376555"><ele>90.33333333333333</ele><time>2026-04-05T10:31:35.599Z</time></trkpt><trkpt lat="43.3136984" lon="-8.5374248"><ele>90.66666666666666</ele><time>2026-04-05T10:31:36.6Z</time></trkpt><trkpt lat="43.3137056" lon="-8.5371919"><ele>91.0</ele><time>2026-04-05T10:31:37.6Z</time></trkpt><trkpt lat="43.3136973" lon="-8.5369591"><ele>91.0</ele><time>2026-04-05T10:31:38.6Z</time></trkpt><trkpt lat="43.3136621" lon="-8.5367307"><ele>91.0</ele><time>2026-04-05T10:31:39.6Z</time></trkpt><trkpt lat="43.3136031" lon="-8.5365143"><ele>91.0</ele><time>2026-04-05T10:31:40.6Z</time></trkpt><trkpt lat="43.3135211" lon="-8.536312"><ele>87.0</ele><time>2026-04-05T10:31:41.6Z</time></trkpt><trkpt lat="43.3134187" lon="-8.5361248"><ele>83.0</ele><time>2026-04-05T10:31:42.6Z</time></trkpt><trkpt lat="43.3133004" lon="-8.5359466"><ele>79.0</ele><time>2026-04-05T10:31:43.6Z</time></trkpt><trkpt lat="43.3131791" lon="-8.5357737"><ele>82.0</ele><time>2026-04-05T10:31:44.599Z</time></trkpt><trkpt lat="43.3130578" lon="-8.5356144"><ele>85.0</ele><time>2026-04-05T10:31:45.6Z</time></trkpt><trkpt lat="43.3129452" lon="-8.5354636"><ele>88.0</ele><time>2026-04-05T10:31:46.6Z</time></trkpt><trkpt lat="43.3128401" lon="-8.5353194"><ele>88.0</ele><time>2026-04-05T10:31:47.6Z</time></trkpt><trkpt lat="43.3127488" lon="-8.5351622"><ele>88.0</ele><time>2026-04-05T10:31:48.6Z</time></trkpt><trkpt lat="43.312681" lon="-8.534984"><ele>88.0</ele><time>2026-04-05T10:31:49.599Z</time></trkpt><trkpt lat="43.3126074" lon="-8.5348057"><ele>88.0</ele><time>2026-04-05T10:31:50.599Z</time></trkpt><trkpt lat="43.3125617" lon="-8.5346357"><ele>88.0</ele><time>2026-04-05T10:31:51.6Z</time></trkpt><trkpt lat="43.3125879" lon="-8.5344121"><ele>88.0</ele><time>2026-04-05T10:31:52.6Z</time></trkpt><trkpt lat="43.3126006" lon="-8.534196"><ele>88.0</ele><time>2026-04-05T10:31:53.6Z</time></trkpt><trkpt lat="43.3126007" lon="-8.5339759"><ele>88.0</ele><time>2026-04-05T10:31:54.599Z</time></trkpt><trkpt lat="43.3125777" lon="-8.5337603"><ele>88.0</ele><time>2026-04-05T10:31:55.6Z</time></trkpt><trkpt lat="43.3125434" lon="-8.5335435"><ele>88.0</ele><time>2026-04-05T10:31:56.6Z</time></trkpt><trkpt lat="43.3124968" lon="-8.5333252"><ele>87.0</ele><time>2026-04-05T10:31:57.6Z</time></trkpt><trkpt lat="43.3124458" lon="-8.5331144"><ele>86.0</ele><time>2026-04-05T10:31:58.6Z</time></trkpt><trkpt lat="43.3123906" lon="-8.5328974"><ele>85.0</ele><time>2026-04-05T10:31:59.6Z</time></trkpt><trkpt lat="43.3123356" lon="-8.53268"><ele>82.33333333333333</ele><time>2026-04-05T10:32:00.6Z</time></trkpt><trkpt lat="43.312277" lon="-8.5324617"><ele>79.66666666666667</ele><time>2026-04-05T10:32:01.6Z</time></trkpt><trkpt lat="43.3122231" lon="-8.5322439"><ele>77.0</ele><time>2026-04-05T10:32:02.599Z</time></trkpt><trkpt lat="43.3121727" lon="-8.5320221"><ele>82.66666666666667</ele><time>2026-04-05T10:32:03.599Z</time></trkpt><trkpt lat="43.312124" lon="-8.5317957"><ele>88.33333333333333</ele><time>2026-04-05T10:32:04.599Z</time></trkpt><trkpt lat="43.3120791" lon="-8.531567"><ele>94.0</ele><time>2026-04-05T10:32:05.599Z</time></trkpt><trkpt lat="43.3120399" lon="-8.5313363"><ele>91.66666666666666</ele><time>2026-04-05T10:32:06.6Z</time></trkpt><trkpt lat="43.3119997" lon="-8.5311102"><ele>89.33333333333333</ele><time>2026-04-05T10:32:07.6Z</time></trkpt><trkpt lat="43.3119594" lon="-8.5308791"><ele>87.0</ele><time>2026-04-05T10:32:08.6Z</time></trkpt><trkpt lat="43.3119116" lon="-8.5306456"><ele>87.0</ele><time>2026-04-05T10:32:09.6Z</time></trkpt><trkpt lat="43.3118561" lon="-8.5304186"><ele>87.0</ele><time>2026-04-05T10:32:10.6Z</time></trkpt><trkpt lat="43.3117892" lon="-8.5301895"><ele>87.0</ele><time>2026-04-05T10:32:11.599Z</time></trkpt><trkpt lat="43.3117118" lon="-8.5299653"><ele>85.33333333333333</ele><time>2026-04-05T10:32:12.6Z</time></trkpt><trkpt lat="43.3116294" lon="-8.529741"><ele>83.66666666666666</ele><time>2026-04-05T10:32:13.6Z</time></trkpt><trkpt lat="43.3115435" lon="-8.5295115"><ele>82.0</ele><time>2026-04-05T10:32:14.599Z</time></trkpt><trkpt lat="43.3114505" lon="-8.529276"><ele>84.66666666666666</ele><time>2026-04-05T10:32:15.599Z</time></trkpt><trkpt lat="43.3113513" lon="-8.5290381"><ele>87.33333333333333</ele><time>2026-04-05T10:32:16.599Z</time></trkpt><trkpt lat="43.3112493" lon="-8.5288011"><ele>90.0</ele><time>2026-04-05T10:32:17.6Z</time></trkpt><trkpt lat="43.3111415" lon="-8.5285704"><ele>90.0</ele><time>2026-04-05T10:32:18.6Z</time></trkpt><trkpt lat="43.3110305" lon="-8.5283414"><ele>90.0</ele><time>2026-04-05T10:32:19.6Z</time></trkpt><trkpt lat="43.3109151" lon="-8.5281171"><ele>90.0</ele><time>2026-04-05T10:32:20.6Z</time></trkpt><trkpt lat="43.3107994" lon="-8.527898"><ele>91.66666666666667</ele><time>2026-04-05T10:32:21.599Z</time></trkpt><trkpt lat="43.3106864" lon="-8.527669"><ele>93.33333333333334</ele><time>2026-04-05T10:32:22.6Z</time></trkpt><trkpt lat="43.3105796" lon="-8.5274436"><ele>95.0</ele><time>2026-04-05T10:32:23.6Z</time></trkpt><trkpt lat="43.3104842" lon="-8.527217"><ele>93.0</ele><time>2026-04-05T10:32:24.6Z</time></trkpt><trkpt lat="43.3103971" lon="-8.5269864"><ele>91.0</ele><time>2026-04-05T10:32:25.6Z</time></trkpt><trkpt lat="43.310331" lon="-8.5267556"><ele>89.0</ele><time>2026-04-05T10:32:26.6Z</time></trkpt><trkpt lat="43.3102707" lon="-8.526524"><ele>89.0</ele><time>2026-04-05T10:32:27.599Z</time></trkpt><trkpt lat="43.3102145" lon="-8.5262918"><ele>89.0</ele><time>2026-04-05T10:32:28.599Z</time></trkpt><trkpt lat="43.3101631" lon="-8.5260599"><ele>89.0</ele><time>2026-04-05T10:32:29.599Z</time></trkpt><trkpt lat="43.3101136" lon="-8.5258236"><ele>88.33333333333334</ele><time>2026-04-05T10:32:30.6Z</time></trkpt><trkpt lat="43.310057" lon="-8.5255871"><ele>87.66666666666667</ele><time>2026-04-05T10:32:31.6Z</time></trkpt><trkpt lat="43.3099917" lon="-8.5253557"><ele>87.0</ele><time>2026-04-05T10:32:32.599Z</time></trkpt><trkpt lat="43.3099184" lon="-8.5251299"><ele>88.0</ele><time>2026-04-05T10:32:33.599Z</time></trkpt><trkpt lat="43.3098343" lon="-8.5249037"><ele>89.0</ele><time>2026-04-05T10:32:34.6Z</time></trkpt><trkpt lat="43.3097463" lon="-8.52468"><ele>90.0</ele><time>2026-04-05T10:32:35.6Z</time></trkpt><trkpt lat="43.3096616" lon="-8.5244519"><ele>90.0</ele><time>2026-04-05T10:32:36.6Z</time></trkpt><trkpt lat="43.3095759" lon="-8.5242257"><ele>90.0</ele><time>2026-04-05T10:32:37.6Z</time></trkpt><trkpt lat="43.3094892" lon="-8.5240052"><ele>90.0</ele><time>2026-04-05T10:32:38.6Z</time></trkpt><trkpt lat="43.3094031" lon="-8.523789"><ele>88.33333333333333</ele><time>2026-04-05T10:32:39.6Z</time></trkpt><trkpt lat="43.3093218" lon="-8.5235804"><ele>86.66666666666666</ele><time>2026-04-05T10:32:40.6Z</time></trkpt><trkpt lat="43.30924" lon="-8.5233766"><ele>85.0</ele><time>2026-04-05T10:32:41.6Z</time></trkpt><trkpt lat="43.3091629" lon="-8.5231748"><ele>85.0</ele><time>2026-04-05T10:32:42.6Z</time></trkpt><trkpt lat="43.3090895" lon="-8.5229744"><ele>85.0</ele><time>2026-04-05T10:32:43.6Z</time></trkpt><trkpt lat="43.3090259" lon="-8.5227784"><ele>85.0</ele><time>2026-04-05T10:32:44.599Z</time></trkpt><trkpt lat="43.3089749" lon="-8.5225716"><ele>86.0</ele><time>2026-04-05T10:32:45.599Z</time></trkpt><trkpt lat="43.308941" lon="-8.5223551"><ele>87.0</ele><time>2026-04-05T10:32:46.6Z</time></trkpt><trkpt lat="43.3089222" lon="-8.5221339"><ele>88.0</ele><time>2026-04-05T10:32:47.599Z</time></trkpt><trkpt lat="43.3089092" lon="-8.5219131"><ele>88.0</ele><time>2026-04-05T10:32:48.599Z</time></trkpt><trkpt lat="43.3088992" lon="-8.5216998"><ele>88.0</ele><time>2026-04-05T10:32:49.6Z</time></trkpt><trkpt lat="43.3088949" lon="-8.5214926"><ele>88.0</ele><time>2026-04-05T10:32:50.6Z</time></trkpt><trkpt lat="43.3088909" lon="-8.5212975"><ele>88.0</ele><time>2026-04-05T10:32:51.6Z</time></trkpt><trkpt lat="43.3088908" lon="-8.5211112"><ele>87.5</ele><time>2026-04-05T10:32:52.6Z</time></trkpt><trkpt lat="43.3088912" lon="-8.5209298"><ele>87.0</ele><time>2026-04-05T10:32:53.6Z</time></trkpt><trkpt lat="43.3088948" lon="-8.5207563"><ele>86.5</ele><time>2026-04-05T10:32:54.599Z</time></trkpt><trkpt lat="43.308897" lon="-8.5205874"><ele>86.0</ele><time>2026-04-05T10:32:55.6Z</time></trkpt><trkpt lat="43.30891" lon="-8.5204249"><ele>84.75</ele><time>2026-04-05T10:32:56.6Z</time></trkpt><trkpt lat="43.3089242" lon="-8.5202697"><ele>83.5</ele><time>2026-04-05T10:32:57.6Z</time></trkpt><trkpt lat="43.3089475" lon="-8.5201143"><ele>82.25</ele><time>2026-04-05T10:32:58.6Z</time></trkpt><trkpt lat="43.3089658" lon="-8.5199596"><ele>81.0</ele><time>2026-04-05T10:32:59.6Z</time></trkpt><trkpt lat="43.3089674" lon="-8.5198036"><ele>81.0</ele><time>2026-04-05T10:33:00.6Z</time></trkpt><trkpt lat="43.3089453" lon="-8.5196541"><ele>81.0</ele><time>2026-04-05T10:33:01.6Z</time></trkpt><trkpt lat="43.3089135" lon="-8.5195076"><ele>81.0</ele><time>2026-04-05T10:33:02.6Z</time></trkpt><trkpt lat="43.3088755" lon="-8.5193637"><ele>81.0</ele><time>2026-04-05T10:33:03.6Z</time></trkpt><trkpt lat="43.30883" lon="-8.5192288"><ele>81.0</ele><time>2026-04-05T10:33:04.6Z</time></trkpt><trkpt lat="43.3087902" lon="-8.5190887"><ele>80.25</ele><time>2026-04-05T10:33:05.6Z</time></trkpt><trkpt lat="43.3087493" lon="-8.5189457"><ele>79.5</ele><time>2026-04-05T10:33:06.6Z</time></trkpt><trkpt lat="43.3087067" lon="-8.5188014"><ele>78.75</ele><time>2026-04-05T10:33:07.6Z</time></trkpt><trkpt lat="43.3086648" lon="-8.5186558"><ele>78.0</ele><time>2026-04-05T10:33:08.6Z</time></trkpt><trkpt lat="43.3086191" lon="-8.5185133"><ele>76.25</ele><time>2026-04-05T10:33:09.599Z</time></trkpt><trkpt lat="43.3085712" lon="-8.5183625"><ele>74.5</ele><time>2026-04-05T10:33:10.6Z</time></trkpt><trkpt lat="43.3085214" lon="-8.5182072"><ele>72.75</ele><time>2026-04-05T10:33:11.599Z</time></trkpt><trkpt lat="43.3084743" lon="-8.518043"><ele>71.0</ele><time>2026-04-05T10:33:12.6Z</time></trkpt><trkpt lat="43.3084249" lon="-8.5178703"><ele>69.25</ele><time>2026-04-05T10:33:13.6Z</time></trkpt><trkpt lat="43.3083751" lon="-8.5176973"><ele>67.5</ele><time>2026-04-05T10:33:14.6Z</time></trkpt><trkpt lat="43.3083252" lon="-8.5175169"><ele>65.75</ele><time>2026-04-05T10:33:15.6Z</time></trkpt><trkpt lat="43.3082747" lon="-8.5173323"><ele>64.0</ele><time>2026-04-05T10:33:16.6Z</time></trkpt><trkpt lat="43.3082202" lon="-8.5171495"><ele>60.666666666666664</ele><time>2026-04-05T10:33:17.6Z</time></trkpt><trkpt lat="43.3081631" lon="-8.5169576"><ele>57.33333333333333</ele><time>2026-04-05T10:33:18.6Z</time></trkpt><trkpt lat="43.308107" lon="-8.5167658"><ele>54.0</ele><time>2026-04-05T10:33:19.599Z</time></trkpt><trkpt lat="43.3080491" lon="-8.5165726"><ele>53.25</ele><time>2026-04-05T10:33:20.599Z</time></trkpt><trkpt lat="43.307993" lon="-8.5163824"><ele>52.5</ele><time>2026-04-05T10:33:21.6Z</time></trkpt><trkpt lat="43.3079357" lon="-8.5161945"><ele>51.75</ele><time>2026-04-05T10:33:22.6Z</time></trkpt><trkpt lat="43.3078796" lon="-8.5160178"><ele>51.0</ele><time>2026-04-05T10:33:23.6Z</time></trkpt><trkpt lat="43.3078245" lon="-8.5158527"><ele>50.0</ele><time>2026-04-05T10:33:24.599Z</time></trkpt><trkpt lat="43.3077697" lon="-8.5157098"><ele>49.0</ele><time>2026-04-05T10:33:25.599Z</time></trkpt><trkpt lat="43.307728" lon="-8.5155965"><ele>48.0</ele><time>2026-04-05T10:33:26.599Z</time></trkpt><trkpt lat="43.3077006" lon="-8.5155113"><ele>47.0</ele><time>2026-04-05T10:33:27.6Z</time></trkpt><trkpt lat="43.3076555" lon="-8.5153885"><ele>46.0</ele><time>2026-04-05T10:33:29.6Z</time></trkpt><trkpt lat="43.307604" lon="-8.5152771"><ele>45.833333333333336</ele><time>2026-04-05T10:33:31.599Z</time></trkpt><trkpt lat="43.3075497" lon="-8.515136"><ele>45.66666666666667</ele><time>2026-04-05T10:33:33.6Z</time></trkpt><trkpt lat="43.3075214" lon="-8.5150556"><ele>45.5</ele><time>2026-04-05T10:33:34.6Z</time></trkpt><trkpt lat="43.3074828" lon="-8.5149722"><ele>45.333333333333336</ele><time>2026-04-05T10:33:35.599Z</time></trkpt><trkpt lat="43.3074424" lon="-8.5148906"><ele>45.166666666666664</ele><time>2026-04-05T10:33:36.6Z</time></trkpt><trkpt lat="43.3073999" lon="-8.5148081"><ele>45.0</ele><time>2026-04-05T10:33:37.6Z</time></trkpt><trkpt lat="43.3073588" lon="-8.5147151"><ele>45.0</ele><time>2026-04-05T10:33:38.599Z</time></trkpt><trkpt lat="43.3073191" lon="-8.5146192"><ele>45.0</ele><time>2026-04-05T10:33:39.599Z</time></trkpt><trkpt lat="43.3072804" lon="-8.5145103"><ele>45.0</ele><time>2026-04-05T10:33:40.6Z</time></trkpt><trkpt lat="43.3072528" lon="-8.5143946"><ele>45.0</ele><time>2026-04-05T10:33:41.6Z</time></trkpt><trkpt lat="43.3072289" lon="-8.5142722"><ele>45.0</ele><time>2026-04-05T10:33:42.599Z</time></trkpt><trkpt lat="43.3072121" lon="-8.5141443"><ele>45.0</ele><time>2026-04-05T10:33:43.599Z</time></trkpt><trkpt lat="43.3071959" lon="-8.5140127"><ele>44.2</ele><time>2026-04-05T10:33:44.599Z</time></trkpt><trkpt lat="43.307179" lon="-8.5138769"><ele>43.4</ele><time>2026-04-05T10:33:45.599Z</time></trkpt><trkpt lat="43.3071702" lon="-8.5137387"><ele>42.599999999999994</ele><time>2026-04-05T10:33:46.6Z</time></trkpt><trkpt lat="43.3071665" lon="-8.5135939"><ele>41.8</ele><time>2026-04-05T10:33:47.6Z</time></trkpt><trkpt lat="43.3071684" lon="-8.5134437"><ele>41.0</ele><time>2026-04-05T10:33:48.6Z</time></trkpt><trkpt lat="43.3071723" lon="-8.5132898"><ele>40.5</ele><time>2026-04-05T10:33:49.599Z</time></trkpt><trkpt lat="43.3071741" lon="-8.513136"><ele>40.0</ele><time>2026-04-05T10:33:50.6Z</time></trkpt><trkpt lat="43.3071804" lon="-8.512979"><ele>39.5</ele><time>2026-04-05T10:33:51.6Z</time></trkpt><trkpt lat="43.3071905" lon="-8.5128284"><ele>39.0</ele><time>2026-04-05T10:33:52.6Z</time></trkpt><trkpt lat="43.3072042" lon="-8.5126735"><ele>38.5</ele><time>2026-04-05T10:33:53.6Z</time></trkpt><trkpt lat="43.307212" lon="-8.5125169"><ele>38.0</ele><time>2026-04-05T10:33:54.6Z</time></trkpt><trkpt lat="43.3072184" lon="-8.5123625"><ele>37.5</ele><time>2026-04-05T10:33:55.6Z</time></trkpt><trkpt lat="43.307209" lon="-8.5122064"><ele>37.0</ele><time>2026-04-05T10:33:56.6Z</time></trkpt><trkpt lat="43.3071779" lon="-8.5120587"><ele>35.800000000000004</ele><time>2026-04-05T10:33:57.599Z</time></trkpt><trkpt lat="43.3071295" lon="-8.5119234"><ele>34.6</ele><time>2026-04-05T10:33:58.6Z</time></trkpt><trkpt lat="43.3070751" lon="-8.5118069"><ele>33.400000000000006</ele><time>2026-04-05T10:33:59.6Z</time></trkpt><trkpt lat="43.3070216" lon="-8.5117246"><ele>32.2</ele><time>2026-04-05T10:34:00.6Z</time></trkpt><trkpt lat="43.3069749" lon="-8.5116636"><ele>31.0</ele><time>2026-04-05T10:34:01.6Z</time></trkpt><trkpt lat="43.3069394" lon="-8.5115336"><ele>31.0</ele><time>2026-04-05T10:34:03.6Z</time></trkpt><trkpt lat="43.3069716" lon="-8.5114527"><ele>31.0</ele><time>2026-04-05T10:34:04.6Z</time></trkpt><trkpt lat="43.3070329" lon="-8.5113772"><ele>31.0</ele><time>2026-04-05T10:34:05.6Z</time></trkpt><trkpt lat="43.3071316" lon="-8.5113118"><ele>31.0</ele><time>2026-04-05T10:34:06.6Z</time></trkpt><trkpt lat="43.3072515" lon="-8.5112413"><ele>31.0</ele><time>2026-04-05T10:34:07.6Z</time></trkpt><trkpt lat="43.3073823" lon="-8.5111645"><ele>27.666666666666668</ele><time>2026-04-05T10:34:08.599Z</time></trkpt><trkpt lat="43.307524" lon="-8.5110721"><ele>24.333333333333336</ele><time>2026-04-05T10:34:09.599Z</time></trkpt><trkpt lat="43.3076819" lon="-8.5109664"><ele>21.0</ele><time>2026-04-05T10:34:10.6Z</time></trkpt><trkpt lat="43.3078448" lon="-8.51083"><ele>21.0</ele><time>2026-04-05T10:34:11.6Z</time></trkpt><trkpt lat="43.3080027" lon="-8.510669"><ele>21.0</ele><time>2026-04-05T10:34:12.6Z</time></trkpt><trkpt lat="43.3081687" lon="-8.5105175"><ele>21.0</ele><time>2026-04-05T10:34:13.6Z</time></trkpt><trkpt lat="43.3083675" lon="-8.5104123"><ele>20.0</ele><time>2026-04-05T10:34:14.6Z</time></trkpt><trkpt lat="43.3085857" lon="-8.5103455"><ele>19.0</ele><time>2026-04-05T10:34:15.599Z</time></trkpt><trkpt lat="43.3088236" lon="-8.5102968"><ele>17.5</ele><time>2026-04-05T10:34:16.599Z</time></trkpt><trkpt lat="43.3090651" lon="-8.5102641"><ele>16.0</ele><time>2026-04-05T10:34:17.599Z</time></trkpt><trkpt lat="43.3093008" lon="-8.5102408"><ele>16.0</ele><time>2026-04-05T10:34:18.6Z</time></trkpt><trkpt lat="43.3095352" lon="-8.5102475"><ele>16.0</ele><time>2026-04-05T10:34:19.599Z</time></trkpt><trkpt lat="43.3097589" lon="-8.5102716"><ele>14.666666666666666</ele><time>2026-04-05T10:34:20.599Z</time></trkpt><trkpt lat="43.3099676" lon="-8.5103343"><ele>13.333333333333332</ele><time>2026-04-05T10:34:21.6Z</time></trkpt><trkpt lat="43.3101711" lon="-8.5104352"><ele>12.0</ele><time>2026-04-05T10:34:22.6Z</time></trkpt><trkpt lat="43.3103624" lon="-8.5105746"><ele>14.0</ele><time>2026-04-05T10:34:23.6Z</time></trkpt><trkpt lat="43.3105328" lon="-8.5107368"><ele>16.0</ele><time>2026-04-05T10:34:24.599Z</time></trkpt><trkpt lat="43.3106935" lon="-8.5108923"><ele>18.0</ele><time>2026-04-05T10:34:25.6Z</time></trkpt><trkpt lat="43.3108494" lon="-8.5110227"><ele>18.0</ele><time>2026-04-05T10:34:26.6Z</time></trkpt><trkpt lat="43.3110136" lon="-8.5111272"><ele>18.0</ele><time>2026-04-05T10:34:27.6Z</time></trkpt><trkpt lat="43.3111867" lon="-8.5111935"><ele>18.0</ele><time>2026-04-05T10:34:28.6Z</time></trkpt><trkpt lat="43.3113581" lon="-8.5112345"><ele>21.333333333333336</ele><time>2026-04-05T10:34:29.6Z</time></trkpt><trkpt lat="43.311525" lon="-8.5112735"><ele>24.666666666666668</ele><time>2026-04-05T10:34:30.599Z</time></trkpt><trkpt lat="43.3116849" lon="-8.51131"><ele>28.0</ele><time>2026-04-05T10:34:31.6Z</time></trkpt><trkpt lat="43.311841" lon="-8.5113228"><ele>28.0</ele><time>2026-04-05T10:34:32.6Z</time></trkpt><trkpt lat="43.311989" lon="-8.5113048"><ele>28.0</ele><time>2026-04-05T10:34:33.6Z</time></trkpt><trkpt lat="43.3121372" lon="-8.5112603"><ele>28.0</ele><time>2026-04-05T10:34:34.6Z</time></trkpt><trkpt lat="43.3122784" lon="-8.5111996"><ele>28.0</ele><time>2026-04-05T10:34:35.599Z</time></trkpt><trkpt lat="43.3124161" lon="-8.5111378"><ele>24.5</ele><time>2026-04-05T10:34:36.6Z</time></trkpt><trkpt lat="43.3125514" lon="-8.5110746"><ele>21.0</ele><time>2026-04-05T10:34:37.6Z</time></trkpt><trkpt lat="43.3126792" lon="-8.5110098"><ele>17.5</ele><time>2026-04-05T10:34:38.599Z</time></trkpt><trkpt lat="43.3128" lon="-8.5109427"><ele>14.0</ele><time>2026-04-05T10:34:39.599Z</time></trkpt><trkpt lat="43.3129055" lon="-8.5108489"><ele>14.0</ele><time>2026-04-05T10:34:40.6Z</time></trkpt><trkpt lat="43.3129867" lon="-8.5107324"><ele>14.0</ele><time>2026-04-05T10:34:41.6Z</time></trkpt><trkpt lat="43.3130499" lon="-8.5105996"><ele>14.0</ele><time>2026-04-05T10:34:42.6Z</time></trkpt><trkpt lat="43.3131203" lon="-8.5104885"><ele>14.0</ele><time>2026-04-05T10:34:43.6Z</time></trkpt><trkpt lat="43.3132167" lon="-8.510352"><ele>13.0</ele><time>2026-04-05T10:34:44.599Z</time></trkpt><trkpt lat="43.3133058" lon="-8.5102076"><ele>12.0</ele><time>2026-04-05T10:34:45.6Z</time></trkpt><trkpt lat="43.3133865" lon="-8.5100439"><ele>11.0</ele><time>2026-04-05T10:34:46.6Z</time></trkpt><trkpt lat="43.3134622" lon="-8.5098692"><ele>10.0</ele><time>2026-04-05T10:34:47.6Z</time></trkpt><trkpt lat="43.3135333" lon="-8.5096871"><ele>9.666666666666668</ele><time>2026-04-05T10:34:48.599Z</time></trkpt><trkpt lat="43.3136046" lon="-8.5094997"><ele>9.333333333333334</ele><time>2026-04-05T10:34:49.6Z</time></trkpt><trkpt lat="43.3136799" lon="-8.5093123"><ele>9.0</ele><time>2026-04-05T10:34:50.6Z</time></trkpt><trkpt lat="43.3137557" lon="-8.5091326"><ele>9.0</ele><time>2026-04-05T10:34:51.6Z</time></trkpt><trkpt lat="43.3138228" lon="-8.5089575"><ele>9.0</ele><time>2026-04-05T10:34:52.599Z</time></trkpt><trkpt lat="43.3138869" lon="-8.5087886"><ele>9.0</ele><time>2026-04-05T10:34:53.6Z</time></trkpt><trkpt lat="43.3139432" lon="-8.5086322"><ele>9.0</ele><time>2026-04-05T10:34:54.6Z</time></trkpt><trkpt lat="43.3139876" lon="-8.5084873"><ele>9.6</ele><time>2026-04-05T10:34:55.6Z</time></trkpt><trkpt lat="43.3140082" lon="-8.5083602"><ele>10.2</ele><time>2026-04-05T10:34:56.6Z</time></trkpt><trkpt lat="43.3140109" lon="-8.5082306"><ele>10.799999999999999</ele><time>2026-04-05T10:34:57.599Z</time></trkpt><trkpt lat="43.3139815" lon="-8.5080965"><ele>11.4</ele><time>2026-04-05T10:34:58.6Z</time></trkpt><trkpt lat="43.3139264" lon="-8.5079683"><ele>12.0</ele><time>2026-04-05T10:34:59.6Z</time></trkpt><trkpt lat="43.3138574" lon="-8.5078397"><ele>12.75</ele><time>2026-04-05T10:35:00.6Z</time></trkpt><trkpt lat="43.3137339" lon="-8.507752"><ele>13.5</ele><time>2026-04-05T10:35:01.599Z</time></trkpt><trkpt lat="43.3136136" lon="-8.5076633"><ele>14.25</ele><time>2026-04-05T10:35:02.599Z</time></trkpt><trkpt lat="43.3134865" lon="-8.5075795"><ele>15.0</ele><time>2026-04-05T10:35:03.6Z</time></trkpt><trkpt lat="43.313342" lon="-8.5074846"><ele>15.0</ele><time>2026-04-05T10:35:04.6Z</time></trkpt><trkpt lat="43.3131865" lon="-8.5073834"><ele>15.0</ele><time>2026-04-05T10:35:05.599Z</time></trkpt><trkpt lat="43.3130229" lon="-8.5072746"><ele>15.0</ele><time>2026-04-05T10:35:06.6Z</time></trkpt><trkpt lat="43.3128557" lon="-8.5071565"><ele>15.0</ele><time>2026-04-05T10:35:07.599Z</time></trkpt><trkpt lat="43.3126859" lon="-8.5070285"><ele>15.0</ele><time>2026-04-05T10:35:08.599Z</time></trkpt><trkpt lat="43.3125037" lon="-8.5068961"><ele>15.0</ele><time>2026-04-05T10:35:09.599Z</time></trkpt><trkpt lat="43.3123197" lon="-8.5067559"><ele>15.0</ele><time>2026-04-05T10:35:10.6Z</time></trkpt><trkpt lat="43.3121282" lon="-8.5066193"><ele>15.0</ele><time>2026-04-05T10:35:11.599Z</time></trkpt><trkpt lat="43.3119397" lon="-8.5064861"><ele>15.0</ele><time>2026-04-05T10:35:12.6Z</time></trkpt><trkpt lat="43.3117411" lon="-8.5063506"><ele>15.0</ele><time>2026-04-05T10:35:13.6Z</time></trkpt><trkpt lat="43.3115517" lon="-8.5062216"><ele>15.0</ele><time>2026-04-05T10:35:14.6Z</time></trkpt><trkpt lat="43.3113616" lon="-8.506099"><ele>15.0</ele><time>2026-04-05T10:35:15.6Z</time></trkpt><trkpt lat="43.3111747" lon="-8.5059747"><ele>15.666666666666668</ele><time>2026-04-05T10:35:16.599Z</time></trkpt><trkpt lat="43.3109899" lon="-8.5058545"><ele>16.333333333333336</ele><time>2026-04-05T10:35:17.6Z</time></trkpt><trkpt lat="43.3108048" lon="-8.5057453"><ele>17.0</ele><time>2026-04-05T10:35:18.6Z</time></trkpt><trkpt lat="43.3106314" lon="-8.5056598"><ele>16.666666666666668</ele><time>2026-04-05T10:35:19.6Z</time></trkpt><trkpt lat="43.3104573" lon="-8.5055902"><ele>16.333333333333332</ele><time>2026-04-05T10:35:20.6Z</time></trkpt><trkpt lat="43.3102813" lon="-8.5055306"><ele>16.0</ele><time>2026-04-05T10:35:21.599Z</time></trkpt><trkpt lat="43.3101022" lon="-8.5054749"><ele>16.0</ele><time>2026-04-05T10:35:22.599Z</time></trkpt><trkpt lat="43.309915" lon="-8.5054197"><ele>16.0</ele><time>2026-04-05T10:35:23.6Z</time></trkpt><trkpt lat="43.3097316" lon="-8.5053686"><ele>16.0</ele><time>2026-04-05T10:35:24.6Z</time></trkpt><trkpt lat="43.3095377" lon="-8.5053067"><ele>17.666666666666664</ele><time>2026-04-05T10:35:25.599Z</time></trkpt><trkpt lat="43.3093434" lon="-8.5052475"><ele>19.333333333333332</ele><time>2026-04-05T10:35:26.6Z</time></trkpt><trkpt lat="43.3091545" lon="-8.5051885"><ele>21.0</ele><time>2026-04-05T10:35:27.599Z</time></trkpt><trkpt lat="43.3089804" lon="-8.5051345"><ele>21.666666666666668</ele><time>2026-04-05T10:35:28.599Z</time></trkpt><trkpt lat="43.3088206" lon="-8.5050836"><ele>22.333333333333336</ele><time>2026-04-05T10:35:29.6Z</time></trkpt><trkpt lat="43.308676" lon="-8.5050372"><ele>23.0</ele><time>2026-04-05T10:35:30.6Z</time></trkpt><trkpt lat="43.3085418" lon="-8.5049938"><ele>23.0</ele><time>2026-04-05T10:35:31.6Z</time></trkpt><trkpt lat="43.3084227" lon="-8.5049608"><ele>23.0</ele><time>2026-04-05T10:35:32.6Z</time></trkpt><trkpt lat="43.308317" lon="-8.5049362"><ele>23.0</ele><time>2026-04-05T10:35:33.599Z</time></trkpt><trkpt lat="43.308231" lon="-8.5049172"><ele>23.0</ele><time>2026-04-05T10:35:34.6Z</time></trkpt><trkpt lat="43.3081493" lon="-8.5049105"><ele>23.0</ele><time>2026-04-05T10:35:35.599Z</time></trkpt><trkpt lat="43.3080741" lon="-8.504909"><ele>23.0</ele><time>2026-04-05T10:35:36.6Z</time></trkpt><trkpt lat="43.3079815" lon="-8.5048296"><ele>23.0</ele><time>2026-04-05T10:35:38.6Z</time></trkpt><trkpt lat="43.3080226" lon="-8.5046932"><ele>23.0</ele><time>2026-04-05T10:35:40.599Z</time></trkpt><trkpt lat="43.3080776" lon="-8.5046321"><ele>23.0</ele><time>2026-04-05T10:35:41.599Z</time></trkpt><trkpt lat="43.3081371" lon="-8.5045777"><ele>23.0</ele><time>2026-04-05T10:35:42.6Z</time></trkpt><trkpt lat="43.308203" lon="-8.5045227"><ele>23.0</ele><time>2026-04-05T10:35:43.599Z</time></trkpt><trkpt lat="43.3082633" lon="-8.5044683"><ele>24.2</ele><time>2026-04-05T10:35:44.6Z</time></trkpt><trkpt lat="43.3083437" lon="-8.5043893"><ele>25.4</ele><time>2026-04-05T10:35:46.6Z</time></trkpt><trkpt lat="43.3083794" lon="-8.504311"><ele>26.599999999999998</ele><time>2026-04-05T10:35:48.599Z</time></trkpt><trkpt lat="43.308354" lon="-8.5042101"><ele>27.799999999999997</ele><time>2026-04-05T10:35:50.6Z</time></trkpt><trkpt lat="43.3082989" lon="-8.5041009"><ele>29.0</ele><time>2026-04-05T10:35:52.6Z</time></trkpt><trkpt lat="43.3082215" lon="-8.5039839"><ele>29.0</ele><time>2026-04-05T10:35:54.6Z</time></trkpt><trkpt lat="43.3081683" lon="-8.5038582"><ele>29.0</ele><time>2026-04-05T10:35:56.6Z</time></trkpt><trkpt lat="43.3081115" lon="-8.5037353"><ele>29.0</ele><time>2026-04-05T10:35:58.599Z</time></trkpt><trkpt lat="43.3080605" lon="-8.5036229"><ele>29.0</ele><time>2026-04-05T10:36:00.599Z</time></trkpt><trkpt lat="43.3080202" lon="-8.5035033"><ele>29.0</ele><time>2026-04-05T10:36:02.6Z</time></trkpt><trkpt lat="43.3079908" lon="-8.5034216"><ele>29.4</ele><time>2026-04-05T10:36:04.599Z</time></trkpt><trkpt lat="43.3079606" lon="-8.5033406"><ele>29.799999999999997</ele><time>2026-04-05T10:36:07.599Z</time></trkpt><trkpt lat="43.3079376" lon="-8.5032588"><ele>30.200000000000003</ele><time>2026-04-05T10:36:27.599Z</time></trkpt><trkpt lat="43.3079021" lon="-8.5031245"><ele>30.6</ele><time>2026-04-05T10:36:29.599Z</time></trkpt><trkpt lat="43.3079499" lon="-8.5030035"><ele>31.0</ele><time>2026-04-05T10:36:31.6Z</time></trkpt><trkpt lat="43.3080449" lon="-8.5029119"><ele>31.8</ele><time>2026-04-05T10:36:33.599Z</time></trkpt><trkpt lat="43.3081546" lon="-8.5028139"><ele>32.6</ele><time>2026-04-05T10:36:35.6Z</time></trkpt><trkpt lat="43.3082183" lon="-8.5027502"><ele>33.4</ele><time>2026-04-05T10:36:36.6Z</time></trkpt><trkpt lat="43.3082863" lon="-8.5026871"><ele>34.2</ele><time>2026-04-05T10:36:37.6Z</time></trkpt><trkpt lat="43.3083553" lon="-8.5026226"><ele>35.0</ele><time>2026-04-05T10:36:38.599Z</time></trkpt><trkpt lat="43.3084206" lon="-8.5025601"><ele>35.0</ele><time>2026-04-05T10:36:39.599Z</time></trkpt><trkpt lat="43.3084799" lon="-8.5024981"><ele>35.0</ele><time>2026-04-05T10:36:40.599Z</time></trkpt><trkpt lat="43.3085451" lon="-8.5024366"><ele>35.0</ele><time>2026-04-05T10:36:41.6Z</time></trkpt><trkpt lat="43.3086019" lon="-8.5023749"><ele>35.0</ele><time>2026-04-05T10:36:42.6Z</time></trkpt><trkpt lat="43.3086659" lon="-8.5023076"><ele>35.0</ele><time>2026-04-05T10:36:43.6Z</time></trkpt><trkpt lat="43.308724" lon="-8.5022526"><ele>35.0</ele><time>2026-04-05T10:36:44.6Z</time></trkpt><trkpt lat="43.3088033" lon="-8.5021776"><ele>35.0</ele><time>2026-04-05T10:36:45.6Z</time></trkpt><trkpt lat="43.3088713" lon="-8.5021051"><ele>35.0</ele><time>2026-04-05T10:36:46.599Z</time></trkpt><trkpt lat="43.3089305" lon="-8.5020432"><ele>35.0</ele><time>2026-04-05T10:36:47.599Z</time></trkpt><trkpt lat="43.3089877" lon="-8.501986"><ele>35.0</ele><time>2026-04-05T10:36:48.6Z</time></trkpt><trkpt lat="43.3090491" lon="-8.5019292"><ele>35.0</ele><time>2026-04-05T10:36:49.599Z</time></trkpt><trkpt lat="43.3091014" lon="-8.5018748"><ele>35.0</ele><time>2026-04-05T10:36:50.6Z</time></trkpt><trkpt lat="43.3091999" lon="-8.5017799"><ele>37.6</ele><time>2026-04-05T10:36:52.6Z</time></trkpt><trkpt lat="43.3092697" lon="-8.5017037"><ele>40.2</ele><time>2026-04-05T10:36:54.599Z</time></trkpt><trkpt lat="43.3093806" lon="-8.5015921"><ele>42.8</ele><time>2026-04-05T10:36:56.599Z</time></trkpt><trkpt lat="43.3094572" lon="-8.5015128"><ele>45.4</ele><time>2026-04-05T10:36:57.6Z</time></trkpt><trkpt lat="43.3095441" lon="-8.5014219"><ele>48.0</ele><time>2026-04-05T10:36:58.6Z</time></trkpt><trkpt lat="43.309644" lon="-8.5013271"><ele>48.8</ele><time>2026-04-05T10:36:59.599Z</time></trkpt><trkpt lat="43.3097395" lon="-8.501235"><ele>49.599999999999994</ele><time>2026-04-05T10:37:00.6Z</time></trkpt><trkpt lat="43.3098269" lon="-8.5011517"><ele>50.400000000000006</ele><time>2026-04-05T10:37:01.599Z</time></trkpt><trkpt lat="43.3099112" lon="-8.5010691"><ele>51.2</ele><time>2026-04-05T10:37:02.599Z</time></trkpt><trkpt lat="43.3099939" lon="-8.5009922"><ele>52.0</ele><time>2026-04-05T10:37:03.6Z</time></trkpt><trkpt lat="43.3100812" lon="-8.5009081"><ele>52.5</ele><time>2026-04-05T10:37:04.6Z</time></trkpt><trkpt lat="43.3101688" lon="-8.5008142"><ele>53.0</ele><time>2026-04-05T10:37:05.599Z</time></trkpt><trkpt lat="43.3102649" lon="-8.5007177"><ele>53.5</ele><time>2026-04-05T10:37:06.6Z</time></trkpt><trkpt lat="43.3103744" lon="-8.5006182"><ele>54.0</ele><time>2026-04-05T10:37:07.6Z</time></trkpt><trkpt lat="43.3104847" lon="-8.5005175"><ele>55.75</ele><time>2026-04-05T10:37:08.599Z</time></trkpt><trkpt lat="43.3105937" lon="-8.5004126"><ele>57.5</ele><time>2026-04-05T10:37:09.6Z</time></trkpt><trkpt lat="43.3106987" lon="-8.5003067"><ele>59.25</ele><time>2026-04-05T10:37:10.599Z</time></trkpt><trkpt lat="43.3107959" lon="-8.5001979"><ele>61.0</ele><time>2026-04-05T10:37:11.6Z</time></trkpt><trkpt lat="43.3108877" lon="-8.5000892"><ele>60.99999999999999</ele><time>2026-04-05T10:37:12.599Z</time></trkpt><trkpt lat="43.3109673" lon="-8.4999914"><ele>61.0</ele><time>2026-04-05T10:37:13.599Z</time></trkpt><trkpt lat="43.3110339" lon="-8.4999062"><ele>61.0</ele><time>2026-04-05T10:37:14.599Z</time></trkpt><trkpt lat="43.311092" lon="-8.4998263"><ele>61.0</ele><time>2026-04-05T10:37:15.6Z</time></trkpt><trkpt lat="43.3111475" lon="-8.4997463"><ele>60.99999999999999</ele><time>2026-04-05T10:37:16.6Z</time></trkpt><trkpt lat="43.3112104" lon="-8.4996609"><ele>61.0</ele><time>2026-04-05T10:37:17.6Z</time></trkpt><trkpt lat="43.3112812" lon="-8.4995783"><ele>62.199999999999996</ele><time>2026-04-05T10:37:18.6Z</time></trkpt><trkpt lat="43.3113606" lon="-8.4995079"><ele>63.39999999999999</ele><time>2026-04-05T10:37:19.599Z</time></trkpt><trkpt lat="43.3114493" lon="-8.4994476"><ele>64.6</ele><time>2026-04-05T10:37:20.599Z</time></trkpt><trkpt lat="43.3115363" lon="-8.4993888"><ele>65.8</ele><time>2026-04-05T10:37:21.599Z</time></trkpt><trkpt lat="43.3116131" lon="-8.4993347"><ele>67.0</ele><time>2026-04-05T10:37:22.6Z</time></trkpt><trkpt lat="43.3116824" lon="-8.4992861"><ele>67.0</ele><time>2026-04-05T10:37:23.599Z</time></trkpt><trkpt lat="43.3117441" lon="-8.499243"><ele>67.0</ele><time>2026-04-05T10:37:24.599Z</time></trkpt><trkpt lat="43.3118279" lon="-8.4991908"><ele>67.0</ele><time>2026-04-05T10:37:26.6Z</time></trkpt><trkpt lat="43.3118843" lon="-8.4991507"><ele>67.0</ele><time>2026-04-05T10:37:29.599Z</time></trkpt><trkpt lat="43.3119504" lon="-8.4991167"><ele>67.0</ele><time>2026-04-05T10:37:59.599Z</time></trkpt><trkpt lat="43.3120286" lon="-8.4990556"><ele>67.0</ele><time>2026-04-05T10:38:01.599Z</time></trkpt><trkpt lat="43.3121235" lon="-8.498994"><ele>67.0</ele><time>2026-04-05T10:38:03.6Z</time></trkpt><trkpt lat="43.3122169" lon="-8.4989233"><ele>67.0</ele><time>2026-04-05T10:38:05.6Z</time></trkpt><trkpt lat="43.3122457" lon="-8.4988176"><ele>67.0</ele><time>2026-04-05T10:38:07.6Z</time></trkpt><trkpt lat="43.3121955" lon="-8.4986829"><ele>67.0</ele><time>2026-04-05T10:38:09.599Z</time></trkpt><trkpt lat="43.3121588" lon="-8.4986075"><ele>67.0</ele><time>2026-04-05T10:38:10.6Z</time></trkpt><trkpt lat="43.3121156" lon="-8.498534"><ele>67.0</ele><time>2026-04-05T10:38:11.6Z</time></trkpt><trkpt lat="43.312066" lon="-8.4984618"><ele>67.66666666666666</ele><time>2026-04-05T10:38:12.6Z</time></trkpt><trkpt lat="43.3120169" lon="-8.4983959"><ele>68.33333333333333</ele><time>2026-04-05T10:38:13.599Z</time></trkpt><trkpt lat="43.3119643" lon="-8.498334"><ele>69.0</ele><time>2026-04-05T10:38:14.599Z</time></trkpt><trkpt lat="43.3119055" lon="-8.4982567"><ele>69.66666666666667</ele><time>2026-04-05T10:38:15.6Z</time></trkpt><trkpt lat="43.3118374" lon="-8.4981694"><ele>70.33333333333334</ele><time>2026-04-05T10:38:16.599Z</time></trkpt><trkpt lat="43.3117588" lon="-8.4980597"><ele>71.0</ele><time>2026-04-05T10:38:17.599Z</time></trkpt><trkpt lat="43.3116752" lon="-8.4979337"><ele>71.25</ele><time>2026-04-05T10:38:18.6Z</time></trkpt><trkpt lat="43.3115921" lon="-8.4977978"><ele>71.5</ele><time>2026-04-05T10:38:19.6Z</time></trkpt><trkpt lat="43.3115107" lon="-8.4976517"><ele>71.75</ele><time>2026-04-05T10:38:20.599Z</time></trkpt><trkpt lat="43.3114299" lon="-8.4974983"><ele>72.0</ele><time>2026-04-05T10:38:21.6Z</time></trkpt><trkpt lat="43.3113515" lon="-8.4973355"><ele>72.5</ele><time>2026-04-05T10:38:22.6Z</time></trkpt><trkpt lat="43.3112803" lon="-8.4971657"><ele>73.0</ele><time>2026-04-05T10:38:23.6Z</time></trkpt><trkpt lat="43.3112153" lon="-8.4969814"><ele>73.5</ele><time>2026-04-05T10:38:24.599Z</time></trkpt><trkpt lat="43.3111583" lon="-8.4967927"><ele>74.0</ele><time>2026-04-05T10:38:25.599Z</time></trkpt><trkpt lat="43.3111075" lon="-8.4965929"><ele>74.0</ele><time>2026-04-05T10:38:26.6Z</time></trkpt><trkpt lat="43.3110577" lon="-8.496388"><ele>74.0</ele><time>2026-04-05T10:38:27.6Z</time></trkpt><trkpt lat="43.3110082" lon="-8.4961804"><ele>74.0</ele><time>2026-04-05T10:38:28.6Z</time></trkpt><trkpt lat="43.3109575" lon="-8.4959672"><ele>73.66666666666667</ele><time>2026-04-05T10:38:29.6Z</time></trkpt><trkpt lat="43.3109038" lon="-8.4957433"><ele>73.33333333333333</ele><time>2026-04-05T10:38:30.599Z</time></trkpt><trkpt lat="43.3108489" lon="-8.4955064"><ele>73.0</ele><time>2026-04-05T10:38:31.6Z</time></trkpt><trkpt lat="43.31079" lon="-8.4952605"><ele>73.0</ele><time>2026-04-05T10:38:32.599Z</time></trkpt><trkpt lat="43.3107294" lon="-8.4950121"><ele>73.0</ele><time>2026-04-05T10:38:33.599Z</time></trkpt><trkpt lat="43.3106693" lon="-8.4947637"><ele>73.0</ele><time>2026-04-05T10:38:34.6Z</time></trkpt><trkpt lat="43.310609" lon="-8.4945171"><ele>76.66666666666666</ele><time>2026-04-05T10:38:35.599Z</time></trkpt><trkpt lat="43.3105493" lon="-8.4942725"><ele>80.33333333333333</ele><time>2026-04-05T10:38:36.6Z</time></trkpt><trkpt lat="43.3104897" lon="-8.4940302"><ele>84.0</ele><time>2026-04-05T10:38:37.6Z</time></trkpt><trkpt lat="43.310431" lon="-8.4937926"><ele>83.66666666666667</ele><time>2026-04-05T10:38:38.6Z</time></trkpt><trkpt lat="43.3103756" lon="-8.493563"><ele>83.33333333333334</ele><time>2026-04-05T10:38:39.6Z</time></trkpt><trkpt lat="43.3103212" lon="-8.4933423"><ele>83.0</ele><time>2026-04-05T10:38:40.6Z</time></trkpt><trkpt lat="43.3102712" lon="-8.4931303"><ele>83.0</ele><time>2026-04-05T10:38:41.6Z</time></trkpt><trkpt lat="43.3102213" lon="-8.4929274"><ele>83.0</ele><time>2026-04-05T10:38:42.6Z</time></trkpt><trkpt lat="43.3101696" lon="-8.4927335"><ele>83.0</ele><time>2026-04-05T10:38:43.6Z</time></trkpt><trkpt lat="43.310113" lon="-8.4925443"><ele>82.5</ele><time>2026-04-05T10:38:44.6Z</time></trkpt><trkpt lat="43.3100483" lon="-8.4923608"><ele>82.0</ele><time>2026-04-05T10:38:45.6Z</time></trkpt><trkpt lat="43.3099715" lon="-8.4921863"><ele>81.5</ele><time>2026-04-05T10:38:46.6Z</time></trkpt><trkpt lat="43.3098862" lon="-8.4920137"><ele>81.0</ele><time>2026-04-05T10:38:47.6Z</time></trkpt><trkpt lat="43.3097906" lon="-8.4918518"><ele>80.33333333333333</ele><time>2026-04-05T10:38:48.599Z</time></trkpt><trkpt lat="43.3096818" lon="-8.4916962"><ele>79.66666666666666</ele><time>2026-04-05T10:38:49.599Z</time></trkpt><trkpt lat="43.3095638" lon="-8.4915548"><ele>79.0</ele><time>2026-04-05T10:38:50.6Z</time></trkpt><trkpt lat="43.3094354" lon="-8.4914256"><ele>79.0</ele><time>2026-04-05T10:38:51.599Z</time></trkpt><trkpt lat="43.3092981" lon="-8.4913072"><ele>79.0</ele><time>2026-04-05T10:38:52.599Z</time></trkpt><trkpt lat="43.3091577" lon="-8.4911931"><ele>79.0</ele><time>2026-04-05T10:38:53.6Z</time></trkpt><trkpt lat="43.3090157" lon="-8.4910758"><ele>76.33333333333333</ele><time>2026-04-05T10:38:54.6Z</time></trkpt><trkpt lat="43.3088749" lon="-8.4909505"><ele>73.66666666666667</ele><time>2026-04-05T10:38:55.6Z</time></trkpt><trkpt lat="43.3087353" lon="-8.4908117"><ele>71.0</ele><time>2026-04-05T10:38:56.6Z</time></trkpt><trkpt lat="43.3085991" lon="-8.4906592"><ele>71.0</ele><time>2026-04-05T10:38:57.6Z</time></trkpt><trkpt lat="43.30847" lon="-8.4904922"><ele>71.0</ele><time>2026-04-05T10:38:58.599Z</time></trkpt><trkpt lat="43.3083559" lon="-8.490313"><ele>71.0</ele><time>2026-04-05T10:38:59.6Z</time></trkpt><trkpt lat="43.3082595" lon="-8.4901284"><ele>69.25</ele><time>2026-04-05T10:39:00.6Z</time></trkpt><trkpt lat="43.3081829" lon="-8.4899501"><ele>67.5</ele><time>2026-04-05T10:39:01.599Z</time></trkpt><trkpt lat="43.3081261" lon="-8.4897895"><ele>65.75</ele><time>2026-04-05T10:39:02.599Z</time></trkpt><trkpt lat="43.3080829" lon="-8.4896502"><ele>64.0</ele><time>2026-04-05T10:39:03.599Z</time></trkpt><trkpt lat="43.3080401" lon="-8.4895272"><ele>64.0</ele><time>2026-04-05T10:39:04.599Z</time></trkpt><trkpt lat="43.3079847" lon="-8.4894202"><ele>64.0</ele><time>2026-04-05T10:39:05.6Z</time></trkpt><trkpt lat="43.3079169" lon="-8.4893229"><ele>64.0</ele><time>2026-04-05T10:39:06.6Z</time></trkpt><trkpt lat="43.3078693" lon="-8.4892087"><ele>64.0</ele><time>2026-04-05T10:39:07.599Z</time></trkpt><trkpt lat="43.3078589" lon="-8.4890747"><ele>64.0</ele><time>2026-04-05T10:39:08.6Z</time></trkpt><trkpt lat="43.307891" lon="-8.4889307"><ele>64.0</ele><time>2026-04-05T10:39:09.599Z</time></trkpt><trkpt lat="43.3079213" lon="-8.4887704"><ele>64.0</ele><time>2026-04-05T10:39:10.6Z</time></trkpt><trkpt lat="43.3079263" lon="-8.4886163"><ele>64.0</ele><time>2026-04-05T10:39:11.599Z</time></trkpt><trkpt lat="43.3079189" lon="-8.4884809"><ele>64.0</ele><time>2026-04-05T10:39:12.6Z</time></trkpt><trkpt lat="43.3079002" lon="-8.4883186"><ele>64.25</ele><time>2026-04-05T10:39:13.599Z</time></trkpt><trkpt lat="43.3078854" lon="-8.4881483"><ele>64.5</ele><time>2026-04-05T10:39:14.6Z</time></trkpt><trkpt lat="43.3078689" lon="-8.4879576"><ele>64.75</ele><time>2026-04-05T10:39:15.599Z</time></trkpt><trkpt lat="43.3078522" lon="-8.4877515"><ele>65.0</ele><time>2026-04-05T10:39:16.599Z</time></trkpt><trkpt lat="43.3078306" lon="-8.4875473"><ele>65.25</ele><time>2026-04-05T10:39:17.6Z</time></trkpt><trkpt lat="43.3078072" lon="-8.4873496"><ele>65.5</ele><time>2026-04-05T10:39:18.6Z</time></trkpt><trkpt lat="43.3077784" lon="-8.487154"><ele>65.75</ele><time>2026-04-05T10:39:19.6Z</time></trkpt><trkpt lat="43.3077444" lon="-8.4869587"><ele>66.0</ele><time>2026-04-05T10:39:20.6Z</time></trkpt><trkpt lat="43.3077084" lon="-8.4867654"><ele>66.0</ele><time>2026-04-05T10:39:21.6Z</time></trkpt><trkpt lat="43.3076731" lon="-8.4865735"><ele>66.0</ele><time>2026-04-05T10:39:22.599Z</time></trkpt><trkpt lat="43.3076372" lon="-8.4863844"><ele>66.0</ele><time>2026-04-05T10:39:23.6Z</time></trkpt><trkpt lat="43.3076012" lon="-8.486196"><ele>66.0</ele><time>2026-04-05T10:39:24.599Z</time></trkpt><trkpt lat="43.3075653" lon="-8.4860084"><ele>64.75</ele><time>2026-04-05T10:39:25.6Z</time></trkpt><trkpt lat="43.3075301" lon="-8.4858239"><ele>63.5</ele><time>2026-04-05T10:39:26.6Z</time></trkpt><trkpt lat="43.3074949" lon="-8.4856405"><ele>62.25</ele><time>2026-04-05T10:39:27.599Z</time></trkpt><trkpt lat="43.3074609" lon="-8.485459"><ele>61.0</ele><time>2026-04-05T10:39:28.599Z</time></trkpt><trkpt lat="43.3074267" lon="-8.4852779"><ele>61.0</ele><time>2026-04-05T10:39:29.6Z</time></trkpt><trkpt lat="43.3073918" lon="-8.4850965"><ele>61.0</ele><time>2026-04-05T10:39:30.6Z</time></trkpt><trkpt lat="43.3073538" lon="-8.4849167"><ele>61.0</ele><time>2026-04-05T10:39:31.6Z</time></trkpt><trkpt lat="43.3073095" lon="-8.4847389"><ele>61.0</ele><time>2026-04-05T10:39:32.6Z</time></trkpt><trkpt lat="43.3072601" lon="-8.4845626"><ele>67.5</ele><time>2026-04-05T10:39:33.6Z</time></trkpt><trkpt lat="43.307209" lon="-8.484388"><ele>74.0</ele><time>2026-04-05T10:39:34.6Z</time></trkpt><trkpt lat="43.307154" lon="-8.4842111"><ele>80.5</ele><time>2026-04-05T10:39:35.599Z</time></trkpt><trkpt lat="43.3070955" lon="-8.4840318"><ele>87.0</ele><time>2026-04-05T10:39:36.6Z</time></trkpt><trkpt lat="43.3070345" lon="-8.4838507"><ele>84.25</ele><time>2026-04-05T10:39:37.6Z</time></trkpt><trkpt lat="43.3069718" lon="-8.4836671"><ele>81.5</ele><time>2026-04-05T10:39:38.6Z</time></trkpt><trkpt lat="43.3069077" lon="-8.4834853"><ele>78.75</ele><time>2026-04-05T10:39:39.6Z</time></trkpt><trkpt lat="43.3068441" lon="-8.4833023"><ele>76.0</ele><time>2026-04-05T10:39:40.6Z</time></trkpt><trkpt lat="43.3067809" lon="-8.4831205"><ele>76.0</ele><time>2026-04-05T10:39:41.6Z</time></trkpt><trkpt lat="43.3067194" lon="-8.4829397"><ele>76.0</ele><time>2026-04-05T10:39:42.6Z</time></trkpt><trkpt lat="43.3066574" lon="-8.4827605"><ele>76.0</ele><time>2026-04-05T10:39:43.6Z</time></trkpt><trkpt lat="43.3065962" lon="-8.4825839"><ele>76.0</ele><time>2026-04-05T10:39:44.6Z</time></trkpt><trkpt lat="43.3065389" lon="-8.4824169"><ele>73.25</ele><time>2026-04-05T10:39:45.6Z</time></trkpt><trkpt lat="43.3064864" lon="-8.4822588"><ele>70.5</ele><time>2026-04-05T10:39:46.6Z</time></trkpt><trkpt lat="43.3064381" lon="-8.4821128"><ele>67.75</ele><time>2026-04-05T10:39:47.599Z</time></trkpt><trkpt lat="43.3063922" lon="-8.4819775"><ele>65.0</ele><time>2026-04-05T10:39:48.599Z</time></trkpt><trkpt lat="43.3063486" lon="-8.4818536"><ele>65.0</ele><time>2026-04-05T10:39:49.6Z</time></trkpt><trkpt lat="43.3063077" lon="-8.4817467"><ele>65.0</ele><time>2026-04-05T10:39:50.599Z</time></trkpt><trkpt lat="43.3062655" lon="-8.4816564"><ele>65.0</ele><time>2026-04-05T10:39:51.599Z</time></trkpt><trkpt lat="43.3062156" lon="-8.4815825"><ele>65.0</ele><time>2026-04-05T10:39:52.599Z</time></trkpt><trkpt lat="43.3061513" lon="-8.4815259"><ele>65.0</ele><time>2026-04-05T10:39:53.599Z</time></trkpt><trkpt lat="43.306077" lon="-8.4814731"><ele>65.0</ele><time>2026-04-05T10:39:54.6Z</time></trkpt><trkpt lat="43.3060132" lon="-8.4813973"><ele>65.0</ele><time>2026-04-05T10:39:55.599Z</time></trkpt><trkpt lat="43.305978" lon="-8.4812883"><ele>65.0</ele><time>2026-04-05T10:39:56.6Z</time></trkpt><trkpt lat="43.3059747" lon="-8.4811562"><ele>65.0</ele><time>2026-04-05T10:39:57.599Z</time></trkpt><trkpt lat="43.3059892" lon="-8.4810143"><ele>65.0</ele><time>2026-04-05T10:39:58.6Z</time></trkpt><trkpt lat="43.3059761" lon="-8.4808806"><ele>65.0</ele><time>2026-04-05T10:39:59.6Z</time></trkpt><trkpt lat="43.3059376" lon="-8.4807434"><ele>63.66666666666667</ele><time>2026-04-05T10:40:00.6Z</time></trkpt><trkpt lat="43.3058769" lon="-8.4805779"><ele>62.33333333333333</ele><time>2026-04-05T10:40:01.599Z</time></trkpt><trkpt lat="43.3058042" lon="-8.4803944"><ele>61.0</ele><time>2026-04-05T10:40:02.6Z</time></trkpt><trkpt lat="43.3057416" lon="-8.4801742"><ele>60.666666666666664</ele><time>2026-04-05T10:40:03.6Z</time></trkpt><trkpt lat="43.3056582" lon="-8.4799267"><ele>60.33333333333333</ele><time>2026-04-05T10:40:04.599Z</time></trkpt><trkpt lat="43.3055746" lon="-8.4796774"><ele>60.0</ele><time>2026-04-05T10:40:05.6Z</time></trkpt><trkpt lat="43.3054895" lon="-8.4794322"><ele>58.66666666666667</ele><time>2026-04-05T10:40:06.599Z</time></trkpt><trkpt lat="43.3054025" lon="-8.4791875"><ele>57.333333333333336</ele><time>2026-04-05T10:40:07.599Z</time></trkpt><trkpt lat="43.305316" lon="-8.4789431"><ele>56.0</ele><time>2026-04-05T10:40:08.6Z</time></trkpt><trkpt lat="43.3052302" lon="-8.478695"><ele>55.333333333333336</ele><time>2026-04-05T10:40:09.6Z</time></trkpt><trkpt lat="43.3051447" lon="-8.4784446"><ele>54.66666666666667</ele><time>2026-04-05T10:40:10.599Z</time></trkpt><trkpt lat="43.305058" lon="-8.4781928"><ele>54.0</ele><time>2026-04-05T10:40:11.599Z</time></trkpt><trkpt lat="43.3049729" lon="-8.4779495"><ele>52.0</ele><time>2026-04-05T10:40:12.599Z</time></trkpt><trkpt lat="43.3048888" lon="-8.4777099"><ele>50.0</ele><time>2026-04-05T10:40:13.6Z</time></trkpt><trkpt lat="43.3048106" lon="-8.4774864"><ele>48.0</ele><time>2026-04-05T10:40:14.6Z</time></trkpt><trkpt lat="43.3047372" lon="-8.4772759"><ele>51.0</ele><time>2026-04-05T10:40:15.6Z</time></trkpt><trkpt lat="43.3046701" lon="-8.4770867"><ele>54.0</ele><time>2026-04-05T10:40:16.599Z</time></trkpt><trkpt lat="43.3046094" lon="-8.4769177"><ele>57.0</ele><time>2026-04-05T10:40:17.6Z</time></trkpt><trkpt lat="43.3045559" lon="-8.4767662"><ele>60.0</ele><time>2026-04-05T10:40:18.6Z</time></trkpt><trkpt lat="43.3045102" lon="-8.4766301"><ele>60.0</ele><time>2026-04-05T10:40:19.6Z</time></trkpt><trkpt lat="43.3044671" lon="-8.4764974"><ele>60.0</ele><time>2026-04-05T10:40:20.6Z</time></trkpt><trkpt lat="43.3044228" lon="-8.4763456"><ele>60.0</ele><time>2026-04-05T10:40:21.6Z</time></trkpt><trkpt lat="43.3043782" lon="-8.4761634"><ele>60.0</ele><time>2026-04-05T10:40:22.599Z</time></trkpt><trkpt lat="43.3043361" lon="-8.4759493"><ele>58.0</ele><time>2026-04-05T10:40:23.599Z</time></trkpt><trkpt lat="43.3042935" lon="-8.4757132"><ele>56.0</ele><time>2026-04-05T10:40:24.6Z</time></trkpt><trkpt lat="43.3042496" lon="-8.4754688"><ele>54.0</ele><time>2026-04-05T10:40:25.6Z</time></trkpt><trkpt lat="43.3042013" lon="-8.4752172"><ele>52.33333333333333</ele><time>2026-04-05T10:40:26.599Z</time></trkpt><trkpt lat="43.304142" lon="-8.4749551"><ele>50.666666666666664</ele><time>2026-04-05T10:40:27.599Z</time></trkpt><trkpt lat="43.3040663" lon="-8.4746812"><ele>49.0</ele><time>2026-04-05T10:40:28.599Z</time></trkpt><trkpt lat="43.3039914" lon="-8.4743979"><ele>50.0</ele><time>2026-04-05T10:40:29.6Z</time></trkpt><trkpt lat="43.3039215" lon="-8.474103"><ele>51.0</ele><time>2026-04-05T10:40:30.6Z</time></trkpt><trkpt lat="43.3038636" lon="-8.4737929"><ele>45.5</ele><time>2026-04-05T10:40:31.599Z</time></trkpt><trkpt lat="43.3038195" lon="-8.4734689"><ele>40.0</ele><time>2026-04-05T10:40:32.6Z</time></trkpt><trkpt lat="43.3037877" lon="-8.4731285"><ele>38.0</ele><time>2026-04-05T10:40:33.6Z</time></trkpt><trkpt lat="43.3037642" lon="-8.4727763"><ele>36.0</ele><time>2026-04-05T10:40:34.6Z</time></trkpt><trkpt lat="43.3037429" lon="-8.4724139"><ele>37.0</ele><time>2026-04-05T10:40:35.599Z</time></trkpt><trkpt lat="43.3037217" lon="-8.4720454"><ele>38.0</ele><time>2026-04-05T10:40:36.599Z</time></trkpt><trkpt lat="43.3036998" lon="-8.4716785"><ele>38.0</ele><time>2026-04-05T10:40:37.599Z</time></trkpt><trkpt lat="43.3036765" lon="-8.4713135"><ele>38.0</ele><time>2026-04-05T10:40:38.6Z</time></trkpt><trkpt lat="43.3036536" lon="-8.4709618"><ele>40.0</ele><time>2026-04-05T10:40:39.599Z</time></trkpt><trkpt lat="43.3036343" lon="-8.470622"><ele>42.0</ele><time>2026-04-05T10:40:40.599Z</time></trkpt><trkpt lat="43.3036162" lon="-8.4702898"><ele>44.5</ele><time>2026-04-05T10:40:41.6Z</time></trkpt><trkpt lat="43.3035995" lon="-8.4699652"><ele>47.0</ele><time>2026-04-05T10:40:42.6Z</time></trkpt><trkpt lat="43.3035827" lon="-8.469645"><ele>49.0</ele><time>2026-04-05T10:40:43.6Z</time></trkpt><trkpt lat="43.3035654" lon="-8.4693252"><ele>51.0</ele><time>2026-04-05T10:40:44.6Z</time></trkpt><trkpt lat="43.3035482" lon="-8.4690053"><ele>50.0</ele><time>2026-04-05T10:40:45.599Z</time></trkpt><trkpt lat="43.3035297" lon="-8.4686767"><ele>49.0</ele><time>2026-04-05T10:40:46.599Z</time></trkpt><trkpt lat="43.303511" lon="-8.4683397"><ele>49.0</ele><time>2026-04-05T10:40:47.599Z</time></trkpt><trkpt lat="43.3034907" lon="-8.4679877"><ele>49.0</ele><time>2026-04-05T10:40:48.6Z</time></trkpt><trkpt lat="43.3034703" lon="-8.4676237"><ele>48.5</ele><time>2026-04-05T10:40:49.599Z</time></trkpt><trkpt lat="43.3034498" lon="-8.4672544"><ele>48.0</ele><time>2026-04-05T10:40:50.6Z</time></trkpt><trkpt lat="43.303425" lon="-8.4668784"><ele>47.5</ele><time>2026-04-05T10:40:51.6Z</time></trkpt><trkpt lat="43.3033888" lon="-8.4665067"><ele>47.0</ele><time>2026-04-05T10:40:52.6Z</time></trkpt><trkpt lat="43.3033368" lon="-8.4661503"><ele>47.0</ele><time>2026-04-05T10:40:53.599Z</time></trkpt><trkpt lat="43.3032777" lon="-8.4658057"><ele>47.0</ele><time>2026-04-05T10:40:54.6Z</time></trkpt><trkpt lat="43.3032189" lon="-8.4654751"><ele>47.5</ele><time>2026-04-05T10:40:55.599Z</time></trkpt><trkpt lat="43.3031603" lon="-8.4651512"><ele>48.0</ele><time>2026-04-05T10:40:56.599Z</time></trkpt><trkpt lat="43.3030991" lon="-8.4648306"><ele>53.0</ele><time>2026-04-05T10:40:57.6Z</time></trkpt><trkpt lat="43.3030362" lon="-8.464505"><ele>58.0</ele><time>2026-04-05T10:40:58.6Z</time></trkpt><trkpt lat="43.3029725" lon="-8.4641771"><ele>58.0</ele><time>2026-04-05T10:40:59.6Z</time></trkpt><trkpt lat="43.3029074" lon="-8.4638385"><ele>58.0</ele><time>2026-04-05T10:41:00.599Z</time></trkpt><trkpt lat="43.30284" lon="-8.4634881"><ele>59.5</ele><time>2026-04-05T10:41:01.599Z</time></trkpt><trkpt lat="43.302773" lon="-8.4631255"><ele>61.0</ele><time>2026-04-05T10:41:02.6Z</time></trkpt><trkpt lat="43.3027073" lon="-8.4627518"><ele>61.0</ele><time>2026-04-05T10:41:03.6Z</time></trkpt><trkpt lat="43.3026412" lon="-8.4623693"><ele>61.0</ele><time>2026-04-05T10:41:04.6Z</time></trkpt><trkpt lat="43.3025732" lon="-8.4619881"><ele>60.0</ele><time>2026-04-05T10:41:05.6Z</time></trkpt><trkpt lat="43.3025041" lon="-8.4616137"><ele>59.0</ele><time>2026-04-05T10:41:06.599Z</time></trkpt><trkpt lat="43.3024336" lon="-8.461248"><ele>58.5</ele><time>2026-04-05T10:41:07.6Z</time></trkpt><trkpt lat="43.3023615" lon="-8.4609013"><ele>58.0</ele><time>2026-04-05T10:41:08.6Z</time></trkpt><trkpt lat="43.302274" lon="-8.4605659"><ele>70.0</ele><time>2026-04-05T10:41:09.6Z</time></trkpt><trkpt lat="43.3021647" lon="-8.4602424"><ele>82.0</ele><time>2026-04-05T10:41:10.599Z</time></trkpt><trkpt lat="43.3020345" lon="-8.459928"><ele>82.0</ele><time>2026-04-05T10:41:11.6Z</time></trkpt><trkpt lat="43.3018908" lon="-8.4596296"><ele>82.0</ele><time>2026-04-05T10:41:12.599Z</time></trkpt><trkpt lat="43.3017303" lon="-8.4593522"><ele>77.0</ele><time>2026-04-05T10:41:13.6Z</time></trkpt><trkpt lat="43.3015522" lon="-8.4591015"><ele>72.0</ele><time>2026-04-05T10:41:14.6Z</time></trkpt><trkpt lat="43.3013669" lon="-8.4588751"><ele>78.5</ele><time>2026-04-05T10:41:15.6Z</time></trkpt><trkpt lat="43.3011832" lon="-8.4586574"><ele>85.0</ele><time>2026-04-05T10:41:16.6Z</time></trkpt><trkpt lat="43.3010131" lon="-8.4584253"><ele>85.0</ele><time>2026-04-05T10:41:17.6Z</time></trkpt><trkpt lat="43.3008685" lon="-8.4581536"><ele>85.0</ele><time>2026-04-05T10:41:18.599Z</time></trkpt><trkpt lat="43.3007464" lon="-8.4578431"><ele>84.5</ele><time>2026-04-05T10:41:19.6Z</time></trkpt><trkpt lat="43.3006364" lon="-8.457508"><ele>84.0</ele><time>2026-04-05T10:41:20.599Z</time></trkpt><trkpt lat="43.3005267" lon="-8.457163"><ele>81.0</ele><time>2026-04-05T10:41:21.599Z</time></trkpt><trkpt lat="43.3004195" lon="-8.4568264"><ele>78.0</ele><time>2026-04-05T10:41:22.599Z</time></trkpt><trkpt lat="43.3003159" lon="-8.4565048"><ele>76.5</ele><time>2026-04-05T10:41:23.6Z</time></trkpt><trkpt lat="43.3002148" lon="-8.4561911"><ele>75.0</ele><time>2026-04-05T10:41:24.6Z</time></trkpt><trkpt lat="43.3001151" lon="-8.455876"><ele>75.0</ele><time>2026-04-05T10:41:25.6Z</time></trkpt><trkpt lat="43.3000156" lon="-8.4555603"><ele>75.0</ele><time>2026-04-05T10:41:26.6Z</time></trkpt><trkpt lat="43.2999139" lon="-8.4552475"><ele>75.0</ele><time>2026-04-05T10:41:27.6Z</time></trkpt><trkpt lat="43.2998139" lon="-8.4549475"><ele>75.0</ele><time>2026-04-05T10:41:28.599Z</time></trkpt><trkpt lat="43.2997206" lon="-8.4546545"><ele>71.66666666666667</ele><time>2026-04-05T10:41:29.599Z</time></trkpt><trkpt lat="43.2996424" lon="-8.4543662"><ele>68.33333333333334</ele><time>2026-04-05T10:41:30.6Z</time></trkpt><trkpt lat="43.299592" lon="-8.4540816"><ele>65.0</ele><time>2026-04-05T10:41:31.599Z</time></trkpt><trkpt lat="43.2995826" lon="-8.4537907"><ele>65.0</ele><time>2026-04-05T10:41:32.599Z</time></trkpt><trkpt lat="43.2996126" lon="-8.4534934"><ele>65.0</ele><time>2026-04-05T10:41:33.599Z</time></trkpt><trkpt lat="43.2996743" lon="-8.4531956"><ele>65.0</ele><time>2026-04-05T10:41:34.6Z</time></trkpt><trkpt lat="43.2997413" lon="-8.4529116"><ele>65.33333333333334</ele><time>2026-04-05T10:41:35.6Z</time></trkpt><trkpt lat="43.2997886" lon="-8.4526341"><ele>65.66666666666667</ele><time>2026-04-05T10:41:36.599Z</time></trkpt><trkpt lat="43.2997972" lon="-8.4523651"><ele>66.0</ele><time>2026-04-05T10:41:37.6Z</time></trkpt><trkpt lat="43.299757" lon="-8.4521004"><ele>66.33333333333333</ele><time>2026-04-05T10:41:38.6Z</time></trkpt><trkpt lat="43.2996772" lon="-8.4518525"><ele>66.66666666666666</ele><time>2026-04-05T10:41:39.6Z</time></trkpt><trkpt lat="43.2995572" lon="-8.4516429"><ele>67.0</ele><time>2026-04-05T10:41:40.6Z</time></trkpt><trkpt lat="43.2994137" lon="-8.4514682"><ele>67.0</ele><time>2026-04-05T10:41:41.599Z</time></trkpt><trkpt lat="43.2992627" lon="-8.4513117"><ele>67.0</ele><time>2026-04-05T10:41:42.6Z</time></trkpt><trkpt lat="43.2991233" lon="-8.4511577"><ele>67.0</ele><time>2026-04-05T10:41:43.599Z</time></trkpt><trkpt lat="43.2990126" lon="-8.4509936"><ele>69.0</ele><time>2026-04-05T10:41:44.6Z</time></trkpt><trkpt lat="43.2989462" lon="-8.4508187"><ele>71.0</ele><time>2026-04-05T10:41:45.6Z</time></trkpt><trkpt lat="43.2989286" lon="-8.4506214"><ele>73.0</ele><time>2026-04-05T10:41:46.6Z</time></trkpt><trkpt lat="43.2989493" lon="-8.4503946"><ele>74.66666666666666</ele><time>2026-04-05T10:41:47.599Z</time></trkpt><trkpt lat="43.2989996" lon="-8.4501434"><ele>76.33333333333333</ele><time>2026-04-05T10:41:48.599Z</time></trkpt><trkpt lat="43.2990603" lon="-8.449888"><ele>78.0</ele><time>2026-04-05T10:41:49.6Z</time></trkpt><trkpt lat="43.2991235" lon="-8.4496476"><ele>80.0</ele><time>2026-04-05T10:41:50.6Z</time></trkpt><trkpt lat="43.2991991" lon="-8.4494308"><ele>82.0</ele><time>2026-04-05T10:41:51.6Z</time></trkpt><trkpt lat="43.2993028" lon="-8.4492567"><ele>84.0</ele><time>2026-04-05T10:41:52.6Z</time></trkpt><trkpt lat="43.2994319" lon="-8.4491376"><ele>84.0</ele><time>2026-04-05T10:41:53.599Z</time></trkpt><trkpt lat="43.2995772" lon="-8.4490854"><ele>84.0</ele><time>2026-04-05T10:41:54.6Z</time></trkpt><trkpt lat="43.2997264" lon="-8.4491015"><ele>84.0</ele><time>2026-04-05T10:41:55.6Z</time></trkpt><trkpt lat="43.2998696" lon="-8.4491593"><ele>84.0</ele><time>2026-04-05T10:41:56.599Z</time></trkpt><trkpt lat="43.3000075" lon="-8.4492081"><ele>84.6</ele><time>2026-04-05T10:41:57.6Z</time></trkpt><trkpt lat="43.3001275" lon="-8.4492066"><ele>85.2</ele><time>2026-04-05T10:41:58.6Z</time></trkpt><trkpt lat="43.3002182" lon="-8.4491522"><ele>85.8</ele><time>2026-04-05T10:41:59.6Z</time></trkpt><trkpt lat="43.3002798" lon="-8.4490404"><ele>86.39999999999999</ele><time>2026-04-05T10:42:00.6Z</time></trkpt><trkpt lat="43.3003176" lon="-8.4488912"><ele>87.0</ele><time>2026-04-05T10:42:01.6Z</time></trkpt><trkpt lat="43.3003516" lon="-8.4487233"><ele>88.19999999999999</ele><time>2026-04-05T10:42:02.599Z</time></trkpt><trkpt lat="43.3003974" lon="-8.4485487"><ele>89.4</ele><time>2026-04-05T10:42:03.6Z</time></trkpt><trkpt lat="43.3004611" lon="-8.4484048"><ele>90.6</ele><time>2026-04-05T10:42:04.599Z</time></trkpt><trkpt lat="43.3005259" lon="-8.4482838"><ele>91.80000000000001</ele><time>2026-04-05T10:42:05.6Z</time></trkpt><trkpt lat="43.3005441" lon="-8.4481815"><ele>93.0</ele><time>2026-04-05T10:42:06.6Z</time></trkpt><trkpt lat="43.3005195" lon="-8.4481002"><ele>93.0</ele><time>2026-04-05T10:42:07.6Z</time></trkpt><trkpt lat="43.3004559" lon="-8.4480478"><ele>93.0</ele><time>2026-04-05T10:42:08.6Z</time></trkpt><trkpt lat="43.3003609" lon="-8.4480398"><ele>93.0</ele><time>2026-04-05T10:42:09.6Z</time></trkpt><trkpt lat="43.3002331" lon="-8.4480657"><ele>93.0</ele><time>2026-04-05T10:42:10.6Z</time></trkpt><trkpt lat="43.3000776" lon="-8.4480951"><ele>93.0</ele><time>2026-04-05T10:42:11.6Z</time></trkpt><trkpt lat="43.2999245" lon="-8.4480938"><ele>93.0</ele><time>2026-04-05T10:42:12.6Z</time></trkpt><trkpt lat="43.2997867" lon="-8.4480847"><ele>93.0</ele><time>2026-04-05T10:42:13.6Z</time></trkpt><trkpt lat="43.2996094" lon="-8.4480528"><ele>93.66666666666667</ele><time>2026-04-05T10:42:14.6Z</time></trkpt><trkpt lat="43.2994407" lon="-8.4480667"><ele>94.33333333333334</ele><time>2026-04-05T10:42:15.599Z</time></trkpt><trkpt lat="43.2992826" lon="-8.4481087"><ele>95.0</ele><time>2026-04-05T10:42:16.6Z</time></trkpt><trkpt lat="43.2991305" lon="-8.4481226"><ele>95.0</ele><time>2026-04-05T10:42:17.6Z</time></trkpt><trkpt lat="43.2989825" lon="-8.44808"><ele>95.0</ele><time>2026-04-05T10:42:18.6Z</time></trkpt><trkpt lat="43.2988352" lon="-8.4479674"><ele>95.0</ele><time>2026-04-05T10:42:19.599Z</time></trkpt><trkpt lat="43.2987003" lon="-8.4477949"><ele>96.66666666666667</ele><time>2026-04-05T10:42:20.6Z</time></trkpt><trkpt lat="43.2985669" lon="-8.44761"><ele>98.33333333333334</ele><time>2026-04-05T10:42:21.599Z</time></trkpt><trkpt lat="43.298445" lon="-8.4474578"><ele>100.0</ele><time>2026-04-05T10:42:22.599Z</time></trkpt><trkpt lat="43.2982898" lon="-8.4473289"><ele>100.0</ele><time>2026-04-05T10:42:23.599Z</time></trkpt><trkpt lat="43.2981206" lon="-8.4472632"><ele>100.0</ele><time>2026-04-05T10:42:24.6Z</time></trkpt><trkpt lat="43.2979487" lon="-8.4472538"><ele>100.0</ele><time>2026-04-05T10:42:25.6Z</time></trkpt><trkpt lat="43.2977812" lon="-8.4472704"><ele>99.75</ele><time>2026-04-05T10:42:26.6Z</time></trkpt><trkpt lat="43.2976315" lon="-8.4472611"><ele>99.5</ele><time>2026-04-05T10:42:27.6Z</time></trkpt><trkpt lat="43.297493" lon="-8.4472126"><ele>99.25</ele><time>2026-04-05T10:42:28.599Z</time></trkpt><trkpt lat="43.2973716" lon="-8.4471114"><ele>99.0</ele><time>2026-04-05T10:42:29.599Z</time></trkpt><trkpt lat="43.2972826" lon="-8.4469667"><ele>99.25</ele><time>2026-04-05T10:42:30.599Z</time></trkpt><trkpt lat="43.297229" lon="-8.4467829"><ele>99.5</ele><time>2026-04-05T10:42:31.6Z</time></trkpt><trkpt lat="43.2972182" lon="-8.4465809"><ele>99.75</ele><time>2026-04-05T10:42:32.599Z</time></trkpt><trkpt lat="43.2972301" lon="-8.4464179"><ele>100.0</ele><time>2026-04-05T10:42:33.599Z</time></trkpt><trkpt lat="43.2973549" lon="-8.4462031"><ele>102.33333333333334</ele><time>2026-04-05T10:42:34.6Z</time></trkpt><trkpt lat="43.2974536" lon="-8.4460093"><ele>104.66666666666666</ele><time>2026-04-05T10:42:35.6Z</time></trkpt><trkpt lat="43.2975249" lon="-8.4458013"><ele>107.0</ele><time>2026-04-05T10:42:36.6Z</time></trkpt><trkpt lat="43.29756" lon="-8.4455875"><ele>106.0</ele><time>2026-04-05T10:42:37.6Z</time></trkpt><trkpt lat="43.2975714" lon="-8.4453727"><ele>105.0</ele><time>2026-04-05T10:42:38.599Z</time></trkpt><trkpt lat="43.2975492" lon="-8.4451122"><ele>104.0</ele><time>2026-04-05T10:42:39.6Z</time></trkpt><trkpt lat="43.2974704" lon="-8.4449094"><ele>104.0</ele><time>2026-04-05T10:42:40.6Z</time></trkpt><trkpt lat="43.2973488" lon="-8.4447281"><ele>104.0</ele><time>2026-04-05T10:42:41.599Z</time></trkpt><trkpt lat="43.297188" lon="-8.444521"><ele>104.0</ele><time>2026-04-05T10:42:42.599Z</time></trkpt><trkpt lat="43.2970247" lon="-8.4443155"><ele>103.66666666666666</ele><time>2026-04-05T10:42:43.6Z</time></trkpt><trkpt lat="43.296872" lon="-8.4441186"><ele>103.33333333333334</ele><time>2026-04-05T10:42:44.6Z</time></trkpt><trkpt lat="43.2967287" lon="-8.4439338"><ele>103.0</ele><time>2026-04-05T10:42:45.6Z</time></trkpt><trkpt lat="43.2965902" lon="-8.4437697"><ele>101.66666666666667</ele><time>2026-04-05T10:42:46.6Z</time></trkpt><trkpt lat="43.2964436" lon="-8.443641"><ele>100.33333333333334</ele><time>2026-04-05T10:42:47.6Z</time></trkpt><trkpt lat="43.2962746" lon="-8.4435498"><ele>99.0</ele><time>2026-04-05T10:42:48.6Z</time></trkpt><trkpt lat="43.296087" lon="-8.4434522"><ele>99.0</ele><time>2026-04-05T10:42:49.6Z</time></trkpt><trkpt lat="43.2958837" lon="-8.4433106"><ele>99.0</ele><time>2026-04-05T10:42:50.6Z</time></trkpt><trkpt lat="43.2956679" lon="-8.4431527"><ele>96.5</ele><time>2026-04-05T10:42:51.6Z</time></trkpt><trkpt lat="43.2954566" lon="-8.4429698"><ele>94.0</ele><time>2026-04-05T10:42:52.599Z</time></trkpt><trkpt lat="43.2952483" lon="-8.4427892"><ele>94.0</ele><time>2026-04-05T10:42:53.6Z</time></trkpt><trkpt lat="43.2950353" lon="-8.4426085"><ele>94.0</ele><time>2026-04-05T10:42:54.599Z</time></trkpt><trkpt lat="43.2948394" lon="-8.4424471"><ele>93.33333333333333</ele><time>2026-04-05T10:42:55.6Z</time></trkpt><trkpt lat="43.2946496" lon="-8.4423097"><ele>92.66666666666667</ele><time>2026-04-05T10:42:56.6Z</time></trkpt><trkpt lat="43.2944551" lon="-8.4422069"><ele>92.0</ele><time>2026-04-05T10:42:57.6Z</time></trkpt><trkpt lat="43.2942502" lon="-8.442127"><ele>92.0</ele><time>2026-04-05T10:42:58.6Z</time></trkpt><trkpt lat="43.2940375" lon="-8.4420623"><ele>92.0</ele><time>2026-04-05T10:42:59.6Z</time></trkpt><trkpt lat="43.2938232" lon="-8.4419947"><ele>92.0</ele><time>2026-04-05T10:43:00.6Z</time></trkpt><trkpt lat="43.2936126" lon="-8.4418991"><ele>91.0</ele><time>2026-04-05T10:43:01.6Z</time></trkpt><trkpt lat="43.2934117" lon="-8.441748"><ele>90.0</ele><time>2026-04-05T10:43:02.6Z</time></trkpt><trkpt lat="43.2932159" lon="-8.4415495"><ele>90.5</ele><time>2026-04-05T10:43:03.6Z</time></trkpt><trkpt lat="43.2930237" lon="-8.4413227"><ele>91.0</ele><time>2026-04-05T10:43:04.6Z</time></trkpt><trkpt lat="43.2928385" lon="-8.4410954"><ele>92.0</ele><time>2026-04-05T10:43:05.6Z</time></trkpt><trkpt lat="43.2926548" lon="-8.4408666"><ele>93.0</ele><time>2026-04-05T10:43:06.599Z</time></trkpt><trkpt lat="43.2924733" lon="-8.4406411"><ele>93.5</ele><time>2026-04-05T10:43:07.6Z</time></trkpt><trkpt lat="43.2922913" lon="-8.4404148"><ele>94.0</ele><time>2026-04-05T10:43:08.6Z</time></trkpt><trkpt lat="43.292109" lon="-8.4401862"><ele>94.0</ele><time>2026-04-05T10:43:09.6Z</time></trkpt><trkpt lat="43.2919287" lon="-8.4399628"><ele>94.0</ele><time>2026-04-05T10:43:10.599Z</time></trkpt><trkpt lat="43.2917451" lon="-8.4397368"><ele>93.5</ele><time>2026-04-05T10:43:11.599Z</time></trkpt><trkpt lat="43.2915614" lon="-8.4395094"><ele>93.0</ele><time>2026-04-05T10:43:12.6Z</time></trkpt><trkpt lat="43.2913768" lon="-8.4392833"><ele>93.0</ele><time>2026-04-05T10:43:13.6Z</time></trkpt><trkpt lat="43.2911885" lon="-8.4390576"><ele>93.0</ele><time>2026-04-05T10:43:14.6Z</time></trkpt><trkpt lat="43.2910003" lon="-8.4388377"><ele>94.0</ele><time>2026-04-05T10:43:15.599Z</time></trkpt><trkpt lat="43.2908142" lon="-8.4386249"><ele>95.0</ele><time>2026-04-05T10:43:16.6Z</time></trkpt><trkpt lat="43.2906285" lon="-8.4384155"><ele>95.5</ele><time>2026-04-05T10:43:17.6Z</time></trkpt><trkpt lat="43.2904431" lon="-8.4382065"><ele>96.0</ele><time>2026-04-05T10:43:18.6Z</time></trkpt><trkpt lat="43.2902603" lon="-8.4379962"><ele>96.0</ele><time>2026-04-05T10:43:19.6Z</time></trkpt><trkpt lat="43.2900797" lon="-8.437781"><ele>96.0</ele><time>2026-04-05T10:43:20.599Z</time></trkpt><trkpt lat="43.2899007" lon="-8.4375608"><ele>96.0</ele><time>2026-04-05T10:43:21.6Z</time></trkpt><trkpt lat="43.289726" lon="-8.4373328"><ele>96.0</ele><time>2026-04-05T10:43:22.599Z</time></trkpt><trkpt lat="43.2895535" lon="-8.4370981"><ele>96.0</ele><time>2026-04-05T10:43:23.6Z</time></trkpt><trkpt lat="43.2893791" lon="-8.4368671"><ele>96.0</ele><time>2026-04-05T10:43:24.6Z</time></trkpt><trkpt lat="43.2892025" lon="-8.4366415"><ele>96.0</ele><time>2026-04-05T10:43:25.6Z</time></trkpt><trkpt lat="43.2890249" lon="-8.4364212"><ele>96.0</ele><time>2026-04-05T10:43:26.6Z</time></trkpt><trkpt lat="43.288844" lon="-8.4361956"><ele>96.0</ele><time>2026-04-05T10:43:27.6Z</time></trkpt><trkpt lat="43.2886687" lon="-8.4359793"><ele>96.0</ele><time>2026-04-05T10:43:28.599Z</time></trkpt><trkpt lat="43.2884917" lon="-8.4357554"><ele>96.0</ele><time>2026-04-05T10:43:29.6Z</time></trkpt><trkpt lat="43.2883143" lon="-8.4355329"><ele>96.0</ele><time>2026-04-05T10:43:30.6Z</time></trkpt><trkpt lat="43.2881392" lon="-8.4353122"><ele>96.5</ele><time>2026-04-05T10:43:31.6Z</time></trkpt><trkpt lat="43.2879673" lon="-8.4350962"><ele>97.0</ele><time>2026-04-05T10:43:32.599Z</time></trkpt><trkpt lat="43.287796" lon="-8.4348843"><ele>97.0</ele><time>2026-04-05T10:43:33.6Z</time></trkpt><trkpt lat="43.2876284" lon="-8.4346825"><ele>97.0</ele><time>2026-04-05T10:43:34.6Z</time></trkpt><trkpt lat="43.2874603" lon="-8.4344797"><ele>97.0</ele><time>2026-04-05T10:43:35.6Z</time></trkpt><trkpt lat="43.2872922" lon="-8.4342778"><ele>102.5</ele><time>2026-04-05T10:43:36.6Z</time></trkpt><trkpt lat="43.2871238" lon="-8.4340735"><ele>108.0</ele><time>2026-04-05T10:43:37.599Z</time></trkpt><trkpt lat="43.2869547" lon="-8.4338685"><ele>109.0</ele><time>2026-04-05T10:43:38.6Z</time></trkpt><trkpt lat="43.286786" lon="-8.4336616"><ele>110.0</ele><time>2026-04-05T10:43:39.6Z</time></trkpt><trkpt lat="43.2866192" lon="-8.4334603"><ele>111.0</ele><time>2026-04-05T10:43:40.6Z</time></trkpt><trkpt lat="43.286458" lon="-8.4332656"><ele>114.66666666666666</ele><time>2026-04-05T10:43:41.599Z</time></trkpt><trkpt lat="43.2863077" lon="-8.4330808"><ele>118.33333333333333</ele><time>2026-04-05T10:43:42.599Z</time></trkpt><trkpt lat="43.2861691" lon="-8.4329122"><ele>122.0</ele><time>2026-04-05T10:43:43.599Z</time></trkpt><trkpt lat="43.286047" lon="-8.4327589"><ele>122.0</ele><time>2026-04-05T10:43:44.6Z</time></trkpt><trkpt lat="43.2859419" lon="-8.4326074"><ele>122.0</ele><time>2026-04-05T10:43:45.6Z</time></trkpt><trkpt lat="43.2858641" lon="-8.4324329"><ele>122.0</ele><time>2026-04-05T10:43:46.6Z</time></trkpt><trkpt lat="43.2858162" lon="-8.4322318"><ele>123.33333333333333</ele><time>2026-04-05T10:43:47.6Z</time></trkpt><trkpt lat="43.2857963" lon="-8.4319983"><ele>124.66666666666666</ele><time>2026-04-05T10:43:48.6Z</time></trkpt><trkpt lat="43.2857892" lon="-8.4317521"><ele>126.0</ele><time>2026-04-05T10:43:49.6Z</time></trkpt><trkpt lat="43.2857654" lon="-8.4315043"><ele>129.33333333333334</ele><time>2026-04-05T10:43:50.6Z</time></trkpt><trkpt lat="43.2857135" lon="-8.4312472"><ele>132.66666666666669</ele><time>2026-04-05T10:43:51.6Z</time></trkpt><trkpt lat="43.285627" lon="-8.4309797"><ele>136.0</ele><time>2026-04-05T10:43:52.6Z</time></trkpt><trkpt lat="43.2855163" lon="-8.4307018"><ele>138.5</ele><time>2026-04-05T10:43:53.6Z</time></trkpt><trkpt lat="43.2853955" lon="-8.4304189"><ele>141.0</ele><time>2026-04-05T10:43:54.6Z</time></trkpt><trkpt lat="43.2852787" lon="-8.4301447"><ele>141.0</ele><time>2026-04-05T10:43:55.599Z</time></trkpt><trkpt lat="43.2851711" lon="-8.4298948"><ele>141.0</ele><time>2026-04-05T10:43:56.6Z</time></trkpt><trkpt lat="43.285072" lon="-8.4296684"><ele>141.0</ele><time>2026-04-05T10:43:57.6Z</time></trkpt><trkpt lat="43.2849768" lon="-8.429454"><ele>139.66666666666666</ele><time>2026-04-05T10:43:58.599Z</time></trkpt><trkpt lat="43.2848858" lon="-8.4292429"><ele>138.33333333333331</ele><time>2026-04-05T10:43:59.6Z</time></trkpt><trkpt lat="43.2847967" lon="-8.4290293"><ele>137.0</ele><time>2026-04-05T10:44:00.6Z</time></trkpt><trkpt lat="43.2847102" lon="-8.4288158"><ele>136.33333333333331</ele><time>2026-04-05T10:44:01.6Z</time></trkpt><trkpt lat="43.2846294" lon="-8.4285976"><ele>135.66666666666666</ele><time>2026-04-05T10:44:02.6Z</time></trkpt><trkpt lat="43.2845559" lon="-8.4283821"><ele>135.0</ele><time>2026-04-05T10:44:03.599Z</time></trkpt><trkpt lat="43.2844695" lon="-8.4281782"><ele>135.0</ele><time>2026-04-05T10:44:04.599Z</time></trkpt><trkpt lat="43.2843498" lon="-8.4279925"><ele>135.0</ele><time>2026-04-05T10:44:05.6Z</time></trkpt><trkpt lat="43.2842033" lon="-8.4278149"><ele>135.0</ele><time>2026-04-05T10:44:06.599Z</time></trkpt><trkpt lat="43.284051" lon="-8.4276118"><ele>128.5</ele><time>2026-04-05T10:44:07.6Z</time></trkpt><trkpt lat="43.2838903" lon="-8.4273648"><ele>122.0</ele><time>2026-04-05T10:44:08.6Z</time></trkpt><trkpt lat="43.283729" lon="-8.4270902"><ele>122.0</ele><time>2026-04-05T10:44:09.6Z</time></trkpt><trkpt lat="43.2835661" lon="-8.4268024"><ele>122.0</ele><time>2026-04-05T10:44:10.6Z</time></trkpt><trkpt lat="43.2834037" lon="-8.4265017"><ele>123.0</ele><time>2026-04-05T10:44:11.6Z</time></trkpt><trkpt lat="43.2832337" lon="-8.4261694"><ele>124.0</ele><time>2026-04-05T10:44:12.6Z</time></trkpt><trkpt lat="43.2830757" lon="-8.4258466"><ele>120.0</ele><time>2026-04-05T10:44:13.6Z</time></trkpt><trkpt lat="43.2829236" lon="-8.4255268"><ele>116.0</ele><time>2026-04-05T10:44:14.6Z</time></trkpt><trkpt lat="43.2827811" lon="-8.4252164"><ele>116.0</ele><time>2026-04-05T10:44:15.6Z</time></trkpt><trkpt lat="43.2826415" lon="-8.4249068"><ele>116.0</ele><time>2026-04-05T10:44:16.599Z</time></trkpt><trkpt lat="43.2825049" lon="-8.4245994"><ele>116.5</ele><time>2026-04-05T10:44:17.6Z</time></trkpt><trkpt lat="43.2823694" lon="-8.424293"><ele>117.0</ele><time>2026-04-05T10:44:18.599Z</time></trkpt><trkpt lat="43.2822354" lon="-8.4239877"><ele>113.0</ele><time>2026-04-05T10:44:19.6Z</time></trkpt><trkpt lat="43.282101" lon="-8.4236817"><ele>109.0</ele><time>2026-04-05T10:44:20.599Z</time></trkpt><trkpt lat="43.2819677" lon="-8.4233738"><ele>109.0</ele><time>2026-04-05T10:44:21.599Z</time></trkpt><trkpt lat="43.2818323" lon="-8.423064"><ele>109.0</ele><time>2026-04-05T10:44:22.6Z</time></trkpt><trkpt lat="43.281697" lon="-8.4227553"><ele>108.5</ele><time>2026-04-05T10:44:23.6Z</time></trkpt><trkpt lat="43.2815611" lon="-8.4224473"><ele>108.0</ele><time>2026-04-05T10:44:24.6Z</time></trkpt><trkpt lat="43.2814247" lon="-8.4221417"><ele>107.0</ele><time>2026-04-05T10:44:25.6Z</time></trkpt><trkpt lat="43.2812877" lon="-8.4218384"><ele>106.0</ele><time>2026-04-05T10:44:26.6Z</time></trkpt><trkpt lat="43.2811507" lon="-8.421536"><ele>108.5</ele><time>2026-04-05T10:44:27.599Z</time></trkpt><trkpt lat="43.2810163" lon="-8.4212385"><ele>111.0</ele><time>2026-04-05T10:44:28.599Z</time></trkpt><trkpt lat="43.280884" lon="-8.4209523"><ele>111.0</ele><time>2026-04-05T10:44:29.6Z</time></trkpt><trkpt lat="43.2807569" lon="-8.420678"><ele>111.0</ele><time>2026-04-05T10:44:30.599Z</time></trkpt><trkpt lat="43.2806365" lon="-8.4204176"><ele>110.66666666666666</ele><time>2026-04-05T10:44:31.6Z</time></trkpt><trkpt lat="43.2805242" lon="-8.4201687"><ele>110.33333333333333</ele><time>2026-04-05T10:44:32.599Z</time></trkpt><trkpt lat="43.280422" lon="-8.4199348"><ele>110.0</ele><time>2026-04-05T10:44:33.6Z</time></trkpt><trkpt lat="43.2803296" lon="-8.4197168"><ele>112.0</ele><time>2026-04-05T10:44:34.599Z</time></trkpt><trkpt lat="43.2802472" lon="-8.4195179"><ele>114.0</ele><time>2026-04-05T10:44:35.6Z</time></trkpt><trkpt lat="43.2801699" lon="-8.4193458"><ele>116.0</ele><time>2026-04-05T10:44:36.6Z</time></trkpt><trkpt lat="43.2800941" lon="-8.419203"><ele>118.0</ele><time>2026-04-05T10:44:37.6Z</time></trkpt><trkpt lat="43.2800272" lon="-8.4190595"><ele>118.0</ele><time>2026-04-05T10:44:38.6Z</time></trkpt><trkpt lat="43.2799795" lon="-8.4188946"><ele>118.0</ele><time>2026-04-05T10:44:39.6Z</time></trkpt><trkpt lat="43.2799292" lon="-8.4186826"><ele>118.0</ele><time>2026-04-05T10:44:40.599Z</time></trkpt><trkpt lat="43.2798744" lon="-8.4184336"><ele>122.0</ele><time>2026-04-05T10:44:41.6Z</time></trkpt><trkpt lat="43.2798311" lon="-8.4181572"><ele>126.0</ele><time>2026-04-05T10:44:42.6Z</time></trkpt><trkpt lat="43.279801" lon="-8.4178512"><ele>130.0</ele><time>2026-04-05T10:44:43.6Z</time></trkpt><trkpt lat="43.2797824" lon="-8.4175421"><ele>125.0</ele><time>2026-04-05T10:44:44.6Z</time></trkpt><trkpt lat="43.2797659" lon="-8.4172315"><ele>120.0</ele><time>2026-04-05T10:44:45.6Z</time></trkpt><trkpt lat="43.2797494" lon="-8.4169206"><ele>120.0</ele><time>2026-04-05T10:44:46.599Z</time></trkpt><trkpt lat="43.2797313" lon="-8.4166037"><ele>120.0</ele><time>2026-04-05T10:44:47.6Z</time></trkpt><trkpt lat="43.2797114" lon="-8.4162851"><ele>120.0</ele><time>2026-04-05T10:44:48.6Z</time></trkpt><trkpt lat="43.2796909" lon="-8.4159675"><ele>120.0</ele><time>2026-04-05T10:44:49.6Z</time></trkpt><trkpt lat="43.2796718" lon="-8.4156565"><ele>120.5</ele><time>2026-04-05T10:44:50.599Z</time></trkpt><trkpt lat="43.2796529" lon="-8.4153391"><ele>121.0</ele><time>2026-04-05T10:44:51.6Z</time></trkpt><trkpt lat="43.2796314" lon="-8.4150128"><ele>121.0</ele><time>2026-04-05T10:44:52.6Z</time></trkpt><trkpt lat="43.2796076" lon="-8.4146765"><ele>121.0</ele><time>2026-04-05T10:44:53.6Z</time></trkpt><trkpt lat="43.2795851" lon="-8.4143535"><ele>121.33333333333334</ele><time>2026-04-05T10:44:54.599Z</time></trkpt><trkpt lat="43.2795674" lon="-8.4140497"><ele>121.66666666666666</ele><time>2026-04-05T10:44:55.6Z</time></trkpt><trkpt lat="43.2795618" lon="-8.413771"><ele>122.0</ele><time>2026-04-05T10:44:56.599Z</time></trkpt><trkpt lat="43.279581" lon="-8.4135109"><ele>122.0</ele><time>2026-04-05T10:44:57.6Z</time></trkpt><trkpt lat="43.2796365" lon="-8.4132598"><ele>122.0</ele><time>2026-04-05T10:44:58.599Z</time></trkpt><trkpt lat="43.2797277" lon="-8.413011"><ele>122.0</ele><time>2026-04-05T10:44:59.6Z</time></trkpt><trkpt lat="43.2798372" lon="-8.4127628"><ele>127.0</ele><time>2026-04-05T10:45:00.6Z</time></trkpt><trkpt lat="43.2799317" lon="-8.4125033"><ele>132.0</ele><time>2026-04-05T10:45:01.599Z</time></trkpt><trkpt lat="43.2799866" lon="-8.41223"><ele>137.0</ele><time>2026-04-05T10:45:02.599Z</time></trkpt><trkpt lat="43.2800136" lon="-8.4119479"><ele>138.0</ele><time>2026-04-05T10:45:03.6Z</time></trkpt><trkpt lat="43.2800466" lon="-8.4116698"><ele>139.0</ele><time>2026-04-05T10:45:04.6Z</time></trkpt><trkpt lat="43.2801032" lon="-8.4113944"><ele>140.0</ele><time>2026-04-05T10:45:05.6Z</time></trkpt><trkpt lat="43.2801925" lon="-8.4111235"><ele>140.0</ele><time>2026-04-05T10:45:06.6Z</time></trkpt><trkpt lat="43.2803077" lon="-8.4108545"><ele>140.0</ele><time>2026-04-05T10:45:07.6Z</time></trkpt><trkpt lat="43.2804477" lon="-8.4105847"><ele>139.5</ele><time>2026-04-05T10:45:08.6Z</time></trkpt><trkpt lat="43.2805834" lon="-8.4103123"><ele>139.0</ele><time>2026-04-05T10:45:09.6Z</time></trkpt><trkpt lat="43.2807109" lon="-8.4100289"><ele>141.5</ele><time>2026-04-05T10:45:10.599Z</time></trkpt><trkpt lat="43.2808001" lon="-8.4097239"><ele>144.0</ele><time>2026-04-05T10:45:11.6Z</time></trkpt><trkpt lat="43.2808605" lon="-8.4093898"><ele>145.0</ele><time>2026-04-05T10:45:12.599Z</time></trkpt><trkpt lat="43.2809011" lon="-8.4090452"><ele>146.0</ele><time>2026-04-05T10:45:13.6Z</time></trkpt><trkpt lat="43.2809375" lon="-8.4086942"><ele>147.5</ele><time>2026-04-05T10:45:14.6Z</time></trkpt><trkpt lat="43.2809773" lon="-8.408331"><ele>149.0</ele><time>2026-04-05T10:45:15.6Z</time></trkpt><trkpt lat="43.2810183" lon="-8.4079493"><ele>150.0</ele><time>2026-04-05T10:45:16.6Z</time></trkpt><trkpt lat="43.2810609" lon="-8.4075548"><ele>151.0</ele><time>2026-04-05T10:45:17.6Z</time></trkpt><trkpt lat="43.2811026" lon="-8.407159"><ele>147.0</ele><time>2026-04-05T10:45:18.599Z</time></trkpt><trkpt lat="43.2811452" lon="-8.4067634"><ele>143.0</ele><time>2026-04-05T10:45:19.599Z</time></trkpt><trkpt lat="43.2811892" lon="-8.4063643"><ele>142.0</ele><time>2026-04-05T10:45:20.6Z</time></trkpt><trkpt lat="43.281232" lon="-8.4059666"><ele>141.0</ele><time>2026-04-05T10:45:21.6Z</time></trkpt><trkpt lat="43.2812742" lon="-8.4055685"><ele>137.5</ele><time>2026-04-05T10:45:22.6Z</time></trkpt><trkpt lat="43.2813186" lon="-8.4051754"><ele>134.0</ele><time>2026-04-05T10:45:23.6Z</time></trkpt><trkpt lat="43.2813633" lon="-8.4047873"><ele>133.0</ele><time>2026-04-05T10:45:24.6Z</time></trkpt><trkpt lat="43.2814072" lon="-8.4044115"><ele>132.0</ele><time>2026-04-05T10:45:25.6Z</time></trkpt><trkpt lat="43.28145" lon="-8.4040471"><ele>136.5</ele><time>2026-04-05T10:45:26.6Z</time></trkpt><trkpt lat="43.281492" lon="-8.4036953"><ele>141.0</ele><time>2026-04-05T10:45:27.6Z</time></trkpt><trkpt lat="43.2815333" lon="-8.4033519"><ele>141.0</ele><time>2026-04-05T10:45:28.599Z</time></trkpt><trkpt lat="43.2815702" lon="-8.4030222"><ele>141.0</ele><time>2026-04-05T10:45:29.6Z</time></trkpt><trkpt lat="43.2815867" lon="-8.4027005"><ele>142.5</ele><time>2026-04-05T10:45:30.599Z</time></trkpt><trkpt lat="43.281566" lon="-8.4023866"><ele>144.0</ele><time>2026-04-05T10:45:31.599Z</time></trkpt><trkpt lat="43.2815146" lon="-8.4020727"><ele>144.5</ele><time>2026-04-05T10:45:32.6Z</time></trkpt><trkpt lat="43.281449" lon="-8.4017528"><ele>145.0</ele><time>2026-04-05T10:45:33.599Z</time></trkpt><trkpt lat="43.2813794" lon="-8.4014279"><ele>142.0</ele><time>2026-04-05T10:45:34.599Z</time></trkpt><trkpt lat="43.2813102" lon="-8.4011048"><ele>139.0</ele><time>2026-04-05T10:45:35.6Z</time></trkpt><trkpt lat="43.2812434" lon="-8.400795"><ele>139.0</ele><time>2026-04-05T10:45:36.599Z</time></trkpt><trkpt lat="43.2811888" lon="-8.4005002"><ele>139.0</ele><time>2026-04-05T10:45:37.599Z</time></trkpt><trkpt lat="43.2811617" lon="-8.4002165"><ele>139.0</ele><time>2026-04-05T10:45:38.6Z</time></trkpt><trkpt lat="43.2811685" lon="-8.3999408"><ele>139.0</ele><time>2026-04-05T10:45:39.599Z</time></trkpt><trkpt lat="43.281199" lon="-8.3996676"><ele>139.0</ele><time>2026-04-05T10:45:40.599Z</time></trkpt><trkpt lat="43.2812428" lon="-8.3994006"><ele>139.0</ele><time>2026-04-05T10:45:41.6Z</time></trkpt><trkpt lat="43.2812911" lon="-8.3991315"><ele>138.66666666666669</ele><time>2026-04-05T10:45:42.6Z</time></trkpt><trkpt lat="43.2813404" lon="-8.3988648"><ele>138.33333333333334</ele><time>2026-04-05T10:45:43.6Z</time></trkpt><trkpt lat="43.2813906" lon="-8.3985996"><ele>138.0</ele><time>2026-04-05T10:45:44.599Z</time></trkpt><trkpt lat="43.2814394" lon="-8.3983443"><ele>136.66666666666666</ele><time>2026-04-05T10:45:45.599Z</time></trkpt><trkpt lat="43.2814879" lon="-8.398102"><ele>135.33333333333331</ele><time>2026-04-05T10:45:46.6Z</time></trkpt><trkpt lat="43.2815355" lon="-8.3978729"><ele>134.0</ele><time>2026-04-05T10:45:47.6Z</time></trkpt><trkpt lat="43.2815784" lon="-8.3976499"><ele>133.33333333333331</ele><time>2026-04-05T10:45:48.6Z</time></trkpt><trkpt lat="43.2816212" lon="-8.3974251"><ele>132.66666666666666</ele><time>2026-04-05T10:45:49.6Z</time></trkpt><trkpt lat="43.2816638" lon="-8.3972034"><ele>132.0</ele><time>2026-04-05T10:45:50.599Z</time></trkpt><trkpt lat="43.2817077" lon="-8.396985"><ele>130.66666666666666</ele><time>2026-04-05T10:45:51.6Z</time></trkpt><trkpt lat="43.2817531" lon="-8.3967766"><ele>129.33333333333331</ele><time>2026-04-05T10:45:52.599Z</time></trkpt><trkpt lat="43.2818032" lon="-8.3965763"><ele>128.0</ele><time>2026-04-05T10:45:53.599Z</time></trkpt><trkpt lat="43.281859" lon="-8.3963852"><ele>127.75</ele><time>2026-04-05T10:45:54.6Z</time></trkpt><trkpt lat="43.2819187" lon="-8.3962018"><ele>127.5</ele><time>2026-04-05T10:45:55.6Z</time></trkpt><trkpt lat="43.2819813" lon="-8.396028"><ele>127.25</ele><time>2026-04-05T10:45:56.6Z</time></trkpt><trkpt lat="43.2820446" lon="-8.3958666"><ele>127.0</ele><time>2026-04-05T10:45:57.6Z</time></trkpt><trkpt lat="43.2821065" lon="-8.3957149"><ele>127.0</ele><time>2026-04-05T10:45:58.6Z</time></trkpt><trkpt lat="43.2821617" lon="-8.3955742"><ele>126.99999999999999</ele><time>2026-04-05T10:45:59.6Z</time></trkpt><trkpt lat="43.2821992" lon="-8.3954415"><ele>126.99999999999999</ele><time>2026-04-05T10:46:00.599Z</time></trkpt><trkpt lat="43.2822069" lon="-8.3953188"><ele>127.0</ele><time>2026-04-05T10:46:01.6Z</time></trkpt><trkpt lat="43.282185" lon="-8.3952099"><ele>127.0</ele><time>2026-04-05T10:46:02.599Z</time></trkpt><trkpt lat="43.2821609" lon="-8.3950949"><ele>126.83333333333334</ele><time>2026-04-05T10:46:03.6Z</time></trkpt><trkpt lat="43.2821629" lon="-8.3949715"><ele>126.66666666666667</ele><time>2026-04-05T10:46:04.599Z</time></trkpt><trkpt lat="43.2822029" lon="-8.3948568"><ele>126.5</ele><time>2026-04-05T10:46:05.6Z</time></trkpt><trkpt lat="43.2822712" lon="-8.3947934"><ele>126.33333333333334</ele><time>2026-04-05T10:46:06.6Z</time></trkpt><trkpt lat="43.2823615" lon="-8.3947836"><ele>126.16666666666667</ele><time>2026-04-05T10:46:07.6Z</time></trkpt><trkpt lat="43.2824542" lon="-8.3947781"><ele>126.0</ele><time>2026-04-05T10:46:08.599Z</time></trkpt><trkpt lat="43.2825346" lon="-8.3947484"><ele>126.33333333333333</ele><time>2026-04-05T10:46:09.6Z</time></trkpt><trkpt lat="43.2825983" lon="-8.3946805"><ele>126.66666666666666</ele><time>2026-04-05T10:46:10.599Z</time></trkpt><trkpt lat="43.2826546" lon="-8.3946055"><ele>127.0</ele><time>2026-04-05T10:46:11.599Z</time></trkpt><trkpt lat="43.2827088" lon="-8.3945181"><ele>127.33333333333333</ele><time>2026-04-05T10:46:12.6Z</time></trkpt><trkpt lat="43.2827699" lon="-8.3944188"><ele>127.66666666666666</ele><time>2026-04-05T10:46:13.599Z</time></trkpt><trkpt lat="43.2828182" lon="-8.3943184"><ele>128.0</ele><time>2026-04-05T10:46:14.599Z</time></trkpt><trkpt lat="43.2828657" lon="-8.3942134"><ele>128.20000000000002</ele><time>2026-04-05T10:46:15.599Z</time></trkpt><trkpt lat="43.2829127" lon="-8.3941042"><ele>128.4</ele><time>2026-04-05T10:46:16.6Z</time></trkpt><trkpt lat="43.282961" lon="-8.3939908"><ele>128.60000000000002</ele><time>2026-04-05T10:46:17.6Z</time></trkpt><trkpt lat="43.2830132" lon="-8.3938698"><ele>128.8</ele><time>2026-04-05T10:46:18.6Z</time></trkpt><trkpt lat="43.283074" lon="-8.3937403"><ele>129.0</ele><time>2026-04-05T10:46:19.6Z</time></trkpt><trkpt lat="43.2831423" lon="-8.3936095"><ele>127.5</ele><time>2026-04-05T10:46:20.6Z</time></trkpt><trkpt lat="43.2832202" lon="-8.3934797"><ele>126.0</ele><time>2026-04-05T10:46:21.6Z</time></trkpt><trkpt lat="43.2833084" lon="-8.3933532"><ele>124.5</ele><time>2026-04-05T10:46:22.599Z</time></trkpt><trkpt lat="43.2834066" lon="-8.3932337"><ele>123.0</ele><time>2026-04-05T10:46:23.6Z</time></trkpt><trkpt lat="43.2835151" lon="-8.3931201"><ele>123.0</ele><time>2026-04-05T10:46:24.6Z</time></trkpt><trkpt lat="43.2836335" lon="-8.3930165"><ele>123.0</ele><time>2026-04-05T10:46:25.6Z</time></trkpt><trkpt lat="43.2837596" lon="-8.3929198"><ele>123.0</ele><time>2026-04-05T10:46:26.6Z</time></trkpt><trkpt lat="43.2838927" lon="-8.3928276"><ele>123.0</ele><time>2026-04-05T10:46:27.6Z</time></trkpt><trkpt lat="43.2840311" lon="-8.3927347"><ele>120.33333333333334</ele><time>2026-04-05T10:46:28.599Z</time></trkpt><trkpt lat="43.2841722" lon="-8.3926417"><ele>117.66666666666667</ele><time>2026-04-05T10:46:29.6Z</time></trkpt><trkpt lat="43.284314" lon="-8.39255"><ele>115.0</ele><time>2026-04-05T10:46:30.6Z</time></trkpt><trkpt lat="43.2844573" lon="-8.3924549"><ele>115.0</ele><time>2026-04-05T10:46:31.599Z</time></trkpt><trkpt lat="43.2846005" lon="-8.3923598"><ele>115.0</ele><time>2026-04-05T10:46:32.599Z</time></trkpt><trkpt lat="43.2847415" lon="-8.3922657"><ele>115.0</ele><time>2026-04-05T10:46:33.6Z</time></trkpt><trkpt lat="43.2848803" lon="-8.3921755"><ele>113.0</ele><time>2026-04-05T10:46:34.6Z</time></trkpt><trkpt lat="43.2850137" lon="-8.3920824"><ele>111.0</ele><time>2026-04-05T10:46:35.6Z</time></trkpt><trkpt lat="43.2851429" lon="-8.391981"><ele>109.0</ele><time>2026-04-05T10:46:36.6Z</time></trkpt><trkpt lat="43.2852654" lon="-8.3918676"><ele>107.0</ele><time>2026-04-05T10:46:37.6Z</time></trkpt><trkpt lat="43.2853783" lon="-8.3917378"><ele>107.0</ele><time>2026-04-05T10:46:38.6Z</time></trkpt><trkpt lat="43.2854776" lon="-8.3915911"><ele>107.0</ele><time>2026-04-05T10:46:39.6Z</time></trkpt><trkpt lat="43.2855604" lon="-8.3914318"><ele>107.0</ele><time>2026-04-05T10:46:40.6Z</time></trkpt><trkpt lat="43.2856311" lon="-8.3912682"><ele>107.0</ele><time>2026-04-05T10:46:41.6Z</time></trkpt><trkpt lat="43.2856938" lon="-8.3911006"><ele>106.0</ele><time>2026-04-05T10:46:42.6Z</time></trkpt><trkpt lat="43.2857465" lon="-8.3909331"><ele>105.0</ele><time>2026-04-05T10:46:43.6Z</time></trkpt><trkpt lat="43.2857877" lon="-8.3907631"><ele>104.0</ele><time>2026-04-05T10:46:44.6Z</time></trkpt><trkpt lat="43.2858184" lon="-8.3905937"><ele>103.0</ele><time>2026-04-05T10:46:45.599Z</time></trkpt><trkpt lat="43.2858443" lon="-8.3904254"><ele>103.0</ele><time>2026-04-05T10:46:46.6Z</time></trkpt><trkpt lat="43.2858717" lon="-8.3902629"><ele>103.0</ele><time>2026-04-05T10:46:47.6Z</time></trkpt><trkpt lat="43.2859108" lon="-8.3901134"><ele>103.0</ele><time>2026-04-05T10:46:48.6Z</time></trkpt><trkpt lat="43.2859779" lon="-8.3899878"><ele>103.0</ele><time>2026-04-05T10:46:49.6Z</time></trkpt><trkpt lat="43.2860704" lon="-8.3899011"><ele>103.0</ele><time>2026-04-05T10:46:50.6Z</time></trkpt><trkpt lat="43.2861732" lon="-8.3898473"><ele>103.0</ele><time>2026-04-05T10:46:51.6Z</time></trkpt><trkpt lat="43.2862816" lon="-8.3898093"><ele>103.0</ele><time>2026-04-05T10:46:52.6Z</time></trkpt><trkpt lat="43.2863904" lon="-8.3897738"><ele>103.0</ele><time>2026-04-05T10:46:53.599Z</time></trkpt><trkpt lat="43.2864977" lon="-8.3897353"><ele>103.0</ele><time>2026-04-05T10:46:54.6Z</time></trkpt><trkpt lat="43.286604" lon="-8.3896958"><ele>99.80000000000001</ele><time>2026-04-05T10:46:55.6Z</time></trkpt><trkpt lat="43.2867083" lon="-8.3896549"><ele>96.6</ele><time>2026-04-05T10:46:56.599Z</time></trkpt><trkpt lat="43.2868137" lon="-8.3896157"><ele>93.4</ele><time>2026-04-05T10:46:57.6Z</time></trkpt><trkpt lat="43.2869185" lon="-8.389577"><ele>90.19999999999999</ele><time>2026-04-05T10:46:58.599Z</time></trkpt><trkpt lat="43.287024" lon="-8.3895388"><ele>87.0</ele><time>2026-04-05T10:46:59.6Z</time></trkpt><trkpt lat="43.2871301" lon="-8.3895005"><ele>87.0</ele><time>2026-04-05T10:47:00.599Z</time></trkpt><trkpt lat="43.2872369" lon="-8.3894627"><ele>87.0</ele><time>2026-04-05T10:47:01.6Z</time></trkpt><trkpt lat="43.2873456" lon="-8.3894263"><ele>87.0</ele><time>2026-04-05T10:47:02.6Z</time></trkpt><trkpt lat="43.287449" lon="-8.3893944"><ele>87.0</ele><time>2026-04-05T10:47:03.6Z</time></trkpt><trkpt lat="43.2875422" lon="-8.3893646"><ele>87.0</ele><time>2026-04-05T10:47:04.6Z</time></trkpt><trkpt lat="43.2876225" lon="-8.3893378"><ele>86.19999999999999</ele><time>2026-04-05T10:47:05.599Z</time></trkpt><trkpt lat="43.2876888" lon="-8.3893137"><ele>85.4</ele><time>2026-04-05T10:47:06.599Z</time></trkpt><trkpt lat="43.2877728" lon="-8.3892759"><ele>84.6</ele><time>2026-04-05T10:47:08.6Z</time></trkpt><trkpt lat="43.2878504" lon="-8.389243"><ele>83.80000000000001</ele><time>2026-04-05T10:47:11.6Z</time></trkpt><trkpt lat="43.2879423" lon="-8.3892636"><ele>83.0</ele><time>2026-04-05T10:47:15.599Z</time></trkpt><trkpt lat="43.2880483" lon="-8.3893585"><ele>82.4</ele><time>2026-04-05T10:47:17.6Z</time></trkpt><trkpt lat="43.2881101" lon="-8.3894395"><ele>81.80000000000001</ele><time>2026-04-05T10:47:18.6Z</time></trkpt><trkpt lat="43.288175" lon="-8.3895295"><ele>81.2</ele><time>2026-04-05T10:47:19.6Z</time></trkpt><trkpt lat="43.2882422" lon="-8.3896247"><ele>80.6</ele><time>2026-04-05T10:47:20.6Z</time></trkpt><trkpt lat="43.2883135" lon="-8.389727"><ele>80.0</ele><time>2026-04-05T10:47:21.6Z</time></trkpt><trkpt lat="43.2883838" lon="-8.3898341"><ele>80.0</ele><time>2026-04-05T10:47:22.599Z</time></trkpt><trkpt lat="43.2884443" lon="-8.3899487"><ele>80.0</ele><time>2026-04-05T10:47:23.6Z</time></trkpt><trkpt lat="43.2884879" lon="-8.3900705"><ele>80.0</ele><time>2026-04-05T10:47:24.599Z</time></trkpt><trkpt lat="43.2885142" lon="-8.3902007"><ele>80.0</ele><time>2026-04-05T10:47:25.6Z</time></trkpt><trkpt lat="43.288526" lon="-8.3903335"><ele>80.0</ele><time>2026-04-05T10:47:26.6Z</time></trkpt><trkpt lat="43.2885267" lon="-8.390469"><ele>79.8</ele><time>2026-04-05T10:47:27.599Z</time></trkpt><trkpt lat="43.28852" lon="-8.3906049"><ele>79.6</ele><time>2026-04-05T10:47:28.599Z</time></trkpt><trkpt lat="43.2885227" lon="-8.3907392"><ele>79.4</ele><time>2026-04-05T10:47:29.6Z</time></trkpt><trkpt lat="43.288546" lon="-8.3908707"><ele>79.2</ele><time>2026-04-05T10:47:30.599Z</time></trkpt><trkpt lat="43.2885932" lon="-8.3909957"><ele>79.0</ele><time>2026-04-05T10:47:31.6Z</time></trkpt><trkpt lat="43.2886605" lon="-8.3911126"><ele>79.0</ele><time>2026-04-05T10:47:32.599Z</time></trkpt><trkpt lat="43.2887424" lon="-8.3912286"><ele>79.0</ele><time>2026-04-05T10:47:33.6Z</time></trkpt><trkpt lat="43.2888331" lon="-8.3913477"><ele>79.0</ele><time>2026-04-05T10:47:34.599Z</time></trkpt><trkpt lat="43.2889349" lon="-8.3914713"><ele>79.0</ele><time>2026-04-05T10:47:35.6Z</time></trkpt><trkpt lat="43.2890479" lon="-8.3915981"><ele>79.0</ele><time>2026-04-05T10:47:36.6Z</time></trkpt><trkpt lat="43.2891707" lon="-8.3917294"><ele>79.0</ele><time>2026-04-05T10:47:37.6Z</time></trkpt><trkpt lat="43.2892986" lon="-8.3918606"><ele>79.0</ele><time>2026-04-05T10:47:38.6Z</time></trkpt><trkpt lat="43.2894255" lon="-8.3919909"><ele>79.0</ele><time>2026-04-05T10:47:39.6Z</time></trkpt><trkpt lat="43.289548" lon="-8.3921219"><ele>79.0</ele><time>2026-04-05T10:47:40.6Z</time></trkpt><trkpt lat="43.289661" lon="-8.3922581"><ele>79.0</ele><time>2026-04-05T10:47:41.6Z</time></trkpt><trkpt lat="43.2897689" lon="-8.3923927"><ele>80.75</ele><time>2026-04-05T10:47:42.6Z</time></trkpt><trkpt lat="43.2898767" lon="-8.3925044"><ele>82.5</ele><time>2026-04-05T10:47:43.6Z</time></trkpt><trkpt lat="43.289986" lon="-8.3925654"><ele>84.25</ele><time>2026-04-05T10:47:44.6Z</time></trkpt><trkpt lat="43.290097" lon="-8.3925583"><ele>86.0</ele><time>2026-04-05T10:47:45.599Z</time></trkpt><trkpt lat="43.290215" lon="-8.3924954"><ele>86.0</ele><time>2026-04-05T10:47:46.6Z</time></trkpt><trkpt lat="43.2903366" lon="-8.3924119"><ele>86.0</ele><time>2026-04-05T10:47:47.6Z</time></trkpt><trkpt lat="43.2904793" lon="-8.3923193"><ele>86.0</ele><time>2026-04-05T10:47:48.6Z</time></trkpt><trkpt lat="43.2906452" lon="-8.3922278"><ele>86.33333333333334</ele><time>2026-04-05T10:47:49.6Z</time></trkpt><trkpt lat="43.2908235" lon="-8.3921423"><ele>86.66666666666667</ele><time>2026-04-05T10:47:50.599Z</time></trkpt><trkpt lat="43.2910102" lon="-8.3920678"><ele>87.0</ele><time>2026-04-05T10:47:51.599Z</time></trkpt><trkpt lat="43.291198" lon="-8.3920006"><ele>87.0</ele><time>2026-04-05T10:47:52.599Z</time></trkpt><trkpt lat="43.2913781" lon="-8.3919252"><ele>87.0</ele><time>2026-04-05T10:47:53.6Z</time></trkpt><trkpt lat="43.2915413" lon="-8.3918197"><ele>87.0</ele><time>2026-04-05T10:47:54.6Z</time></trkpt><trkpt lat="43.2916867" lon="-8.3916786"><ele>87.33333333333333</ele><time>2026-04-05T10:47:55.599Z</time></trkpt><trkpt lat="43.2918258" lon="-8.3915127"><ele>87.66666666666666</ele><time>2026-04-05T10:47:56.599Z</time></trkpt><trkpt lat="43.2919559" lon="-8.3913321"><ele>88.0</ele><time>2026-04-05T10:47:57.6Z</time></trkpt><trkpt lat="43.2920784" lon="-8.3911471"><ele>88.0</ele><time>2026-04-05T10:47:58.6Z</time></trkpt><trkpt lat="43.2922019" lon="-8.3909671"><ele>88.0</ele><time>2026-04-05T10:47:59.6Z</time></trkpt><trkpt lat="43.2923414" lon="-8.3908049"><ele>88.0</ele><time>2026-04-05T10:48:00.6Z</time></trkpt><trkpt lat="43.2924978" lon="-8.3906671"><ele>88.33333333333333</ele><time>2026-04-05T10:48:01.6Z</time></trkpt><trkpt lat="43.2926662" lon="-8.3905415"><ele>88.66666666666667</ele><time>2026-04-05T10:48:02.6Z</time></trkpt><trkpt lat="43.2928301" lon="-8.3904057"><ele>89.0</ele><time>2026-04-05T10:48:03.6Z</time></trkpt><trkpt lat="43.2929802" lon="-8.3902386"><ele>92.0</ele><time>2026-04-05T10:48:04.599Z</time></trkpt><trkpt lat="43.2931105" lon="-8.3900453"><ele>95.0</ele><time>2026-04-05T10:48:05.6Z</time></trkpt><trkpt lat="43.2932282" lon="-8.3898305"><ele>98.0</ele><time>2026-04-05T10:48:06.599Z</time></trkpt><trkpt lat="43.2933314" lon="-8.3896024"><ele>98.0</ele><time>2026-04-05T10:48:07.6Z</time></trkpt><trkpt lat="43.2934142" lon="-8.389363"><ele>98.0</ele><time>2026-04-05T10:48:08.6Z</time></trkpt><trkpt lat="43.2934754" lon="-8.3891149"><ele>98.0</ele><time>2026-04-05T10:48:09.6Z</time></trkpt><trkpt lat="43.2935172" lon="-8.3888614"><ele>97.0</ele><time>2026-04-05T10:48:10.599Z</time></trkpt><trkpt lat="43.2935421" lon="-8.388605"><ele>96.0</ele><time>2026-04-05T10:48:11.6Z</time></trkpt><trkpt lat="43.2935491" lon="-8.3883524"><ele>95.0</ele><time>2026-04-05T10:48:12.599Z</time></trkpt><trkpt lat="43.2935436" lon="-8.3881149"><ele>96.0</ele><time>2026-04-05T10:48:13.599Z</time></trkpt><trkpt lat="43.29354" lon="-8.3878921"><ele>97.0</ele><time>2026-04-05T10:48:14.6Z</time></trkpt><trkpt lat="43.2935584" lon="-8.3876853"><ele>98.0</ele><time>2026-04-05T10:48:15.6Z</time></trkpt><trkpt lat="43.2936059" lon="-8.3874862"><ele>98.0</ele><time>2026-04-05T10:48:16.6Z</time></trkpt><trkpt lat="43.2936718" lon="-8.3872901"><ele>98.0</ele><time>2026-04-05T10:48:17.6Z</time></trkpt><trkpt lat="43.2937546" lon="-8.3871116"><ele>98.0</ele><time>2026-04-05T10:48:18.6Z</time></trkpt><trkpt lat="43.2938682" lon="-8.3869661"><ele>98.33333333333333</ele><time>2026-04-05T10:48:19.6Z</time></trkpt><trkpt lat="43.2940177" lon="-8.3868508"><ele>98.66666666666666</ele><time>2026-04-05T10:48:20.6Z</time></trkpt><trkpt lat="43.2941938" lon="-8.3867536"><ele>99.0</ele><time>2026-04-05T10:48:21.6Z</time></trkpt><trkpt lat="43.2943814" lon="-8.3866796"><ele>99.0</ele><time>2026-04-05T10:48:22.6Z</time></trkpt><trkpt lat="43.2945706" lon="-8.3866282"><ele>99.0</ele><time>2026-04-05T10:48:23.599Z</time></trkpt><trkpt lat="43.2947475" lon="-8.3865837"><ele>99.0</ele><time>2026-04-05T10:48:24.6Z</time></trkpt><trkpt lat="43.2949143" lon="-8.3865259"><ele>98.66666666666666</ele><time>2026-04-05T10:48:25.6Z</time></trkpt><trkpt lat="43.2950682" lon="-8.3864425"><ele>98.33333333333333</ele><time>2026-04-05T10:48:26.6Z</time></trkpt><trkpt lat="43.2952109" lon="-8.3863436"><ele>98.0</ele><time>2026-04-05T10:48:27.6Z</time></trkpt><trkpt lat="43.2953382" lon="-8.3862485"><ele>98.0</ele><time>2026-04-05T10:48:28.6Z</time></trkpt><trkpt lat="43.2954536" lon="-8.3861487"><ele>98.0</ele><time>2026-04-05T10:48:29.6Z</time></trkpt><trkpt lat="43.2955411" lon="-8.3860272"><ele>98.0</ele><time>2026-04-05T10:48:30.6Z</time></trkpt><trkpt lat="43.2956004" lon="-8.385865"><ele>98.0</ele><time>2026-04-05T10:48:31.599Z</time></trkpt><trkpt lat="43.2956385" lon="-8.3856729"><ele>99.25</ele><time>2026-04-05T10:48:32.6Z</time></trkpt><trkpt lat="43.2956648" lon="-8.3854689"><ele>100.5</ele><time>2026-04-05T10:48:33.6Z</time></trkpt><trkpt lat="43.2957007" lon="-8.3852732"><ele>101.75</ele><time>2026-04-05T10:48:34.599Z</time></trkpt><trkpt lat="43.2957635" lon="-8.3851095"><ele>103.0</ele><time>2026-04-05T10:48:35.599Z</time></trkpt><trkpt lat="43.2958604" lon="-8.3849908"><ele>103.0</ele><time>2026-04-05T10:48:36.6Z</time></trkpt><trkpt lat="43.2959832" lon="-8.3849233"><ele>103.0</ele><time>2026-04-05T10:48:37.6Z</time></trkpt><trkpt lat="43.2961072" lon="-8.3848718"><ele>103.0</ele><time>2026-04-05T10:48:38.599Z</time></trkpt><trkpt lat="43.2962237" lon="-8.384772"><ele>103.0</ele><time>2026-04-05T10:48:39.6Z</time></trkpt><trkpt lat="43.2963556" lon="-8.3846379"><ele>104.0</ele><time>2026-04-05T10:48:40.599Z</time></trkpt><trkpt lat="43.2964992" lon="-8.3844955"><ele>105.0</ele><time>2026-04-05T10:48:41.599Z</time></trkpt><trkpt lat="43.2966498" lon="-8.3843646"><ele>106.0</ele><time>2026-04-05T10:48:42.6Z</time></trkpt><trkpt lat="43.2968145" lon="-8.3842618"><ele>106.0</ele><time>2026-04-05T10:48:43.6Z</time></trkpt><trkpt lat="43.2969975" lon="-8.3841818"><ele>106.0</ele><time>2026-04-05T10:48:44.6Z</time></trkpt><trkpt lat="43.297174" lon="-8.3841021"><ele>106.0</ele><time>2026-04-05T10:48:45.599Z</time></trkpt><trkpt lat="43.2973505" lon="-8.3840142"><ele>106.33333333333334</ele><time>2026-04-05T10:48:46.6Z</time></trkpt><trkpt lat="43.2975046" lon="-8.3839489"><ele>106.66666666666666</ele><time>2026-04-05T10:48:47.6Z</time></trkpt><trkpt lat="43.2976567" lon="-8.3838741"><ele>107.0</ele><time>2026-04-05T10:48:48.6Z</time></trkpt><trkpt lat="43.2978093" lon="-8.3837967"><ele>107.0</ele><time>2026-04-05T10:48:49.6Z</time></trkpt><trkpt lat="43.2979596" lon="-8.3837258"><ele>107.0</ele><time>2026-04-05T10:48:50.6Z</time></trkpt><trkpt lat="43.2981171" lon="-8.3836214"><ele>107.0</ele><time>2026-04-05T10:48:51.6Z</time></trkpt><trkpt lat="43.2982685" lon="-8.3834861"><ele>108.33333333333333</ele><time>2026-04-05T10:48:52.599Z</time></trkpt><trkpt lat="43.2984228" lon="-8.3833364"><ele>109.66666666666666</ele><time>2026-04-05T10:48:53.6Z</time></trkpt><trkpt lat="43.2985861" lon="-8.3831836"><ele>111.0</ele><time>2026-04-05T10:48:54.599Z</time></trkpt><trkpt lat="43.2987437" lon="-8.3830562"><ele>109.66666666666666</ele><time>2026-04-05T10:48:55.6Z</time></trkpt><trkpt lat="43.2989026" lon="-8.3829548"><ele>108.33333333333333</ele><time>2026-04-05T10:48:56.599Z</time></trkpt><trkpt lat="43.2990637" lon="-8.3828679"><ele>107.0</ele><time>2026-04-05T10:48:57.6Z</time></trkpt><trkpt lat="43.2992161" lon="-8.3827819"><ele>107.0</ele><time>2026-04-05T10:48:58.6Z</time></trkpt><trkpt lat="43.2993588" lon="-8.3826918"><ele>107.0</ele><time>2026-04-05T10:48:59.599Z</time></trkpt><trkpt lat="43.2994865" lon="-8.382605"><ele>107.0</ele><time>2026-04-05T10:49:00.6Z</time></trkpt><trkpt lat="43.299604" lon="-8.3825397"><ele>107.0</ele><time>2026-04-05T10:49:01.599Z</time></trkpt><trkpt lat="43.2997196" lon="-8.3825202"><ele>106.5</ele><time>2026-04-05T10:49:02.599Z</time></trkpt><trkpt lat="43.2998349" lon="-8.3825458"><ele>106.0</ele><time>2026-04-05T10:49:03.599Z</time></trkpt><trkpt lat="43.2999609" lon="-8.3825657"><ele>105.5</ele><time>2026-04-05T10:49:04.599Z</time></trkpt><trkpt lat="43.3000944" lon="-8.3825677"><ele>105.0</ele><time>2026-04-05T10:49:05.599Z</time></trkpt><trkpt lat="43.3002331" lon="-8.3825796"><ele>105.0</ele><time>2026-04-05T10:49:06.599Z</time></trkpt><trkpt lat="43.300377" lon="-8.3826192"><ele>105.0</ele><time>2026-04-05T10:49:07.6Z</time></trkpt><trkpt lat="43.3005295" lon="-8.3826964"><ele>105.0</ele><time>2026-04-05T10:49:08.6Z</time></trkpt><trkpt lat="43.3006745" lon="-8.3827926"><ele>105.0</ele><time>2026-04-05T10:49:09.6Z</time></trkpt><trkpt lat="43.3008158" lon="-8.3828968"><ele>105.0</ele><time>2026-04-05T10:49:10.599Z</time></trkpt><trkpt lat="43.3009591" lon="-8.3830021"><ele>105.0</ele><time>2026-04-05T10:49:11.6Z</time></trkpt><trkpt lat="43.3011081" lon="-8.3830928"><ele>104.66666666666666</ele><time>2026-04-05T10:49:12.6Z</time></trkpt><trkpt lat="43.3012623" lon="-8.3831588"><ele>104.33333333333333</ele><time>2026-04-05T10:49:13.6Z</time></trkpt><trkpt lat="43.3014226" lon="-8.3832124"><ele>104.0</ele><time>2026-04-05T10:49:14.6Z</time></trkpt><trkpt lat="43.301586" lon="-8.3832734"><ele>101.0</ele><time>2026-04-05T10:49:15.6Z</time></trkpt><trkpt lat="43.3017457" lon="-8.3833586"><ele>98.0</ele><time>2026-04-05T10:49:16.6Z</time></trkpt><trkpt lat="43.3019007" lon="-8.3834683"><ele>95.0</ele><time>2026-04-05T10:49:17.6Z</time></trkpt><trkpt lat="43.302049" lon="-8.3835998"><ele>95.0</ele><time>2026-04-05T10:49:18.6Z</time></trkpt><trkpt lat="43.3021962" lon="-8.3837469"><ele>95.0</ele><time>2026-04-05T10:49:19.599Z</time></trkpt><trkpt lat="43.302344" lon="-8.383892"><ele>95.0</ele><time>2026-04-05T10:49:20.6Z</time></trkpt><trkpt lat="43.3025" lon="-8.3840248"><ele>92.66666666666667</ele><time>2026-04-05T10:49:21.6Z</time></trkpt><trkpt lat="43.3026604" lon="-8.3841389"><ele>90.33333333333333</ele><time>2026-04-05T10:49:22.6Z</time></trkpt><trkpt lat="43.30282" lon="-8.3842376"><ele>88.0</ele><time>2026-04-05T10:49:23.599Z</time></trkpt><trkpt lat="43.3029794" lon="-8.3843192"><ele>86.0</ele><time>2026-04-05T10:49:24.6Z</time></trkpt><trkpt lat="43.3031389" lon="-8.3843709"><ele>84.0</ele><time>2026-04-05T10:49:25.599Z</time></trkpt><trkpt lat="43.3032973" lon="-8.3843955"><ele>82.0</ele><time>2026-04-05T10:49:26.6Z</time></trkpt><trkpt lat="43.3034572" lon="-8.3844086"><ele>82.0</ele><time>2026-04-05T10:49:27.6Z</time></trkpt><trkpt lat="43.3036099" lon="-8.3844112"><ele>82.0</ele><time>2026-04-05T10:49:28.599Z</time></trkpt><trkpt lat="43.3037604" lon="-8.3843937"><ele>82.0</ele><time>2026-04-05T10:49:29.6Z</time></trkpt><trkpt lat="43.3039018" lon="-8.3843443"><ele>79.25</ele><time>2026-04-05T10:49:30.6Z</time></trkpt><trkpt lat="43.3040301" lon="-8.3842647"><ele>76.5</ele><time>2026-04-05T10:49:31.6Z</time></trkpt><trkpt lat="43.3041485" lon="-8.384166"><ele>73.75</ele><time>2026-04-05T10:49:32.599Z</time></trkpt><trkpt lat="43.3042641" lon="-8.3840671"><ele>71.0</ele><time>2026-04-05T10:49:33.599Z</time></trkpt><trkpt lat="43.3043779" lon="-8.3839742"><ele>71.0</ele><time>2026-04-05T10:49:34.6Z</time></trkpt><trkpt lat="43.3044898" lon="-8.3838933"><ele>71.0</ele><time>2026-04-05T10:49:35.599Z</time></trkpt><trkpt lat="43.3045976" lon="-8.3838248"><ele>71.0</ele><time>2026-04-05T10:49:36.599Z</time></trkpt><trkpt lat="43.3046992" lon="-8.3837691"><ele>71.0</ele><time>2026-04-05T10:49:37.6Z</time></trkpt><trkpt lat="43.3047954" lon="-8.3837232"><ele>62.0</ele><time>2026-04-05T10:49:38.6Z</time></trkpt><trkpt lat="43.3048838" lon="-8.3836875"><ele>62.0</ele><time>2026-04-05T10:49:39.6Z</time></trkpt><trkpt lat="43.3049622" lon="-8.383661"><ele>62.0</ele><time>2026-04-05T10:49:40.6Z</time></trkpt><trkpt lat="43.3050269" lon="-8.3836429"><ele>62.0</ele><time>2026-04-05T10:49:41.599Z</time></trkpt><trkpt lat="43.3051008" lon="-8.3835864"><ele>62.0</ele><time>2026-04-05T10:49:43.599Z</time></trkpt></trkseg></trk></gpx>